<?xml version='1.0' encoding='UTF-8'?><gpx version="1.1" creator="JPX - https://github.com/jenetics/jpx" xmlns="http://www.topografix.com/GPX/1/1"><trk><trkseg><trkpt lat="44.346318791410724" lon="9.91518090291483"><ele>201.0</ele><time>2026-04-19T12:30:12.895Z</time></trkpt><trkpt lat="44.34635483653619" lon="9.915105994265712"><ele>201.0</ele><time>2026-04-19T12:30:14.845Z</time></trkpt><trkpt lat="44.34641369463351" lon="9.914953545247098"><ele>201.0</ele><time>2026-04-19T12:30:18.642Z</time></trkpt><trkpt lat="44.346264459432874" lon="9.915335516200932"><ele>201.0</ele><time>2026-04-19T12:30:52.001Z</time></trkpt><trkpt lat="44.34640089195731" lon="9.9148769985523"><ele>201.0</ele><time>2026-04-19T12:31:01.001Z</time></trkpt><trkpt lat="44.34626445943287" lon="9.91533551620093"><ele>201.0</ele><time>2026-04-19T12:31:08Z</time></trkpt><trkpt lat="44.346275101337575" lon="9.915212765884023"><ele>201.0</ele><time>2026-04-19T12:31:13Z</time></trkpt><trkpt lat="44.346409543059174" lon="9.914865291857499"><ele>201.0</ele><time>2026-04-19T12:31:30Z</time></trkpt><trkpt lat="44.34646184174623" lon="9.914788038243492"><ele>201.0</ele><time>2026-04-19T12:31:35Z</time></trkpt><trkpt lat="44.346507606199765" lon="9.914714733678617"><ele>201.0</ele><time>2026-04-19T12:31:38Z</time></trkpt><trkpt lat="44.34643322648294" lon="9.91458351260196"><ele>201.0</ele><time>2026-04-19T12:31:41.001Z</time></trkpt><trkpt lat="44.346345261312955" lon="9.91445372913679"><ele>201.0</ele><time>2026-04-19T12:31:43.001Z</time></trkpt><trkpt lat="44.34627809661321" lon="9.914346495515254"><ele>201.0</ele><time>2026-04-19T12:31:44.001Z</time></trkpt><trkpt lat="44.346233241581615" lon="9.914260975781756"><ele>201.0</ele><time>2026-04-19T12:31:45.001Z</time></trkpt><trkpt lat="44.34617893637119" lon="9.91415026069002"><ele>200.20000000000002</ele><time>2026-04-19T12:31:46.001Z</time></trkpt><trkpt lat="44.34611769714535" lon="9.914009444695681"><ele>199.4</ele><time>2026-04-19T12:31:47.001Z</time></trkpt><trkpt lat="44.346065814153896" lon="9.913895484926385"><ele>198.6</ele><time>2026-04-19T12:31:48.001Z</time></trkpt><trkpt lat="44.34601109375496" lon="9.913780408304985"><ele>197.8</ele><time>2026-04-19T12:31:49.001Z</time></trkpt><trkpt lat="44.345959486865056" lon="9.913682503464349"><ele>197.0</ele><time>2026-04-19T12:31:50.001Z</time></trkpt><trkpt lat="44.34589663864436" lon="9.913579728640688"><ele>197.0</ele><time>2026-04-19T12:31:51.001Z</time></trkpt><trkpt lat="44.34582974717984" lon="9.913467478421504"><ele>197.0</ele><time>2026-04-19T12:31:52.001Z</time></trkpt><trkpt lat="44.34576337020206" lon="9.913353475161667"><ele>197.0</ele><time>2026-04-19T12:31:53.001Z</time></trkpt><trkpt lat="44.34569947721497" lon="9.913245677597278"><ele>197.0</ele><time>2026-04-19T12:31:54.001Z</time></trkpt><trkpt lat="44.34564651060758" lon="9.913149508839567"><ele>197.0</ele><time>2026-04-19T12:31:55.001Z</time></trkpt><trkpt lat="44.34560454126126" lon="9.913058290698563"><ele>196.50000000000003</ele><time>2026-04-19T12:31:56.001Z</time></trkpt><trkpt lat="44.34556585286093" lon="9.912957069121632"><ele>196.0</ele><time>2026-04-19T12:31:57.001Z</time></trkpt><trkpt lat="44.34554111463459" lon="9.912855446898373"><ele>195.5</ele><time>2026-04-19T12:31:58.001Z</time></trkpt><trkpt lat="44.345510772614055" lon="9.912729580339986"><ele>195.0</ele><time>2026-04-19T12:32:00.001Z</time></trkpt><trkpt lat="44.345439899785895" lon="9.912609670631115"><ele>194.50000000000003</ele><time>2026-04-19T12:32:02.001Z</time></trkpt><trkpt lat="44.34536410398706" lon="9.912575665681679"><ele>194.0</ele><time>2026-04-19T12:32:03.001Z</time></trkpt><trkpt lat="44.345288126369425" lon="9.91257078672402"><ele>193.83333333333334</ele><time>2026-04-19T12:32:04.001Z</time></trkpt><trkpt lat="44.34517458325927" lon="9.912579478189352"><ele>193.66666666666669</ele><time>2026-04-19T12:32:06.001Z</time></trkpt><trkpt lat="44.34510930855607" lon="9.912543638636556"><ele>193.5</ele><time>2026-04-19T12:32:08.001Z</time></trkpt><trkpt lat="44.34511058233724" lon="9.912451708088605"><ele>193.33333333333331</ele><time>2026-04-19T12:32:10.001Z</time></trkpt><trkpt lat="44.34519057617932" lon="9.912406471176157"><ele>193.16666666666666</ele><time>2026-04-19T12:32:11.001Z</time></trkpt><trkpt lat="44.345259660382474" lon="9.912354396608261"><ele>193.0</ele><time>2026-04-19T12:32:12.001Z</time></trkpt><trkpt lat="44.345331449396014" lon="9.91226119921333"><ele>192.83333333333331</ele><time>2026-04-19T12:32:13.001Z</time></trkpt><trkpt lat="44.345368819615935" lon="9.912177817748823"><ele>192.66666666666666</ele><time>2026-04-19T12:32:14.001Z</time></trkpt><trkpt lat="44.34544968023822" lon="9.912056566123429"><ele>192.5</ele><time>2026-04-19T12:32:16.001Z</time></trkpt><trkpt lat="44.345500900017306" lon="9.911984849982566"><ele>192.33333333333331</ele><time>2026-04-19T12:32:17.001Z</time></trkpt><trkpt lat="44.34554645958154" lon="9.91190571143021"><ele>192.16666666666666</ele><time>2026-04-19T12:32:18.001Z</time></trkpt><trkpt lat="44.34561502832795" lon="9.911838486349467"><ele>192.0</ele><time>2026-04-19T12:32:19.001Z</time></trkpt><trkpt lat="44.34569540292074" lon="9.911788071331136"><ele>192.0</ele><time>2026-04-19T12:32:20.001Z</time></trkpt><trkpt lat="44.34578532605534" lon="9.91175156379111"><ele>192.0</ele><time>2026-04-19T12:32:21.001Z</time></trkpt><trkpt lat="44.34589539886476" lon="9.911726403915093"><ele>192.0</ele><time>2026-04-19T12:32:22.001Z</time></trkpt><trkpt lat="44.346031831994665" lon="9.911695479329792"><ele>192.0</ele><time>2026-04-19T12:32:23.001Z</time></trkpt><trkpt lat="44.34617897543224" lon="9.911632627932903"><ele>191.66666666666666</ele><time>2026-04-19T12:32:24.001Z</time></trkpt><trkpt lat="44.3463262539431" lon="9.911554491131934"><ele>191.33333333333331</ele><time>2026-04-19T12:32:25.001Z</time></trkpt><trkpt lat="44.346469795769835" lon="9.911444357121164"><ele>191.0</ele><time>2026-04-19T12:32:26.001Z</time></trkpt><trkpt lat="44.34660236630234" lon="9.911323045113713"><ele>191.0</ele><time>2026-04-19T12:32:27.001Z</time></trkpt><trkpt lat="44.34672593344921" lon="9.9111774995681"><ele>191.0</ele><time>2026-04-19T12:32:28.001Z</time></trkpt><trkpt lat="44.346844691461115" lon="9.911012562946977"><ele>191.0</ele><time>2026-04-19T12:32:29.001Z</time></trkpt><trkpt lat="44.346955013767236" lon="9.910825251026123"><ele>189.33333333333331</ele><time>2026-04-19T12:32:30.001Z</time></trkpt><trkpt lat="44.34706147269427" lon="9.910627083590864"><ele>187.66666666666666</ele><time>2026-04-19T12:32:31.001Z</time></trkpt><trkpt lat="44.34716808428815" lon="9.910416500828443"><ele>186.0</ele><time>2026-04-19T12:32:32.001Z</time></trkpt><trkpt lat="44.34727720560031" lon="9.910208789333119"><ele>185.33333333333334</ele><time>2026-04-19T12:32:33.001Z</time></trkpt><trkpt lat="44.34738664030594" lon="9.910002487920837"><ele>184.66666666666669</ele><time>2026-04-19T12:32:34.001Z</time></trkpt><trkpt lat="44.34749278092664" lon="9.90980962595699"><ele>184.0</ele><time>2026-04-19T12:32:35.001Z</time></trkpt><trkpt lat="44.34759069786776" lon="9.909621412425471"><ele>184.0</ele><time>2026-04-19T12:32:36.001Z</time></trkpt><trkpt lat="44.34768983482721" lon="9.90943787829242"><ele>184.0</ele><time>2026-04-19T12:32:37.001Z</time></trkpt><trkpt lat="44.347793450616706" lon="9.90926061899303"><ele>184.0</ele><time>2026-04-19T12:32:38.001Z</time></trkpt><trkpt lat="44.34789143605843" lon="9.909090198782797"><ele>184.0</ele><time>2026-04-19T12:32:39.001Z</time></trkpt><trkpt lat="44.34798259761096" lon="9.908935620582419"><ele>184.0</ele><time>2026-04-19T12:32:40.001Z</time></trkpt><trkpt lat="44.34806690278415" lon="9.908804731583967"><ele>184.0</ele><time>2026-04-19T12:32:41.001Z</time></trkpt><trkpt lat="44.34814585251824" lon="9.908682381660494"><ele>184.0</ele><time>2026-04-19T12:32:42.001Z</time></trkpt><trkpt lat="44.34822520142551" lon="9.908565127931134"><ele>184.0</ele><time>2026-04-19T12:32:43.001Z</time></trkpt><trkpt lat="44.348308896333705" lon="9.908459664605255"><ele>184.0</ele><time>2026-04-19T12:32:44.001Z</time></trkpt><trkpt lat="44.3483991088619" lon="9.908348973521576"><ele>184.0</ele><time>2026-04-19T12:32:45.001Z</time></trkpt><trkpt lat="44.348494037400826" lon="9.908246453669108"><ele>184.0</ele><time>2026-04-19T12:32:46.001Z</time></trkpt><trkpt lat="44.34858513158764" lon="9.908154349724406"><ele>184.0</ele><time>2026-04-19T12:32:47.001Z</time></trkpt><trkpt lat="44.34867668404801" lon="9.908067163555948"><ele>184.0</ele><time>2026-04-19T12:32:48.001Z</time></trkpt><trkpt lat="44.34877329302302" lon="9.907977059536268"><ele>184.0</ele><time>2026-04-19T12:32:49.001Z</time></trkpt><trkpt lat="44.34886858793321" lon="9.90789098065233"><ele>184.0</ele><time>2026-04-19T12:32:50.001Z</time></trkpt><trkpt lat="44.34897126975314" lon="9.907806072671265"><ele>184.5</ele><time>2026-04-19T12:32:51.001Z</time></trkpt><trkpt lat="44.34907139460404" lon="9.907728816914021"><ele>185.0</ele><time>2026-04-19T12:32:52.001Z</time></trkpt><trkpt lat="44.349171590042246" lon="9.907651408651928"><ele>185.5</ele><time>2026-04-19T12:32:53.001Z</time></trkpt><trkpt lat="44.34927098266377" lon="9.90757498697107"><ele>186.0</ele><time>2026-04-19T12:32:54.001Z</time></trkpt><trkpt lat="44.34936999727016" lon="9.90749703443169"><ele>186.0</ele><time>2026-04-19T12:32:55.001Z</time></trkpt><trkpt lat="44.34947064235055" lon="9.907424269467107"><ele>186.0</ele><time>2026-04-19T12:32:56.001Z</time></trkpt><trkpt lat="44.34957501449449" lon="9.907357867501963"><ele>186.0</ele><time>2026-04-19T12:32:57.001Z</time></trkpt><trkpt lat="44.349680025466284" lon="9.907292216502183"><ele>186.0</ele><time>2026-04-19T12:32:58.001Z</time></trkpt><trkpt lat="44.349786503538596" lon="9.907228815608558"><ele>186.5</ele><time>2026-04-19T12:32:59.001Z</time></trkpt><trkpt lat="44.34989564877667" lon="9.907168415084916"><ele>187.0</ele><time>2026-04-19T12:33:00.001Z</time></trkpt><trkpt lat="44.35000616876505" lon="9.90711769170701"><ele>187.5</ele><time>2026-04-19T12:33:01.001Z</time></trkpt><trkpt lat="44.350119565561464" lon="9.907064132669056"><ele>188.0</ele><time>2026-04-19T12:33:02.001Z</time></trkpt><trkpt lat="44.35023481400734" lon="9.90701311760852"><ele>188.0</ele><time>2026-04-19T12:33:03.001Z</time></trkpt><trkpt lat="44.350348796258146" lon="9.906965217283917"><ele>188.0</ele><time>2026-04-19T12:33:04.001Z</time></trkpt><trkpt lat="44.35046087552183" lon="9.906922230162051"><ele>188.0</ele><time>2026-04-19T12:33:05.001Z</time></trkpt><trkpt lat="44.350575259683545" lon="9.906880645136836"><ele>188.0</ele><time>2026-04-19T12:33:06.001Z</time></trkpt><trkpt lat="44.35069171926389" lon="9.906838211657789"><ele>188.33333333333331</ele><time>2026-04-19T12:33:07.001Z</time></trkpt><trkpt lat="44.35082087273468" lon="9.906792586497945"><ele>188.66666666666666</ele><time>2026-04-19T12:33:08.001Z</time></trkpt><trkpt lat="44.35097425051504" lon="9.906737624462117"><ele>189.0</ele><time>2026-04-19T12:33:09.001Z</time></trkpt><trkpt lat="44.351150705418256" lon="9.906673127230345"><ele>189.0</ele><time>2026-04-19T12:33:10.001Z</time></trkpt><trkpt lat="44.35134391085764" lon="9.906595784484217"><ele>189.0</ele><time>2026-04-19T12:33:11.001Z</time></trkpt><trkpt lat="44.35154565200383" lon="9.906507477014559"><ele>189.0</ele><time>2026-04-19T12:33:12.001Z</time></trkpt><trkpt lat="44.35175165950306" lon="9.906414295882824"><ele>190.0</ele><time>2026-04-19T12:33:13.001Z</time></trkpt><trkpt lat="44.35195861050508" lon="9.906328788089361"><ele>191.0</ele><time>2026-04-19T12:33:14.001Z</time></trkpt><trkpt lat="44.352168335396776" lon="9.90624192229865"><ele>192.0</ele><time>2026-04-19T12:33:15.001Z</time></trkpt><trkpt lat="44.35237359749088" lon="9.906150133041177"><ele>192.33333333333331</ele><time>2026-04-19T12:33:16.001Z</time></trkpt><trkpt lat="44.35257199799131" lon="9.906051869777267"><ele>192.66666666666666</ele><time>2026-04-19T12:33:17.001Z</time></trkpt><trkpt lat="44.3527694347311" lon="9.905931141444"><ele>193.0</ele><time>2026-04-19T12:33:18.001Z</time></trkpt><trkpt lat="44.35296056709938" lon="9.905795072875351"><ele>194.5</ele><time>2026-04-19T12:33:19.001Z</time></trkpt><trkpt lat="44.35315678423115" lon="9.905639124725019"><ele>196.0</ele><time>2026-04-19T12:33:20.001Z</time></trkpt><trkpt lat="44.35335542784332" lon="9.905473073274527"><ele>196.0</ele><time>2026-04-19T12:33:21.001Z</time></trkpt><trkpt lat="44.35355744436587" lon="9.905304463161775"><ele>196.0</ele><time>2026-04-19T12:33:22.001Z</time></trkpt><trkpt lat="44.35376198619034" lon="9.905134782575143"><ele>197.0</ele><time>2026-04-19T12:33:23.001Z</time></trkpt><trkpt lat="44.35397476121037" lon="9.904965240691025"><ele>198.0</ele><time>2026-04-19T12:33:24.001Z</time></trkpt><trkpt lat="44.35418739131864" lon="9.90479124157611"><ele>198.0</ele><time>2026-04-19T12:33:25.001Z</time></trkpt><trkpt lat="44.35439758291937" lon="9.904618160272788"><ele>198.0</ele><time>2026-04-19T12:33:26.001Z</time></trkpt><trkpt lat="44.35461056290208" lon="9.90444400404947"><ele>198.5</ele><time>2026-04-19T12:33:27.001Z</time></trkpt><trkpt lat="44.35483009896649" lon="9.90426518670542"><ele>199.0</ele><time>2026-04-19T12:33:28.001Z</time></trkpt><trkpt lat="44.35504264162681" lon="9.904089810270097"><ele>199.0</ele><time>2026-04-19T12:33:29.001Z</time></trkpt><trkpt lat="44.355258238900504" lon="9.903914341980087"><ele>199.0</ele><time>2026-04-19T12:33:30.001Z</time></trkpt><trkpt lat="44.35546689967834" lon="9.9037471218722"><ele>198.5</ele><time>2026-04-19T12:33:31.001Z</time></trkpt><trkpt lat="44.35567539630805" lon="9.903597789641944"><ele>198.0</ele><time>2026-04-19T12:33:32.001Z</time></trkpt><trkpt lat="44.35588898888744" lon="9.90346837628964"><ele>199.5</ele><time>2026-04-19T12:33:33.001Z</time></trkpt><trkpt lat="44.35611914357165" lon="9.903344946365396"><ele>201.0</ele><time>2026-04-19T12:33:34.001Z</time></trkpt><trkpt lat="44.356353863341276" lon="9.90321872709074"><ele>201.5</ele><time>2026-04-19T12:33:35.001Z</time></trkpt><trkpt lat="44.356590776045714" lon="9.903081281650758"><ele>202.0</ele><time>2026-04-19T12:33:36.001Z</time></trkpt><trkpt lat="44.35682539267042" lon="9.902949359209263"><ele>202.0</ele><time>2026-04-19T12:33:37.001Z</time></trkpt><trkpt lat="44.35705885667646" lon="9.902817950165232"><ele>202.0</ele><time>2026-04-19T12:33:38.001Z</time></trkpt><trkpt lat="44.35728657066485" lon="9.902692301498822"><ele>202.0</ele><time>2026-04-19T12:33:39.001Z</time></trkpt><trkpt lat="44.35749504054208" lon="9.902579925070915"><ele>202.0</ele><time>2026-04-19T12:33:40.001Z</time></trkpt><trkpt lat="44.357683933867776" lon="9.902470301589977"><ele>202.0</ele><time>2026-04-19T12:33:41.001Z</time></trkpt><trkpt lat="44.35786080845234" lon="9.902345340550596"><ele>202.0</ele><time>2026-04-19T12:33:42.001Z</time></trkpt><trkpt lat="44.35803278771725" lon="9.902185579800749"><ele>202.0</ele><time>2026-04-19T12:33:43.001Z</time></trkpt><trkpt lat="44.3581928343693" lon="9.902001110735814"><ele>202.0</ele><time>2026-04-19T12:33:44.001Z</time></trkpt><trkpt lat="44.358353786781784" lon="9.901810927950855"><ele>201.66666666666666</ele><time>2026-04-19T12:33:45.001Z</time></trkpt><trkpt lat="44.35851315674979" lon="9.901626380810136"><ele>201.33333333333331</ele><time>2026-04-19T12:33:46.001Z</time></trkpt><trkpt lat="44.35865715637637" lon="9.901457259249021"><ele>201.0</ele><time>2026-04-19T12:33:47.001Z</time></trkpt><trkpt lat="44.35879098852577" lon="9.9013039770759"><ele>201.25</ele><time>2026-04-19T12:33:48.001Z</time></trkpt><trkpt lat="44.358910662608295" lon="9.901165770071495"><ele>201.5</ele><time>2026-04-19T12:33:49.001Z</time></trkpt><trkpt lat="44.35901960749526" lon="9.901039385786099"><ele>201.75</ele><time>2026-04-19T12:33:50.001Z</time></trkpt><trkpt lat="44.35911836834865" lon="9.900927079774636"><ele>202.0</ele><time>2026-04-19T12:33:51.001Z</time></trkpt><trkpt lat="44.35920701816055" lon="9.900827174595547"><ele>202.0</ele><time>2026-04-19T12:33:52.001Z</time></trkpt><trkpt lat="44.359286708328966" lon="9.90073167938825"><ele>202.0</ele><time>2026-04-19T12:33:53.001Z</time></trkpt><trkpt lat="44.35935813300694" lon="9.900644835246029"><ele>202.0</ele><time>2026-04-19T12:33:54.001Z</time></trkpt><trkpt lat="44.3594363812085" lon="9.900554087698548"><ele>202.0</ele><time>2026-04-19T12:33:55.001Z</time></trkpt><trkpt lat="44.35951789600004" lon="9.900459976100565"><ele>202.0</ele><time>2026-04-19T12:33:56.001Z</time></trkpt><trkpt lat="44.359603290319946" lon="9.900370214879771"><ele>202.0</ele><time>2026-04-19T12:33:57.001Z</time></trkpt><trkpt lat="44.359689217187814" lon="9.900273587482076"><ele>202.0</ele><time>2026-04-19T12:33:58.001Z</time></trkpt><trkpt lat="44.35977396057398" lon="9.900177037234222"><ele>202.0</ele><time>2026-04-19T12:33:59.001Z</time></trkpt><trkpt lat="44.359863277842784" lon="9.900081159759749"><ele>202.0</ele><time>2026-04-19T12:34:00.001Z</time></trkpt><trkpt lat="44.35994897153474" lon="9.899976372244696"><ele>202.0</ele><time>2026-04-19T12:34:01.001Z</time></trkpt><trkpt lat="44.36003853696463" lon="9.899869041955801"><ele>202.5</ele><time>2026-04-19T12:34:02.002Z</time></trkpt><trkpt lat="44.360127656747935" lon="9.899765547045433"><ele>203.0</ele><time>2026-04-19T12:34:03.002Z</time></trkpt><trkpt lat="44.36021773067048" lon="9.89966347063671"><ele>203.5</ele><time>2026-04-19T12:34:04.002Z</time></trkpt><trkpt lat="44.360304088912116" lon="9.899560664991007"><ele>204.0</ele><time>2026-04-19T12:34:05.002Z</time></trkpt><trkpt lat="44.360391198748545" lon="9.899459280781958"><ele>204.0</ele><time>2026-04-19T12:34:06.002Z</time></trkpt><trkpt lat="44.360477236445135" lon="9.899354139558058"><ele>204.0</ele><time>2026-04-19T12:34:07.002Z</time></trkpt><trkpt lat="44.36056639543349" lon="9.8992541733169"><ele>204.0</ele><time>2026-04-19T12:34:08.002Z</time></trkpt><trkpt lat="44.36065564495356" lon="9.89915196338676"><ele>204.0</ele><time>2026-04-19T12:34:09.002Z</time></trkpt><trkpt lat="44.36075504124465" lon="9.899059513974347"><ele>204.66666666666669</ele><time>2026-04-19T12:34:10.002Z</time></trkpt><trkpt lat="44.360849475640116" lon="9.898937257641984"><ele>205.33333333333334</ele><time>2026-04-19T12:34:11.002Z</time></trkpt><trkpt lat="44.36097054403959" lon="9.89878677185658"><ele>206.0</ele><time>2026-04-19T12:34:12.002Z</time></trkpt><trkpt lat="44.361113368506395" lon="9.898622613132398"><ele>206.0</ele><time>2026-04-19T12:34:13.002Z</time></trkpt><trkpt lat="44.36126877452286" lon="9.898441800640034"><ele>206.0</ele><time>2026-04-19T12:34:14.002Z</time></trkpt><trkpt lat="44.36143585423947" lon="9.898255831003693"><ele>206.0</ele><time>2026-04-19T12:34:15.002Z</time></trkpt><trkpt lat="44.36160343787051" lon="9.898063328696596"><ele>207.0</ele><time>2026-04-19T12:34:16.002Z</time></trkpt><trkpt lat="44.361779453843084" lon="9.897859153990954"><ele>208.0</ele><time>2026-04-19T12:34:17.002Z</time></trkpt><trkpt lat="44.36196871791821" lon="9.897650354844512"><ele>207.5</ele><time>2026-04-19T12:34:18.002Z</time></trkpt><trkpt lat="44.36216289231549" lon="9.89743199022117"><ele>207.0</ele><time>2026-04-19T12:34:19.002Z</time></trkpt><trkpt lat="44.36235147446586" lon="9.897214374460972"><ele>207.66666666666669</ele><time>2026-04-19T12:34:20.002Z</time></trkpt><trkpt lat="44.362526978074484" lon="9.897006711876468"><ele>208.33333333333334</ele><time>2026-04-19T12:34:21.002Z</time></trkpt><trkpt lat="44.36268621402461" lon="9.896817086305022"><ele>209.0</ele><time>2026-04-19T12:34:22.002Z</time></trkpt><trkpt lat="44.36284155864256" lon="9.89664740409948"><ele>209.66666666666669</ele><time>2026-04-19T12:34:23.002Z</time></trkpt><trkpt lat="44.36298840650192" lon="9.896483151722721"><ele>210.33333333333331</ele><time>2026-04-19T12:34:24.002Z</time></trkpt><trkpt lat="44.36312775970493" lon="9.896325740557222"><ele>211.0</ele><time>2026-04-19T12:34:25.002Z</time></trkpt><trkpt lat="44.363264138945475" lon="9.896162202595658"><ele>211.0</ele><time>2026-04-19T12:34:26.002Z</time></trkpt><trkpt lat="44.36338362334355" lon="9.895989280280164"><ele>211.0</ele><time>2026-04-19T12:34:27.002Z</time></trkpt><trkpt lat="44.363483672826526" lon="9.895782123672435"><ele>211.0</ele><time>2026-04-19T12:34:28.002Z</time></trkpt><trkpt lat="44.36357943608721" lon="9.895537561289673"><ele>210.0</ele><time>2026-04-19T12:34:29.002Z</time></trkpt><trkpt lat="44.36368648814094" lon="9.895284467651855"><ele>209.0</ele><time>2026-04-19T12:34:30.002Z</time></trkpt><trkpt lat="44.363797524057816" lon="9.895022734212855"><ele>208.0</ele><time>2026-04-19T12:34:31.002Z</time></trkpt><trkpt lat="44.363914449893954" lon="9.894761989641108"><ele>209.33333333333331</ele><time>2026-04-19T12:34:32.002Z</time></trkpt><trkpt lat="44.364030271112796" lon="9.894501580233118"><ele>210.66666666666669</ele><time>2026-04-19T12:34:33.002Z</time></trkpt><trkpt lat="44.36414086010134" lon="9.894243904263618"><ele>212.0</ele><time>2026-04-19T12:34:34.002Z</time></trkpt><trkpt lat="44.3642409168387" lon="9.89399401475651"><ele>212.0</ele><time>2026-04-19T12:34:35.002Z</time></trkpt><trkpt lat="44.36432015716245" lon="9.893739258241315"><ele>212.0</ele><time>2026-04-19T12:34:36.002Z</time></trkpt><trkpt lat="44.3643856423332" lon="9.893470215613366"><ele>212.0</ele><time>2026-04-19T12:34:37.002Z</time></trkpt><trkpt lat="44.36443814315169" lon="9.893192733151837"><ele>211.66666666666669</ele><time>2026-04-19T12:34:38.002Z</time></trkpt><trkpt lat="44.364471479997384" lon="9.892894450748992"><ele>211.33333333333331</ele><time>2026-04-19T12:34:39.002Z</time></trkpt><trkpt lat="44.36447012180323" lon="9.892600149718845"><ele>211.0</ele><time>2026-04-19T12:34:40.002Z</time></trkpt><trkpt lat="44.36444630342169" lon="9.8923027371114"><ele>211.0</ele><time>2026-04-19T12:34:41.002Z</time></trkpt><trkpt lat="44.36442046120922" lon="9.891996372947062"><ele>211.0</ele><time>2026-04-19T12:34:42.002Z</time></trkpt><trkpt lat="44.36439995097162" lon="9.891696380492"><ele>211.0</ele><time>2026-04-19T12:34:43.002Z</time></trkpt><trkpt lat="44.36438578610643" lon="9.891396105601471"><ele>211.0</ele><time>2026-04-19T12:34:44.002Z</time></trkpt><trkpt lat="44.36437106302824" lon="9.891110253045861"><ele>211.0</ele><time>2026-04-19T12:34:45.002Z</time></trkpt><trkpt lat="44.3643541798743" lon="9.890830071630484"><ele>211.0</ele><time>2026-04-19T12:34:46.002Z</time></trkpt><trkpt lat="44.36433770385001" lon="9.890553827929084"><ele>211.66666666666666</ele><time>2026-04-19T12:34:47.002Z</time></trkpt><trkpt lat="44.36431344257331" lon="9.890284985849693"><ele>212.33333333333331</ele><time>2026-04-19T12:34:48.002Z</time></trkpt><trkpt lat="44.36428032750042" lon="9.890030480322633"><ele>213.0</ele><time>2026-04-19T12:34:49.002Z</time></trkpt><trkpt lat="44.36421736243756" lon="9.889779294179558"><ele>213.66666666666669</ele><time>2026-04-19T12:34:50.002Z</time></trkpt><trkpt lat="44.36415352147852" lon="9.889536101065431"><ele>214.33333333333334</ele><time>2026-04-19T12:34:51.002Z</time></trkpt><trkpt lat="44.36409085683445" lon="9.889289226234201"><ele>215.0</ele><time>2026-04-19T12:34:52.002Z</time></trkpt><trkpt lat="44.36402923186315" lon="9.889047481479647"><ele>214.0</ele><time>2026-04-19T12:34:53.002Z</time></trkpt><trkpt lat="44.363975982100015" lon="9.888831514877506"><ele>213.0</ele><time>2026-04-19T12:34:54.002Z</time></trkpt><trkpt lat="44.36392540106903" lon="9.888632460637922"><ele>212.0</ele><time>2026-04-19T12:34:55.002Z</time></trkpt><trkpt lat="44.363874417696444" lon="9.888459158479458"><ele>211.0</ele><time>2026-04-19T12:34:56.002Z</time></trkpt><trkpt lat="44.363813660543926" lon="9.888307362301633"><ele>211.0</ele><time>2026-04-19T12:34:57.002Z</time></trkpt><trkpt lat="44.36375316752122" lon="9.888158595055684"><ele>211.0</ele><time>2026-04-19T12:34:58.002Z</time></trkpt><trkpt lat="44.36368802479965" lon="9.888010542656591"><ele>211.0</ele><time>2026-04-19T12:34:59.002Z</time></trkpt><trkpt lat="44.36363286325001" lon="9.88784364882311"><ele>211.0</ele><time>2026-04-19T12:35:00.002Z</time></trkpt><trkpt lat="44.36361690138696" lon="9.887660309144842"><ele>211.75</ele><time>2026-04-19T12:35:01.002Z</time></trkpt><trkpt lat="44.363609350303925" lon="9.887455812445609"><ele>212.5</ele><time>2026-04-19T12:35:02.002Z</time></trkpt><trkpt lat="44.36360879841989" lon="9.887242612926771"><ele>213.25</ele><time>2026-04-19T12:35:03.002Z</time></trkpt><trkpt lat="44.36361335573811" lon="9.887051956312833"><ele>214.0</ele><time>2026-04-19T12:35:04.002Z</time></trkpt><trkpt lat="44.36363508193132" lon="9.886877845179308"><ele>214.0</ele><time>2026-04-19T12:35:05.002Z</time></trkpt><trkpt lat="44.36371182372559" lon="9.886737350712988"><ele>214.0</ele><time>2026-04-19T12:35:06.002Z</time></trkpt><trkpt lat="44.36380394764503" lon="9.886570713453581"><ele>214.0</ele><time>2026-04-19T12:35:07.002Z</time></trkpt><trkpt lat="44.363897579707704" lon="9.886401925628498"><ele>214.0</ele><time>2026-04-19T12:35:08.002Z</time></trkpt><trkpt lat="44.36399728341169" lon="9.88622219263836"><ele>217.33333333333331</ele><time>2026-04-19T12:35:09.002Z</time></trkpt><trkpt lat="44.36408785046876" lon="9.88602283616986"><ele>220.66666666666669</ele><time>2026-04-19T12:35:10.002Z</time></trkpt><trkpt lat="44.364195149179004" lon="9.885840962976529"><ele>224.0</ele><time>2026-04-19T12:35:11.002Z</time></trkpt><trkpt lat="44.36429782177047" lon="9.885650255435968"><ele>224.0</ele><time>2026-04-19T12:35:12.002Z</time></trkpt><trkpt lat="44.36441639207242" lon="9.88549439792866"><ele>224.0</ele><time>2026-04-19T12:35:13.002Z</time></trkpt><trkpt lat="44.364537729409335" lon="9.8853538707199"><ele>224.0</ele><time>2026-04-19T12:35:14.002Z</time></trkpt><trkpt lat="44.36467139862688" lon="9.885232574625334"><ele>223.66666666666669</ele><time>2026-04-19T12:35:15.002Z</time></trkpt><trkpt lat="44.364818547460395" lon="9.885132081237932"><ele>223.33333333333331</ele><time>2026-04-19T12:35:16.002Z</time></trkpt><trkpt lat="44.36497260717571" lon="9.88505513662546"><ele>223.0</ele><time>2026-04-19T12:35:17.002Z</time></trkpt><trkpt lat="44.365132191820635" lon="9.885038688986086"><ele>223.0</ele><time>2026-04-19T12:35:18.002Z</time></trkpt><trkpt lat="44.36530714434498" lon="9.885034700961482"><ele>223.0</ele><time>2026-04-19T12:35:19.002Z</time></trkpt><trkpt lat="44.36549392649423" lon="9.885062103080834"><ele>223.0</ele><time>2026-04-19T12:35:20.002Z</time></trkpt><trkpt lat="44.36569837483984" lon="9.885079567853953"><ele>236.0</ele><time>2026-04-19T12:35:21.002Z</time></trkpt><trkpt lat="44.36589562771749" lon="9.88512283032847"><ele>249.0</ele><time>2026-04-19T12:35:22.002Z</time></trkpt><trkpt lat="44.36609235583925" lon="9.885161917299165"><ele>262.0</ele><time>2026-04-19T12:35:23.002Z</time></trkpt><trkpt lat="44.36630121130596" lon="9.885199401632375"><ele>256.66666666666663</ele><time>2026-04-19T12:35:24.002Z</time></trkpt><trkpt lat="44.36650461053661" lon="9.885214982633363"><ele>251.33333333333331</ele><time>2026-04-19T12:35:25.002Z</time></trkpt><trkpt lat="44.36671590485977" lon="9.885211590804648"><ele>246.0</ele><time>2026-04-19T12:35:26.002Z</time></trkpt><trkpt lat="44.366930316391766" lon="9.88520619620798"><ele>246.0</ele><time>2026-04-19T12:35:27.002Z</time></trkpt><trkpt lat="44.36713964204968" lon="9.885208654037472"><ele>246.0</ele><time>2026-04-19T12:35:28.002Z</time></trkpt><trkpt lat="44.36734504549543" lon="9.8852152090854"><ele>246.0</ele><time>2026-04-19T12:35:29.002Z</time></trkpt><trkpt lat="44.367537924455235" lon="9.885218328136704"><ele>241.0</ele><time>2026-04-19T12:35:30.002Z</time></trkpt><trkpt lat="44.36770714258611" lon="9.885220690916782"><ele>236.0</ele><time>2026-04-19T12:35:31.002Z</time></trkpt><trkpt lat="44.36787369890811" lon="9.885230690792698"><ele>231.0</ele><time>2026-04-19T12:35:32.002Z</time></trkpt><trkpt lat="44.36803589473019" lon="9.885254760331566"><ele>230.66666666666669</ele><time>2026-04-19T12:35:33.002Z</time></trkpt><trkpt lat="44.368196049313475" lon="9.885296121670617"><ele>230.33333333333334</ele><time>2026-04-19T12:35:34.002Z</time></trkpt><trkpt lat="44.36835336134789" lon="9.885369936470415"><ele>230.0</ele><time>2026-04-19T12:35:35.002Z</time></trkpt><trkpt lat="44.368513113100406" lon="9.885473711744606"><ele>230.0</ele><time>2026-04-19T12:35:36.002Z</time></trkpt><trkpt lat="44.36866605838491" lon="9.885573466212659"><ele>230.0</ele><time>2026-04-19T12:35:37.002Z</time></trkpt><trkpt lat="44.368817194338135" lon="9.885676021667363"><ele>230.0</ele><time>2026-04-19T12:35:38.002Z</time></trkpt><trkpt lat="44.368970605067226" lon="9.885774315228122"><ele>230.33333333333334</ele><time>2026-04-19T12:35:39.002Z</time></trkpt><trkpt lat="44.369123190239215" lon="9.885877329039666"><ele>230.66666666666669</ele><time>2026-04-19T12:35:40.002Z</time></trkpt><trkpt lat="44.369279590694546" lon="9.885973892618999"><ele>231.0</ele><time>2026-04-19T12:35:41.002Z</time></trkpt><trkpt lat="44.36943361843958" lon="9.88606920954487"><ele>231.0</ele><time>2026-04-19T12:35:42.002Z</time></trkpt><trkpt lat="44.36957868863324" lon="9.886169806331882"><ele>231.0</ele><time>2026-04-19T12:35:43.002Z</time></trkpt><trkpt lat="44.36972187329663" lon="9.88627050282176"><ele>231.0</ele><time>2026-04-19T12:35:44.002Z</time></trkpt><trkpt lat="44.36986391347737" lon="9.886378778092334"><ele>231.0</ele><time>2026-04-19T12:35:45.002Z</time></trkpt><trkpt lat="44.370002917149286" lon="9.886493240549658"><ele>231.0</ele><time>2026-04-19T12:35:46.002Z</time></trkpt><trkpt lat="44.370140506005725" lon="9.88659588346607"><ele>231.0</ele><time>2026-04-19T12:35:47.002Z</time></trkpt><trkpt lat="44.37028253857887" lon="9.886699485980927"><ele>231.33333333333331</ele><time>2026-04-19T12:35:48.002Z</time></trkpt><trkpt lat="44.37042830290914" lon="9.886810656684965"><ele>231.66666666666666</ele><time>2026-04-19T12:35:49.002Z</time></trkpt><trkpt lat="44.370585972394416" lon="9.88691423426886"><ele>232.0</ele><time>2026-04-19T12:35:50.002Z</time></trkpt><trkpt lat="44.37074600690669" lon="9.887006597074125"><ele>232.0</ele><time>2026-04-19T12:35:51.002Z</time></trkpt><trkpt lat="44.37091208839933" lon="9.887086655807396"><ele>232.0</ele><time>2026-04-19T12:35:52.002Z</time></trkpt><trkpt lat="44.37108622444857" lon="9.887156299977937"><ele>232.0</ele><time>2026-04-19T12:35:53.002Z</time></trkpt><trkpt lat="44.37126822471215" lon="9.887207465222232"><ele>232.66666666666666</ele><time>2026-04-19T12:35:54.002Z</time></trkpt><trkpt lat="44.37145443155037" lon="9.887232314739029"><ele>233.33333333333331</ele><time>2026-04-19T12:35:55.002Z</time></trkpt><trkpt lat="44.371644464149234" lon="9.887237094486476"><ele>234.0</ele><time>2026-04-19T12:35:56.002Z</time></trkpt><trkpt lat="44.371833932270945" lon="9.887229166019102"><ele>234.0</ele><time>2026-04-19T12:35:57.003Z</time></trkpt><trkpt lat="44.37203317696649" lon="9.887197782504897"><ele>234.0</ele><time>2026-04-19T12:35:58.003Z</time></trkpt><trkpt lat="44.372240920270436" lon="9.887138785760062"><ele>234.0</ele><time>2026-04-19T12:35:59.003Z</time></trkpt><trkpt lat="44.372452110723955" lon="9.887049672842098"><ele>234.5</ele><time>2026-04-19T12:36:00.003Z</time></trkpt><trkpt lat="44.37269372309386" lon="9.886970394741393"><ele>235.0</ele><time>2026-04-19T12:36:01.003Z</time></trkpt><trkpt lat="44.37293459058087" lon="9.886905371951848"><ele>235.5</ele><time>2026-04-19T12:36:02.003Z</time></trkpt><trkpt lat="44.37317105150525" lon="9.886829079003242"><ele>236.0</ele><time>2026-04-19T12:36:03.003Z</time></trkpt><trkpt lat="44.37340107471911" lon="9.886757955292518"><ele>235.0</ele><time>2026-04-19T12:36:04.003Z</time></trkpt><trkpt lat="44.37363090824497" lon="9.886709958225172"><ele>234.0</ele><time>2026-04-19T12:36:05.003Z</time></trkpt><trkpt lat="44.37384625544617" lon="9.886624448266906"><ele>234.33333333333331</ele><time>2026-04-19T12:36:06.003Z</time></trkpt><trkpt lat="44.37405117011455" lon="9.886560772593306"><ele>234.66666666666666</ele><time>2026-04-19T12:36:07.003Z</time></trkpt><trkpt lat="44.37424878087004" lon="9.886519266349648"><ele>235.0</ele><time>2026-04-19T12:36:08.003Z</time></trkpt><trkpt lat="44.374442380635166" lon="9.886453173948764"><ele>235.0</ele><time>2026-04-19T12:36:09.003Z</time></trkpt><trkpt lat="44.374634907711204" lon="9.886397070219948"><ele>235.0</ele><time>2026-04-19T12:36:10.003Z</time></trkpt><trkpt lat="44.37481852340311" lon="9.886349104369426"><ele>235.0</ele><time>2026-04-19T12:36:11.003Z</time></trkpt><trkpt lat="44.37499369666419" lon="9.886290691939037"><ele>236.33333333333331</ele><time>2026-04-19T12:36:12.003Z</time></trkpt><trkpt lat="44.375154198331174" lon="9.88622608609507"><ele>237.66666666666669</ele><time>2026-04-19T12:36:13.003Z</time></trkpt><trkpt lat="44.37530486690834" lon="9.886144210163442"><ele>239.0</ele><time>2026-04-19T12:36:14.003Z</time></trkpt><trkpt lat="44.37544591392301" lon="9.88601479342432"><ele>240.25</ele><time>2026-04-19T12:36:15.003Z</time></trkpt><trkpt lat="44.37557337759758" lon="9.885890391991042"><ele>241.5</ele><time>2026-04-19T12:36:16.003Z</time></trkpt><trkpt lat="44.3756845500648" lon="9.88578547934178"><ele>242.75</ele><time>2026-04-19T12:36:17.003Z</time></trkpt><trkpt lat="44.37577651294271" lon="9.885711513876931"><ele>244.0</ele><time>2026-04-19T12:36:18.003Z</time></trkpt><trkpt lat="44.37586062493288" lon="9.88565402971697"><ele>244.0</ele><time>2026-04-19T12:36:19.003Z</time></trkpt><trkpt lat="44.37594593587861" lon="9.885606352318304"><ele>243.99999999999997</ele><time>2026-04-19T12:36:20.003Z</time></trkpt><trkpt lat="44.376033327779254" lon="9.885556587278439"><ele>243.99999999999997</ele><time>2026-04-19T12:36:21.003Z</time></trkpt><trkpt lat="44.37612520577777" lon="9.88550666833317"><ele>244.0</ele><time>2026-04-19T12:36:22.003Z</time></trkpt><trkpt lat="44.37620580099842" lon="9.885464780651759"><ele>244.0</ele><time>2026-04-19T12:36:23.003Z</time></trkpt><trkpt lat="44.37628359054299" lon="9.885428091381877"><ele>246.0</ele><time>2026-04-19T12:36:24.003Z</time></trkpt><trkpt lat="44.376369989718235" lon="9.885388254050339"><ele>247.99999999999997</ele><time>2026-04-19T12:36:25.003Z</time></trkpt><trkpt lat="44.376454752955745" lon="9.88534535125205"><ele>249.99999999999997</ele><time>2026-04-19T12:36:26.003Z</time></trkpt><trkpt lat="44.3765556338436" lon="9.885307299307446"><ele>252.0</ele><time>2026-04-19T12:36:27.003Z</time></trkpt><trkpt lat="44.37667456438179" lon="9.885258238583653"><ele>254.0</ele><time>2026-04-19T12:36:28.003Z</time></trkpt><trkpt lat="44.37679776370913" lon="9.885211646437758"><ele>254.0</ele><time>2026-04-19T12:36:29.003Z</time></trkpt><trkpt lat="44.37692831976805" lon="9.88517524730173"><ele>254.0</ele><time>2026-04-19T12:36:30.003Z</time></trkpt><trkpt lat="44.37706603814079" lon="9.885139361518377"><ele>254.0</ele><time>2026-04-19T12:36:31.003Z</time></trkpt><trkpt lat="44.37720682556402" lon="9.885093360503715"><ele>254.0</ele><time>2026-04-19T12:36:32.003Z</time></trkpt><trkpt lat="44.377350586661436" lon="9.885044776301804"><ele>251.5</ele><time>2026-04-19T12:36:33.003Z</time></trkpt><trkpt lat="44.37749115508311" lon="9.884992754989174"><ele>249.0</ele><time>2026-04-19T12:36:34.003Z</time></trkpt><trkpt lat="44.37763590754459" lon="9.884936356371295"><ele>246.5</ele><time>2026-04-19T12:36:35.003Z</time></trkpt><trkpt lat="44.377782118132295" lon="9.884879368626759"><ele>244.0</ele><time>2026-04-19T12:36:36.003Z</time></trkpt><trkpt lat="44.377933708549975" lon="9.884815649615192"><ele>245.33333333333331</ele><time>2026-04-19T12:36:37.003Z</time></trkpt><trkpt lat="44.37808402210073" lon="9.884756213219504"><ele>246.66666666666669</ele><time>2026-04-19T12:36:38.003Z</time></trkpt><trkpt lat="44.37823114833661" lon="9.88470011277425"><ele>248.0</ele><time>2026-04-19T12:36:39.003Z</time></trkpt><trkpt lat="44.37838711039501" lon="9.884641624750826"><ele>248.0</ele><time>2026-04-19T12:36:40.003Z</time></trkpt><trkpt lat="44.37854268746117" lon="9.884582061012638"><ele>248.0</ele><time>2026-04-19T12:36:41.003Z</time></trkpt><trkpt lat="44.37869556685083" lon="9.884513946160563"><ele>248.0</ele><time>2026-04-19T12:36:42.003Z</time></trkpt><trkpt lat="44.378839331480506" lon="9.884442672319464"><ele>249.66666666666669</ele><time>2026-04-19T12:36:43.003Z</time></trkpt><trkpt lat="44.378988789206325" lon="9.884365974423407"><ele>251.33333333333331</ele><time>2026-04-19T12:36:44.003Z</time></trkpt><trkpt lat="44.37914102865517" lon="9.884282467061269"><ele>253.0</ele><time>2026-04-19T12:36:45.003Z</time></trkpt><trkpt lat="44.37928884849134" lon="9.884223829732614"><ele>251.66666666666666</ele><time>2026-04-19T12:36:46.003Z</time></trkpt><trkpt lat="44.37944052130574" lon="9.884147949179624"><ele>250.33333333333331</ele><time>2026-04-19T12:36:47.003Z</time></trkpt><trkpt lat="44.37959785522293" lon="9.884095714608307"><ele>249.0</ele><time>2026-04-19T12:36:48.003Z</time></trkpt><trkpt lat="44.37976070489309" lon="9.884070321166886"><ele>249.0</ele><time>2026-04-19T12:36:49.003Z</time></trkpt><trkpt lat="44.37992657606619" lon="9.884057995991446"><ele>249.0</ele><time>2026-04-19T12:36:50.003Z</time></trkpt><trkpt lat="44.380096445958486" lon="9.884087548264366"><ele>249.0</ele><time>2026-04-19T12:36:51.003Z</time></trkpt><trkpt lat="44.38025692154984" lon="9.884149017917583"><ele>249.0</ele><time>2026-04-19T12:36:52.003Z</time></trkpt><trkpt lat="44.38040798271238" lon="9.884229713035202"><ele>249.0</ele><time>2026-04-19T12:36:53.003Z</time></trkpt><trkpt lat="44.38055511026351" lon="9.884305960064706"><ele>249.0</ele><time>2026-04-19T12:36:54.003Z</time></trkpt><trkpt lat="44.3806917612745" lon="9.884389817740367"><ele>252.66666666666669</ele><time>2026-04-19T12:36:55.003Z</time></trkpt><trkpt lat="44.380771203863084" lon="9.884447900816648"><ele>256.33333333333337</ele><time>2026-04-19T12:36:56.003Z</time></trkpt><trkpt lat="44.3808585974761" lon="9.884471217636053"><ele>260.0</ele><time>2026-04-19T12:36:57.003Z</time></trkpt><trkpt lat="44.38179214892137" lon="9.884724137307462"><ele>260.0</ele><time>2026-04-19T12:37:01.003Z</time></trkpt><trkpt lat="44.38191666927855" lon="9.884206322701774"><ele>260.0</ele><time>2026-04-19T12:37:02.003Z</time></trkpt><trkpt lat="44.38210127201547" lon="9.88437347564782"><ele>258.5</ele><time>2026-04-19T12:37:03.003Z</time></trkpt><trkpt lat="44.38222142611659" lon="9.884363174823775"><ele>257.0</ele><time>2026-04-19T12:37:04.003Z</time></trkpt><trkpt lat="44.38233414611747" lon="9.88428731309438"><ele>255.5</ele><time>2026-04-19T12:37:05.003Z</time></trkpt><trkpt lat="44.3824612907523" lon="9.884174228504826"><ele>254.0</ele><time>2026-04-19T12:37:06.003Z</time></trkpt><trkpt lat="44.3825427417685" lon="9.884111656913147"><ele>252.75</ele><time>2026-04-19T12:37:07.003Z</time></trkpt><trkpt lat="44.382658566583764" lon="9.884010587090696"><ele>251.5</ele><time>2026-04-19T12:37:08.003Z</time></trkpt><trkpt lat="44.38278521530587" lon="9.88393393119343"><ele>250.25</ele><time>2026-04-19T12:37:09.003Z</time></trkpt><trkpt lat="44.38292578451379" lon="9.88387552312756"><ele>249.0</ele><time>2026-04-19T12:37:10.003Z</time></trkpt><trkpt lat="44.383065089527" lon="9.883850200527025"><ele>249.0</ele><time>2026-04-19T12:37:11.003Z</time></trkpt><trkpt lat="44.383222332019514" lon="9.883833512133961"><ele>249.0</ele><time>2026-04-19T12:37:12.003Z</time></trkpt><trkpt lat="44.38338300844884" lon="9.883816331614922"><ele>249.0</ele><time>2026-04-19T12:37:13.003Z</time></trkpt><trkpt lat="44.383540659804986" lon="9.883790459590294"><ele>249.0</ele><time>2026-04-19T12:37:14.003Z</time></trkpt><trkpt lat="44.38368362831475" lon="9.88376163686614"><ele>249.0</ele><time>2026-04-19T12:37:15.003Z</time></trkpt><trkpt lat="44.383818627465224" lon="9.883745550456267"><ele>249.0</ele><time>2026-04-19T12:37:16.003Z</time></trkpt><trkpt lat="44.38394884477523" lon="9.883735329076254"><ele>249.0</ele><time>2026-04-19T12:37:17.003Z</time></trkpt><trkpt lat="44.38422817555331" lon="9.883740144139953"><ele>250.0</ele><time>2026-04-19T12:37:19.003Z</time></trkpt><trkpt lat="44.38437338066099" lon="9.883748486488523"><ele>251.0</ele><time>2026-04-19T12:37:20.003Z</time></trkpt><trkpt lat="44.384521992337355" lon="9.883762312754987"><ele>252.0</ele><time>2026-04-19T12:37:21.003Z</time></trkpt><trkpt lat="44.3846687595371" lon="9.883782971068493"><ele>253.0</ele><time>2026-04-19T12:37:22.003Z</time></trkpt><trkpt lat="44.38481611116593" lon="9.883798273125176"><ele>253.75</ele><time>2026-04-19T12:37:23.003Z</time></trkpt><trkpt lat="44.3849630424978" lon="9.883817595654559"><ele>254.5</ele><time>2026-04-19T12:37:24.003Z</time></trkpt><trkpt lat="44.38510747811932" lon="9.883832297033846"><ele>255.25</ele><time>2026-04-19T12:37:25.003Z</time></trkpt><trkpt lat="44.38525852037854" lon="9.883856481830692"><ele>256.0</ele><time>2026-04-19T12:37:26.003Z</time></trkpt><trkpt lat="44.385410021619926" lon="9.883879706208328"><ele>256.66666666666663</ele><time>2026-04-19T12:37:27.003Z</time></trkpt><trkpt lat="44.385561610082625" lon="9.883904498795676"><ele>257.3333333333333</ele><time>2026-04-19T12:37:28.003Z</time></trkpt><trkpt lat="44.38571383538077" lon="9.883920548591231"><ele>258.0</ele><time>2026-04-19T12:37:29.003Z</time></trkpt><trkpt lat="44.38587389493512" lon="9.883942392857712"><ele>258.0</ele><time>2026-04-19T12:37:30.003Z</time></trkpt><trkpt lat="44.3860345851399" lon="9.883963685919484"><ele>258.0</ele><time>2026-04-19T12:37:31.003Z</time></trkpt><trkpt lat="44.386196026915016" lon="9.883985998489525"><ele>258.0</ele><time>2026-04-19T12:37:32.003Z</time></trkpt><trkpt lat="44.38634871613407" lon="9.88400495189541"><ele>258.75</ele><time>2026-04-19T12:37:33.003Z</time></trkpt><trkpt lat="44.38649158505956" lon="9.8840186928707"><ele>259.5</ele><time>2026-04-19T12:37:34.003Z</time></trkpt><trkpt lat="44.386625758777136" lon="9.884036795623077"><ele>260.25</ele><time>2026-04-19T12:37:35.003Z</time></trkpt><trkpt lat="44.3867449946948" lon="9.88407551786137"><ele>261.0</ele><time>2026-04-19T12:37:36.003Z</time></trkpt><trkpt lat="44.38685197893213" lon="9.884091071442858"><ele>261.0</ele><time>2026-04-19T12:37:37.003Z</time></trkpt><trkpt lat="44.38694928784681" lon="9.884098881562426"><ele>261.0</ele><time>2026-04-19T12:37:38.003Z</time></trkpt><trkpt lat="44.38704122877972" lon="9.884106381626722"><ele>261.0</ele><time>2026-04-19T12:37:39.003Z</time></trkpt><trkpt lat="44.38711672059914" lon="9.884132480340936"><ele>261.0</ele><time>2026-04-19T12:37:40.003Z</time></trkpt><trkpt lat="44.387181372720384" lon="9.884140694854128"><ele>261.0</ele><time>2026-04-19T12:37:41.003Z</time></trkpt><trkpt lat="44.38723911213129" lon="9.883932229930044"><ele>261.6666666666667</ele><time>2026-04-19T12:37:42.003Z</time></trkpt><trkpt lat="44.38730921029592" lon="9.883805077391097"><ele>262.3333333333333</ele><time>2026-04-19T12:37:44.003Z</time></trkpt><trkpt lat="44.387367390794466" lon="9.883767466103627"><ele>263.0</ele><time>2026-04-19T12:37:45.003Z</time></trkpt><trkpt lat="44.38743808886097" lon="9.883769402430183"><ele>263.66666666666663</ele><time>2026-04-19T12:37:46.003Z</time></trkpt><trkpt lat="44.387511698140976" lon="9.883797614539555"><ele>264.3333333333333</ele><time>2026-04-19T12:37:47.003Z</time></trkpt><trkpt lat="44.38758990858066" lon="9.883905769975295"><ele>265.0</ele><time>2026-04-19T12:37:48.003Z</time></trkpt><trkpt lat="44.387674711527104" lon="9.883979391872014"><ele>265.0</ele><time>2026-04-19T12:37:49.003Z</time></trkpt><trkpt lat="44.38774975429992" lon="9.88403935258582"><ele>265.0</ele><time>2026-04-19T12:37:50.003Z</time></trkpt><trkpt lat="44.387823939818674" lon="9.884093309555023"><ele>265.0</ele><time>2026-04-19T12:37:51.003Z</time></trkpt><trkpt lat="44.38791299343589" lon="9.884127472892487"><ele>265.0</ele><time>2026-04-19T12:37:52.003Z</time></trkpt><trkpt lat="44.38801405063484" lon="9.884141594858827"><ele>265.0</ele><time>2026-04-19T12:37:53.003Z</time></trkpt><trkpt lat="44.38812537877049" lon="9.884151877023294"><ele>266.5</ele><time>2026-04-19T12:37:54.003Z</time></trkpt><trkpt lat="44.38822014346127" lon="9.884165559615434"><ele>268.0</ele><time>2026-04-19T12:37:55.003Z</time></trkpt><trkpt lat="44.38830281415064" lon="9.884178857651394"><ele>269.5</ele><time>2026-04-19T12:37:56.003Z</time></trkpt><trkpt lat="44.38837237249856" lon="9.884190347419322"><ele>271.0</ele><time>2026-04-19T12:37:57.003Z</time></trkpt><trkpt lat="44.38844585621049" lon="9.884197137843515"><ele>272.5</ele><time>2026-04-19T12:37:58.003Z</time></trkpt><trkpt lat="44.38850924169598" lon="9.884170673290932"><ele>274.0</ele><time>2026-04-19T12:37:59.003Z</time></trkpt><trkpt lat="44.38855268970776" lon="9.88409694113139"><ele>274.0</ele><time>2026-04-19T12:38:00.003Z</time></trkpt><trkpt lat="44.388588873169276" lon="9.884015981661435"><ele>274.0</ele><time>2026-04-19T12:38:01.003Z</time></trkpt><trkpt lat="44.38855769035458" lon="9.88393365075958"><ele>274.0</ele><time>2026-04-19T12:38:02.003Z</time></trkpt><trkpt lat="44.38849179550977" lon="9.883829031168391"><ele>274.0</ele><time>2026-04-19T12:38:03.003Z</time></trkpt><trkpt lat="44.388382339248146" lon="9.883801038172802"><ele>274.0</ele><time>2026-04-19T12:38:04.003Z</time></trkpt><trkpt lat="44.38829913616437" lon="9.883865679563927"><ele>274.0</ele><time>2026-04-19T12:38:05.003Z</time></trkpt><trkpt lat="44.388217186201764" lon="9.883885411665613"><ele>274.0</ele><time>2026-04-19T12:38:06.003Z</time></trkpt><trkpt lat="44.3881400745779" lon="9.883860572221344"><ele>274.0</ele><time>2026-04-19T12:38:07.003Z</time></trkpt><trkpt lat="44.38810202912057" lon="9.8837466518845"><ele>274.0</ele><time>2026-04-19T12:38:08.003Z</time></trkpt><trkpt lat="44.388063976772195" lon="9.883641441989942"><ele>274.0</ele><time>2026-04-19T12:38:09.003Z</time></trkpt><trkpt lat="44.388064291693176" lon="9.88352302471203"><ele>274.0</ele><time>2026-04-19T12:38:10.003Z</time></trkpt><trkpt lat="44.3880866328071" lon="9.883388009418292"><ele>274.0</ele><time>2026-04-19T12:38:11.003Z</time></trkpt><trkpt lat="44.388095718668" lon="9.883251084340039"><ele>274.8333333333333</ele><time>2026-04-19T12:38:12.004Z</time></trkpt><trkpt lat="44.38811129455543" lon="9.883144564790584"><ele>275.66666666666663</ele><time>2026-04-19T12:38:13.004Z</time></trkpt><trkpt lat="44.38809934481116" lon="9.88304175508263"><ele>276.5</ele><time>2026-04-19T12:38:14.004Z</time></trkpt><trkpt lat="44.38806990071638" lon="9.882945156024917"><ele>277.3333333333333</ele><time>2026-04-19T12:38:15.004Z</time></trkpt><trkpt lat="44.387991588585265" lon="9.882885204933228"><ele>278.1666666666667</ele><time>2026-04-19T12:38:16.004Z</time></trkpt><trkpt lat="44.38790375502731" lon="9.882900739546205"><ele>279.0</ele><time>2026-04-19T12:38:17.004Z</time></trkpt><trkpt lat="44.38783668972826" lon="9.882966092068479"><ele>279.0</ele><time>2026-04-19T12:38:18.004Z</time></trkpt><trkpt lat="44.38780381406568" lon="9.883067431404724"><ele>279.0</ele><time>2026-04-19T12:38:19.004Z</time></trkpt><trkpt lat="44.387673771645474" lon="9.883108813270836"><ele>279.0</ele><time>2026-04-19T12:38:21.004Z</time></trkpt><trkpt lat="44.38761363491711" lon="9.883027832816584"><ele>279.0</ele><time>2026-04-19T12:38:22.004Z</time></trkpt><trkpt lat="44.38753477863266" lon="9.882952156958064"><ele>279.0</ele><time>2026-04-19T12:38:23.004Z</time></trkpt><trkpt lat="44.387437285695825" lon="9.882873333363294"><ele>279.0</ele><time>2026-04-19T12:38:24.004Z</time></trkpt><trkpt lat="44.387322277897944" lon="9.882818087853085"><ele>279.0</ele><time>2026-04-19T12:38:25.004Z</time></trkpt><trkpt lat="44.38720917690671" lon="9.882801509141462"><ele>279.0</ele><time>2026-04-19T12:38:26.004Z</time></trkpt><trkpt lat="44.38710461652732" lon="9.882799061807091"><ele>279.0</ele><time>2026-04-19T12:38:27.004Z</time></trkpt><trkpt lat="44.387002708179935" lon="9.88279089154406"><ele>279.0</ele><time>2026-04-19T12:38:28.004Z</time></trkpt><trkpt lat="44.38692702645851" lon="9.882695836213578"><ele>278.59999999999997</ele><time>2026-04-19T12:38:29.004Z</time></trkpt><trkpt lat="44.3868416525792" lon="9.882625475390531"><ele>278.2</ele><time>2026-04-19T12:38:30.004Z</time></trkpt><trkpt lat="44.386756293401405" lon="9.882543263425617"><ele>277.79999999999995</ele><time>2026-04-19T12:38:31.004Z</time></trkpt><trkpt lat="44.38665770030234" lon="9.8824815446047"><ele>277.4</ele><time>2026-04-19T12:38:32.004Z</time></trkpt><trkpt lat="44.38652549448348" lon="9.882489076418777"><ele>277.0</ele><time>2026-04-19T12:38:33.004Z</time></trkpt><trkpt lat="44.38636239678779" lon="9.88248991374135"><ele>286.0</ele><time>2026-04-19T12:38:34.004Z</time></trkpt><trkpt lat="44.38616537297352" lon="9.882457821240271"><ele>295.0</ele><time>2026-04-19T12:38:35.004Z</time></trkpt><trkpt lat="44.38593533036781" lon="9.882416862120062"><ele>304.0</ele><time>2026-04-19T12:38:36.004Z</time></trkpt><trkpt lat="44.385695694088874" lon="9.88239904098834"><ele>304.3333333333333</ele><time>2026-04-19T12:38:37.004Z</time></trkpt><trkpt lat="44.38545297348906" lon="9.882354958062956"><ele>304.6666666666667</ele><time>2026-04-19T12:38:38.004Z</time></trkpt><trkpt lat="44.38525530180019" lon="9.882299256179115"><ele>305.0</ele><time>2026-04-19T12:38:39.004Z</time></trkpt><trkpt lat="44.38507782355956" lon="9.882236786545695"><ele>305.0</ele><time>2026-04-19T12:38:40.004Z</time></trkpt><trkpt lat="44.384923356341936" lon="9.882145872306955"><ele>305.0</ele><time>2026-04-19T12:38:41.004Z</time></trkpt><trkpt lat="44.384782110589356" lon="9.882078354182411"><ele>305.0</ele><time>2026-04-19T12:38:42.004Z</time></trkpt><trkpt lat="44.38465208359695" lon="9.882033005402597"><ele>303.6666666666667</ele><time>2026-04-19T12:38:43.004Z</time></trkpt><trkpt lat="44.384501108248045" lon="9.88204230069765"><ele>302.3333333333333</ele><time>2026-04-19T12:38:44.004Z</time></trkpt><trkpt lat="44.38433179287209" lon="9.882093641025403"><ele>301.0</ele><time>2026-04-19T12:38:45.004Z</time></trkpt><trkpt lat="44.38419456166098" lon="9.882126656672865"><ele>301.0</ele><time>2026-04-19T12:38:46.004Z</time></trkpt><trkpt lat="44.38409024429457" lon="9.88213888808246"><ele>301.0</ele><time>2026-04-19T12:38:47.004Z</time></trkpt><trkpt lat="44.38402377533213" lon="9.882077729900445"><ele>301.0</ele><time>2026-04-19T12:38:48.004Z</time></trkpt><trkpt lat="44.38400838784978" lon="9.881988841915751"><ele>301.0</ele><time>2026-04-19T12:38:49.004Z</time></trkpt><trkpt lat="44.38404334069656" lon="9.881847861960598"><ele>301.0</ele><time>2026-04-19T12:38:50.004Z</time></trkpt><trkpt lat="44.384120244401025" lon="9.881768893354549"><ele>301.0</ele><time>2026-04-19T12:38:51.004Z</time></trkpt><trkpt lat="44.38421079479021" lon="9.88178592737517"><ele>301.0</ele><time>2026-04-19T12:38:52.004Z</time></trkpt><trkpt lat="44.38430060662382" lon="9.881932315792092"><ele>301.0</ele><time>2026-04-19T12:38:53.004Z</time></trkpt><trkpt lat="44.3843975011777" lon="9.881941845398568"><ele>301.0</ele><time>2026-04-19T12:38:54.004Z</time></trkpt><trkpt lat="44.38449664184064" lon="9.881900219444837"><ele>301.0</ele><time>2026-04-19T12:38:55.004Z</time></trkpt><trkpt lat="44.38461358449326" lon="9.881833001201562"><ele>302.0</ele><time>2026-04-19T12:38:56.004Z</time></trkpt><trkpt lat="44.38473907306451" lon="9.88176652203846"><ele>303.0</ele><time>2026-04-19T12:38:57.004Z</time></trkpt><trkpt lat="44.38487926258397" lon="9.88177640838147"><ele>304.0</ele><time>2026-04-19T12:38:58.004Z</time></trkpt><trkpt lat="44.38501877712849" lon="9.881787894065564"><ele>305.0</ele><time>2026-04-19T12:38:59.004Z</time></trkpt><trkpt lat="44.38516461008896" lon="9.881758006614213"><ele>313.6666666666667</ele><time>2026-04-19T12:39:00.004Z</time></trkpt><trkpt lat="44.38531495328297" lon="9.881731565365014"><ele>322.3333333333333</ele><time>2026-04-19T12:39:01.004Z</time></trkpt><trkpt lat="44.385459198164675" lon="9.881675860064643"><ele>331.0</ele><time>2026-04-19T12:39:02.004Z</time></trkpt><trkpt lat="44.385608139424455" lon="9.88158303389256"><ele>331.0</ele><time>2026-04-19T12:39:03.004Z</time></trkpt><trkpt lat="44.38573767141758" lon="9.881486219996644"><ele>331.0</ele><time>2026-04-19T12:39:04.004Z</time></trkpt><trkpt lat="44.38585522827084" lon="9.881392523863383"><ele>331.0</ele><time>2026-04-19T12:39:05.004Z</time></trkpt><trkpt lat="44.385969139855234" lon="9.881350647901103"><ele>331.0</ele><time>2026-04-19T12:39:06.004Z</time></trkpt><trkpt lat="44.38610048324571" lon="9.881359316855919"><ele>331.0</ele><time>2026-04-19T12:39:07.004Z</time></trkpt><trkpt lat="44.38623919057625" lon="9.881406226761579"><ele>331.0</ele><time>2026-04-19T12:39:08.004Z</time></trkpt><trkpt lat="44.3863763482007" lon="9.881429874920267"><ele>331.0</ele><time>2026-04-19T12:39:09.004Z</time></trkpt><trkpt lat="44.38650305989892" lon="9.88139804034236"><ele>331.0</ele><time>2026-04-19T12:39:10.004Z</time></trkpt><trkpt lat="44.386603991059054" lon="9.881358617518744"><ele>331.0</ele><time>2026-04-19T12:39:11.004Z</time></trkpt><trkpt lat="44.38668289588182" lon="9.881316186624888"><ele>331.0</ele><time>2026-04-19T12:39:12.004Z</time></trkpt><trkpt lat="44.38674288290768" lon="9.88124800601102"><ele>331.0</ele><time>2026-04-19T12:39:13.004Z</time></trkpt><trkpt lat="44.386760133261944" lon="9.881143258742945"><ele>331.0</ele><time>2026-04-19T12:39:14.004Z</time></trkpt><trkpt lat="44.38674370966346" lon="9.881021089058795"><ele>331.0</ele><time>2026-04-19T12:39:15.004Z</time></trkpt><trkpt lat="44.386673284889696" lon="9.880948170665972"><ele>331.0</ele><time>2026-04-19T12:39:16.004Z</time></trkpt><trkpt lat="44.38658129455684" lon="9.88092913166203"><ele>331.0</ele><time>2026-04-19T12:39:17.004Z</time></trkpt><trkpt lat="44.38646763546744" lon="9.88094029933102"><ele>331.0</ele><time>2026-04-19T12:39:18.004Z</time></trkpt><trkpt lat="44.38632280021599" lon="9.880941810086542"><ele>331.0</ele><time>2026-04-19T12:39:19.004Z</time></trkpt><trkpt lat="44.386149200572184" lon="9.880924775094766"><ele>331.0</ele><time>2026-04-19T12:39:20.004Z</time></trkpt><trkpt lat="44.38598360623564" lon="9.880894475579948"><ele>337.66666666666663</ele><time>2026-04-19T12:39:21.004Z</time></trkpt><trkpt lat="44.38581616717168" lon="9.880853524033022"><ele>344.3333333333333</ele><time>2026-04-19T12:39:22.004Z</time></trkpt><trkpt lat="44.3856422063003" lon="9.880822358486675"><ele>351.0</ele><time>2026-04-19T12:39:23.004Z</time></trkpt><trkpt lat="44.38549770041006" lon="9.880816718550605"><ele>351.0</ele><time>2026-04-19T12:39:24.004Z</time></trkpt><trkpt lat="44.38538220747923" lon="9.880806488824787"><ele>351.0</ele><time>2026-04-19T12:39:25.004Z</time></trkpt><trkpt lat="44.385285433688246" lon="9.880839674876427"><ele>351.0</ele><time>2026-04-19T12:39:26.004Z</time></trkpt><trkpt lat="44.38520363662176" lon="9.880839869879642"><ele>351.0</ele><time>2026-04-19T12:39:27.004Z</time></trkpt><trkpt lat="44.38514345881308" lon="9.880793030378669"><ele>351.0</ele><time>2026-04-19T12:39:28.004Z</time></trkpt><trkpt lat="44.3851103172674" lon="9.880702635845957"><ele>351.0</ele><time>2026-04-19T12:39:29.004Z</time></trkpt><trkpt lat="44.38511344257442" lon="9.880608574854193"><ele>351.0</ele><time>2026-04-19T12:39:30.004Z</time></trkpt><trkpt lat="44.3852049987826" lon="9.8805068865734"><ele>351.0</ele><time>2026-04-19T12:39:31.004Z</time></trkpt><trkpt lat="44.38529504589191" lon="9.880509336688984"><ele>351.0</ele><time>2026-04-19T12:39:32.004Z</time></trkpt><trkpt lat="44.38540844801834" lon="9.88050239386651"><ele>351.0</ele><time>2026-04-19T12:39:33.004Z</time></trkpt><trkpt lat="44.38556482650576" lon="9.880454300085336"><ele>352.6666666666667</ele><time>2026-04-19T12:39:34.004Z</time></trkpt><trkpt lat="44.38573907058323" lon="9.880447531922442"><ele>354.33333333333337</ele><time>2026-04-19T12:39:35.004Z</time></trkpt><trkpt lat="44.385922285996" lon="9.880447024227319"><ele>356.0</ele><time>2026-04-19T12:39:36.004Z</time></trkpt><trkpt lat="44.38609098367752" lon="9.880462346325507"><ele>356.0</ele><time>2026-04-19T12:39:37.004Z</time></trkpt><trkpt lat="44.386247426321006" lon="9.880493414920208"><ele>356.0</ele><time>2026-04-19T12:39:38.004Z</time></trkpt><trkpt lat="44.38636900789953" lon="9.88049853433369"><ele>356.0</ele><time>2026-04-19T12:39:39.004Z</time></trkpt><trkpt lat="44.38646069805302" lon="9.880492156459164"><ele>356.0</ele><time>2026-04-19T12:39:40.004Z</time></trkpt><trkpt lat="44.38656090962117" lon="9.88044218050773"><ele>355.75</ele><time>2026-04-19T12:39:41.004Z</time></trkpt><trkpt lat="44.38667294296047" lon="9.880349802579154"><ele>355.5</ele><time>2026-04-19T12:39:42.004Z</time></trkpt><trkpt lat="44.38674119753136" lon="9.880227248973686"><ele>355.25</ele><time>2026-04-19T12:39:43.004Z</time></trkpt><trkpt lat="44.38678955114569" lon="9.880081420497328"><ele>355.0</ele><time>2026-04-19T12:39:44.004Z</time></trkpt><trkpt lat="44.38682397113979" lon="9.879903896790495"><ele>359.2</ele><time>2026-04-19T12:39:45.004Z</time></trkpt><trkpt lat="44.386854876098276" lon="9.879757337908922"><ele>363.4</ele><time>2026-04-19T12:39:46.004Z</time></trkpt><trkpt lat="44.38691444723139" lon="9.879659188803656"><ele>367.6</ele><time>2026-04-19T12:39:47.004Z</time></trkpt><trkpt lat="44.3869881870272" lon="9.87959586108185"><ele>371.8</ele><time>2026-04-19T12:39:48.004Z</time></trkpt><trkpt lat="44.38706778230143" lon="9.879568668205268"><ele>376.0</ele><time>2026-04-19T12:39:49.004Z</time></trkpt><trkpt lat="44.38715682534702" lon="9.879644247007898"><ele>377.75</ele><time>2026-04-19T12:39:50.004Z</time></trkpt><trkpt lat="44.387279109058106" lon="9.879757593508163"><ele>379.5</ele><time>2026-04-19T12:39:51.004Z</time></trkpt><trkpt lat="44.38736927074785" lon="9.879912157808105"><ele>381.25</ele><time>2026-04-19T12:39:52.004Z</time></trkpt><trkpt lat="44.38745251420692" lon="9.880068691571635"><ele>383.0</ele><time>2026-04-19T12:39:53.004Z</time></trkpt><trkpt lat="44.387537939633354" lon="9.880187599992839"><ele>383.0</ele><time>2026-04-19T12:39:54.004Z</time></trkpt><trkpt lat="44.38760910852014" lon="9.880279566814929"><ele>383.0</ele><time>2026-04-19T12:39:55.004Z</time></trkpt><trkpt lat="44.38767166219522" lon="9.88033469001536"><ele>383.0</ele><time>2026-04-19T12:39:56.004Z</time></trkpt><trkpt lat="44.38773349466269" lon="9.880353207089625"><ele>383.0</ele><time>2026-04-19T12:39:57.004Z</time></trkpt><trkpt lat="44.38780873963795" lon="9.880311464030553"><ele>383.0</ele><time>2026-04-19T12:39:58.004Z</time></trkpt><trkpt lat="44.38786815367689" lon="9.880206345349519"><ele>383.0</ele><time>2026-04-19T12:39:59.004Z</time></trkpt><trkpt lat="44.387903385675735" lon="9.880095184996081"><ele>383.0</ele><time>2026-04-19T12:40:00.004Z</time></trkpt><trkpt lat="44.3878747897555" lon="9.879959978307923"><ele>383.0</ele><time>2026-04-19T12:40:01.004Z</time></trkpt><trkpt lat="44.38775622260314" lon="9.87982525600203"><ele>383.0</ele><time>2026-04-19T12:40:02.004Z</time></trkpt><trkpt lat="44.387662837720576" lon="9.879669168043675"><ele>383.0</ele><time>2026-04-19T12:40:03.004Z</time></trkpt><trkpt lat="44.38754917519454" lon="9.879518220986734"><ele>383.0</ele><time>2026-04-19T12:40:04.004Z</time></trkpt><trkpt lat="44.387426512097946" lon="9.879391575121085"><ele>383.0</ele><time>2026-04-19T12:40:05.004Z</time></trkpt><trkpt lat="44.38729838583084" lon="9.879274462629663"><ele>383.0</ele><time>2026-04-19T12:40:06.004Z</time></trkpt><trkpt lat="44.38716323135576" lon="9.879156796499347"><ele>386.5</ele><time>2026-04-19T12:40:07.004Z</time></trkpt><trkpt lat="44.38702737340647" lon="9.879045046620126"><ele>390.0</ele><time>2026-04-19T12:40:08.004Z</time></trkpt><trkpt lat="44.38690566595387" lon="9.878956713988066"><ele>393.5</ele><time>2026-04-19T12:40:09.004Z</time></trkpt><trkpt lat="44.38679396200495" lon="9.878914370188848"><ele>397.0</ele><time>2026-04-19T12:40:10.004Z</time></trkpt><trkpt lat="44.38667702613116" lon="9.87889785144684"><ele>397.0</ele><time>2026-04-19T12:40:11.004Z</time></trkpt><trkpt lat="44.38654339874589" lon="9.878949574539288"><ele>397.0</ele><time>2026-04-19T12:40:12.004Z</time></trkpt><trkpt lat="44.38641874082051" lon="9.879038116464748"><ele>397.0</ele><time>2026-04-19T12:40:13.004Z</time></trkpt><trkpt lat="44.38630393738727" lon="9.87907523351539"><ele>397.0</ele><time>2026-04-19T12:40:14.004Z</time></trkpt><trkpt lat="44.38618245150321" lon="9.879045996817599"><ele>395.20000000000005</ele><time>2026-04-19T12:40:15.004Z</time></trkpt><trkpt lat="44.38606586973042" lon="9.878988997490264"><ele>393.4</ele><time>2026-04-19T12:40:16.004Z</time></trkpt><trkpt lat="44.38595369660726" lon="9.878924049299108"><ele>391.6</ele><time>2026-04-19T12:40:17.004Z</time></trkpt><trkpt lat="44.385871937469204" lon="9.87886428516824"><ele>389.79999999999995</ele><time>2026-04-19T12:40:18.004Z</time></trkpt><trkpt lat="44.385813409700226" lon="9.878804924523365"><ele>388.0</ele><time>2026-04-19T12:40:19.004Z</time></trkpt><trkpt lat="44.38580625750118" lon="9.87870284888183"><ele>388.0</ele><time>2026-04-19T12:40:20.004Z</time></trkpt><trkpt lat="44.38584030045187" lon="9.878599013756178"><ele>388.0</ele><time>2026-04-19T12:40:21.004Z</time></trkpt><trkpt lat="44.38590981428232" lon="9.878524780524316"><ele>388.0</ele><time>2026-04-19T12:40:22.004Z</time></trkpt><trkpt lat="44.3859954329201" lon="9.878515740931606"><ele>388.0</ele><time>2026-04-19T12:40:23.004Z</time></trkpt><trkpt lat="44.38610421582971" lon="9.878542952083814"><ele>388.0</ele><time>2026-04-19T12:40:24.004Z</time></trkpt><trkpt lat="44.38623392610807" lon="9.878573852677032"><ele>391.0</ele><time>2026-04-19T12:40:25.004Z</time></trkpt><trkpt lat="44.38637272516649" lon="9.878519551386349"><ele>394.0</ele><time>2026-04-19T12:40:26.004Z</time></trkpt><trkpt lat="44.386517199434046" lon="9.87845786255515"><ele>397.0</ele><time>2026-04-19T12:40:27.004Z</time></trkpt><trkpt lat="44.38667459156758" lon="9.878390152696861"><ele>398.6666666666667</ele><time>2026-04-19T12:40:28.004Z</time></trkpt><trkpt lat="44.38684369731591" lon="9.878333121592663"><ele>400.33333333333337</ele><time>2026-04-19T12:40:29.004Z</time></trkpt><trkpt lat="44.38700968735808" lon="9.878314025004254"><ele>402.0</ele><time>2026-04-19T12:40:30.004Z</time></trkpt><trkpt lat="44.38716973322992" lon="9.878337483553908"><ele>401.33333333333337</ele><time>2026-04-19T12:40:31.004Z</time></trkpt><trkpt lat="44.3873507180766" lon="9.87834760469345"><ele>400.6666666666667</ele><time>2026-04-19T12:40:32.004Z</time></trkpt><trkpt lat="44.38752113600833" lon="9.878409832589178"><ele>400.0</ele><time>2026-04-19T12:40:33.004Z</time></trkpt><trkpt lat="44.38766776724251" lon="9.878478143395304"><ele>400.0</ele><time>2026-04-19T12:40:34.004Z</time></trkpt><trkpt lat="44.387798800854156" lon="9.878532711986953"><ele>400.0</ele><time>2026-04-19T12:40:35.005Z</time></trkpt><trkpt lat="44.38791731053069" lon="9.878560880671538"><ele>400.0</ele><time>2026-04-19T12:40:36.005Z</time></trkpt><trkpt lat="44.388003551888545" lon="9.878564682909667"><ele>400.0</ele><time>2026-04-19T12:40:37.005Z</time></trkpt><trkpt lat="44.388109824183324" lon="9.87853528347225"><ele>401.25</ele><time>2026-04-19T12:40:38.005Z</time></trkpt><trkpt lat="44.38820226708843" lon="9.878466642899246"><ele>402.5</ele><time>2026-04-19T12:40:39.005Z</time></trkpt><trkpt lat="44.388311848005934" lon="9.878365900729218"><ele>403.75</ele><time>2026-04-19T12:40:40.005Z</time></trkpt><trkpt lat="44.388422053960625" lon="9.878251828774264"><ele>405.0</ele><time>2026-04-19T12:40:41.005Z</time></trkpt><trkpt lat="44.38856784058247" lon="9.878200804165386"><ele>408.0</ele><time>2026-04-19T12:40:42.005Z</time></trkpt><trkpt lat="44.38871781102616" lon="9.878145173817664"><ele>411.0</ele><time>2026-04-19T12:40:43.005Z</time></trkpt><trkpt lat="44.38884365596289" lon="9.878055388969372"><ele>414.0</ele><time>2026-04-19T12:40:44.005Z</time></trkpt><trkpt lat="44.38896216305021" lon="9.87797601884286"><ele>417.0</ele><time>2026-04-19T12:40:45.005Z</time></trkpt><trkpt lat="44.389062924168854" lon="9.87786214668915"><ele>417.0</ele><time>2026-04-19T12:40:46.005Z</time></trkpt><trkpt lat="44.389150604267925" lon="9.877695350734696"><ele>417.0</ele><time>2026-04-19T12:40:47.005Z</time></trkpt><trkpt lat="44.389257562520676" lon="9.877525082189916"><ele>417.0</ele><time>2026-04-19T12:40:48.005Z</time></trkpt><trkpt lat="44.38937639017813" lon="9.877389983585967"><ele>420.25</ele><time>2026-04-19T12:40:49.005Z</time></trkpt><trkpt lat="44.389514879980005" lon="9.877319005588447"><ele>423.5</ele><time>2026-04-19T12:40:50.005Z</time></trkpt><trkpt lat="44.3896495798577" lon="9.877216487766262"><ele>426.75</ele><time>2026-04-19T12:40:51.005Z</time></trkpt><trkpt lat="44.38977898929272" lon="9.877124832026194"><ele>430.0</ele><time>2026-04-19T12:40:52.005Z</time></trkpt><trkpt lat="44.38990533602765" lon="9.87702363341684"><ele>430.0</ele><time>2026-04-19T12:40:53.005Z</time></trkpt><trkpt lat="44.39003567355899" lon="9.876949213022256"><ele>430.0</ele><time>2026-04-19T12:40:54.005Z</time></trkpt><trkpt lat="44.3901536929099" lon="9.876932166469746"><ele>430.0</ele><time>2026-04-19T12:40:55.005Z</time></trkpt><trkpt lat="44.390276086895796" lon="9.87696409655149"><ele>430.0</ele><time>2026-04-19T12:40:56.005Z</time></trkpt><trkpt lat="44.390394367674375" lon="9.877043139548103"><ele>430.0</ele><time>2026-04-19T12:40:57.005Z</time></trkpt><trkpt lat="44.39050098448822" lon="9.877166046103726"><ele>430.0</ele><time>2026-04-19T12:40:58.005Z</time></trkpt><trkpt lat="44.39058984306505" lon="9.877338452720029"><ele>430.0</ele><time>2026-04-19T12:40:59.005Z</time></trkpt><trkpt lat="44.39064755721873" lon="9.877530373210462"><ele>430.0</ele><time>2026-04-19T12:41:00.005Z</time></trkpt><trkpt lat="44.39070947699752" lon="9.877716697183198"><ele>432.75</ele><time>2026-04-19T12:41:01.005Z</time></trkpt><trkpt lat="44.39077184242126" lon="9.877895470590083"><ele>435.5</ele><time>2026-04-19T12:41:02.005Z</time></trkpt><trkpt lat="44.39081930385154" lon="9.878052509632827"><ele>438.25</ele><time>2026-04-19T12:41:03.005Z</time></trkpt><trkpt lat="44.39085039493141" lon="9.878186304031248"><ele>441.0</ele><time>2026-04-19T12:41:04.005Z</time></trkpt><trkpt lat="44.390882097537016" lon="9.878298243044815"><ele>441.0</ele><time>2026-04-19T12:41:05.005Z</time></trkpt><trkpt lat="44.39093766704719" lon="9.878367629551589"><ele>441.0</ele><time>2026-04-19T12:41:06.005Z</time></trkpt><trkpt lat="44.39100085267955" lon="9.878395792241443"><ele>441.0</ele><time>2026-04-19T12:41:07.005Z</time></trkpt><trkpt lat="44.39108303429276" lon="9.878390015341616"><ele>441.0</ele><time>2026-04-19T12:41:08.005Z</time></trkpt><trkpt lat="44.39116310580815" lon="9.878297485759873"><ele>441.0</ele><time>2026-04-19T12:41:09.005Z</time></trkpt><trkpt lat="44.39117518584063" lon="9.878129609725725"><ele>441.0</ele><time>2026-04-19T12:41:10.005Z</time></trkpt><trkpt lat="44.39116083599859" lon="9.877996318329682"><ele>441.0</ele><time>2026-04-19T12:41:11.005Z</time></trkpt><trkpt lat="44.39113098324547" lon="9.877835104444895"><ele>441.0</ele><time>2026-04-19T12:41:12.005Z</time></trkpt><trkpt lat="44.39108768757875" lon="9.877655225056179"><ele>441.0</ele><time>2026-04-19T12:41:13.005Z</time></trkpt><trkpt lat="44.39104940957783" lon="9.877460529429198"><ele>441.0</ele><time>2026-04-19T12:41:14.005Z</time></trkpt><trkpt lat="44.39103495855701" lon="9.877295013204087"><ele>442.0</ele><time>2026-04-19T12:41:15.005Z</time></trkpt><trkpt lat="44.39106011491746" lon="9.877144590501075"><ele>443.0</ele><time>2026-04-19T12:41:16.005Z</time></trkpt><trkpt lat="44.391134706354194" lon="9.877027294300076"><ele>444.0</ele><time>2026-04-19T12:41:17.005Z</time></trkpt><trkpt lat="44.39121398114053" lon="9.876917021192643"><ele>445.0</ele><time>2026-04-19T12:41:18.005Z</time></trkpt><trkpt lat="44.39133301755227" lon="9.876811645772822"><ele>448.6666666666667</ele><time>2026-04-19T12:41:19.005Z</time></trkpt><trkpt lat="44.391461867517215" lon="9.876716226157098"><ele>452.33333333333337</ele><time>2026-04-19T12:41:20.005Z</time></trkpt><trkpt lat="44.39159091567777" lon="9.876598440622525"><ele>456.0</ele><time>2026-04-19T12:41:21.005Z</time></trkpt><trkpt lat="44.391734963527455" lon="9.876478315460414"><ele>456.0</ele><time>2026-04-19T12:41:22.005Z</time></trkpt><trkpt lat="44.39188864223424" lon="9.87635138622381"><ele>456.0</ele><time>2026-04-19T12:41:23.005Z</time></trkpt><trkpt lat="44.39204492681778" lon="9.876209930366445"><ele>456.0</ele><time>2026-04-19T12:41:24.005Z</time></trkpt><trkpt lat="44.392194404385435" lon="9.876053817862848"><ele>457.66666666666663</ele><time>2026-04-19T12:41:25.005Z</time></trkpt><trkpt lat="44.39234020973563" lon="9.875909971327145"><ele>459.3333333333333</ele><time>2026-04-19T12:41:26.005Z</time></trkpt><trkpt lat="44.39246557845686" lon="9.875782700568411"><ele>461.0</ele><time>2026-04-19T12:41:27.005Z</time></trkpt><trkpt lat="44.392582768650165" lon="9.87565885059636"><ele>461.0</ele><time>2026-04-19T12:41:28.005Z</time></trkpt><trkpt lat="44.392701610997705" lon="9.875547182241133"><ele>461.0</ele><time>2026-04-19T12:41:29.005Z</time></trkpt><trkpt lat="44.392807397973755" lon="9.875461338406177"><ele>461.0</ele><time>2026-04-19T12:41:30.005Z</time></trkpt><trkpt lat="44.39293179511185" lon="9.875395782008221"><ele>461.0</ele><time>2026-04-19T12:41:31.005Z</time></trkpt><trkpt lat="44.39307104706086" lon="9.87537828718455"><ele>463.25</ele><time>2026-04-19T12:41:32.005Z</time></trkpt><trkpt lat="44.39320181965309" lon="9.875369087057766"><ele>465.5</ele><time>2026-04-19T12:41:33.005Z</time></trkpt><trkpt lat="44.393313114133754" lon="9.875377502259253"><ele>467.75</ele><time>2026-04-19T12:41:34.005Z</time></trkpt><trkpt lat="44.393410225250605" lon="9.875414729904142"><ele>470.0</ele><time>2026-04-19T12:41:35.005Z</time></trkpt><trkpt lat="44.39349966706544" lon="9.875509689962598"><ele>470.0</ele><time>2026-04-19T12:41:36.005Z</time></trkpt><trkpt lat="44.39357368941445" lon="9.875633977916747"><ele>470.0</ele><time>2026-04-19T12:41:37.005Z</time></trkpt><trkpt lat="44.393627703759165" lon="9.875798731542394"><ele>470.0</ele><time>2026-04-19T12:41:38.005Z</time></trkpt><trkpt lat="44.39368283522824" lon="9.875940519169676"><ele>470.0</ele><time>2026-04-19T12:41:39.005Z</time></trkpt><trkpt lat="44.39373211742789" lon="9.876058216317988"><ele>470.0</ele><time>2026-04-19T12:41:40.005Z</time></trkpt><trkpt lat="44.393788007556864" lon="9.876137377815633"><ele>470.0</ele><time>2026-04-19T12:41:41.005Z</time></trkpt><trkpt lat="44.39385736308054" lon="9.876170737630432"><ele>470.0</ele><time>2026-04-19T12:41:42.005Z</time></trkpt><trkpt lat="44.393963225971056" lon="9.876169622774832"><ele>470.0</ele><time>2026-04-19T12:41:43.005Z</time></trkpt><trkpt lat="44.39408835219325" lon="9.876066180625905"><ele>470.0</ele><time>2026-04-19T12:41:44.005Z</time></trkpt><trkpt lat="44.39420602639417" lon="9.87600046032638"><ele>469.99999999999994</ele><time>2026-04-19T12:41:45.005Z</time></trkpt><trkpt lat="44.3942881390926" lon="9.875958955567064"><ele>470.0</ele><time>2026-04-19T12:41:46.005Z</time></trkpt><trkpt lat="44.39434358537329" lon="9.875898384392011"><ele>470.0</ele><time>2026-04-19T12:41:47.005Z</time></trkpt><trkpt lat="44.39434810408549" lon="9.87577087933947"><ele>470.0</ele><time>2026-04-19T12:41:48.005Z</time></trkpt><trkpt lat="44.394325529590425" lon="9.875680685213077"><ele>469.99999999999994</ele><time>2026-04-19T12:41:49.005Z</time></trkpt><trkpt lat="44.39427034175726" lon="9.875607389784259"><ele>470.0</ele><time>2026-04-19T12:41:50.005Z</time></trkpt><trkpt lat="44.39418413575938" lon="9.87559289910881"><ele>469.99999999999994</ele><time>2026-04-19T12:41:51.005Z</time></trkpt><trkpt lat="44.394088918014866" lon="9.875636802579592"><ele>470.0</ele><time>2026-04-19T12:41:52.005Z</time></trkpt><trkpt lat="44.39401917498362" lon="9.875708273605603"><ele>470.0</ele><time>2026-04-19T12:41:53.005Z</time></trkpt><trkpt lat="44.39395300001239" lon="9.875750192989885"><ele>470.0</ele><time>2026-04-19T12:41:54.005Z</time></trkpt><trkpt lat="44.39387232537321" lon="9.875735516770556"><ele>469.99999999999994</ele><time>2026-04-19T12:41:55.005Z</time></trkpt><trkpt lat="44.39380759022831" lon="9.875657094165346"><ele>470.0</ele><time>2026-04-19T12:41:56.005Z</time></trkpt><trkpt lat="44.393797494180845" lon="9.875533192098972"><ele>470.0</ele><time>2026-04-19T12:41:57.005Z</time></trkpt><trkpt lat="44.393836843919196" lon="9.875401333572064"><ele>470.0</ele><time>2026-04-19T12:41:58.005Z</time></trkpt><trkpt lat="44.393914334438904" lon="9.875329273610665"><ele>470.0</ele><time>2026-04-19T12:41:59.005Z</time></trkpt><trkpt lat="44.394007933406215" lon="9.875327380222398"><ele>470.0</ele><time>2026-04-19T12:42:00.005Z</time></trkpt><trkpt lat="44.39411332368952" lon="9.875381884574496"><ele>470.0</ele><time>2026-04-19T12:42:01.005Z</time></trkpt><trkpt lat="44.39420779336367" lon="9.875348897221908"><ele>473.4</ele><time>2026-04-19T12:42:02.005Z</time></trkpt><trkpt lat="44.39428097707841" lon="9.875324223510134"><ele>476.8</ele><time>2026-04-19T12:42:03.005Z</time></trkpt><trkpt lat="44.39432549937263" lon="9.875172894400695"><ele>480.20000000000005</ele><time>2026-04-19T12:42:04.005Z</time></trkpt><trkpt lat="44.39435276783498" lon="9.875025043336864"><ele>483.6</ele><time>2026-04-19T12:42:05.005Z</time></trkpt><trkpt lat="44.39439156240073" lon="9.87487765940529"><ele>487.0</ele><time>2026-04-19T12:42:06.005Z</time></trkpt><trkpt lat="44.39446378049681" lon="9.874769101861078"><ele>489.25</ele><time>2026-04-19T12:42:07.005Z</time></trkpt><trkpt lat="44.394549674084786" lon="9.87472728058298"><ele>491.5</ele><time>2026-04-19T12:42:08.005Z</time></trkpt><trkpt lat="44.39465843283402" lon="9.874709547638783"><ele>493.75</ele><time>2026-04-19T12:42:09.005Z</time></trkpt><trkpt lat="44.39477881994489" lon="9.874676243238756"><ele>496.0</ele><time>2026-04-19T12:42:10.005Z</time></trkpt><trkpt lat="44.394926155603365" lon="9.874653157112867"><ele>496.0</ele><time>2026-04-19T12:42:11.005Z</time></trkpt><trkpt lat="44.39507966804339" lon="9.874625247787577"><ele>496.0</ele><time>2026-04-19T12:42:12.005Z</time></trkpt><trkpt lat="44.39524267485458" lon="9.874580646425558"><ele>496.0</ele><time>2026-04-19T12:42:13.005Z</time></trkpt><trkpt lat="44.39541537820368" lon="9.874545993881547"><ele>498.6666666666667</ele><time>2026-04-19T12:42:14.005Z</time></trkpt><trkpt lat="44.39559586585774" lon="9.87450536253276"><ele>501.33333333333337</ele><time>2026-04-19T12:42:15.005Z</time></trkpt><trkpt lat="44.395774631763466" lon="9.874465997294834"><ele>504.0</ele><time>2026-04-19T12:42:16.005Z</time></trkpt><trkpt lat="44.395938770904145" lon="9.874428501525571"><ele>504.0</ele><time>2026-04-19T12:42:17.005Z</time></trkpt><trkpt lat="44.39606762780871" lon="9.874398352614357"><ele>504.0</ele><time>2026-04-19T12:42:18.005Z</time></trkpt><trkpt lat="44.396183584642095" lon="9.874358684490664"><ele>504.0</ele><time>2026-04-19T12:42:19.005Z</time></trkpt><trkpt lat="44.396279886896025" lon="9.874307873877267"><ele>504.0</ele><time>2026-04-19T12:42:20.005Z</time></trkpt><trkpt lat="44.3963617322071" lon="9.874199768021722"><ele>506.5</ele><time>2026-04-19T12:42:21.005Z</time></trkpt><trkpt lat="44.396430801847934" lon="9.874044448534443"><ele>509.0</ele><time>2026-04-19T12:42:22.005Z</time></trkpt><trkpt lat="44.39648403341508" lon="9.873846301748102"><ele>511.5</ele><time>2026-04-19T12:42:23.005Z</time></trkpt><trkpt lat="44.3965440556545" lon="9.87363882427145"><ele>514.0</ele><time>2026-04-19T12:42:24.005Z</time></trkpt><trkpt lat="44.396580266989396" lon="9.873427060771165"><ele>515.25</ele><time>2026-04-19T12:42:25.005Z</time></trkpt><trkpt lat="44.3966155155025" lon="9.873228869346345"><ele>516.5</ele><time>2026-04-19T12:42:26.005Z</time></trkpt><trkpt lat="44.39664229001758" lon="9.873068773683189"><ele>517.75</ele><time>2026-04-19T12:42:27.005Z</time></trkpt><trkpt lat="44.39668683855295" lon="9.872931561917902"><ele>519.0</ele><time>2026-04-19T12:42:28.005Z</time></trkpt><trkpt lat="44.396772206420536" lon="9.872818948014682"><ele>519.0</ele><time>2026-04-19T12:42:29.005Z</time></trkpt><trkpt lat="44.396883945626875" lon="9.872750880774714"><ele>519.0</ele><time>2026-04-19T12:42:30.005Z</time></trkpt><trkpt lat="44.3970194605718" lon="9.87271438056256"><ele>519.0</ele><time>2026-04-19T12:42:31.005Z</time></trkpt><trkpt lat="44.39716851397851" lon="9.872718617628106"><ele>519.0</ele><time>2026-04-19T12:42:32.005Z</time></trkpt><trkpt lat="44.3973238690699" lon="9.872740247840799"><ele>521.0</ele><time>2026-04-19T12:42:33.005Z</time></trkpt><trkpt lat="44.3974530814327" lon="9.872752179032416"><ele>523.0</ele><time>2026-04-19T12:42:34.005Z</time></trkpt><trkpt lat="44.397578091474365" lon="9.87275437053571"><ele>525.0</ele><time>2026-04-19T12:42:35.005Z</time></trkpt><trkpt lat="44.39768149943121" lon="9.872702274930779"><ele>527.0</ele><time>2026-04-19T12:42:36.005Z</time></trkpt><trkpt lat="44.39777271622632" lon="9.872588995411359"><ele>527.0</ele><time>2026-04-19T12:42:37.005Z</time></trkpt><trkpt lat="44.39784175399159" lon="9.872403491529042"><ele>527.0</ele><time>2026-04-19T12:42:38.005Z</time></trkpt><trkpt lat="44.39791286955443" lon="9.872237261287973"><ele>527.0</ele><time>2026-04-19T12:42:39.005Z</time></trkpt><trkpt lat="44.39798627413905" lon="9.872073018485773"><ele>527.0</ele><time>2026-04-19T12:42:40.005Z</time></trkpt><trkpt lat="44.39806395397645" lon="9.871943187030176"><ele>530.25</ele><time>2026-04-19T12:42:41.005Z</time></trkpt><trkpt lat="44.39815562042549" lon="9.871864749984328"><ele>533.5</ele><time>2026-04-19T12:42:42.005Z</time></trkpt><trkpt lat="44.398271022497596" lon="9.871843006709268"><ele>536.75</ele><time>2026-04-19T12:42:43.005Z</time></trkpt><trkpt lat="44.39839462775773" lon="9.871883581321146"><ele>540.0</ele><time>2026-04-19T12:42:44.005Z</time></trkpt><trkpt lat="44.39851794303296" lon="9.87196549333778"><ele>540.0</ele><time>2026-04-19T12:42:45.005Z</time></trkpt><trkpt lat="44.39863796261557" lon="9.872072408855168"><ele>540.0</ele><time>2026-04-19T12:42:46.005Z</time></trkpt><trkpt lat="44.398759955910215" lon="9.872229780229976"><ele>540.0</ele><time>2026-04-19T12:42:47.005Z</time></trkpt><trkpt lat="44.39888205838239" lon="9.872386638721485"><ele>539.75</ele><time>2026-04-19T12:42:48.005Z</time></trkpt><trkpt lat="44.39898417264582" lon="9.872506823896375"><ele>539.5</ele><time>2026-04-19T12:42:49.005Z</time></trkpt><trkpt lat="44.399087774899094" lon="9.872609503780321"><ele>539.25</ele><time>2026-04-19T12:42:50.005Z</time></trkpt><trkpt lat="44.39919577183888" lon="9.872680048206218"><ele>539.0</ele><time>2026-04-19T12:42:51.005Z</time></trkpt><trkpt lat="44.39931037658053" lon="9.87271473363954"><ele>538.6666666666666</ele><time>2026-04-19T12:42:52.006Z</time></trkpt><trkpt lat="44.39944215877635" lon="9.87269267812597"><ele>538.3333333333334</ele><time>2026-04-19T12:42:53.006Z</time></trkpt><trkpt lat="44.39958942711736" lon="9.872639466003337"><ele>538.0</ele><time>2026-04-19T12:42:54.006Z</time></trkpt><trkpt lat="44.39974213732738" lon="9.872543990315233"><ele>540.6666666666667</ele><time>2026-04-19T12:42:55.006Z</time></trkpt><trkpt lat="44.39990785505691" lon="9.872390585559735"><ele>543.3333333333334</ele><time>2026-04-19T12:42:56.006Z</time></trkpt><trkpt lat="44.400073804513205" lon="9.872213660967954"><ele>546.0</ele><time>2026-04-19T12:42:57.006Z</time></trkpt><trkpt lat="44.40023797991698" lon="9.872028960081503"><ele>546.0</ele><time>2026-04-19T12:42:58.006Z</time></trkpt><trkpt lat="44.40039392526002" lon="9.871872794340456"><ele>546.0</ele><time>2026-04-19T12:42:59.006Z</time></trkpt><trkpt lat="44.40054556102458" lon="9.871784773114902"><ele>546.0</ele><time>2026-04-19T12:43:00.006Z</time></trkpt><trkpt lat="44.400706432159005" lon="9.871753684097257"><ele>545.3333333333334</ele><time>2026-04-19T12:43:01.006Z</time></trkpt><trkpt lat="44.40088805145315" lon="9.87170558775044"><ele>544.6666666666667</ele><time>2026-04-19T12:43:02.006Z</time></trkpt><trkpt lat="44.40109389045148" lon="9.871677440865508"><ele>544.0</ele><time>2026-04-19T12:43:03.006Z</time></trkpt><trkpt lat="44.401303065113865" lon="9.871640014858949"><ele>544.3333333333334</ele><time>2026-04-19T12:43:04.006Z</time></trkpt><trkpt lat="44.4015173823601" lon="9.871601640055037"><ele>544.6666666666666</ele><time>2026-04-19T12:43:05.006Z</time></trkpt><trkpt lat="44.40173751645884" lon="9.87154498981074"><ele>545.0</ele><time>2026-04-19T12:43:06.006Z</time></trkpt><trkpt lat="44.40197535126633" lon="9.871503631082048"><ele>546.3333333333333</ele><time>2026-04-19T12:43:07.006Z</time></trkpt><trkpt lat="44.4021994451659" lon="9.871452923553617"><ele>547.6666666666666</ele><time>2026-04-19T12:43:08.006Z</time></trkpt><trkpt lat="44.40240889140716" lon="9.871409912136139"><ele>549.0</ele><time>2026-04-19T12:43:09.006Z</time></trkpt><trkpt lat="44.40260782736931" lon="9.871387031470269"><ele>549.0</ele><time>2026-04-19T12:43:10.006Z</time></trkpt><trkpt lat="44.40280283221485" lon="9.871391004359824"><ele>549.0</ele><time>2026-04-19T12:43:11.006Z</time></trkpt><trkpt lat="44.402989850339935" lon="9.871430182616278"><ele>549.0</ele><time>2026-04-19T12:43:12.006Z</time></trkpt><trkpt lat="44.40317282220465" lon="9.871474978528305"><ele>550.3333333333334</ele><time>2026-04-19T12:43:13.006Z</time></trkpt><trkpt lat="44.403332906439" lon="9.871493434552523"><ele>551.6666666666667</ele><time>2026-04-19T12:43:14.006Z</time></trkpt><trkpt lat="44.40348720121997" lon="9.871459335204515"><ele>553.0</ele><time>2026-04-19T12:43:15.006Z</time></trkpt><trkpt lat="44.403649343732056" lon="9.871365867007613"><ele>553.0</ele><time>2026-04-19T12:43:16.006Z</time></trkpt><trkpt lat="44.403804341808424" lon="9.871272392548859"><ele>553.0</ele><time>2026-04-19T12:43:17.006Z</time></trkpt><trkpt lat="44.40396793521185" lon="9.871201926884433"><ele>553.0</ele><time>2026-04-19T12:43:18.006Z</time></trkpt><trkpt lat="44.404116964931966" lon="9.871192165551083"><ele>554.6666666666667</ele><time>2026-04-19T12:43:19.006Z</time></trkpt><trkpt lat="44.40426493870905" lon="9.871230714104962"><ele>556.3333333333334</ele><time>2026-04-19T12:43:20.006Z</time></trkpt><trkpt lat="44.4044116933371" lon="9.871311226512692"><ele>558.0</ele><time>2026-04-19T12:43:21.006Z</time></trkpt><trkpt lat="44.40457563118768" lon="9.871384690897251"><ele>560.6666666666666</ele><time>2026-04-19T12:43:22.006Z</time></trkpt><trkpt lat="44.40472687420784" lon="9.871448578585987"><ele>563.3333333333333</ele><time>2026-04-19T12:43:23.006Z</time></trkpt><trkpt lat="44.40486827577559" lon="9.871472421475763"><ele>566.0</ele><time>2026-04-19T12:43:24.006Z</time></trkpt><trkpt lat="44.405022536220706" lon="9.871450756595172"><ele>566.0</ele><time>2026-04-19T12:43:25.006Z</time></trkpt><trkpt lat="44.40519089000588" lon="9.87142964273282"><ele>566.0</ele><time>2026-04-19T12:43:26.006Z</time></trkpt><trkpt lat="44.40535792321251" lon="9.87140731570265"><ele>566.0</ele><time>2026-04-19T12:43:27.006Z</time></trkpt><trkpt lat="44.40551151393178" lon="9.871380912657008"><ele>566.0</ele><time>2026-04-19T12:43:28.006Z</time></trkpt><trkpt lat="44.405660386414695" lon="9.871329047183185"><ele>566.0</ele><time>2026-04-19T12:43:29.006Z</time></trkpt><trkpt lat="44.405786565018076" lon="9.871263675659216"><ele>566.0</ele><time>2026-04-19T12:43:30.006Z</time></trkpt><trkpt lat="44.40589916725131" lon="9.87118243806127"><ele>566.0</ele><time>2026-04-19T12:43:31.006Z</time></trkpt><trkpt lat="44.40599281768917" lon="9.871095182679333"><ele>566.0</ele><time>2026-04-19T12:43:32.006Z</time></trkpt><trkpt lat="44.40606229341786" lon="9.871005024149301"><ele>566.0</ele><time>2026-04-19T12:43:33.006Z</time></trkpt><trkpt lat="44.406126032891635" lon="9.87089743355003"><ele>566.0</ele><time>2026-04-19T12:43:34.006Z</time></trkpt><trkpt lat="44.40615967169986" lon="9.870754093152136"><ele>566.0</ele><time>2026-04-19T12:43:35.006Z</time></trkpt><trkpt lat="44.40616532986524" lon="9.870586670600144"><ele>566.0</ele><time>2026-04-19T12:43:36.006Z</time></trkpt><trkpt lat="44.40611908005763" lon="9.870423123571259"><ele>571.0</ele><time>2026-04-19T12:43:37.006Z</time></trkpt><trkpt lat="44.406046098356114" lon="9.870258086728048"><ele>576.0</ele><time>2026-04-19T12:43:38.006Z</time></trkpt><trkpt lat="44.40594456202032" lon="9.8700971246277"><ele>581.0</ele><time>2026-04-19T12:43:39.006Z</time></trkpt><trkpt lat="44.40581661344097" lon="9.869924027449287"><ele>581.6666666666666</ele><time>2026-04-19T12:43:40.006Z</time></trkpt><trkpt lat="44.40567161942314" lon="9.8697241512595"><ele>582.3333333333334</ele><time>2026-04-19T12:43:41.006Z</time></trkpt><trkpt lat="44.40554962325355" lon="9.869502798665888"><ele>583.0</ele><time>2026-04-19T12:43:42.006Z</time></trkpt><trkpt lat="44.40542565354322" lon="9.869308963270283"><ele>585.5</ele><time>2026-04-19T12:43:43.006Z</time></trkpt><trkpt lat="44.40531486917828" lon="9.869148115905569"><ele>588.0</ele><time>2026-04-19T12:43:44.006Z</time></trkpt><trkpt lat="44.405219568394465" lon="9.868993708557104"><ele>590.5</ele><time>2026-04-19T12:43:45.006Z</time></trkpt><trkpt lat="44.405130894225714" lon="9.868861030255795"><ele>593.0</ele><time>2026-04-19T12:43:46.006Z</time></trkpt><trkpt lat="44.40506170830405" lon="9.8687127116874"><ele>593.0</ele><time>2026-04-19T12:43:47.006Z</time></trkpt><trkpt lat="44.4050415295049" lon="9.868526359171765"><ele>593.0</ele><time>2026-04-19T12:43:48.006Z</time></trkpt><trkpt lat="44.40507305662607" lon="9.868320443758684"><ele>593.0</ele><time>2026-04-19T12:43:49.006Z</time></trkpt><trkpt lat="44.405094514526986" lon="9.868085830226116"><ele>593.6666666666666</ele><time>2026-04-19T12:43:50.006Z</time></trkpt><trkpt lat="44.40512669244032" lon="9.867840881101975"><ele>594.3333333333334</ele><time>2026-04-19T12:43:51.006Z</time></trkpt><trkpt lat="44.405158096756885" lon="9.867597075114196"><ele>595.0</ele><time>2026-04-19T12:43:52.006Z</time></trkpt><trkpt lat="44.40519023930371" lon="9.867389157108201"><ele>597.0</ele><time>2026-04-19T12:43:53.006Z</time></trkpt><trkpt lat="44.40520319020065" lon="9.867195832453822"><ele>599.0</ele><time>2026-04-19T12:43:54.006Z</time></trkpt><trkpt lat="44.40521798843909" lon="9.867018660427135"><ele>601.0</ele><time>2026-04-19T12:43:55.006Z</time></trkpt><trkpt lat="44.405296902328594" lon="9.866842999901316"><ele>603.0</ele><time>2026-04-19T12:43:56.006Z</time></trkpt><trkpt lat="44.40541373631561" lon="9.86667702141895"><ele>603.6666666666666</ele><time>2026-04-19T12:43:57.006Z</time></trkpt><trkpt lat="44.40552657742532" lon="9.866495236260432"><ele>604.3333333333333</ele><time>2026-04-19T12:43:58.006Z</time></trkpt><trkpt lat="44.40563324820073" lon="9.86628483424029"><ele>605.0</ele><time>2026-04-19T12:43:59.006Z</time></trkpt><trkpt lat="44.40573924897638" lon="9.866050264325112"><ele>608.3333333333333</ele><time>2026-04-19T12:44:00.006Z</time></trkpt><trkpt lat="44.40585212815872" lon="9.865822921205357"><ele>611.6666666666666</ele><time>2026-04-19T12:44:01.006Z</time></trkpt><trkpt lat="44.40594323637166" lon="9.865646739012226"><ele>615.0</ele><time>2026-04-19T12:44:02.006Z</time></trkpt><trkpt lat="44.406016199558316" lon="9.865486412924865"><ele>615.0</ele><time>2026-04-19T12:44:03.006Z</time></trkpt><trkpt lat="44.40610515979068" lon="9.865390483361386"><ele>615.0</ele><time>2026-04-19T12:44:04.006Z</time></trkpt><trkpt lat="44.4062222709534" lon="9.865312373061668"><ele>615.0</ele><time>2026-04-19T12:44:05.006Z</time></trkpt><trkpt lat="44.40634618344365" lon="9.865230505998408"><ele>615.0</ele><time>2026-04-19T12:44:06.006Z</time></trkpt><trkpt lat="44.40648308803288" lon="9.8651431367732"><ele>615.0</ele><time>2026-04-19T12:44:07.006Z</time></trkpt><trkpt lat="44.406637548103156" lon="9.86505748727504"><ele>615.0</ele><time>2026-04-19T12:44:08.006Z</time></trkpt><trkpt lat="44.406784689184704" lon="9.864978880909952"><ele>615.0</ele><time>2026-04-19T12:44:09.006Z</time></trkpt><trkpt lat="44.40691539363759" lon="9.86490709627742"><ele>615.0</ele><time>2026-04-19T12:44:10.006Z</time></trkpt><trkpt lat="44.40703745200618" lon="9.864832739543541"><ele>615.0</ele><time>2026-04-19T12:44:11.006Z</time></trkpt><trkpt lat="44.407130447739284" lon="9.864753684859087"><ele>615.0</ele><time>2026-04-19T12:44:12.006Z</time></trkpt><trkpt lat="44.407207388912745" lon="9.86466054286258"><ele>615.0</ele><time>2026-04-19T12:44:13.006Z</time></trkpt><trkpt lat="44.40727293871971" lon="9.864534218634558"><ele>614.0</ele><time>2026-04-19T12:44:14.006Z</time></trkpt><trkpt lat="44.407352455361675" lon="9.86433607096815"><ele>613.0</ele><time>2026-04-19T12:44:15.006Z</time></trkpt><trkpt lat="44.40742436731085" lon="9.864122357141861"><ele>612.0</ele><time>2026-04-19T12:44:16.006Z</time></trkpt><trkpt lat="44.40749274230248" lon="9.863896617736348"><ele>612.0</ele><time>2026-04-19T12:44:17.006Z</time></trkpt><trkpt lat="44.407554373720274" lon="9.863678275852775"><ele>612.0</ele><time>2026-04-19T12:44:18.006Z</time></trkpt><trkpt lat="44.40762488379289" lon="9.863497252475124"><ele>612.0</ele><time>2026-04-19T12:44:19.006Z</time></trkpt><trkpt lat="44.40772347808616" lon="9.863352051396438"><ele>612.5</ele><time>2026-04-19T12:44:20.006Z</time></trkpt><trkpt lat="44.407835108102844" lon="9.863236525944663"><ele>613.0</ele><time>2026-04-19T12:44:21.006Z</time></trkpt><trkpt lat="44.407964279302114" lon="9.863159985954054"><ele>613.5</ele><time>2026-04-19T12:44:22.006Z</time></trkpt><trkpt lat="44.40808693305913" lon="9.863114287281904"><ele>614.0</ele><time>2026-04-19T12:44:23.006Z</time></trkpt><trkpt lat="44.408220655270895" lon="9.863094222157063"><ele>614.0</ele><time>2026-04-19T12:44:24.006Z</time></trkpt><trkpt lat="44.408365722587284" lon="9.863100678973307"><ele>614.0</ele><time>2026-04-19T12:44:25.006Z</time></trkpt><trkpt lat="44.408526011406224" lon="9.863122498764755"><ele>614.0</ele><time>2026-04-19T12:44:26.006Z</time></trkpt><trkpt lat="44.408702113000395" lon="9.863144213673303"><ele>615.0</ele><time>2026-04-19T12:44:27.006Z</time></trkpt><trkpt lat="44.408890962755166" lon="9.863163064923175"><ele>616.0</ele><time>2026-04-19T12:44:28.006Z</time></trkpt><trkpt lat="44.40906301953263" lon="9.863168355375974"><ele>617.0</ele><time>2026-04-19T12:44:29.006Z</time></trkpt><trkpt lat="44.409223959872214" lon="9.863171958967168"><ele>617.0</ele><time>2026-04-19T12:44:30.006Z</time></trkpt><trkpt lat="44.40936539049194" lon="9.86319695446424"><ele>617.0</ele><time>2026-04-19T12:44:31.006Z</time></trkpt><trkpt lat="44.40949251354359" lon="9.863157117196955"><ele>617.0</ele><time>2026-04-19T12:44:32.006Z</time></trkpt><trkpt lat="44.409630459579795" lon="9.863110114125313"><ele>617.0</ele><time>2026-04-19T12:44:33.006Z</time></trkpt><trkpt lat="44.409783116101515" lon="9.86300483295885"><ele>620.0</ele><time>2026-04-19T12:44:34.006Z</time></trkpt><trkpt lat="44.40993166791045" lon="9.862866633980966"><ele>623.0</ele><time>2026-04-19T12:44:35.006Z</time></trkpt><trkpt lat="44.41007069565473" lon="9.86274855276207"><ele>626.0</ele><time>2026-04-19T12:44:36.006Z</time></trkpt><trkpt lat="44.4102003336843" lon="9.862622414837405"><ele>625.3333333333333</ele><time>2026-04-19T12:44:37.006Z</time></trkpt><trkpt lat="44.410350407354315" lon="9.86254668971474"><ele>624.6666666666666</ele><time>2026-04-19T12:44:38.006Z</time></trkpt><trkpt lat="44.41050441850634" lon="9.862489014392795"><ele>624.0</ele><time>2026-04-19T12:44:39.006Z</time></trkpt><trkpt lat="44.410663325261275" lon="9.862466218489722"><ele>624.0</ele><time>2026-04-19T12:44:40.006Z</time></trkpt><trkpt lat="44.41083224129274" lon="9.862469280238516"><ele>624.0</ele><time>2026-04-19T12:44:41.006Z</time></trkpt><trkpt lat="44.410988375793664" lon="9.862493688366698"><ele>624.0</ele><time>2026-04-19T12:44:42.006Z</time></trkpt><trkpt lat="44.41114415771561" lon="9.862517246112317"><ele>624.0</ele><time>2026-04-19T12:44:43.006Z</time></trkpt><trkpt lat="44.41127885782894" lon="9.862556164648732"><ele>624.0</ele><time>2026-04-19T12:44:44.006Z</time></trkpt><trkpt lat="44.41140259871899" lon="9.862559762464823"><ele>624.0</ele><time>2026-04-19T12:44:45.006Z</time></trkpt><trkpt lat="44.41152493507833" lon="9.862516000784955"><ele>624.0</ele><time>2026-04-19T12:44:46.006Z</time></trkpt><trkpt lat="44.41166552392241" lon="9.862422133534972"><ele>623.6666666666666</ele><time>2026-04-19T12:44:47.006Z</time></trkpt><trkpt lat="44.41180924533515" lon="9.86231271039678"><ele>623.3333333333333</ele><time>2026-04-19T12:44:48.006Z</time></trkpt><trkpt lat="44.41194745284301" lon="9.86224778189028"><ele>623.0</ele><time>2026-04-19T12:44:49.006Z</time></trkpt><trkpt lat="44.4121000013763" lon="9.862250519206954"><ele>620.3333333333333</ele><time>2026-04-19T12:44:50.006Z</time></trkpt><trkpt lat="44.412251639901434" lon="9.862267698571586"><ele>617.6666666666666</ele><time>2026-04-19T12:44:51.006Z</time></trkpt><trkpt lat="44.41241086169555" lon="9.86227036175644"><ele>615.0</ele><time>2026-04-19T12:44:52.006Z</time></trkpt><trkpt lat="44.41255325798677" lon="9.86230406889378"><ele>615.0</ele><time>2026-04-19T12:44:53.006Z</time></trkpt><trkpt lat="44.41268358179437" lon="9.862295019498774"><ele>615.0</ele><time>2026-04-19T12:44:54.006Z</time></trkpt><trkpt lat="44.41279900036029" lon="9.862245027597316"><ele>615.0</ele><time>2026-04-19T12:44:55.006Z</time></trkpt><trkpt lat="44.412893288638514" lon="9.86215232860581"><ele>615.0</ele><time>2026-04-19T12:44:56.007Z</time></trkpt><trkpt lat="44.41298892126747" lon="9.862040803213322"><ele>616.25</ele><time>2026-04-19T12:44:57.007Z</time></trkpt><trkpt lat="44.41308582946385" lon="9.86189135569717"><ele>617.5</ele><time>2026-04-19T12:44:58.007Z</time></trkpt><trkpt lat="44.41318892658893" lon="9.861711754377993"><ele>618.75</ele><time>2026-04-19T12:44:59.007Z</time></trkpt><trkpt lat="44.41328518096493" lon="9.861602095358998"><ele>620.0</ele><time>2026-04-19T12:45:00.007Z</time></trkpt><trkpt lat="44.413387713831874" lon="9.86155996149346"><ele>620.0</ele><time>2026-04-19T12:45:01.007Z</time></trkpt><trkpt lat="44.41351761088989" lon="9.861571557657294"><ele>620.0</ele><time>2026-04-19T12:45:02.007Z</time></trkpt><trkpt lat="44.41366905461073" lon="9.8616034514329"><ele>620.0</ele><time>2026-04-19T12:45:03.007Z</time></trkpt><trkpt lat="44.41381112091166" lon="9.861658136131062"><ele>620.0</ele><time>2026-04-19T12:45:04.007Z</time></trkpt><trkpt lat="44.41394250028575" lon="9.861730851866767"><ele>617.3333333333333</ele><time>2026-04-19T12:45:05.007Z</time></trkpt><trkpt lat="44.414066954719125" lon="9.861845656003783"><ele>614.6666666666666</ele><time>2026-04-19T12:45:06.007Z</time></trkpt><trkpt lat="44.414178582607406" lon="9.862011837947682"><ele>612.0</ele><time>2026-04-19T12:45:07.007Z</time></trkpt><trkpt lat="44.41428509578088" lon="9.862195005626312"><ele>612.0</ele><time>2026-04-19T12:45:08.007Z</time></trkpt><trkpt lat="44.41440821908713" lon="9.862389315181437"><ele>612.0</ele><time>2026-04-19T12:45:09.007Z</time></trkpt><trkpt lat="44.41452554256089" lon="9.862578388433038"><ele>612.0</ele><time>2026-04-19T12:45:10.007Z</time></trkpt><trkpt lat="44.414643664932214" lon="9.862748893733215"><ele>613.75</ele><time>2026-04-19T12:45:11.007Z</time></trkpt><trkpt lat="44.41475268846832" lon="9.862900798585144"><ele>615.5</ele><time>2026-04-19T12:45:12.007Z</time></trkpt><trkpt lat="44.41485520910681" lon="9.863042789543776"><ele>617.25</ele><time>2026-04-19T12:45:13.007Z</time></trkpt><trkpt lat="44.414958759060276" lon="9.863158168965343"><ele>619.0</ele><time>2026-04-19T12:45:14.007Z</time></trkpt><trkpt lat="44.41508334671934" lon="9.86326550333238"><ele>619.0</ele><time>2026-04-19T12:45:15.007Z</time></trkpt><trkpt lat="44.4152201980864" lon="9.863356448662941"><ele>619.0</ele><time>2026-04-19T12:45:16.007Z</time></trkpt><trkpt lat="44.41536733191934" lon="9.863446864474469"><ele>619.0</ele><time>2026-04-19T12:45:17.007Z</time></trkpt><trkpt lat="44.41551175223379" lon="9.863520776588793"><ele>615.3333333333334</ele><time>2026-04-19T12:45:18.007Z</time></trkpt><trkpt lat="44.41568301396541" lon="9.863577870338327"><ele>611.6666666666666</ele><time>2026-04-19T12:45:19.007Z</time></trkpt><trkpt lat="44.415847686349395" lon="9.86366157842268"><ele>608.0</ele><time>2026-04-19T12:45:20.007Z</time></trkpt><trkpt lat="44.41600619192616" lon="9.863744780281854"><ele>608.0</ele><time>2026-04-19T12:45:21.007Z</time></trkpt><trkpt lat="44.416149900589794" lon="9.86382600507249"><ele>608.0</ele><time>2026-04-19T12:45:22.007Z</time></trkpt><trkpt lat="44.41629234970898" lon="9.863899971737181"><ele>608.0</ele><time>2026-04-19T12:45:23.007Z</time></trkpt><trkpt lat="44.416417485578286" lon="9.863974152436183"><ele>608.0</ele><time>2026-04-19T12:45:24.007Z</time></trkpt><trkpt lat="44.41653587810037" lon="9.86403295779608"><ele>609.5</ele><time>2026-04-19T12:45:25.007Z</time></trkpt><trkpt lat="44.41664702622178" lon="9.864056243266724"><ele>611.0</ele><time>2026-04-19T12:45:26.007Z</time></trkpt><trkpt lat="44.4167691017901" lon="9.864053434250332"><ele>612.5</ele><time>2026-04-19T12:45:27.007Z</time></trkpt><trkpt lat="44.41690721814385" lon="9.86398943267172"><ele>614.0</ele><time>2026-04-19T12:45:28.007Z</time></trkpt><trkpt lat="44.417022245460124" lon="9.863881783780991"><ele>614.0</ele><time>2026-04-19T12:45:29.007Z</time></trkpt><trkpt lat="44.41710883573888" lon="9.863756444365425"><ele>614.0</ele><time>2026-04-19T12:45:30.007Z</time></trkpt><trkpt lat="44.41717162778118" lon="9.863594587142455"><ele>614.0</ele><time>2026-04-19T12:45:31.007Z</time></trkpt><trkpt lat="44.41720388208966" lon="9.863415139967902"><ele>614.0</ele><time>2026-04-19T12:45:32.007Z</time></trkpt><trkpt lat="44.41721987243814" lon="9.863205892328365"><ele>616.6666666666666</ele><time>2026-04-19T12:45:33.007Z</time></trkpt><trkpt lat="44.41721243613429" lon="9.862954047022452"><ele>619.3333333333334</ele><time>2026-04-19T12:45:34.007Z</time></trkpt><trkpt lat="44.4171965871027" lon="9.862657893664304"><ele>622.0</ele><time>2026-04-19T12:45:35.007Z</time></trkpt><trkpt lat="44.417199359605945" lon="9.862355447225632"><ele>623.6666666666667</ele><time>2026-04-19T12:45:36.007Z</time></trkpt><trkpt lat="44.41723700067417" lon="9.862066298161336"><ele>625.3333333333334</ele><time>2026-04-19T12:45:37.007Z</time></trkpt><trkpt lat="44.4172911624167" lon="9.861781018983985"><ele>627.0</ele><time>2026-04-19T12:45:38.007Z</time></trkpt><trkpt lat="44.417345239372516" lon="9.861496697903673"><ele>626.6666666666666</ele><time>2026-04-19T12:45:39.007Z</time></trkpt><trkpt lat="44.41739687671316" lon="9.861236626433254"><ele>626.3333333333333</ele><time>2026-04-19T12:45:40.007Z</time></trkpt><trkpt lat="44.417450558731566" lon="9.861011606263924"><ele>626.0</ele><time>2026-04-19T12:45:41.007Z</time></trkpt><trkpt lat="44.41751855008514" lon="9.86082724257442"><ele>626.0</ele><time>2026-04-19T12:45:42.007Z</time></trkpt><trkpt lat="44.417596003917865" lon="9.860647893593933"><ele>626.0</ele><time>2026-04-19T12:45:43.007Z</time></trkpt><trkpt lat="44.417710395399325" lon="9.860476854469132"><ele>626.0</ele><time>2026-04-19T12:45:44.007Z</time></trkpt><trkpt lat="44.41784183245978" lon="9.86032041167259"><ele>626.0</ele><time>2026-04-19T12:45:45.007Z</time></trkpt><trkpt lat="44.417947535103465" lon="9.860179765895"><ele>626.0</ele><time>2026-04-19T12:45:46.007Z</time></trkpt><trkpt lat="44.418029389573434" lon="9.860047320487563"><ele>626.0</ele><time>2026-04-19T12:45:47.007Z</time></trkpt><trkpt lat="44.41807546353586" lon="9.859895512891109"><ele>626.0</ele><time>2026-04-19T12:45:48.007Z</time></trkpt><trkpt lat="44.418065822098136" lon="9.859685530652628"><ele>627.0</ele><time>2026-04-19T12:45:49.007Z</time></trkpt><trkpt lat="44.4180350477109" lon="9.859466999479846"><ele>628.0</ele><time>2026-04-19T12:45:50.007Z</time></trkpt><trkpt lat="44.41803517209519" lon="9.859300589169772"><ele>629.0</ele><time>2026-04-19T12:45:51.007Z</time></trkpt><trkpt lat="44.41810449961995" lon="9.859186261041264"><ele>630.0</ele><time>2026-04-19T12:45:52.007Z</time></trkpt><trkpt lat="44.41819232628371" lon="9.859084243042295"><ele>630.0</ele><time>2026-04-19T12:45:53.007Z</time></trkpt><trkpt lat="44.418311221645695" lon="9.858959906028723"><ele>630.0</ele><time>2026-04-19T12:45:54.007Z</time></trkpt><trkpt lat="44.41842867476252" lon="9.85882192934915"><ele>630.0</ele><time>2026-04-19T12:45:55.007Z</time></trkpt><trkpt lat="44.418541987288066" lon="9.858709884862327"><ele>630.0</ele><time>2026-04-19T12:45:56.007Z</time></trkpt><trkpt lat="44.41862219869621" lon="9.858593614747116"><ele>627.0</ele><time>2026-04-19T12:45:57.007Z</time></trkpt><trkpt lat="44.418692524261644" lon="9.858449013266608"><ele>624.0</ele><time>2026-04-19T12:45:58.007Z</time></trkpt><trkpt lat="44.41874597004334" lon="9.85827023533747"><ele>621.0</ele><time>2026-04-19T12:45:59.007Z</time></trkpt><trkpt lat="44.41878709317683" lon="9.858033115698897"><ele>618.0</ele><time>2026-04-19T12:46:00.007Z</time></trkpt><trkpt lat="44.41884826743274" lon="9.857809469358607"><ele>625.6666666666666</ele><time>2026-04-19T12:46:01.007Z</time></trkpt><trkpt lat="44.41892719067334" lon="9.85759785232172"><ele>633.3333333333333</ele><time>2026-04-19T12:46:02.007Z</time></trkpt><trkpt lat="44.41902138019763" lon="9.857415601783854"><ele>641.0</ele><time>2026-04-19T12:46:03.007Z</time></trkpt><trkpt lat="44.41911067085894" lon="9.857235453495008"><ele>641.0</ele><time>2026-04-19T12:46:04.007Z</time></trkpt><trkpt lat="44.419180762456534" lon="9.85703212408607"><ele>641.0</ele><time>2026-04-19T12:46:05.007Z</time></trkpt><trkpt lat="44.41923276609368" lon="9.856807787275415"><ele>641.0</ele><time>2026-04-19T12:46:06.007Z</time></trkpt><trkpt lat="44.419271081380735" lon="9.856566795319091"><ele>638.6666666666666</ele><time>2026-04-19T12:46:07.007Z</time></trkpt><trkpt lat="44.41930879385533" lon="9.856332816779492"><ele>636.3333333333334</ele><time>2026-04-19T12:46:08.007Z</time></trkpt><trkpt lat="44.419347391779375" lon="9.856126709858449"><ele>634.0</ele><time>2026-04-19T12:46:09.007Z</time></trkpt><trkpt lat="44.419380476892556" lon="9.855940837129243"><ele>633.0</ele><time>2026-04-19T12:46:10.007Z</time></trkpt><trkpt lat="44.41940012926159" lon="9.855775850892401"><ele>632.0</ele><time>2026-04-19T12:46:11.007Z</time></trkpt><trkpt lat="44.41938334632414" lon="9.855594662529622"><ele>631.0</ele><time>2026-04-19T12:46:12.007Z</time></trkpt><trkpt lat="44.419336248411874" lon="9.855388175274296"><ele>630.0</ele><time>2026-04-19T12:46:13.007Z</time></trkpt><trkpt lat="44.41930150845162" lon="9.855167907900006"><ele>629.5</ele><time>2026-04-19T12:46:14.007Z</time></trkpt><trkpt lat="44.41926745031947" lon="9.854963366151699"><ele>629.0</ele><time>2026-04-19T12:46:15.007Z</time></trkpt><trkpt lat="44.41925224003976" lon="9.854764729413874"><ele>628.5</ele><time>2026-04-19T12:46:16.007Z</time></trkpt><trkpt lat="44.41926724193192" lon="9.854574478555605"><ele>628.0</ele><time>2026-04-19T12:46:17.007Z</time></trkpt><trkpt lat="44.41929698896432" lon="9.854397163875587"><ele>628.1999999999999</ele><time>2026-04-19T12:46:18.007Z</time></trkpt><trkpt lat="44.41932145159053" lon="9.854241641018284"><ele>628.4</ele><time>2026-04-19T12:46:19.007Z</time></trkpt><trkpt lat="44.419367492031135" lon="9.854120208672262"><ele>628.5999999999999</ele><time>2026-04-19T12:46:20.007Z</time></trkpt><trkpt lat="44.41943090875299" lon="9.854008067540134"><ele>628.8</ele><time>2026-04-19T12:46:21.007Z</time></trkpt><trkpt lat="44.41951988453744" lon="9.853913893099975"><ele>629.0</ele><time>2026-04-19T12:46:22.007Z</time></trkpt><trkpt lat="44.419619975991" lon="9.853847317582593"><ele>633.0</ele><time>2026-04-19T12:46:23.007Z</time></trkpt><trkpt lat="44.41984027308927" lon="9.853774881826075"><ele>637.0</ele><time>2026-04-19T12:46:25.007Z</time></trkpt><trkpt lat="44.419959703247685" lon="9.853811515744503"><ele>641.0</ele><time>2026-04-19T12:46:26.007Z</time></trkpt><trkpt lat="44.420094754920704" lon="9.85382534623844"><ele>641.0</ele><time>2026-04-19T12:46:27.007Z</time></trkpt><trkpt lat="44.420240740013384" lon="9.853866394308882"><ele>641.0</ele><time>2026-04-19T12:46:28.007Z</time></trkpt><trkpt lat="44.42039111583684" lon="9.853905532799102"><ele>641.0</ele><time>2026-04-19T12:46:29.007Z</time></trkpt><trkpt lat="44.420534326424814" lon="9.853923142210144"><ele>641.0</ele><time>2026-04-19T12:46:30.007Z</time></trkpt><trkpt lat="44.42069266716606" lon="9.853912037447726"><ele>641.6666666666666</ele><time>2026-04-19T12:46:31.007Z</time></trkpt><trkpt lat="44.420870982679766" lon="9.85387208316558"><ele>642.3333333333334</ele><time>2026-04-19T12:46:32.007Z</time></trkpt><trkpt lat="44.42103444670926" lon="9.8538156454"><ele>643.0</ele><time>2026-04-19T12:46:33.007Z</time></trkpt><trkpt lat="44.421204459874474" lon="9.853737849467866"><ele>644.0</ele><time>2026-04-19T12:46:34.007Z</time></trkpt><trkpt lat="44.42138183399567" lon="9.853648274919209"><ele>645.0</ele><time>2026-04-19T12:46:35.007Z</time></trkpt><trkpt lat="44.42154049920117" lon="9.853541636615939"><ele>646.0</ele><time>2026-04-19T12:46:36.007Z</time></trkpt><trkpt lat="44.42169742925748" lon="9.853453043257327"><ele>646.0</ele><time>2026-04-19T12:46:37.007Z</time></trkpt><trkpt lat="44.421824891336904" lon="9.853388168069925"><ele>646.0</ele><time>2026-04-19T12:46:38.007Z</time></trkpt><trkpt lat="44.42192578223988" lon="9.85333468053369"><ele>646.0</ele><time>2026-04-19T12:46:39.007Z</time></trkpt><trkpt lat="44.42199984838975" lon="9.853343177538942"><ele>646.0</ele><time>2026-04-19T12:46:40.007Z</time></trkpt><trkpt lat="44.42205463561519" lon="9.853388354552074"><ele>646.0</ele><time>2026-04-19T12:46:41.007Z</time></trkpt><trkpt lat="44.422107772181114" lon="9.853495207902423"><ele>646.5999999999999</ele><time>2026-04-19T12:46:42.007Z</time></trkpt><trkpt lat="44.42215685569696" lon="9.853623941726404"><ele>647.2</ele><time>2026-04-19T12:46:43.007Z</time></trkpt><trkpt lat="44.4222194186468" lon="9.853721907004214"><ele>647.8</ele><time>2026-04-19T12:46:44.007Z</time></trkpt><trkpt lat="44.422300357111425" lon="9.85375840540695"><ele>648.4000000000001</ele><time>2026-04-19T12:46:45.007Z</time></trkpt><trkpt lat="44.42240134003001" lon="9.853700305870088"><ele>649.0</ele><time>2026-04-19T12:46:46.007Z</time></trkpt><trkpt lat="44.422515686741725" lon="9.85362454876938"><ele>646.75</ele><time>2026-04-19T12:46:47.007Z</time></trkpt><trkpt lat="44.422562419570184" lon="9.853440901188675"><ele>644.5</ele><time>2026-04-19T12:46:48.007Z</time></trkpt><trkpt lat="44.42259473764548" lon="9.853289620534358"><ele>642.25</ele><time>2026-04-19T12:46:49.007Z</time></trkpt><trkpt lat="44.42263993099862" lon="9.853156019053538"><ele>640.0</ele><time>2026-04-19T12:46:50.007Z</time></trkpt><trkpt lat="44.422712571752136" lon="9.853053365076157"><ele>640.0</ele><time>2026-04-19T12:46:51.007Z</time></trkpt><trkpt lat="44.42280225579543" lon="9.852981159958157"><ele>640.0</ele><time>2026-04-19T12:46:52.007Z</time></trkpt><trkpt lat="44.42292074881503" lon="9.852995361270528"><ele>640.0</ele><time>2026-04-19T12:46:53.007Z</time></trkpt><trkpt lat="44.423053757173726" lon="9.85303972618748"><ele>640.0</ele><time>2026-04-19T12:46:54.007Z</time></trkpt><trkpt lat="44.42319815634024" lon="9.853087629588352"><ele>642.0</ele><time>2026-04-19T12:46:55.007Z</time></trkpt><trkpt lat="44.423353553058256" lon="9.853118691029476"><ele>644.0</ele><time>2026-04-19T12:46:56.007Z</time></trkpt><trkpt lat="44.42349666077211" lon="9.853155136257369"><ele>646.0</ele><time>2026-04-19T12:46:57.007Z</time></trkpt><trkpt lat="44.42362064833068" lon="9.853212455009807"><ele>648.0</ele><time>2026-04-19T12:46:58.007Z</time></trkpt><trkpt lat="44.42373891755969" lon="9.853278753064792"><ele>648.5</ele><time>2026-04-19T12:46:59.007Z</time></trkpt><trkpt lat="44.4238598743942" lon="9.853381494205403"><ele>649.0</ele><time>2026-04-19T12:47:00.007Z</time></trkpt><trkpt lat="44.42396921403317" lon="9.853463469104158"><ele>649.5</ele><time>2026-04-19T12:47:01.007Z</time></trkpt><trkpt lat="44.42408300185726" lon="9.85347889581529"><ele>650.0</ele><time>2026-04-19T12:47:02.007Z</time></trkpt><trkpt lat="44.42420621419499" lon="9.8534498944505"><ele>650.0</ele><time>2026-04-19T12:47:03.007Z</time></trkpt><trkpt lat="44.42431338202354" lon="9.853412193733668"><ele>650.0</ele><time>2026-04-19T12:47:04.007Z</time></trkpt><trkpt lat="44.42445478979855" lon="9.853360338530788"><ele>650.0</ele><time>2026-04-19T12:47:05.007Z</time></trkpt><trkpt lat="44.42455833173363" lon="9.85331241229884"><ele>650.0</ele><time>2026-04-19T12:47:06.007Z</time></trkpt><trkpt lat="44.42463678694736" lon="9.853174673144945"><ele>649.0</ele><time>2026-04-19T12:47:07.007Z</time></trkpt><trkpt lat="44.42465417723953" lon="9.852978169427715"><ele>648.0</ele><time>2026-04-19T12:47:08.007Z</time></trkpt><trkpt lat="44.42470289490738" lon="9.852779399052377"><ele>647.0</ele><time>2026-04-19T12:47:09.007Z</time></trkpt><trkpt lat="44.42474691084403" lon="9.852626961142166"><ele>646.0</ele><time>2026-04-19T12:47:10.007Z</time></trkpt><trkpt lat="44.42480703686779" lon="9.852506498585909"><ele>646.0</ele><time>2026-04-19T12:47:11.007Z</time></trkpt><trkpt lat="44.42489165122461" lon="9.852411287552865"><ele>646.0</ele><time>2026-04-19T12:47:12.007Z</time></trkpt><trkpt lat="44.42501522531235" lon="9.85228488788521"><ele>646.0</ele><time>2026-04-19T12:47:13.007Z</time></trkpt><trkpt lat="44.42511236745093" lon="9.852129613026781"><ele>646.0</ele><time>2026-04-19T12:47:14.007Z</time></trkpt><trkpt lat="44.42521464163522" lon="9.851947247067574"><ele>642.0</ele><time>2026-04-19T12:47:15.007Z</time></trkpt><trkpt lat="44.425313054707615" lon="9.851733747801413"><ele>638.0</ele><time>2026-04-19T12:47:16.007Z</time></trkpt><trkpt lat="44.42540880245426" lon="9.851522644627517"><ele>634.0</ele><time>2026-04-19T12:47:17.008Z</time></trkpt><trkpt lat="44.42550088256629" lon="9.851324901101208"><ele>640.0</ele><time>2026-04-19T12:47:18.008Z</time></trkpt><trkpt lat="44.42558461941565" lon="9.851174013180884"><ele>646.0</ele><time>2026-04-19T12:47:19.008Z</time></trkpt><trkpt lat="44.425666523572" lon="9.851033274879102"><ele>652.0</ele><time>2026-04-19T12:47:20.008Z</time></trkpt><trkpt lat="44.42576513896176" lon="9.850976155371196"><ele>658.0</ele><time>2026-04-19T12:47:21.008Z</time></trkpt><trkpt lat="44.42585399459647" lon="9.850973062682886"><ele>658.0</ele><time>2026-04-19T12:47:22.008Z</time></trkpt><trkpt lat="44.425952870578634" lon="9.8510215478747"><ele>658.0</ele><time>2026-04-19T12:47:23.008Z</time></trkpt><trkpt lat="44.42604550390392" lon="9.851112494113458"><ele>658.0</ele><time>2026-04-19T12:47:24.008Z</time></trkpt><trkpt lat="44.42613541184932" lon="9.851257019180778"><ele>658.0</ele><time>2026-04-19T12:47:25.008Z</time></trkpt><trkpt lat="44.426232200687615" lon="9.851434169440179"><ele>656.5</ele><time>2026-04-19T12:47:26.008Z</time></trkpt><trkpt lat="44.426317621690046" lon="9.851594885440967"><ele>655.0</ele><time>2026-04-19T12:47:27.008Z</time></trkpt><trkpt lat="44.42640342879309" lon="9.851739660479856"><ele>653.5</ele><time>2026-04-19T12:47:28.008Z</time></trkpt><trkpt lat="44.426465727972726" lon="9.851851833636323"><ele>652.0</ele><time>2026-04-19T12:47:29.008Z</time></trkpt><trkpt lat="44.42654011417101" lon="9.851935439051207"><ele>657.0</ele><time>2026-04-19T12:47:30.008Z</time></trkpt><trkpt lat="44.42663729479591" lon="9.851987585429884"><ele>662.0</ele><time>2026-04-19T12:47:31.008Z</time></trkpt><trkpt lat="44.426741893597885" lon="9.852038831270447"><ele>667.0</ele><time>2026-04-19T12:47:32.008Z</time></trkpt><trkpt lat="44.42684141014646" lon="9.852083963922079"><ele>672.0</ele><time>2026-04-19T12:47:33.008Z</time></trkpt><trkpt lat="44.42692819344824" lon="9.852078953635326"><ele>677.0</ele><time>2026-04-19T12:47:34.008Z</time></trkpt><trkpt lat="44.427013561906634" lon="9.852082126490297"><ele>677.0</ele><time>2026-04-19T12:47:35.008Z</time></trkpt><trkpt lat="44.42710816822891" lon="9.852024498706605"><ele>677.0</ele><time>2026-04-19T12:47:36.008Z</time></trkpt><trkpt lat="44.42718170782128" lon="9.85188486955386"><ele>677.0</ele><time>2026-04-19T12:47:37.008Z</time></trkpt><trkpt lat="44.42726645529905" lon="9.851795585200056"><ele>677.0</ele><time>2026-04-19T12:47:38.008Z</time></trkpt><trkpt lat="44.42733387269946" lon="9.851701739902952"><ele>677.0</ele><time>2026-04-19T12:47:39.008Z</time></trkpt><trkpt lat="44.427402112868485" lon="9.851619312538597"><ele>673.0</ele><time>2026-04-19T12:47:40.008Z</time></trkpt><trkpt lat="44.427475802231065" lon="9.85155413310873"><ele>669.0</ele><time>2026-04-19T12:47:41.008Z</time></trkpt><trkpt lat="44.42756618120671" lon="9.851510526820814"><ele>665.0</ele><time>2026-04-19T12:47:42.008Z</time></trkpt><trkpt lat="44.42766384649887" lon="9.8514924963565"><ele>661.0</ele><time>2026-04-19T12:47:43.008Z</time></trkpt><trkpt lat="44.42777075868584" lon="9.85147871858181"><ele>657.0</ele><time>2026-04-19T12:47:44.008Z</time></trkpt><trkpt lat="44.42788198749957" lon="9.851468521468044"><ele>659.5</ele><time>2026-04-19T12:47:45.008Z</time></trkpt><trkpt lat="44.427991239763834" lon="9.851446428668071"><ele>662.0</ele><time>2026-04-19T12:47:46.008Z</time></trkpt><trkpt lat="44.428105297586356" lon="9.85146103072159"><ele>664.5</ele><time>2026-04-19T12:47:47.008Z</time></trkpt><trkpt lat="44.42821574654678" lon="9.85147780949236"><ele>667.0</ele><time>2026-04-19T12:47:48.008Z</time></trkpt><trkpt lat="44.42835480460857" lon="9.851511846307725"><ele>667.0</ele><time>2026-04-19T12:47:49.008Z</time></trkpt><trkpt lat="44.428527892429045" lon="9.851550790198704"><ele>667.0</ele><time>2026-04-19T12:47:50.008Z</time></trkpt><trkpt lat="44.42871039799224" lon="9.851593156838193"><ele>667.0</ele><time>2026-04-19T12:47:51.008Z</time></trkpt><trkpt lat="44.42885291122385" lon="9.85163088487994"><ele>666.0</ele><time>2026-04-19T12:47:52.008Z</time></trkpt><trkpt lat="44.42894999699321" lon="9.851692411957615"><ele>665.0</ele><time>2026-04-19T12:47:53.008Z</time></trkpt><trkpt lat="44.42900463833797" lon="9.851807867801021"><ele>664.0</ele><time>2026-04-19T12:47:54.008Z</time></trkpt><trkpt lat="44.42906506499061" lon="9.851941223198446"><ele>663.0</ele><time>2026-04-19T12:47:55.008Z</time></trkpt><trkpt lat="44.42905915753125" lon="9.852109627407973"><ele>662.0</ele><time>2026-04-19T12:47:56.008Z</time></trkpt><trkpt lat="44.429073031512004" lon="9.852303665185998"><ele>662.0</ele><time>2026-04-19T12:47:57.008Z</time></trkpt><trkpt lat="44.42909420261862" lon="9.852515935145915"><ele>662.0</ele><time>2026-04-19T12:47:58.008Z</time></trkpt><trkpt lat="44.429104380565995" lon="9.852740487083658"><ele>662.0</ele><time>2026-04-19T12:47:59.008Z</time></trkpt><trkpt lat="44.42912057973611" lon="9.852961123229734"><ele>663.0</ele><time>2026-04-19T12:48:00.008Z</time></trkpt><trkpt lat="44.42913281250845" lon="9.853173898405425"><ele>664.0</ele><time>2026-04-19T12:48:01.008Z</time></trkpt><trkpt lat="44.42911492591173" lon="9.85338171153391"><ele>665.0</ele><time>2026-04-19T12:48:02.008Z</time></trkpt><trkpt lat="44.42909216737164" lon="9.85356579388755"><ele>666.0</ele><time>2026-04-19T12:48:03.008Z</time></trkpt><trkpt lat="44.429049840066625" lon="9.85372101796815"><ele>666.25</ele><time>2026-04-19T12:48:04.008Z</time></trkpt><trkpt lat="44.429000026846175" lon="9.85386430087591"><ele>666.5</ele><time>2026-04-19T12:48:05.008Z</time></trkpt><trkpt lat="44.42898068337311" lon="9.854005625338717"><ele>666.75</ele><time>2026-04-19T12:48:06.008Z</time></trkpt><trkpt lat="44.4289726772087" lon="9.854161119409572"><ele>667.0</ele><time>2026-04-19T12:48:07.008Z</time></trkpt><trkpt lat="44.42902745123688" lon="9.854315787228105"><ele>671.75</ele><time>2026-04-19T12:48:08.008Z</time></trkpt><trkpt lat="44.42909887600526" lon="9.854462674330351"><ele>676.5</ele><time>2026-04-19T12:48:09.008Z</time></trkpt><trkpt lat="44.42915906592555" lon="9.854580471313136"><ele>681.25</ele><time>2026-04-19T12:48:10.008Z</time></trkpt><trkpt lat="44.42923620904369" lon="9.854654129738472"><ele>686.0</ele><time>2026-04-19T12:48:11.008Z</time></trkpt><trkpt lat="44.429374667654095" lon="9.854618789465517"><ele>686.0</ele><time>2026-04-19T12:48:12.008Z</time></trkpt><trkpt lat="44.42949502938603" lon="9.854609277240138"><ele>686.0</ele><time>2026-04-19T12:48:13.008Z</time></trkpt><trkpt lat="44.429608747132384" lon="9.854640276142481"><ele>686.0</ele><time>2026-04-19T12:48:14.008Z</time></trkpt><trkpt lat="44.42967656815796" lon="9.854759739796352"><ele>686.0</ele><time>2026-04-19T12:48:15.008Z</time></trkpt><trkpt lat="44.42972990068904" lon="9.854891486887004"><ele>688.25</ele><time>2026-04-19T12:48:16.008Z</time></trkpt><trkpt lat="44.429792503721075" lon="9.855040994471304"><ele>690.5</ele><time>2026-04-19T12:48:17.008Z</time></trkpt><trkpt lat="44.42987275708008" lon="9.855194471720921"><ele>692.75</ele><time>2026-04-19T12:48:18.008Z</time></trkpt><trkpt lat="44.42995251952803" lon="9.855284254822728"><ele>695.0</ele><time>2026-04-19T12:48:19.008Z</time></trkpt><trkpt lat="44.43006619404813" lon="9.855310255368678"><ele>695.0</ele><time>2026-04-19T12:48:20.008Z</time></trkpt><trkpt lat="44.430171638526296" lon="9.855296363497393"><ele>695.0</ele><time>2026-04-19T12:48:21.008Z</time></trkpt><trkpt lat="44.43025900842581" lon="9.855248777562615"><ele>695.0</ele><time>2026-04-19T12:48:22.008Z</time></trkpt><trkpt lat="44.43038970178956" lon="9.855180673540223"><ele>695.0</ele><time>2026-04-19T12:48:23.008Z</time></trkpt><trkpt lat="44.43053286133136" lon="9.855111086717882"><ele>688.0</ele><time>2026-04-19T12:48:24.008Z</time></trkpt><trkpt lat="44.43066738345693" lon="9.855044160867418"><ele>681.0</ele><time>2026-04-19T12:48:25.008Z</time></trkpt><trkpt lat="44.430786498752376" lon="9.854989205165646"><ele>674.0</ele><time>2026-04-19T12:48:26.008Z</time></trkpt><trkpt lat="44.430893204099995" lon="9.854991631082251"><ele>667.0</ele><time>2026-04-19T12:48:27.008Z</time></trkpt><trkpt lat="44.43098783476965" lon="9.855038006584378"><ele>670.8</ele><time>2026-04-19T12:48:28.008Z</time></trkpt><trkpt lat="44.43107404450826" lon="9.855131084719256"><ele>674.6</ele><time>2026-04-19T12:48:29.008Z</time></trkpt><trkpt lat="44.43114762874425" lon="9.855256680178659"><ele>678.4</ele><time>2026-04-19T12:48:30.008Z</time></trkpt><trkpt lat="44.4312370168126" lon="9.85538313078056"><ele>682.1999999999999</ele><time>2026-04-19T12:48:31.008Z</time></trkpt><trkpt lat="44.43132466957581" lon="9.855437804404891"><ele>686.0</ele><time>2026-04-19T12:48:32.008Z</time></trkpt><trkpt lat="44.431458583147304" lon="9.855438152496179"><ele>686.6666666666666</ele><time>2026-04-19T12:48:34.008Z</time></trkpt><trkpt lat="44.43157029080225" lon="9.855313652784744"><ele>687.3333333333334</ele><time>2026-04-19T12:48:35.008Z</time></trkpt><trkpt lat="44.43165770536849" lon="9.85515823328356"><ele>688.0</ele><time>2026-04-19T12:48:36.008Z</time></trkpt><trkpt lat="44.43178443532236" lon="9.854984442890629"><ele>690.6666666666667</ele><time>2026-04-19T12:48:37.008Z</time></trkpt><trkpt lat="44.43193706765383" lon="9.854814870087596"><ele>693.3333333333334</ele><time>2026-04-19T12:48:38.008Z</time></trkpt><trkpt lat="44.43205417807013" lon="9.854641079903853"><ele>696.0</ele><time>2026-04-19T12:48:39.008Z</time></trkpt><trkpt lat="44.43216227090434" lon="9.85447133807591"><ele>696.0</ele><time>2026-04-19T12:48:40.008Z</time></trkpt><trkpt lat="44.43226134893724" lon="9.854316379287777"><ele>696.0</ele><time>2026-04-19T12:48:41.008Z</time></trkpt><trkpt lat="44.43234533827562" lon="9.85416560386973"><ele>696.0</ele><time>2026-04-19T12:48:42.008Z</time></trkpt><trkpt lat="44.43240567570762" lon="9.854004910257546"><ele>696.0</ele><time>2026-04-19T12:48:43.008Z</time></trkpt><trkpt lat="44.43246466218082" lon="9.853879105881301"><ele>693.5999999999999</ele><time>2026-04-19T12:48:44.008Z</time></trkpt><trkpt lat="44.43254274675502" lon="9.853785575252443"><ele>691.2</ele><time>2026-04-19T12:48:45.008Z</time></trkpt><trkpt lat="44.432640753371544" lon="9.85375553558995"><ele>688.8</ele><time>2026-04-19T12:48:46.008Z</time></trkpt><trkpt lat="44.43275484225371" lon="9.853739311096817"><ele>686.4000000000001</ele><time>2026-04-19T12:48:47.008Z</time></trkpt><trkpt lat="44.43285374452623" lon="9.853678980678078"><ele>684.0</ele><time>2026-04-19T12:48:48.008Z</time></trkpt><trkpt lat="44.43294198191353" lon="9.853577579050112"><ele>685.25</ele><time>2026-04-19T12:48:49.008Z</time></trkpt><trkpt lat="44.43301227566839" lon="9.853436438456008"><ele>686.5</ele><time>2026-04-19T12:48:50.008Z</time></trkpt><trkpt lat="44.43305390066229" lon="9.853265367727026"><ele>687.75</ele><time>2026-04-19T12:48:51.008Z</time></trkpt><trkpt lat="44.43307961554083" lon="9.853086691246112"><ele>689.0</ele><time>2026-04-19T12:48:52.008Z</time></trkpt><trkpt lat="44.433122340730904" lon="9.852969403187268"><ele>689.0</ele><time>2026-04-19T12:48:53.008Z</time></trkpt><trkpt lat="44.43317793945794" lon="9.852897762496083"><ele>689.0</ele><time>2026-04-19T12:48:54.008Z</time></trkpt><trkpt lat="44.43326295784656" lon="9.852882364416438"><ele>689.0</ele><time>2026-04-19T12:48:55.008Z</time></trkpt><trkpt lat="44.43336293111424" lon="9.852927031216788"><ele>689.0</ele><time>2026-04-19T12:48:56.008Z</time></trkpt><trkpt lat="44.433463425313235" lon="9.853002179013085"><ele>689.0</ele><time>2026-04-19T12:48:57.008Z</time></trkpt><trkpt lat="44.43356247901683" lon="9.853055609604528"><ele>689.0</ele><time>2026-04-19T12:48:58.008Z</time></trkpt><trkpt lat="44.43367937885389" lon="9.853070502010228"><ele>689.0</ele><time>2026-04-19T12:48:59.008Z</time></trkpt><trkpt lat="44.43379120117634" lon="9.853074076920418"><ele>689.0</ele><time>2026-04-19T12:49:00.008Z</time></trkpt><trkpt lat="44.433926302121826" lon="9.853087472964921"><ele>689.0</ele><time>2026-04-19T12:49:01.008Z</time></trkpt><trkpt lat="44.434056558047665" lon="9.85314893096343"><ele>687.5</ele><time>2026-04-19T12:49:02.008Z</time></trkpt><trkpt lat="44.434170725921064" lon="9.853249608269177"><ele>686.0</ele><time>2026-04-19T12:49:03.008Z</time></trkpt><trkpt lat="44.43428139828578" lon="9.853379454333297"><ele>684.5</ele><time>2026-04-19T12:49:04.008Z</time></trkpt><trkpt lat="44.434400776266635" lon="9.853516469175863"><ele>683.0</ele><time>2026-04-19T12:49:05.008Z</time></trkpt><trkpt lat="44.4345260272374" lon="9.853656149209053"><ele>684.3333333333333</ele><time>2026-04-19T12:49:06.008Z</time></trkpt><trkpt lat="44.434645835416894" lon="9.853809206864906"><ele>685.6666666666666</ele><time>2026-04-19T12:49:07.008Z</time></trkpt><trkpt lat="44.43475376972466" lon="9.853978318156111"><ele>687.0</ele><time>2026-04-19T12:49:08.008Z</time></trkpt><trkpt lat="44.434822071157114" lon="9.854191011790544"><ele>693.75</ele><time>2026-04-19T12:49:09.008Z</time></trkpt><trkpt lat="44.4349251537161" lon="9.854352240205953"><ele>700.5</ele><time>2026-04-19T12:49:10.008Z</time></trkpt><trkpt lat="44.435020272232734" lon="9.85450476781459"><ele>707.25</ele><time>2026-04-19T12:49:11.008Z</time></trkpt><trkpt lat="44.43512065585855" lon="9.854629586592422"><ele>714.0</ele><time>2026-04-19T12:49:12.008Z</time></trkpt><trkpt lat="44.43520922113069" lon="9.854748400659947"><ele>714.0</ele><time>2026-04-19T12:49:13.008Z</time></trkpt><trkpt lat="44.43527260532371" lon="9.854885400509145"><ele>714.0</ele><time>2026-04-19T12:49:14.008Z</time></trkpt><trkpt lat="44.43531525597847" lon="9.855069154238901"><ele>714.0</ele><time>2026-04-19T12:49:15.008Z</time></trkpt><trkpt lat="44.4353574481031" lon="9.85529388771333"><ele>714.0</ele><time>2026-04-19T12:49:16.008Z</time></trkpt><trkpt lat="44.43539096131454" lon="9.855507703408596"><ele>711.6</ele><time>2026-04-19T12:49:17.008Z</time></trkpt><trkpt lat="44.435434898997336" lon="9.855692136532697"><ele>709.2</ele><time>2026-04-19T12:49:18.008Z</time></trkpt><trkpt lat="44.435471473492974" lon="9.855849165382452"><ele>706.8000000000001</ele><time>2026-04-19T12:49:19.008Z</time></trkpt><trkpt lat="44.43551615494006" lon="9.855969351904713"><ele>704.4000000000001</ele><time>2026-04-19T12:49:20.008Z</time></trkpt><trkpt lat="44.435587122076306" lon="9.85605523301571"><ele>702.0</ele><time>2026-04-19T12:49:21.008Z</time></trkpt><trkpt lat="44.435680957878844" lon="9.856100795851708"><ele>702.0</ele><time>2026-04-19T12:49:22.008Z</time></trkpt><trkpt lat="44.43578326295144" lon="9.856086239094722"><ele>702.0</ele><time>2026-04-19T12:49:23.009Z</time></trkpt><trkpt lat="44.43588813872772" lon="9.856014742791876"><ele>702.0</ele><time>2026-04-19T12:49:24.009Z</time></trkpt><trkpt lat="44.435998368869036" lon="9.855929569125038"><ele>702.0</ele><time>2026-04-19T12:49:25.009Z</time></trkpt><trkpt lat="44.436120536695974" lon="9.855825396748218"><ele>702.0</ele><time>2026-04-19T12:49:26.009Z</time></trkpt><trkpt lat="44.43624682338815" lon="9.85569383345696"><ele>702.0</ele><time>2026-04-19T12:49:27.009Z</time></trkpt><trkpt lat="44.43637326016021" lon="9.85554749787551"><ele>702.0</ele><time>2026-04-19T12:49:28.009Z</time></trkpt><trkpt lat="44.436478541149924" lon="9.855427490276348"><ele>705.5</ele><time>2026-04-19T12:49:29.009Z</time></trkpt><trkpt lat="44.43656968209058" lon="9.855313890589112"><ele>709.0</ele><time>2026-04-19T12:49:30.009Z</time></trkpt><trkpt lat="44.436661601708145" lon="9.855235933498987"><ele>712.5</ele><time>2026-04-19T12:49:31.009Z</time></trkpt><trkpt lat="44.43677371449933" lon="9.855196646236108"><ele>716.0</ele><time>2026-04-19T12:49:32.009Z</time></trkpt><trkpt lat="44.436888623144455" lon="9.855204416888583"><ele>716.0</ele><time>2026-04-19T12:49:33.009Z</time></trkpt><trkpt lat="44.437022418488326" lon="9.855232638249479"><ele>716.0</ele><time>2026-04-19T12:49:34.009Z</time></trkpt><trkpt lat="44.43715080396434" lon="9.855264524860484"><ele>716.0</ele><time>2026-04-19T12:49:35.009Z</time></trkpt><trkpt lat="44.437293262221566" lon="9.855272228842715"><ele>716.0</ele><time>2026-04-19T12:49:36.009Z</time></trkpt><trkpt lat="44.437466650151435" lon="9.855275341424756"><ele>720.3333333333333</ele><time>2026-04-19T12:49:37.009Z</time></trkpt><trkpt lat="44.43765287433876" lon="9.85523382751581"><ele>724.6666666666666</ele><time>2026-04-19T12:49:38.009Z</time></trkpt><trkpt lat="44.43783815136285" lon="9.855159090607925"><ele>729.0</ele><time>2026-04-19T12:49:39.009Z</time></trkpt><trkpt lat="44.43801767832353" lon="9.855075153201064"><ele>720.3333333333334</ele><time>2026-04-19T12:49:40.009Z</time></trkpt><trkpt lat="44.438188121513214" lon="9.85497853265907"><ele>711.6666666666667</ele><time>2026-04-19T12:49:41.009Z</time></trkpt><trkpt lat="44.43835026171005" lon="9.854901700388483"><ele>703.0</ele><time>2026-04-19T12:49:42.009Z</time></trkpt><trkpt lat="44.43850092039077" lon="9.854838443302775"><ele>703.0</ele><time>2026-04-19T12:49:43.009Z</time></trkpt><trkpt lat="44.43864195242772" lon="9.85482692651034"><ele>703.0</ele><time>2026-04-19T12:49:44.009Z</time></trkpt><trkpt lat="44.43876362897198" lon="9.854825247472426"><ele>703.0</ele><time>2026-04-19T12:49:45.009Z</time></trkpt><trkpt lat="44.438855701495356" lon="9.854788514547774"><ele>703.0</ele><time>2026-04-19T12:49:46.009Z</time></trkpt><trkpt lat="44.43891496154161" lon="9.854671522481127"><ele>703.0</ele><time>2026-04-19T12:49:47.009Z</time></trkpt><trkpt lat="44.438974882115325" lon="9.85453453253753"><ele>703.0</ele><time>2026-04-19T12:49:48.009Z</time></trkpt><trkpt lat="44.439018168769756" lon="9.854344531980626"><ele>703.0</ele><time>2026-04-19T12:49:49.009Z</time></trkpt><trkpt lat="44.43903466244076" lon="9.854140573327392"><ele>703.0</ele><time>2026-04-19T12:49:50.009Z</time></trkpt><trkpt lat="44.439038981410164" lon="9.853911092693265"><ele>703.0</ele><time>2026-04-19T12:49:51.009Z</time></trkpt><trkpt lat="44.43906274188397" lon="9.853699077507104"><ele>703.0</ele><time>2026-04-19T12:49:52.009Z</time></trkpt><trkpt lat="44.43909608940046" lon="9.853532901572713"><ele>703.0</ele><time>2026-04-19T12:49:53.009Z</time></trkpt><trkpt lat="44.43914920727856" lon="9.853422063141906"><ele>703.0</ele><time>2026-04-19T12:49:54.009Z</time></trkpt><trkpt lat="44.439229104250344" lon="9.85335219189335"><ele>699.5</ele><time>2026-04-19T12:49:55.009Z</time></trkpt><trkpt lat="44.439320700706745" lon="9.853287118638244"><ele>696.0</ele><time>2026-04-19T12:49:56.009Z</time></trkpt><trkpt lat="44.439450379410864" lon="9.853293165756178"><ele>692.5</ele><time>2026-04-19T12:49:57.009Z</time></trkpt><trkpt lat="44.43959105922794" lon="9.853334952901813"><ele>689.0</ele><time>2026-04-19T12:49:58.009Z</time></trkpt><trkpt lat="44.43974362672297" lon="9.853389027873934"><ele>689.0</ele><time>2026-04-19T12:49:59.009Z</time></trkpt><trkpt lat="44.43987718944529" lon="9.853423729686531"><ele>689.0</ele><time>2026-04-19T12:50:00.009Z</time></trkpt><trkpt lat="44.43999334083037" lon="9.85348059617307"><ele>689.0</ele><time>2026-04-19T12:50:01.009Z</time></trkpt><trkpt lat="44.44011096487108" lon="9.85356830199242"><ele>689.0</ele><time>2026-04-19T12:50:02.009Z</time></trkpt><trkpt lat="44.44021847982218" lon="9.853679338375528"><ele>688.5</ele><time>2026-04-19T12:50:03.009Z</time></trkpt><trkpt lat="44.44032048390341" lon="9.853809011403412"><ele>688.0</ele><time>2026-04-19T12:50:04.009Z</time></trkpt><trkpt lat="44.44042523726584" lon="9.853961731479554"><ele>687.5</ele><time>2026-04-19T12:50:05.009Z</time></trkpt><trkpt lat="44.44054316746145" lon="9.854099362523305"><ele>687.0</ele><time>2026-04-19T12:50:06.009Z</time></trkpt><trkpt lat="44.44064555428702" lon="9.854238975386206"><ele>693.25</ele><time>2026-04-19T12:50:07.009Z</time></trkpt><trkpt lat="44.440740834866666" lon="9.854375706130119"><ele>699.5</ele><time>2026-04-19T12:50:08.009Z</time></trkpt><trkpt lat="44.44079261729351" lon="9.854535651121331"><ele>705.75</ele><time>2026-04-19T12:50:09.009Z</time></trkpt><trkpt lat="44.44084740058321" lon="9.854731754512985"><ele>712.0</ele><time>2026-04-19T12:50:10.009Z</time></trkpt><trkpt lat="44.44088572479271" lon="9.854935080783145"><ele>721.0</ele><time>2026-04-19T12:50:11.009Z</time></trkpt><trkpt lat="44.44094465396712" lon="9.85514020297841"><ele>730.0</ele><time>2026-04-19T12:50:12.009Z</time></trkpt><trkpt lat="44.44103102208387" lon="9.85531162259651"><ele>739.0</ele><time>2026-04-19T12:50:13.009Z</time></trkpt><trkpt lat="44.441150240836606" lon="9.855465623902912"><ele>739.0</ele><time>2026-04-19T12:50:14.009Z</time></trkpt><trkpt lat="44.44126857386989" lon="9.855646715457206"><ele>739.0</ele><time>2026-04-19T12:50:15.009Z</time></trkpt><trkpt lat="44.44136991748771" lon="9.855812227757365"><ele>739.0</ele><time>2026-04-19T12:50:16.009Z</time></trkpt><trkpt lat="44.441447683746134" lon="9.855988595649507"><ele>733.0</ele><time>2026-04-19T12:50:17.009Z</time></trkpt><trkpt lat="44.44150792265595" lon="9.85617254563695"><ele>727.0</ele><time>2026-04-19T12:50:18.009Z</time></trkpt><trkpt lat="44.441569579329666" lon="9.856356927636003"><ele>721.0</ele><time>2026-04-19T12:50:19.009Z</time></trkpt><trkpt lat="44.44164278266674" lon="9.856499809882607"><ele>715.0</ele><time>2026-04-19T12:50:20.009Z</time></trkpt><trkpt lat="44.44171006184901" lon="9.856626898561588"><ele>715.0</ele><time>2026-04-19T12:50:21.009Z</time></trkpt><trkpt lat="44.441789923573005" lon="9.85672243012959"><ele>715.0</ele><time>2026-04-19T12:50:22.009Z</time></trkpt><trkpt lat="44.44189170833681" lon="9.856780877000801"><ele>715.0</ele><time>2026-04-19T12:50:23.009Z</time></trkpt><trkpt lat="44.44201222036723" lon="9.856805736271221"><ele>715.0</ele><time>2026-04-19T12:50:24.009Z</time></trkpt><trkpt lat="44.442151036561754" lon="9.856869705669313"><ele>714.8</ele><time>2026-04-19T12:50:25.009Z</time></trkpt><trkpt lat="44.44223598038814" lon="9.85693989350874"><ele>714.6</ele><time>2026-04-19T12:50:25.974Z</time></trkpt><trkpt lat="44.44230629917245" lon="9.857035552942833"><ele>714.4000000000001</ele><time>2026-04-19T12:50:26.974Z</time></trkpt><trkpt lat="44.44233669034724" lon="9.857163014215267"><ele>714.2</ele><time>2026-04-19T12:50:27.974Z</time></trkpt><trkpt lat="44.442354762638985" lon="9.857308331972208"><ele>714.0</ele><time>2026-04-19T12:50:28.974Z</time></trkpt><trkpt lat="44.44237396287902" lon="9.857466886850203"><ele>714.0</ele><time>2026-04-19T12:50:29.974Z</time></trkpt><trkpt lat="44.442416595039894" lon="9.857561253653394"><ele>714.0</ele><time>2026-04-19T12:50:30.974Z</time></trkpt><trkpt lat="44.442486174382545" lon="9.85767221633501"><ele>714.0</ele><time>2026-04-19T12:50:32.974Z</time></trkpt><trkpt lat="44.44255919828283" lon="9.857671809521161"><ele>714.0</ele><time>2026-04-19T12:50:33.974Z</time></trkpt><trkpt lat="44.442653503318745" lon="9.857617364054583"><ele>714.0</ele><time>2026-04-19T12:50:34.974Z</time></trkpt><trkpt lat="44.44272010566453" lon="9.857497104907589"><ele>714.0</ele><time>2026-04-19T12:50:35.974Z</time></trkpt><trkpt lat="44.44278323468804" lon="9.857401910496796"><ele>714.0</ele><time>2026-04-19T12:50:36.974Z</time></trkpt><trkpt lat="44.44286351900173" lon="9.85734978691432"><ele>714.0</ele><time>2026-04-19T12:50:37.974Z</time></trkpt><trkpt lat="44.44297308852954" lon="9.857360135670394"><ele>714.0</ele><time>2026-04-19T12:50:38.974Z</time></trkpt><trkpt lat="44.44310323763519" lon="9.857366460757607"><ele>714.0</ele><time>2026-04-19T12:50:39.974Z</time></trkpt><trkpt lat="44.44321874444225" lon="9.857398123572453"><ele>714.25</ele><time>2026-04-19T12:50:40.974Z</time></trkpt><trkpt lat="44.44332298939139" lon="9.857412730565938"><ele>714.5</ele><time>2026-04-19T12:50:41.974Z</time></trkpt><trkpt lat="44.44344177823625" lon="9.857431565487918"><ele>714.75</ele><time>2026-04-19T12:50:42.974Z</time></trkpt><trkpt lat="44.44357151808663" lon="9.857453083132787"><ele>715.0</ele><time>2026-04-19T12:50:43.974Z</time></trkpt><trkpt lat="44.44368225026846" lon="9.857545867716272"><ele>719.6</ele><time>2026-04-19T12:50:44.974Z</time></trkpt><trkpt lat="44.44377304051334" lon="9.857663776495356"><ele>724.2</ele><time>2026-04-19T12:50:45.974Z</time></trkpt><trkpt lat="44.443846128674956" lon="9.85776440315679"><ele>728.8</ele><time>2026-04-19T12:50:46.974Z</time></trkpt><trkpt lat="44.44390558826909" lon="9.85782445344902"><ele>733.4</ele><time>2026-04-19T12:50:47.974Z</time></trkpt><trkpt lat="44.44400627377338" lon="9.857844436770998"><ele>738.0</ele><time>2026-04-19T12:50:49.974Z</time></trkpt><trkpt lat="44.444093079798186" lon="9.85778009193479"><ele>738.0</ele><time>2026-04-19T12:50:50.974Z</time></trkpt><trkpt lat="44.44415715770645" lon="9.857668830696314"><ele>738.0</ele><time>2026-04-19T12:50:51.974Z</time></trkpt><trkpt lat="44.44415604971116" lon="9.857514854650159"><ele>738.0</ele><time>2026-04-19T12:50:52.974Z</time></trkpt><trkpt lat="44.444099808792004" lon="9.857381656252619"><ele>738.0</ele><time>2026-04-19T12:50:53.974Z</time></trkpt><trkpt lat="44.44405817290655" lon="9.857250365301537"><ele>738.0</ele><time>2026-04-19T12:50:54.974Z</time></trkpt><trkpt lat="44.44397236529251" lon="9.857089660276948"><ele>732.3333333333334</ele><time>2026-04-19T12:50:55.974Z</time></trkpt><trkpt lat="44.44386412465461" lon="9.856911106231726"><ele>726.6666666666667</ele><time>2026-04-19T12:50:56.974Z</time></trkpt><trkpt lat="44.44375960344819" lon="9.856760880163504"><ele>721.0</ele><time>2026-04-19T12:50:57.974Z</time></trkpt><trkpt lat="44.44367331331227" lon="9.856603918142378"><ele>717.0</ele><time>2026-04-19T12:50:58.974Z</time></trkpt><trkpt lat="44.443547266624556" lon="9.856505738238434"><ele>713.0</ele><time>2026-04-19T12:50:59.974Z</time></trkpt><trkpt lat="44.44340924057437" lon="9.856407929433255"><ele>709.0</ele><time>2026-04-19T12:51:00.974Z</time></trkpt><trkpt lat="44.44330463965235" lon="9.856289648527863"><ele>705.0</ele><time>2026-04-19T12:51:01.974Z</time></trkpt><trkpt lat="44.44322131298507" lon="9.85617442488978"><ele>705.0</ele><time>2026-04-19T12:51:02.974Z</time></trkpt><trkpt lat="44.443182081422705" lon="9.856055887262833"><ele>705.0</ele><time>2026-04-19T12:51:03.974Z</time></trkpt><trkpt lat="44.44315789636735" lon="9.855893663767471"><ele>705.0</ele><time>2026-04-19T12:51:04.974Z</time></trkpt><trkpt lat="44.443082799152045" lon="9.855723396920316"><ele>705.0</ele><time>2026-04-19T12:51:05.974Z</time></trkpt><trkpt lat="44.44298123589059" lon="9.855607457029915"><ele>702.2</ele><time>2026-04-19T12:51:06.974Z</time></trkpt><trkpt lat="44.44291479138036" lon="9.855498533346235"><ele>699.4</ele><time>2026-04-19T12:51:07.974Z</time></trkpt><trkpt lat="44.44288116640955" lon="9.85538781631542"><ele>696.5999999999999</ele><time>2026-04-19T12:51:08.974Z</time></trkpt><trkpt lat="44.44288872322271" lon="9.855238048906317"><ele>693.8</ele><time>2026-04-19T12:51:09.974Z</time></trkpt><trkpt lat="44.442886335634306" lon="9.85502648406757"><ele>691.0</ele><time>2026-04-19T12:51:10.974Z</time></trkpt><trkpt lat="44.442885746685484" lon="9.854800639197178"><ele>691.0</ele><time>2026-04-19T12:51:11.973Z</time></trkpt><trkpt lat="44.44288577622028" lon="9.85456386614138"><ele>691.0</ele><time>2026-04-19T12:51:12.972Z</time></trkpt><trkpt lat="44.442871275404706" lon="9.854340942258734"><ele>691.0</ele><time>2026-04-19T12:51:13.972Z</time></trkpt><trkpt lat="44.442885477465786" lon="9.854145613777614"><ele>692.75</ele><time>2026-04-19T12:51:14.972Z</time></trkpt><trkpt lat="44.44287649804246" lon="9.853983352048617"><ele>694.5</ele><time>2026-04-19T12:51:15.972Z</time></trkpt><trkpt lat="44.442843090495984" lon="9.85384122145535"><ele>696.25</ele><time>2026-04-19T12:51:16.972Z</time></trkpt><trkpt lat="44.442751689416234" lon="9.853718892314351"><ele>698.0</ele><time>2026-04-19T12:51:17.973Z</time></trkpt><trkpt lat="44.442656703026216" lon="9.85360021548362"><ele>701.75</ele><time>2026-04-19T12:51:18.972Z</time></trkpt><trkpt lat="44.44255771377586" lon="9.853447331409626"><ele>705.5</ele><time>2026-04-19T12:51:19.972Z</time></trkpt><trkpt lat="44.44249996322979" lon="9.853298208218835"><ele>709.25</ele><time>2026-04-19T12:51:20.973Z</time></trkpt><trkpt lat="44.442496443209045" lon="9.853150822616378"><ele>713.0</ele><time>2026-04-19T12:51:21.972Z</time></trkpt><trkpt lat="44.44252768039278" lon="9.853014247496574"><ele>713.0</ele><time>2026-04-19T12:51:22.972Z</time></trkpt><trkpt lat="44.44257745364145" lon="9.85290296931549"><ele>713.0</ele><time>2026-04-19T12:51:23.972Z</time></trkpt><trkpt lat="44.44265859130481" lon="9.852801529875022"><ele>713.0</ele><time>2026-04-19T12:51:24.972Z</time></trkpt><trkpt lat="44.4427716830792" lon="9.852674249430953"><ele>713.0</ele><time>2026-04-19T12:51:25.972Z</time></trkpt><trkpt lat="44.442899935307175" lon="9.852545449715764"><ele>719.5</ele><time>2026-04-19T12:51:26.972Z</time></trkpt><trkpt lat="44.44301540401677" lon="9.852445848314044"><ele>726.0</ele><time>2026-04-19T12:51:27.972Z</time></trkpt><trkpt lat="44.44311392950551" lon="9.852328072072098"><ele>732.5</ele><time>2026-04-19T12:51:28.972Z</time></trkpt><trkpt lat="44.443192602299575" lon="9.85222950044124"><ele>739.0</ele><time>2026-04-19T12:51:29.972Z</time></trkpt><trkpt lat="44.44325614002167" lon="9.85211677371415"><ele>739.0</ele><time>2026-04-19T12:51:30.972Z</time></trkpt><trkpt lat="44.44328231821435" lon="9.851965113228388"><ele>739.0</ele><time>2026-04-19T12:51:31.972Z</time></trkpt><trkpt lat="44.443272324821166" lon="9.851809440671289"><ele>739.0</ele><time>2026-04-19T12:51:32.972Z</time></trkpt><trkpt lat="44.44322883162761" lon="9.851659490989261"><ele>739.0</ele><time>2026-04-19T12:51:33.972Z</time></trkpt><trkpt lat="44.443156526497155" lon="9.851525039416332"><ele>737.25</ele><time>2026-04-19T12:51:34.972Z</time></trkpt><trkpt lat="44.44305991876705" lon="9.851419564396064"><ele>735.5</ele><time>2026-04-19T12:51:35.972Z</time></trkpt><trkpt lat="44.442943356039" lon="9.851329151615442"><ele>733.75</ele><time>2026-04-19T12:51:36.972Z</time></trkpt><trkpt lat="44.44281446034034" lon="9.851218190880145"><ele>732.0</ele><time>2026-04-19T12:51:37.972Z</time></trkpt><trkpt lat="44.4426729711084" lon="9.851075129311102"><ele>733.0</ele><time>2026-04-19T12:51:38.972Z</time></trkpt><trkpt lat="44.44253367922566" lon="9.85096125033064"><ele>734.0</ele><time>2026-04-19T12:51:39.972Z</time></trkpt><trkpt lat="44.442379067940486" lon="9.850870540843054"><ele>735.0</ele><time>2026-04-19T12:51:40.972Z</time></trkpt><trkpt lat="44.44223142527658" lon="9.85078521179774"><ele>726.2</ele><time>2026-04-19T12:51:41.972Z</time></trkpt><trkpt lat="44.44211907962172" lon="9.850678232790811"><ele>717.4</ele><time>2026-04-19T12:51:42.972Z</time></trkpt><trkpt lat="44.44204821971358" lon="9.850569437718692"><ele>708.5999999999999</ele><time>2026-04-19T12:51:43.972Z</time></trkpt><trkpt lat="44.442013083272265" lon="9.850455355417784"><ele>699.8</ele><time>2026-04-19T12:51:44.972Z</time></trkpt><trkpt lat="44.44202607539523" lon="9.85031005885841"><ele>691.0</ele><time>2026-04-19T12:51:45.972Z</time></trkpt><trkpt lat="44.442068751548895" lon="9.850126482803475"><ele>692.0</ele><time>2026-04-19T12:51:46.972Z</time></trkpt><trkpt lat="44.44211195177203" lon="9.849935744737504"><ele>693.0</ele><time>2026-04-19T12:51:47.972Z</time></trkpt><trkpt lat="44.44216939760165" lon="9.849756472896322"><ele>694.0</ele><time>2026-04-19T12:51:48.972Z</time></trkpt><trkpt lat="44.44224622316278" lon="9.849598348847895"><ele>695.0</ele><time>2026-04-19T12:51:49.972Z</time></trkpt><trkpt lat="44.442355317076796" lon="9.849459106106181"><ele>701.25</ele><time>2026-04-19T12:51:50.972Z</time></trkpt><trkpt lat="44.44247337942744" lon="9.849336619480429"><ele>707.5</ele><time>2026-04-19T12:51:51.972Z</time></trkpt><trkpt lat="44.44260179113931" lon="9.849254327125328"><ele>713.75</ele><time>2026-04-19T12:51:52.972Z</time></trkpt><trkpt lat="44.442733080779306" lon="9.84917145103081"><ele>720.0</ele><time>2026-04-19T12:51:53.972Z</time></trkpt><trkpt lat="44.442862491453866" lon="9.849070765956073"><ele>729.6666666666666</ele><time>2026-04-19T12:51:54.972Z</time></trkpt><trkpt lat="44.442982323088536" lon="9.848955894063318"><ele>739.3333333333333</ele><time>2026-04-19T12:51:55.972Z</time></trkpt><trkpt lat="44.44310279189845" lon="9.848831783624137"><ele>749.0</ele><time>2026-04-19T12:51:56.972Z</time></trkpt><trkpt lat="44.44321612059245" lon="9.848683345363403"><ele>749.0</ele><time>2026-04-19T12:51:57.972Z</time></trkpt><trkpt lat="44.44332702029962" lon="9.848546362642546"><ele>749.0</ele><time>2026-04-19T12:51:58.972Z</time></trkpt><trkpt lat="44.443428497755185" lon="9.848438489079442"><ele>749.0</ele><time>2026-04-19T12:51:59.972Z</time></trkpt><trkpt lat="44.44353867638082" lon="9.848355191310787"><ele>749.0</ele><time>2026-04-19T12:52:00.972Z</time></trkpt><trkpt lat="44.44366161434723" lon="9.848320200592635"><ele>749.6</ele><time>2026-04-19T12:52:01.972Z</time></trkpt><trkpt lat="44.44378200987106" lon="9.84829405920217"><ele>750.2</ele><time>2026-04-19T12:52:02.972Z</time></trkpt><trkpt lat="44.44388944258691" lon="9.848285712539072"><ele>750.8000000000001</ele><time>2026-04-19T12:52:03.972Z</time></trkpt><trkpt lat="44.44396912498328" lon="9.848228892802057"><ele>751.4000000000001</ele><time>2026-04-19T12:52:04.972Z</time></trkpt><trkpt lat="44.44401699396304" lon="9.848130250446932"><ele>752.0</ele><time>2026-04-19T12:52:05.972Z</time></trkpt><trkpt lat="44.444029433199866" lon="9.847969030945109"><ele>752.0</ele><time>2026-04-19T12:52:06.972Z</time></trkpt><trkpt lat="44.44404613047378" lon="9.847785806132197"><ele>752.0</ele><time>2026-04-19T12:52:07.972Z</time></trkpt><trkpt lat="44.44407422700179" lon="9.84760651702124"><ele>752.0</ele><time>2026-04-19T12:52:08.972Z</time></trkpt><trkpt lat="44.444122635054576" lon="9.847456006750008"><ele>752.0</ele><time>2026-04-19T12:52:09.972Z</time></trkpt><trkpt lat="44.444196231811645" lon="9.847318467620255"><ele>754.5</ele><time>2026-04-19T12:52:10.972Z</time></trkpt><trkpt lat="44.44431523312491" lon="9.847203345130215"><ele>757.0</ele><time>2026-04-19T12:52:11.972Z</time></trkpt><trkpt lat="44.44443586049085" lon="9.847094693593387"><ele>759.5</ele><time>2026-04-19T12:52:12.972Z</time></trkpt><trkpt lat="44.44457612019814" lon="9.847010273810287"><ele>762.0</ele><time>2026-04-19T12:52:13.972Z</time></trkpt><trkpt lat="44.44472986954178" lon="9.846956575402961"><ele>762.0</ele><time>2026-04-19T12:52:14.972Z</time></trkpt><trkpt lat="44.44488713236977" lon="9.846915036320063"><ele>762.0</ele><time>2026-04-19T12:52:15.972Z</time></trkpt><trkpt lat="44.44504206453693" lon="9.846860148845934"><ele>762.0</ele><time>2026-04-19T12:52:16.972Z</time></trkpt><trkpt lat="44.44517013018928" lon="9.846808336381322"><ele>761.75</ele><time>2026-04-19T12:52:17.972Z</time></trkpt><trkpt lat="44.445289177076866" lon="9.846743480791615"><ele>761.5</ele><time>2026-04-19T12:52:18.972Z</time></trkpt><trkpt lat="44.44539408657353" lon="9.846618534300328"><ele>761.25</ele><time>2026-04-19T12:52:19.972Z</time></trkpt><trkpt lat="44.44549065474136" lon="9.84643990773257"><ele>761.0</ele><time>2026-04-19T12:52:20.972Z</time></trkpt><trkpt lat="44.445587604670166" lon="9.846250012783951"><ele>761.0</ele><time>2026-04-19T12:52:21.972Z</time></trkpt><trkpt lat="44.44569708775572" lon="9.846061679135993"><ele>761.0</ele><time>2026-04-19T12:52:22.972Z</time></trkpt><trkpt lat="44.44580378045502" lon="9.845891060244872"><ele>761.0</ele><time>2026-04-19T12:52:23.972Z</time></trkpt><trkpt lat="44.445903136133154" lon="9.845767085152687"><ele>758.0</ele><time>2026-04-19T12:52:24.972Z</time></trkpt><trkpt lat="44.445997972100216" lon="9.845690191492867"><ele>755.0</ele><time>2026-04-19T12:52:25.972Z</time></trkpt><trkpt lat="44.44609214679013" lon="9.84567159674987"><ele>752.0</ele><time>2026-04-19T12:52:26.972Z</time></trkpt><trkpt lat="44.44618924821695" lon="9.845702125439535"><ele>749.0</ele><time>2026-04-19T12:52:27.972Z</time></trkpt><trkpt lat="44.44625806158443" lon="9.84579532860286"><ele>746.0</ele><time>2026-04-19T12:52:28.972Z</time></trkpt><trkpt lat="44.446269472055185" lon="9.845949368820895"><ele>750.25</ele><time>2026-04-19T12:52:29.972Z</time></trkpt><trkpt lat="44.4463124929357" lon="9.846101012554662"><ele>754.5</ele><time>2026-04-19T12:52:30.973Z</time></trkpt><trkpt lat="44.44636025185599" lon="9.846274522613506"><ele>758.75</ele><time>2026-04-19T12:52:31.973Z</time></trkpt><trkpt lat="44.44642044628428" lon="9.84642781014695"><ele>763.0</ele><time>2026-04-19T12:52:32.973Z</time></trkpt><trkpt lat="44.44647313699529" lon="9.846582884812982"><ele>763.0</ele><time>2026-04-19T12:52:33.973Z</time></trkpt><trkpt lat="44.44653627910679" lon="9.846718858451505"><ele>763.0</ele><time>2026-04-19T12:52:34.973Z</time></trkpt><trkpt lat="44.446611594400245" lon="9.846807114173087"><ele>763.0</ele><time>2026-04-19T12:52:35.973Z</time></trkpt><trkpt lat="44.44669826450916" lon="9.846844681740613"><ele>763.0</ele><time>2026-04-19T12:52:36.973Z</time></trkpt><trkpt lat="44.44680782770983" lon="9.846814697890471"><ele>763.0</ele><time>2026-04-19T12:52:37.973Z</time></trkpt><trkpt lat="44.446893402966" lon="9.846711522475932"><ele>763.0</ele><time>2026-04-19T12:52:38.973Z</time></trkpt><trkpt lat="44.44695937646161" lon="9.846545897653304"><ele>763.0</ele><time>2026-04-19T12:52:39.973Z</time></trkpt><trkpt lat="44.44701857894389" lon="9.846378684800344"><ele>763.0</ele><time>2026-04-19T12:52:40.973Z</time></trkpt><trkpt lat="44.44710794448985" lon="9.84619505892181"><ele>763.0</ele><time>2026-04-19T12:52:41.973Z</time></trkpt><trkpt lat="44.44717125160324" lon="9.846033069986797"><ele>763.0</ele><time>2026-04-19T12:52:42.973Z</time></trkpt><trkpt lat="44.44722185575158" lon="9.845932104647988"><ele>763.0</ele><time>2026-04-19T12:52:43.973Z</time></trkpt><trkpt lat="44.44728701940237" lon="9.845906529112595"><ele>763.0</ele><time>2026-04-19T12:52:44.973Z</time></trkpt><trkpt lat="44.447368770990614" lon="9.84593288827443"><ele>763.0</ele><time>2026-04-19T12:52:45.973Z</time></trkpt><trkpt lat="44.44744442769164" lon="9.846033877332035"><ele>763.0</ele><time>2026-04-19T12:52:46.973Z</time></trkpt><trkpt lat="44.44745381721095" lon="9.846186148228785"><ele>763.0</ele><time>2026-04-19T12:52:47.973Z</time></trkpt><trkpt lat="44.44740695841079" lon="9.846307916626786"><ele>763.0</ele><time>2026-04-19T12:52:48.973Z</time></trkpt><trkpt lat="44.447390969162775" lon="9.846474631058745"><ele>763.0</ele><time>2026-04-19T12:52:49.973Z</time></trkpt><trkpt lat="44.44739465020171" lon="9.846652956539554"><ele>763.0</ele><time>2026-04-19T12:52:50.973Z</time></trkpt><trkpt lat="44.447445851353166" lon="9.846818318050172"><ele>766.0</ele><time>2026-04-19T12:52:51.973Z</time></trkpt><trkpt lat="44.44749869916657" lon="9.846982239873173"><ele>769.0</ele><time>2026-04-19T12:52:52.973Z</time></trkpt><trkpt lat="44.44749811421911" lon="9.847157235749895"><ele>772.0</ele><time>2026-04-19T12:52:53.973Z</time></trkpt><trkpt lat="44.44748608310737" lon="9.847325881896163"><ele>775.0</ele><time>2026-04-19T12:52:54.973Z</time></trkpt><trkpt lat="44.447512090543825" lon="9.847496939244373"><ele>780.25</ele><time>2026-04-19T12:52:55.973Z</time></trkpt><trkpt lat="44.447560731626744" lon="9.847670179631242"><ele>785.5</ele><time>2026-04-19T12:52:56.973Z</time></trkpt><trkpt lat="44.447622790720196" lon="9.847844060921409"><ele>790.75</ele><time>2026-04-19T12:52:57.973Z</time></trkpt><trkpt lat="44.4476779560111" lon="9.848013840695911"><ele>796.0</ele><time>2026-04-19T12:52:58.973Z</time></trkpt><trkpt lat="44.44771916383086" lon="9.848176876284944"><ele>796.0</ele><time>2026-04-19T12:52:59.973Z</time></trkpt><trkpt lat="44.447730295306826" lon="9.848326747103343"><ele>796.0</ele><time>2026-04-19T12:53:00.973Z</time></trkpt><trkpt lat="44.447728219838034" lon="9.848481931036588"><ele>796.0</ele><time>2026-04-19T12:53:01.973Z</time></trkpt><trkpt lat="44.447717853477876" lon="9.848645367879842"><ele>796.0</ele><time>2026-04-19T12:53:02.973Z</time></trkpt><trkpt lat="44.447722339066736" lon="9.84880635299517"><ele>799.0</ele><time>2026-04-19T12:53:03.973Z</time></trkpt><trkpt lat="44.44776611447193" lon="9.848956561146379"><ele>802.0</ele><time>2026-04-19T12:53:04.973Z</time></trkpt><trkpt lat="44.44778623953886" lon="9.849107437863653"><ele>805.0</ele><time>2026-04-19T12:53:05.973Z</time></trkpt><trkpt lat="44.447796363912964" lon="9.849258704282613"><ele>808.0</ele><time>2026-04-19T12:53:06.973Z</time></trkpt><trkpt lat="44.44781370666188" lon="9.849392181320235"><ele>811.0</ele><time>2026-04-19T12:53:07.973Z</time></trkpt><trkpt lat="44.44787497997408" lon="9.849516285001155"><ele>803.0</ele><time>2026-04-19T12:53:08.973Z</time></trkpt><trkpt lat="44.44798458758828" lon="9.849608852617054"><ele>795.0</ele><time>2026-04-19T12:53:09.973Z</time></trkpt><trkpt lat="44.448055175675805" lon="9.849762935104806"><ele>787.0</ele><time>2026-04-19T12:53:10.973Z</time></trkpt><trkpt lat="44.448145386856574" lon="9.849883665720663"><ele>779.0</ele><time>2026-04-19T12:53:11.973Z</time></trkpt><trkpt lat="44.448261513307806" lon="9.849947020003254"><ele>779.0</ele><time>2026-04-19T12:53:12.973Z</time></trkpt><trkpt lat="44.448348299971265" lon="9.850067292067157"><ele>779.0</ele><time>2026-04-19T12:53:13.973Z</time></trkpt><trkpt lat="44.44841785374117" lon="9.850190938493935"><ele>779.0</ele><time>2026-04-19T12:53:14.973Z</time></trkpt><trkpt lat="44.44848318758023" lon="9.850341901812499"><ele>779.0</ele><time>2026-04-19T12:53:15.973Z</time></trkpt><trkpt lat="44.448546243751935" lon="9.85048188565097"><ele>779.8000000000001</ele><time>2026-04-19T12:53:16.973Z</time></trkpt><trkpt lat="44.44861537184997" lon="9.850605733796133"><ele>780.6</ele><time>2026-04-19T12:53:17.97Z</time></trkpt><trkpt lat="44.44871799849257" lon="9.850664852693434"><ele>781.4</ele><time>2026-04-19T12:53:18.97Z</time></trkpt><trkpt lat="44.44880355349449" lon="9.850696789452591"><ele>782.2</ele><time>2026-04-19T12:53:19.97Z</time></trkpt><trkpt lat="44.448922438349946" lon="9.85069414986903"><ele>783.0</ele><time>2026-04-19T12:53:20.971Z</time></trkpt><trkpt lat="44.44903971750638" lon="9.850680738410121"><ele>783.0</ele><time>2026-04-19T12:53:21.971Z</time></trkpt><trkpt lat="44.44913066659969" lon="9.850689590138145"><ele>783.0</ele><time>2026-04-19T12:53:22.971Z</time></trkpt><trkpt lat="44.44919019579783" lon="9.85073171529939"><ele>783.0</ele><time>2026-04-19T12:53:23.971Z</time></trkpt><trkpt lat="44.44921823950347" lon="9.850864571778992"><ele>783.0</ele><time>2026-04-19T12:53:24.971Z</time></trkpt><trkpt lat="44.449215074638" lon="9.850997049753515"><ele>783.0</ele><time>2026-04-19T12:53:25.971Z</time></trkpt><trkpt lat="44.44919662085717" lon="9.851138460151144"><ele>786.8</ele><time>2026-04-19T12:53:26.971Z</time></trkpt><trkpt lat="44.44919274172218" lon="9.851280103276538"><ele>790.5999999999999</ele><time>2026-04-19T12:53:27.97Z</time></trkpt><trkpt lat="44.44921837387316" lon="9.85140990207745"><ele>794.4000000000001</ele><time>2026-04-19T12:53:28.97Z</time></trkpt><trkpt lat="44.449258443730656" lon="9.851554359764975"><ele>798.2</ele><time>2026-04-19T12:53:29.971Z</time></trkpt><trkpt lat="44.449335924652324" lon="9.85169767123871"><ele>802.0</ele><time>2026-04-19T12:53:30.971Z</time></trkpt><trkpt lat="44.4494193351402" lon="9.851844304189543"><ele>802.5</ele><time>2026-04-19T12:53:31.971Z</time></trkpt><trkpt lat="44.44947488906642" lon="9.85200230733305"><ele>803.0</ele><time>2026-04-19T12:53:32.971Z</time></trkpt><trkpt lat="44.44954943883373" lon="9.852134985940172"><ele>803.5</ele><time>2026-04-19T12:53:33.971Z</time></trkpt><trkpt lat="44.449625049460366" lon="9.852248399040494"><ele>804.0</ele><time>2026-04-19T12:53:34.971Z</time></trkpt><trkpt lat="44.44968317739836" lon="9.852369034205468"><ele>804.0</ele><time>2026-04-19T12:53:35.971Z</time></trkpt><trkpt lat="44.4497802005351" lon="9.85240405961037"><ele>804.0</ele><time>2026-04-19T12:53:36.971Z</time></trkpt><trkpt lat="44.44990486777227" lon="9.85243501724997"><ele>804.0</ele><time>2026-04-19T12:53:37.971Z</time></trkpt><trkpt lat="44.450053800793015" lon="9.852465680701284"><ele>804.0</ele><time>2026-04-19T12:53:38.971Z</time></trkpt><trkpt lat="44.45019611320886" lon="9.852497905959705"><ele>804.0</ele><time>2026-04-19T12:53:39.971Z</time></trkpt><trkpt lat="44.45034641921226" lon="9.852542583384853"><ele>804.0</ele><time>2026-04-19T12:53:40.971Z</time></trkpt><trkpt lat="44.45048376388183" lon="9.85261757191165"><ele>804.0</ele><time>2026-04-19T12:53:41.971Z</time></trkpt><trkpt lat="44.45059270739189" lon="9.85269463260878"><ele>804.0</ele><time>2026-04-19T12:53:42.971Z</time></trkpt><trkpt lat="44.45069035503614" lon="9.852762508738806"><ele>809.0</ele><time>2026-04-19T12:53:43.971Z</time></trkpt><trkpt lat="44.45079956767673" lon="9.852806086501156"><ele>814.0</ele><time>2026-04-19T12:53:44.971Z</time></trkpt><trkpt lat="44.450910357538525" lon="9.85280290186978"><ele>819.0</ele><time>2026-04-19T12:53:45.971Z</time></trkpt><trkpt lat="44.451019330390544" lon="9.852806346901113"><ele>824.0</ele><time>2026-04-19T12:53:46.971Z</time></trkpt><trkpt lat="44.45110682664189" lon="9.852769135460411"><ele>829.0</ele><time>2026-04-19T12:53:47.971Z</time></trkpt><trkpt lat="44.451192816424516" lon="9.85269266352609"><ele>824.0</ele><time>2026-04-19T12:53:48.971Z</time></trkpt><trkpt lat="44.4512277799144" lon="9.852568402385536"><ele>819.0</ele><time>2026-04-19T12:53:49.971Z</time></trkpt><trkpt lat="44.451213220286164" lon="9.85244173025817"><ele>814.0</ele><time>2026-04-19T12:53:50.971Z</time></trkpt><trkpt lat="44.45118156949955" lon="9.852315806949147"><ele>809.0</ele><time>2026-04-19T12:53:51.971Z</time></trkpt><trkpt lat="44.451094194920884" lon="9.852144573266738"><ele>804.0</ele><time>2026-04-19T12:53:52.971Z</time></trkpt><trkpt lat="44.450996984508144" lon="9.851970282438119"><ele>804.0</ele><time>2026-04-19T12:53:53.971Z</time></trkpt><trkpt lat="44.45090672407983" lon="9.851827593623321"><ele>804.0</ele><time>2026-04-19T12:53:54.971Z</time></trkpt><trkpt lat="44.45080330694339" lon="9.85170884707113"><ele>804.0</ele><time>2026-04-19T12:53:55.971Z</time></trkpt><trkpt lat="44.45070417519256" lon="9.851619066424353"><ele>804.0</ele><time>2026-04-19T12:53:56.971Z</time></trkpt><trkpt lat="44.45062423388444" lon="9.85153689373402"><ele>804.75</ele><time>2026-04-19T12:53:57.971Z</time></trkpt><trkpt lat="44.45056714413781" lon="9.851418903555823"><ele>805.5</ele><time>2026-04-19T12:53:58.971Z</time></trkpt><trkpt lat="44.45053489684282" lon="9.851268462258567"><ele>806.25</ele><time>2026-04-19T12:53:59.971Z</time></trkpt><trkpt lat="44.45051213050086" lon="9.851102326229107"><ele>807.0</ele><time>2026-04-19T12:54:00.971Z</time></trkpt><trkpt lat="44.45051304968918" lon="9.850883232520399"><ele>809.75</ele><time>2026-04-19T12:54:01.971Z</time></trkpt><trkpt lat="44.45051098771752" lon="9.850672449261673"><ele>812.5</ele><time>2026-04-19T12:54:02.971Z</time></trkpt><trkpt lat="44.450498657507175" lon="9.850489402167375"><ele>815.25</ele><time>2026-04-19T12:54:03.971Z</time></trkpt><trkpt lat="44.45044198062224" lon="9.85028569706526"><ele>818.0</ele><time>2026-04-19T12:54:04.971Z</time></trkpt><trkpt lat="44.45037344398913" lon="9.850099371547465"><ele>810.25</ele><time>2026-04-19T12:54:05.971Z</time></trkpt><trkpt lat="44.450298356635386" lon="9.849926962457198"><ele>802.5</ele><time>2026-04-19T12:54:06.971Z</time></trkpt><trkpt lat="44.45024141192217" lon="9.8497679626779"><ele>794.75</ele><time>2026-04-19T12:54:07.971Z</time></trkpt><trkpt lat="44.450223312518546" lon="9.849612555105207"><ele>787.0</ele><time>2026-04-19T12:54:08.971Z</time></trkpt><trkpt lat="44.45023534356605" lon="9.849458466811091"><ele>787.0</ele><time>2026-04-19T12:54:09.971Z</time></trkpt><trkpt lat="44.450281449920574" lon="9.849321750622067"><ele>787.0</ele><time>2026-04-19T12:54:10.971Z</time></trkpt><trkpt lat="44.450345759221776" lon="9.849218092085387"><ele>787.0</ele><time>2026-04-19T12:54:11.971Z</time></trkpt><trkpt lat="44.45045012864471" lon="9.849140929188943"><ele>787.0</ele><time>2026-04-19T12:54:12.971Z</time></trkpt><trkpt lat="44.450572737835294" lon="9.84910884314123"><ele>787.0</ele><time>2026-04-19T12:54:13.971Z</time></trkpt><trkpt lat="44.4507020491407" lon="9.849123330802257"><ele>793.75</ele><time>2026-04-19T12:54:14.971Z</time></trkpt><trkpt lat="44.45083003913192" lon="9.849178262891465"><ele>800.5</ele><time>2026-04-19T12:54:15.971Z</time></trkpt><trkpt lat="44.450957163565086" lon="9.849216654129235"><ele>807.25</ele><time>2026-04-19T12:54:16.971Z</time></trkpt><trkpt lat="44.45108562574898" lon="9.84925525856903"><ele>814.0</ele><time>2026-04-19T12:54:17.971Z</time></trkpt><trkpt lat="44.45122402724905" lon="9.849268950844262"><ele>817.5</ele><time>2026-04-19T12:54:18.971Z</time></trkpt><trkpt lat="44.45137017313921" lon="9.849267254845339"><ele>821.0</ele><time>2026-04-19T12:54:19.971Z</time></trkpt><trkpt lat="44.45150499676266" lon="9.849271811542067"><ele>824.5</ele><time>2026-04-19T12:54:20.971Z</time></trkpt><trkpt lat="44.45162850167322" lon="9.849264099417043"><ele>828.0</ele><time>2026-04-19T12:54:21.971Z</time></trkpt><trkpt lat="44.45172647727838" lon="9.84923483569174"><ele>828.0</ele><time>2026-04-19T12:54:22.971Z</time></trkpt><trkpt lat="44.45181022601965" lon="9.84915041497088"><ele>828.0</ele><time>2026-04-19T12:54:23.971Z</time></trkpt><trkpt lat="44.45187322498624" lon="9.849024967128322"><ele>828.0</ele><time>2026-04-19T12:54:24.971Z</time></trkpt><trkpt lat="44.451922964288066" lon="9.84889547440913"><ele>828.0</ele><time>2026-04-19T12:54:25.971Z</time></trkpt><trkpt lat="44.45195962936716" lon="9.848740280616365"><ele>828.0</ele><time>2026-04-19T12:54:26.971Z</time></trkpt><trkpt lat="44.4519644742652" lon="9.848569160042128"><ele>826.0</ele><time>2026-04-19T12:54:27.971Z</time></trkpt><trkpt lat="44.45195553947054" lon="9.848386908849468"><ele>824.0</ele><time>2026-04-19T12:54:28.971Z</time></trkpt><trkpt lat="44.45191503146196" lon="9.848189362803417"><ele>822.0</ele><time>2026-04-19T12:54:29.971Z</time></trkpt><trkpt lat="44.451861102295965" lon="9.848011878437768"><ele>820.0</ele><time>2026-04-19T12:54:30.971Z</time></trkpt><trkpt lat="44.45177945178986" lon="9.847822496506916"><ele>820.0</ele><time>2026-04-19T12:54:31.971Z</time></trkpt><trkpt lat="44.451695794385714" lon="9.84763210985802"><ele>820.0</ele><time>2026-04-19T12:54:32.971Z</time></trkpt><trkpt lat="44.45161337557283" lon="9.84743517034162"><ele>820.0</ele><time>2026-04-19T12:54:33.971Z</time></trkpt><trkpt lat="44.45153026187446" lon="9.847239584922606"><ele>821.75</ele><time>2026-04-19T12:54:34.971Z</time></trkpt><trkpt lat="44.45145209090389" lon="9.847057138738752"><ele>823.5</ele><time>2026-04-19T12:54:35.971Z</time></trkpt><trkpt lat="44.45138930747182" lon="9.846882369930453"><ele>825.25</ele><time>2026-04-19T12:54:36.971Z</time></trkpt><trkpt lat="44.451344497574546" lon="9.846723265243002"><ele>827.0</ele><time>2026-04-19T12:54:37.971Z</time></trkpt><trkpt lat="44.45133360378385" lon="9.846566829312744"><ele>828.5</ele><time>2026-04-19T12:54:38.971Z</time></trkpt><trkpt lat="44.45137098667555" lon="9.846392766970657"><ele>830.0</ele><time>2026-04-19T12:54:39.971Z</time></trkpt><trkpt lat="44.451428500097045" lon="9.846213980904167"><ele>831.5</ele><time>2026-04-19T12:54:40.971Z</time></trkpt><trkpt lat="44.45148220926923" lon="9.84603673562123"><ele>833.0</ele><time>2026-04-19T12:54:41.971Z</time></trkpt><trkpt lat="44.45151706306579" lon="9.845880699492183"><ele>833.0</ele><time>2026-04-19T12:54:42.971Z</time></trkpt><trkpt lat="44.451553037308486" lon="9.845757318570431"><ele>833.0</ele><time>2026-04-19T12:54:43.971Z</time></trkpt><trkpt lat="44.45161469041411" lon="9.845668916055036"><ele>833.0</ele><time>2026-04-19T12:54:44.971Z</time></trkpt><trkpt lat="44.45170645128424" lon="9.845635488683328"><ele>833.0</ele><time>2026-04-19T12:54:45.971Z</time></trkpt><trkpt lat="44.4518071764795" lon="9.845647976361645"><ele>833.0</ele><time>2026-04-19T12:54:46.971Z</time></trkpt><trkpt lat="44.45190135866184" lon="9.84571148428407"><ele>833.0</ele><time>2026-04-19T12:54:47.971Z</time></trkpt><trkpt lat="44.452001705039166" lon="9.845808970909728"><ele>833.0</ele><time>2026-04-19T12:54:48.971Z</time></trkpt><trkpt lat="44.45209503780247" lon="9.845920489654546"><ele>833.0</ele><time>2026-04-19T12:54:49.971Z</time></trkpt><trkpt lat="44.45219906222472" lon="9.846030206239607"><ele>833.0</ele><time>2026-04-19T12:54:50.971Z</time></trkpt><trkpt lat="44.45228222992651" lon="9.846151868931942"><ele>836.0</ele><time>2026-04-19T12:54:51.971Z</time></trkpt><trkpt lat="44.45235850238278" lon="9.846274918186868"><ele>839.0</ele><time>2026-04-19T12:54:52.971Z</time></trkpt><trkpt lat="44.452430827733814" lon="9.846378292408472"><ele>842.0</ele><time>2026-04-19T12:54:53.971Z</time></trkpt><trkpt lat="44.4525083066637" lon="9.846458081890358"><ele>845.0</ele><time>2026-04-19T12:54:54.971Z</time></trkpt><trkpt lat="44.45260447886035" lon="9.846485810713796"><ele>848.0</ele><time>2026-04-19T12:54:55.971Z</time></trkpt><trkpt lat="44.45271936908391" lon="9.846469177353557"><ele>848.0</ele><time>2026-04-19T12:54:56.971Z</time></trkpt><trkpt lat="44.4528367956036" lon="9.84645984730875"><ele>848.0</ele><time>2026-04-19T12:54:57.971Z</time></trkpt><trkpt lat="44.452978067158206" lon="9.846450105789675"><ele>848.0</ele><time>2026-04-19T12:54:58.971Z</time></trkpt><trkpt lat="44.45312258394457" lon="9.846435596494503"><ele>848.0</ele><time>2026-04-19T12:54:59.971Z</time></trkpt><trkpt lat="44.45325983845467" lon="9.846423101026033"><ele>849.5</ele><time>2026-04-19T12:55:00.971Z</time></trkpt><trkpt lat="44.45337153486951" lon="9.846401109917919"><ele>851.0</ele><time>2026-04-19T12:55:01.971Z</time></trkpt><trkpt lat="44.453493653757455" lon="9.846318083194529"><ele>852.5</ele><time>2026-04-19T12:55:02.971Z</time></trkpt><trkpt lat="44.45362781596469" lon="9.846205482745466"><ele>854.0</ele><time>2026-04-19T12:55:03.971Z</time></trkpt><trkpt lat="44.453768052369824" lon="9.84608494572072"><ele>854.0</ele><time>2026-04-19T12:55:04.971Z</time></trkpt><trkpt lat="44.45390783651198" lon="9.845964001129094"><ele>854.0</ele><time>2026-04-19T12:55:05.971Z</time></trkpt><trkpt lat="44.45405859022594" lon="9.845835703700697"><ele>854.0</ele><time>2026-04-19T12:55:06.971Z</time></trkpt><trkpt lat="44.4542180528113" lon="9.84573970393962"><ele>854.0</ele><time>2026-04-19T12:55:07.971Z</time></trkpt><trkpt lat="44.454372111887885" lon="9.84565519526203"><ele>854.0</ele><time>2026-04-19T12:55:08.971Z</time></trkpt><trkpt lat="44.454511928699944" lon="9.84561268013623"><ele>854.0</ele><time>2026-04-19T12:55:09.972Z</time></trkpt><trkpt lat="44.45464075873065" lon="9.845590152962599"><ele>854.0</ele><time>2026-04-19T12:55:10.972Z</time></trkpt><trkpt lat="44.45475681952591" lon="9.845550273814691"><ele>854.75</ele><time>2026-04-19T12:55:11.972Z</time></trkpt><trkpt lat="44.45484494325582" lon="9.845474704145321"><ele>855.5</ele><time>2026-04-19T12:55:12.972Z</time></trkpt><trkpt lat="44.45492551925266" lon="9.845325302044124"><ele>856.25</ele><time>2026-04-19T12:55:13.972Z</time></trkpt><trkpt lat="44.45498682977177" lon="9.845129768868835"><ele>857.0</ele><time>2026-04-19T12:55:14.972Z</time></trkpt><trkpt lat="44.45504158350999" lon="9.84494947572057"><ele>857.0</ele><time>2026-04-19T12:55:15.972Z</time></trkpt><trkpt lat="44.45509587420465" lon="9.844800292285091"><ele>857.0</ele><time>2026-04-19T12:55:16.972Z</time></trkpt><trkpt lat="44.45516369936558" lon="9.84472073573455"><ele>857.0</ele><time>2026-04-19T12:55:17.972Z</time></trkpt><trkpt lat="44.45525119695973" lon="9.844666606022036"><ele>857.0</ele><time>2026-04-19T12:55:18.972Z</time></trkpt><trkpt lat="44.455354844292074" lon="9.844654115881147"><ele>857.0</ele><time>2026-04-19T12:55:19.972Z</time></trkpt><trkpt lat="44.45545398404405" lon="9.84464235092273"><ele>860.25</ele><time>2026-04-19T12:55:20.972Z</time></trkpt><trkpt lat="44.45559118611234" lon="9.84465284755491"><ele>863.5</ele><time>2026-04-19T12:55:21.972Z</time></trkpt><trkpt lat="44.4557428093845" lon="9.844682175152242"><ele>866.75</ele><time>2026-04-19T12:55:22.972Z</time></trkpt><trkpt lat="44.45589954420233" lon="9.844694675471887"><ele>870.0</ele><time>2026-04-19T12:55:23.969Z</time></trkpt><trkpt lat="44.45605729948574" lon="9.84470412110409"><ele>870.0</ele><time>2026-04-19T12:55:24.969Z</time></trkpt><trkpt lat="44.45620806526474" lon="9.84471706307097"><ele>870.0</ele><time>2026-04-19T12:55:25.969Z</time></trkpt><trkpt lat="44.456350053659925" lon="9.844738504243814"><ele>870.0</ele><time>2026-04-19T12:55:26.969Z</time></trkpt><trkpt lat="44.45647217602349" lon="9.844746902584042"><ele>870.0</ele><time>2026-04-19T12:55:27.969Z</time></trkpt><trkpt lat="44.45658558069402" lon="9.844711514703613"><ele>872.75</ele><time>2026-04-19T12:55:28.969Z</time></trkpt><trkpt lat="44.45670497618051" lon="9.844649182879373"><ele>875.5</ele><time>2026-04-19T12:55:29.968Z</time></trkpt><trkpt lat="44.456807342367604" lon="9.84453936755797"><ele>878.25</ele><time>2026-04-19T12:55:30.969Z</time></trkpt><trkpt lat="44.456909059120164" lon="9.844390095871008"><ele>881.0</ele><time>2026-04-19T12:55:31.969Z</time></trkpt><trkpt lat="44.45700019573071" lon="9.844266729963616"><ele>878.1999999999999</ele><time>2026-04-19T12:55:32.968Z</time></trkpt><trkpt lat="44.45709404676008" lon="9.844190471363206"><ele>875.3999999999999</ele><time>2026-04-19T12:55:33.969Z</time></trkpt><trkpt lat="44.45718695875091" lon="9.844183652462892"><ele>872.6</ele><time>2026-04-19T12:55:34.969Z</time></trkpt><trkpt lat="44.457289267206086" lon="9.844241373264987"><ele>869.8</ele><time>2026-04-19T12:55:35.968Z</time></trkpt><trkpt lat="44.457393880656795" lon="9.844311086754988"><ele>867.0</ele><time>2026-04-19T12:55:36.968Z</time></trkpt><trkpt lat="44.45750116576832" lon="9.84431634214954"><ele>867.0</ele><time>2026-04-19T12:55:37.968Z</time></trkpt><trkpt lat="44.457614602330075" lon="9.844286044266854"><ele>867.0</ele><time>2026-04-19T12:55:38.968Z</time></trkpt><trkpt lat="44.45771530386308" lon="9.844224766691234"><ele>867.0</ele><time>2026-04-19T12:55:39.968Z</time></trkpt><trkpt lat="44.45779411857468" lon="9.844158411560937"><ele>867.0</ele><time>2026-04-19T12:55:40.968Z</time></trkpt><trkpt lat="44.4578668529985" lon="9.844059430835578"><ele>867.0</ele><time>2026-04-19T12:55:41.968Z</time></trkpt><trkpt lat="44.4579021331591" lon="9.843903387283127"><ele>867.0</ele><time>2026-04-19T12:55:42.968Z</time></trkpt><trkpt lat="44.45789540566331" lon="9.843740782211448"><ele>867.0</ele><time>2026-04-19T12:55:43.968Z</time></trkpt><trkpt lat="44.45787889832917" lon="9.843565748788249"><ele>867.0</ele><time>2026-04-19T12:55:44.968Z</time></trkpt><trkpt lat="44.4578438327042" lon="9.843358226412185"><ele>867.0</ele><time>2026-04-19T12:55:45.968Z</time></trkpt><trkpt lat="44.457803675291586" lon="9.843102463861953"><ele>863.6666666666667</ele><time>2026-04-19T12:55:46.968Z</time></trkpt><trkpt lat="44.45776513245667" lon="9.842853343298678"><ele>860.3333333333334</ele><time>2026-04-19T12:55:47.968Z</time></trkpt><trkpt lat="44.457745342832496" lon="9.842602356458741"><ele>857.0</ele><time>2026-04-19T12:55:48.968Z</time></trkpt><trkpt lat="44.4577210502255" lon="9.84234007878698"><ele>857.0</ele><time>2026-04-19T12:55:49.968Z</time></trkpt><trkpt lat="44.45769023529586" lon="9.84206314505865"><ele>857.0</ele><time>2026-04-19T12:55:50.968Z</time></trkpt><trkpt lat="44.457663874676165" lon="9.841781818014539"><ele>857.0</ele><time>2026-04-19T12:55:51.968Z</time></trkpt><trkpt lat="44.45764094270068" lon="9.841515702557057"><ele>859.0</ele><time>2026-04-19T12:55:52.968Z</time></trkpt><trkpt lat="44.457620300509426" lon="9.841264701780194"><ele>861.0</ele><time>2026-04-19T12:55:53.968Z</time></trkpt><trkpt lat="44.457609374203855" lon="9.841045528850469"><ele>863.0</ele><time>2026-04-19T12:55:54.968Z</time></trkpt><trkpt lat="44.45762692000723" lon="9.840855299669196"><ele>864.75</ele><time>2026-04-19T12:55:55.968Z</time></trkpt><trkpt lat="44.457656550610416" lon="9.840680143631417"><ele>866.5</ele><time>2026-04-19T12:55:56.968Z</time></trkpt><trkpt lat="44.45767683218255" lon="9.840509372232244"><ele>868.25</ele><time>2026-04-19T12:55:57.968Z</time></trkpt><trkpt lat="44.45767577029993" lon="9.840350765119522"><ele>870.0</ele><time>2026-04-19T12:55:58.968Z</time></trkpt><trkpt lat="44.45763998067147" lon="9.840209724062111"><ele>873.5</ele><time>2026-04-19T12:55:59.968Z</time></trkpt><trkpt lat="44.457576435194845" lon="9.840100737093195"><ele>877.0</ele><time>2026-04-19T12:56:00.968Z</time></trkpt><trkpt lat="44.45747476805743" lon="9.84003178835871"><ele>880.5</ele><time>2026-04-19T12:56:01.968Z</time></trkpt><trkpt lat="44.45735646703346" lon="9.839957830988789"><ele>884.0</ele><time>2026-04-19T12:56:02.968Z</time></trkpt><trkpt lat="44.457215235878934" lon="9.83992439883443"><ele>878.6</ele><time>2026-04-19T12:56:03.968Z</time></trkpt><trkpt lat="44.457111866338806" lon="9.839872101243758"><ele>873.2</ele><time>2026-04-19T12:56:04.968Z</time></trkpt><trkpt lat="44.4570360173868" lon="9.83977434175891"><ele>867.8000000000001</ele><time>2026-04-19T12:56:05.968Z</time></trkpt><trkpt lat="44.45698002532319" lon="9.839651216794666"><ele>862.4000000000001</ele><time>2026-04-19T12:56:06.968Z</time></trkpt><trkpt lat="44.45697316172549" lon="9.83951302513426"><ele>857.0</ele><time>2026-04-19T12:56:07.968Z</time></trkpt><trkpt lat="44.457002192813675" lon="9.839371162490588"><ele>857.75</ele><time>2026-04-19T12:56:08.968Z</time></trkpt><trkpt lat="44.457051582542455" lon="9.839239477719053"><ele>858.5</ele><time>2026-04-19T12:56:09.968Z</time></trkpt><trkpt lat="44.457136279849884" lon="9.839115260444718"><ele>859.25</ele><time>2026-04-19T12:56:10.968Z</time></trkpt><trkpt lat="44.457241796674694" lon="9.839011031914756"><ele>860.0</ele><time>2026-04-19T12:56:11.968Z</time></trkpt><trkpt lat="44.45734615714204" lon="9.838903157208806"><ele>866.2</ele><time>2026-04-19T12:56:12.968Z</time></trkpt><trkpt lat="44.45743432093832" lon="9.83877673420276"><ele>872.4</ele><time>2026-04-19T12:56:13.968Z</time></trkpt><trkpt lat="44.457508203681556" lon="9.838640805185806"><ele>878.5999999999999</ele><time>2026-04-19T12:56:14.968Z</time></trkpt><trkpt lat="44.45758394678527" lon="9.838556934307544"><ele>884.8</ele><time>2026-04-19T12:56:15.968Z</time></trkpt><trkpt lat="44.45768561114322" lon="9.838567483867575"><ele>891.0</ele><time>2026-04-19T12:56:16.968Z</time></trkpt><trkpt lat="44.457796946208404" lon="9.838624356056645"><ele>891.0</ele><time>2026-04-19T12:56:17.968Z</time></trkpt><trkpt lat="44.45790860998119" lon="9.838716136785225"><ele>891.0</ele><time>2026-04-19T12:56:18.968Z</time></trkpt><trkpt lat="44.45801488892358" lon="9.83883600622931"><ele>891.0</ele><time>2026-04-19T12:56:19.968Z</time></trkpt><trkpt lat="44.45810279732395" lon="9.83895566007001"><ele>891.0</ele><time>2026-04-19T12:56:20.968Z</time></trkpt><trkpt lat="44.45818877264252" lon="9.83901994088549"><ele>892.0</ele><time>2026-04-19T12:56:21.968Z</time></trkpt><trkpt lat="44.45828746784655" lon="9.839040623177935"><ele>893.0</ele><time>2026-04-19T12:56:22.968Z</time></trkpt><trkpt lat="44.458410815778436" lon="9.838977278453862"><ele>894.0</ele><time>2026-04-19T12:56:23.968Z</time></trkpt><trkpt lat="44.45853895122685" lon="9.838871257485335"><ele>895.0</ele><time>2026-04-19T12:56:24.968Z</time></trkpt><trkpt lat="44.458670963236806" lon="9.83879467500931"><ele>895.75</ele><time>2026-04-19T12:56:25.969Z</time></trkpt><trkpt lat="44.458798545564676" lon="9.838787366500261"><ele>896.5</ele><time>2026-04-19T12:56:26.969Z</time></trkpt><trkpt lat="44.4589277591228" lon="9.838849740067198"><ele>897.25</ele><time>2026-04-19T12:56:27.969Z</time></trkpt><trkpt lat="44.459046047527075" lon="9.838909119007393"><ele>898.0</ele><time>2026-04-19T12:56:28.969Z</time></trkpt><trkpt lat="44.45915585800315" lon="9.838921224232214"><ele>898.0</ele><time>2026-04-19T12:56:29.969Z</time></trkpt><trkpt lat="44.459285240913246" lon="9.838859200169074"><ele>898.0</ele><time>2026-04-19T12:56:30.969Z</time></trkpt><trkpt lat="44.459420499190514" lon="9.83877266404588"><ele>898.0</ele><time>2026-04-19T12:56:31.969Z</time></trkpt><trkpt lat="44.45957732402829" lon="9.838718530173116"><ele>898.0</ele><time>2026-04-19T12:56:32.969Z</time></trkpt><trkpt lat="44.45972466018258" lon="9.838715501540042"><ele>899.8</ele><time>2026-04-19T12:56:33.969Z</time></trkpt><trkpt lat="44.459846816910456" lon="9.838729844052619"><ele>901.5999999999999</ele><time>2026-04-19T12:56:34.969Z</time></trkpt><trkpt lat="44.45993524906958" lon="9.838711813061925"><ele>903.4000000000001</ele><time>2026-04-19T12:56:35.969Z</time></trkpt><trkpt lat="44.46001203139776" lon="9.83860673913928"><ele>905.2</ele><time>2026-04-19T12:56:36.969Z</time></trkpt><trkpt lat="44.46007964110872" lon="9.838471507406737"><ele>907.0</ele><time>2026-04-19T12:56:37.969Z</time></trkpt><trkpt lat="44.46009428937683" lon="9.838306901860948"><ele>904.5</ele><time>2026-04-19T12:56:38.969Z</time></trkpt><trkpt lat="44.4600848429057" lon="9.838149886692463"><ele>902.0</ele><time>2026-04-19T12:56:39.969Z</time></trkpt><trkpt lat="44.46004283202266" lon="9.837985269429817"><ele>899.5</ele><time>2026-04-19T12:56:40.969Z</time></trkpt><trkpt lat="44.459957661067946" lon="9.837776413102299"><ele>897.0</ele><time>2026-04-19T12:56:41.969Z</time></trkpt><trkpt lat="44.4598572760004" lon="9.837541319634424"><ele>897.0</ele><time>2026-04-19T12:56:42.969Z</time></trkpt><trkpt lat="44.459764662348164" lon="9.837296575956618"><ele>897.0</ele><time>2026-04-19T12:56:43.969Z</time></trkpt><trkpt lat="44.45969015887633" lon="9.837082262405271"><ele>897.0</ele><time>2026-04-19T12:56:44.969Z</time></trkpt><trkpt lat="44.45963808227861" lon="9.83690664887304"><ele>898.2</ele><time>2026-04-19T12:56:45.969Z</time></trkpt><trkpt lat="44.45961128168953" lon="9.836759802807917"><ele>899.4000000000001</ele><time>2026-04-19T12:56:46.969Z</time></trkpt><trkpt lat="44.45962009739044" lon="9.83662633438214"><ele>900.5999999999999</ele><time>2026-04-19T12:56:47.969Z</time></trkpt><trkpt lat="44.45966659602135" lon="9.836502911815801"><ele>901.8</ele><time>2026-04-19T12:56:48.969Z</time></trkpt><trkpt lat="44.45975347000347" lon="9.83639199984402"><ele>903.0</ele><time>2026-04-19T12:56:49.969Z</time></trkpt><trkpt lat="44.45985985197356" lon="9.83630262898095"><ele>903.0</ele><time>2026-04-19T12:56:50.969Z</time></trkpt><trkpt lat="44.459955601675865" lon="9.83618147119504"><ele>903.0</ele><time>2026-04-19T12:56:51.969Z</time></trkpt><trkpt lat="44.46004487219301" lon="9.836036444540245"><ele>903.0</ele><time>2026-04-19T12:56:52.969Z</time></trkpt><trkpt lat="44.46013989093294" lon="9.835876645969716"><ele>903.0</ele><time>2026-04-19T12:56:53.969Z</time></trkpt><trkpt lat="44.46023167316773" lon="9.83574537997294"><ele>901.0</ele><time>2026-04-19T12:56:54.969Z</time></trkpt><trkpt lat="44.460309902363576" lon="9.835625966287758"><ele>899.0</ele><time>2026-04-19T12:56:55.969Z</time></trkpt><trkpt lat="44.460360293742816" lon="9.83551142299134"><ele>897.0</ele><time>2026-04-19T12:56:56.969Z</time></trkpt><trkpt lat="44.46036385927146" lon="9.835392525622414"><ele>895.0</ele><time>2026-04-19T12:56:57.969Z</time></trkpt><trkpt lat="44.46031797012359" lon="9.835255523479985"><ele>893.0</ele><time>2026-04-19T12:56:58.969Z</time></trkpt><trkpt lat="44.460237501616525" lon="9.835142484537299"><ele>895.75</ele><time>2026-04-19T12:56:59.969Z</time></trkpt><trkpt lat="44.46012744305031" lon="9.835069593228601"><ele>898.5</ele><time>2026-04-19T12:57:00.969Z</time></trkpt><trkpt lat="44.46000241390855" lon="9.835015822229147"><ele>901.25</ele><time>2026-04-19T12:57:01.969Z</time></trkpt><trkpt lat="44.45987669634872" lon="9.835000431365568"><ele>904.0</ele><time>2026-04-19T12:57:02.969Z</time></trkpt><trkpt lat="44.45974701078546" lon="9.835019987061006"><ele>903.9999999999999</ele><time>2026-04-19T12:57:03.969Z</time></trkpt><trkpt lat="44.45964762865145" lon="9.835027333567428"><ele>904.0</ele><time>2026-04-19T12:57:04.969Z</time></trkpt><trkpt lat="44.459579286427456" lon="9.83499548822137"><ele>904.0</ele><time>2026-04-19T12:57:05.969Z</time></trkpt><trkpt lat="44.45952679358385" lon="9.83491567469645"><ele>904.0</ele><time>2026-04-19T12:57:06.969Z</time></trkpt><trkpt lat="44.45949149044874" lon="9.83482398528215"><ele>903.9999999999999</ele><time>2026-04-19T12:57:07.969Z</time></trkpt><trkpt lat="44.459458335010495" lon="9.834701522979367"><ele>904.0</ele><time>2026-04-19T12:57:08.969Z</time></trkpt><trkpt lat="44.4594413672315" lon="9.83456002740594"><ele>903.5</ele><time>2026-04-19T12:57:09.969Z</time></trkpt><trkpt lat="44.4594085524439" lon="9.834397987096354"><ele>903.0</ele><time>2026-04-19T12:57:10.969Z</time></trkpt><trkpt lat="44.45935792588868" lon="9.834261292901715"><ele>902.5</ele><time>2026-04-19T12:57:11.969Z</time></trkpt><trkpt lat="44.45928945630697" lon="9.83413336156983"><ele>902.0</ele><time>2026-04-19T12:57:12.969Z</time></trkpt><trkpt lat="44.45919932382588" lon="9.834023220520963"><ele>902.0</ele><time>2026-04-19T12:57:13.969Z</time></trkpt><trkpt lat="44.45913718441413" lon="9.833928401298893"><ele>902.0</ele><time>2026-04-19T12:57:14.969Z</time></trkpt><trkpt lat="44.45913939932445" lon="9.833748608813055"><ele>902.0</ele><time>2026-04-19T12:57:16.969Z</time></trkpt><trkpt lat="44.45921464621826" lon="9.833655334775914"><ele>902.0</ele><time>2026-04-19T12:57:17.969Z</time></trkpt><trkpt lat="44.45930920929736" lon="9.833580997831712"><ele>902.0</ele><time>2026-04-19T12:57:18.969Z</time></trkpt><trkpt lat="44.45940136375225" lon="9.833509563038962"><ele>903.8</ele><time>2026-04-19T12:57:19.969Z</time></trkpt><trkpt lat="44.45946573600905" lon="9.833404298347407"><ele>905.6</ele><time>2026-04-19T12:57:20.969Z</time></trkpt><trkpt lat="44.459484616673315" lon="9.833253261196575"><ele>907.3999999999999</ele><time>2026-04-19T12:57:21.969Z</time></trkpt><trkpt lat="44.459453833544906" lon="9.83309694291468"><ele>909.1999999999999</ele><time>2026-04-19T12:57:22.969Z</time></trkpt><trkpt lat="44.45940498850208" lon="9.832961719686866"><ele>911.0</ele><time>2026-04-19T12:57:23.969Z</time></trkpt><trkpt lat="44.459320789648714" lon="9.832847788150609"><ele>911.0</ele><time>2026-04-19T12:57:24.969Z</time></trkpt><trkpt lat="44.45921712083971" lon="9.832752775262323"><ele>911.0</ele><time>2026-04-19T12:57:25.969Z</time></trkpt><trkpt lat="44.45908451616409" lon="9.832656782602827"><ele>911.0</ele><time>2026-04-19T12:57:26.969Z</time></trkpt><trkpt lat="44.45896741379903" lon="9.832552277959785"><ele>911.0</ele><time>2026-04-19T12:57:27.969Z</time></trkpt><trkpt lat="44.45886214178506" lon="9.83243061065369"><ele>911.0</ele><time>2026-04-19T12:57:28.969Z</time></trkpt><trkpt lat="44.458765336648035" lon="9.832300373322258"><ele>911.0</ele><time>2026-04-19T12:57:29.967Z</time></trkpt><trkpt lat="44.45868058665568" lon="9.83214749804493"><ele>911.0</ele><time>2026-04-19T12:57:30.967Z</time></trkpt><trkpt lat="44.45858906521551" lon="9.832007207071015"><ele>911.0</ele><time>2026-04-19T12:57:31.967Z</time></trkpt><trkpt lat="44.45849024328134" lon="9.83186976722188"><ele>915.75</ele><time>2026-04-19T12:57:32.967Z</time></trkpt><trkpt lat="44.458369519406396" lon="9.831755788663822"><ele>920.5</ele><time>2026-04-19T12:57:33.966Z</time></trkpt><trkpt lat="44.45823617299987" lon="9.831670939543777"><ele>925.25</ele><time>2026-04-19T12:57:34.966Z</time></trkpt><trkpt lat="44.4580975433886" lon="9.83158786857685"><ele>930.0</ele><time>2026-04-19T12:57:35.966Z</time></trkpt><trkpt lat="44.45796535885114" lon="9.831503465280123"><ele>928.2</ele><time>2026-04-19T12:57:36.966Z</time></trkpt><trkpt lat="44.45786505856141" lon="9.831429792982991"><ele>926.4</ele><time>2026-04-19T12:57:37.966Z</time></trkpt><trkpt lat="44.45779072458953" lon="9.831355344477947"><ele>924.5999999999999</ele><time>2026-04-19T12:57:38.967Z</time></trkpt><trkpt lat="44.4577298211374" lon="9.83125323854443"><ele>922.8</ele><time>2026-04-19T12:57:39.966Z</time></trkpt><trkpt lat="44.457692055998855" lon="9.831132454183857"><ele>921.0</ele><time>2026-04-19T12:57:40.966Z</time></trkpt><trkpt lat="44.4576958069293" lon="9.830962776951782"><ele>921.0</ele><time>2026-04-19T12:57:41.967Z</time></trkpt><trkpt lat="44.45773930414966" lon="9.830806992473155"><ele>921.0</ele><time>2026-04-19T12:57:42.966Z</time></trkpt><trkpt lat="44.45781477564362" lon="9.830677589287989"><ele>921.0</ele><time>2026-04-19T12:57:43.966Z</time></trkpt><trkpt lat="44.457896557508946" lon="9.830550039717519"><ele>921.0</ele><time>2026-04-19T12:57:44.966Z</time></trkpt><trkpt lat="44.45797194322924" lon="9.830398345587437"><ele>927.0</ele><time>2026-04-19T12:57:45.966Z</time></trkpt><trkpt lat="44.458038782076336" lon="9.830224866639576"><ele>933.0</ele><time>2026-04-19T12:57:46.966Z</time></trkpt><trkpt lat="44.458084554317225" lon="9.830038946530026"><ele>939.0</ele><time>2026-04-19T12:57:47.966Z</time></trkpt><trkpt lat="44.458107444510546" lon="9.829852936247802"><ele>945.0</ele><time>2026-04-19T12:57:48.966Z</time></trkpt><trkpt lat="44.45808460626384" lon="9.829655758693761"><ele>948.0</ele><time>2026-04-19T12:57:49.966Z</time></trkpt><trkpt lat="44.45801469105558" lon="9.829457341436362"><ele>951.0</ele><time>2026-04-19T12:57:50.966Z</time></trkpt><trkpt lat="44.457943171789196" lon="9.829257774715614"><ele>954.0</ele><time>2026-04-19T12:57:51.966Z</time></trkpt><trkpt lat="44.45786297650238" lon="9.829061563527322"><ele>947.75</ele><time>2026-04-19T12:57:52.966Z</time></trkpt><trkpt lat="44.45780609478911" lon="9.82889907406088"><ele>941.5</ele><time>2026-04-19T12:57:53.966Z</time></trkpt><trkpt lat="44.45776631950716" lon="9.82873779622232"><ele>935.25</ele><time>2026-04-19T12:57:54.966Z</time></trkpt><trkpt lat="44.457741307439036" lon="9.828578097998022"><ele>929.0</ele><time>2026-04-19T12:57:55.966Z</time></trkpt><trkpt lat="44.457735298001275" lon="9.828400488089825"><ele>929.0</ele><time>2026-04-19T12:57:56.966Z</time></trkpt><trkpt lat="44.45775063309806" lon="9.828217326670732"><ele>929.0</ele><time>2026-04-19T12:57:57.967Z</time></trkpt><trkpt lat="44.45775883079734" lon="9.828022847498685"><ele>929.0</ele><time>2026-04-19T12:57:58.967Z</time></trkpt><trkpt lat="44.45777956674545" lon="9.827837031012503"><ele>929.0</ele><time>2026-04-19T12:57:59.967Z</time></trkpt><trkpt lat="44.45780568470244" lon="9.827622361944663"><ele>929.6666666666667</ele><time>2026-04-19T12:58:00.967Z</time></trkpt><trkpt lat="44.457834558924226" lon="9.827399050509554"><ele>930.3333333333333</ele><time>2026-04-19T12:58:01.967Z</time></trkpt><trkpt lat="44.45788279661485" lon="9.827192762459493"><ele>931.0</ele><time>2026-04-19T12:58:02.967Z</time></trkpt><trkpt lat="44.45793482273719" lon="9.826983735307149"><ele>945.0</ele><time>2026-04-19T12:58:03.967Z</time></trkpt><trkpt lat="44.45796299292115" lon="9.826769961661956"><ele>959.0</ele><time>2026-04-19T12:58:04.967Z</time></trkpt><trkpt lat="44.45797542982157" lon="9.826541873275366"><ele>973.0</ele><time>2026-04-19T12:58:05.967Z</time></trkpt><trkpt lat="44.45799484632196" lon="9.826319866369218"><ele>973.0</ele><time>2026-04-19T12:58:06.967Z</time></trkpt><trkpt lat="44.45801244802911" lon="9.826103196346962"><ele>973.0</ele><time>2026-04-19T12:58:07.967Z</time></trkpt><trkpt lat="44.45802725636781" lon="9.825880496230408"><ele>973.0</ele><time>2026-04-19T12:58:08.967Z</time></trkpt><trkpt lat="44.45806074883963" lon="9.82566979434261"><ele>971.0</ele><time>2026-04-19T12:58:09.967Z</time></trkpt><trkpt lat="44.45809783844817" lon="9.82548227874422"><ele>969.0</ele><time>2026-04-19T12:58:10.967Z</time></trkpt><trkpt lat="44.458144025857045" lon="9.82530543421685"><ele>967.0</ele><time>2026-04-19T12:58:11.967Z</time></trkpt><trkpt lat="44.458191365526346" lon="9.825124903247485"><ele>965.0</ele><time>2026-04-19T12:58:12.967Z</time></trkpt><trkpt lat="44.458233498517615" lon="9.824933941957568"><ele>962.25</ele><time>2026-04-19T12:58:13.967Z</time></trkpt><trkpt lat="44.458273067119244" lon="9.824755139509417"><ele>959.5</ele><time>2026-04-19T12:58:14.967Z</time></trkpt><trkpt lat="44.45830953548122" lon="9.824593982480762"><ele>956.75</ele><time>2026-04-19T12:58:15.967Z</time></trkpt><trkpt lat="44.45833469912135" lon="9.824429234092548"><ele>954.0</ele><time>2026-04-19T12:58:16.967Z</time></trkpt><trkpt lat="44.45834690491168" lon="9.824245586589136"><ele>953.0</ele><time>2026-04-19T12:58:17.967Z</time></trkpt><trkpt lat="44.45832799917472" lon="9.82406639788571"><ele>952.0</ele><time>2026-04-19T12:58:18.967Z</time></trkpt><trkpt lat="44.45827857259778" lon="9.823889501744679"><ele>951.0</ele><time>2026-04-19T12:58:19.967Z</time></trkpt><trkpt lat="44.4582155241227" lon="9.823715310827271"><ele>950.0</ele><time>2026-04-19T12:58:20.967Z</time></trkpt><trkpt lat="44.45814858484337" lon="9.823535166182554"><ele>950.75</ele><time>2026-04-19T12:58:21.967Z</time></trkpt><trkpt lat="44.458083512324286" lon="9.823349871861613"><ele>951.5</ele><time>2026-04-19T12:58:22.967Z</time></trkpt><trkpt lat="44.45799997174023" lon="9.823176697700521"><ele>952.25</ele><time>2026-04-19T12:58:23.967Z</time></trkpt><trkpt lat="44.45794539153653" lon="9.822982316880966"><ele>953.0</ele><time>2026-04-19T12:58:24.967Z</time></trkpt><trkpt lat="44.45786672733867" lon="9.822764534765176"><ele>945.6666666666667</ele><time>2026-04-19T12:58:25.967Z</time></trkpt><trkpt lat="44.45778126025338" lon="9.822534431235423"><ele>938.3333333333333</ele><time>2026-04-19T12:58:26.967Z</time></trkpt><trkpt lat="44.457703824813265" lon="9.822314837157425"><ele>931.0</ele><time>2026-04-19T12:58:27.967Z</time></trkpt><trkpt lat="44.457634399146635" lon="9.822093618159313"><ele>931.0</ele><time>2026-04-19T12:58:28.967Z</time></trkpt><trkpt lat="44.45756125355101" lon="9.821880670418555"><ele>931.0</ele><time>2026-04-19T12:58:29.967Z</time></trkpt><trkpt lat="44.45749952265276" lon="9.821685154611291"><ele>931.0</ele><time>2026-04-19T12:58:30.967Z</time></trkpt><trkpt lat="44.457445224503026" lon="9.821512322882576"><ele>931.25</ele><time>2026-04-19T12:58:31.967Z</time></trkpt><trkpt lat="44.457413767008525" lon="9.821371932374937"><ele>931.5</ele><time>2026-04-19T12:58:32.967Z</time></trkpt><trkpt lat="44.45739825313329" lon="9.821233392316811"><ele>931.75</ele><time>2026-04-19T12:58:33.967Z</time></trkpt><trkpt lat="44.457402161711656" lon="9.821073065974197"><ele>932.0</ele><time>2026-04-19T12:58:34.967Z</time></trkpt><trkpt lat="44.4574218925432" lon="9.820874576489947"><ele>932.0</ele><time>2026-04-19T12:58:35.967Z</time></trkpt><trkpt lat="44.45743967989743" lon="9.820667816103136"><ele>932.0</ele><time>2026-04-19T12:58:36.967Z</time></trkpt><trkpt lat="44.457446127857985" lon="9.820449251910954"><ele>932.0</ele><time>2026-04-19T12:58:37.967Z</time></trkpt><trkpt lat="44.45744173645857" lon="9.820222185915839"><ele>929.6666666666667</ele><time>2026-04-19T12:58:38.967Z</time></trkpt><trkpt lat="44.45741694458485" lon="9.819995849481009"><ele>927.3333333333333</ele><time>2026-04-19T12:58:39.967Z</time></trkpt><trkpt lat="44.45738994157689" lon="9.819778163501692"><ele>925.0</ele><time>2026-04-19T12:58:40.967Z</time></trkpt><trkpt lat="44.45735543851672" lon="9.81955415719431"><ele>925.0</ele><time>2026-04-19T12:58:41.967Z</time></trkpt><trkpt lat="44.4573138147274" lon="9.819332783137835"><ele>925.0</ele><time>2026-04-19T12:58:42.967Z</time></trkpt><trkpt lat="44.45727588784865" lon="9.81911056377063"><ele>925.0</ele><time>2026-04-19T12:58:43.967Z</time></trkpt><trkpt lat="44.457226070820845" lon="9.818891412749648"><ele>925.0</ele><time>2026-04-19T12:58:44.967Z</time></trkpt><trkpt lat="44.45719036998518" lon="9.818671352244243"><ele>925.0</ele><time>2026-04-19T12:58:45.967Z</time></trkpt><trkpt lat="44.45714575933454" lon="9.818458346010924"><ele>925.0</ele><time>2026-04-19T12:58:46.967Z</time></trkpt><trkpt lat="44.45709036032499" lon="9.818261964690672"><ele>920.0</ele><time>2026-04-19T12:58:47.967Z</time></trkpt><trkpt lat="44.4570336952003" lon="9.818049831721577"><ele>915.0</ele><time>2026-04-19T12:58:48.967Z</time></trkpt><trkpt lat="44.45696853648512" lon="9.817853857755129"><ele>910.0</ele><time>2026-04-19T12:58:49.967Z</time></trkpt><trkpt lat="44.45690337756282" lon="9.817658178713206"><ele>908.0</ele><time>2026-04-19T12:58:50.967Z</time></trkpt><trkpt lat="44.45684194935186" lon="9.817462206221034"><ele>906.0</ele><time>2026-04-19T12:58:51.967Z</time></trkpt><trkpt lat="44.45678571258248" lon="9.817259005304722"><ele>904.0</ele><time>2026-04-19T12:58:52.967Z</time></trkpt><trkpt lat="44.45673764901634" lon="9.817055722800346"><ele>904.0</ele><time>2026-04-19T12:58:53.967Z</time></trkpt><trkpt lat="44.456671628421155" lon="9.816861803954476"><ele>904.0</ele><time>2026-04-19T12:58:54.967Z</time></trkpt><trkpt lat="44.45658122982559" lon="9.816677476213114"><ele>904.0</ele><time>2026-04-19T12:58:55.967Z</time></trkpt><trkpt lat="44.45650190026567" lon="9.816507404457532"><ele>904.25</ele><time>2026-04-19T12:58:56.967Z</time></trkpt><trkpt lat="44.4564206605322" lon="9.816338875438367"><ele>904.5</ele><time>2026-04-19T12:58:57.967Z</time></trkpt><trkpt lat="44.45635239500208" lon="9.816156894254188"><ele>904.75</ele><time>2026-04-19T12:58:58.967Z</time></trkpt><trkpt lat="44.456299956056654" lon="9.815963498917174"><ele>905.0</ele><time>2026-04-19T12:58:59.967Z</time></trkpt><trkpt lat="44.45625974375507" lon="9.815746273252932"><ele>904.25</ele><time>2026-04-19T12:59:00.967Z</time></trkpt><trkpt lat="44.45623631442849" lon="9.8155607123384"><ele>903.5</ele><time>2026-04-19T12:59:01.967Z</time></trkpt><trkpt lat="44.45622257479363" lon="9.815395779756996"><ele>902.75</ele><time>2026-04-19T12:59:02.967Z</time></trkpt><trkpt lat="44.4562358678764" lon="9.815225174050694"><ele>902.0</ele><time>2026-04-19T12:59:03.967Z</time></trkpt><trkpt lat="44.45629923524797" lon="9.81506166702027"><ele>907.0</ele><time>2026-04-19T12:59:04.967Z</time></trkpt><trkpt lat="44.45637045985156" lon="9.814911629560745"><ele>912.0</ele><time>2026-04-19T12:59:05.967Z</time></trkpt><trkpt lat="44.45642899204926" lon="9.814761898238626"><ele>917.0</ele><time>2026-04-19T12:59:06.967Z</time></trkpt><trkpt lat="44.45646330197049" lon="9.814589765515583"><ele>922.0</ele><time>2026-04-19T12:59:07.967Z</time></trkpt><trkpt lat="44.456455146366494" lon="9.814386045651958"><ele>922.6666666666666</ele><time>2026-04-19T12:59:08.967Z</time></trkpt><trkpt lat="44.45641505969278" lon="9.814167532615146"><ele>923.3333333333333</ele><time>2026-04-19T12:59:09.967Z</time></trkpt><trkpt lat="44.45636584431082" lon="9.81396513023167"><ele>924.0</ele><time>2026-04-19T12:59:10.967Z</time></trkpt><trkpt lat="44.456298322647754" lon="9.813782001527496"><ele>917.25</ele><time>2026-04-19T12:59:11.967Z</time></trkpt><trkpt lat="44.45623147415756" lon="9.813610458602762"><ele>910.5</ele><time>2026-04-19T12:59:12.967Z</time></trkpt><trkpt lat="44.456191760252224" lon="9.813468521005431"><ele>903.75</ele><time>2026-04-19T12:59:13.967Z</time></trkpt><trkpt lat="44.456209418898226" lon="9.813329440384903"><ele>897.0</ele><time>2026-04-19T12:59:14.967Z</time></trkpt><trkpt lat="44.45626842775179" lon="9.813178747082942"><ele>902.5</ele><time>2026-04-19T12:59:15.967Z</time></trkpt><trkpt lat="44.45634383057143" lon="9.81301094180231"><ele>908.0</ele><time>2026-04-19T12:59:16.967Z</time></trkpt><trkpt lat="44.45638936857039" lon="9.812835751692814"><ele>913.5</ele><time>2026-04-19T12:59:17.967Z</time></trkpt><trkpt lat="44.456380060938876" lon="9.812628859181821"><ele>919.0</ele><time>2026-04-19T12:59:18.967Z</time></trkpt><trkpt lat="44.45634804282412" lon="9.81241083462866"><ele>919.0</ele><time>2026-04-19T12:59:19.967Z</time></trkpt><trkpt lat="44.456311756064004" lon="9.812167615146183"><ele>919.0</ele><time>2026-04-19T12:59:20.967Z</time></trkpt><trkpt lat="44.45628587796383" lon="9.811907474856278"><ele>919.0</ele><time>2026-04-19T12:59:21.967Z</time></trkpt><trkpt lat="44.4562591634469" lon="9.811640321190897"><ele>902.6666666666666</ele><time>2026-04-19T12:59:22.967Z</time></trkpt><trkpt lat="44.45624450535161" lon="9.811363615599793"><ele>886.3333333333333</ele><time>2026-04-19T12:59:23.967Z</time></trkpt><trkpt lat="44.45624400195086" lon="9.811084731638184"><ele>870.0</ele><time>2026-04-19T12:59:24.967Z</time></trkpt><trkpt lat="44.45625481557191" lon="9.810815863542308"><ele>868.0</ele><time>2026-04-19T12:59:25.967Z</time></trkpt><trkpt lat="44.45627453251765" lon="9.810565241891878"><ele>866.0</ele><time>2026-04-19T12:59:26.967Z</time></trkpt><trkpt lat="44.4562932181944" lon="9.810346588403414"><ele>864.0</ele><time>2026-04-19T12:59:27.967Z</time></trkpt><trkpt lat="44.45629451149016" lon="9.810154755081037"><ele>864.0</ele><time>2026-04-19T12:59:28.967Z</time></trkpt><trkpt lat="44.456270694766175" lon="9.809982030582308"><ele>864.0</ele><time>2026-04-19T12:59:29.967Z</time></trkpt><trkpt lat="44.456206457989566" lon="9.809836260998525"><ele>864.0</ele><time>2026-04-19T12:59:30.967Z</time></trkpt><trkpt lat="44.45611490725888" lon="9.809694373590139"><ele>864.0</ele><time>2026-04-19T12:59:31.967Z</time></trkpt><trkpt lat="44.45598603832221" lon="9.80953378030594"><ele>864.0</ele><time>2026-04-19T12:59:32.967Z</time></trkpt><trkpt lat="44.45587803873959" lon="9.809349918170922"><ele>864.0</ele><time>2026-04-19T12:59:33.967Z</time></trkpt><trkpt lat="44.45579062166135" lon="9.809159298066191"><ele>864.0</ele><time>2026-04-19T12:59:34.967Z</time></trkpt><trkpt lat="44.455697090480434" lon="9.808990021845409"><ele>867.75</ele><time>2026-04-19T12:59:35.965Z</time></trkpt><trkpt lat="44.45558973815507" lon="9.808834723780253"><ele>871.5</ele><time>2026-04-19T12:59:36.965Z</time></trkpt><trkpt lat="44.45547678784395" lon="9.808704262777686"><ele>875.25</ele><time>2026-04-19T12:59:37.965Z</time></trkpt><trkpt lat="44.455386409009996" lon="9.808574912643817"><ele>879.0</ele><time>2026-04-19T12:59:38.965Z</time></trkpt><trkpt lat="44.455342501998736" lon="9.808420119538374"><ele>867.0</ele><time>2026-04-19T12:59:39.965Z</time></trkpt><trkpt lat="44.455337385366555" lon="9.808218856755246"><ele>855.0</ele><time>2026-04-19T12:59:40.965Z</time></trkpt><trkpt lat="44.4553594232877" lon="9.808001006179678"><ele>843.0</ele><time>2026-04-19T12:59:41.965Z</time></trkpt><trkpt lat="44.4553823675925" lon="9.807784418864607"><ele>843.6666666666667</ele><time>2026-04-19T12:59:42.964Z</time></trkpt><trkpt lat="44.45539039064181" lon="9.80757418629721"><ele>844.3333333333334</ele><time>2026-04-19T12:59:43.964Z</time></trkpt><trkpt lat="44.45534137786981" lon="9.807368620430832"><ele>845.0</ele><time>2026-04-19T12:59:44.964Z</time></trkpt><trkpt lat="44.455278049308546" lon="9.807167598837331"><ele>845.0</ele><time>2026-04-19T12:59:45.965Z</time></trkpt><trkpt lat="44.45525044867235" lon="9.806970010497599"><ele>845.0</ele><time>2026-04-19T12:59:46.965Z</time></trkpt><trkpt lat="44.455252117272224" lon="9.806764462203176"><ele>845.0</ele><time>2026-04-19T12:59:47.964Z</time></trkpt><trkpt lat="44.45528952225373" lon="9.806562270050437"><ele>845.0</ele><time>2026-04-19T12:59:48.964Z</time></trkpt><trkpt lat="44.45532336406428" lon="9.806363788549833"><ele>845.0</ele><time>2026-04-19T12:59:49.964Z</time></trkpt><trkpt lat="44.455323818489354" lon="9.806196352114423"><ele>845.0</ele><time>2026-04-19T12:59:50.964Z</time></trkpt><trkpt lat="44.45527161925401" lon="9.806048105074272"><ele>845.0</ele><time>2026-04-19T12:59:51.964Z</time></trkpt><trkpt lat="44.45518000120681" lon="9.805878259018645"><ele>845.0</ele><time>2026-04-19T12:59:52.964Z</time></trkpt><trkpt lat="44.45507820039794" lon="9.805711392396393"><ele>845.0</ele><time>2026-04-19T12:59:53.964Z</time></trkpt><trkpt lat="44.45499346708469" lon="9.805566213821509"><ele>845.0</ele><time>2026-04-19T12:59:54.964Z</time></trkpt><trkpt lat="44.45490966617392" lon="9.805458654055334"><ele>845.0</ele><time>2026-04-19T12:59:55.964Z</time></trkpt><trkpt lat="44.45481835880059" lon="9.805373163379121"><ele>845.0</ele><time>2026-04-19T12:59:56.964Z</time></trkpt><trkpt lat="44.454741139532324" lon="9.805309676703613"><ele>845.0</ele><time>2026-04-19T12:59:57.964Z</time></trkpt><trkpt lat="44.45467941770143" lon="9.805246105325189"><ele>845.0000000000001</ele><time>2026-04-19T12:59:58.964Z</time></trkpt><trkpt lat="44.45465555815575" lon="9.805155530670877"><ele>845.0</ele><time>2026-04-19T12:59:59.964Z</time></trkpt><trkpt lat="44.45469163214906" lon="9.805065359392534"><ele>845.0</ele><time>2026-04-19T13:00:00.964Z</time></trkpt><trkpt lat="44.45476802839646" lon="9.805015886370223"><ele>845.0</ele><time>2026-04-19T13:00:01.964Z</time></trkpt><trkpt lat="44.454847313705955" lon="9.80507307087979"><ele>845.0000000000001</ele><time>2026-04-19T13:00:02.964Z</time></trkpt><trkpt lat="44.454924538454414" lon="9.80515102139685"><ele>845.0</ele><time>2026-04-19T13:00:03.964Z</time></trkpt><trkpt lat="44.45501752475214" lon="9.805211943677119"><ele>845.0</ele><time>2026-04-19T13:00:04.964Z</time></trkpt><trkpt lat="44.455117918946144" lon="9.805243575472835"><ele>845.0</ele><time>2026-04-19T13:00:05.964Z</time></trkpt><trkpt lat="44.45524200978284" lon="9.805268363383254"><ele>845.0</ele><time>2026-04-19T13:00:06.964Z</time></trkpt><trkpt lat="44.45538001217293" lon="9.805312111186288"><ele>845.0</ele><time>2026-04-19T13:00:07.964Z</time></trkpt><trkpt lat="44.455505303736416" lon="9.805416918784582"><ele>845.25</ele><time>2026-04-19T13:00:08.964Z</time></trkpt><trkpt lat="44.455614209949836" lon="9.805551877199207"><ele>845.5</ele><time>2026-04-19T13:00:09.964Z</time></trkpt><trkpt lat="44.45570139934458" lon="9.805712292012577"><ele>845.75</ele><time>2026-04-19T13:00:10.964Z</time></trkpt><trkpt lat="44.455775350605464" lon="9.805884296329783"><ele>846.0</ele><time>2026-04-19T13:00:11.964Z</time></trkpt><trkpt lat="44.45584060310143" lon="9.806041598189259"><ele>850.1999999999999</ele><time>2026-04-19T13:00:12.964Z</time></trkpt><trkpt lat="44.45591874126278" lon="9.806156858722174"><ele>854.4</ele><time>2026-04-19T13:00:13.964Z</time></trkpt><trkpt lat="44.45600914882012" lon="9.806231626821523"><ele>858.6</ele><time>2026-04-19T13:00:14.964Z</time></trkpt><trkpt lat="44.45612458473636" lon="9.806246775955486"><ele>862.8</ele><time>2026-04-19T13:00:15.965Z</time></trkpt><trkpt lat="44.45622898116081" lon="9.806193337125766"><ele>867.0</ele><time>2026-04-19T13:00:16.965Z</time></trkpt><trkpt lat="44.45631556553551" lon="9.806063654699793"><ele>861.75</ele><time>2026-04-19T13:00:17.965Z</time></trkpt><trkpt lat="44.45638566404395" lon="9.80589281590245"><ele>856.5</ele><time>2026-04-19T13:00:18.965Z</time></trkpt><trkpt lat="44.45646507490773" lon="9.805703336390257"><ele>851.25</ele><time>2026-04-19T13:00:19.965Z</time></trkpt><trkpt lat="44.45655542939597" lon="9.805542240808352"><ele>846.0</ele><time>2026-04-19T13:00:20.965Z</time></trkpt><trkpt lat="44.45665471682064" lon="9.805401484576413"><ele>846.0</ele><time>2026-04-19T13:00:21.965Z</time></trkpt><trkpt lat="44.456746159258586" lon="9.805288903269142"><ele>846.0</ele><time>2026-04-19T13:00:22.965Z</time></trkpt><trkpt lat="44.45685217492243" lon="9.80521260679479"><ele>846.0</ele><time>2026-04-19T13:00:23.965Z</time></trkpt><trkpt lat="44.45698279741497" lon="9.805177266862207"><ele>846.0</ele><time>2026-04-19T13:00:24.965Z</time></trkpt><trkpt lat="44.457128947942046" lon="9.805189051676967"><ele>841.5</ele><time>2026-04-19T13:00:25.965Z</time></trkpt><trkpt lat="44.4572783572929" lon="9.805222136478632"><ele>837.0</ele><time>2026-04-19T13:00:26.965Z</time></trkpt><trkpt lat="44.45742192679626" lon="9.805225794730765"><ele>832.5</ele><time>2026-04-19T13:00:27.965Z</time></trkpt><trkpt lat="44.45755709028268" lon="9.805192372413849"><ele>828.0</ele><time>2026-04-19T13:00:28.965Z</time></trkpt><trkpt lat="44.457700974339055" lon="9.805094410668472"><ele>828.0</ele><time>2026-04-19T13:00:29.965Z</time></trkpt><trkpt lat="44.45784331503936" lon="9.804971437984717"><ele>828.0</ele><time>2026-04-19T13:00:30.965Z</time></trkpt><trkpt lat="44.45798966749414" lon="9.804856394942576"><ele>828.0</ele><time>2026-04-19T13:00:31.965Z</time></trkpt><trkpt lat="44.45814337666271" lon="9.8047362224287"><ele>832.6666666666667</ele><time>2026-04-19T13:00:32.965Z</time></trkpt><trkpt lat="44.458294320385214" lon="9.804634157871119"><ele>837.3333333333334</ele><time>2026-04-19T13:00:33.965Z</time></trkpt><trkpt lat="44.45843574056122" lon="9.804533198764728"><ele>842.0</ele><time>2026-04-19T13:00:34.965Z</time></trkpt><trkpt lat="44.45856646808342" lon="9.804437186413818"><ele>842.0</ele><time>2026-04-19T13:00:35.965Z</time></trkpt><trkpt lat="44.458677954546964" lon="9.804372304476908"><ele>842.0</ele><time>2026-04-19T13:00:36.965Z</time></trkpt><trkpt lat="44.45878744131449" lon="9.804330066180095"><ele>842.0</ele><time>2026-04-19T13:00:37.965Z</time></trkpt><trkpt lat="44.45889307463424" lon="9.804348889195651"><ele>842.0</ele><time>2026-04-19T13:00:38.965Z</time></trkpt><trkpt lat="44.4589977072003" lon="9.80442070669533"><ele>838.0</ele><time>2026-04-19T13:00:39.965Z</time></trkpt><trkpt lat="44.45909814540488" lon="9.80454680540909"><ele>834.0</ele><time>2026-04-19T13:00:40.965Z</time></trkpt><trkpt lat="44.45919681202811" lon="9.804717901873035"><ele>830.0</ele><time>2026-04-19T13:00:41.965Z</time></trkpt><trkpt lat="44.45929888472152" lon="9.804901750905946"><ele>830.0</ele><time>2026-04-19T13:00:42.965Z</time></trkpt><trkpt lat="44.459394780453" lon="9.805087364567337"><ele>830.0</ele><time>2026-04-19T13:00:43.965Z</time></trkpt><trkpt lat="44.459478473618624" lon="9.80528391167524"><ele>830.0</ele><time>2026-04-19T13:00:44.965Z</time></trkpt><trkpt lat="44.459538224981756" lon="9.805493175238908"><ele>829.5</ele><time>2026-04-19T13:00:45.965Z</time></trkpt><trkpt lat="44.45956837812007" lon="9.805710601336967"><ele>829.0</ele><time>2026-04-19T13:00:46.965Z</time></trkpt><trkpt lat="44.459598213140026" lon="9.805915636284315"><ele>828.5</ele><time>2026-04-19T13:00:47.965Z</time></trkpt><trkpt lat="44.459636830184095" lon="9.806094676585497"><ele>828.0</ele><time>2026-04-19T13:00:48.965Z</time></trkpt><trkpt lat="44.45967804688985" lon="9.806247274395364"><ele>828.0</ele><time>2026-04-19T13:00:49.965Z</time></trkpt><trkpt lat="44.45973297117224" lon="9.806373162910708"><ele>828.0</ele><time>2026-04-19T13:00:50.965Z</time></trkpt><trkpt lat="44.45979412574188" lon="9.806460936057393"><ele>828.0</ele><time>2026-04-19T13:00:51.965Z</time></trkpt><trkpt lat="44.459880441533514" lon="9.806512213821039"><ele>828.0</ele><time>2026-04-19T13:00:52.965Z</time></trkpt><trkpt lat="44.45997304415064" lon="9.806517790538685"><ele>828.0</ele><time>2026-04-19T13:00:53.965Z</time></trkpt><trkpt lat="44.460074761825815" lon="9.80645808151092"><ele>828.0</ele><time>2026-04-19T13:00:54.965Z</time></trkpt><trkpt lat="44.460154087263824" lon="9.80634618637756"><ele>828.0</ele><time>2026-04-19T13:00:55.965Z</time></trkpt><trkpt lat="44.46021048117195" lon="9.806200801546385"><ele>828.0</ele><time>2026-04-19T13:00:56.965Z</time></trkpt><trkpt lat="44.460245158477186" lon="9.806041187531457"><ele>828.0</ele><time>2026-04-19T13:00:57.965Z</time></trkpt><trkpt lat="44.46026224233059" lon="9.805846727757904"><ele>823.25</ele><time>2026-04-19T13:00:58.965Z</time></trkpt><trkpt lat="44.46028611675109" lon="9.805629975688257"><ele>818.5</ele><time>2026-04-19T13:00:59.965Z</time></trkpt><trkpt lat="44.46032146244623" lon="9.805451074190994"><ele>813.75</ele><time>2026-04-19T13:01:00.965Z</time></trkpt><trkpt lat="44.46037319211785" lon="9.805270221079155"><ele>809.0</ele><time>2026-04-19T13:01:01.965Z</time></trkpt><trkpt lat="44.46045750699968" lon="9.8051196286939"><ele>809.0</ele><time>2026-04-19T13:01:02.965Z</time></trkpt><trkpt lat="44.46056458993192" lon="9.804970309823855"><ele>809.0</ele><time>2026-04-19T13:01:03.965Z</time></trkpt><trkpt lat="44.46068135982443" lon="9.804820053936908"><ele>809.0</ele><time>2026-04-19T13:01:04.965Z</time></trkpt><trkpt lat="44.460808622087136" lon="9.804669790532555"><ele>809.0</ele><time>2026-04-19T13:01:05.965Z</time></trkpt><trkpt lat="44.46093690490663" lon="9.80450411326195"><ele>809.0</ele><time>2026-04-19T13:01:06.965Z</time></trkpt><trkpt lat="44.46105347682555" lon="9.80436138412915"><ele>809.0</ele><time>2026-04-19T13:01:07.965Z</time></trkpt><trkpt lat="44.46117207966261" lon="9.80423998029901"><ele>806.0</ele><time>2026-04-19T13:01:08.965Z</time></trkpt><trkpt lat="44.46130692972469" lon="9.804147548539992"><ele>803.0</ele><time>2026-04-19T13:01:09.965Z</time></trkpt><trkpt lat="44.461469531460615" lon="9.80408357805577"><ele>800.0</ele><time>2026-04-19T13:01:10.965Z</time></trkpt><trkpt lat="44.46164480136083" lon="9.804023676849106"><ele>800.0</ele><time>2026-04-19T13:01:11.965Z</time></trkpt><trkpt lat="44.46182358638436" lon="9.803971856833906"><ele>800.0</ele><time>2026-04-19T13:01:12.965Z</time></trkpt><trkpt lat="44.46199799590664" lon="9.803931767100387"><ele>800.0</ele><time>2026-04-19T13:01:13.965Z</time></trkpt><trkpt lat="44.462164531391764" lon="9.803889003605047"><ele>798.3333333333334</ele><time>2026-04-19T13:01:14.965Z</time></trkpt><trkpt lat="44.4623287568299" lon="9.80384541759079"><ele>796.6666666666667</ele><time>2026-04-19T13:01:15.965Z</time></trkpt><trkpt lat="44.46247179660241" lon="9.803825334487698"><ele>795.0</ele><time>2026-04-19T13:01:16.965Z</time></trkpt><trkpt lat="44.46261174414382" lon="9.803830999099352"><ele>795.0</ele><time>2026-04-19T13:01:17.965Z</time></trkpt><trkpt lat="44.46272629364517" lon="9.803846288105417"><ele>795.0</ele><time>2026-04-19T13:01:18.965Z</time></trkpt><trkpt lat="44.46282075510124" lon="9.803862759811174"><ele>795.0</ele><time>2026-04-19T13:01:19.965Z</time></trkpt><trkpt lat="44.4629081212168" lon="9.803848515730731"><ele>795.0</ele><time>2026-04-19T13:01:20.965Z</time></trkpt><trkpt lat="44.462978946950244" lon="9.803797781710614"><ele>795.0</ele><time>2026-04-19T13:01:21.965Z</time></trkpt><trkpt lat="44.46302602827473" lon="9.80369819418579"><ele>793.4</ele><time>2026-04-19T13:01:22.965Z</time></trkpt><trkpt lat="44.46303810632708" lon="9.803581283667087"><ele>791.8</ele><time>2026-04-19T13:01:23.965Z</time></trkpt><trkpt lat="44.46300832497242" lon="9.80346960740323"><ele>790.2</ele><time>2026-04-19T13:01:24.965Z</time></trkpt><trkpt lat="44.46294800511094" lon="9.803374485229217"><ele>788.6</ele><time>2026-04-19T13:01:25.965Z</time></trkpt><trkpt lat="44.46285155531763" lon="9.80332052987459"><ele>787.0</ele><time>2026-04-19T13:01:26.965Z</time></trkpt><trkpt lat="44.46273252920891" lon="9.803331570260776"><ele>784.0</ele><time>2026-04-19T13:01:27.965Z</time></trkpt><trkpt lat="44.462600364382304" lon="9.803369420430366"><ele>781.0</ele><time>2026-04-19T13:01:28.965Z</time></trkpt><trkpt lat="44.462462884604136" lon="9.803414383530239"><ele>778.0</ele><time>2026-04-19T13:01:29.965Z</time></trkpt><trkpt lat="44.46231205334154" lon="9.803423245960797"><ele>775.0</ele><time>2026-04-19T13:01:30.965Z</time></trkpt><trkpt lat="44.462148984042145" lon="9.803398722318743"><ele>774.3333333333333</ele><time>2026-04-19T13:01:31.965Z</time></trkpt><trkpt lat="44.46198414436432" lon="9.803364451155428"><ele>773.6666666666667</ele><time>2026-04-19T13:01:32.965Z</time></trkpt><trkpt lat="44.461816655028784" lon="9.803332403952593"><ele>773.0</ele><time>2026-04-19T13:01:33.965Z</time></trkpt><trkpt lat="44.461643387300015" lon="9.80333194543661"><ele>773.0</ele><time>2026-04-19T13:01:34.965Z</time></trkpt><trkpt lat="44.461477864774785" lon="9.803339002656012"><ele>773.0</ele><time>2026-04-19T13:01:35.965Z</time></trkpt><trkpt lat="44.46131157620124" lon="9.803346858218623"><ele>773.0</ele><time>2026-04-19T13:01:36.965Z</time></trkpt><trkpt lat="44.46116459112064" lon="9.803358517107208"><ele>775.0</ele><time>2026-04-19T13:01:37.965Z</time></trkpt><trkpt lat="44.46102676400292" lon="9.803410152017378"><ele>777.0</ele><time>2026-04-19T13:01:38.965Z</time></trkpt><trkpt lat="44.46090550740878" lon="9.80350141030099"><ele>779.0</ele><time>2026-04-19T13:01:39.965Z</time></trkpt><trkpt lat="44.460785866443516" lon="9.803628476350086"><ele>781.0</ele><time>2026-04-19T13:01:40.965Z</time></trkpt><trkpt lat="44.4606472895686" lon="9.803772262419946"><ele>781.0</ele><time>2026-04-19T13:01:41.963Z</time></trkpt><trkpt lat="44.460516874529624" lon="9.803911255897338"><ele>781.0</ele><time>2026-04-19T13:01:42.963Z</time></trkpt><trkpt lat="44.46039273612259" lon="9.804039666875191"><ele>781.0</ele><time>2026-04-19T13:01:43.963Z</time></trkpt><trkpt lat="44.46028991228467" lon="9.804130097875879"><ele>781.0</ele><time>2026-04-19T13:01:44.964Z</time></trkpt><trkpt lat="44.460185403969916" lon="9.804189294027166"><ele>778.8</ele><time>2026-04-19T13:01:45.963Z</time></trkpt><trkpt lat="44.46008302156313" lon="9.804200264240219"><ele>776.5999999999999</ele><time>2026-04-19T13:01:46.963Z</time></trkpt><trkpt lat="44.459996215954355" lon="9.804164021134492"><ele>774.4</ele><time>2026-04-19T13:01:47.963Z</time></trkpt><trkpt lat="44.45993391085847" lon="9.804060598695942"><ele>772.2</ele><time>2026-04-19T13:01:48.963Z</time></trkpt><trkpt lat="44.45989818331154" lon="9.803919744324718"><ele>770.0</ele><time>2026-04-19T13:01:49.963Z</time></trkpt><trkpt lat="44.459902126542886" lon="9.803755114372255"><ele>770.0</ele><time>2026-04-19T13:01:50.963Z</time></trkpt><trkpt lat="44.45992038106607" lon="9.803579961223546"><ele>770.0</ele><time>2026-04-19T13:01:51.963Z</time></trkpt><trkpt lat="44.45992984185519" lon="9.80340103203372"><ele>770.0</ele><time>2026-04-19T13:01:52.963Z</time></trkpt><trkpt lat="44.459905824239435" lon="9.803215740985697"><ele>770.0</ele><time>2026-04-19T13:01:53.963Z</time></trkpt><trkpt lat="44.45983767918816" lon="9.803038152641493"><ele>764.0</ele><time>2026-04-19T13:01:54.963Z</time></trkpt><trkpt lat="44.459734881204305" lon="9.802852389106723"><ele>758.0</ele><time>2026-04-19T13:01:55.963Z</time></trkpt><trkpt lat="44.4596288157763" lon="9.802648418267326"><ele>752.0</ele><time>2026-04-19T13:01:56.963Z</time></trkpt><trkpt lat="44.459516807052196" lon="9.802433679471159"><ele>752.0</ele><time>2026-04-19T13:01:57.963Z</time></trkpt><trkpt lat="44.45939407332692" lon="9.802237085507775"><ele>752.0</ele><time>2026-04-19T13:01:58.963Z</time></trkpt><trkpt lat="44.45925768748324" lon="9.80206141191316"><ele>752.0</ele><time>2026-04-19T13:01:59.963Z</time></trkpt><trkpt lat="44.45911403613017" lon="9.80188613823608"><ele>749.3333333333333</ele><time>2026-04-19T13:02:00.963Z</time></trkpt><trkpt lat="44.458981216363526" lon="9.801719575543093"><ele>746.6666666666666</ele><time>2026-04-19T13:02:01.963Z</time></trkpt><trkpt lat="44.45886577954948" lon="9.801569039218013"><ele>744.0</ele><time>2026-04-19T13:02:02.964Z</time></trkpt><trkpt lat="44.4587672725592" lon="9.801445099994286"><ele>744.0</ele><time>2026-04-19T13:02:03.964Z</time></trkpt><trkpt lat="44.45869404779425" lon="9.801359409635708"><ele>744.0</ele><time>2026-04-19T13:02:04.964Z</time></trkpt><trkpt lat="44.4585990473734" lon="9.801340341842513"><ele>744.0</ele><time>2026-04-19T13:02:05.964Z</time></trkpt><trkpt lat="44.45845233130145" lon="9.801349162380296"><ele>744.0</ele><time>2026-04-19T13:02:06.964Z</time></trkpt><trkpt lat="44.45831412368718" lon="9.801397856897797"><ele>744.0</ele><time>2026-04-19T13:02:07.964Z</time></trkpt><trkpt lat="44.45817987765815" lon="9.801462368025135"><ele>744.0</ele><time>2026-04-19T13:02:08.964Z</time></trkpt><trkpt lat="44.45805089883276" lon="9.80150703985429"><ele>744.0</ele><time>2026-04-19T13:02:09.964Z</time></trkpt><trkpt lat="44.45791228143351" lon="9.801545457955758"><ele>744.0</ele><time>2026-04-19T13:02:10.964Z</time></trkpt><trkpt lat="44.45778218428335" lon="9.801547510257636"><ele>742.5</ele><time>2026-04-19T13:02:11.964Z</time></trkpt><trkpt lat="44.457651439069146" lon="9.801506469645659"><ele>741.0</ele><time>2026-04-19T13:02:12.964Z</time></trkpt><trkpt lat="44.45752356763688" lon="9.80144623303644"><ele>739.5</ele><time>2026-04-19T13:02:13.964Z</time></trkpt><trkpt lat="44.457404698307876" lon="9.801334919803345"><ele>738.0</ele><time>2026-04-19T13:02:14.964Z</time></trkpt><trkpt lat="44.45731167675943" lon="9.801193883801323"><ele>738.0</ele><time>2026-04-19T13:02:15.964Z</time></trkpt><trkpt lat="44.4572384245429" lon="9.801040205320108"><ele>738.0</ele><time>2026-04-19T13:02:16.964Z</time></trkpt><trkpt lat="44.45718120040909" lon="9.800907403653442"><ele>738.0</ele><time>2026-04-19T13:02:17.964Z</time></trkpt><trkpt lat="44.457122084318094" lon="9.80082114061345"><ele>738.0</ele><time>2026-04-19T13:02:18.964Z</time></trkpt><trkpt lat="44.45702747990919" lon="9.800804806401663"><ele>738.0</ele><time>2026-04-19T13:02:19.964Z</time></trkpt><trkpt lat="44.456922223018516" lon="9.800853265332142"><ele>737.5</ele><time>2026-04-19T13:02:20.964Z</time></trkpt><trkpt lat="44.45682250632253" lon="9.800932127314598"><ele>737.0</ele><time>2026-04-19T13:02:21.964Z</time></trkpt><trkpt lat="44.45672351789564" lon="9.80104622243102"><ele>736.5</ele><time>2026-04-19T13:02:22.964Z</time></trkpt><trkpt lat="44.456598887002535" lon="9.801143002047773"><ele>736.0</ele><time>2026-04-19T13:02:23.964Z</time></trkpt><trkpt lat="44.456469309447684" lon="9.801179835104165"><ele>736.0</ele><time>2026-04-19T13:02:24.964Z</time></trkpt><trkpt lat="44.456351939501545" lon="9.801164068019908"><ele>736.0</ele><time>2026-04-19T13:02:25.964Z</time></trkpt><trkpt lat="44.456243486523604" lon="9.80115887048897"><ele>736.0</ele><time>2026-04-19T13:02:26.964Z</time></trkpt><trkpt lat="44.45613146760898" lon="9.801211612943021"><ele>736.0</ele><time>2026-04-19T13:02:27.964Z</time></trkpt><trkpt lat="44.45602040233878" lon="9.801323666816902"><ele>732.0</ele><time>2026-04-19T13:02:28.964Z</time></trkpt><trkpt lat="44.45593222482649" lon="9.80146512451869"><ele>728.0</ele><time>2026-04-19T13:02:29.964Z</time></trkpt><trkpt lat="44.45585846068641" lon="9.801595458305544"><ele>724.0</ele><time>2026-04-19T13:02:30.964Z</time></trkpt><trkpt lat="44.455769417599925" lon="9.801667579127209"><ele>720.0</ele><time>2026-04-19T13:02:31.964Z</time></trkpt><trkpt lat="44.45566904361246" lon="9.801677466487952"><ele>720.0</ele><time>2026-04-19T13:02:32.964Z</time></trkpt><trkpt lat="44.4555561812119" lon="9.80162767699137"><ele>720.0</ele><time>2026-04-19T13:02:33.964Z</time></trkpt><trkpt lat="44.45545892793626" lon="9.80152435485686"><ele>720.0</ele><time>2026-04-19T13:02:34.964Z</time></trkpt><trkpt lat="44.45536701714844" lon="9.801400852167257"><ele>720.0</ele><time>2026-04-19T13:02:35.964Z</time></trkpt><trkpt lat="44.4552652130466" lon="9.801288389594355"><ele>717.25</ele><time>2026-04-19T13:02:36.964Z</time></trkpt><trkpt lat="44.455155691933285" lon="9.801195463415024"><ele>714.5</ele><time>2026-04-19T13:02:37.964Z</time></trkpt><trkpt lat="44.45504569648848" lon="9.801134576356217"><ele>711.75</ele><time>2026-04-19T13:02:38.964Z</time></trkpt><trkpt lat="44.45494378018316" lon="9.801111473834736"><ele>709.0</ele><time>2026-04-19T13:02:39.964Z</time></trkpt><trkpt lat="44.454842830274366" lon="9.801148404710514"><ele>709.0</ele><time>2026-04-19T13:02:40.964Z</time></trkpt><trkpt lat="44.45476229695862" lon="9.801247807028172"><ele>709.0</ele><time>2026-04-19T13:02:41.964Z</time></trkpt><trkpt lat="44.454719554018595" lon="9.801392910239713"><ele>709.0</ele><time>2026-04-19T13:02:42.964Z</time></trkpt><trkpt lat="44.454701869967266" lon="9.801566484836584"><ele>709.0</ele><time>2026-04-19T13:02:43.964Z</time></trkpt><trkpt lat="44.45467815124044" lon="9.801738852319264"><ele>711.2</ele><time>2026-04-19T13:02:44.964Z</time></trkpt><trkpt lat="44.45464558953353" lon="9.801881625700219"><ele>713.4000000000001</ele><time>2026-04-19T13:02:45.964Z</time></trkpt><trkpt lat="44.454553988904095" lon="9.801991456624743"><ele>715.6</ele><time>2026-04-19T13:02:46.964Z</time></trkpt><trkpt lat="44.454446225672186" lon="9.80204804178235"><ele>717.8</ele><time>2026-04-19T13:02:47.964Z</time></trkpt><trkpt lat="44.45434564154021" lon="9.802052401363138"><ele>720.0</ele><time>2026-04-19T13:02:48.964Z</time></trkpt><trkpt lat="44.454255380787245" lon="9.802007017546394"><ele>720.0</ele><time>2026-04-19T13:02:49.964Z</time></trkpt><trkpt lat="44.45417329619399" lon="9.801909259616508"><ele>720.0</ele><time>2026-04-19T13:02:50.964Z</time></trkpt><trkpt lat="44.454089777152156" lon="9.801779358092086"><ele>720.0</ele><time>2026-04-19T13:02:51.964Z</time></trkpt><trkpt lat="44.45399778833925" lon="9.801620675826587"><ele>720.0</ele><time>2026-04-19T13:02:52.964Z</time></trkpt><trkpt lat="44.45390141766568" lon="9.801484090282505"><ele>719.75</ele><time>2026-04-19T13:02:53.964Z</time></trkpt><trkpt lat="44.453821454281595" lon="9.801357426379488"><ele>719.5</ele><time>2026-04-19T13:02:54.964Z</time></trkpt><trkpt lat="44.45376963865767" lon="9.801202017902636"><ele>719.25</ele><time>2026-04-19T13:02:55.964Z</time></trkpt><trkpt lat="44.45375693578882" lon="9.801013778176271"><ele>719.0</ele><time>2026-04-19T13:02:56.964Z</time></trkpt><trkpt lat="44.453772939083755" lon="9.800812165670274"><ele>709.3333333333333</ele><time>2026-04-19T13:02:57.964Z</time></trkpt><trkpt lat="44.45380366497147" lon="9.800611576071587"><ele>699.6666666666666</ele><time>2026-04-19T13:02:58.964Z</time></trkpt><trkpt lat="44.45385096658513" lon="9.800393390306706"><ele>690.0</ele><time>2026-04-19T13:02:59.964Z</time></trkpt><trkpt lat="44.4538934072701" lon="9.80016124040581"><ele>689.3333333333334</ele><time>2026-04-19T13:03:00.964Z</time></trkpt><trkpt lat="44.453941148032854" lon="9.799907835436697"><ele>688.6666666666667</ele><time>2026-04-19T13:03:01.964Z</time></trkpt><trkpt lat="44.453984133686596" lon="9.799647951220651"><ele>688.0</ele><time>2026-04-19T13:03:02.964Z</time></trkpt><trkpt lat="44.45402785723479" lon="9.799399235440587"><ele>686.6666666666667</ele><time>2026-04-19T13:03:03.964Z</time></trkpt><trkpt lat="44.45406207731698" lon="9.79916769162243"><ele>685.3333333333334</ele><time>2026-04-19T13:03:04.964Z</time></trkpt><trkpt lat="44.45409700932175" lon="9.79894703818756"><ele>684.0</ele><time>2026-04-19T13:03:05.964Z</time></trkpt><trkpt lat="44.45413854113148" lon="9.798727346597602"><ele>684.0</ele><time>2026-04-19T13:03:06.964Z</time></trkpt><trkpt lat="44.454194758229484" lon="9.798501991198405"><ele>684.0</ele><time>2026-04-19T13:03:07.964Z</time></trkpt><trkpt lat="44.45427442117902" lon="9.798280443657706"><ele>684.0</ele><time>2026-04-19T13:03:08.964Z</time></trkpt><trkpt lat="44.45436225134737" lon="9.798071233412387"><ele>685.25</ele><time>2026-04-19T13:03:09.964Z</time></trkpt><trkpt lat="44.45445579259636" lon="9.797894672543592"><ele>686.5</ele><time>2026-04-19T13:03:10.964Z</time></trkpt><trkpt lat="44.45453757741629" lon="9.797742650371777"><ele>687.75</ele><time>2026-04-19T13:03:11.964Z</time></trkpt><trkpt lat="44.454599351858924" lon="9.797583764709376"><ele>689.0</ele><time>2026-04-19T13:03:12.964Z</time></trkpt><trkpt lat="44.45463999671167" lon="9.797395789388396"><ele>688.0</ele><time>2026-04-19T13:03:13.964Z</time></trkpt><trkpt lat="44.454644179520194" lon="9.797188854250674"><ele>687.0</ele><time>2026-04-19T13:03:14.964Z</time></trkpt><trkpt lat="44.45462539159021" lon="9.796961301220966"><ele>686.0</ele><time>2026-04-19T13:03:15.964Z</time></trkpt><trkpt lat="44.45457536784212" lon="9.796704328327047"><ele>686.0</ele><time>2026-04-19T13:03:16.964Z</time></trkpt><trkpt lat="44.45452736017652" lon="9.796421506194104"><ele>686.0</ele><time>2026-04-19T13:03:17.964Z</time></trkpt><trkpt lat="44.45448861438625" lon="9.796132236187097"><ele>686.0</ele><time>2026-04-19T13:03:18.964Z</time></trkpt><trkpt lat="44.45445616755558" lon="9.795854364417947"><ele>685.3333333333333</ele><time>2026-04-19T13:03:19.964Z</time></trkpt><trkpt lat="44.454430886166676" lon="9.795596524557087"><ele>684.6666666666666</ele><time>2026-04-19T13:03:20.964Z</time></trkpt><trkpt lat="44.45440346786952" lon="9.795350804948157"><ele>684.0</ele><time>2026-04-19T13:03:21.964Z</time></trkpt><trkpt lat="44.45437931198502" lon="9.795110150511677"><ele>683.5</ele><time>2026-04-19T13:03:22.964Z</time></trkpt><trkpt lat="44.4543540974555" lon="9.794886788544687"><ele>683.0</ele><time>2026-04-19T13:03:23.964Z</time></trkpt><trkpt lat="44.4543490688715" lon="9.794683920161129"><ele>682.5</ele><time>2026-04-19T13:03:24.964Z</time></trkpt><trkpt lat="44.454377150899525" lon="9.794502739405704"><ele>682.0</ele><time>2026-04-19T13:03:25.964Z</time></trkpt><trkpt lat="44.454448784101345" lon="9.794311649681458"><ele>682.0</ele><time>2026-04-19T13:03:26.964Z</time></trkpt><trkpt lat="44.45458303179681" lon="9.794141308587163"><ele>682.0</ele><time>2026-04-19T13:03:27.964Z</time></trkpt><trkpt lat="44.45468425180259" lon="9.79395688888075"><ele>682.0</ele><time>2026-04-19T13:03:28.964Z</time></trkpt><trkpt lat="44.45477453916139" lon="9.79377404132501"><ele>675.0</ele><time>2026-04-19T13:03:29.964Z</time></trkpt><trkpt lat="44.45485429154322" lon="9.79358755206803"><ele>668.0</ele><time>2026-04-19T13:03:30.964Z</time></trkpt><trkpt lat="44.454905125686906" lon="9.793368445761104"><ele>661.0</ele><time>2026-04-19T13:03:31.964Z</time></trkpt><trkpt lat="44.454965382191226" lon="9.793136435286696"><ele>661.0</ele><time>2026-04-19T13:03:32.964Z</time></trkpt><trkpt lat="44.455013925598166" lon="9.79288520153168"><ele>661.0</ele><time>2026-04-19T13:03:33.964Z</time></trkpt><trkpt lat="44.45504193938843" lon="9.792643769919364"><ele>661.0</ele><time>2026-04-19T13:03:34.964Z</time></trkpt><trkpt lat="44.4550756722744" lon="9.792425388301725"><ele>659.6666666666667</ele><time>2026-04-19T13:03:35.964Z</time></trkpt><trkpt lat="44.45511802457946" lon="9.792229441596522"><ele>658.3333333333334</ele><time>2026-04-19T13:03:36.964Z</time></trkpt><trkpt lat="44.45513541056807" lon="9.792027750670906"><ele>657.0</ele><time>2026-04-19T13:03:37.964Z</time></trkpt><trkpt lat="44.45513218554058" lon="9.791805439382252"><ele>655.0</ele><time>2026-04-19T13:03:38.964Z</time></trkpt><trkpt lat="44.45510018113763" lon="9.791572397733507"><ele>653.0</ele><time>2026-04-19T13:03:39.964Z</time></trkpt><trkpt lat="44.4550484974135" lon="9.791322131986774"><ele>651.0</ele><time>2026-04-19T13:03:40.964Z</time></trkpt><trkpt lat="44.45499261794223" lon="9.79106137064124"><ele>650.0</ele><time>2026-04-19T13:03:41.964Z</time></trkpt><trkpt lat="44.45494155056634" lon="9.790798265364586"><ele>649.0</ele><time>2026-04-19T13:03:42.964Z</time></trkpt><trkpt lat="44.45489698977328" lon="9.790558072754948"><ele>648.0</ele><time>2026-04-19T13:03:43.964Z</time></trkpt><trkpt lat="44.45485252572634" lon="9.790322894153068"><ele>646.3333333333334</ele><time>2026-04-19T13:03:44.964Z</time></trkpt><trkpt lat="44.45481060608949" lon="9.790086327048806"><ele>644.6666666666667</ele><time>2026-04-19T13:03:45.964Z</time></trkpt><trkpt lat="44.45476913353539" lon="9.789848034257693"><ele>643.0</ele><time>2026-04-19T13:03:46.964Z</time></trkpt><trkpt lat="44.454726079020205" lon="9.789620464470586"><ele>643.0</ele><time>2026-04-19T13:03:47.961Z</time></trkpt><trkpt lat="44.454683390859536" lon="9.789407344841122"><ele>643.0</ele><time>2026-04-19T13:03:48.961Z</time></trkpt><trkpt lat="44.454632534740526" lon="9.78921339660347"><ele>643.0</ele><time>2026-04-19T13:03:49.961Z</time></trkpt><trkpt lat="44.454555243037895" lon="9.789037585206938"><ele>644.3333333333334</ele><time>2026-04-19T13:03:50.962Z</time></trkpt><trkpt lat="44.45445968150812" lon="9.788892081041304"><ele>645.6666666666666</ele><time>2026-04-19T13:03:51.961Z</time></trkpt><trkpt lat="44.454328120457156" lon="9.788746604242204"><ele>647.0</ele><time>2026-04-19T13:03:52.961Z</time></trkpt><trkpt lat="44.454189027054326" lon="9.788598911601383"><ele>645.5</ele><time>2026-04-19T13:03:53.961Z</time></trkpt><trkpt lat="44.45406545069013" lon="9.788453255194337"><ele>644.0</ele><time>2026-04-19T13:03:54.961Z</time></trkpt><trkpt lat="44.453960608493006" lon="9.788323791623165"><ele>642.5</ele><time>2026-04-19T13:03:55.961Z</time></trkpt><trkpt lat="44.45388355032093" lon="9.788200662737713"><ele>641.0</ele><time>2026-04-19T13:03:56.961Z</time></trkpt><trkpt lat="44.45381985696021" lon="9.788081541514009"><ele>641.0</ele><time>2026-04-19T13:03:57.961Z</time></trkpt><trkpt lat="44.453791122128834" lon="9.787951688360975"><ele>641.0</ele><time>2026-04-19T13:03:58.961Z</time></trkpt><trkpt lat="44.45379277265456" lon="9.787779173334753"><ele>641.0</ele><time>2026-04-19T13:03:59.962Z</time></trkpt><trkpt lat="44.45381574570039" lon="9.787590730870434"><ele>641.0</ele><time>2026-04-19T13:04:00.961Z</time></trkpt><trkpt lat="44.45384429812605" lon="9.787406792579205"><ele>639.5</ele><time>2026-04-19T13:04:01.961Z</time></trkpt><trkpt lat="44.45388015209556" lon="9.78723932429454"><ele>638.0</ele><time>2026-04-19T13:04:02.961Z</time></trkpt><trkpt lat="44.453928581034496" lon="9.78708548452465"><ele>636.5</ele><time>2026-04-19T13:04:03.961Z</time></trkpt><trkpt lat="44.45400188664821" lon="9.786942942117905"><ele>635.0</ele><time>2026-04-19T13:04:04.961Z</time></trkpt><trkpt lat="44.45411392268471" lon="9.786814166668306"><ele>635.0</ele><time>2026-04-19T13:04:05.961Z</time></trkpt><trkpt lat="44.45424742359155" lon="9.786695423271393"><ele>635.0</ele><time>2026-04-19T13:04:06.961Z</time></trkpt><trkpt lat="44.454377144956986" lon="9.786573239586815"><ele>635.0</ele><time>2026-04-19T13:04:07.961Z</time></trkpt><trkpt lat="44.45449302953879" lon="9.786454648956035"><ele>635.0</ele><time>2026-04-19T13:04:08.961Z</time></trkpt><trkpt lat="44.45459807204114" lon="9.786338634122174"><ele>635.0</ele><time>2026-04-19T13:04:09.961Z</time></trkpt><trkpt lat="44.45468708587567" lon="9.786201179674896"><ele>635.0</ele><time>2026-04-19T13:04:10.961Z</time></trkpt><trkpt lat="44.45476022872506" lon="9.78602146945464"><ele>635.0</ele><time>2026-04-19T13:04:11.961Z</time></trkpt><trkpt lat="44.45481845137333" lon="9.785828250200531"><ele>631.25</ele><time>2026-04-19T13:04:12.961Z</time></trkpt><trkpt lat="44.45487023876307" lon="9.785648796679915"><ele>627.5</ele><time>2026-04-19T13:04:13.961Z</time></trkpt><trkpt lat="44.45491324643173" lon="9.78549432750425"><ele>623.75</ele><time>2026-04-19T13:04:14.961Z</time></trkpt><trkpt lat="44.4549241617437" lon="9.785346627487455"><ele>620.0</ele><time>2026-04-19T13:04:15.961Z</time></trkpt><trkpt lat="44.45488996141874" lon="9.785208499084172"><ele>618.25</ele><time>2026-04-19T13:04:16.961Z</time></trkpt><trkpt lat="44.454820402318646" lon="9.785071839807628"><ele>616.5</ele><time>2026-04-19T13:04:17.961Z</time></trkpt><trkpt lat="44.45472792757731" lon="9.784924438585856"><ele>614.75</ele><time>2026-04-19T13:04:18.961Z</time></trkpt><trkpt lat="44.45462777698059" lon="9.78474945882067"><ele>613.0</ele><time>2026-04-19T13:04:19.961Z</time></trkpt><trkpt lat="44.45452584350616" lon="9.784559085021986"><ele>614.3333333333334</ele><time>2026-04-19T13:04:20.961Z</time></trkpt><trkpt lat="44.45442238043014" lon="9.78436971695187"><ele>615.6666666666666</ele><time>2026-04-19T13:04:21.961Z</time></trkpt><trkpt lat="44.45431683628747" lon="9.784199972986169"><ele>617.0</ele><time>2026-04-19T13:04:22.961Z</time></trkpt><trkpt lat="44.454233570315324" lon="9.784054922144936"><ele>617.0</ele><time>2026-04-19T13:04:23.961Z</time></trkpt><trkpt lat="44.454159007192665" lon="9.783942298333299"><ele>617.0</ele><time>2026-04-19T13:04:24.961Z</time></trkpt><trkpt lat="44.45406561510983" lon="9.783877104941231"><ele>617.0</ele><time>2026-04-19T13:04:25.961Z</time></trkpt><trkpt lat="44.45395833580851" lon="9.783863198911074"><ele>617.0</ele><time>2026-04-19T13:04:26.961Z</time></trkpt><trkpt lat="44.453834422627125" lon="9.783891145081133"><ele>617.0</ele><time>2026-04-19T13:04:27.961Z</time></trkpt><trkpt lat="44.453711795850495" lon="9.783933130686217"><ele>618.75</ele><time>2026-04-19T13:04:28.961Z</time></trkpt><trkpt lat="44.45359360488965" lon="9.783957766148365"><ele>620.5</ele><time>2026-04-19T13:04:29.961Z</time></trkpt><trkpt lat="44.453481000551385" lon="9.783947085668208"><ele>622.25</ele><time>2026-04-19T13:04:30.961Z</time></trkpt><trkpt lat="44.45336262073279" lon="9.7838967624764"><ele>624.0</ele><time>2026-04-19T13:04:31.961Z</time></trkpt><trkpt lat="44.45324461289679" lon="9.783795464152021"><ele>624.0</ele><time>2026-04-19T13:04:32.961Z</time></trkpt><trkpt lat="44.453122747718645" lon="9.783671566008385"><ele>624.0</ele><time>2026-04-19T13:04:33.961Z</time></trkpt><trkpt lat="44.452994184725455" lon="9.78353667446614"><ele>624.0</ele><time>2026-04-19T13:04:34.961Z</time></trkpt><trkpt lat="44.45286163367908" lon="9.783400170057554"><ele>620.3333333333334</ele><time>2026-04-19T13:04:35.961Z</time></trkpt><trkpt lat="44.45272647146104" lon="9.783261087609077"><ele>616.6666666666667</ele><time>2026-04-19T13:04:36.961Z</time></trkpt><trkpt lat="44.45259329941019" lon="9.78312484947329"><ele>613.0</ele><time>2026-04-19T13:04:37.961Z</time></trkpt><trkpt lat="44.452469266493836" lon="9.782996238373338"><ele>613.0</ele><time>2026-04-19T13:04:38.961Z</time></trkpt><trkpt lat="44.45235518494743" lon="9.782877125290463"><ele>613.0</ele><time>2026-04-19T13:04:39.961Z</time></trkpt><trkpt lat="44.45224381655614" lon="9.782764094457676"><ele>613.0</ele><time>2026-04-19T13:04:40.961Z</time></trkpt><trkpt lat="44.45213815883885" lon="9.782659731119011"><ele>613.0</ele><time>2026-04-19T13:04:41.961Z</time></trkpt><trkpt lat="44.45203710297739" lon="9.782554860992425"><ele>612.5</ele><time>2026-04-19T13:04:42.961Z</time></trkpt><trkpt lat="44.45193707842047" lon="9.782454940338914"><ele>612.0</ele><time>2026-04-19T13:04:43.961Z</time></trkpt><trkpt lat="44.45184270612827" lon="9.782361165120383"><ele>611.5</ele><time>2026-04-19T13:04:44.961Z</time></trkpt><trkpt lat="44.45175112924634" lon="9.782271820696893"><ele>611.0</ele><time>2026-04-19T13:04:45.961Z</time></trkpt><trkpt lat="44.451664789224225" lon="9.782190328631916"><ele>611.0</ele><time>2026-04-19T13:04:46.961Z</time></trkpt><trkpt lat="44.45158796681792" lon="9.78211687770268"><ele>611.0</ele><time>2026-04-19T13:04:47.961Z</time></trkpt><trkpt lat="44.45152369170616" lon="9.782055341332455"><ele>611.0</ele><time>2026-04-19T13:04:48.961Z</time></trkpt><trkpt lat="44.45146717091945" lon="9.782006231238414"><ele>611.0</ele><time>2026-04-19T13:04:49.961Z</time></trkpt><trkpt lat="44.45140043732226" lon="9.78194802394091"><ele>611.0</ele><time>2026-04-19T13:04:51.961Z</time></trkpt><trkpt lat="44.45133204414463" lon="9.781867724873425"><ele>611.0</ele><time>2026-04-19T13:04:57.961Z</time></trkpt><trkpt lat="44.45127677325285" lon="9.78178907345365"><ele>610.1666666666666</ele><time>2026-04-19T13:04:58.961Z</time></trkpt><trkpt lat="44.451233613208686" lon="9.781707674960847"><ele>609.3333333333333</ele><time>2026-04-19T13:04:59.962Z</time></trkpt><trkpt lat="44.45119843797277" lon="9.781618760361662"><ele>608.5</ele><time>2026-04-19T13:05:00.962Z</time></trkpt><trkpt lat="44.45117784556631" lon="9.781501399636479"><ele>607.6666666666666</ele><time>2026-04-19T13:05:01.962Z</time></trkpt><trkpt lat="44.45117950531452" lon="9.781371095424767"><ele>606.8333333333334</ele><time>2026-04-19T13:05:02.962Z</time></trkpt><trkpt lat="44.45119262831462" lon="9.781215210105191"><ele>606.0</ele><time>2026-04-19T13:05:03.962Z</time></trkpt><trkpt lat="44.451207448697204" lon="9.781045674316427"><ele>603.8</ele><time>2026-04-19T13:05:04.962Z</time></trkpt><trkpt lat="44.45121500845051" lon="9.780875756967115"><ele>601.6</ele><time>2026-04-19T13:05:05.962Z</time></trkpt><trkpt lat="44.45121719751432" lon="9.78071321782274"><ele>599.4</ele><time>2026-04-19T13:05:06.962Z</time></trkpt><trkpt lat="44.45122265234075" lon="9.780576622461282"><ele>597.2</ele><time>2026-04-19T13:05:07.962Z</time></trkpt><trkpt lat="44.45124619221432" lon="9.780440454384658"><ele>595.0</ele><time>2026-04-19T13:05:08.962Z</time></trkpt><trkpt lat="44.451292688845356" lon="9.780307533470904"><ele>597.25</ele><time>2026-04-19T13:05:09.962Z</time></trkpt><trkpt lat="44.45136483716057" lon="9.780183111933644"><ele>599.5</ele><time>2026-04-19T13:05:10.962Z</time></trkpt><trkpt lat="44.451458897951916" lon="9.780077294764526"><ele>601.75</ele><time>2026-04-19T13:05:11.962Z</time></trkpt><trkpt lat="44.45156748586939" lon="9.779990944902703"><ele>604.0</ele><time>2026-04-19T13:05:12.962Z</time></trkpt><trkpt lat="44.45169618774059" lon="9.779935944009816"><ele>604.0</ele><time>2026-04-19T13:05:13.962Z</time></trkpt><trkpt lat="44.451837574400365" lon="9.779925308288869"><ele>604.0</ele><time>2026-04-19T13:05:14.962Z</time></trkpt><trkpt lat="44.45198336486329" lon="9.77995428216127"><ele>604.0</ele><time>2026-04-19T13:05:15.962Z</time></trkpt><trkpt lat="44.452127101532255" lon="9.779997925784372"><ele>604.0</ele><time>2026-04-19T13:05:16.962Z</time></trkpt><trkpt lat="44.45227245056229" lon="9.780042368210786"><ele>603.0</ele><time>2026-04-19T13:05:17.962Z</time></trkpt><trkpt lat="44.4524046628032" lon="9.780089358942115"><ele>602.0</ele><time>2026-04-19T13:05:18.962Z</time></trkpt><trkpt lat="44.45253144109687" lon="9.780167169625054"><ele>601.0</ele><time>2026-04-19T13:05:19.962Z</time></trkpt><trkpt lat="44.452657633049846" lon="9.780291024519759"><ele>600.0</ele><time>2026-04-19T13:05:20.962Z</time></trkpt><trkpt lat="44.452781032910316" lon="9.780445142967217"><ele>601.3333333333334</ele><time>2026-04-19T13:05:21.962Z</time></trkpt><trkpt lat="44.45290669615448" lon="9.780610918865797"><ele>602.6666666666667</ele><time>2026-04-19T13:05:22.962Z</time></trkpt><trkpt lat="44.45304289242174" lon="9.780780163050967"><ele>604.0</ele><time>2026-04-19T13:05:23.962Z</time></trkpt><trkpt lat="44.45318937018355" lon="9.780957234457837"><ele>598.0</ele><time>2026-04-19T13:05:24.962Z</time></trkpt><trkpt lat="44.453318875426106" lon="9.781116010443991"><ele>592.0</ele><time>2026-04-19T13:05:25.962Z</time></trkpt><trkpt lat="44.45344555153556" lon="9.78126120141358"><ele>586.0</ele><time>2026-04-19T13:05:26.962Z</time></trkpt><trkpt lat="44.453557549502264" lon="9.781395865380784"><ele>586.0</ele><time>2026-04-19T13:05:27.962Z</time></trkpt><trkpt lat="44.4536611269675" lon="9.781516279989386"><ele>586.0</ele><time>2026-04-19T13:05:28.962Z</time></trkpt><trkpt lat="44.45375973190088" lon="9.781619323187012"><ele>586.0</ele><time>2026-04-19T13:05:29.962Z</time></trkpt><trkpt lat="44.45386205405827" lon="9.781690837898918"><ele>586.0</ele><time>2026-04-19T13:05:30.962Z</time></trkpt><trkpt lat="44.45398712084786" lon="9.78171663101512"><ele>589.25</ele><time>2026-04-19T13:05:31.962Z</time></trkpt><trkpt lat="44.454133552232676" lon="9.78170253641763"><ele>592.5</ele><time>2026-04-19T13:05:32.962Z</time></trkpt><trkpt lat="44.454277195932214" lon="9.781673988917289"><ele>595.75</ele><time>2026-04-19T13:05:33.962Z</time></trkpt><trkpt lat="44.45442019669941" lon="9.781648211325304"><ele>599.0</ele><time>2026-04-19T13:05:34.962Z</time></trkpt><trkpt lat="44.45457730110606" lon="9.781621744545603"><ele>598.0</ele><time>2026-04-19T13:05:35.962Z</time></trkpt><trkpt lat="44.45473708779302" lon="9.781605641455712"><ele>597.0</ele><time>2026-04-19T13:05:36.962Z</time></trkpt><trkpt lat="44.45489047398104" lon="9.781616593757569"><ele>596.0</ele><time>2026-04-19T13:05:37.962Z</time></trkpt><trkpt lat="44.45504415929374" lon="9.781641347662413"><ele>596.0</ele><time>2026-04-19T13:05:38.962Z</time></trkpt><trkpt lat="44.455195708981236" lon="9.781682298266922"><ele>596.0</ele><time>2026-04-19T13:05:39.962Z</time></trkpt><trkpt lat="44.45534579794843" lon="9.781713039352216"><ele>596.0</ele><time>2026-04-19T13:05:40.962Z</time></trkpt><trkpt lat="44.45548803830538" lon="9.781755738616877"><ele>597.0</ele><time>2026-04-19T13:05:41.962Z</time></trkpt><trkpt lat="44.455615391601164" lon="9.78183333196653"><ele>598.0</ele><time>2026-04-19T13:05:42.962Z</time></trkpt><trkpt lat="44.45573250036397" lon="9.781939066437154"><ele>599.0</ele><time>2026-04-19T13:05:43.962Z</time></trkpt><trkpt lat="44.455845514813696" lon="9.782066127940196"><ele>600.0</ele><time>2026-04-19T13:05:44.962Z</time></trkpt><trkpt lat="44.45595672669776" lon="9.782184995292457"><ele>596.25</ele><time>2026-04-19T13:05:45.962Z</time></trkpt><trkpt lat="44.45605297907179" lon="9.782300873800857"><ele>592.5</ele><time>2026-04-19T13:05:46.962Z</time></trkpt><trkpt lat="44.45615675694241" lon="9.782406665183645"><ele>588.75</ele><time>2026-04-19T13:05:47.962Z</time></trkpt><trkpt lat="44.45627793834095" lon="9.782488158860893"><ele>585.0</ele><time>2026-04-19T13:05:48.962Z</time></trkpt><trkpt lat="44.4563969713344" lon="9.782538711864014"><ele>585.0</ele><time>2026-04-19T13:05:49.962Z</time></trkpt><trkpt lat="44.4565182006183" lon="9.782567800352"><ele>585.0</ele><time>2026-04-19T13:05:50.962Z</time></trkpt><trkpt lat="44.4566199901343" lon="9.782636683377053"><ele>585.0</ele><time>2026-04-19T13:05:51.962Z</time></trkpt><trkpt lat="44.45671281060287" lon="9.782741107328425"><ele>585.0</ele><time>2026-04-19T13:05:52.962Z</time></trkpt><trkpt lat="44.4568019428034" lon="9.782885493624686"><ele>580.0</ele><time>2026-04-19T13:05:53.96Z</time></trkpt><trkpt lat="44.45689873264948" lon="9.783054878646213"><ele>575.0</ele><time>2026-04-19T13:05:54.96Z</time></trkpt><trkpt lat="44.45699075521472" lon="9.783227138867298"><ele>570.0</ele><time>2026-04-19T13:05:55.96Z</time></trkpt><trkpt lat="44.457075654062756" lon="9.783384556672114"><ele>565.0</ele><time>2026-04-19T13:05:56.96Z</time></trkpt><trkpt lat="44.457158365263496" lon="9.783533374567032"><ele>565.0</ele><time>2026-04-19T13:05:57.959Z</time></trkpt><trkpt lat="44.457246168240445" lon="9.783673072576093"><ele>565.0</ele><time>2026-04-19T13:05:58.959Z</time></trkpt><trkpt lat="44.45733642183698" lon="9.783790648434492"><ele>565.0</ele><time>2026-04-19T13:05:59.96Z</time></trkpt><trkpt lat="44.45744220403452" lon="9.783878524258864"><ele>565.0</ele><time>2026-04-19T13:06:00.96Z</time></trkpt><trkpt lat="44.45757012452469" lon="9.783942696434188"><ele>565.0</ele><time>2026-04-19T13:06:01.96Z</time></trkpt><trkpt lat="44.45770352737129" lon="9.783965632615526"><ele>565.0</ele><time>2026-04-19T13:06:02.96Z</time></trkpt><trkpt lat="44.457836394264646" lon="9.783945423046088"><ele>565.0</ele><time>2026-04-19T13:06:03.959Z</time></trkpt><trkpt lat="44.45796264382692" lon="9.783912278062099"><ele>565.0</ele><time>2026-04-19T13:06:04.959Z</time></trkpt><trkpt lat="44.45809311742352" lon="9.783889152414865"><ele>565.25</ele><time>2026-04-19T13:06:05.96Z</time></trkpt><trkpt lat="44.45822179210602" lon="9.78390561667474"><ele>565.5</ele><time>2026-04-19T13:06:06.96Z</time></trkpt><trkpt lat="44.45834751784569" lon="9.783958120036742"><ele>565.75</ele><time>2026-04-19T13:06:07.96Z</time></trkpt><trkpt lat="44.4584739559984" lon="9.784053474455808"><ele>566.0</ele><time>2026-04-19T13:06:08.96Z</time></trkpt><trkpt lat="44.45859592506659" lon="9.78417095062942"><ele>566.0</ele><time>2026-04-19T13:06:09.96Z</time></trkpt><trkpt lat="44.45871967413969" lon="9.784291160013865"><ele>566.0</ele><time>2026-04-19T13:06:10.96Z</time></trkpt><trkpt lat="44.458832121286115" lon="9.784404308473022"><ele>566.0</ele><time>2026-04-19T13:06:11.96Z</time></trkpt><trkpt lat="44.45893621015575" lon="9.784518823250593"><ele>566.0</ele><time>2026-04-19T13:06:12.96Z</time></trkpt><trkpt lat="44.4590236975684" lon="9.784651919016818"><ele>564.25</ele><time>2026-04-19T13:06:13.96Z</time></trkpt><trkpt lat="44.459098072629" lon="9.784804432851331"><ele>562.5</ele><time>2026-04-19T13:06:14.96Z</time></trkpt><trkpt lat="44.45915703880646" lon="9.784985108440727"><ele>560.75</ele><time>2026-04-19T13:06:15.96Z</time></trkpt><trkpt lat="44.45919035737602" lon="9.785176207798319"><ele>559.0</ele><time>2026-04-19T13:06:16.96Z</time></trkpt><trkpt lat="44.459208381174555" lon="9.785366266587236"><ele>557.0</ele><time>2026-04-19T13:06:17.96Z</time></trkpt><trkpt lat="44.45922988589566" lon="9.785539786536775"><ele>555.0</ele><time>2026-04-19T13:06:18.96Z</time></trkpt><trkpt lat="44.45925374791469" lon="9.7856978034892"><ele>553.0</ele><time>2026-04-19T13:06:19.96Z</time></trkpt><trkpt lat="44.45929347697193" lon="9.78583819591836"><ele>551.0</ele><time>2026-04-19T13:06:20.96Z</time></trkpt><trkpt lat="44.45936733141634" lon="9.785950017183989"><ele>549.0</ele><time>2026-04-19T13:06:21.96Z</time></trkpt><trkpt lat="44.459458432970955" lon="9.786038544402881"><ele>547.0</ele><time>2026-04-19T13:06:22.96Z</time></trkpt><trkpt lat="44.45956572818978" lon="9.786090352178102"><ele>545.0</ele><time>2026-04-19T13:06:23.96Z</time></trkpt><trkpt lat="44.459695750516914" lon="9.786124236453368"><ele>543.0</ele><time>2026-04-19T13:06:24.96Z</time></trkpt><trkpt lat="44.45985890443311" lon="9.786150780509494"><ele>543.0</ele><time>2026-04-19T13:06:25.96Z</time></trkpt><trkpt lat="44.460020168686846" lon="9.786190525438583"><ele>543.0</ele><time>2026-04-19T13:06:26.96Z</time></trkpt><trkpt lat="44.46017025490464" lon="9.78625086591734"><ele>543.0</ele><time>2026-04-19T13:06:27.96Z</time></trkpt><trkpt lat="44.46031855563386" lon="9.786337768035919"><ele>545.6666666666666</ele><time>2026-04-19T13:06:28.96Z</time></trkpt><trkpt lat="44.46045536317166" lon="9.786479350331643"><ele>548.3333333333333</ele><time>2026-04-19T13:06:29.96Z</time></trkpt><trkpt lat="44.46056869907752" lon="9.786668290726338"><ele>551.0</ele><time>2026-04-19T13:06:30.96Z</time></trkpt><trkpt lat="44.46068467850836" lon="9.786860250336014"><ele>545.6666666666666</ele><time>2026-04-19T13:06:31.96Z</time></trkpt><trkpt lat="44.4608196536844" lon="9.787060292891109"><ele>540.3333333333334</ele><time>2026-04-19T13:06:32.96Z</time></trkpt><trkpt lat="44.460962700788926" lon="9.787266785732633"><ele>535.0</ele><time>2026-04-19T13:06:33.96Z</time></trkpt><trkpt lat="44.46110415961024" lon="9.787477967541655"><ele>534.3333333333334</ele><time>2026-04-19T13:06:34.96Z</time></trkpt><trkpt lat="44.46124981935005" lon="9.787696191016765"><ele>533.6666666666666</ele><time>2026-04-19T13:06:35.96Z</time></trkpt><trkpt lat="44.461399561251895" lon="9.7879152121469"><ele>533.0</ele><time>2026-04-19T13:06:36.96Z</time></trkpt><trkpt lat="44.46155748650478" lon="9.788138017611047"><ele>533.0</ele><time>2026-04-19T13:06:37.96Z</time></trkpt><trkpt lat="44.46171541347418" lon="9.788363916815818"><ele>533.0</ele><time>2026-04-19T13:06:38.96Z</time></trkpt><trkpt lat="44.46185717587732" lon="9.788573801332673"><ele>533.0</ele><time>2026-04-19T13:06:39.96Z</time></trkpt><trkpt lat="44.46199272798256" lon="9.788770664660118"><ele>531.3333333333333</ele><time>2026-04-19T13:06:40.96Z</time></trkpt><trkpt lat="44.46212543801587" lon="9.788961407567982"><ele>529.6666666666666</ele><time>2026-04-19T13:06:41.96Z</time></trkpt><trkpt lat="44.46225258206107" lon="9.789144709868326"><ele>528.0</ele><time>2026-04-19T13:06:42.96Z</time></trkpt><trkpt lat="44.46237550873948" lon="9.789321105895803"><ele>525.6666666666666</ele><time>2026-04-19T13:06:43.96Z</time></trkpt><trkpt lat="44.46248875206587" lon="9.789492368901945"><ele>523.3333333333333</ele><time>2026-04-19T13:06:44.96Z</time></trkpt><trkpt lat="44.462601287081576" lon="9.789656411327492"><ele>521.0</ele><time>2026-04-19T13:06:45.96Z</time></trkpt><trkpt lat="44.46270616957754" lon="9.78980619057347"><ele>521.0</ele><time>2026-04-19T13:06:46.96Z</time></trkpt><trkpt lat="44.46280665969637" lon="9.789935790728649"><ele>521.0</ele><time>2026-04-19T13:06:47.96Z</time></trkpt><trkpt lat="44.46292441123213" lon="9.790033597782573"><ele>521.0</ele><time>2026-04-19T13:06:48.96Z</time></trkpt><trkpt lat="44.463070864088834" lon="9.790096034319403"><ele>521.0</ele><time>2026-04-19T13:06:49.96Z</time></trkpt><trkpt lat="44.46324580675638" lon="9.790139934447101"><ele>517.3333333333333</ele><time>2026-04-19T13:06:50.96Z</time></trkpt><trkpt lat="44.463446433206" lon="9.790180593979805"><ele>513.6666666666666</ele><time>2026-04-19T13:06:51.96Z</time></trkpt><trkpt lat="44.463658711344905" lon="9.790225171144717"><ele>510.0</ele><time>2026-04-19T13:06:52.96Z</time></trkpt><trkpt lat="44.46388399993487" lon="9.790277389533442"><ele>510.0</ele><time>2026-04-19T13:06:53.96Z</time></trkpt><trkpt lat="44.46412281313517" lon="9.790339038196453"><ele>510.0</ele><time>2026-04-19T13:06:54.96Z</time></trkpt><trkpt lat="44.4643594898889" lon="9.790402462330857"><ele>510.0</ele><time>2026-04-19T13:06:55.961Z</time></trkpt><trkpt lat="44.464599595093794" lon="9.790462715835284"><ele>510.0</ele><time>2026-04-19T13:06:56.961Z</time></trkpt><trkpt lat="44.46483788661797" lon="9.790519383295953"><ele>510.5</ele><time>2026-04-19T13:06:57.961Z</time></trkpt><trkpt lat="44.465070897989094" lon="9.790580493114687"><ele>511.0</ele><time>2026-04-19T13:06:58.961Z</time></trkpt><trkpt lat="44.465300027794925" lon="9.790639618262363"><ele>509.5</ele><time>2026-04-19T13:06:59.961Z</time></trkpt><trkpt lat="44.4655285501155" lon="9.790696703650317"><ele>508.0</ele><time>2026-04-19T13:07:00.961Z</time></trkpt><trkpt lat="44.46575713663822" lon="9.790745688994928"><ele>508.0</ele><time>2026-04-19T13:07:01.961Z</time></trkpt><trkpt lat="44.46598483868479" lon="9.790797704075217"><ele>508.0</ele><time>2026-04-19T13:07:02.961Z</time></trkpt><trkpt lat="44.46620794396896" lon="9.790850155996225"><ele>508.6666666666667</ele><time>2026-04-19T13:07:03.961Z</time></trkpt><trkpt lat="44.46642960367474" lon="9.790901265687237"><ele>509.33333333333337</ele><time>2026-04-19T13:07:04.961Z</time></trkpt><trkpt lat="44.466641165323125" lon="9.790952305520987"><ele>510.0</ele><time>2026-04-19T13:07:05.961Z</time></trkpt><trkpt lat="44.46685053305918" lon="9.790998527610332"><ele>504.33333333333337</ele><time>2026-04-19T13:07:06.961Z</time></trkpt><trkpt lat="44.46703505452166" lon="9.79103597559433"><ele>498.6666666666667</ele><time>2026-04-19T13:07:07.961Z</time></trkpt><trkpt lat="44.467202993404776" lon="9.79107412420276"><ele>493.0</ele><time>2026-04-19T13:07:08.961Z</time></trkpt><trkpt lat="44.46736533857349" lon="9.791106203581874"><ele>492.75</ele><time>2026-04-19T13:07:09.961Z</time></trkpt><trkpt lat="44.46750469133008" lon="9.791136897063092"><ele>492.5</ele><time>2026-04-19T13:07:10.961Z</time></trkpt><trkpt lat="44.46762494666429" lon="9.791164609621404"><ele>492.25</ele><time>2026-04-19T13:07:11.961Z</time></trkpt><trkpt lat="44.46772562020584" lon="9.791209678452251"><ele>492.0</ele><time>2026-04-19T13:07:12.961Z</time></trkpt><trkpt lat="44.46780107834258" lon="9.791297818628818"><ele>492.0</ele><time>2026-04-19T13:07:13.961Z</time></trkpt><trkpt lat="44.467843725159774" lon="9.791450746605527"><ele>492.0</ele><time>2026-04-19T13:07:14.961Z</time></trkpt><trkpt lat="44.46788529448811" lon="9.791613733031854"><ele>492.0</ele><time>2026-04-19T13:07:15.961Z</time></trkpt><trkpt lat="44.46793665599436" lon="9.791783816730337"><ele>492.0</ele><time>2026-04-19T13:07:16.961Z</time></trkpt><trkpt lat="44.46799250578501" lon="9.791941429710109"><ele>494.8</ele><time>2026-04-19T13:07:17.961Z</time></trkpt><trkpt lat="44.46804621632391" lon="9.792076700566037"><ele>497.6</ele><time>2026-04-19T13:07:18.961Z</time></trkpt><trkpt lat="44.468113193235865" lon="9.792179503379169"><ele>500.40000000000003</ele><time>2026-04-19T13:07:19.961Z</time></trkpt><trkpt lat="44.46820786223097" lon="9.792258431742024"><ele>503.20000000000005</ele><time>2026-04-19T13:07:20.961Z</time></trkpt><trkpt lat="44.468325934281296" lon="9.792286269381599"><ele>506.0</ele><time>2026-04-19T13:07:21.961Z</time></trkpt><trkpt lat="44.46844406400843" lon="9.792266222434892"><ele>506.0</ele><time>2026-04-19T13:07:22.961Z</time></trkpt><trkpt lat="44.468584651886275" lon="9.792205323397683"><ele>506.0</ele><time>2026-04-19T13:07:23.961Z</time></trkpt><trkpt lat="44.46875750780084" lon="9.792124557464676"><ele>506.0</ele><time>2026-04-19T13:07:24.961Z</time></trkpt><trkpt lat="44.468949943528195" lon="9.79203170485229"><ele>508.3333333333333</ele><time>2026-04-19T13:07:25.961Z</time></trkpt><trkpt lat="44.469144542639185" lon="9.791943061813738"><ele>510.66666666666663</ele><time>2026-04-19T13:07:26.961Z</time></trkpt><trkpt lat="44.46932724869643" lon="9.791865628516511"><ele>513.0</ele><time>2026-04-19T13:07:27.961Z</time></trkpt><trkpt lat="44.469491641108796" lon="9.791770811319479"><ele>513.3333333333334</ele><time>2026-04-19T13:07:28.961Z</time></trkpt><trkpt lat="44.469633046557405" lon="9.791614369114352"><ele>513.6666666666667</ele><time>2026-04-19T13:07:29.961Z</time></trkpt><trkpt lat="44.46976211708317" lon="9.791451611430812"><ele>514.0</ele><time>2026-04-19T13:07:30.961Z</time></trkpt><trkpt lat="44.46987819669941" lon="9.791271347664084"><ele>514.0</ele><time>2026-04-19T13:07:31.961Z</time></trkpt><trkpt lat="44.469971497555306" lon="9.79110290249235"><ele>514.0</ele><time>2026-04-19T13:07:32.961Z</time></trkpt><trkpt lat="44.47006053849864" lon="9.790954825192934"><ele>514.0</ele><time>2026-04-19T13:07:33.961Z</time></trkpt><trkpt lat="44.47016456502849" lon="9.790844858909887"><ele>514.0</ele><time>2026-04-19T13:07:34.961Z</time></trkpt><trkpt lat="44.47029582749525" lon="9.790822953690853"><ele>509.6666666666667</ele><time>2026-04-19T13:07:35.961Z</time></trkpt><trkpt lat="44.470443197604666" lon="9.790814372780218"><ele>505.33333333333337</ele><time>2026-04-19T13:07:36.961Z</time></trkpt><trkpt lat="44.470609380603356" lon="9.790799391256789"><ele>501.0</ele><time>2026-04-19T13:07:37.961Z</time></trkpt><trkpt lat="44.47077373365262" lon="9.790771013471973"><ele>501.0</ele><time>2026-04-19T13:07:38.961Z</time></trkpt><trkpt lat="44.47092395990339" lon="9.790749808097909"><ele>501.0</ele><time>2026-04-19T13:07:39.961Z</time></trkpt><trkpt lat="44.47105761789114" lon="9.790719172000133"><ele>501.0</ele><time>2026-04-19T13:07:40.961Z</time></trkpt><trkpt lat="44.471182037625965" lon="9.790632860221855"><ele>501.0</ele><time>2026-04-19T13:07:41.961Z</time></trkpt><trkpt lat="44.47129106043772" lon="9.790486353545383"><ele>498.0</ele><time>2026-04-19T13:07:42.961Z</time></trkpt><trkpt lat="44.47139586764559" lon="9.790320074237615"><ele>495.0</ele><time>2026-04-19T13:07:43.961Z</time></trkpt><trkpt lat="44.47151876895596" lon="9.790137242994568"><ele>492.0</ele><time>2026-04-19T13:07:44.961Z</time></trkpt><trkpt lat="44.47165504232237" lon="9.789947417755604"><ele>492.0</ele><time>2026-04-19T13:07:45.961Z</time></trkpt><trkpt lat="44.47178378535081" lon="9.789757683842833"><ele>492.0</ele><time>2026-04-19T13:07:46.961Z</time></trkpt><trkpt lat="44.47191178091093" lon="9.78958928107822"><ele>492.0</ele><time>2026-04-19T13:07:47.961Z</time></trkpt><trkpt lat="44.47205764587908" lon="9.78944693139312"><ele>491.33333333333337</ele><time>2026-04-19T13:07:48.961Z</time></trkpt><trkpt lat="44.4722254026646" lon="9.789329613244945"><ele>490.6666666666667</ele><time>2026-04-19T13:07:49.961Z</time></trkpt><trkpt lat="44.47240403885718" lon="9.78921927222567"><ele>490.0</ele><time>2026-04-19T13:07:50.961Z</time></trkpt><trkpt lat="44.47257596783705" lon="9.789109215051544"><ele>490.0</ele><time>2026-04-19T13:07:51.961Z</time></trkpt><trkpt lat="44.47272889991966" lon="9.788985050873784"><ele>490.0</ele><time>2026-04-19T13:07:52.961Z</time></trkpt><trkpt lat="44.472867678854705" lon="9.788834144384413"><ele>490.0</ele><time>2026-04-19T13:07:53.961Z</time></trkpt><trkpt lat="44.472995540908386" lon="9.788639921994353"><ele>487.6666666666667</ele><time>2026-04-19T13:07:54.961Z</time></trkpt><trkpt lat="44.473117656323886" lon="9.788403889659163"><ele>485.33333333333337</ele><time>2026-04-19T13:07:55.961Z</time></trkpt><trkpt lat="44.47322800671347" lon="9.788128061106436"><ele>483.0</ele><time>2026-04-19T13:07:56.961Z</time></trkpt><trkpt lat="44.473346687769364" lon="9.787853816771012"><ele>477.5</ele><time>2026-04-19T13:07:57.961Z</time></trkpt><trkpt lat="44.473470583126335" lon="9.787566220225049"><ele>472.0</ele><time>2026-04-19T13:07:58.961Z</time></trkpt><trkpt lat="44.47360253818375" lon="9.787284743310575"><ele>472.0</ele><time>2026-04-19T13:07:59.959Z</time></trkpt><trkpt lat="44.47373493871614" lon="9.786997826613113"><ele>472.0</ele><time>2026-04-19T13:08:00.958Z</time></trkpt><trkpt lat="44.473861502810294" lon="9.786718992687648"><ele>473.6666666666667</ele><time>2026-04-19T13:08:01.958Z</time></trkpt><trkpt lat="44.47398861945884" lon="9.786458293736123"><ele>475.33333333333337</ele><time>2026-04-19T13:08:02.959Z</time></trkpt><trkpt lat="44.47410529568938" lon="9.786201248705549"><ele>477.0</ele><time>2026-04-19T13:08:03.958Z</time></trkpt><trkpt lat="44.4742179894061" lon="9.785966430397604"><ele>473.0</ele><time>2026-04-19T13:08:04.958Z</time></trkpt><trkpt lat="44.47432759902335" lon="9.785754155810567"><ele>469.0</ele><time>2026-04-19T13:08:05.958Z</time></trkpt><trkpt lat="44.474414735752816" lon="9.785559910615795"><ele>465.0</ele><time>2026-04-19T13:08:06.958Z</time></trkpt><trkpt lat="44.474493093562344" lon="9.785403306190192"><ele>465.0</ele><time>2026-04-19T13:08:07.958Z</time></trkpt><trkpt lat="44.47457666733101" lon="9.785262329374698"><ele>465.0</ele><time>2026-04-19T13:08:08.958Z</time></trkpt><trkpt lat="44.474669732346165" lon="9.785165346556877"><ele>465.0</ele><time>2026-04-19T13:08:09.958Z</time></trkpt><trkpt lat="44.474789184571115" lon="9.785116097980158"><ele>465.0</ele><time>2026-04-19T13:08:10.958Z</time></trkpt><trkpt lat="44.47493319408308" lon="9.785094626219648"><ele>463.66666666666663</ele><time>2026-04-19T13:08:11.958Z</time></trkpt><trkpt lat="44.47509533765037" lon="9.785097680594038"><ele>462.3333333333333</ele><time>2026-04-19T13:08:12.958Z</time></trkpt><trkpt lat="44.4752678980013" lon="9.785084644957914"><ele>461.0</ele><time>2026-04-19T13:08:13.958Z</time></trkpt><trkpt lat="44.47545760355316" lon="9.785060583711338"><ele>460.0</ele><time>2026-04-19T13:08:14.958Z</time></trkpt><trkpt lat="44.47566276388231" lon="9.785024016154596"><ele>459.0</ele><time>2026-04-19T13:08:15.958Z</time></trkpt><trkpt lat="44.4758657102395" lon="9.784998145816681"><ele>458.0</ele><time>2026-04-19T13:08:16.958Z</time></trkpt><trkpt lat="44.476055071058795" lon="9.784972115379668"><ele>458.0</ele><time>2026-04-19T13:08:17.958Z</time></trkpt><trkpt lat="44.4762213576565" lon="9.784948766151688"><ele>458.0</ele><time>2026-04-19T13:08:18.958Z</time></trkpt><trkpt lat="44.476384557122564" lon="9.78491040779672"><ele>458.0</ele><time>2026-04-19T13:08:19.958Z</time></trkpt><trkpt lat="44.476542623185736" lon="9.784837795137168"><ele>458.66666666666663</ele><time>2026-04-19T13:08:20.958Z</time></trkpt><trkpt lat="44.476697342715234" lon="9.784719077206892"><ele>459.33333333333337</ele><time>2026-04-19T13:08:21.958Z</time></trkpt><trkpt lat="44.47685987082848" lon="9.784576030970557"><ele>460.0</ele><time>2026-04-19T13:08:22.958Z</time></trkpt><trkpt lat="44.47702967024769" lon="9.784415882703128"><ele>460.0</ele><time>2026-04-19T13:08:23.958Z</time></trkpt><trkpt lat="44.47719758456692" lon="9.784259309440703"><ele>460.0</ele><time>2026-04-19T13:08:24.958Z</time></trkpt><trkpt lat="44.477352302128764" lon="9.784114946158647"><ele>460.0</ele><time>2026-04-19T13:08:25.958Z</time></trkpt><trkpt lat="44.47749542625683" lon="9.783986207127649"><ele>460.0</ele><time>2026-04-19T13:08:26.958Z</time></trkpt><trkpt lat="44.477617329408474" lon="9.783856214358575"><ele>460.0</ele><time>2026-04-19T13:08:27.958Z</time></trkpt><trkpt lat="44.4777209365247" lon="9.783697358408638"><ele>460.0</ele><time>2026-04-19T13:08:28.958Z</time></trkpt><trkpt lat="44.477797318454755" lon="9.783535680955659"><ele>460.0</ele><time>2026-04-19T13:08:29.958Z</time></trkpt><trkpt lat="44.47786290472838" lon="9.783384587909918"><ele>456.5</ele><time>2026-04-19T13:08:30.958Z</time></trkpt><trkpt lat="44.47795068391502" lon="9.783275663382936"><ele>453.0</ele><time>2026-04-19T13:08:31.958Z</time></trkpt><trkpt lat="44.47805664068503" lon="9.783227314885767"><ele>449.5</ele><time>2026-04-19T13:08:32.958Z</time></trkpt><trkpt lat="44.47816844897048" lon="9.783246309742191"><ele>446.0</ele><time>2026-04-19T13:08:33.958Z</time></trkpt><trkpt lat="44.47828384261869" lon="9.783327902022354"><ele>446.0</ele><time>2026-04-19T13:08:34.958Z</time></trkpt><trkpt lat="44.4783850999136" lon="9.783462812982386"><ele>446.0</ele><time>2026-04-19T13:08:35.958Z</time></trkpt><trkpt lat="44.47847002098554" lon="9.78363280719669"><ele>446.0</ele><time>2026-04-19T13:08:36.958Z</time></trkpt><trkpt lat="44.47855460060031" lon="9.7837907116754"><ele>446.0</ele><time>2026-04-19T13:08:37.958Z</time></trkpt><trkpt lat="44.47863298149431" lon="9.783914298371577"><ele>448.75</ele><time>2026-04-19T13:08:38.958Z</time></trkpt><trkpt lat="44.47871288540088" lon="9.7840110475794"><ele>451.5</ele><time>2026-04-19T13:08:39.958Z</time></trkpt><trkpt lat="44.478822919227746" lon="9.784005068844865"><ele>454.25</ele><time>2026-04-19T13:08:40.958Z</time></trkpt><trkpt lat="44.47895778940587" lon="9.78399317397018"><ele>457.0</ele><time>2026-04-19T13:08:41.958Z</time></trkpt><trkpt lat="44.479096263714666" lon="9.783932017349088"><ele>457.0</ele><time>2026-04-19T13:08:42.958Z</time></trkpt><trkpt lat="44.47926675603673" lon="9.783889031933596"><ele>457.0</ele><time>2026-04-19T13:08:43.958Z</time></trkpt><trkpt lat="44.47943923448447" lon="9.783849607595567"><ele>457.0</ele><time>2026-04-19T13:08:44.958Z</time></trkpt><trkpt lat="44.479616396144515" lon="9.783811095986652"><ele>456.33333333333337</ele><time>2026-04-19T13:08:45.958Z</time></trkpt><trkpt lat="44.47979650256111" lon="9.783746368429647"><ele>455.66666666666663</ele><time>2026-04-19T13:08:46.958Z</time></trkpt><trkpt lat="44.47996754038738" lon="9.783632107779093"><ele>455.0</ele><time>2026-04-19T13:08:47.958Z</time></trkpt><trkpt lat="44.480143602940345" lon="9.783481879560492"><ele>448.0</ele><time>2026-04-19T13:08:48.958Z</time></trkpt><trkpt lat="44.48032579730284" lon="9.783319634131297"><ele>441.0</ele><time>2026-04-19T13:08:49.958Z</time></trkpt><trkpt lat="44.48050906157201" lon="9.783155105060553"><ele>434.0</ele><time>2026-04-19T13:08:50.958Z</time></trkpt><trkpt lat="44.48069493912878" lon="9.782995960338214"><ele>434.0</ele><time>2026-04-19T13:08:51.958Z</time></trkpt><trkpt lat="44.480889983530574" lon="9.782835586441427"><ele>434.0</ele><time>2026-04-19T13:08:52.958Z</time></trkpt><trkpt lat="44.48109265579173" lon="9.782668796199838"><ele>429.5</ele><time>2026-04-19T13:08:53.958Z</time></trkpt><trkpt lat="44.481301079635614" lon="9.782495821972013"><ele>425.0</ele><time>2026-04-19T13:08:54.958Z</time></trkpt><trkpt lat="44.48151034404111" lon="9.782320607935686"><ele>425.0</ele><time>2026-04-19T13:08:55.958Z</time></trkpt><trkpt lat="44.481723283002495" lon="9.782137350329936"><ele>425.0</ele><time>2026-04-19T13:08:56.958Z</time></trkpt><trkpt lat="44.481939053261875" lon="9.78196205530738"><ele>422.0</ele><time>2026-04-19T13:08:57.958Z</time></trkpt><trkpt lat="44.48215573151678" lon="9.781786664000531"><ele>419.0</ele><time>2026-04-19T13:08:58.958Z</time></trkpt><trkpt lat="44.48237522016397" lon="9.78160880353623"><ele>419.0</ele><time>2026-04-19T13:08:59.958Z</time></trkpt><trkpt lat="44.48259332537872" lon="9.781430738905007"><ele>419.0</ele><time>2026-04-19T13:09:00.958Z</time></trkpt><trkpt lat="44.48280967344971" lon="9.781250157758512"><ele>417.5</ele><time>2026-04-19T13:09:01.958Z</time></trkpt><trkpt lat="44.48302942467844" lon="9.781069914303437"><ele>416.0</ele><time>2026-04-19T13:09:02.958Z</time></trkpt><trkpt lat="44.48324711102166" lon="9.780888185869884"><ele>416.0</ele><time>2026-04-19T13:09:03.958Z</time></trkpt><trkpt lat="44.483466074178416" lon="9.780703989914148"><ele>416.0</ele><time>2026-04-19T13:09:04.958Z</time></trkpt><trkpt lat="44.48368022358149" lon="9.780528246849466"><ele>414.5</ele><time>2026-04-19T13:09:05.958Z</time></trkpt><trkpt lat="44.48389169014397" lon="9.780352958593053"><ele>413.0</ele><time>2026-04-19T13:09:06.958Z</time></trkpt><trkpt lat="44.48410134674647" lon="9.780178058157167"><ele>412.0</ele><time>2026-04-19T13:09:07.958Z</time></trkpt><trkpt lat="44.4843037117235" lon="9.780006923171507"><ele>411.0</ele><time>2026-04-19T13:09:08.958Z</time></trkpt><trkpt lat="44.48449003441949" lon="9.779850956913279"><ele>411.0</ele><time>2026-04-19T13:09:09.958Z</time></trkpt><trkpt lat="44.48465630466146" lon="9.779716178402658"><ele>411.0</ele><time>2026-04-19T13:09:10.959Z</time></trkpt><trkpt lat="44.48479959047207" lon="9.779597097602293"><ele>411.0</ele><time>2026-04-19T13:09:11.959Z</time></trkpt><trkpt lat="44.484928002073715" lon="9.779487170490679"><ele>411.0</ele><time>2026-04-19T13:09:12.959Z</time></trkpt><trkpt lat="44.48504591958361" lon="9.779392036123612"><ele>411.0</ele><time>2026-04-19T13:09:13.959Z</time></trkpt><trkpt lat="44.48515351646305" lon="9.779304024861583"><ele>411.0</ele><time>2026-04-19T13:09:14.959Z</time></trkpt><trkpt lat="44.4852588155489" lon="9.779239185471607"><ele>411.0</ele><time>2026-04-19T13:09:15.959Z</time></trkpt><trkpt lat="44.48536477622911" lon="9.77918699527479"><ele>410.8333333333333</ele><time>2026-04-19T13:09:16.959Z</time></trkpt><trkpt lat="44.48546742770578" lon="9.779148352322974"><ele>410.66666666666663</ele><time>2026-04-19T13:09:17.959Z</time></trkpt><trkpt lat="44.48555442344522" lon="9.779119211931167"><ele>410.5</ele><time>2026-04-19T13:09:18.959Z</time></trkpt><trkpt lat="44.48563662834588" lon="9.779091570276751"><ele>410.3333333333333</ele><time>2026-04-19T13:09:19.959Z</time></trkpt><trkpt lat="44.4857025909366" lon="9.779081060753647"><ele>410.16666666666663</ele><time>2026-04-19T13:09:20.959Z</time></trkpt><trkpt lat="44.48578031979884" lon="9.779070511448115"><ele>410.0</ele><time>2026-04-19T13:09:22.959Z</time></trkpt><trkpt lat="44.485829497952366" lon="9.778972550417944"><ele>410.0</ele><time>2026-04-19T13:09:25.959Z</time></trkpt><trkpt lat="44.48583862532927" lon="9.778876192489767"><ele>410.0</ele><time>2026-04-19T13:09:26.959Z</time></trkpt><trkpt lat="44.485809154771815" lon="9.77871825876533"><ele>410.0</ele><time>2026-04-19T13:09:27.959Z</time></trkpt><trkpt lat="44.485778813457195" lon="9.778578347457179"><ele>410.0</ele><time>2026-04-19T13:09:28.959Z</time></trkpt><trkpt lat="44.48575135219234" lon="9.77842194496027"><ele>410.0</ele><time>2026-04-19T13:09:29.959Z</time></trkpt><trkpt lat="44.485738744328934" lon="9.77826378647734"><ele>409.75</ele><time>2026-04-19T13:09:30.959Z</time></trkpt><trkpt lat="44.48574277220414" lon="9.778107119003852"><ele>409.5</ele><time>2026-04-19T13:09:31.959Z</time></trkpt><trkpt lat="44.48576362551094" lon="9.777947566133667"><ele>409.25</ele><time>2026-04-19T13:09:32.959Z</time></trkpt><trkpt lat="44.48580522995031" lon="9.77779617164627"><ele>409.0</ele><time>2026-04-19T13:09:33.959Z</time></trkpt><trkpt lat="44.485857071159124" lon="9.777647690702517"><ele>409.0</ele><time>2026-04-19T13:09:34.959Z</time></trkpt><trkpt lat="44.48590746945157" lon="9.777500017524648"><ele>409.0</ele><time>2026-04-19T13:09:35.959Z</time></trkpt><trkpt lat="44.48596411381516" lon="9.777337634980212"><ele>409.0</ele><time>2026-04-19T13:09:36.959Z</time></trkpt><trkpt lat="44.48601719017062" lon="9.777172892671377"><ele>409.0</ele><time>2026-04-19T13:09:37.959Z</time></trkpt><trkpt lat="44.48607500587576" lon="9.777015642157389"><ele>409.0</ele><time>2026-04-19T13:09:38.959Z</time></trkpt><trkpt lat="44.4861343049556" lon="9.776856611519685"><ele>409.0</ele><time>2026-04-19T13:09:39.959Z</time></trkpt><trkpt lat="44.486189288263304" lon="9.776701875781534"><ele>409.0</ele><time>2026-04-19T13:09:40.959Z</time></trkpt><trkpt lat="44.486238301188635" lon="9.77654528595351"><ele>409.0</ele><time>2026-04-19T13:09:41.959Z</time></trkpt><trkpt lat="44.486298376750675" lon="9.77639392994381"><ele>408.0</ele><time>2026-04-19T13:09:42.959Z</time></trkpt><trkpt lat="44.486353365571915" lon="9.776242598945624"><ele>407.0</ele><time>2026-04-19T13:09:43.959Z</time></trkpt><trkpt lat="44.48640097971981" lon="9.776094950436669"><ele>406.0</ele><time>2026-04-19T13:09:44.959Z</time></trkpt><trkpt lat="44.48645878479972" lon="9.775954802164287"><ele>405.0</ele><time>2026-04-19T13:09:45.959Z</time></trkpt><trkpt lat="44.486516685435795" lon="9.775799873076942"><ele>405.0</ele><time>2026-04-19T13:09:46.959Z</time></trkpt><trkpt lat="44.486569031388974" lon="9.775649428891098"><ele>405.0</ele><time>2026-04-19T13:09:47.959Z</time></trkpt><trkpt lat="44.48662270934078" lon="9.775490526091662"><ele>405.0</ele><time>2026-04-19T13:09:48.959Z</time></trkpt><trkpt lat="44.48667550315752" lon="9.775333065507755"><ele>405.0</ele><time>2026-04-19T13:09:49.959Z</time></trkpt><trkpt lat="44.486724180122266" lon="9.775179654247165"><ele>404.75</ele><time>2026-04-19T13:09:50.959Z</time></trkpt><trkpt lat="44.48675561795874" lon="9.77502138869372"><ele>404.5</ele><time>2026-04-19T13:09:51.959Z</time></trkpt><trkpt lat="44.48676913769969" lon="9.774853158374594"><ele>404.25</ele><time>2026-04-19T13:09:52.959Z</time></trkpt><trkpt lat="44.48676721456718" lon="9.774696480126744"><ele>404.0</ele><time>2026-04-19T13:09:53.959Z</time></trkpt><trkpt lat="44.486735054216304" lon="9.77453147549883"><ele>404.0</ele><time>2026-04-19T13:09:54.959Z</time></trkpt><trkpt lat="44.4867125342586" lon="9.774355301933545"><ele>404.0</ele><time>2026-04-19T13:09:55.959Z</time></trkpt><trkpt lat="44.48670303263093" lon="9.774185331926375"><ele>404.0</ele><time>2026-04-19T13:09:56.959Z</time></trkpt><trkpt lat="44.486690986585685" lon="9.774017964011275"><ele>404.0</ele><time>2026-04-19T13:09:57.959Z</time></trkpt><trkpt lat="44.48667808271079" lon="9.773852346148251"><ele>403.5</ele><time>2026-04-19T13:09:58.959Z</time></trkpt><trkpt lat="44.48666362343579" lon="9.773683018172083"><ele>403.0</ele><time>2026-04-19T13:09:59.959Z</time></trkpt><trkpt lat="44.486649930988655" lon="9.77351253529393"><ele>402.5</ele><time>2026-04-19T13:10:00.959Z</time></trkpt><trkpt lat="44.48663064221454" lon="9.773336284109288"><ele>402.0</ele><time>2026-04-19T13:10:01.959Z</time></trkpt><trkpt lat="44.486614719798865" lon="9.773159189905767"><ele>401.5</ele><time>2026-04-19T13:10:02.959Z</time></trkpt><trkpt lat="44.48660273683862" lon="9.77299523152121"><ele>401.0</ele><time>2026-04-19T13:10:03.959Z</time></trkpt><trkpt lat="44.48658096154541" lon="9.772828483674822"><ele>400.5</ele><time>2026-04-19T13:10:04.959Z</time></trkpt><trkpt lat="44.486559717981656" lon="9.772663434967154"><ele>400.0</ele><time>2026-04-19T13:10:05.957Z</time></trkpt><trkpt lat="44.486537113533096" lon="9.77248964741185"><ele>399.5</ele><time>2026-04-19T13:10:06.957Z</time></trkpt><trkpt lat="44.48650727399653" lon="9.77232680795741"><ele>399.0</ele><time>2026-04-19T13:10:07.957Z</time></trkpt><trkpt lat="44.486465345875715" lon="9.772169071746491"><ele>398.5</ele><time>2026-04-19T13:10:08.957Z</time></trkpt><trkpt lat="44.48642033968761" lon="9.772010775363853"><ele>398.0</ele><time>2026-04-19T13:10:09.957Z</time></trkpt><trkpt lat="44.48637435456921" lon="9.771858858198867"><ele>398.5</ele><time>2026-04-19T13:10:10.957Z</time></trkpt><trkpt lat="44.48633042687785" lon="9.771698807206866"><ele>399.0</ele><time>2026-04-19T13:10:11.956Z</time></trkpt><trkpt lat="44.48628542238323" lon="9.771544779878258"><ele>399.5</ele><time>2026-04-19T13:10:12.957Z</time></trkpt><trkpt lat="44.486237486238686" lon="9.771402598166143"><ele>400.0</ele><time>2026-04-19T13:10:13.957Z</time></trkpt><trkpt lat="44.48619537845455" lon="9.771274956218155"><ele>400.0</ele><time>2026-04-19T13:10:14.957Z</time></trkpt><trkpt lat="44.48614223093517" lon="9.771151361146812"><ele>400.0</ele><time>2026-04-19T13:10:15.957Z</time></trkpt><trkpt lat="44.48608918808045" lon="9.771042234171103"><ele>400.0</ele><time>2026-04-19T13:10:16.957Z</time></trkpt><trkpt lat="44.48604499379055" lon="9.770946255740606"><ele>400.0</ele><time>2026-04-19T13:10:17.957Z</time></trkpt><trkpt lat="44.48600588229629" lon="9.770863251461662"><ele>400.0</ele><time>2026-04-19T13:10:18.957Z</time></trkpt><trkpt lat="44.485949940101364" lon="9.77071217689897"><ele>400.0</ele><time>2026-04-19T13:10:20.957Z</time></trkpt><trkpt lat="44.48590476182092" lon="9.770648253444994"><ele>400.0</ele><time>2026-04-19T13:10:21.957Z</time></trkpt><trkpt lat="44.48578169160614" lon="9.770617936307179"><ele>400.0</ele><time>2026-04-19T13:10:23.957Z</time></trkpt><trkpt lat="44.485707055981905" lon="9.770606418401243"><ele>400.0</ele><time>2026-04-19T13:10:24.957Z</time></trkpt><trkpt lat="44.48562373225646" lon="9.770557467570233"><ele>400.0</ele><time>2026-04-19T13:10:25.957Z</time></trkpt><trkpt lat="44.48553898400076" lon="9.770485107633224"><ele>400.0</ele><time>2026-04-19T13:10:26.957Z</time></trkpt><trkpt lat="44.48544134084743" lon="9.7703843236669"><ele>400.0</ele><time>2026-04-19T13:10:27.957Z</time></trkpt><trkpt lat="44.48533712501935" lon="9.770257007547276"><ele>400.0</ele><time>2026-04-19T13:10:28.957Z</time></trkpt><trkpt lat="44.485234799936684" lon="9.770108257533828"><ele>400.0</ele><time>2026-04-19T13:10:29.957Z</time></trkpt><trkpt lat="44.485140326838724" lon="9.769921636068759"><ele>400.0</ele><time>2026-04-19T13:10:30.957Z</time></trkpt><trkpt lat="44.48504948114119" lon="9.769711536002578"><ele>400.0</ele><time>2026-04-19T13:10:31.957Z</time></trkpt><trkpt lat="44.48495556958625" lon="9.769490431121097"><ele>400.0</ele><time>2026-04-19T13:10:32.957Z</time></trkpt><trkpt lat="44.484859144128805" lon="9.769255232464127"><ele>400.0</ele><time>2026-04-19T13:10:33.957Z</time></trkpt><trkpt lat="44.484765293250376" lon="9.769034942812088"><ele>400.0</ele><time>2026-04-19T13:10:34.957Z</time></trkpt><trkpt lat="44.484682921661694" lon="9.768842120244134"><ele>400.0</ele><time>2026-04-19T13:10:35.957Z</time></trkpt><trkpt lat="44.48460806326322" lon="9.768659025548438"><ele>403.25</ele><time>2026-04-19T13:10:36.957Z</time></trkpt><trkpt lat="44.48453498411699" lon="9.768476043449127"><ele>406.5</ele><time>2026-04-19T13:10:37.957Z</time></trkpt><trkpt lat="44.484470869972135" lon="9.768280286261463"><ele>409.75</ele><time>2026-04-19T13:10:38.957Z</time></trkpt><trkpt lat="44.48442290866524" lon="9.768086927722377"><ele>413.0</ele><time>2026-04-19T13:10:39.957Z</time></trkpt><trkpt lat="44.484382836843686" lon="9.767913215957712"><ele>413.0</ele><time>2026-04-19T13:10:40.957Z</time></trkpt><trkpt lat="44.48434762824771" lon="9.767758443514163"><ele>413.0</ele><time>2026-04-19T13:10:41.957Z</time></trkpt><trkpt lat="44.48432058755673" lon="9.767629859176212"><ele>413.0</ele><time>2026-04-19T13:10:42.957Z</time></trkpt><trkpt lat="44.484305830726036" lon="9.767510847550712"><ele>413.0</ele><time>2026-04-19T13:10:43.957Z</time></trkpt><trkpt lat="44.48431247093766" lon="9.767396082433203"><ele>413.0</ele><time>2026-04-19T13:10:44.957Z</time></trkpt><trkpt lat="44.484325103915886" lon="9.76727885681609"><ele>412.4</ele><time>2026-04-19T13:10:45.957Z</time></trkpt><trkpt lat="44.484311706300076" lon="9.7671588238638"><ele>411.79999999999995</ele><time>2026-04-19T13:10:46.957Z</time></trkpt><trkpt lat="44.484290409917016" lon="9.767023355617644"><ele>411.2</ele><time>2026-04-19T13:10:47.957Z</time></trkpt><trkpt lat="44.48425647647747" lon="9.766879458723862"><ele>410.6</ele><time>2026-04-19T13:10:48.957Z</time></trkpt><trkpt lat="44.48423100077396" lon="9.766723128144038"><ele>410.0</ele><time>2026-04-19T13:10:49.957Z</time></trkpt><trkpt lat="44.48420808303157" lon="9.766558134498487"><ele>409.0</ele><time>2026-04-19T13:10:50.957Z</time></trkpt><trkpt lat="44.48417384723873" lon="9.766399551778685"><ele>408.0</ele><time>2026-04-19T13:10:51.957Z</time></trkpt><trkpt lat="44.484137946773565" lon="9.76625531884594"><ele>407.0</ele><time>2026-04-19T13:10:52.957Z</time></trkpt><trkpt lat="44.48409277203254" lon="9.766121513029107"><ele>406.0</ele><time>2026-04-19T13:10:53.957Z</time></trkpt><trkpt lat="44.48404631986181" lon="9.76600860166991"><ele>405.0</ele><time>2026-04-19T13:10:54.957Z</time></trkpt><trkpt lat="44.48398935745761" lon="9.765905056485572"><ele>403.6</ele><time>2026-04-19T13:10:55.957Z</time></trkpt><trkpt lat="44.483939117600194" lon="9.765796863116272"><ele>402.2</ele><time>2026-04-19T13:10:56.957Z</time></trkpt><trkpt lat="44.483885793310755" lon="9.765691870279207"><ele>400.79999999999995</ele><time>2026-04-19T13:10:57.957Z</time></trkpt><trkpt lat="44.483833369787746" lon="9.765576660000304"><ele>399.4</ele><time>2026-04-19T13:10:58.957Z</time></trkpt><trkpt lat="44.48377985652815" lon="9.765456085620562"><ele>398.0</ele><time>2026-04-19T13:10:59.957Z</time></trkpt><trkpt lat="44.48371960465257" lon="9.765337877296902"><ele>400.2</ele><time>2026-04-19T13:11:00.957Z</time></trkpt><trkpt lat="44.48366684266974" lon="9.765226164483535"><ele>402.4</ele><time>2026-04-19T13:11:01.957Z</time></trkpt><trkpt lat="44.48361655032346" lon="9.76510590172894"><ele>404.59999999999997</ele><time>2026-04-19T13:11:02.957Z</time></trkpt><trkpt lat="44.48356300851903" lon="9.76498191336856"><ele>406.79999999999995</ele><time>2026-04-19T13:11:03.957Z</time></trkpt><trkpt lat="44.48350924852729" lon="9.764858521509948"><ele>409.0</ele><time>2026-04-19T13:11:04.957Z</time></trkpt><trkpt lat="44.48346213893646" lon="9.764721902216023"><ele>409.0</ele><time>2026-04-19T13:11:05.957Z</time></trkpt><trkpt lat="44.483405371667594" lon="9.7645473573606"><ele>409.0</ele><time>2026-04-19T13:11:06.957Z</time></trkpt><trkpt lat="44.48334520441522" lon="9.764339557202819"><ele>409.0</ele><time>2026-04-19T13:11:07.957Z</time></trkpt><trkpt lat="44.48328549417904" lon="9.76412987905872"><ele>406.6666666666667</ele><time>2026-04-19T13:11:08.957Z</time></trkpt><trkpt lat="44.483227853880784" lon="9.763917350519177"><ele>404.33333333333337</ele><time>2026-04-19T13:11:09.957Z</time></trkpt><trkpt lat="44.48317084855936" lon="9.763704259350217"><ele>402.0</ele><time>2026-04-19T13:11:10.957Z</time></trkpt><trkpt lat="44.483107319323864" lon="9.763497423097084"><ele>402.0</ele><time>2026-04-19T13:11:11.957Z</time></trkpt><trkpt lat="44.48305176358036" lon="9.76330363485893"><ele>402.0</ele><time>2026-04-19T13:11:12.957Z</time></trkpt><trkpt lat="44.48299811705915" lon="9.763112948172227"><ele>402.0</ele><time>2026-04-19T13:11:13.957Z</time></trkpt><trkpt lat="44.48294456934506" lon="9.762914700674635"><ele>402.0</ele><time>2026-04-19T13:11:14.957Z</time></trkpt><trkpt lat="44.48289127419697" lon="9.762713140868202"><ele>402.66666666666663</ele><time>2026-04-19T13:11:15.957Z</time></trkpt><trkpt lat="44.48283746914125" lon="9.762500739815525"><ele>403.3333333333333</ele><time>2026-04-19T13:11:16.957Z</time></trkpt><trkpt lat="44.48278017469592" lon="9.762287791007651"><ele>404.0</ele><time>2026-04-19T13:11:17.957Z</time></trkpt><trkpt lat="44.48272104172448" lon="9.762070341922321"><ele>403.66666666666663</ele><time>2026-04-19T13:11:18.957Z</time></trkpt><trkpt lat="44.48266094646708" lon="9.761842306483922"><ele>403.33333333333337</ele><time>2026-04-19T13:11:19.957Z</time></trkpt><trkpt lat="44.48259483696554" lon="9.761609187627133"><ele>403.0</ele><time>2026-04-19T13:11:20.957Z</time></trkpt><trkpt lat="44.482533072303276" lon="9.761372179028424"><ele>403.0</ele><time>2026-04-19T13:11:21.957Z</time></trkpt><trkpt lat="44.482468673615266" lon="9.7611337756448"><ele>403.0</ele><time>2026-04-19T13:11:22.957Z</time></trkpt><trkpt lat="44.48240319904494" lon="9.76089065364675"><ele>403.0</ele><time>2026-04-19T13:11:23.957Z</time></trkpt><trkpt lat="44.482337101152524" lon="9.760649163075934"><ele>403.6666666666667</ele><time>2026-04-19T13:11:24.957Z</time></trkpt><trkpt lat="44.4822733487176" lon="9.7604041761812"><ele>404.33333333333337</ele><time>2026-04-19T13:11:25.957Z</time></trkpt><trkpt lat="44.48220612798174" lon="9.760158492605072"><ele>405.0</ele><time>2026-04-19T13:11:26.957Z</time></trkpt><trkpt lat="44.48213420800582" lon="9.759915693906713"><ele>408.33333333333337</ele><time>2026-04-19T13:11:27.957Z</time></trkpt><trkpt lat="44.48206073771405" lon="9.759678681991353"><ele>411.6666666666667</ele><time>2026-04-19T13:11:28.957Z</time></trkpt><trkpt lat="44.481984184687946" lon="9.759447715321857"><ele>415.0</ele><time>2026-04-19T13:11:29.957Z</time></trkpt><trkpt lat="44.481910643600905" lon="9.75921930738657"><ele>415.0</ele><time>2026-04-19T13:11:30.957Z</time></trkpt><trkpt lat="44.481839121084306" lon="9.759003999527417"><ele>415.0</ele><time>2026-04-19T13:11:31.957Z</time></trkpt><trkpt lat="44.481771643969644" lon="9.758797161942816"><ele>415.0</ele><time>2026-04-19T13:11:32.957Z</time></trkpt><trkpt lat="44.4817122422963" lon="9.758582097323764"><ele>415.6666666666667</ele><time>2026-04-19T13:11:33.957Z</time></trkpt><trkpt lat="44.48166635404847" lon="9.758361540488316"><ele>416.33333333333337</ele><time>2026-04-19T13:11:34.957Z</time></trkpt><trkpt lat="44.48164180138618" lon="9.75812602467478"><ele>417.0</ele><time>2026-04-19T13:11:35.957Z</time></trkpt><trkpt lat="44.481604720751946" lon="9.757888976691522"><ele>417.0</ele><time>2026-04-19T13:11:36.957Z</time></trkpt><trkpt lat="44.481588386551344" lon="9.757653235184835"><ele>417.0</ele><time>2026-04-19T13:11:37.957Z</time></trkpt><trkpt lat="44.481559748514265" lon="9.75742475812897"><ele>417.0</ele><time>2026-04-19T13:11:38.957Z</time></trkpt><trkpt lat="44.48153764289811" lon="9.757203353806105"><ele>417.0</ele><time>2026-04-19T13:11:39.957Z</time></trkpt><trkpt lat="44.48150797226612" lon="9.756982910182153"><ele>417.0</ele><time>2026-04-19T13:11:40.957Z</time></trkpt><trkpt lat="44.48147035802941" lon="9.756762458626397"><ele>417.0</ele><time>2026-04-19T13:11:41.957Z</time></trkpt><trkpt lat="44.481429471752556" lon="9.756550013779329"><ele>417.0</ele><time>2026-04-19T13:11:42.957Z</time></trkpt><trkpt lat="44.48138375035667" lon="9.756347179826765"><ele>417.0</ele><time>2026-04-19T13:11:43.957Z</time></trkpt><trkpt lat="44.481340790258685" lon="9.756129072174488"><ele>417.0</ele><time>2026-04-19T13:11:44.957Z</time></trkpt><trkpt lat="44.48130543476971" lon="9.755895020633893"><ele>417.0</ele><time>2026-04-19T13:11:45.957Z</time></trkpt><trkpt lat="44.4812842107644" lon="9.755657888955968"><ele>417.0</ele><time>2026-04-19T13:11:46.957Z</time></trkpt><trkpt lat="44.48128797381597" lon="9.75541358019797"><ele>417.0</ele><time>2026-04-19T13:11:47.957Z</time></trkpt><trkpt lat="44.481312487932975" lon="9.755178000148504"><ele>415.66666666666663</ele><time>2026-04-19T13:11:48.957Z</time></trkpt><trkpt lat="44.4813407899056" lon="9.754938542612633"><ele>414.3333333333333</ele><time>2026-04-19T13:11:49.957Z</time></trkpt><trkpt lat="44.48135782142182" lon="9.754712717291449"><ele>413.0</ele><time>2026-04-19T13:11:50.957Z</time></trkpt><trkpt lat="44.48136805068233" lon="9.75450825526734"><ele>412.5</ele><time>2026-04-19T13:11:51.957Z</time></trkpt><trkpt lat="44.48136528518152" lon="9.754322745366913"><ele>412.0</ele><time>2026-04-19T13:11:52.957Z</time></trkpt><trkpt lat="44.48133183865686" lon="9.75415558502303"><ele>411.5</ele><time>2026-04-19T13:11:53.957Z</time></trkpt><trkpt lat="44.48126060836481" lon="9.753997540304702"><ele>411.0</ele><time>2026-04-19T13:11:54.957Z</time></trkpt><trkpt lat="44.48114616166284" lon="9.753855373581807"><ele>413.66666666666663</ele><time>2026-04-19T13:11:55.957Z</time></trkpt><trkpt lat="44.48098803018044" lon="9.753690958974554"><ele>416.3333333333333</ele><time>2026-04-19T13:11:56.957Z</time></trkpt><trkpt lat="44.48082790556196" lon="9.75349596336318"><ele>419.0</ele><time>2026-04-19T13:11:57.957Z</time></trkpt><trkpt lat="44.48067558658852" lon="9.753273921955484"><ele>419.0</ele><time>2026-04-19T13:11:58.957Z</time></trkpt><trkpt lat="44.48050880334517" lon="9.753031543636755"><ele>419.0</ele><time>2026-04-19T13:11:59.957Z</time></trkpt><trkpt lat="44.48033976700029" lon="9.75279316798254"><ele>420.3333333333333</ele><time>2026-04-19T13:12:00.957Z</time></trkpt><trkpt lat="44.480191088966286" lon="9.752578087228567"><ele>421.66666666666663</ele><time>2026-04-19T13:12:01.957Z</time></trkpt><trkpt lat="44.48007229447232" lon="9.752371225197043"><ele>423.0</ele><time>2026-04-19T13:12:02.957Z</time></trkpt><trkpt lat="44.47997136654907" lon="9.752161165926884"><ele>423.0</ele><time>2026-04-19T13:12:03.957Z</time></trkpt><trkpt lat="44.4798861624041" lon="9.751933556658733"><ele>423.0</ele><time>2026-04-19T13:12:04.957Z</time></trkpt><trkpt lat="44.479796297139714" lon="9.751696616727486"><ele>423.0</ele><time>2026-04-19T13:12:05.957Z</time></trkpt><trkpt lat="44.47969440802176" lon="9.751455051612588"><ele>426.33333333333337</ele><time>2026-04-19T13:12:06.957Z</time></trkpt><trkpt lat="44.47958386758825" lon="9.751206609452343"><ele>429.6666666666667</ele><time>2026-04-19T13:12:07.957Z</time></trkpt><trkpt lat="44.479476301386015" lon="9.750966341804476"><ele>433.0</ele><time>2026-04-19T13:12:08.957Z</time></trkpt><trkpt lat="44.47937223831759" lon="9.750729163172641"><ele>433.0</ele><time>2026-04-19T13:12:09.957Z</time></trkpt><trkpt lat="44.479256614214805" lon="9.75052464287216"><ele>433.0</ele><time>2026-04-19T13:12:10.957Z</time></trkpt><trkpt lat="44.47913862128045" lon="9.750341579976917"><ele>433.0</ele><time>2026-04-19T13:12:11.956Z</time></trkpt><trkpt lat="44.47902466254623" lon="9.75018312087363"><ele>435.6666666666667</ele><time>2026-04-19T13:12:12.956Z</time></trkpt><trkpt lat="44.47892365870098" lon="9.750020182046363"><ele>438.33333333333337</ele><time>2026-04-19T13:12:13.956Z</time></trkpt><trkpt lat="44.47883313413108" lon="9.749829964760853"><ele>441.0</ele><time>2026-04-19T13:12:14.956Z</time></trkpt><trkpt lat="44.47876563793156" lon="9.749613991804631"><ele>441.0</ele><time>2026-04-19T13:12:15.955Z</time></trkpt><trkpt lat="44.4787149366096" lon="9.749377196705762"><ele>441.0</ele><time>2026-04-19T13:12:16.955Z</time></trkpt><trkpt lat="44.47866202043506" lon="9.749145080953696"><ele>441.0</ele><time>2026-04-19T13:12:17.955Z</time></trkpt><trkpt lat="44.47862008031846" lon="9.74891570850331"><ele>439.66666666666663</ele><time>2026-04-19T13:12:18.955Z</time></trkpt><trkpt lat="44.47858320544421" lon="9.748686699872211"><ele>438.3333333333333</ele><time>2026-04-19T13:12:19.955Z</time></trkpt><trkpt lat="44.47855335761743" lon="9.748449207570854"><ele>437.0</ele><time>2026-04-19T13:12:20.956Z</time></trkpt><trkpt lat="44.47854982038916" lon="9.748193431423466"><ele>435.0</ele><time>2026-04-19T13:12:21.955Z</time></trkpt><trkpt lat="44.478537728508" lon="9.747950838798245"><ele>433.0</ele><time>2026-04-19T13:12:22.955Z</time></trkpt><trkpt lat="44.47852697285933" lon="9.747723296062631"><ele>431.0</ele><time>2026-04-19T13:12:23.955Z</time></trkpt><trkpt lat="44.47850921901643" lon="9.747504964104868"><ele>428.66666666666663</ele><time>2026-04-19T13:12:24.955Z</time></trkpt><trkpt lat="44.4784841790847" lon="9.747304638458093"><ele>426.33333333333337</ele><time>2026-04-19T13:12:25.955Z</time></trkpt><trkpt lat="44.47845464090787" lon="9.747100195338959"><ele>424.0</ele><time>2026-04-19T13:12:26.955Z</time></trkpt><trkpt lat="44.478400446628086" lon="9.746892904198447"><ele>422.33333333333337</ele><time>2026-04-19T13:12:27.955Z</time></trkpt><trkpt lat="44.47832473527504" lon="9.746691779682653"><ele>420.66666666666663</ele><time>2026-04-19T13:12:28.955Z</time></trkpt><trkpt lat="44.47823076848599" lon="9.746488069170997"><ele>419.0</ele><time>2026-04-19T13:12:29.955Z</time></trkpt><trkpt lat="44.47812929982785" lon="9.746285591319698"><ele>419.0</ele><time>2026-04-19T13:12:30.955Z</time></trkpt><trkpt lat="44.47801797451303" lon="9.746091623839192"><ele>419.0</ele><time>2026-04-19T13:12:31.955Z</time></trkpt><trkpt lat="44.47790934265204" lon="9.74589272160584"><ele>419.0</ele><time>2026-04-19T13:12:32.955Z</time></trkpt><trkpt lat="44.47780047496382" lon="9.74569618176655"><ele>421.3333333333333</ele><time>2026-04-19T13:12:33.955Z</time></trkpt><trkpt lat="44.47769851511908" lon="9.745501472475077"><ele>423.66666666666663</ele><time>2026-04-19T13:12:34.955Z</time></trkpt><trkpt lat="44.47761579916297" lon="9.745293049329156"><ele>426.0</ele><time>2026-04-19T13:12:35.955Z</time></trkpt><trkpt lat="44.4775578073368" lon="9.745062047306494"><ele>426.0</ele><time>2026-04-19T13:12:36.955Z</time></trkpt><trkpt lat="44.47751460110873" lon="9.744806387110646"><ele>426.0</ele><time>2026-04-19T13:12:37.955Z</time></trkpt><trkpt lat="44.47747715275157" lon="9.744547568976305"><ele>426.0</ele><time>2026-04-19T13:12:38.955Z</time></trkpt><trkpt lat="44.47744223129341" lon="9.744290689727386"><ele>424.66666666666663</ele><time>2026-04-19T13:12:39.955Z</time></trkpt><trkpt lat="44.47740925946037" lon="9.744032971826961"><ele>423.3333333333333</ele><time>2026-04-19T13:12:40.955Z</time></trkpt><trkpt lat="44.47737284001389" lon="9.743784268015906"><ele>422.0</ele><time>2026-04-19T13:12:41.955Z</time></trkpt><trkpt lat="44.47735077890302" lon="9.743530868454242"><ele>421.66666666666663</ele><time>2026-04-19T13:12:42.955Z</time></trkpt><trkpt lat="44.47734676810797" lon="9.743273134862468"><ele>421.33333333333337</ele><time>2026-04-19T13:12:43.955Z</time></trkpt><trkpt lat="44.477355287631205" lon="9.74301843629995"><ele>421.0</ele><time>2026-04-19T13:12:44.955Z</time></trkpt><trkpt lat="44.4773643630942" lon="9.742790308445368"><ele>421.5</ele><time>2026-04-19T13:12:45.955Z</time></trkpt><trkpt lat="44.477366258252864" lon="9.742579450805525"><ele>422.0</ele><time>2026-04-19T13:12:46.955Z</time></trkpt><trkpt lat="44.47735826786387" lon="9.742386526399557"><ele>422.5</ele><time>2026-04-19T13:12:47.955Z</time></trkpt><trkpt lat="44.47729966799124" lon="9.742206022990858"><ele>423.0</ele><time>2026-04-19T13:12:48.955Z</time></trkpt><trkpt lat="44.477225172030046" lon="9.742037421855086"><ele>423.0</ele><time>2026-04-19T13:12:49.955Z</time></trkpt><trkpt lat="44.4771122741632" lon="9.741886443870222"><ele>423.0</ele><time>2026-04-19T13:12:50.955Z</time></trkpt><trkpt lat="44.47695701165726" lon="9.741747690637276"><ele>423.0</ele><time>2026-04-19T13:12:51.955Z</time></trkpt><trkpt lat="44.47677953350412" lon="9.741639673617481"><ele>425.33333333333337</ele><time>2026-04-19T13:12:52.955Z</time></trkpt><trkpt lat="44.47660328810716" lon="9.74152317658895"><ele>427.6666666666667</ele><time>2026-04-19T13:12:53.955Z</time></trkpt><trkpt lat="44.476398843400474" lon="9.741372371525086"><ele>430.0</ele><time>2026-04-19T13:12:54.955Z</time></trkpt><trkpt lat="44.47621941489672" lon="9.741216852006296"><ele>429.33333333333337</ele><time>2026-04-19T13:12:55.955Z</time></trkpt><trkpt lat="44.47606644688562" lon="9.741056169636842"><ele>428.66666666666663</ele><time>2026-04-19T13:12:56.955Z</time></trkpt><trkpt lat="44.47591626137159" lon="9.740907265521308"><ele>428.0</ele><time>2026-04-19T13:12:57.955Z</time></trkpt><trkpt lat="44.47578360929505" lon="9.74076183543773"><ele>428.0</ele><time>2026-04-19T13:12:58.955Z</time></trkpt><trkpt lat="44.47565464903376" lon="9.740596069775304"><ele>428.0</ele><time>2026-04-19T13:12:59.955Z</time></trkpt><trkpt lat="44.47556368541227" lon="9.740404231694681"><ele>428.0</ele><time>2026-04-19T13:13:00.955Z</time></trkpt><trkpt lat="44.47550323580602" lon="9.740188312649865"><ele>432.66666666666663</ele><time>2026-04-19T13:13:01.956Z</time></trkpt><trkpt lat="44.47543484880546" lon="9.739954079210563"><ele>437.33333333333337</ele><time>2026-04-19T13:13:02.956Z</time></trkpt><trkpt lat="44.47533675585447" lon="9.739740777759186"><ele>442.0</ele><time>2026-04-19T13:13:03.956Z</time></trkpt><trkpt lat="44.47521288564582" lon="9.739541493845772"><ele>437.0</ele><time>2026-04-19T13:13:04.956Z</time></trkpt><trkpt lat="44.47507046692715" lon="9.73936127757436"><ele>432.0</ele><time>2026-04-19T13:13:05.956Z</time></trkpt><trkpt lat="44.474937033323215" lon="9.739165772798232"><ele>427.0</ele><time>2026-04-19T13:13:06.956Z</time></trkpt><trkpt lat="44.474821410618496" lon="9.73895154556597"><ele>427.0</ele><time>2026-04-19T13:13:07.956Z</time></trkpt><trkpt lat="44.474743730357204" lon="9.738713426383375"><ele>427.0</ele><time>2026-04-19T13:13:08.956Z</time></trkpt><trkpt lat="44.474678731692016" lon="9.738469716299438"><ele>427.0</ele><time>2026-04-19T13:13:09.956Z</time></trkpt><trkpt lat="44.47460186449352" lon="9.738245521296127"><ele>428.6666666666667</ele><time>2026-04-19T13:13:10.956Z</time></trkpt><trkpt lat="44.4745219422437" lon="9.738037549659472"><ele>430.33333333333337</ele><time>2026-04-19T13:13:11.956Z</time></trkpt><trkpt lat="44.47442239890668" lon="9.737848633129468"><ele>432.0</ele><time>2026-04-19T13:13:12.956Z</time></trkpt><trkpt lat="44.474298200931614" lon="9.737678023400433"><ele>428.66666666666663</ele><time>2026-04-19T13:13:13.956Z</time></trkpt><trkpt lat="44.474155640512606" lon="9.737526438206588"><ele>425.3333333333333</ele><time>2026-04-19T13:13:14.956Z</time></trkpt><trkpt lat="44.47399141098105" lon="9.737398496384657"><ele>422.0</ele><time>2026-04-19T13:13:15.956Z</time></trkpt><trkpt lat="44.47379512761792" lon="9.737296036389573"><ele>431.0</ele><time>2026-04-19T13:13:16.956Z</time></trkpt><trkpt lat="44.47356989139534" lon="9.737182733119827"><ele>440.0</ele><time>2026-04-19T13:13:17.956Z</time></trkpt><trkpt lat="44.47333453975115" lon="9.737056358838391"><ele>440.0</ele><time>2026-04-19T13:13:18.956Z</time></trkpt><trkpt lat="44.47308146986478" lon="9.736907930053281"><ele>440.0</ele><time>2026-04-19T13:13:19.956Z</time></trkpt><trkpt lat="44.472843196243964" lon="9.736752771379898"><ele>436.5</ele><time>2026-04-19T13:13:20.956Z</time></trkpt><trkpt lat="44.472606850071784" lon="9.736627074442127"><ele>433.0</ele><time>2026-04-19T13:13:21.956Z</time></trkpt><trkpt lat="44.47240580583478" lon="9.736505243503776"><ele>433.0</ele><time>2026-04-19T13:13:22.956Z</time></trkpt><trkpt lat="44.472231945663786" lon="9.73638987475221"><ele>433.0</ele><time>2026-04-19T13:13:23.956Z</time></trkpt><trkpt lat="44.47208016863697" lon="9.736263467884353"><ele>433.0</ele><time>2026-04-19T13:13:24.956Z</time></trkpt><trkpt lat="44.471930252137284" lon="9.736126852125194"><ele>432.0</ele><time>2026-04-19T13:13:25.956Z</time></trkpt><trkpt lat="44.471784290312875" lon="9.73597581777926"><ele>431.0</ele><time>2026-04-19T13:13:26.956Z</time></trkpt><trkpt lat="44.47165113361694" lon="9.735821830103003"><ele>430.0</ele><time>2026-04-19T13:13:27.956Z</time></trkpt><trkpt lat="44.4715306450668" lon="9.73566554853834"><ele>430.0</ele><time>2026-04-19T13:13:28.956Z</time></trkpt><trkpt lat="44.47142140962254" lon="9.735510638546975"><ele>430.0</ele><time>2026-04-19T13:13:29.956Z</time></trkpt><trkpt lat="44.47131534245327" lon="9.73535803600704"><ele>430.0</ele><time>2026-04-19T13:13:30.956Z</time></trkpt><trkpt lat="44.47121388058491" lon="9.735204015228803"><ele>431.75</ele><time>2026-04-19T13:13:31.956Z</time></trkpt><trkpt lat="44.4711210749576" lon="9.735056164753024"><ele>433.5</ele><time>2026-04-19T13:13:32.956Z</time></trkpt><trkpt lat="44.471035535227244" lon="9.734918079717092"><ele>435.25</ele><time>2026-04-19T13:13:33.956Z</time></trkpt><trkpt lat="44.47095119985949" lon="9.734782561851773"><ele>437.0</ele><time>2026-04-19T13:13:34.956Z</time></trkpt><trkpt lat="44.47087136324121" lon="9.734653435276421"><ele>437.0</ele><time>2026-04-19T13:13:35.956Z</time></trkpt><trkpt lat="44.47079232391799" lon="9.734523836947034"><ele>437.0</ele><time>2026-04-19T13:13:36.956Z</time></trkpt><trkpt lat="44.470713360668135" lon="9.734393260678374"><ele>437.0</ele><time>2026-04-19T13:13:37.956Z</time></trkpt><trkpt lat="44.47063130183757" lon="9.73426501142802"><ele>437.0</ele><time>2026-04-19T13:13:38.956Z</time></trkpt><trkpt lat="44.470551296220215" lon="9.734138882670806"><ele>437.0</ele><time>2026-04-19T13:13:39.956Z</time></trkpt><trkpt lat="44.470471296829736" lon="9.734010416784255"><ele>437.0</ele><time>2026-04-19T13:13:40.956Z</time></trkpt><trkpt lat="44.470390138700935" lon="9.73388304191232"><ele>437.0</ele><time>2026-04-19T13:13:41.956Z</time></trkpt><trkpt lat="44.47030976004464" lon="9.733753883100356"><ele>437.0</ele><time>2026-04-19T13:13:42.956Z</time></trkpt><trkpt lat="44.47022823015507" lon="9.733623606524365"><ele>436.25</ele><time>2026-04-19T13:13:43.956Z</time></trkpt><trkpt lat="44.47014633035353" lon="9.73348997249053"><ele>435.5</ele><time>2026-04-19T13:13:44.956Z</time></trkpt><trkpt lat="44.47006464272245" lon="9.733356121576163"><ele>434.75</ele><time>2026-04-19T13:13:45.956Z</time></trkpt><trkpt lat="44.46998165902255" lon="9.733219710060887"><ele>434.0</ele><time>2026-04-19T13:13:46.956Z</time></trkpt><trkpt lat="44.46989443633397" lon="9.733082355639858"><ele>434.0</ele><time>2026-04-19T13:13:47.956Z</time></trkpt><trkpt lat="44.46978877255836" lon="9.732923443294302"><ele>434.0</ele><time>2026-04-19T13:13:48.956Z</time></trkpt><trkpt lat="44.46967952535609" lon="9.732751352709599"><ele>434.0</ele><time>2026-04-19T13:13:49.956Z</time></trkpt><trkpt lat="44.46955990225114" lon="9.732577020152066"><ele>436.66666666666663</ele><time>2026-04-19T13:13:50.956Z</time></trkpt><trkpt lat="44.46942488190263" lon="9.732411538708588"><ele>439.33333333333337</ele><time>2026-04-19T13:13:51.956Z</time></trkpt><trkpt lat="44.469280473211796" lon="9.732258710418703"><ele>442.0</ele><time>2026-04-19T13:13:52.956Z</time></trkpt><trkpt lat="44.46913664148989" lon="9.732126920858457"><ele>442.0</ele><time>2026-04-19T13:13:53.956Z</time></trkpt><trkpt lat="44.46900126221753" lon="9.732016591209621"><ele>442.0</ele><time>2026-04-19T13:13:54.956Z</time></trkpt><trkpt lat="44.468881207531794" lon="9.73191280160821"><ele>442.0</ele><time>2026-04-19T13:13:55.956Z</time></trkpt><trkpt lat="44.46878609848366" lon="9.731794657868841"><ele>442.0</ele><time>2026-04-19T13:13:56.956Z</time></trkpt><trkpt lat="44.46870825668138" lon="9.731640508690717"><ele>441.75</ele><time>2026-04-19T13:13:57.956Z</time></trkpt><trkpt lat="44.468659461495086" lon="9.73146081941984"><ele>441.5</ele><time>2026-04-19T13:13:58.956Z</time></trkpt><trkpt lat="44.46864918704647" lon="9.731267606759404"><ele>441.25</ele><time>2026-04-19T13:13:59.956Z</time></trkpt><trkpt lat="44.46867190566502" lon="9.731069721754924"><ele>441.0</ele><time>2026-04-19T13:14:00.956Z</time></trkpt><trkpt lat="44.46870029638614" lon="9.730871071999967"><ele>440.5</ele><time>2026-04-19T13:14:01.956Z</time></trkpt><trkpt lat="44.4687371676607" lon="9.73068362563365"><ele>440.0</ele><time>2026-04-19T13:14:02.956Z</time></trkpt><trkpt lat="44.46880089840921" lon="9.730515159335885"><ele>439.5</ele><time>2026-04-19T13:14:03.956Z</time></trkpt><trkpt lat="44.46889365162733" lon="9.730382009920824"><ele>439.0</ele><time>2026-04-19T13:14:04.956Z</time></trkpt><trkpt lat="44.46901826808696" lon="9.730290447757834"><ele>438.33333333333337</ele><time>2026-04-19T13:14:05.956Z</time></trkpt><trkpt lat="44.469158070507405" lon="9.730232040082294"><ele>437.66666666666663</ele><time>2026-04-19T13:14:06.956Z</time></trkpt><trkpt lat="44.46931584730373" lon="9.730192879564937"><ele>437.0</ele><time>2026-04-19T13:14:07.956Z</time></trkpt><trkpt lat="44.469484846116416" lon="9.730148876699667"><ele>437.66666666666663</ele><time>2026-04-19T13:14:08.956Z</time></trkpt><trkpt lat="44.469660042143566" lon="9.730079464415548"><ele>438.33333333333337</ele><time>2026-04-19T13:14:09.956Z</time></trkpt><trkpt lat="44.46984450784895" lon="9.729988273395868"><ele>439.0</ele><time>2026-04-19T13:14:10.956Z</time></trkpt><trkpt lat="44.47002394861299" lon="9.72988992006489"><ele>439.0</ele><time>2026-04-19T13:14:11.956Z</time></trkpt><trkpt lat="44.47018685943517" lon="9.729783593658897"><ele>439.0</ele><time>2026-04-19T13:14:12.956Z</time></trkpt><trkpt lat="44.47033129123229" lon="9.729696647560187"><ele>439.0</ele><time>2026-04-19T13:14:13.956Z</time></trkpt><trkpt lat="44.470449348474126" lon="9.72961074848554"><ele>439.25</ele><time>2026-04-19T13:14:14.956Z</time></trkpt><trkpt lat="44.47055843727444" lon="9.729498404602282"><ele>439.5</ele><time>2026-04-19T13:14:15.956Z</time></trkpt><trkpt lat="44.470659103837335" lon="9.729350296477197"><ele>439.75</ele><time>2026-04-19T13:14:16.956Z</time></trkpt><trkpt lat="44.47075795797704" lon="9.729164473226112"><ele>440.0</ele><time>2026-04-19T13:14:17.954Z</time></trkpt><trkpt lat="44.47085773855244" lon="9.728967018352009"><ele>440.0</ele><time>2026-04-19T13:14:18.954Z</time></trkpt><trkpt lat="44.47095522597719" lon="9.728803150682953"><ele>440.0</ele><time>2026-04-19T13:14:19.954Z</time></trkpt><trkpt lat="44.471043073271915" lon="9.728656123858789"><ele>440.0</ele><time>2026-04-19T13:14:20.954Z</time></trkpt><trkpt lat="44.471118918259855" lon="9.728507899945674"><ele>440.0</ele><time>2026-04-19T13:14:21.954Z</time></trkpt><trkpt lat="44.471179740290076" lon="9.728353601549317"><ele>440.0</ele><time>2026-04-19T13:14:22.954Z</time></trkpt><trkpt lat="44.47121154601717" lon="9.728174848154541"><ele>440.0</ele><time>2026-04-19T13:14:23.954Z</time></trkpt><trkpt lat="44.471184315585745" lon="9.7279852310923"><ele>440.0</ele><time>2026-04-19T13:14:24.954Z</time></trkpt><trkpt lat="44.47112247708952" lon="9.727804820152352"><ele>440.0</ele><time>2026-04-19T13:14:25.954Z</time></trkpt><trkpt lat="44.4710302206295" lon="9.727629510067011"><ele>440.0</ele><time>2026-04-19T13:14:26.954Z</time></trkpt><trkpt lat="44.47093086859532" lon="9.727455457551484"><ele>440.0</ele><time>2026-04-19T13:14:27.954Z</time></trkpt><trkpt lat="44.47082286859814" lon="9.72726392827883"><ele>440.0</ele><time>2026-04-19T13:14:28.954Z</time></trkpt><trkpt lat="44.47071114786798" lon="9.72704954377854"><ele>441.0</ele><time>2026-04-19T13:14:29.954Z</time></trkpt><trkpt lat="44.47061650114651" lon="9.726821853033046"><ele>442.0</ele><time>2026-04-19T13:14:30.954Z</time></trkpt><trkpt lat="44.4705259501473" lon="9.726587368394382"><ele>443.0</ele><time>2026-04-19T13:14:31.954Z</time></trkpt><trkpt lat="44.4704330024476" lon="9.726334115229886"><ele>443.0</ele><time>2026-04-19T13:14:32.954Z</time></trkpt><trkpt lat="44.47035241706632" lon="9.726068173304704"><ele>443.0</ele><time>2026-04-19T13:14:33.954Z</time></trkpt><trkpt lat="44.470272471476704" lon="9.725787447535566"><ele>443.0</ele><time>2026-04-19T13:14:34.954Z</time></trkpt><trkpt lat="44.470196111765794" lon="9.72550590139749"><ele>439.0</ele><time>2026-04-19T13:14:35.954Z</time></trkpt><trkpt lat="44.47012268405345" lon="9.725226539122138"><ele>435.0</ele><time>2026-04-19T13:14:36.954Z</time></trkpt><trkpt lat="44.47005243545349" lon="9.724958451139424"><ele>431.0</ele><time>2026-04-19T13:14:37.954Z</time></trkpt><trkpt lat="44.46998681255367" lon="9.724707040294724"><ele>431.0</ele><time>2026-04-19T13:14:38.954Z</time></trkpt><trkpt lat="44.46992860716566" lon="9.724474375073315"><ele>431.0</ele><time>2026-04-19T13:14:39.954Z</time></trkpt><trkpt lat="44.469897546313646" lon="9.724245798373785"><ele>431.0</ele><time>2026-04-19T13:14:40.954Z</time></trkpt><trkpt lat="44.469891637832134" lon="9.724010798683107"><ele>431.0</ele><time>2026-04-19T13:14:41.954Z</time></trkpt><trkpt lat="44.469918082278085" lon="9.723775836101938"><ele>431.0</ele><time>2026-04-19T13:14:42.954Z</time></trkpt><trkpt lat="44.46998737368279" lon="9.723548163214161"><ele>431.0</ele><time>2026-04-19T13:14:43.954Z</time></trkpt><trkpt lat="44.47007807948951" lon="9.723333730219883"><ele>431.66666666666663</ele><time>2026-04-19T13:14:44.954Z</time></trkpt><trkpt lat="44.4701984777029" lon="9.723134684378518"><ele>432.33333333333337</ele><time>2026-04-19T13:14:45.954Z</time></trkpt><trkpt lat="44.47033063390255" lon="9.722934083573499"><ele>433.0</ele><time>2026-04-19T13:14:46.955Z</time></trkpt><trkpt lat="44.47047769528526" lon="9.722721644458906"><ele>433.0</ele><time>2026-04-19T13:14:47.955Z</time></trkpt><trkpt lat="44.470628089842414" lon="9.722485945845806"><ele>433.0</ele><time>2026-04-19T13:14:48.955Z</time></trkpt><trkpt lat="44.47077688191788" lon="9.722235483040436"><ele>433.0</ele><time>2026-04-19T13:14:49.955Z</time></trkpt><trkpt lat="44.470929291879806" lon="9.721981935122257"><ele>433.0</ele><time>2026-04-19T13:14:50.955Z</time></trkpt><trkpt lat="44.47108564363282" lon="9.721719947925735"><ele>433.0</ele><time>2026-04-19T13:14:51.955Z</time></trkpt><trkpt lat="44.47124846478259" lon="9.7214618414325"><ele>433.0</ele><time>2026-04-19T13:14:52.955Z</time></trkpt><trkpt lat="44.471406163236665" lon="9.72119450367076"><ele>431.0</ele><time>2026-04-19T13:14:53.955Z</time></trkpt><trkpt lat="44.47155996605163" lon="9.720937060134185"><ele>429.0</ele><time>2026-04-19T13:14:54.955Z</time></trkpt><trkpt lat="44.471712767939785" lon="9.720684568725018"><ele>429.0</ele><time>2026-04-19T13:14:55.955Z</time></trkpt><trkpt lat="44.47186243361549" lon="9.720437638483284"><ele>429.0</ele><time>2026-04-19T13:14:56.955Z</time></trkpt><trkpt lat="44.472013931714415" lon="9.720193299974934"><ele>429.5</ele><time>2026-04-19T13:14:57.955Z</time></trkpt><trkpt lat="44.47215812347975" lon="9.719944140254283"><ele>430.0</ele><time>2026-04-19T13:14:58.955Z</time></trkpt><trkpt lat="44.47230606699337" lon="9.719703662992591"><ele>430.0</ele><time>2026-04-19T13:14:59.955Z</time></trkpt><trkpt lat="44.47245863999576" lon="9.719466488700858"><ele>430.0</ele><time>2026-04-19T13:15:00.955Z</time></trkpt><trkpt lat="44.472613960487166" lon="9.719247187467028"><ele>430.0</ele><time>2026-04-19T13:15:01.955Z</time></trkpt><trkpt lat="44.47277199512475" lon="9.71903837504116"><ele>429.6666666666667</ele><time>2026-04-19T13:15:02.955Z</time></trkpt><trkpt lat="44.47292995307402" lon="9.718846211881742"><ele>429.33333333333337</ele><time>2026-04-19T13:15:03.955Z</time></trkpt><trkpt lat="44.47308080281356" lon="9.718664631424264"><ele>429.0</ele><time>2026-04-19T13:15:04.955Z</time></trkpt><trkpt lat="44.47321765362165" lon="9.718485820384126"><ele>430.33333333333337</ele><time>2026-04-19T13:15:05.955Z</time></trkpt><trkpt lat="44.473335413485074" lon="9.718305996312976"><ele>431.6666666666667</ele><time>2026-04-19T13:15:06.955Z</time></trkpt><trkpt lat="44.4734442785497" lon="9.718103709440951"><ele>433.0</ele><time>2026-04-19T13:15:07.955Z</time></trkpt><trkpt lat="44.47354739453805" lon="9.717891564866216"><ele>432.33333333333337</ele><time>2026-04-19T13:15:08.955Z</time></trkpt><trkpt lat="44.473639324705736" lon="9.717651302243848"><ele>431.66666666666663</ele><time>2026-04-19T13:15:09.955Z</time></trkpt><trkpt lat="44.47371259453441" lon="9.717388611333277"><ele>431.0</ele><time>2026-04-19T13:15:10.955Z</time></trkpt><trkpt lat="44.47378593701175" lon="9.717118569435694"><ele>431.3333333333333</ele><time>2026-04-19T13:15:11.955Z</time></trkpt><trkpt lat="44.47384683377086" lon="9.716831414055365"><ele>431.66666666666663</ele><time>2026-04-19T13:15:12.955Z</time></trkpt><trkpt lat="44.47391560521199" lon="9.71654465838658"><ele>432.0</ele><time>2026-04-19T13:15:13.955Z</time></trkpt><trkpt lat="44.47399797481183" lon="9.716264146356622"><ele>433.0</ele><time>2026-04-19T13:15:14.955Z</time></trkpt><trkpt lat="44.47409177570015" lon="9.71599070599986"><ele>434.0</ele><time>2026-04-19T13:15:15.955Z</time></trkpt><trkpt lat="44.474193577558715" lon="9.715729111758893"><ele>435.0</ele><time>2026-04-19T13:15:16.955Z</time></trkpt><trkpt lat="44.47430863485079" lon="9.715487527180386"><ele>435.0</ele><time>2026-04-19T13:15:17.955Z</time></trkpt><trkpt lat="44.47443455621421" lon="9.715252355669863"><ele>435.0</ele><time>2026-04-19T13:15:18.955Z</time></trkpt><trkpt lat="44.47457601497321" lon="9.715025769284964"><ele>435.0</ele><time>2026-04-19T13:15:19.955Z</time></trkpt><trkpt lat="44.4747175302" lon="9.714795808013642"><ele>435.0</ele><time>2026-04-19T13:15:20.955Z</time></trkpt><trkpt lat="44.47485832494685" lon="9.714570442566211"><ele>435.0</ele><time>2026-04-19T13:15:21.955Z</time></trkpt><trkpt lat="44.474996357096074" lon="9.714341234973194"><ele>435.0</ele><time>2026-04-19T13:15:22.955Z</time></trkpt><trkpt lat="44.475134780054965" lon="9.71411434068697"><ele>435.0</ele><time>2026-04-19T13:15:23.955Z</time></trkpt><trkpt lat="44.47527201295456" lon="9.713889911336121"><ele>435.0</ele><time>2026-04-19T13:15:24.955Z</time></trkpt><trkpt lat="44.47540554836804" lon="9.713673028308222"><ele>435.0</ele><time>2026-04-19T13:15:25.955Z</time></trkpt><trkpt lat="44.47553782720031" lon="9.713461198834743"><ele>434.66666666666663</ele><time>2026-04-19T13:15:26.955Z</time></trkpt><trkpt lat="44.475669266599546" lon="9.71325146609115"><ele>434.3333333333333</ele><time>2026-04-19T13:15:27.955Z</time></trkpt><trkpt lat="44.47579943190188" lon="9.713041956192255"><ele>434.0</ele><time>2026-04-19T13:15:28.955Z</time></trkpt><trkpt lat="44.47593886387364" lon="9.71284129436409"><ele>434.0</ele><time>2026-04-19T13:15:29.955Z</time></trkpt><trkpt lat="44.476089238179895" lon="9.712654891077223"><ele>434.0</ele><time>2026-04-19T13:15:30.955Z</time></trkpt><trkpt lat="44.47625014641154" lon="9.712479254042718"><ele>434.0</ele><time>2026-04-19T13:15:31.955Z</time></trkpt><trkpt lat="44.476415443878366" lon="9.712322718279097"><ele>434.0</ele><time>2026-04-19T13:15:32.955Z</time></trkpt><trkpt lat="44.47657488536934" lon="9.712190128577234"><ele>434.0</ele><time>2026-04-19T13:15:33.955Z</time></trkpt><trkpt lat="44.4767229647628" lon="9.712068411078935"><ele>434.0</ele><time>2026-04-19T13:15:34.955Z</time></trkpt><trkpt lat="44.47686070953386" lon="9.711949926291307"><ele>434.5</ele><time>2026-04-19T13:15:35.955Z</time></trkpt><trkpt lat="44.47698672970264" lon="9.7118368463291"><ele>435.0</ele><time>2026-04-19T13:15:36.955Z</time></trkpt><trkpt lat="44.47710542842695" lon="9.711737224636757"><ele>435.5</ele><time>2026-04-19T13:15:37.955Z</time></trkpt><trkpt lat="44.47721319910865" lon="9.711646632791354"><ele>436.0</ele><time>2026-04-19T13:15:38.955Z</time></trkpt><trkpt lat="44.47731634019386" lon="9.711565667103226"><ele>436.0</ele><time>2026-04-19T13:15:39.955Z</time></trkpt><trkpt lat="44.477415405815876" lon="9.711495773561929"><ele>436.0</ele><time>2026-04-19T13:15:40.955Z</time></trkpt><trkpt lat="44.47750058328881" lon="9.711438899796745"><ele>436.0</ele><time>2026-04-19T13:15:41.955Z</time></trkpt><trkpt lat="44.47756411559838" lon="9.711410033260897"><ele>436.0</ele><time>2026-04-19T13:15:42.955Z</time></trkpt><trkpt lat="44.477688780050734" lon="9.711428435770621"><ele>436.0</ele><time>2026-04-19T13:15:44.955Z</time></trkpt><trkpt lat="44.47775468973745" lon="9.711438436772157"><ele>436.0</ele><time>2026-04-19T13:15:45.955Z</time></trkpt><trkpt lat="44.47784916166064" lon="9.71133110182685"><ele>436.0</ele><time>2026-04-19T13:15:47.955Z</time></trkpt><trkpt lat="44.4778620250879" lon="9.711232266841527"><ele>436.0</ele><time>2026-04-19T13:15:48.955Z</time></trkpt><trkpt lat="44.477815193660234" lon="9.711127316926182"><ele>436.0</ele><time>2026-04-19T13:15:49.955Z</time></trkpt><trkpt lat="44.47774167998221" lon="9.711001709184389"><ele>436.0</ele><time>2026-04-19T13:15:50.955Z</time></trkpt><trkpt lat="44.47766562921198" lon="9.710890184946402"><ele>437.0</ele><time>2026-04-19T13:15:51.955Z</time></trkpt><trkpt lat="44.47759090721769" lon="9.710805718319808"><ele>438.0</ele><time>2026-04-19T13:15:52.955Z</time></trkpt><trkpt lat="44.477517948831476" lon="9.710771712017271"><ele>439.0</ele><time>2026-04-19T13:15:53.955Z</time></trkpt><trkpt lat="44.477436157788894" lon="9.710776837247973"><ele>440.0</ele><time>2026-04-19T13:15:54.955Z</time></trkpt><trkpt lat="44.477348466750705" lon="9.710823440873417"><ele>441.0</ele><time>2026-04-19T13:15:55.955Z</time></trkpt><trkpt lat="44.47725705434093" lon="9.710885977079634"><ele>441.0</ele><time>2026-04-19T13:15:56.955Z</time></trkpt><trkpt lat="44.477161909004856" lon="9.71096382383887"><ele>441.0</ele><time>2026-04-19T13:15:57.955Z</time></trkpt><trkpt lat="44.477065604040064" lon="9.711043670734652"><ele>441.0</ele><time>2026-04-19T13:15:58.955Z</time></trkpt><trkpt lat="44.47696280072937" lon="9.711109697373159"><ele>441.0</ele><time>2026-04-19T13:15:59.955Z</time></trkpt><trkpt lat="44.476848665705205" lon="9.71114445437088"><ele>440.75</ele><time>2026-04-19T13:16:00.955Z</time></trkpt><trkpt lat="44.47671942950157" lon="9.711139852683555"><ele>440.5</ele><time>2026-04-19T13:16:01.955Z</time></trkpt><trkpt lat="44.47658166015006" lon="9.71114242705342"><ele>440.25</ele><time>2026-04-19T13:16:02.955Z</time></trkpt><trkpt lat="44.47644163587905" lon="9.711142736291519"><ele>440.0</ele><time>2026-04-19T13:16:03.955Z</time></trkpt><trkpt lat="44.47629799714246" lon="9.711145582907706"><ele>442.0</ele><time>2026-04-19T13:16:04.955Z</time></trkpt><trkpt lat="44.476149909133824" lon="9.711154396849414"><ele>444.0</ele><time>2026-04-19T13:16:05.955Z</time></trkpt><trkpt lat="44.47599848257348" lon="9.711160065547986"><ele>446.0</ele><time>2026-04-19T13:16:06.955Z</time></trkpt><trkpt lat="44.47584513835785" lon="9.71117106497192"><ele>446.0</ele><time>2026-04-19T13:16:07.955Z</time></trkpt><trkpt lat="44.47568620061657" lon="9.711179514107743"><ele>446.0</ele><time>2026-04-19T13:16:08.955Z</time></trkpt><trkpt lat="44.475543926162665" lon="9.711186677282194"><ele>446.0</ele><time>2026-04-19T13:16:09.955Z</time></trkpt><trkpt lat="44.47541309202231" lon="9.711198205354906"><ele>446.0</ele><time>2026-04-19T13:16:10.955Z</time></trkpt><trkpt lat="44.47528904739005" lon="9.711216112313549"><ele>449.25</ele><time>2026-04-19T13:16:11.955Z</time></trkpt><trkpt lat="44.47517140284041" lon="9.711259879133452"><ele>452.5</ele><time>2026-04-19T13:16:12.955Z</time></trkpt><trkpt lat="44.47506607327625" lon="9.71133714703124"><ele>455.75</ele><time>2026-04-19T13:16:13.955Z</time></trkpt><trkpt lat="44.4749698856464" lon="9.71147076464623"><ele>459.0</ele><time>2026-04-19T13:16:14.955Z</time></trkpt><trkpt lat="44.474889122301256" lon="9.711607802815617"><ele>459.0</ele><time>2026-04-19T13:16:15.955Z</time></trkpt><trkpt lat="44.47481587256317" lon="9.711723021577074"><ele>459.0</ele><time>2026-04-19T13:16:16.955Z</time></trkpt><trkpt lat="44.47475487183452" lon="9.711787103463422"><ele>459.0</ele><time>2026-04-19T13:16:17.955Z</time></trkpt><trkpt lat="44.4746534514506" lon="9.71175274548814"><ele>459.0</ele><time>2026-04-19T13:16:19.955Z</time></trkpt><trkpt lat="44.474636020868886" lon="9.711649794969158"><ele>459.0</ele><time>2026-04-19T13:16:20.955Z</time></trkpt><trkpt lat="44.474649631982246" lon="9.711527060539204"><ele>459.0</ele><time>2026-04-19T13:16:21.955Z</time></trkpt><trkpt lat="44.47467863870347" lon="9.711378542393348"><ele>459.0</ele><time>2026-04-19T13:16:22.955Z</time></trkpt><trkpt lat="44.47470160177111" lon="9.711206739035354"><ele>459.0</ele><time>2026-04-19T13:16:23.952Z</time></trkpt><trkpt lat="44.47473115512291" lon="9.711011309140826"><ele>459.0</ele><time>2026-04-19T13:16:24.953Z</time></trkpt><trkpt lat="44.47476533935499" lon="9.710812839808323"><ele>460.0</ele><time>2026-04-19T13:16:25.953Z</time></trkpt><trkpt lat="44.47481714009766" lon="9.710617266646576"><ele>461.0</ele><time>2026-04-19T13:16:26.952Z</time></trkpt><trkpt lat="44.47488833526266" lon="9.710423924816213"><ele>462.0</ele><time>2026-04-19T13:16:27.952Z</time></trkpt><trkpt lat="44.47497083549958" lon="9.71024866782052"><ele>463.5</ele><time>2026-04-19T13:16:28.952Z</time></trkpt><trkpt lat="44.47504919045943" lon="9.710089485884453"><ele>465.0</ele><time>2026-04-19T13:16:29.952Z</time></trkpt><trkpt lat="44.475112781932566" lon="9.709936037768452"><ele>466.5</ele><time>2026-04-19T13:16:30.952Z</time></trkpt><trkpt lat="44.4751548526574" lon="9.709778308867241"><ele>468.0</ele><time>2026-04-19T13:16:31.953Z</time></trkpt><trkpt lat="44.47518295183433" lon="9.709603821426796"><ele>469.66666666666663</ele><time>2026-04-19T13:16:32.952Z</time></trkpt><trkpt lat="44.475187453578336" lon="9.709394414033136"><ele>471.3333333333333</ele><time>2026-04-19T13:16:33.952Z</time></trkpt><trkpt lat="44.47517134824088" lon="9.709157542963656"><ele>473.0</ele><time>2026-04-19T13:16:34.952Z</time></trkpt><trkpt lat="44.47516954524653" lon="9.708936073487747"><ele>473.0</ele><time>2026-04-19T13:16:35.952Z</time></trkpt><trkpt lat="44.47519307962502" lon="9.708731782308117"><ele>473.0</ele><time>2026-04-19T13:16:36.952Z</time></trkpt><trkpt lat="44.47523724339263" lon="9.70854178744804"><ele>473.0</ele><time>2026-04-19T13:16:37.952Z</time></trkpt><trkpt lat="44.47530647651859" lon="9.708365087313705"><ele>473.0</ele><time>2026-04-19T13:16:38.952Z</time></trkpt><trkpt lat="44.47539233814805" lon="9.708201690033478"><ele>472.5</ele><time>2026-04-19T13:16:39.952Z</time></trkpt><trkpt lat="44.475477833490714" lon="9.708034092106338"><ele>472.0</ele><time>2026-04-19T13:16:40.952Z</time></trkpt><trkpt lat="44.47555717930265" lon="9.707857401839592"><ele>471.5</ele><time>2026-04-19T13:16:41.952Z</time></trkpt><trkpt lat="44.47562690306535" lon="9.70768203993136"><ele>471.0</ele><time>2026-04-19T13:16:42.952Z</time></trkpt><trkpt lat="44.475679171391555" lon="9.707514142311773"><ele>472.6</ele><time>2026-04-19T13:16:43.952Z</time></trkpt><trkpt lat="44.475715996471564" lon="9.70735814295145"><ele>474.20000000000005</ele><time>2026-04-19T13:16:44.952Z</time></trkpt><trkpt lat="44.4757366680002" lon="9.707212778207808"><ele>475.79999999999995</ele><time>2026-04-19T13:16:45.952Z</time></trkpt><trkpt lat="44.4757410614921" lon="9.707078605038454"><ele>477.4</ele><time>2026-04-19T13:16:46.952Z</time></trkpt><trkpt lat="44.475718549805805" lon="9.706961943107792"><ele>479.0</ele><time>2026-04-19T13:16:47.952Z</time></trkpt><trkpt lat="44.47566393538815" lon="9.70687892064372"><ele>479.79999999999995</ele><time>2026-04-19T13:16:48.952Z</time></trkpt><trkpt lat="44.47559194783399" lon="9.70685207550654"><ele>480.59999999999997</ele><time>2026-04-19T13:16:49.952Z</time></trkpt><trkpt lat="44.47550441477057" lon="9.706895779296465"><ele>481.4</ele><time>2026-04-19T13:16:50.952Z</time></trkpt><trkpt lat="44.47542032300467" lon="9.706997163007365"><ele>482.2</ele><time>2026-04-19T13:16:51.952Z</time></trkpt><trkpt lat="44.47533034118967" lon="9.707147333170917"><ele>483.0</ele><time>2026-04-19T13:16:52.952Z</time></trkpt><trkpt lat="44.47523702836175" lon="9.707317649685736"><ele>482.5</ele><time>2026-04-19T13:16:53.952Z</time></trkpt><trkpt lat="44.475144648946646" lon="9.707489137435308"><ele>482.0</ele><time>2026-04-19T13:16:54.952Z</time></trkpt><trkpt lat="44.47504999925795" lon="9.70764666644795"><ele>481.5</ele><time>2026-04-19T13:16:55.952Z</time></trkpt><trkpt lat="44.47496345029911" lon="9.707781321780041"><ele>481.0</ele><time>2026-04-19T13:16:56.952Z</time></trkpt><trkpt lat="44.47488149458216" lon="9.707890893154737"><ele>481.0</ele><time>2026-04-19T13:16:57.952Z</time></trkpt><trkpt lat="44.474803018149295" lon="9.707979988291735"><ele>481.0</ele><time>2026-04-19T13:16:58.952Z</time></trkpt><trkpt lat="44.47470543995639" lon="9.70804516602424"><ele>481.0</ele><time>2026-04-19T13:16:59.952Z</time></trkpt><trkpt lat="44.47459154370266" lon="9.70809302645389"><ele>481.0</ele><time>2026-04-19T13:17:00.952Z</time></trkpt><trkpt lat="44.47446485554119" lon="9.708148135607498"><ele>484.33333333333337</ele><time>2026-04-19T13:17:01.952Z</time></trkpt><trkpt lat="44.47432989674259" lon="9.708215591345116"><ele>487.66666666666663</ele><time>2026-04-19T13:17:02.952Z</time></trkpt><trkpt lat="44.47418282044387" lon="9.70828036602262"><ele>491.0</ele><time>2026-04-19T13:17:03.952Z</time></trkpt><trkpt lat="44.47403030834144" lon="9.70834135264446"><ele>491.0</ele><time>2026-04-19T13:17:04.952Z</time></trkpt><trkpt lat="44.47388223272563" lon="9.708400114314681"><ele>491.0</ele><time>2026-04-19T13:17:05.952Z</time></trkpt><trkpt lat="44.47375910141856" lon="9.708462115249594"><ele>491.0</ele><time>2026-04-19T13:17:06.952Z</time></trkpt><trkpt lat="44.47364742036047" lon="9.708538257295679"><ele>491.0</ele><time>2026-04-19T13:17:07.952Z</time></trkpt><trkpt lat="44.473549318866866" lon="9.708659684816798"><ele>492.25</ele><time>2026-04-19T13:17:08.952Z</time></trkpt><trkpt lat="44.47347954917318" lon="9.708809087549616"><ele>493.5</ele><time>2026-04-19T13:17:09.952Z</time></trkpt><trkpt lat="44.4734268774138" lon="9.708985186358479"><ele>494.75</ele><time>2026-04-19T13:17:10.952Z</time></trkpt><trkpt lat="44.47336745335369" lon="9.709158919629276"><ele>496.0</ele><time>2026-04-19T13:17:11.952Z</time></trkpt><trkpt lat="44.473284824262336" lon="9.709312579417409"><ele>495.50000000000006</ele><time>2026-04-19T13:17:12.952Z</time></trkpt><trkpt lat="44.47320149760586" lon="9.709438861204196"><ele>495.0</ele><time>2026-04-19T13:17:13.952Z</time></trkpt><trkpt lat="44.47313567609554" lon="9.709531622395538"><ele>494.5</ele><time>2026-04-19T13:17:14.952Z</time></trkpt><trkpt lat="44.47308109816044" lon="9.70961030213458"><ele>494.0</ele><time>2026-04-19T13:17:15.952Z</time></trkpt><trkpt lat="44.4730114970136" lon="9.70965108048984"><ele>493.50000000000006</ele><time>2026-04-19T13:17:16.952Z</time></trkpt><trkpt lat="44.472936187119046" lon="9.70963748709668"><ele>493.0</ele><time>2026-04-19T13:17:17.952Z</time></trkpt><trkpt lat="44.472873334544694" lon="9.70953900644378"><ele>497.25</ele><time>2026-04-19T13:17:18.952Z</time></trkpt><trkpt lat="44.47283693836347" lon="9.709401936373453"><ele>501.5</ele><time>2026-04-19T13:17:19.952Z</time></trkpt><trkpt lat="44.472850897554025" lon="9.709242764668376"><ele>505.75</ele><time>2026-04-19T13:17:20.952Z</time></trkpt><trkpt lat="44.47288236288982" lon="9.709060100886822"><ele>510.0</ele><time>2026-04-19T13:17:21.952Z</time></trkpt><trkpt lat="44.47291070176655" lon="9.708862705228183"><ele>510.0</ele><time>2026-04-19T13:17:22.952Z</time></trkpt><trkpt lat="44.47292868689214" lon="9.708656197896152"><ele>510.0</ele><time>2026-04-19T13:17:23.952Z</time></trkpt><trkpt lat="44.47295034284402" lon="9.708429040948243"><ele>510.0</ele><time>2026-04-19T13:17:24.952Z</time></trkpt><trkpt lat="44.47296203554862" lon="9.70819375438792"><ele>508.5</ele><time>2026-04-19T13:17:25.952Z</time></trkpt><trkpt lat="44.47297038583953" lon="9.707967170186313"><ele>507.0</ele><time>2026-04-19T13:17:26.952Z</time></trkpt><trkpt lat="44.47297704629757" lon="9.707775414157897"><ele>505.5</ele><time>2026-04-19T13:17:27.952Z</time></trkpt><trkpt lat="44.47298365236555" lon="9.707611786104945"><ele>504.0</ele><time>2026-04-19T13:17:28.952Z</time></trkpt><trkpt lat="44.47298844055887" lon="9.707479976390319"><ele>504.0</ele><time>2026-04-19T13:17:29.952Z</time></trkpt><trkpt lat="44.472980928721" lon="9.707377159721444"><ele>504.0</ele><time>2026-04-19T13:17:30.952Z</time></trkpt><trkpt lat="44.472913685115564" lon="9.707301699047699"><ele>504.0</ele><time>2026-04-19T13:17:31.952Z</time></trkpt><trkpt lat="44.472834777336494" lon="9.707282310128651"><ele>504.0</ele><time>2026-04-19T13:17:32.952Z</time></trkpt><trkpt lat="44.472741357043375" lon="9.707336223423232"><ele>504.0</ele><time>2026-04-19T13:17:33.952Z</time></trkpt><trkpt lat="44.47264538475806" lon="9.707420168547538"><ele>506.5</ele><time>2026-04-19T13:17:34.952Z</time></trkpt><trkpt lat="44.472527865667864" lon="9.707519538455381"><ele>509.0</ele><time>2026-04-19T13:17:35.952Z</time></trkpt><trkpt lat="44.47241676111151" lon="9.707608405167855"><ele>511.5</ele><time>2026-04-19T13:17:36.952Z</time></trkpt><trkpt lat="44.47232894025232" lon="9.707703168046189"><ele>514.0</ele><time>2026-04-19T13:17:37.952Z</time></trkpt><trkpt lat="44.47227129918272" lon="9.70783156708099"><ele>514.0</ele><time>2026-04-19T13:17:38.952Z</time></trkpt><trkpt lat="44.47223086340254" lon="9.707989175566256"><ele>514.0</ele><time>2026-04-19T13:17:39.952Z</time></trkpt><trkpt lat="44.47218738302858" lon="9.708152258318728"><ele>514.0</ele><time>2026-04-19T13:17:40.952Z</time></trkpt><trkpt lat="44.47212104608994" lon="9.708295174238478"><ele>514.0</ele><time>2026-04-19T13:17:41.952Z</time></trkpt><trkpt lat="44.47201303578338" lon="9.708410697119294"><ele>516.25</ele><time>2026-04-19T13:17:42.952Z</time></trkpt><trkpt lat="44.4718819883826" lon="9.708502477241458"><ele>518.5</ele><time>2026-04-19T13:17:43.952Z</time></trkpt><trkpt lat="44.47174639225332" lon="9.70857616688894"><ele>520.75</ele><time>2026-04-19T13:17:44.952Z</time></trkpt><trkpt lat="44.471610950925985" lon="9.708646711517517"><ele>523.0</ele><time>2026-04-19T13:17:45.952Z</time></trkpt><trkpt lat="44.47148646201044" lon="9.70872220413383"><ele>523.0</ele><time>2026-04-19T13:17:46.952Z</time></trkpt><trkpt lat="44.47136223808089" lon="9.70878900574772"><ele>523.0</ele><time>2026-04-19T13:17:47.952Z</time></trkpt><trkpt lat="44.47122429539102" lon="9.708830094611626"><ele>523.0</ele><time>2026-04-19T13:17:48.952Z</time></trkpt><trkpt lat="44.47107975354637" lon="9.708829729182739"><ele>523.0</ele><time>2026-04-19T13:17:49.952Z</time></trkpt><trkpt lat="44.47092902958753" lon="9.708791404238166"><ele>525.6666666666667</ele><time>2026-04-19T13:17:50.952Z</time></trkpt><trkpt lat="44.470781240304326" lon="9.708735921955459"><ele>528.3333333333334</ele><time>2026-04-19T13:17:51.952Z</time></trkpt><trkpt lat="44.47062719114573" lon="9.708700182803252"><ele>531.0</ele><time>2026-04-19T13:17:52.952Z</time></trkpt><trkpt lat="44.470467890298906" lon="9.708697444810024"><ele>532.0</ele><time>2026-04-19T13:17:53.952Z</time></trkpt><trkpt lat="44.47030736045637" lon="9.70872598741936"><ele>533.0</ele><time>2026-04-19T13:17:54.952Z</time></trkpt><trkpt lat="44.47014363488864" lon="9.708785693232963"><ele>534.0</ele><time>2026-04-19T13:17:55.952Z</time></trkpt><trkpt lat="44.469995718512656" lon="9.70885960425501"><ele>534.0</ele><time>2026-04-19T13:17:56.952Z</time></trkpt><trkpt lat="44.46987155239105" lon="9.708921192428836"><ele>534.0</ele><time>2026-04-19T13:17:57.952Z</time></trkpt><trkpt lat="44.46975820257711" lon="9.708936329024144"><ele>534.0</ele><time>2026-04-19T13:17:58.952Z</time></trkpt><trkpt lat="44.46964752411524" lon="9.708901912263688"><ele>534.0</ele><time>2026-04-19T13:17:59.952Z</time></trkpt><trkpt lat="44.46953521845511" lon="9.708810905872614"><ele>532.3333333333334</ele><time>2026-04-19T13:18:00.952Z</time></trkpt><trkpt lat="44.46940243763877" lon="9.708678613159659"><ele>530.6666666666667</ele><time>2026-04-19T13:18:01.952Z</time></trkpt><trkpt lat="44.46926293112162" lon="9.708556433290738"><ele>529.0</ele><time>2026-04-19T13:18:02.952Z</time></trkpt><trkpt lat="44.46911978033164" lon="9.708432383504105"><ele>531.0</ele><time>2026-04-19T13:18:03.952Z</time></trkpt><trkpt lat="44.468980087196634" lon="9.708319740186463"><ele>533.0</ele><time>2026-04-19T13:18:04.952Z</time></trkpt><trkpt lat="44.4688522637953" lon="9.708219625010127"><ele>535.0</ele><time>2026-04-19T13:18:05.952Z</time></trkpt><trkpt lat="44.46873644429877" lon="9.708126164683165"><ele>537.0</ele><time>2026-04-19T13:18:06.953Z</time></trkpt><trkpt lat="44.46864030776122" lon="9.708029245347042"><ele>537.0</ele><time>2026-04-19T13:18:07.953Z</time></trkpt><trkpt lat="44.468566850106335" lon="9.707908803255158"><ele>537.0</ele><time>2026-04-19T13:18:08.953Z</time></trkpt><trkpt lat="44.46853694948119" lon="9.707754005414609"><ele>537.0</ele><time>2026-04-19T13:18:09.953Z</time></trkpt><trkpt lat="44.46854882268933" lon="9.707565848619263"><ele>537.0</ele><time>2026-04-19T13:18:10.953Z</time></trkpt><trkpt lat="44.468577566009714" lon="9.707355372321805"><ele>538.0</ele><time>2026-04-19T13:18:11.953Z</time></trkpt><trkpt lat="44.46859785947228" lon="9.707140232138004"><ele>539.0</ele><time>2026-04-19T13:18:12.953Z</time></trkpt><trkpt lat="44.46860766876151" lon="9.706964590056675"><ele>540.0</ele><time>2026-04-19T13:18:13.953Z</time></trkpt><trkpt lat="44.46859057944959" lon="9.706809689547791"><ele>541.0</ele><time>2026-04-19T13:18:14.953Z</time></trkpt><trkpt lat="44.46852697772474" lon="9.706670377173285"><ele>543.0</ele><time>2026-04-19T13:18:15.953Z</time></trkpt><trkpt lat="44.46842642746677" lon="9.70653672894793"><ele>545.0</ele><time>2026-04-19T13:18:16.953Z</time></trkpt><trkpt lat="44.46830819102414" lon="9.706405127599249"><ele>547.0</ele><time>2026-04-19T13:18:17.953Z</time></trkpt><trkpt lat="44.468171486208995" lon="9.706266685938456"><ele>547.0</ele><time>2026-04-19T13:18:18.953Z</time></trkpt><trkpt lat="44.468036557901215" lon="9.70611202235235"><ele>547.0</ele><time>2026-04-19T13:18:19.953Z</time></trkpt><trkpt lat="44.46789639823467" lon="9.705943477842167"><ele>547.0</ele><time>2026-04-19T13:18:20.953Z</time></trkpt><trkpt lat="44.46777126015558" lon="9.705792033332196"><ele>547.75</ele><time>2026-04-19T13:18:21.953Z</time></trkpt><trkpt lat="44.46766249367106" lon="9.705657345987703"><ele>548.5</ele><time>2026-04-19T13:18:22.953Z</time></trkpt><trkpt lat="44.46755626364379" lon="9.70554918379466"><ele>549.25</ele><time>2026-04-19T13:18:23.953Z</time></trkpt><trkpt lat="44.46743254777871" lon="9.705479036250109"><ele>550.0</ele><time>2026-04-19T13:18:24.953Z</time></trkpt><trkpt lat="44.467292779037415" lon="9.705446772833922"><ele>550.0</ele><time>2026-04-19T13:18:25.953Z</time></trkpt><trkpt lat="44.46714901177785" lon="9.705470478375954"><ele>550.0</ele><time>2026-04-19T13:18:26.953Z</time></trkpt><trkpt lat="44.4670198180454" lon="9.705527372803122"><ele>550.0</ele><time>2026-04-19T13:18:27.953Z</time></trkpt><trkpt lat="44.46690621714992" lon="9.70560952844454"><ele>550.0</ele><time>2026-04-19T13:18:28.953Z</time></trkpt><trkpt lat="44.466815167925446" lon="9.705638955499998"><ele>550.4</ele><time>2026-04-19T13:18:29.951Z</time></trkpt><trkpt lat="44.466736500635704" lon="9.705609199921991"><ele>550.8</ele><time>2026-04-19T13:18:30.951Z</time></trkpt><trkpt lat="44.46666822766588" lon="9.70550929485647"><ele>551.2</ele><time>2026-04-19T13:18:31.951Z</time></trkpt><trkpt lat="44.4666111806331" lon="9.70537523899789"><ele>551.6</ele><time>2026-04-19T13:18:32.95Z</time></trkpt><trkpt lat="44.46655702163255" lon="9.705229983826987"><ele>552.0</ele><time>2026-04-19T13:18:33.95Z</time></trkpt><trkpt lat="44.466527684129844" lon="9.705067148857651"><ele>553.0</ele><time>2026-04-19T13:18:34.95Z</time></trkpt><trkpt lat="44.46651983989755" lon="9.704911594385694"><ele>554.0</ele><time>2026-04-19T13:18:35.951Z</time></trkpt><trkpt lat="44.466546062803125" lon="9.704746234401393"><ele>555.0</ele><time>2026-04-19T13:18:36.951Z</time></trkpt><trkpt lat="44.46658881473077" lon="9.704561332165385"><ele>556.0</ele><time>2026-04-19T13:18:37.951Z</time></trkpt><trkpt lat="44.466639807797286" lon="9.70437737606831"><ele>557.0</ele><time>2026-04-19T13:18:38.951Z</time></trkpt><trkpt lat="44.46669056801794" lon="9.704212427756808"><ele>558.0</ele><time>2026-04-19T13:18:39.951Z</time></trkpt><trkpt lat="44.466707438801365" lon="9.704060835515676"><ele>559.0</ele><time>2026-04-19T13:18:40.951Z</time></trkpt><trkpt lat="44.46666645173972" lon="9.7039144771234"><ele>560.0</ele><time>2026-04-19T13:18:41.95Z</time></trkpt><trkpt lat="44.46658103603933" lon="9.703785389630939"><ele>560.0</ele><time>2026-04-19T13:18:42.95Z</time></trkpt><trkpt lat="44.46648078513564" lon="9.703660636025655"><ele>560.0</ele><time>2026-04-19T13:18:43.95Z</time></trkpt><trkpt lat="44.46634712169927" lon="9.703499826332267"><ele>560.0</ele><time>2026-04-19T13:18:44.95Z</time></trkpt><trkpt lat="44.466213601996486" lon="9.703341966927308"><ele>558.6666666666666</ele><time>2026-04-19T13:18:45.95Z</time></trkpt><trkpt lat="44.46608490449962" lon="9.703178361420747"><ele>557.3333333333334</ele><time>2026-04-19T13:18:46.95Z</time></trkpt><trkpt lat="44.465946819655" lon="9.703006881441091"><ele>556.0</ele><time>2026-04-19T13:18:47.95Z</time></trkpt><trkpt lat="44.46580487691029" lon="9.702833696197175"><ele>556.0</ele><time>2026-04-19T13:18:48.95Z</time></trkpt><trkpt lat="44.46566584087577" lon="9.702659485682045"><ele>556.0</ele><time>2026-04-19T13:18:49.95Z</time></trkpt><trkpt lat="44.465534983246506" lon="9.70248437454667"><ele>556.0</ele><time>2026-04-19T13:18:50.95Z</time></trkpt><trkpt lat="44.46540814168775" lon="9.702319165206292"><ele>556.0</ele><time>2026-04-19T13:18:51.95Z</time></trkpt><trkpt lat="44.465295081394196" lon="9.702173141323833"><ele>556.0</ele><time>2026-04-19T13:18:52.95Z</time></trkpt><trkpt lat="44.46519526790334" lon="9.702040557490328"><ele>556.0</ele><time>2026-04-19T13:18:53.95Z</time></trkpt><trkpt lat="44.465116090205065" lon="9.701925327902783"><ele>556.0</ele><time>2026-04-19T13:18:54.95Z</time></trkpt><trkpt lat="44.46504705628945" lon="9.701819104300341"><ele>559.0</ele><time>2026-04-19T13:18:55.95Z</time></trkpt><trkpt lat="44.464990493742825" lon="9.701709924449244"><ele>562.0</ele><time>2026-04-19T13:18:56.95Z</time></trkpt><trkpt lat="44.46494638213453" lon="9.70158367169559"><ele>565.0</ele><time>2026-04-19T13:18:57.95Z</time></trkpt><trkpt lat="44.464909718669006" lon="9.70143748761496"><ele>568.0</ele><time>2026-04-19T13:18:58.95Z</time></trkpt><trkpt lat="44.46487741715308" lon="9.701269053486923"><ele>571.0</ele><time>2026-04-19T13:18:59.95Z</time></trkpt><trkpt lat="44.46484046280971" lon="9.701093604945553"><ele>574.3333333333334</ele><time>2026-04-19T13:19:00.95Z</time></trkpt><trkpt lat="44.464797928215724" lon="9.700887639238204"><ele>577.6666666666666</ele><time>2026-04-19T13:19:01.95Z</time></trkpt><trkpt lat="44.46475829996743" lon="9.700678354364044"><ele>581.0</ele><time>2026-04-19T13:19:02.95Z</time></trkpt><trkpt lat="44.46471164459096" lon="9.700468477616285"><ele>581.0</ele><time>2026-04-19T13:19:03.95Z</time></trkpt><trkpt lat="44.46467008343813" lon="9.700267610565346"><ele>581.0</ele><time>2026-04-19T13:19:04.95Z</time></trkpt><trkpt lat="44.464627716881814" lon="9.700077682590711"><ele>581.0</ele><time>2026-04-19T13:19:05.95Z</time></trkpt><trkpt lat="44.464584460429144" lon="9.699904805116423"><ele>581.0</ele><time>2026-04-19T13:19:06.95Z</time></trkpt><trkpt lat="44.46454290536631" lon="9.699740188305237"><ele>582.5</ele><time>2026-04-19T13:19:07.95Z</time></trkpt><trkpt lat="44.46450162317685" lon="9.69960321045327"><ele>584.0</ele><time>2026-04-19T13:19:08.95Z</time></trkpt><trkpt lat="44.46443346150602" lon="9.699481629863065"><ele>585.5</ele><time>2026-04-19T13:19:09.95Z</time></trkpt><trkpt lat="44.46432931746343" lon="9.699370398201317"><ele>587.0</ele><time>2026-04-19T13:19:10.95Z</time></trkpt><trkpt lat="44.4641959561604" lon="9.699295986025518"><ele>587.0</ele><time>2026-04-19T13:19:11.95Z</time></trkpt><trkpt lat="44.464055224736505" lon="9.699227297418274"><ele>587.0</ele><time>2026-04-19T13:19:12.95Z</time></trkpt><trkpt lat="44.4639227325651" lon="9.699139417973438"><ele>587.0</ele><time>2026-04-19T13:19:13.95Z</time></trkpt><trkpt lat="44.46380113312921" lon="9.699023298314007"><ele>587.0</ele><time>2026-04-19T13:19:14.95Z</time></trkpt><trkpt lat="44.463678813330795" lon="9.698900526950304"><ele>584.3333333333333</ele><time>2026-04-19T13:19:15.95Z</time></trkpt><trkpt lat="44.46354582781185" lon="9.698812634393994"><ele>581.6666666666666</ele><time>2026-04-19T13:19:16.95Z</time></trkpt><trkpt lat="44.463395742384606" lon="9.69875414014589"><ele>579.0</ele><time>2026-04-19T13:19:17.95Z</time></trkpt><trkpt lat="44.46324009881091" lon="9.698716065801325"><ele>579.0</ele><time>2026-04-19T13:19:18.95Z</time></trkpt><trkpt lat="44.46308054715725" lon="9.698649821952461"><ele>579.0</ele><time>2026-04-19T13:19:19.95Z</time></trkpt><trkpt lat="44.46292427536682" lon="9.698555384636824"><ele>579.0</ele><time>2026-04-19T13:19:20.95Z</time></trkpt><trkpt lat="44.462763923742635" lon="9.698453195510641"><ele>584.0</ele><time>2026-04-19T13:19:21.95Z</time></trkpt><trkpt lat="44.46260668162737" lon="9.698352974470133"><ele>589.0</ele><time>2026-04-19T13:19:22.95Z</time></trkpt><trkpt lat="44.462456334824104" lon="9.698269542136844"><ele>594.0</ele><time>2026-04-19T13:19:23.95Z</time></trkpt><trkpt lat="44.46232552081004" lon="9.69820514354866"><ele>594.0</ele><time>2026-04-19T13:19:24.95Z</time></trkpt><trkpt lat="44.462216829077605" lon="9.698108233423373"><ele>594.0</ele><time>2026-04-19T13:19:25.95Z</time></trkpt><trkpt lat="44.46210743908463" lon="9.697977506865383"><ele>594.0</ele><time>2026-04-19T13:19:26.95Z</time></trkpt><trkpt lat="44.46200250948865" lon="9.697817303335881"><ele>594.0</ele><time>2026-04-19T13:19:27.95Z</time></trkpt><trkpt lat="44.46191045880867" lon="9.697655714767247"><ele>594.8</ele><time>2026-04-19T13:19:28.95Z</time></trkpt><trkpt lat="44.461831867553336" lon="9.697521700467435"><ele>595.5999999999999</ele><time>2026-04-19T13:19:29.95Z</time></trkpt><trkpt lat="44.461769706485775" lon="9.697408118807969"><ele>596.4</ele><time>2026-04-19T13:19:30.95Z</time></trkpt><trkpt lat="44.46173851957744" lon="9.697291546934327"><ele>597.1999999999999</ele><time>2026-04-19T13:19:31.95Z</time></trkpt><trkpt lat="44.46176698550982" lon="9.69717368447836"><ele>598.0</ele><time>2026-04-19T13:19:32.95Z</time></trkpt><trkpt lat="44.46184336279271" lon="9.697077641945747"><ele>598.0</ele><time>2026-04-19T13:19:33.95Z</time></trkpt><trkpt lat="44.461954076044144" lon="9.697013921092536"><ele>598.0</ele><time>2026-04-19T13:19:34.95Z</time></trkpt><trkpt lat="44.46208295258628" lon="9.69693618979691"><ele>598.0</ele><time>2026-04-19T13:19:35.95Z</time></trkpt><trkpt lat="44.462219161935124" lon="9.696842300788338"><ele>598.0</ele><time>2026-04-19T13:19:36.95Z</time></trkpt><trkpt lat="44.46235761958965" lon="9.696729722814734"><ele>601.6666666666667</ele><time>2026-04-19T13:19:37.95Z</time></trkpt><trkpt lat="44.462492014239054" lon="9.696597311784313"><ele>605.3333333333334</ele><time>2026-04-19T13:19:38.95Z</time></trkpt><trkpt lat="44.46261443112373" lon="9.6964490286382"><ele>609.0</ele><time>2026-04-19T13:19:39.95Z</time></trkpt><trkpt lat="44.46272120413848" lon="9.696291933121287"><ele>609.0</ele><time>2026-04-19T13:19:40.95Z</time></trkpt><trkpt lat="44.46281407433275" lon="9.696131585554772"><ele>609.0</ele><time>2026-04-19T13:19:41.95Z</time></trkpt><trkpt lat="44.46288781891095" lon="9.695955251251503"><ele>609.0</ele><time>2026-04-19T13:19:42.95Z</time></trkpt><trkpt lat="44.4629206684313" lon="9.695743288640752"><ele>609.0</ele><time>2026-04-19T13:19:43.95Z</time></trkpt><trkpt lat="44.46292596232957" lon="9.695503896733726"><ele>606.0</ele><time>2026-04-19T13:19:44.95Z</time></trkpt><trkpt lat="44.46291554557731" lon="9.695260039989435"><ele>603.0</ele><time>2026-04-19T13:19:45.95Z</time></trkpt><trkpt lat="44.46290078112903" lon="9.695002738582858"><ele>600.0</ele><time>2026-04-19T13:19:46.95Z</time></trkpt><trkpt lat="44.462884366240075" lon="9.694755340549767"><ele>600.0</ele><time>2026-04-19T13:19:47.951Z</time></trkpt><trkpt lat="44.46287568931077" lon="9.694542010860534"><ele>600.0</ele><time>2026-04-19T13:19:48.951Z</time></trkpt><trkpt lat="44.46286140068745" lon="9.694352467629047"><ele>600.0</ele><time>2026-04-19T13:19:49.951Z</time></trkpt><trkpt lat="44.462847958635756" lon="9.694180384541003"><ele>600.0</ele><time>2026-04-19T13:19:50.951Z</time></trkpt><trkpt lat="44.46281915289233" lon="9.694020034400577"><ele>601.75</ele><time>2026-04-19T13:19:51.951Z</time></trkpt><trkpt lat="44.46276214356832" lon="9.69387374815736"><ele>603.5</ele><time>2026-04-19T13:19:52.951Z</time></trkpt><trkpt lat="44.46267199722315" lon="9.693762771726435"><ele>605.25</ele><time>2026-04-19T13:19:53.951Z</time></trkpt><trkpt lat="44.46257630921633" lon="9.693663564237777"><ele>607.0</ele><time>2026-04-19T13:19:54.951Z</time></trkpt><trkpt lat="44.462442946293336" lon="9.693569891394052"><ele>606.0</ele><time>2026-04-19T13:19:55.951Z</time></trkpt><trkpt lat="44.462321505951195" lon="9.6934684765193"><ele>605.0</ele><time>2026-04-19T13:19:56.951Z</time></trkpt><trkpt lat="44.46220561283655" lon="9.69334731015465"><ele>604.0</ele><time>2026-04-19T13:19:57.951Z</time></trkpt><trkpt lat="44.46209741192758" lon="9.693195692090118"><ele>603.0</ele><time>2026-04-19T13:19:58.951Z</time></trkpt><trkpt lat="44.461994499859514" lon="9.693022774925504"><ele>603.0</ele><time>2026-04-19T13:19:59.951Z</time></trkpt><trkpt lat="44.46189206827617" lon="9.692841643949167"><ele>603.0</ele><time>2026-04-19T13:20:00.951Z</time></trkpt><trkpt lat="44.46178453199494" lon="9.692658930052275"><ele>603.0</ele><time>2026-04-19T13:20:01.951Z</time></trkpt><trkpt lat="44.46168409581329" lon="9.692471143849515"><ele>606.6666666666666</ele><time>2026-04-19T13:20:02.951Z</time></trkpt><trkpt lat="44.46159330398329" lon="9.692268976684648"><ele>610.3333333333333</ele><time>2026-04-19T13:20:03.951Z</time></trkpt><trkpt lat="44.46151553520628" lon="9.692055495384118"><ele>614.0</ele><time>2026-04-19T13:20:04.951Z</time></trkpt><trkpt lat="44.4614259191494" lon="9.691856679089327"><ele>613.6666666666666</ele><time>2026-04-19T13:20:05.951Z</time></trkpt><trkpt lat="44.46130496422083" lon="9.69169662437553"><ele>613.3333333333334</ele><time>2026-04-19T13:20:06.951Z</time></trkpt><trkpt lat="44.46115658494424" lon="9.69156136462587"><ele>613.0</ele><time>2026-04-19T13:20:07.951Z</time></trkpt><trkpt lat="44.46101321563007" lon="9.691438747708759"><ele>613.0</ele><time>2026-04-19T13:20:08.951Z</time></trkpt><trkpt lat="44.460889506450684" lon="9.691312897179376"><ele>613.0</ele><time>2026-04-19T13:20:09.951Z</time></trkpt><trkpt lat="44.46077559656601" lon="9.69116156487571"><ele>613.0</ele><time>2026-04-19T13:20:10.951Z</time></trkpt><trkpt lat="44.46067283385991" lon="9.690981340856126"><ele>612.3333333333334</ele><time>2026-04-19T13:20:11.951Z</time></trkpt><trkpt lat="44.460582862159974" lon="9.690783854731452"><ele>611.6666666666666</ele><time>2026-04-19T13:20:12.951Z</time></trkpt><trkpt lat="44.46049832275832" lon="9.690607802162003"><ele>611.0</ele><time>2026-04-19T13:20:13.951Z</time></trkpt><trkpt lat="44.460424025175755" lon="9.690439501229813"><ele>612.6666666666666</ele><time>2026-04-19T13:20:14.951Z</time></trkpt><trkpt lat="44.46036692953956" lon="9.690252962341376"><ele>614.3333333333334</ele><time>2026-04-19T13:20:15.951Z</time></trkpt><trkpt lat="44.46032597862595" lon="9.69003903833894"><ele>616.0</ele><time>2026-04-19T13:20:16.951Z</time></trkpt><trkpt lat="44.46030207238638" lon="9.6897946891503"><ele>616.0</ele><time>2026-04-19T13:20:17.951Z</time></trkpt><trkpt lat="44.46028281382284" lon="9.689554017028795"><ele>616.0</ele><time>2026-04-19T13:20:18.951Z</time></trkpt><trkpt lat="44.46024949806351" lon="9.689318234789152"><ele>616.0</ele><time>2026-04-19T13:20:19.951Z</time></trkpt><trkpt lat="44.46018813610916" lon="9.689082924676358"><ele>617.6666666666667</ele><time>2026-04-19T13:20:20.951Z</time></trkpt><trkpt lat="44.46012191953668" lon="9.68885355574281"><ele>619.3333333333334</ele><time>2026-04-19T13:20:21.951Z</time></trkpt><trkpt lat="44.460048597155826" lon="9.688630205054107"><ele>621.0</ele><time>2026-04-19T13:20:22.951Z</time></trkpt><trkpt lat="44.45996697570359" lon="9.688416853329732"><ele>622.6666666666666</ele><time>2026-04-19T13:20:23.951Z</time></trkpt><trkpt lat="44.45987047415757" lon="9.688203151087517"><ele>624.3333333333333</ele><time>2026-04-19T13:20:24.951Z</time></trkpt><trkpt lat="44.459760817798454" lon="9.688015480751123"><ele>626.0</ele><time>2026-04-19T13:20:25.951Z</time></trkpt><trkpt lat="44.45962856687578" lon="9.687850684924106"><ele>627.0</ele><time>2026-04-19T13:20:26.951Z</time></trkpt><trkpt lat="44.45949245703872" lon="9.687701232803649"><ele>628.0</ele><time>2026-04-19T13:20:27.951Z</time></trkpt><trkpt lat="44.45935720522409" lon="9.687578016650793"><ele>629.0</ele><time>2026-04-19T13:20:28.951Z</time></trkpt><trkpt lat="44.45923247465938" lon="9.687485956091358"><ele>629.0</ele><time>2026-04-19T13:20:29.951Z</time></trkpt><trkpt lat="44.45910808649694" lon="9.687415499841846"><ele>629.0</ele><time>2026-04-19T13:20:30.951Z</time></trkpt><trkpt lat="44.45899549518566" lon="9.68736739229615"><ele>629.0</ele><time>2026-04-19T13:20:31.951Z</time></trkpt><trkpt lat="44.458894654060856" lon="9.687310184069098"><ele>629.0</ele><time>2026-04-19T13:20:32.951Z</time></trkpt><trkpt lat="44.45880264263612" lon="9.687232686909764"><ele>628.5</ele><time>2026-04-19T13:20:33.951Z</time></trkpt><trkpt lat="44.45873038166506" lon="9.687118167859708"><ele>628.0</ele><time>2026-04-19T13:20:34.951Z</time></trkpt><trkpt lat="44.45868944380122" lon="9.686967058921836"><ele>627.5</ele><time>2026-04-19T13:20:35.949Z</time></trkpt><trkpt lat="44.458668647549786" lon="9.686793970053888"><ele>627.0</ele><time>2026-04-19T13:20:36.948Z</time></trkpt><trkpt lat="44.458646871269764" lon="9.686614304766895"><ele>627.0</ele><time>2026-04-19T13:20:37.948Z</time></trkpt><trkpt lat="44.458620041860094" lon="9.686421819297982"><ele>627.0</ele><time>2026-04-19T13:20:38.949Z</time></trkpt><trkpt lat="44.458600149949326" lon="9.686214631524095"><ele>627.0</ele><time>2026-04-19T13:20:39.948Z</time></trkpt><trkpt lat="44.45858733309006" lon="9.686003451461758"><ele>627.0</ele><time>2026-04-19T13:20:40.948Z</time></trkpt><trkpt lat="44.45858393760406" lon="9.6857692545395"><ele>628.0</ele><time>2026-04-19T13:20:41.949Z</time></trkpt><trkpt lat="44.45855513397958" lon="9.685517973797936"><ele>629.0</ele><time>2026-04-19T13:20:42.949Z</time></trkpt><trkpt lat="44.45850904154513" lon="9.68525997381553"><ele>630.0</ele><time>2026-04-19T13:20:43.949Z</time></trkpt><trkpt lat="44.45844942015766" lon="9.684999832948387"><ele>631.0</ele><time>2026-04-19T13:20:44.949Z</time></trkpt><trkpt lat="44.458384471149536" lon="9.684743620197093"><ele>632.0</ele><time>2026-04-19T13:20:45.949Z</time></trkpt><trkpt lat="44.458321305556595" lon="9.684499610883078"><ele>633.0</ele><time>2026-04-19T13:20:46.949Z</time></trkpt><trkpt lat="44.45826923870302" lon="9.684290574291339"><ele>634.5</ele><time>2026-04-19T13:20:47.949Z</time></trkpt><trkpt lat="44.45823450084977" lon="9.684111279073601"><ele>636.0</ele><time>2026-04-19T13:20:48.949Z</time></trkpt><trkpt lat="44.45821809142427" lon="9.683947854027567"><ele>637.5</ele><time>2026-04-19T13:20:49.949Z</time></trkpt><trkpt lat="44.45824392764552" lon="9.683801933386942"><ele>639.0</ele><time>2026-04-19T13:20:50.949Z</time></trkpt><trkpt lat="44.458317763687226" lon="9.683667094363628"><ele>640.75</ele><time>2026-04-19T13:20:51.949Z</time></trkpt><trkpt lat="44.458435819295765" lon="9.683552416574283"><ele>642.5</ele><time>2026-04-19T13:20:52.949Z</time></trkpt><trkpt lat="44.45855761707423" lon="9.683431764198684"><ele>644.25</ele><time>2026-04-19T13:20:53.949Z</time></trkpt><trkpt lat="44.45866254499492" lon="9.683299659924753"><ele>646.0</ele><time>2026-04-19T13:20:54.949Z</time></trkpt><trkpt lat="44.45873414926408" lon="9.683186043319035"><ele>646.0</ele><time>2026-04-19T13:20:55.949Z</time></trkpt><trkpt lat="44.458776782590334" lon="9.683084879784419"><ele>646.0</ele><time>2026-04-19T13:20:56.949Z</time></trkpt><trkpt lat="44.45877986194714" lon="9.682958308713722"><ele>646.0</ele><time>2026-04-19T13:20:57.949Z</time></trkpt><trkpt lat="44.4587301436052" lon="9.68281515928012"><ele>646.0</ele><time>2026-04-19T13:20:58.949Z</time></trkpt><trkpt lat="44.458625478064505" lon="9.682708582333147"><ele>646.0</ele><time>2026-04-19T13:20:59.949Z</time></trkpt><trkpt lat="44.45849548319247" lon="9.682652443660269"><ele>649.6666666666667</ele><time>2026-04-19T13:21:00.949Z</time></trkpt><trkpt lat="44.458348819683785" lon="9.68261941923089"><ele>653.3333333333334</ele><time>2026-04-19T13:21:01.949Z</time></trkpt><trkpt lat="44.45819914139712" lon="9.682572003987314"><ele>657.0</ele><time>2026-04-19T13:21:02.949Z</time></trkpt><trkpt lat="44.458048089933946" lon="9.682516791902124"><ele>658.3333333333334</ele><time>2026-04-19T13:21:03.949Z</time></trkpt><trkpt lat="44.457892180837185" lon="9.682475942530624"><ele>659.6666666666667</ele><time>2026-04-19T13:21:04.949Z</time></trkpt><trkpt lat="44.457742250164166" lon="9.682469109939609"><ele>661.0</ele><time>2026-04-19T13:21:05.949Z</time></trkpt><trkpt lat="44.45759985478893" lon="9.682497737651111"><ele>661.0</ele><time>2026-04-19T13:21:06.949Z</time></trkpt><trkpt lat="44.4574779794442" lon="9.6825533364316"><ele>661.0</ele><time>2026-04-19T13:21:07.949Z</time></trkpt><trkpt lat="44.45736437586718" lon="9.682621737873747"><ele>661.0</ele><time>2026-04-19T13:21:08.949Z</time></trkpt><trkpt lat="44.45726954375205" lon="9.68267700471989"><ele>661.0</ele><time>2026-04-19T13:21:09.949Z</time></trkpt><trkpt lat="44.457191587387555" lon="9.68268418439937"><ele>661.0</ele><time>2026-04-19T13:21:10.949Z</time></trkpt><trkpt lat="44.457098940865" lon="9.682645541712512"><ele>660.0</ele><time>2026-04-19T13:21:11.949Z</time></trkpt><trkpt lat="44.45701478686638" lon="9.682555410638058"><ele>659.0</ele><time>2026-04-19T13:21:12.949Z</time></trkpt><trkpt lat="44.456932258426" lon="9.68242078861908"><ele>658.0</ele><time>2026-04-19T13:21:13.949Z</time></trkpt><trkpt lat="44.45686100003729" lon="9.682246356797219"><ele>657.0</ele><time>2026-04-19T13:21:14.949Z</time></trkpt><trkpt lat="44.45680693614031" lon="9.682044819428477"><ele>659.6666666666666</ele><time>2026-04-19T13:21:15.949Z</time></trkpt><trkpt lat="44.45675712315893" lon="9.681836005284255"><ele>662.3333333333333</ele><time>2026-04-19T13:21:16.949Z</time></trkpt><trkpt lat="44.45672217118007" lon="9.68161937770489"><ele>665.0</ele><time>2026-04-19T13:21:17.949Z</time></trkpt><trkpt lat="44.45671422156279" lon="9.681383479754619"><ele>665.0</ele><time>2026-04-19T13:21:18.949Z</time></trkpt><trkpt lat="44.45672087498452" lon="9.681137437717316"><ele>665.0</ele><time>2026-04-19T13:21:19.949Z</time></trkpt><trkpt lat="44.456721285971945" lon="9.680883366808132"><ele>665.0</ele><time>2026-04-19T13:21:20.949Z</time></trkpt><trkpt lat="44.456709354822834" lon="9.6806182951227"><ele>666.6666666666666</ele><time>2026-04-19T13:21:21.949Z</time></trkpt><trkpt lat="44.45668454933077" lon="9.680344127392516"><ele>668.3333333333334</ele><time>2026-04-19T13:21:22.949Z</time></trkpt><trkpt lat="44.45664427280767" lon="9.680071536633363"><ele>670.0</ele><time>2026-04-19T13:21:23.949Z</time></trkpt><trkpt lat="44.45659597943704" lon="9.67981088018586"><ele>671.6666666666667</ele><time>2026-04-19T13:21:24.949Z</time></trkpt><trkpt lat="44.45654682608503" lon="9.679544585454318"><ele>673.3333333333334</ele><time>2026-04-19T13:21:25.949Z</time></trkpt><trkpt lat="44.456502375651105" lon="9.67927683613583"><ele>675.0</ele><time>2026-04-19T13:21:26.949Z</time></trkpt><trkpt lat="44.4564547357185" lon="9.679016874499698"><ele>677.3333333333334</ele><time>2026-04-19T13:21:27.949Z</time></trkpt><trkpt lat="44.456391041330484" lon="9.678771575637091"><ele>679.6666666666667</ele><time>2026-04-19T13:21:28.949Z</time></trkpt><trkpt lat="44.45629801482596" lon="9.67853799566566"><ele>682.0</ele><time>2026-04-19T13:21:29.949Z</time></trkpt><trkpt lat="44.45618391497494" lon="9.678322252367979"><ele>682.0</ele><time>2026-04-19T13:21:30.949Z</time></trkpt><trkpt lat="44.4560692025525" lon="9.678096031488229"><ele>682.0</ele><time>2026-04-19T13:21:31.949Z</time></trkpt><trkpt lat="44.4559573061323" lon="9.6778761055203"><ele>682.0</ele><time>2026-04-19T13:21:32.949Z</time></trkpt><trkpt lat="44.45586217787645" lon="9.677655523856291"><ele>684.6666666666667</ele><time>2026-04-19T13:21:33.949Z</time></trkpt><trkpt lat="44.455789395108276" lon="9.677417607625847"><ele>687.3333333333334</ele><time>2026-04-19T13:21:34.949Z</time></trkpt><trkpt lat="44.45572874448912" lon="9.677159065565709"><ele>690.0</ele><time>2026-04-19T13:21:35.949Z</time></trkpt><trkpt lat="44.455666620897254" lon="9.676897418053684"><ele>692.3333333333334</ele><time>2026-04-19T13:21:36.949Z</time></trkpt><trkpt lat="44.45560097069765" lon="9.67663743436695"><ele>694.6666666666667</ele><time>2026-04-19T13:21:37.949Z</time></trkpt><trkpt lat="44.455533606667665" lon="9.676368027073028"><ele>697.0</ele><time>2026-04-19T13:21:38.949Z</time></trkpt><trkpt lat="44.455467152767625" lon="9.67609965365754"><ele>695.3333333333334</ele><time>2026-04-19T13:21:39.949Z</time></trkpt><trkpt lat="44.455412769258984" lon="9.675855017324754"><ele>693.6666666666666</ele><time>2026-04-19T13:21:40.949Z</time></trkpt><trkpt lat="44.455369073078764" lon="9.675642501780038"><ele>692.0</ele><time>2026-04-19T13:21:41.949Z</time></trkpt><trkpt lat="44.45533164609458" lon="9.675448139937323"><ele>692.0</ele><time>2026-04-19T13:21:42.949Z</time></trkpt><trkpt lat="44.45529491754415" lon="9.675278014498678"><ele>692.0</ele><time>2026-04-19T13:21:43.949Z</time></trkpt><trkpt lat="44.455279855767074" lon="9.675135460833564"><ele>692.0</ele><time>2026-04-19T13:21:44.949Z</time></trkpt><trkpt lat="44.45529283769106" lon="9.674987600337875"><ele>692.0</ele><time>2026-04-19T13:21:45.949Z</time></trkpt><trkpt lat="44.455333859668734" lon="9.674824147002239"><ele>693.5</ele><time>2026-04-19T13:21:46.949Z</time></trkpt><trkpt lat="44.45538501138634" lon="9.67464809003095"><ele>695.0</ele><time>2026-04-19T13:21:47.949Z</time></trkpt><trkpt lat="44.455440308787786" lon="9.674461599988348"><ele>696.5</ele><time>2026-04-19T13:21:48.949Z</time></trkpt><trkpt lat="44.45549801792137" lon="9.674266047447324"><ele>698.0</ele><time>2026-04-19T13:21:49.949Z</time></trkpt><trkpt lat="44.45555836983297" lon="9.674055469584854"><ele>698.3333333333333</ele><time>2026-04-19T13:21:50.949Z</time></trkpt><trkpt lat="44.455620097798636" lon="9.673834652045375"><ele>698.6666666666666</ele><time>2026-04-19T13:21:51.949Z</time></trkpt><trkpt lat="44.45567983657264" lon="9.673630062725778"><ele>699.0</ele><time>2026-04-19T13:21:52.949Z</time></trkpt><trkpt lat="44.455742630200575" lon="9.67344980904933"><ele>699.0</ele><time>2026-04-19T13:21:53.949Z</time></trkpt><trkpt lat="44.45582753800892" lon="9.673290206985943"><ele>699.0</ele><time>2026-04-19T13:21:54.949Z</time></trkpt><trkpt lat="44.45593569316717" lon="9.673134219758206"><ele>699.0</ele><time>2026-04-19T13:21:55.949Z</time></trkpt><trkpt lat="44.4560686911962" lon="9.672981932376041"><ele>699.0</ele><time>2026-04-19T13:21:56.949Z</time></trkpt><trkpt lat="44.45621468633797" lon="9.672834274394202"><ele>699.0</ele><time>2026-04-19T13:21:57.949Z</time></trkpt><trkpt lat="44.45636278917751" lon="9.672691228703595"><ele>699.0</ele><time>2026-04-19T13:21:58.949Z</time></trkpt><trkpt lat="44.45650404652363" lon="9.672556277668221"><ele>698.5</ele><time>2026-04-19T13:21:59.949Z</time></trkpt><trkpt lat="44.45662672492186" lon="9.672436911506615"><ele>698.0</ele><time>2026-04-19T13:22:00.949Z</time></trkpt><trkpt lat="44.45673403000768" lon="9.672317152203489"><ele>697.5</ele><time>2026-04-19T13:22:01.949Z</time></trkpt><trkpt lat="44.45682956475862" lon="9.672203079431767"><ele>697.0</ele><time>2026-04-19T13:22:02.949Z</time></trkpt><trkpt lat="44.456913167043474" lon="9.672085516453574"><ele>694.75</ele><time>2026-04-19T13:22:03.949Z</time></trkpt><trkpt lat="44.4569424262595" lon="9.671925602250658"><ele>692.5</ele><time>2026-04-19T13:22:04.949Z</time></trkpt><trkpt lat="44.456937785948014" lon="9.67173338529709"><ele>690.25</ele><time>2026-04-19T13:22:05.949Z</time></trkpt><trkpt lat="44.45691061331575" lon="9.671570221303673"><ele>688.0</ele><time>2026-04-19T13:22:06.949Z</time></trkpt><trkpt lat="44.456907608959455" lon="9.671420412875491"><ele>688.0</ele><time>2026-04-19T13:22:07.949Z</time></trkpt><trkpt lat="44.45694042105712" lon="9.671295857633558"><ele>688.0</ele><time>2026-04-19T13:22:08.949Z</time></trkpt><trkpt lat="44.45701521321698" lon="9.671207450366563"><ele>688.0</ele><time>2026-04-19T13:22:09.949Z</time></trkpt><trkpt lat="44.45712252240355" lon="9.671154763376473"><ele>688.0</ele><time>2026-04-19T13:22:10.949Z</time></trkpt><trkpt lat="44.457247068342355" lon="9.671118324852417"><ele>688.0</ele><time>2026-04-19T13:22:11.949Z</time></trkpt><trkpt lat="44.45737483030533" lon="9.671051959388809"><ele>687.75</ele><time>2026-04-19T13:22:12.949Z</time></trkpt><trkpt lat="44.45747564020589" lon="9.670926188436678"><ele>687.5</ele><time>2026-04-19T13:22:13.949Z</time></trkpt><trkpt lat="44.457556270211626" lon="9.67076550638155"><ele>687.25</ele><time>2026-04-19T13:22:14.949Z</time></trkpt><trkpt lat="44.45764384774878" lon="9.670597517503897"><ele>687.0</ele><time>2026-04-19T13:22:15.949Z</time></trkpt><trkpt lat="44.45773470093639" lon="9.670442992311013"><ele>687.0</ele><time>2026-04-19T13:22:16.95Z</time></trkpt><trkpt lat="44.45780758966683" lon="9.670310057067914"><ele>687.0</ele><time>2026-04-19T13:22:17.95Z</time></trkpt><trkpt lat="44.457855667728076" lon="9.670174179245898"><ele>687.0</ele><time>2026-04-19T13:22:18.95Z</time></trkpt><trkpt lat="44.457864173305545" lon="9.670028489846642"><ele>687.0</ele><time>2026-04-19T13:22:19.95Z</time></trkpt><trkpt lat="44.4578257894208" lon="9.669899275275602"><ele>687.0</ele><time>2026-04-19T13:22:20.95Z</time></trkpt><trkpt lat="44.457743968876066" lon="9.669779425651353"><ele>688.25</ele><time>2026-04-19T13:22:21.95Z</time></trkpt><trkpt lat="44.45762900665489" lon="9.669678951160613"><ele>689.5</ele><time>2026-04-19T13:22:22.95Z</time></trkpt><trkpt lat="44.45749684263194" lon="9.669589584474918"><ele>690.75</ele><time>2026-04-19T13:22:23.95Z</time></trkpt><trkpt lat="44.45734737853262" lon="9.669508486503496"><ele>692.0</ele><time>2026-04-19T13:22:24.95Z</time></trkpt><trkpt lat="44.45719724945867" lon="9.66942957001662"><ele>693.75</ele><time>2026-04-19T13:22:25.95Z</time></trkpt><trkpt lat="44.45705775416193" lon="9.669349460038415"><ele>695.5</ele><time>2026-04-19T13:22:26.95Z</time></trkpt><trkpt lat="44.45692136741028" lon="9.669270315085651"><ele>697.25</ele><time>2026-04-19T13:22:27.95Z</time></trkpt><trkpt lat="44.45679399057887" lon="9.66918599390635"><ele>699.0</ele><time>2026-04-19T13:22:28.95Z</time></trkpt><trkpt lat="44.45667215017818" lon="9.669097442581409"><ele>699.0</ele><time>2026-04-19T13:22:29.95Z</time></trkpt><trkpt lat="44.4565706582038" lon="9.669001102755315"><ele>699.0</ele><time>2026-04-19T13:22:30.95Z</time></trkpt><trkpt lat="44.45648336728915" lon="9.668880770684638"><ele>699.0</ele><time>2026-04-19T13:22:31.95Z</time></trkpt><trkpt lat="44.45641950071653" lon="9.668716964663886"><ele>699.0</ele><time>2026-04-19T13:22:32.95Z</time></trkpt><trkpt lat="44.4563790512091" lon="9.668530322981125"><ele>696.6666666666666</ele><time>2026-04-19T13:22:33.95Z</time></trkpt><trkpt lat="44.45634588618018" lon="9.668327974309795"><ele>694.3333333333333</ele><time>2026-04-19T13:22:34.95Z</time></trkpt><trkpt lat="44.45630585445062" lon="9.668117195110467"><ele>692.0</ele><time>2026-04-19T13:22:35.95Z</time></trkpt><trkpt lat="44.45624953666011" lon="9.667909572501934"><ele>696.0</ele><time>2026-04-19T13:22:36.95Z</time></trkpt><trkpt lat="44.45617198131709" lon="9.667704483333317"><ele>700.0</ele><time>2026-04-19T13:22:37.95Z</time></trkpt><trkpt lat="44.456095154797275" lon="9.667510729664718"><ele>704.0</ele><time>2026-04-19T13:22:38.95Z</time></trkpt><trkpt lat="44.45602894499472" lon="9.667322113111618"><ele>704.0</ele><time>2026-04-19T13:22:39.95Z</time></trkpt><trkpt lat="44.45597699059596" lon="9.667141022722578"><ele>704.0</ele><time>2026-04-19T13:22:40.95Z</time></trkpt><trkpt lat="44.45595603451455" lon="9.666943109998375"><ele>704.0</ele><time>2026-04-19T13:22:41.947Z</time></trkpt><trkpt lat="44.455953598855544" lon="9.66673188562009"><ele>704.0</ele><time>2026-04-19T13:22:42.947Z</time></trkpt><trkpt lat="44.455949314927786" lon="9.666523456423102"><ele>706.25</ele><time>2026-04-19T13:22:43.947Z</time></trkpt><trkpt lat="44.455919530797196" lon="9.666325712108677"><ele>708.5</ele><time>2026-04-19T13:22:44.947Z</time></trkpt><trkpt lat="44.455865692699966" lon="9.666145244790021"><ele>710.75</ele><time>2026-04-19T13:22:45.947Z</time></trkpt><trkpt lat="44.45578823724322" lon="9.66597651911945"><ele>713.0</ele><time>2026-04-19T13:22:46.947Z</time></trkpt><trkpt lat="44.45570449908966" lon="9.665825072106482"><ele>714.75</ele><time>2026-04-19T13:22:47.946Z</time></trkpt><trkpt lat="44.45564411328809" lon="9.665681177437177"><ele>716.5</ele><time>2026-04-19T13:22:48.947Z</time></trkpt><trkpt lat="44.45561677204493" lon="9.66550927420272"><ele>718.25</ele><time>2026-04-19T13:22:49.947Z</time></trkpt><trkpt lat="44.45562249779223" lon="9.665342039000294"><ele>720.0</ele><time>2026-04-19T13:22:50.947Z</time></trkpt><trkpt lat="44.45566434302014" lon="9.66522034553921"><ele>720.0</ele><time>2026-04-19T13:22:51.947Z</time></trkpt><trkpt lat="44.45574328396539" lon="9.665145620967866"><ele>720.0</ele><time>2026-04-19T13:22:52.947Z</time></trkpt><trkpt lat="44.45585036220377" lon="9.665112650403104"><ele>720.0</ele><time>2026-04-19T13:22:53.947Z</time></trkpt><trkpt lat="44.455972295119295" lon="9.665088968019765"><ele>720.0</ele><time>2026-04-19T13:22:54.947Z</time></trkpt><trkpt lat="44.45610618114595" lon="9.665056378151185"><ele>720.0</ele><time>2026-04-19T13:22:55.947Z</time></trkpt><trkpt lat="44.45625247128715" lon="9.665010615789575"><ele>720.0</ele><time>2026-04-19T13:22:56.947Z</time></trkpt><trkpt lat="44.456401729377035" lon="9.664947378971274"><ele>720.0</ele><time>2026-04-19T13:22:57.947Z</time></trkpt><trkpt lat="44.45654871416667" lon="9.664885790397006"><ele>719.75</ele><time>2026-04-19T13:22:58.947Z</time></trkpt><trkpt lat="44.45668564113891" lon="9.66479680611025"><ele>719.5</ele><time>2026-04-19T13:22:59.947Z</time></trkpt><trkpt lat="44.45680914148691" lon="9.664673680794731"><ele>719.25</ele><time>2026-04-19T13:23:00.947Z</time></trkpt><trkpt lat="44.45691017575919" lon="9.664525727551313"><ele>719.0</ele><time>2026-04-19T13:23:01.947Z</time></trkpt><trkpt lat="44.456989098240896" lon="9.664371094811493"><ele>719.0</ele><time>2026-04-19T13:23:02.947Z</time></trkpt><trkpt lat="44.45705094554961" lon="9.664210639901915"><ele>719.0</ele><time>2026-04-19T13:23:03.947Z</time></trkpt><trkpt lat="44.457092301521804" lon="9.664031474798051"><ele>719.0</ele><time>2026-04-19T13:23:04.947Z</time></trkpt><trkpt lat="44.45710805732458" lon="9.663829706732772"><ele>719.0</ele><time>2026-04-19T13:23:05.947Z</time></trkpt><trkpt lat="44.45710274094829" lon="9.663601019350981"><ele>718.0</ele><time>2026-04-19T13:23:06.947Z</time></trkpt><trkpt lat="44.45709206575863" lon="9.663351148391051"><ele>717.0</ele><time>2026-04-19T13:23:07.947Z</time></trkpt><trkpt lat="44.457083646603536" lon="9.6630834017415"><ele>716.0</ele><time>2026-04-19T13:23:08.947Z</time></trkpt><trkpt lat="44.45706729627378" lon="9.662798264241216"><ele>717.0</ele><time>2026-04-19T13:23:09.947Z</time></trkpt><trkpt lat="44.45705901617129" lon="9.66248813256411"><ele>718.0</ele><time>2026-04-19T13:23:10.947Z</time></trkpt><trkpt lat="44.457050880036704" lon="9.66217452692626"><ele>719.0</ele><time>2026-04-19T13:23:11.947Z</time></trkpt><trkpt lat="44.4570452978262" lon="9.66187598164824"><ele>720.0</ele><time>2026-04-19T13:23:12.947Z</time></trkpt><trkpt lat="44.45703828569457" lon="9.661583101487405"><ele>721.0</ele><time>2026-04-19T13:23:13.947Z</time></trkpt><trkpt lat="44.45703188696393" lon="9.661297680237539"><ele>722.0</ele><time>2026-04-19T13:23:14.947Z</time></trkpt><trkpt lat="44.45702910809838" lon="9.66101628536241"><ele>722.3333333333333</ele><time>2026-04-19T13:23:15.947Z</time></trkpt><trkpt lat="44.45702599912714" lon="9.660731412188454"><ele>722.6666666666666</ele><time>2026-04-19T13:23:16.947Z</time></trkpt><trkpt lat="44.457018943739634" lon="9.66043348976447"><ele>723.0</ele><time>2026-04-19T13:23:17.947Z</time></trkpt><trkpt lat="44.4570143449159" lon="9.66013440827016"><ele>722.3333333333334</ele><time>2026-04-19T13:23:18.947Z</time></trkpt><trkpt lat="44.457008609254416" lon="9.65983389817963"><ele>721.6666666666667</ele><time>2026-04-19T13:23:19.947Z</time></trkpt><trkpt lat="44.456997849666784" lon="9.65954750211493"><ele>721.0</ele><time>2026-04-19T13:23:20.947Z</time></trkpt><trkpt lat="44.45698935899441" lon="9.659276412883173"><ele>721.0</ele><time>2026-04-19T13:23:21.947Z</time></trkpt><trkpt lat="44.456976112215976" lon="9.65902562259307"><ele>721.0</ele><time>2026-04-19T13:23:22.947Z</time></trkpt><trkpt lat="44.45696535412225" lon="9.658779706310904"><ele>721.0</ele><time>2026-04-19T13:23:23.947Z</time></trkpt><trkpt lat="44.45694386988264" lon="9.658538113486587"><ele>721.6666666666667</ele><time>2026-04-19T13:23:24.947Z</time></trkpt><trkpt lat="44.45689632106615" lon="9.658301308311994"><ele>722.3333333333334</ele><time>2026-04-19T13:23:25.947Z</time></trkpt><trkpt lat="44.45683115149524" lon="9.658059264069065"><ele>723.0</ele><time>2026-04-19T13:23:26.947Z</time></trkpt><trkpt lat="44.45676205295937" lon="9.657834173366911"><ele>724.5</ele><time>2026-04-19T13:23:27.947Z</time></trkpt><trkpt lat="44.4567094514844" lon="9.657625539907981"><ele>726.0</ele><time>2026-04-19T13:23:28.947Z</time></trkpt><trkpt lat="44.45667083089825" lon="9.6574407002817"><ele>727.5</ele><time>2026-04-19T13:23:29.947Z</time></trkpt><trkpt lat="44.456626871690624" lon="9.657268411622317"><ele>729.0</ele><time>2026-04-19T13:23:30.947Z</time></trkpt><trkpt lat="44.45655308965251" lon="9.657086222402178"><ele>731.3333333333334</ele><time>2026-04-19T13:23:31.947Z</time></trkpt><trkpt lat="44.4564468704745" lon="9.656921515915379"><ele>733.6666666666667</ele><time>2026-04-19T13:23:32.947Z</time></trkpt><trkpt lat="44.45632329613204" lon="9.656752449025051"><ele>736.0</ele><time>2026-04-19T13:23:33.947Z</time></trkpt><trkpt lat="44.45621523463368" lon="9.656581533257146"><ele>734.25</ele><time>2026-04-19T13:23:34.947Z</time></trkpt><trkpt lat="44.45612142697838" lon="9.656411107379022"><ele>732.5</ele><time>2026-04-19T13:23:35.947Z</time></trkpt><trkpt lat="44.45604482521396" lon="9.656248723416446"><ele>730.75</ele><time>2026-04-19T13:23:36.947Z</time></trkpt><trkpt lat="44.455999363743096" lon="9.656072386207066"><ele>729.0</ele><time>2026-04-19T13:23:37.947Z</time></trkpt><trkpt lat="44.4559809074096" lon="9.655855960592062"><ele>729.0</ele><time>2026-04-19T13:23:38.947Z</time></trkpt><trkpt lat="44.45599063684174" lon="9.655623286924252"><ele>729.0</ele><time>2026-04-19T13:23:39.947Z</time></trkpt><trkpt lat="44.45600820091192" lon="9.655385554179105"><ele>729.0</ele><time>2026-04-19T13:23:40.947Z</time></trkpt><trkpt lat="44.45601829070771" lon="9.65513633735528"><ele>729.3333333333334</ele><time>2026-04-19T13:23:41.947Z</time></trkpt><trkpt lat="44.45602277887976" lon="9.654877973502206"><ele>729.6666666666667</ele><time>2026-04-19T13:23:42.947Z</time></trkpt><trkpt lat="44.456031552353295" lon="9.654621865542591"><ele>730.0</ele><time>2026-04-19T13:23:43.947Z</time></trkpt><trkpt lat="44.456037374765536" lon="9.654392516143552"><ele>730.0</ele><time>2026-04-19T13:23:44.947Z</time></trkpt><trkpt lat="44.45603255928356" lon="9.654177634696259"><ele>730.0</ele><time>2026-04-19T13:23:45.947Z</time></trkpt><trkpt lat="44.45600043495205" lon="9.653968798857573"><ele>730.0</ele><time>2026-04-19T13:23:46.947Z</time></trkpt><trkpt lat="44.45593100875552" lon="9.653754225590271"><ele>732.0</ele><time>2026-04-19T13:23:47.947Z</time></trkpt><trkpt lat="44.45582140462151" lon="9.653541889987382"><ele>734.0</ele><time>2026-04-19T13:23:48.947Z</time></trkpt><trkpt lat="44.455698356452835" lon="9.653332311764936"><ele>736.0</ele><time>2026-04-19T13:23:49.947Z</time></trkpt><trkpt lat="44.4555793163331" lon="9.653112298316188"><ele>736.0</ele><time>2026-04-19T13:23:50.947Z</time></trkpt><trkpt lat="44.45546383164722" lon="9.652890096873602"><ele>736.0</ele><time>2026-04-19T13:23:51.947Z</time></trkpt><trkpt lat="44.4553666125858" lon="9.652667408750679"><ele>736.0</ele><time>2026-04-19T13:23:52.947Z</time></trkpt><trkpt lat="44.45526928857016" lon="9.652464385538492"><ele>736.5</ele><time>2026-04-19T13:23:53.947Z</time></trkpt><trkpt lat="44.45517767217262" lon="9.652297592555472"><ele>737.0</ele><time>2026-04-19T13:23:54.947Z</time></trkpt><trkpt lat="44.455076279182116" lon="9.652166524590308"><ele>737.5</ele><time>2026-04-19T13:23:55.948Z</time></trkpt><trkpt lat="44.454947818204786" lon="9.652068948352563"><ele>738.0</ele><time>2026-04-19T13:23:56.948Z</time></trkpt><trkpt lat="44.4547843251992" lon="9.65200406531882"><ele>741.3333333333334</ele><time>2026-04-19T13:23:57.948Z</time></trkpt><trkpt lat="44.454604793160875" lon="9.651951351963636"><ele>744.6666666666667</ele><time>2026-04-19T13:23:58.948Z</time></trkpt><trkpt lat="44.454415232451375" lon="9.651891553795643"><ele>748.0</ele><time>2026-04-19T13:23:59.948Z</time></trkpt><trkpt lat="44.45423787834696" lon="9.651826361938067"><ele>748.0</ele><time>2026-04-19T13:24:00.948Z</time></trkpt><trkpt lat="44.4540725096261" lon="9.651716569711109"><ele>748.0</ele><time>2026-04-19T13:24:01.948Z</time></trkpt><trkpt lat="44.453917407624964" lon="9.651581321868662"><ele>748.0</ele><time>2026-04-19T13:24:02.948Z</time></trkpt><trkpt lat="44.45376578960337" lon="9.65143599100878"><ele>747.3333333333334</ele><time>2026-04-19T13:24:03.948Z</time></trkpt><trkpt lat="44.45361794615557" lon="9.651305162126341"><ele>746.6666666666666</ele><time>2026-04-19T13:24:04.948Z</time></trkpt><trkpt lat="44.45347856072138" lon="9.651217349658989"><ele>746.0</ele><time>2026-04-19T13:24:05.948Z</time></trkpt><trkpt lat="44.45335502984604" lon="9.651154698784692"><ele>749.25</ele><time>2026-04-19T13:24:06.948Z</time></trkpt><trkpt lat="44.4532512878481" lon="9.651084470276361"><ele>752.5</ele><time>2026-04-19T13:24:07.948Z</time></trkpt><trkpt lat="44.45315485062811" lon="9.65097285559231"><ele>755.75</ele><time>2026-04-19T13:24:08.948Z</time></trkpt><trkpt lat="44.453099954238766" lon="9.650810732739417"><ele>759.0</ele><time>2026-04-19T13:24:09.948Z</time></trkpt><trkpt lat="44.453050048532425" lon="9.650625840463713"><ele>759.0</ele><time>2026-04-19T13:24:10.948Z</time></trkpt><trkpt lat="44.4529818167627" lon="9.650440131258142"><ele>759.0</ele><time>2026-04-19T13:24:11.948Z</time></trkpt><trkpt lat="44.452877390487416" lon="9.650271902483576"><ele>759.0</ele><time>2026-04-19T13:24:12.948Z</time></trkpt><trkpt lat="44.452752119267025" lon="9.650123153402845"><ele>760.3333333333334</ele><time>2026-04-19T13:24:13.948Z</time></trkpt><trkpt lat="44.4526229051549" lon="9.649979465258987"><ele>761.6666666666667</ele><time>2026-04-19T13:24:14.948Z</time></trkpt><trkpt lat="44.452503358151446" lon="9.649820680231922"><ele>763.0</ele><time>2026-04-19T13:24:15.948Z</time></trkpt><trkpt lat="44.45240728428304" lon="9.649649854921986"><ele>763.0</ele><time>2026-04-19T13:24:16.948Z</time></trkpt><trkpt lat="44.45233248944544" lon="9.649469490951331"><ele>763.0</ele><time>2026-04-19T13:24:17.948Z</time></trkpt><trkpt lat="44.45226122082411" lon="9.649288516180775"><ele>763.0</ele><time>2026-04-19T13:24:18.948Z</time></trkpt><trkpt lat="44.45221845630146" lon="9.649062473015485"><ele>765.6666666666667</ele><time>2026-04-19T13:24:19.948Z</time></trkpt><trkpt lat="44.452183976225285" lon="9.648825848047228"><ele>768.3333333333334</ele><time>2026-04-19T13:24:20.948Z</time></trkpt><trkpt lat="44.45214698787343" lon="9.648593764519822"><ele>771.0</ele><time>2026-04-19T13:24:21.948Z</time></trkpt><trkpt lat="44.45208712840025" lon="9.648378379400754"><ele>771.0</ele><time>2026-04-19T13:24:22.948Z</time></trkpt><trkpt lat="44.452004868850395" lon="9.648179456395827"><ele>771.0</ele><time>2026-04-19T13:24:23.948Z</time></trkpt><trkpt lat="44.451896584617266" lon="9.647988671163542"><ele>771.0</ele><time>2026-04-19T13:24:24.948Z</time></trkpt><trkpt lat="44.45178595647788" lon="9.647814287640188"><ele>774.5999999999999</ele><time>2026-04-19T13:24:25.948Z</time></trkpt><trkpt lat="44.45169823044004" lon="9.647666306072146"><ele>778.2</ele><time>2026-04-19T13:24:26.948Z</time></trkpt><trkpt lat="44.45162498163244" lon="9.64754337697413"><ele>781.8</ele><time>2026-04-19T13:24:27.948Z</time></trkpt><trkpt lat="44.45154017916958" lon="9.647475416772224"><ele>785.4000000000001</ele><time>2026-04-19T13:24:28.948Z</time></trkpt><trkpt lat="44.45144265834127" lon="9.64746516364071"><ele>789.0</ele><time>2026-04-19T13:24:29.948Z</time></trkpt><trkpt lat="44.45133263077595" lon="9.64749518099874"><ele>786.4000000000001</ele><time>2026-04-19T13:24:30.948Z</time></trkpt><trkpt lat="44.45122587593003" lon="9.647511650603182"><ele>783.8</ele><time>2026-04-19T13:24:31.948Z</time></trkpt><trkpt lat="44.45113283314423" lon="9.64746247411681"><ele>781.2</ele><time>2026-04-19T13:24:32.948Z</time></trkpt><trkpt lat="44.45107863710018" lon="9.647342339728471"><ele>778.5999999999999</ele><time>2026-04-19T13:24:33.948Z</time></trkpt><trkpt lat="44.45107602910885" lon="9.64718444305389"><ele>776.0</ele><time>2026-04-19T13:24:34.948Z</time></trkpt><trkpt lat="44.451116134962426" lon="9.647033663593986"><ele>775.5</ele><time>2026-04-19T13:24:35.948Z</time></trkpt><trkpt lat="44.45119862718271" lon="9.64690188072005"><ele>775.0</ele><time>2026-04-19T13:24:36.948Z</time></trkpt><trkpt lat="44.45130299391452" lon="9.646773235744176"><ele>774.5</ele><time>2026-04-19T13:24:37.948Z</time></trkpt><trkpt lat="44.451401561466554" lon="9.6466107093841"><ele>774.0</ele><time>2026-04-19T13:24:38.948Z</time></trkpt><trkpt lat="44.45146933025414" lon="9.646431849362795"><ele>778.0</ele><time>2026-04-19T13:24:39.948Z</time></trkpt><trkpt lat="44.451526335488786" lon="9.646237695036794"><ele>782.0</ele><time>2026-04-19T13:24:40.948Z</time></trkpt><trkpt lat="44.45157750880099" lon="9.646015347890895"><ele>786.0</ele><time>2026-04-19T13:24:41.948Z</time></trkpt><trkpt lat="44.451607725787234" lon="9.645760134000316"><ele>786.0</ele><time>2026-04-19T13:24:42.948Z</time></trkpt><trkpt lat="44.45162208032071" lon="9.645490493036295"><ele>786.0</ele><time>2026-04-19T13:24:43.948Z</time></trkpt><trkpt lat="44.45163679300247" lon="9.64522572589144"><ele>786.0</ele><time>2026-04-19T13:24:44.948Z</time></trkpt><trkpt lat="44.45166080572983" lon="9.644994969817956"><ele>786.25</ele><time>2026-04-19T13:24:45.948Z</time></trkpt><trkpt lat="44.451679855685974" lon="9.644795736579368"><ele>786.5</ele><time>2026-04-19T13:24:46.948Z</time></trkpt><trkpt lat="44.45167481502176" lon="9.644609709032133"><ele>786.75</ele><time>2026-04-19T13:24:47.946Z</time></trkpt><trkpt lat="44.451628562908326" lon="9.644433937175148"><ele>787.0</ele><time>2026-04-19T13:24:48.946Z</time></trkpt><trkpt lat="44.451551425874605" lon="9.644281172733141"><ele>787.0</ele><time>2026-04-19T13:24:49.946Z</time></trkpt><trkpt lat="44.45142746130301" lon="9.644167373812968"><ele>787.0</ele><time>2026-04-19T13:24:50.946Z</time></trkpt><trkpt lat="44.451273118633075" lon="9.644094588164052"><ele>787.0</ele><time>2026-04-19T13:24:51.946Z</time></trkpt><trkpt lat="44.45110667740123" lon="9.644053265923626"><ele>783.6666666666666</ele><time>2026-04-19T13:24:52.946Z</time></trkpt><trkpt lat="44.450940896804" lon="9.644006116890331"><ele>780.3333333333333</ele><time>2026-04-19T13:24:53.946Z</time></trkpt><trkpt lat="44.450785339884504" lon="9.643926808095841"><ele>777.0</ele><time>2026-04-19T13:24:54.945Z</time></trkpt><trkpt lat="44.45063557298847" lon="9.643810225153901"><ele>777.0</ele><time>2026-04-19T13:24:55.945Z</time></trkpt><trkpt lat="44.450492551696755" lon="9.643669573042546"><ele>777.0</ele><time>2026-04-19T13:24:56.946Z</time></trkpt><trkpt lat="44.45036472510969" lon="9.643532586974972"><ele>777.0</ele><time>2026-04-19T13:24:57.945Z</time></trkpt><trkpt lat="44.450259290138305" lon="9.643393252987012"><ele>777.3333333333333</ele><time>2026-04-19T13:24:58.945Z</time></trkpt><trkpt lat="44.45017528576797" lon="9.643220825251209"><ele>777.6666666666666</ele><time>2026-04-19T13:24:59.945Z</time></trkpt><trkpt lat="44.4501103367576" lon="9.643031282163172"><ele>778.0</ele><time>2026-04-19T13:25:00.945Z</time></trkpt><trkpt lat="44.45003827996689" lon="9.64283569703695"><ele>779.3333333333333</ele><time>2026-04-19T13:25:01.945Z</time></trkpt><trkpt lat="44.449937372406815" lon="9.642658221112338"><ele>780.6666666666667</ele><time>2026-04-19T13:25:02.945Z</time></trkpt><trkpt lat="44.44981576220457" lon="9.642490071415269"><ele>782.0</ele><time>2026-04-19T13:25:03.945Z</time></trkpt><trkpt lat="44.44968118196681" lon="9.642314581173723"><ele>783.0</ele><time>2026-04-19T13:25:04.945Z</time></trkpt><trkpt lat="44.44954203578275" lon="9.642147358626902"><ele>784.0</ele><time>2026-04-19T13:25:05.945Z</time></trkpt><trkpt lat="44.449418478642045" lon="9.642000663776425"><ele>785.0</ele><time>2026-04-19T13:25:06.945Z</time></trkpt><trkpt lat="44.449312020872895" lon="9.641858190126571"><ele>785.0</ele><time>2026-04-19T13:25:07.945Z</time></trkpt><trkpt lat="44.44921302061818" lon="9.641736722797516"><ele>785.0</ele><time>2026-04-19T13:25:08.945Z</time></trkpt><trkpt lat="44.449098676105216" lon="9.641631565161342"><ele>785.0</ele><time>2026-04-19T13:25:09.945Z</time></trkpt><trkpt lat="44.44896896948399" lon="9.641552448839766"><ele>785.0</ele><time>2026-04-19T13:25:10.945Z</time></trkpt><trkpt lat="44.44882101933299" lon="9.641512053509064"><ele>787.6666666666667</ele><time>2026-04-19T13:25:11.945Z</time></trkpt><trkpt lat="44.448655613294314" lon="9.641501532293514"><ele>790.3333333333333</ele><time>2026-04-19T13:25:12.945Z</time></trkpt><trkpt lat="44.448491702632396" lon="9.641496121664822"><ele>793.0</ele><time>2026-04-19T13:25:13.945Z</time></trkpt><trkpt lat="44.44834049944262" lon="9.641495957274556"><ele>793.0</ele><time>2026-04-19T13:25:14.945Z</time></trkpt><trkpt lat="44.44820173629406" lon="9.641524340299856"><ele>793.0</ele><time>2026-04-19T13:25:15.945Z</time></trkpt><trkpt lat="44.448075931249114" lon="9.64157577276253"><ele>793.0</ele><time>2026-04-19T13:25:16.945Z</time></trkpt><trkpt lat="44.447960410953115" lon="9.641642771668355"><ele>793.0</ele><time>2026-04-19T13:25:17.945Z</time></trkpt><trkpt lat="44.447860351990975" lon="9.641718511267635"><ele>792.2</ele><time>2026-04-19T13:25:18.945Z</time></trkpt><trkpt lat="44.44777847183589" lon="9.641744788302107"><ele>791.4</ele><time>2026-04-19T13:25:19.945Z</time></trkpt><trkpt lat="44.44771395221262" lon="9.641701240641478"><ele>790.6</ele><time>2026-04-19T13:25:20.945Z</time></trkpt><trkpt lat="44.447666336174386" lon="9.641600677206906"><ele>789.8000000000001</ele><time>2026-04-19T13:25:21.945Z</time></trkpt><trkpt lat="44.44763670638684" lon="9.641442510190382"><ele>789.0</ele><time>2026-04-19T13:25:22.945Z</time></trkpt><trkpt lat="44.447604107832106" lon="9.641254361081375"><ele>791.75</ele><time>2026-04-19T13:25:23.945Z</time></trkpt><trkpt lat="44.44756741581514" lon="9.641052179117327"><ele>794.5</ele><time>2026-04-19T13:25:24.945Z</time></trkpt><trkpt lat="44.44751480852654" lon="9.640852968563852"><ele>797.25</ele><time>2026-04-19T13:25:25.945Z</time></trkpt><trkpt lat="44.44747059143055" lon="9.640691380102572"><ele>800.0</ele><time>2026-04-19T13:25:26.945Z</time></trkpt><trkpt lat="44.44740197397306" lon="9.64053878960957"><ele>800.0</ele><time>2026-04-19T13:25:27.946Z</time></trkpt><trkpt lat="44.44731046090806" lon="9.640410445516785"><ele>800.0</ele><time>2026-04-19T13:25:28.946Z</time></trkpt><trkpt lat="44.44719254870347" lon="9.640312198144684"><ele>800.0</ele><time>2026-04-19T13:25:29.946Z</time></trkpt><trkpt lat="44.44706679552774" lon="9.640215953183183"><ele>800.0</ele><time>2026-04-19T13:25:30.946Z</time></trkpt><trkpt lat="44.446945302689656" lon="9.640110182520502"><ele>798.6666666666667</ele><time>2026-04-19T13:25:31.946Z</time></trkpt><trkpt lat="44.44683978492541" lon="9.639948264074745"><ele>797.3333333333333</ele><time>2026-04-19T13:25:32.946Z</time></trkpt><trkpt lat="44.44673095600096" lon="9.639749457352995"><ele>796.0</ele><time>2026-04-19T13:25:33.946Z</time></trkpt><trkpt lat="44.44662231431678" lon="9.639540876611305"><ele>795.3333333333333</ele><time>2026-04-19T13:25:34.946Z</time></trkpt><trkpt lat="44.446505792029726" lon="9.639320368672037"><ele>794.6666666666667</ele><time>2026-04-19T13:25:35.946Z</time></trkpt><trkpt lat="44.44639321474011" lon="9.639101072981441"><ele>794.0</ele><time>2026-04-19T13:25:36.946Z</time></trkpt><trkpt lat="44.44627250108976" lon="9.63890097837286"><ele>794.0</ele><time>2026-04-19T13:25:37.946Z</time></trkpt><trkpt lat="44.44615661711483" lon="9.638700402474292"><ele>794.0</ele><time>2026-04-19T13:25:38.946Z</time></trkpt><trkpt lat="44.4460360907702" lon="9.638508680038308"><ele>794.0</ele><time>2026-04-19T13:25:39.946Z</time></trkpt><trkpt lat="44.44589353619886" lon="9.638332386597757"><ele>794.3333333333334</ele><time>2026-04-19T13:25:40.946Z</time></trkpt><trkpt lat="44.445752756462554" lon="9.638154394568266"><ele>794.6666666666667</ele><time>2026-04-19T13:25:41.946Z</time></trkpt><trkpt lat="44.445611564319805" lon="9.637981360328451"><ele>795.0</ele><time>2026-04-19T13:25:42.946Z</time></trkpt><trkpt lat="44.4454613536651" lon="9.637822693121716"><ele>796.6666666666667</ele><time>2026-04-19T13:25:43.946Z</time></trkpt><trkpt lat="44.445315013582224" lon="9.637678340920637"><ele>798.3333333333334</ele><time>2026-04-19T13:25:44.946Z</time></trkpt><trkpt lat="44.44519140372469" lon="9.637523823287543"><ele>800.0</ele><time>2026-04-19T13:25:45.946Z</time></trkpt><trkpt lat="44.44508846969908" lon="9.63736581559029"><ele>800.0</ele><time>2026-04-19T13:25:46.946Z</time></trkpt><trkpt lat="44.44498890097433" lon="9.63723943602892"><ele>800.0</ele><time>2026-04-19T13:25:47.946Z</time></trkpt><trkpt lat="44.444865769452996" lon="9.637184315200676"><ele>800.0</ele><time>2026-04-19T13:25:48.946Z</time></trkpt><trkpt lat="44.444725018518184" lon="9.637200362960348"><ele>800.0</ele><time>2026-04-19T13:25:49.946Z</time></trkpt><trkpt lat="44.44459027193432" lon="9.637260693592737"><ele>801.75</ele><time>2026-04-19T13:25:50.946Z</time></trkpt><trkpt lat="44.444451756514546" lon="9.637314264568333"><ele>803.5</ele><time>2026-04-19T13:25:51.946Z</time></trkpt><trkpt lat="44.444302695414265" lon="9.637311793075046"><ele>805.25</ele><time>2026-04-19T13:25:52.946Z</time></trkpt><trkpt lat="44.444160395821115" lon="9.637243738329515"><ele>807.0</ele><time>2026-04-19T13:25:53.946Z</time></trkpt><trkpt lat="44.44401767406229" lon="9.637144265799602"><ele>807.0</ele><time>2026-04-19T13:25:54.946Z</time></trkpt><trkpt lat="44.44387882293711" lon="9.637048434041247"><ele>807.0</ele><time>2026-04-19T13:25:55.946Z</time></trkpt><trkpt lat="44.443764238674326" lon="9.636946299976074"><ele>807.0</ele><time>2026-04-19T13:25:56.946Z</time></trkpt><trkpt lat="44.443648830149414" lon="9.636839046550463"><ele>807.0</ele><time>2026-04-19T13:25:57.946Z</time></trkpt><trkpt lat="44.44353578971237" lon="9.63669217792464"><ele>810.0</ele><time>2026-04-19T13:25:58.946Z</time></trkpt><trkpt lat="44.443440748732954" lon="9.636524799933142"><ele>813.0</ele><time>2026-04-19T13:25:59.946Z</time></trkpt><trkpt lat="44.44335966633831" lon="9.636327598128526"><ele>816.0</ele><time>2026-04-19T13:26:00.946Z</time></trkpt><trkpt lat="44.44327443964801" lon="9.636120989485015"><ele>816.0</ele><time>2026-04-19T13:26:01.946Z</time></trkpt><trkpt lat="44.44318228996599" lon="9.63592334076253"><ele>816.0</ele><time>2026-04-19T13:26:02.946Z</time></trkpt><trkpt lat="44.44307185015204" lon="9.635752392771074"><ele>816.0</ele><time>2026-04-19T13:26:03.946Z</time></trkpt><trkpt lat="44.442945394702974" lon="9.635598388704006"><ele>818.0</ele><time>2026-04-19T13:26:04.946Z</time></trkpt><trkpt lat="44.44280266195543" lon="9.635454591460544"><ele>820.0</ele><time>2026-04-19T13:26:05.946Z</time></trkpt><trkpt lat="44.44266023494029" lon="9.635316465382964"><ele>822.0</ele><time>2026-04-19T13:26:06.946Z</time></trkpt><trkpt lat="44.44253953983294" lon="9.63519754007486"><ele>822.0</ele><time>2026-04-19T13:26:07.946Z</time></trkpt><trkpt lat="44.442434936884545" lon="9.635096430510519"><ele>822.0</ele><time>2026-04-19T13:26:08.946Z</time></trkpt><trkpt lat="44.44233724344036" lon="9.635024472387533"><ele>822.0</ele><time>2026-04-19T13:26:09.946Z</time></trkpt><trkpt lat="44.44222693481019" lon="9.635019517593271"><ele>822.0</ele><time>2026-04-19T13:26:10.946Z</time></trkpt><trkpt lat="44.44210049337891" lon="9.635063175377468"><ele>823.3333333333333</ele><time>2026-04-19T13:26:11.946Z</time></trkpt><trkpt lat="44.441965030637874" lon="9.6351337941657"><ele>824.6666666666666</ele><time>2026-04-19T13:26:12.946Z</time></trkpt><trkpt lat="44.44181027842564" lon="9.635229383316972"><ele>826.0</ele><time>2026-04-19T13:26:13.946Z</time></trkpt><trkpt lat="44.44162982928084" lon="9.635311013036976"><ele>827.0</ele><time>2026-04-19T13:26:14.946Z</time></trkpt><trkpt lat="44.44144256850108" lon="9.635342478016051"><ele>828.0</ele><time>2026-04-19T13:26:15.946Z</time></trkpt><trkpt lat="44.441252447713175" lon="9.635332751758156"><ele>829.0</ele><time>2026-04-19T13:26:16.946Z</time></trkpt><trkpt lat="44.44108404760985" lon="9.635354820108724"><ele>830.6666666666666</ele><time>2026-04-19T13:26:17.946Z</time></trkpt><trkpt lat="44.440908689534446" lon="9.635388632411997"><ele>832.3333333333333</ele><time>2026-04-19T13:26:18.946Z</time></trkpt><trkpt lat="44.440720153646005" lon="9.63544260880882"><ele>834.0</ele><time>2026-04-19T13:26:19.946Z</time></trkpt><trkpt lat="44.44054584756099" lon="9.635508267247587"><ele>835.25</ele><time>2026-04-19T13:26:20.946Z</time></trkpt><trkpt lat="44.440386172785956" lon="9.635573199410011"><ele>836.5</ele><time>2026-04-19T13:26:21.946Z</time></trkpt><trkpt lat="44.44025134704505" lon="9.63561270508218"><ele>837.75</ele><time>2026-04-19T13:26:22.946Z</time></trkpt><trkpt lat="44.440155368065874" lon="9.63559974050306"><ele>839.0</ele><time>2026-04-19T13:26:23.946Z</time></trkpt><trkpt lat="44.440068825332595" lon="9.635576272371228"><ele>839.0</ele><time>2026-04-19T13:26:24.946Z</time></trkpt><trkpt lat="44.44000349747525" lon="9.63553161602204"><ele>839.0</ele><time>2026-04-19T13:26:25.946Z</time></trkpt><trkpt lat="44.439917759271374" lon="9.635474011574015"><ele>839.0</ele><time>2026-04-19T13:26:26.946Z</time></trkpt><trkpt lat="44.439803410349235" lon="9.635392371484023"><ele>839.0</ele><time>2026-04-19T13:26:27.946Z</time></trkpt><trkpt lat="44.439650681849706" lon="9.635338029843757"><ele>838.6666666666667</ele><time>2026-04-19T13:26:28.946Z</time></trkpt><trkpt lat="44.439468580637296" lon="9.635304099183633"><ele>838.3333333333333</ele><time>2026-04-19T13:26:29.946Z</time></trkpt><trkpt lat="44.4392752549947" lon="9.63529060707531"><ele>838.0</ele><time>2026-04-19T13:26:30.946Z</time></trkpt><trkpt lat="44.43908581012155" lon="9.635271596347124"><ele>840.6666666666666</ele><time>2026-04-19T13:26:31.946Z</time></trkpt><trkpt lat="44.438911701506456" lon="9.635238176296173"><ele>843.3333333333333</ele><time>2026-04-19T13:26:32.946Z</time></trkpt><trkpt lat="44.438760009617084" lon="9.635204978880513"><ele>846.0</ele><time>2026-04-19T13:26:33.946Z</time></trkpt><trkpt lat="44.43862785060185" lon="9.635156553244233"><ele>846.5999999999999</ele><time>2026-04-19T13:26:34.946Z</time></trkpt><trkpt lat="44.43850945639486" lon="9.63509697697742"><ele>847.2</ele><time>2026-04-19T13:26:35.946Z</time></trkpt><trkpt lat="44.43840104322019" lon="9.635046937022729"><ele>847.8</ele><time>2026-04-19T13:26:36.946Z</time></trkpt><trkpt lat="44.438312977136626" lon="9.63500797826444"><ele>848.4000000000001</ele><time>2026-04-19T13:26:37.946Z</time></trkpt><trkpt lat="44.438235087862964" lon="9.635000788437276"><ele>849.0</ele><time>2026-04-19T13:26:38.946Z</time></trkpt><trkpt lat="44.43816083137605" lon="9.63502698919071"><ele>849.0</ele><time>2026-04-19T13:26:39.946Z</time></trkpt><trkpt lat="44.43807678568272" lon="9.635084112201582"><ele>849.0</ele><time>2026-04-19T13:26:40.946Z</time></trkpt><trkpt lat="44.43799781046463" lon="9.635156927413767"><ele>849.0</ele><time>2026-04-19T13:26:41.946Z</time></trkpt><trkpt lat="44.43790570762352" lon="9.635212556343454"><ele>849.0</ele><time>2026-04-19T13:26:42.946Z</time></trkpt><trkpt lat="44.4377786810301" lon="9.635195860506244"><ele>849.0</ele><time>2026-04-19T13:26:43.946Z</time></trkpt><trkpt lat="44.437672999603464" lon="9.635094045665259"><ele>850.25</ele><time>2026-04-19T13:26:44.946Z</time></trkpt><trkpt lat="44.43757316221736" lon="9.634963002240573"><ele>851.5</ele><time>2026-04-19T13:26:45.946Z</time></trkpt><trkpt lat="44.437470413598234" lon="9.634836494713847"><ele>852.75</ele><time>2026-04-19T13:26:46.946Z</time></trkpt><trkpt lat="44.43737425871061" lon="9.634731647677137"><ele>854.0</ele><time>2026-04-19T13:26:47.946Z</time></trkpt><trkpt lat="44.43728821525805" lon="9.634653838690722"><ele>854.0</ele><time>2026-04-19T13:26:48.946Z</time></trkpt><trkpt lat="44.437191567475466" lon="9.634654626889038"><ele>854.0000000000001</ele><time>2026-04-19T13:26:49.946Z</time></trkpt><trkpt lat="44.43708035623602" lon="9.634705405415595"><ele>854.0000000000001</ele><time>2026-04-19T13:26:50.946Z</time></trkpt><trkpt lat="44.43696670277261" lon="9.634766750807652"><ele>854.0</ele><time>2026-04-19T13:26:51.946Z</time></trkpt><trkpt lat="44.43685936583185" lon="9.63478388336562"><ele>854.0</ele><time>2026-04-19T13:26:52.946Z</time></trkpt><trkpt lat="44.43675530813839" lon="9.6347832024757"><ele>855.75</ele><time>2026-04-19T13:26:53.945Z</time></trkpt><trkpt lat="44.43664525610254" lon="9.634827240672188"><ele>857.5</ele><time>2026-04-19T13:26:54.945Z</time></trkpt><trkpt lat="44.43653243178075" lon="9.634926224887629"><ele>859.25</ele><time>2026-04-19T13:26:55.945Z</time></trkpt><trkpt lat="44.436426401996776" lon="9.635005878014338"><ele>861.0</ele><time>2026-04-19T13:26:56.945Z</time></trkpt><trkpt lat="44.43633487782484" lon="9.63505772122191"><ele>859.8333333333334</ele><time>2026-04-19T13:26:57.945Z</time></trkpt><trkpt lat="44.4362616366993" lon="9.635063450517446"><ele>858.6666666666667</ele><time>2026-04-19T13:26:58.945Z</time></trkpt><trkpt lat="44.43618299974845" lon="9.635011378342613"><ele>857.5</ele><time>2026-04-19T13:26:59.944Z</time></trkpt><trkpt lat="44.43613461431755" lon="9.634940431136057"><ele>856.3333333333334</ele><time>2026-04-19T13:27:00.945Z</time></trkpt><trkpt lat="44.43613908472055" lon="9.63484893804797"><ele>855.1666666666667</ele><time>2026-04-19T13:27:01.945Z</time></trkpt><trkpt lat="44.43618760879487" lon="9.634734052931657"><ele>854.0</ele><time>2026-04-19T13:27:02.944Z</time></trkpt><trkpt lat="44.43626148456212" lon="9.634619287956015"><ele>855.75</ele><time>2026-04-19T13:27:03.944Z</time></trkpt><trkpt lat="44.43633686790758" lon="9.63448600205401"><ele>857.5</ele><time>2026-04-19T13:27:04.944Z</time></trkpt><trkpt lat="44.436403867164216" lon="9.63433313048847"><ele>859.25</ele><time>2026-04-19T13:27:05.944Z</time></trkpt><trkpt lat="44.43645210583787" lon="9.634176926360357"><ele>861.0</ele><time>2026-04-19T13:27:06.945Z</time></trkpt><trkpt lat="44.436489047352346" lon="9.634038965087642"><ele>864.5</ele><time>2026-04-19T13:27:07.945Z</time></trkpt><trkpt lat="44.43653269523779" lon="9.633895857697208"><ele>868.0</ele><time>2026-04-19T13:27:08.945Z</time></trkpt><trkpt lat="44.43661075311634" lon="9.633759830379091"><ele>871.5</ele><time>2026-04-19T13:27:09.945Z</time></trkpt><trkpt lat="44.43670367581837" lon="9.633635042025668"><ele>875.0</ele><time>2026-04-19T13:27:10.945Z</time></trkpt><trkpt lat="44.4368039992762" lon="9.633515386367675"><ele>875.5</ele><time>2026-04-19T13:27:11.945Z</time></trkpt><trkpt lat="44.4368786422094" lon="9.633370071423716"><ele>876.0</ele><time>2026-04-19T13:27:12.945Z</time></trkpt><trkpt lat="44.43692844709887" lon="9.633188278389953"><ele>876.5</ele><time>2026-04-19T13:27:13.945Z</time></trkpt><trkpt lat="44.436950073597245" lon="9.632987268095981"><ele>877.0</ele><time>2026-04-19T13:27:14.945Z</time></trkpt><trkpt lat="44.436941780672804" lon="9.632781811262042"><ele>879.0</ele><time>2026-04-19T13:27:15.945Z</time></trkpt><trkpt lat="44.43690705703892" lon="9.632563082048451"><ele>881.0</ele><time>2026-04-19T13:27:16.945Z</time></trkpt><trkpt lat="44.43685580692825" lon="9.632342580849066"><ele>883.0</ele><time>2026-04-19T13:27:17.945Z</time></trkpt><trkpt lat="44.43678472999874" lon="9.632128170627427"><ele>887.0</ele><time>2026-04-19T13:27:18.945Z</time></trkpt><trkpt lat="44.436693179537386" lon="9.631908606862119"><ele>891.0</ele><time>2026-04-19T13:27:19.945Z</time></trkpt><trkpt lat="44.43658183676255" lon="9.631692973607588"><ele>895.0</ele><time>2026-04-19T13:27:20.945Z</time></trkpt><trkpt lat="44.436470812242334" lon="9.631485615341353"><ele>895.0</ele><time>2026-04-19T13:27:21.945Z</time></trkpt><trkpt lat="44.436357309888805" lon="9.631276492431244"><ele>895.0</ele><time>2026-04-19T13:27:22.945Z</time></trkpt><trkpt lat="44.43624060869799" lon="9.63106414914963"><ele>895.0</ele><time>2026-04-19T13:27:23.945Z</time></trkpt><trkpt lat="44.43614101849928" lon="9.63087088531185"><ele>893.6666666666666</ele><time>2026-04-19T13:27:24.945Z</time></trkpt><trkpt lat="44.43604815934418" lon="9.630661366070447"><ele>892.3333333333333</ele><time>2026-04-19T13:27:25.945Z</time></trkpt><trkpt lat="44.43597551063158" lon="9.630430684329337"><ele>891.0</ele><time>2026-04-19T13:27:26.945Z</time></trkpt><trkpt lat="44.43591529138761" lon="9.630196226219935"><ele>895.0</ele><time>2026-04-19T13:27:27.945Z</time></trkpt><trkpt lat="44.43583543212379" lon="9.629980538367048"><ele>899.0</ele><time>2026-04-19T13:27:28.945Z</time></trkpt><trkpt lat="44.43572709625385" lon="9.629790828582"><ele>903.0</ele><time>2026-04-19T13:27:29.945Z</time></trkpt><trkpt lat="44.435607076631506" lon="9.629595389930918"><ele>904.6666666666667</ele><time>2026-04-19T13:27:30.945Z</time></trkpt><trkpt lat="44.435476696627816" lon="9.629401426123588"><ele>906.3333333333334</ele><time>2026-04-19T13:27:31.945Z</time></trkpt><trkpt lat="44.43534806954323" lon="9.629218565076101"><ele>908.0</ele><time>2026-04-19T13:27:32.945Z</time></trkpt><trkpt lat="44.43520689754256" lon="9.629059077319251"><ele>908.0</ele><time>2026-04-19T13:27:33.945Z</time></trkpt><trkpt lat="44.43504985892719" lon="9.62892322639462"><ele>908.0</ele><time>2026-04-19T13:27:34.945Z</time></trkpt><trkpt lat="44.43491108535103" lon="9.628799924053189"><ele>908.0</ele><time>2026-04-19T13:27:35.945Z</time></trkpt><trkpt lat="44.43479909988868" lon="9.628696957787362"><ele>908.25</ele><time>2026-04-19T13:27:36.945Z</time></trkpt><trkpt lat="44.434702752863835" lon="9.62857935948764"><ele>908.5</ele><time>2026-04-19T13:27:37.945Z</time></trkpt><trkpt lat="44.43462767098461" lon="9.628412557647833"><ele>908.75</ele><time>2026-04-19T13:27:38.945Z</time></trkpt><trkpt lat="44.43458399481489" lon="9.628201661620482"><ele>909.0</ele><time>2026-04-19T13:27:39.945Z</time></trkpt><trkpt lat="44.43456102275922" lon="9.627980422474792"><ele>912.5</ele><time>2026-04-19T13:27:40.945Z</time></trkpt><trkpt lat="44.43453023114185" lon="9.627766051440823"><ele>916.0</ele><time>2026-04-19T13:27:41.945Z</time></trkpt><trkpt lat="44.43447362237955" lon="9.627575689474435"><ele>919.5</ele><time>2026-04-19T13:27:42.945Z</time></trkpt><trkpt lat="44.43438924569681" lon="9.627415491632314"><ele>923.0</ele><time>2026-04-19T13:27:43.945Z</time></trkpt><trkpt lat="44.43428349199289" lon="9.627265184629842"><ele>923.0</ele><time>2026-04-19T13:27:44.945Z</time></trkpt><trkpt lat="44.43415455523209" lon="9.627130181381206"><ele>923.0</ele><time>2026-04-19T13:27:45.945Z</time></trkpt><trkpt lat="44.4340015220193" lon="9.627009624756937"><ele>923.0</ele><time>2026-04-19T13:27:46.945Z</time></trkpt><trkpt lat="44.43383671479134" lon="9.626873189915347"><ele>927.6666666666667</ele><time>2026-04-19T13:27:47.945Z</time></trkpt><trkpt lat="44.43367568832077" lon="9.62673341390894"><ele>932.3333333333333</ele><time>2026-04-19T13:27:48.945Z</time></trkpt><trkpt lat="44.4335130242504" lon="9.626598541342469"><ele>937.0</ele><time>2026-04-19T13:27:49.945Z</time></trkpt><trkpt lat="44.4333702663728" lon="9.62646550071477"><ele>937.0</ele><time>2026-04-19T13:27:50.945Z</time></trkpt><trkpt lat="44.43324627960964" lon="9.62635631777306"><ele>937.0</ele><time>2026-04-19T13:27:51.945Z</time></trkpt><trkpt lat="44.433126196750806" lon="9.626229531826612"><ele>937.0</ele><time>2026-04-19T13:27:52.945Z</time></trkpt><trkpt lat="44.433007959555006" lon="9.62610663554864"><ele>937.0</ele><time>2026-04-19T13:27:53.945Z</time></trkpt><trkpt lat="44.432908981838494" lon="9.6259327441529"><ele>937.6666666666666</ele><time>2026-04-19T13:27:54.945Z</time></trkpt><trkpt lat="44.432817324202226" lon="9.62573225865298"><ele>938.3333333333333</ele><time>2026-04-19T13:27:55.945Z</time></trkpt><trkpt lat="44.43271955842124" lon="9.625511442248095"><ele>939.0</ele><time>2026-04-19T13:27:56.945Z</time></trkpt><trkpt lat="44.432617685135526" lon="9.625292802746001"><ele>941.3333333333333</ele><time>2026-04-19T13:27:57.945Z</time></trkpt><trkpt lat="44.43251073231779" lon="9.625063958783665"><ele>943.6666666666666</ele><time>2026-04-19T13:27:58.945Z</time></trkpt><trkpt lat="44.43240881620649" lon="9.624824304983967"><ele>946.0</ele><time>2026-04-19T13:27:59.945Z</time></trkpt><trkpt lat="44.432310387111286" lon="9.624590637057372"><ele>947.25</ele><time>2026-04-19T13:28:00.945Z</time></trkpt><trkpt lat="44.43222329093826" lon="9.624382530077172"><ele>948.5</ele><time>2026-04-19T13:28:01.945Z</time></trkpt><trkpt lat="44.43215263179664" lon="9.624197926817533"><ele>949.75</ele><time>2026-04-19T13:28:02.945Z</time></trkpt><trkpt lat="44.43208217003939" lon="9.62404955855862"><ele>951.0</ele><time>2026-04-19T13:28:03.945Z</time></trkpt><trkpt lat="44.43201276108309" lon="9.62393102246269"><ele>951.0</ele><time>2026-04-19T13:28:04.945Z</time></trkpt><trkpt lat="44.4319271983785" lon="9.623836075178955"><ele>951.0</ele><time>2026-04-19T13:28:05.945Z</time></trkpt><trkpt lat="44.43182073896924" lon="9.623771174548484"><ele>951.0</ele><time>2026-04-19T13:28:06.945Z</time></trkpt><trkpt lat="44.43169856184474" lon="9.623753839242793"><ele>951.0</ele><time>2026-04-19T13:28:07.945Z</time></trkpt><trkpt lat="44.431564302219485" lon="9.623770670484259"><ele>951.0</ele><time>2026-04-19T13:28:08.945Z</time></trkpt><trkpt lat="44.43141712313222" lon="9.623799321392733"><ele>951.0</ele><time>2026-04-19T13:28:09.945Z</time></trkpt><trkpt lat="44.43126523731612" lon="9.62381991489702"><ele>951.0</ele><time>2026-04-19T13:28:10.945Z</time></trkpt><trkpt lat="44.431104646030164" lon="9.623809866279561"><ele>952.3333333333333</ele><time>2026-04-19T13:28:11.945Z</time></trkpt><trkpt lat="44.43094199736254" lon="9.623798189394066"><ele>953.6666666666666</ele><time>2026-04-19T13:28:12.945Z</time></trkpt><trkpt lat="44.43078567650289" lon="9.623788022667206"><ele>955.0</ele><time>2026-04-19T13:28:13.945Z</time></trkpt><trkpt lat="44.43063625680623" lon="9.623769234778806"><ele>955.0</ele><time>2026-04-19T13:28:14.945Z</time></trkpt><trkpt lat="44.43048743689955" lon="9.623743953368049"><ele>955.0</ele><time>2026-04-19T13:28:15.945Z</time></trkpt><trkpt lat="44.43032744954468" lon="9.623700499700302"><ele>955.0</ele><time>2026-04-19T13:28:16.945Z</time></trkpt><trkpt lat="44.43016465775827" lon="9.623639647800486"><ele>959.0</ele><time>2026-04-19T13:28:17.945Z</time></trkpt><trkpt lat="44.4299971859566" lon="9.623561450620276"><ele>963.0</ele><time>2026-04-19T13:28:18.945Z</time></trkpt><trkpt lat="44.42983061988371" lon="9.62348876573762"><ele>967.0</ele><time>2026-04-19T13:28:19.945Z</time></trkpt><trkpt lat="44.42968001713602" lon="9.623424796850857"><ele>968.0</ele><time>2026-04-19T13:28:20.945Z</time></trkpt><trkpt lat="44.42955137320074" lon="9.623370406317754"><ele>969.0</ele><time>2026-04-19T13:28:21.945Z</time></trkpt><trkpt lat="44.42944840396458" lon="9.62331896535451"><ele>970.0</ele><time>2026-04-19T13:28:22.945Z</time></trkpt><trkpt lat="44.429369595174705" lon="9.623273930110111"><ele>971.0</ele><time>2026-04-19T13:28:23.945Z</time></trkpt><trkpt lat="44.42931363839498" lon="9.623212022293819"><ele>972.0</ele><time>2026-04-19T13:28:24.945Z</time></trkpt><trkpt lat="44.42928558309777" lon="9.62311009564158"><ele>972.0</ele><time>2026-04-19T13:28:25.945Z</time></trkpt><trkpt lat="44.42930693884073" lon="9.622989060869603"><ele>972.0</ele><time>2026-04-19T13:28:26.945Z</time></trkpt><trkpt lat="44.429382460160056" lon="9.622899552597382"><ele>972.0</ele><time>2026-04-19T13:28:27.945Z</time></trkpt><trkpt lat="44.4294876777044" lon="9.622845902529196"><ele>972.0</ele><time>2026-04-19T13:28:28.945Z</time></trkpt><trkpt lat="44.429609246776096" lon="9.62280466168961"><ele>972.0</ele><time>2026-04-19T13:28:29.945Z</time></trkpt><trkpt lat="44.4297503757328" lon="9.622755312511341"><ele>976.0</ele><time>2026-04-19T13:28:30.945Z</time></trkpt><trkpt lat="44.429908157973856" lon="9.622696406853919"><ele>980.0</ele><time>2026-04-19T13:28:31.945Z</time></trkpt><trkpt lat="44.43007665236933" lon="9.62263206694289"><ele>984.0</ele><time>2026-04-19T13:28:32.945Z</time></trkpt><trkpt lat="44.43024056860057" lon="9.622585777295429"><ele>984.0</ele><time>2026-04-19T13:28:33.945Z</time></trkpt><trkpt lat="44.43039058180833" lon="9.622561794323264"><ele>984.0</ele><time>2026-04-19T13:28:34.945Z</time></trkpt><trkpt lat="44.43052568977434" lon="9.622557682523416"><ele>984.0</ele><time>2026-04-19T13:28:35.945Z</time></trkpt><trkpt lat="44.43064308139248" lon="9.622561988386565"><ele>984.0</ele><time>2026-04-19T13:28:36.945Z</time></trkpt><trkpt lat="44.430737302865346" lon="9.622559328186615"><ele>984.5</ele><time>2026-04-19T13:28:37.945Z</time></trkpt><trkpt lat="44.43081901754542" lon="9.62252034239444"><ele>985.0</ele><time>2026-04-19T13:28:38.945Z</time></trkpt><trkpt lat="44.430874171644405" lon="9.622427881103645"><ele>985.5</ele><time>2026-04-19T13:28:39.945Z</time></trkpt><trkpt lat="44.430884853137336" lon="9.622314805452381"><ele>986.0</ele><time>2026-04-19T13:28:40.945Z</time></trkpt><trkpt lat="44.4308455765564" lon="9.622222843480737"><ele>986.5</ele><time>2026-04-19T13:28:41.945Z</time></trkpt><trkpt lat="44.43075121328937" lon="9.622153933317447"><ele>987.0</ele><time>2026-04-19T13:28:42.945Z</time></trkpt><trkpt lat="44.430625400128875" lon="9.622101937228141"><ele>987.0</ele><time>2026-04-19T13:28:43.945Z</time></trkpt><trkpt lat="44.43049421818333" lon="9.622049985245601"><ele>987.0</ele><time>2026-04-19T13:28:44.945Z</time></trkpt><trkpt lat="44.43036294675002" lon="9.62198756219641"><ele>987.0</ele><time>2026-04-19T13:28:45.945Z</time></trkpt><trkpt lat="44.43022450499395" lon="9.621918929362458"><ele>987.0</ele><time>2026-04-19T13:28:46.945Z</time></trkpt><trkpt lat="44.4300817621671" lon="9.621857836712051"><ele>991.3333333333333</ele><time>2026-04-19T13:28:47.945Z</time></trkpt><trkpt lat="44.429928933007986" lon="9.621815813747412"><ele>995.6666666666666</ele><time>2026-04-19T13:28:48.945Z</time></trkpt><trkpt lat="44.42976789132197" lon="9.621791915649949"><ele>1000.0</ele><time>2026-04-19T13:28:49.945Z</time></trkpt><trkpt lat="44.42960489426627" lon="9.621773342250748"><ele>1001.0</ele><time>2026-04-19T13:28:50.945Z</time></trkpt><trkpt lat="44.429444543521974" lon="9.621749901168528"><ele>1002.0</ele><time>2026-04-19T13:28:51.945Z</time></trkpt><trkpt lat="44.42929272759572" lon="9.621726937100743"><ele>1003.0</ele><time>2026-04-19T13:28:52.945Z</time></trkpt><trkpt lat="44.429153517864655" lon="9.621713486341656"><ele>1003.0</ele><time>2026-04-19T13:28:53.945Z</time></trkpt><trkpt lat="44.42902230302524" lon="9.621725973840006"><ele>1003.0</ele><time>2026-04-19T13:28:54.945Z</time></trkpt><trkpt lat="44.42889554809783" lon="9.62174985320044"><ele>1003.0</ele><time>2026-04-19T13:28:55.945Z</time></trkpt><trkpt lat="44.428774745315486" lon="9.621774513590363"><ele>1003.0</ele><time>2026-04-19T13:28:56.945Z</time></trkpt><trkpt lat="44.428670911661506" lon="9.62177901587498"><ele>1003.2</ele><time>2026-04-19T13:28:57.945Z</time></trkpt><trkpt lat="44.42858754688821" lon="9.621769070900958"><ele>1003.4</ele><time>2026-04-19T13:28:58.945Z</time></trkpt><trkpt lat="44.42851605122607" lon="9.621721914279929"><ele>1003.6000000000001</ele><time>2026-04-19T13:28:59.944Z</time></trkpt><trkpt lat="44.42846259327172" lon="9.621624095504817"><ele>1003.8000000000001</ele><time>2026-04-19T13:29:00.944Z</time></trkpt><trkpt lat="44.42843803177136" lon="9.62148966407426"><ele>1004.0</ele><time>2026-04-19T13:29:01.944Z</time></trkpt><trkpt lat="44.428428023864086" lon="9.621345571908373"><ele>1004.0</ele><time>2026-04-19T13:29:02.944Z</time></trkpt><trkpt lat="44.428414407643324" lon="9.62125149514923"><ele>1004.0000000000001</ele><time>2026-04-19T13:29:03.943Z</time></trkpt><trkpt lat="44.428337762612195" lon="9.62110164592065"><ele>1004.0000000000001</ele><time>2026-04-19T13:29:05.944Z</time></trkpt><trkpt lat="44.42827086729582" lon="9.621045969309064"><ele>1004.0</ele><time>2026-04-19T13:29:06.943Z</time></trkpt><trkpt lat="44.42818592472587" lon="9.621018329625263"><ele>1004.0</ele><time>2026-04-19T13:29:07.943Z</time></trkpt><trkpt lat="44.428087469653505" lon="9.621038129422486"><ele>1006.0</ele><time>2026-04-19T13:29:08.944Z</time></trkpt><trkpt lat="44.42799701204308" lon="9.621089069624183"><ele>1008.0000000000001</ele><time>2026-04-19T13:29:09.944Z</time></trkpt><trkpt lat="44.427897516134095" lon="9.621163713519168"><ele>1010.0000000000001</ele><time>2026-04-19T13:29:10.944Z</time></trkpt><trkpt lat="44.42779568378047" lon="9.62124773279835"><ele>1012.0</ele><time>2026-04-19T13:29:11.943Z</time></trkpt><trkpt lat="44.42770691216637" lon="9.621355045599085"><ele>1014.0</ele><time>2026-04-19T13:29:12.943Z</time></trkpt><trkpt lat="44.42762958831983" lon="9.621470634409983"><ele>1014.75</ele><time>2026-04-19T13:29:13.943Z</time></trkpt><trkpt lat="44.427552304838024" lon="9.62159488630827"><ele>1015.5</ele><time>2026-04-19T13:29:14.943Z</time></trkpt><trkpt lat="44.42747071267291" lon="9.621725727609153"><ele>1016.25</ele><time>2026-04-19T13:29:15.943Z</time></trkpt><trkpt lat="44.427382004194264" lon="9.621853768191468"><ele>1017.0</ele><time>2026-04-19T13:29:16.943Z</time></trkpt><trkpt lat="44.427293935218806" lon="9.621963407856393"><ele>1017.0</ele><time>2026-04-19T13:29:17.943Z</time></trkpt><trkpt lat="44.42720230437006" lon="9.622040933478614"><ele>1017.0</ele><time>2026-04-19T13:29:18.943Z</time></trkpt><trkpt lat="44.42709438800287" lon="9.622090090924145"><ele>1017.0</ele><time>2026-04-19T13:29:19.943Z</time></trkpt><trkpt lat="44.42698858697929" lon="9.622101641521972"><ele>1017.0</ele><time>2026-04-19T13:29:20.943Z</time></trkpt><trkpt lat="44.42688082137873" lon="9.622093949658847"><ele>1017.0</ele><time>2026-04-19T13:29:21.943Z</time></trkpt><trkpt lat="44.42677485348418" lon="9.622067165714506"><ele>1017.0</ele><time>2026-04-19T13:29:22.943Z</time></trkpt><trkpt lat="44.42666909194528" lon="9.62203188491085"><ele>1017.0</ele><time>2026-04-19T13:29:23.943Z</time></trkpt><trkpt lat="44.42657003402947" lon="9.62199902389693"><ele>1017.0</ele><time>2026-04-19T13:29:24.943Z</time></trkpt><trkpt lat="44.42649262567044" lon="9.621987116648619"><ele>1017.0</ele><time>2026-04-19T13:29:25.943Z</time></trkpt><trkpt lat="44.4264167254071" lon="9.622003674127157"><ele>1017.0</ele><time>2026-04-19T13:29:26.943Z</time></trkpt><trkpt lat="44.42634530178278" lon="9.622051501189183"><ele>1017.0</ele><time>2026-04-19T13:29:27.943Z</time></trkpt><trkpt lat="44.42626192707611" lon="9.622126755517014"><ele>1022.25</ele><time>2026-04-19T13:29:28.943Z</time></trkpt><trkpt lat="44.426159961164906" lon="9.62221733839752"><ele>1027.5</ele><time>2026-04-19T13:29:29.943Z</time></trkpt><trkpt lat="44.426044990937804" lon="9.622308316900334"><ele>1032.75</ele><time>2026-04-19T13:29:30.943Z</time></trkpt><trkpt lat="44.42591564954588" lon="9.622391794617196"><ele>1038.0</ele><time>2026-04-19T13:29:31.943Z</time></trkpt><trkpt lat="44.42577954702659" lon="9.622463827548648"><ele>1038.0</ele><time>2026-04-19T13:29:32.943Z</time></trkpt><trkpt lat="44.42565434436813" lon="9.622541251680781"><ele>1038.0</ele><time>2026-04-19T13:29:33.943Z</time></trkpt><trkpt lat="44.42553479305851" lon="9.622605098936251"><ele>1038.0</ele><time>2026-04-19T13:29:34.943Z</time></trkpt><trkpt lat="44.425411284533496" lon="9.622650432713726"><ele>1038.0</ele><time>2026-04-19T13:29:35.943Z</time></trkpt><trkpt lat="44.42527791010613" lon="9.622694718076419"><ele>1039.25</ele><time>2026-04-19T13:29:36.943Z</time></trkpt><trkpt lat="44.42512275712411" lon="9.622705803705493"><ele>1040.5</ele><time>2026-04-19T13:29:37.943Z</time></trkpt><trkpt lat="44.424982183914025" lon="9.622678661089877"><ele>1041.75</ele><time>2026-04-19T13:29:38.943Z</time></trkpt><trkpt lat="44.42483720557624" lon="9.622622430178088"><ele>1043.0</ele><time>2026-04-19T13:29:39.943Z</time></trkpt><trkpt lat="44.42468933294567" lon="9.62255501457436"><ele>1046.0</ele><time>2026-04-19T13:29:40.943Z</time></trkpt><trkpt lat="44.42454009618045" lon="9.622484421002477"><ele>1049.0</ele><time>2026-04-19T13:29:41.943Z</time></trkpt><trkpt lat="44.42442346368281" lon="9.622414210908055"><ele>1052.0</ele><time>2026-04-19T13:29:42.943Z</time></trkpt><trkpt lat="44.42432773319067" lon="9.622365380450812"><ele>1055.0</ele><time>2026-04-19T13:29:43.943Z</time></trkpt><trkpt lat="44.424235921203135" lon="9.62236588264755"><ele>1055.0</ele><time>2026-04-19T13:29:44.943Z</time></trkpt><trkpt lat="44.424164419282434" lon="9.622417427212655"><ele>1055.0</ele><time>2026-04-19T13:29:45.943Z</time></trkpt><trkpt lat="44.424109852615814" lon="9.622509181493047"><ele>1055.0</ele><time>2026-04-19T13:29:46.943Z</time></trkpt><trkpt lat="44.42406379161791" lon="9.62264313118323"><ele>1055.0</ele><time>2026-04-19T13:29:47.943Z</time></trkpt><trkpt lat="44.4240374447214" lon="9.622807729059845"><ele>1055.0</ele><time>2026-04-19T13:29:48.943Z</time></trkpt><trkpt lat="44.424012639001766" lon="9.623001275521373"><ele>1056.0</ele><time>2026-04-19T13:29:49.943Z</time></trkpt><trkpt lat="44.42397139326864" lon="9.623156598608416"><ele>1057.0</ele><time>2026-04-19T13:29:50.944Z</time></trkpt><trkpt lat="44.4238985055692" lon="9.623277982487421"><ele>1058.0</ele><time>2026-04-19T13:29:51.944Z</time></trkpt><trkpt lat="44.42380302296616" lon="9.623378608468409"><ele>1059.0</ele><time>2026-04-19T13:29:52.944Z</time></trkpt><trkpt lat="44.42369658230113" lon="9.623461500560765"><ele>1059.0</ele><time>2026-04-19T13:29:53.944Z</time></trkpt><trkpt lat="44.42357804769695" lon="9.62353637313469"><ele>1059.0</ele><time>2026-04-19T13:29:54.944Z</time></trkpt><trkpt lat="44.423463419993" lon="9.623578783334391"><ele>1059.0</ele><time>2026-04-19T13:29:55.944Z</time></trkpt><trkpt lat="44.42333354824552" lon="9.623563566928036"><ele>1059.0</ele><time>2026-04-19T13:29:56.944Z</time></trkpt><trkpt lat="44.42319594419487" lon="9.623507876768722"><ele>1059.0</ele><time>2026-04-19T13:29:57.944Z</time></trkpt><trkpt lat="44.4230581157999" lon="9.623447204465773"><ele>1059.0</ele><time>2026-04-19T13:29:58.944Z</time></trkpt><trkpt lat="44.42292343525334" lon="9.623369051166833"><ele>1059.0</ele><time>2026-04-19T13:29:59.944Z</time></trkpt><trkpt lat="44.42279829775776" lon="9.623285215956248"><ele>1059.0</ele><time>2026-04-19T13:30:00.944Z</time></trkpt><trkpt lat="44.42268616838134" lon="9.623191186343007"><ele>1059.0</ele><time>2026-04-19T13:30:01.944Z</time></trkpt><trkpt lat="44.422586503766475" lon="9.623116641237026"><ele>1059.0</ele><time>2026-04-19T13:30:02.944Z</time></trkpt><trkpt lat="44.42247645830928" lon="9.623082355477738"><ele>1059.0</ele><time>2026-04-19T13:30:03.944Z</time></trkpt><trkpt lat="44.42235136759912" lon="9.62310007016746"><ele>1059.0</ele><time>2026-04-19T13:30:04.944Z</time></trkpt><trkpt lat="44.422220079447534" lon="9.62313982203783"><ele>1059.0</ele><time>2026-04-19T13:30:05.944Z</time></trkpt><trkpt lat="44.422087701040574" lon="9.623184991770964"><ele>1059.0</ele><time>2026-04-19T13:30:06.944Z</time></trkpt><trkpt lat="44.421965793606475" lon="9.623233895360773"><ele>1059.0</ele><time>2026-04-19T13:30:07.944Z</time></trkpt><trkpt lat="44.421864580314015" lon="9.623268420377025"><ele>1059.0</ele><time>2026-04-19T13:30:08.944Z</time></trkpt><trkpt lat="44.42177965189795" lon="9.623299854357295"><ele>1059.0</ele><time>2026-04-19T13:30:09.944Z</time></trkpt><trkpt lat="44.421714498497906" lon="9.623307252532536"><ele>1059.0</ele><time>2026-04-19T13:30:10.944Z</time></trkpt><trkpt lat="44.42163620017527" lon="9.623378701286388"><ele>1059.0</ele><time>2026-04-19T13:30:12.944Z</time></trkpt><trkpt lat="44.421574315128304" lon="9.623422469390311"><ele>1059.0</ele><time>2026-04-19T13:30:18.944Z</time></trkpt><trkpt lat="44.42146300698014" lon="9.623391197565699"><ele>1059.0</ele><time>2026-04-19T13:30:28.944Z</time></trkpt><trkpt lat="44.4213866197149" lon="9.623390501725401"><ele>1059.0</ele><time>2026-04-19T13:30:29.944Z</time></trkpt><trkpt lat="44.421318606433594" lon="9.623398215394882"><ele>1056.6000000000001</ele><time>2026-04-19T13:30:30.944Z</time></trkpt><trkpt lat="44.42122505602636" lon="9.62340763432711"><ele>1054.2</ele><time>2026-04-19T13:30:32.944Z</time></trkpt><trkpt lat="44.421135587149024" lon="9.623411807743533"><ele>1051.8000000000002</ele><time>2026-04-19T13:39:01.944Z</time></trkpt><trkpt lat="44.42111922932649" lon="9.623516620370774"><ele>1049.4</ele><time>2026-04-19T13:39:21.944Z</time></trkpt><trkpt lat="44.42104405278585" lon="9.62353426475276"><ele>1047.0</ele><time>2026-04-19T13:39:23.944Z</time></trkpt><trkpt lat="44.42092563280131" lon="9.623549098865695"><ele>1047.0</ele><time>2026-04-19T13:39:25.944Z</time></trkpt><trkpt lat="44.420856987097224" lon="9.623565341905858"><ele>1047.0</ele><time>2026-04-19T13:39:26.944Z</time></trkpt><trkpt lat="44.420778956725265" lon="9.623595747587254"><ele>1047.0</ele><time>2026-04-19T13:39:27.944Z</time></trkpt><trkpt lat="44.420692622496084" lon="9.623633697612147"><ele>1047.0</ele><time>2026-04-19T13:39:28.944Z</time></trkpt><trkpt lat="44.420612779727165" lon="9.62370084761115"><ele>1047.0</ele><time>2026-04-19T13:39:29.943Z</time></trkpt><trkpt lat="44.420540960097426" lon="9.623794320855389"><ele>1047.0</ele><time>2026-04-19T13:39:30.943Z</time></trkpt><trkpt lat="44.42048883103174" lon="9.623905567789356"><ele>1046.1666666666667</ele><time>2026-04-19T13:39:31.943Z</time></trkpt><trkpt lat="44.42045148771409" lon="9.624028865370773"><ele>1045.3333333333333</ele><time>2026-04-19T13:39:32.943Z</time></trkpt><trkpt lat="44.42042194333386" lon="9.62410683080199"><ele>1044.5</ele><time>2026-04-19T13:39:33.943Z</time></trkpt><trkpt lat="44.42039796101135" lon="9.6241913566429"><ele>1043.6666666666665</ele><time>2026-04-19T13:39:34.943Z</time></trkpt><trkpt lat="44.42039189648612" lon="9.624326966113774"><ele>1042.8333333333333</ele><time>2026-04-19T13:39:35.944Z</time></trkpt><trkpt lat="44.42040554293699" lon="9.624486071650306"><ele>1042.0</ele><time>2026-04-19T13:39:36.943Z</time></trkpt><trkpt lat="44.420415198233954" lon="9.624641056151853"><ele>1042.0</ele><time>2026-04-19T13:39:37.943Z</time></trkpt><trkpt lat="44.42040328855609" lon="9.624772494859805"><ele>1042.0</ele><time>2026-04-19T13:39:38.943Z</time></trkpt><trkpt lat="44.42036224331063" lon="9.62490120390179"><ele>1042.0</ele><time>2026-04-19T13:39:39.943Z</time></trkpt><trkpt lat="44.42030830494016" lon="9.625029560978074"><ele>1042.0</ele><time>2026-04-19T13:39:40.944Z</time></trkpt><trkpt lat="44.42024754913796" lon="9.62516445086543"><ele>1042.0</ele><time>2026-04-19T13:39:41.943Z</time></trkpt><trkpt lat="44.42016892541511" lon="9.625296628278537"><ele>1046.25</ele><time>2026-04-19T13:39:42.943Z</time></trkpt><trkpt lat="44.420095593980214" lon="9.625420678473883"><ele>1050.5</ele><time>2026-04-19T13:39:43.943Z</time></trkpt><trkpt lat="44.41999472388696" lon="9.625511280465224"><ele>1054.75</ele><time>2026-04-19T13:39:44.943Z</time></trkpt><trkpt lat="44.41987353768577" lon="9.625608731897328"><ele>1059.0</ele><time>2026-04-19T13:39:45.943Z</time></trkpt><trkpt lat="44.41973064913391" lon="9.625513215880428"><ele>1054.2</ele><time>2026-04-19T13:39:47.943Z</time></trkpt><trkpt lat="44.41964099733061" lon="9.625511084704895"><ele>1049.4</ele><time>2026-04-19T13:39:48.943Z</time></trkpt><trkpt lat="44.41956304113759" lon="9.625575159608982"><ele>1044.6</ele><time>2026-04-19T13:39:49.943Z</time></trkpt><trkpt lat="44.41952803579736" lon="9.625681671219107"><ele>1039.8</ele><time>2026-04-19T13:39:50.943Z</time></trkpt><trkpt lat="44.41950437497444" lon="9.625818774319193"><ele>1035.0</ele><time>2026-04-19T13:39:51.943Z</time></trkpt><trkpt lat="44.41945814980531" lon="9.625966812883414"><ele>1035.0</ele><time>2026-04-19T13:39:52.943Z</time></trkpt><trkpt lat="44.4193958743076" lon="9.62610738881979"><ele>1035.0</ele><time>2026-04-19T13:39:53.943Z</time></trkpt><trkpt lat="44.41930943824262" lon="9.626228306352239"><ele>1035.0</ele><time>2026-04-19T13:39:54.943Z</time></trkpt><trkpt lat="44.4192042367764" lon="9.626312805730677"><ele>1035.0</ele><time>2026-04-19T13:39:55.943Z</time></trkpt><trkpt lat="44.41910118520231" lon="9.626395023292162"><ele>1032.75</ele><time>2026-04-19T13:39:56.943Z</time></trkpt><trkpt lat="44.41898228472183" lon="9.626443752216089"><ele>1030.5</ele><time>2026-04-19T13:39:57.943Z</time></trkpt><trkpt lat="44.41886511008723" lon="9.626506529110557"><ele>1028.25</ele><time>2026-04-19T13:39:58.943Z</time></trkpt><trkpt lat="44.418748297852076" lon="9.626561805628912"><ele>1026.0</ele><time>2026-04-19T13:39:59.943Z</time></trkpt><trkpt lat="44.4186273752811" lon="9.626632440713129"><ele>1026.0</ele><time>2026-04-19T13:40:00.943Z</time></trkpt><trkpt lat="44.418511181442106" lon="9.626698448332055"><ele>1026.0</ele><time>2026-04-19T13:40:01.943Z</time></trkpt><trkpt lat="44.41839931431266" lon="9.626766529830459"><ele>1026.0</ele><time>2026-04-19T13:40:02.943Z</time></trkpt><trkpt lat="44.41830169486174" lon="9.626875203908217"><ele>1026.0</ele><time>2026-04-19T13:40:03.943Z</time></trkpt><trkpt lat="44.41821926155503" lon="9.627007675747002"><ele>1024.5</ele><time>2026-04-19T13:40:04.943Z</time></trkpt><trkpt lat="44.41814312977392" lon="9.627152353308874"><ele>1023.0</ele><time>2026-04-19T13:40:05.943Z</time></trkpt><trkpt lat="44.41805441364772" lon="9.62727992494758"><ele>1021.5</ele><time>2026-04-19T13:40:06.943Z</time></trkpt><trkpt lat="44.41794112830345" lon="9.627363525031127"><ele>1020.0</ele><time>2026-04-19T13:40:07.943Z</time></trkpt><trkpt lat="44.417809042061634" lon="9.627438371374893"><ele>1020.0</ele><time>2026-04-19T13:40:08.943Z</time></trkpt><trkpt lat="44.417676544150446" lon="9.627520445710951"><ele>1020.0</ele><time>2026-04-19T13:40:09.943Z</time></trkpt><trkpt lat="44.417554995228585" lon="9.627589403241814"><ele>1020.0</ele><time>2026-04-19T13:40:10.943Z</time></trkpt><trkpt lat="44.41742678345472" lon="9.627631178367078"><ele>1020.0</ele><time>2026-04-19T13:40:11.943Z</time></trkpt><trkpt lat="44.417299286093375" lon="9.627637357662227"><ele>1020.0</ele><time>2026-04-19T13:40:12.943Z</time></trkpt><trkpt lat="44.417173480779475" lon="9.62762571658764"><ele>1020.0</ele><time>2026-04-19T13:40:13.943Z</time></trkpt><trkpt lat="44.41705946507976" lon="9.627626734757374"><ele>1020.0</ele><time>2026-04-19T13:40:14.943Z</time></trkpt><trkpt lat="44.416955821258945" lon="9.627657161106834"><ele>1020.0</ele><time>2026-04-19T13:40:15.943Z</time></trkpt><trkpt lat="44.416863966664806" lon="9.627725577223844"><ele>1019.6</ele><time>2026-04-19T13:40:16.943Z</time></trkpt><trkpt lat="44.416804672598055" lon="9.627834806915745"><ele>1019.2</ele><time>2026-04-19T13:40:17.943Z</time></trkpt><trkpt lat="44.41679408335531" lon="9.62798031854899"><ele>1018.8</ele><time>2026-04-19T13:40:18.943Z</time></trkpt><trkpt lat="44.416828977365626" lon="9.628142582143436"><ele>1018.4</ele><time>2026-04-19T13:40:19.943Z</time></trkpt><trkpt lat="44.416880309819234" lon="9.628285110125558"><ele>1018.0</ele><time>2026-04-19T13:40:20.943Z</time></trkpt><trkpt lat="44.41690773031468" lon="9.628400928871672"><ele>1018.0</ele><time>2026-04-19T13:40:21.943Z</time></trkpt><trkpt lat="44.41687701445486" lon="9.628504698994622"><ele>1018.0</ele><time>2026-04-19T13:40:22.943Z</time></trkpt><trkpt lat="44.41677810034878" lon="9.62857462640697"><ele>1018.0</ele><time>2026-04-19T13:40:23.943Z</time></trkpt><trkpt lat="44.41665717478873" lon="9.628585730637012"><ele>1018.0</ele><time>2026-04-19T13:40:24.943Z</time></trkpt><trkpt lat="44.416530548722044" lon="9.628546510850976"><ele>1018.0</ele><time>2026-04-19T13:40:25.943Z</time></trkpt><trkpt lat="44.416411178720246" lon="9.628502996914747"><ele>1015.5</ele><time>2026-04-19T13:40:26.943Z</time></trkpt><trkpt lat="44.41629405934674" lon="9.628496358799763"><ele>1013.0</ele><time>2026-04-19T13:40:27.943Z</time></trkpt><trkpt lat="44.41617006860702" lon="9.628540809983907"><ele>1010.5</ele><time>2026-04-19T13:40:28.943Z</time></trkpt><trkpt lat="44.41605719925017" lon="9.628627462158702"><ele>1008.0</ele><time>2026-04-19T13:40:29.943Z</time></trkpt><trkpt lat="44.41596293976961" lon="9.628754047577903"><ele>1008.0</ele><time>2026-04-19T13:40:30.943Z</time></trkpt><trkpt lat="44.41588111825442" lon="9.628906445822738"><ele>1008.0</ele><time>2026-04-19T13:40:31.943Z</time></trkpt><trkpt lat="44.41581954412985" lon="9.629076320712741"><ele>1008.0</ele><time>2026-04-19T13:40:32.943Z</time></trkpt><trkpt lat="44.415777616067345" lon="9.629251263428722"><ele>1008.0</ele><time>2026-04-19T13:40:33.943Z</time></trkpt><trkpt lat="44.415746464721956" lon="9.629421112802511"><ele>1009.3333333333334</ele><time>2026-04-19T13:40:34.943Z</time></trkpt><trkpt lat="44.41571325203985" lon="9.629573224613493"><ele>1010.6666666666667</ele><time>2026-04-19T13:40:35.943Z</time></trkpt><trkpt lat="44.415674685806735" lon="9.629700799185608"><ele>1012.0</ele><time>2026-04-19T13:40:36.943Z</time></trkpt><trkpt lat="44.41564042121728" lon="9.629808149430794"><ele>1013.3333333333334</ele><time>2026-04-19T13:40:37.943Z</time></trkpt><trkpt lat="44.415623571608" lon="9.629905268513308"><ele>1014.6666666666667</ele><time>2026-04-19T13:40:38.944Z</time></trkpt><trkpt lat="44.41561922077475" lon="9.630002738530177"><ele>1016.0</ele><time>2026-04-19T13:40:39.944Z</time></trkpt><trkpt lat="44.4155805017923" lon="9.630103194811056"><ele>1016.0000000000001</ele><time>2026-04-19T13:40:41.944Z</time></trkpt><trkpt lat="44.41552357842774" lon="9.630141242271057"><ele>1016.0</ele><time>2026-04-19T13:40:43.944Z</time></trkpt><trkpt lat="44.415443518973525" lon="9.630173659571687"><ele>1016.0</ele><time>2026-04-19T13:40:45.944Z</time></trkpt><trkpt lat="44.415371798239605" lon="9.630203898151244"><ele>1016.0</ele><time>2026-04-19T13:40:46.944Z</time></trkpt><trkpt lat="44.41529121793529" lon="9.63025160901286"><ele>1016.0000000000001</ele><time>2026-04-19T13:40:47.944Z</time></trkpt><trkpt lat="44.415194471537106" lon="9.630308879210542"><ele>1016.0</ele><time>2026-04-19T13:40:48.944Z</time></trkpt><trkpt lat="44.41508370748196" lon="9.630340228584364"><ele>1015.75</ele><time>2026-04-19T13:40:49.944Z</time></trkpt><trkpt lat="44.41495805820781" lon="9.630332741448436"><ele>1015.5</ele><time>2026-04-19T13:40:50.944Z</time></trkpt><trkpt lat="44.41483255733706" lon="9.630320072143594"><ele>1015.25</ele><time>2026-04-19T13:40:51.944Z</time></trkpt><trkpt lat="44.414712973763415" lon="9.630340927803251"><ele>1015.0</ele><time>2026-04-19T13:40:52.944Z</time></trkpt><trkpt lat="44.41459183485766" lon="9.630401622194091"><ele>1014.25</ele><time>2026-04-19T13:40:53.944Z</time></trkpt><trkpt lat="44.41447223939413" lon="9.630459222093275"><ele>1013.5</ele><time>2026-04-19T13:40:54.944Z</time></trkpt><trkpt lat="44.41434883564488" lon="9.630471237013458"><ele>1012.75</ele><time>2026-04-19T13:40:55.944Z</time></trkpt><trkpt lat="44.41422505338824" lon="9.630438093233053"><ele>1012.0</ele><time>2026-04-19T13:40:56.944Z</time></trkpt><trkpt lat="44.414101980809306" lon="9.630397237146282"><ele>1012.0</ele><time>2026-04-19T13:40:57.944Z</time></trkpt><trkpt lat="44.41396813483448" lon="9.630364901477956"><ele>1012.0</ele><time>2026-04-19T13:40:58.944Z</time></trkpt><trkpt lat="44.41383664939035" lon="9.630335139304826"><ele>1012.0</ele><time>2026-04-19T13:40:59.944Z</time></trkpt><trkpt lat="44.41371008299843" lon="9.630296445763038"><ele>1012.0</ele><time>2026-04-19T13:41:00.944Z</time></trkpt><trkpt lat="44.41360013277233" lon="9.63023071364433"><ele>1008.2</ele><time>2026-04-19T13:41:01.944Z</time></trkpt><trkpt lat="44.413509284218726" lon="9.630148418235102"><ele>1004.4000000000001</ele><time>2026-04-19T13:41:02.944Z</time></trkpt><trkpt lat="44.41344510310817" lon="9.630073413819751"><ele>1000.5999999999999</ele><time>2026-04-19T13:41:03.944Z</time></trkpt><trkpt lat="44.41338302281266" lon="9.630016254359264"><ele>996.8</ele><time>2026-04-19T13:41:04.944Z</time></trkpt><trkpt lat="44.413298406990144" lon="9.629993237066644"><ele>993.0</ele><time>2026-04-19T13:41:05.944Z</time></trkpt><trkpt lat="44.41320116384785" lon="9.630014818832757"><ele>993.0</ele><time>2026-04-19T13:41:06.944Z</time></trkpt><trkpt lat="44.41309971925548" lon="9.63007872145629"><ele>993.0</ele><time>2026-04-19T13:41:07.944Z</time></trkpt><trkpt lat="44.41299853379556" lon="9.630157828644663"><ele>993.0</ele><time>2026-04-19T13:41:08.944Z</time></trkpt><trkpt lat="44.412886721564085" lon="9.630229650268463"><ele>993.0</ele><time>2026-04-19T13:41:09.944Z</time></trkpt><trkpt lat="44.41277616363544" lon="9.630259242228531"><ele>991.8</ele><time>2026-04-19T13:41:10.944Z</time></trkpt><trkpt lat="44.4126656158254" lon="9.630246475985912"><ele>990.5999999999999</ele><time>2026-04-19T13:41:11.944Z</time></trkpt><trkpt lat="44.41255657834813" lon="9.63021238352218"><ele>989.4000000000001</ele><time>2026-04-19T13:41:12.944Z</time></trkpt><trkpt lat="44.41244983588261" lon="9.630171201499387"><ele>988.2</ele><time>2026-04-19T13:41:13.944Z</time></trkpt><trkpt lat="44.41234188726401" lon="9.630124758797955"><ele>987.0</ele><time>2026-04-19T13:41:14.944Z</time></trkpt><trkpt lat="44.41222898493737" lon="9.630083132291379"><ele>989.8</ele><time>2026-04-19T13:41:15.944Z</time></trkpt><trkpt lat="44.41212886899849" lon="9.630041523298656"><ele>992.6</ele><time>2026-04-19T13:41:16.944Z</time></trkpt><trkpt lat="44.41204192109072" lon="9.62998963341088"><ele>995.3999999999999</ele><time>2026-04-19T13:41:17.944Z</time></trkpt><trkpt lat="44.41198407631945" lon="9.629893082065134"><ele>998.1999999999999</ele><time>2026-04-19T13:41:18.944Z</time></trkpt><trkpt lat="44.411937858329004" lon="9.629761252551214"><ele>1001.0</ele><time>2026-04-19T13:41:19.944Z</time></trkpt><trkpt lat="44.411890948962174" lon="9.629635235769195"><ele>1001.0</ele><time>2026-04-19T13:41:20.944Z</time></trkpt><trkpt lat="44.41182563537903" lon="9.629545698232565"><ele>1000.9999999999999</ele><time>2026-04-19T13:41:21.944Z</time></trkpt><trkpt lat="44.4117384670037" lon="9.629482980689781"><ele>1000.9999999999999</ele><time>2026-04-19T13:41:22.944Z</time></trkpt><trkpt lat="44.41165298209303" lon="9.629442844660014"><ele>1001.0</ele><time>2026-04-19T13:41:23.944Z</time></trkpt><trkpt lat="44.41157321529957" lon="9.629387514993127"><ele>1001.0</ele><time>2026-04-19T13:41:25.944Z</time></trkpt><trkpt lat="44.411493773007514" lon="9.6293477058145"><ele>998.0</ele><time>2026-04-19T13:44:27.942Z</time></trkpt><trkpt lat="44.411415360906155" lon="9.629300938072543"><ele>994.9999999999999</ele><time>2026-04-19T13:44:29.942Z</time></trkpt><trkpt lat="44.41130737193744" lon="9.629221135792978"><ele>991.9999999999999</ele><time>2026-04-19T13:44:31.942Z</time></trkpt><trkpt lat="44.41123998732824" lon="9.629173451577243"><ele>989.0</ele><time>2026-04-19T13:44:32.942Z</time></trkpt><trkpt lat="44.411159931437" lon="9.629119018689202"><ele>986.0</ele><time>2026-04-19T13:44:33.942Z</time></trkpt><trkpt lat="44.41106998800547" lon="9.629064572299049"><ele>986.0</ele><time>2026-04-19T13:44:34.942Z</time></trkpt><trkpt lat="44.410968736380774" lon="9.629022068603028"><ele>985.9999999999999</ele><time>2026-04-19T13:44:35.942Z</time></trkpt><trkpt lat="44.410862961817436" lon="9.628990926843548"><ele>985.9999999999999</ele><time>2026-04-19T13:44:36.942Z</time></trkpt><trkpt lat="44.41075589186398" lon="9.62895896736235"><ele>986.0</ele><time>2026-04-19T13:44:37.942Z</time></trkpt><trkpt lat="44.410651561385464" lon="9.628933825504323"><ele>986.0</ele><time>2026-04-19T13:44:38.942Z</time></trkpt><trkpt lat="44.41055560016225" lon="9.62890656685893"><ele>986.6666666666667</ele><time>2026-04-19T13:44:39.942Z</time></trkpt><trkpt lat="44.41047128993225" lon="9.628864881330692"><ele>987.3333333333334</ele><time>2026-04-19T13:44:40.942Z</time></trkpt><trkpt lat="44.410400829943036" lon="9.628800462351407"><ele>988.0</ele><time>2026-04-19T13:44:41.942Z</time></trkpt><trkpt lat="44.410357638292766" lon="9.628704806703702"><ele>988.6666666666667</ele><time>2026-04-19T13:44:42.942Z</time></trkpt><trkpt lat="44.41034562456157" lon="9.628591021725127"><ele>989.3333333333334</ele><time>2026-04-19T13:44:43.943Z</time></trkpt><trkpt lat="44.41034938664883" lon="9.628476213383733"><ele>990.0</ele><time>2026-04-19T13:44:44.943Z</time></trkpt><trkpt lat="44.410325694586675" lon="9.628354469310322"><ele>987.6</ele><time>2026-04-19T13:44:45.943Z</time></trkpt><trkpt lat="44.4102757914701" lon="9.628242685556055"><ele>985.2</ele><time>2026-04-19T13:44:46.943Z</time></trkpt><trkpt lat="44.41021074776677" lon="9.628142690330574"><ele>982.8</ele><time>2026-04-19T13:44:47.943Z</time></trkpt><trkpt lat="44.410141970950114" lon="9.628031912848053"><ele>980.4</ele><time>2026-04-19T13:44:48.943Z</time></trkpt><trkpt lat="44.410094803910425" lon="9.627900019898764"><ele>978.0</ele><time>2026-04-19T13:44:49.943Z</time></trkpt><trkpt lat="44.410078295632374" lon="9.627768175740423"><ele>975.8</ele><time>2026-04-19T13:44:50.943Z</time></trkpt><trkpt lat="44.410067389024015" lon="9.627646863257457"><ele>973.5999999999999</ele><time>2026-04-19T13:44:51.943Z</time></trkpt><trkpt lat="44.4100454257826" lon="9.627531670824013"><ele>971.4000000000001</ele><time>2026-04-19T13:44:52.943Z</time></trkpt><trkpt lat="44.410001922506474" lon="9.627404864756924"><ele>969.2</ele><time>2026-04-19T13:44:53.943Z</time></trkpt><trkpt lat="44.409948460295155" lon="9.627275344242966"><ele>967.0</ele><time>2026-04-19T13:44:54.943Z</time></trkpt><trkpt lat="44.40989108631497" lon="9.627140571106017"><ele>967.0</ele><time>2026-04-19T13:44:55.943Z</time></trkpt><trkpt lat="44.40983059217738" lon="9.627009390403565"><ele>967.0</ele><time>2026-04-19T13:44:56.943Z</time></trkpt><trkpt lat="44.409759406211" lon="9.62688703557847"><ele>967.0</ele><time>2026-04-19T13:44:57.943Z</time></trkpt><trkpt lat="44.40967251663038" lon="9.626782816484404"><ele>967.0</ele><time>2026-04-19T13:44:58.943Z</time></trkpt><trkpt lat="44.409574324495125" lon="9.626689761971456"><ele>965.25</ele><time>2026-04-19T13:44:59.943Z</time></trkpt><trkpt lat="44.409470261387874" lon="9.62660112582427"><ele>963.5</ele><time>2026-04-19T13:45:00.943Z</time></trkpt><trkpt lat="44.40936099356262" lon="9.626521123762553"><ele>961.75</ele><time>2026-04-19T13:45:01.943Z</time></trkpt><trkpt lat="44.40925439078008" lon="9.626454635397549"><ele>960.0</ele><time>2026-04-19T13:45:02.943Z</time></trkpt><trkpt lat="44.40914477901868" lon="9.626413484272662"><ele>960.0</ele><time>2026-04-19T13:45:03.943Z</time></trkpt><trkpt lat="44.409032659229595" lon="9.626393321125803"><ele>960.0</ele><time>2026-04-19T13:45:04.943Z</time></trkpt><trkpt lat="44.40893096373844" lon="9.626397203606869"><ele>960.0</ele><time>2026-04-19T13:45:05.943Z</time></trkpt><trkpt lat="44.4088283590559" lon="9.62642496730917"><ele>960.0</ele><time>2026-04-19T13:45:06.943Z</time></trkpt><trkpt lat="44.40873225512001" lon="9.626487264930816"><ele>960.0</ele><time>2026-04-19T13:45:07.943Z</time></trkpt><trkpt lat="44.40864163171206" lon="9.626568170202018"><ele>959.6666666666666</ele><time>2026-04-19T13:45:08.943Z</time></trkpt><trkpt lat="44.40855900404185" lon="9.62665811229726"><ele>959.3333333333333</ele><time>2026-04-19T13:45:09.943Z</time></trkpt><trkpt lat="44.408480372322224" lon="9.626732698017738"><ele>959.0</ele><time>2026-04-19T13:45:10.943Z</time></trkpt><trkpt lat="44.40840186214366" lon="9.626768220108051"><ele>958.6666666666666</ele><time>2026-04-19T13:45:11.943Z</time></trkpt><trkpt lat="44.408324527859996" lon="9.626739692020827"><ele>958.3333333333333</ele><time>2026-04-19T13:45:12.943Z</time></trkpt><trkpt lat="44.40826761536739" lon="9.62666096007006"><ele>958.0</ele><time>2026-04-19T13:45:13.943Z</time></trkpt><trkpt lat="44.4082357820174" lon="9.626537448676048"><ele>958.0</ele><time>2026-04-19T13:45:14.943Z</time></trkpt><trkpt lat="44.408193076637644" lon="9.626401584395962"><ele>958.0</ele><time>2026-04-19T13:45:15.943Z</time></trkpt><trkpt lat="44.40812389868641" lon="9.626267951647572"><ele>958.0</ele><time>2026-04-19T13:45:16.943Z</time></trkpt><trkpt lat="44.408046145179696" lon="9.626129598187914"><ele>958.0</ele><time>2026-04-19T13:45:17.943Z</time></trkpt><trkpt lat="44.407986301081976" lon="9.62596618815544"><ele>959.25</ele><time>2026-04-19T13:45:18.943Z</time></trkpt><trkpt lat="44.40794145774774" lon="9.625787210393257"><ele>960.5</ele><time>2026-04-19T13:45:19.943Z</time></trkpt><trkpt lat="44.40790086160986" lon="9.625591641479687"><ele>961.75</ele><time>2026-04-19T13:45:20.943Z</time></trkpt><trkpt lat="44.40786650508712" lon="9.625396386185942"><ele>963.0</ele><time>2026-04-19T13:45:21.943Z</time></trkpt><trkpt lat="44.407834645884144" lon="9.625219113171644"><ele>963.0</ele><time>2026-04-19T13:45:22.943Z</time></trkpt><trkpt lat="44.407818498327984" lon="9.625049009241955"><ele>963.0</ele><time>2026-04-19T13:45:23.943Z</time></trkpt><trkpt lat="44.407837477225904" lon="9.624882001997728"><ele>963.0</ele><time>2026-04-19T13:45:24.943Z</time></trkpt><trkpt lat="44.40789402910852" lon="9.624719399469475"><ele>963.0</ele><time>2026-04-19T13:45:25.943Z</time></trkpt><trkpt lat="44.407967407699665" lon="9.62456606847112"><ele>956.5</ele><time>2026-04-19T13:45:26.943Z</time></trkpt><trkpt lat="44.40803276606483" lon="9.624407797930976"><ele>950.0</ele><time>2026-04-19T13:45:27.943Z</time></trkpt><trkpt lat="44.408075210414104" lon="9.624254700054596"><ele>943.5</ele><time>2026-04-19T13:45:28.943Z</time></trkpt><trkpt lat="44.40809929963591" lon="9.624089504203187"><ele>937.0</ele><time>2026-04-19T13:45:29.943Z</time></trkpt><trkpt lat="44.408106186214425" lon="9.623914503329507"><ele>937.0</ele><time>2026-04-19T13:45:30.943Z</time></trkpt><trkpt lat="44.40809745171292" lon="9.623744370279338"><ele>937.0</ele><time>2026-04-19T13:45:31.943Z</time></trkpt><trkpt lat="44.408059175902" lon="9.623584132218493"><ele>937.0</ele><time>2026-04-19T13:45:32.943Z</time></trkpt><trkpt lat="44.407994700955875" lon="9.62343114706641"><ele>937.0</ele><time>2026-04-19T13:45:33.943Z</time></trkpt><trkpt lat="44.4079177272823" lon="9.623275097445514"><ele>937.5</ele><time>2026-04-19T13:45:34.943Z</time></trkpt><trkpt lat="44.40784023037606" lon="9.623107773948536"><ele>938.0</ele><time>2026-04-19T13:45:35.943Z</time></trkpt><trkpt lat="44.40775874457252" lon="9.622950959447671"><ele>938.5</ele><time>2026-04-19T13:45:36.943Z</time></trkpt><trkpt lat="44.407670638439846" lon="9.62281957142327"><ele>939.0</ele><time>2026-04-19T13:45:37.943Z</time></trkpt><trkpt lat="44.40758463337568" lon="9.622707022264427"><ele>939.0</ele><time>2026-04-19T13:45:38.943Z</time></trkpt><trkpt lat="44.40752116243644" lon="9.622586517484509"><ele>939.0000000000001</ele><time>2026-04-19T13:45:39.943Z</time></trkpt><trkpt lat="44.40749494820419" lon="9.62244039844845"><ele>939.0000000000001</ele><time>2026-04-19T13:45:40.943Z</time></trkpt><trkpt lat="44.40749298983087" lon="9.62227588571013"><ele>939.0</ele><time>2026-04-19T13:45:41.943Z</time></trkpt><trkpt lat="44.40747918961316" lon="9.622123557374263"><ele>939.0</ele><time>2026-04-19T13:45:42.943Z</time></trkpt><trkpt lat="44.40742595727704" lon="9.621976559379668"><ele>941.0</ele><time>2026-04-19T13:45:43.943Z</time></trkpt><trkpt lat="44.4073541938502" lon="9.621833873368436"><ele>943.0</ele><time>2026-04-19T13:45:44.943Z</time></trkpt><trkpt lat="44.40727039281847" lon="9.621683925656061"><ele>945.0</ele><time>2026-04-19T13:45:45.943Z</time></trkpt><trkpt lat="44.407179477717435" lon="9.621520364280368"><ele>947.0</ele><time>2026-04-19T13:45:46.943Z</time></trkpt><trkpt lat="44.40709387583067" lon="9.621345059514848"><ele>947.0</ele><time>2026-04-19T13:45:47.942Z</time></trkpt><trkpt lat="44.40701265773499" lon="9.621174262756574"><ele>947.0</ele><time>2026-04-19T13:45:48.942Z</time></trkpt><trkpt lat="44.40693782307906" lon="9.621018395547111"><ele>947.0</ele><time>2026-04-19T13:45:49.942Z</time></trkpt><trkpt lat="44.40686061798885" lon="9.620883388732542"><ele>947.0</ele><time>2026-04-19T13:45:50.942Z</time></trkpt><trkpt lat="44.40677323438475" lon="9.620764732744167"><ele>945.5</ele><time>2026-04-19T13:45:51.941Z</time></trkpt><trkpt lat="44.40665740140776" lon="9.620664696770204"><ele>944.0</ele><time>2026-04-19T13:45:52.941Z</time></trkpt><trkpt lat="44.406519171489386" lon="9.620583760489197"><ele>942.5</ele><time>2026-04-19T13:45:53.942Z</time></trkpt><trkpt lat="44.40636720351077" lon="9.620503868107733"><ele>941.0</ele><time>2026-04-19T13:45:54.942Z</time></trkpt><trkpt lat="44.40622062777002" lon="9.620417954901693"><ele>941.0</ele><time>2026-04-19T13:45:55.942Z</time></trkpt><trkpt lat="44.40608059649713" lon="9.620321874343459"><ele>941.0</ele><time>2026-04-19T13:45:56.942Z</time></trkpt><trkpt lat="44.405949958095555" lon="9.62020489439977"><ele>941.0</ele><time>2026-04-19T13:45:57.942Z</time></trkpt><trkpt lat="44.40582656410852" lon="9.620069353920265"><ele>936.25</ele><time>2026-04-19T13:45:58.942Z</time></trkpt><trkpt lat="44.4057123799709" lon="9.61992572240924"><ele>931.5</ele><time>2026-04-19T13:45:59.942Z</time></trkpt><trkpt lat="44.40560171565127" lon="9.619804176184031"><ele>926.75</ele><time>2026-04-19T13:46:00.942Z</time></trkpt><trkpt lat="44.405486679547806" lon="9.619714137074782"><ele>922.0</ele><time>2026-04-19T13:46:01.942Z</time></trkpt><trkpt lat="44.405372924054895" lon="9.619645205009766"><ele>922.0</ele><time>2026-04-19T13:46:02.942Z</time></trkpt><trkpt lat="44.405260481083715" lon="9.619597546715129"><ele>922.0</ele><time>2026-04-19T13:46:03.942Z</time></trkpt><trkpt lat="44.40514576654154" lon="9.619599135209992"><ele>922.0</ele><time>2026-04-19T13:46:04.942Z</time></trkpt><trkpt lat="44.40503400341408" lon="9.619657704238577"><ele>922.0</ele><time>2026-04-19T13:46:05.942Z</time></trkpt><trkpt lat="44.404922680186615" lon="9.619739375742371"><ele>922.0</ele><time>2026-04-19T13:46:06.942Z</time></trkpt><trkpt lat="44.40480306557713" lon="9.619806659846454"><ele>922.0</ele><time>2026-04-19T13:46:07.942Z</time></trkpt><trkpt lat="44.40466724897219" lon="9.61983664093476"><ele>922.0</ele><time>2026-04-19T13:46:08.942Z</time></trkpt><trkpt lat="44.404518267658375" lon="9.619850623075335"><ele>922.0</ele><time>2026-04-19T13:46:09.942Z</time></trkpt><trkpt lat="44.40437627366854" lon="9.619843119377189"><ele>921.0</ele><time>2026-04-19T13:46:10.942Z</time></trkpt><trkpt lat="44.404237734017705" lon="9.619790123661609"><ele>920.0</ele><time>2026-04-19T13:46:11.942Z</time></trkpt><trkpt lat="44.40410233143343" lon="9.61969825809826"><ele>919.0</ele><time>2026-04-19T13:46:12.942Z</time></trkpt><trkpt lat="44.403982448026404" lon="9.619556158268752"><ele>917.6666666666666</ele><time>2026-04-19T13:46:13.942Z</time></trkpt><trkpt lat="44.403867790083574" lon="9.61939855106244"><ele>916.3333333333333</ele><time>2026-04-19T13:46:14.942Z</time></trkpt><trkpt lat="44.40375335106715" lon="9.619237746624421"><ele>915.0</ele><time>2026-04-19T13:46:15.942Z</time></trkpt><trkpt lat="44.403645623065536" lon="9.619093006375344"><ele>915.0</ele><time>2026-04-19T13:46:16.942Z</time></trkpt><trkpt lat="44.40355502293733" lon="9.618982696780938"><ele>915.0</ele><time>2026-04-19T13:46:17.942Z</time></trkpt><trkpt lat="44.403463216910566" lon="9.618902040876502"><ele>915.0</ele><time>2026-04-19T13:46:18.942Z</time></trkpt><trkpt lat="44.40335184879488" lon="9.618869316258325"><ele>915.0</ele><time>2026-04-19T13:46:19.942Z</time></trkpt><trkpt lat="44.4032391170692" lon="9.618902130762203"><ele>915.0</ele><time>2026-04-19T13:46:20.942Z</time></trkpt><trkpt lat="44.403097814334245" lon="9.618934764145035"><ele>915.0</ele><time>2026-04-19T13:46:21.942Z</time></trkpt><trkpt lat="44.402938582829286" lon="9.618939259304408"><ele>915.0</ele><time>2026-04-19T13:46:22.942Z</time></trkpt><trkpt lat="44.40278928145047" lon="9.618887980168182"><ele>917.5</ele><time>2026-04-19T13:46:23.942Z</time></trkpt><trkpt lat="44.40264766629696" lon="9.618805239614897"><ele>920.0</ele><time>2026-04-19T13:46:24.942Z</time></trkpt><trkpt lat="44.402535355696926" lon="9.618686736288643"><ele>922.5</ele><time>2026-04-19T13:46:25.942Z</time></trkpt><trkpt lat="44.40244949714899" lon="9.618540623470544"><ele>925.0</ele><time>2026-04-19T13:46:26.942Z</time></trkpt><trkpt lat="44.40238891321035" lon="9.618362883275955"><ele>918.0</ele><time>2026-04-19T13:46:27.942Z</time></trkpt><trkpt lat="44.40236127627737" lon="9.6181626838416"><ele>911.0</ele><time>2026-04-19T13:46:28.942Z</time></trkpt><trkpt lat="44.4023597303584" lon="9.617946680734274"><ele>904.0</ele><time>2026-04-19T13:46:29.942Z</time></trkpt><trkpt lat="44.40234367297665" lon="9.61773494635957"><ele>903.5</ele><time>2026-04-19T13:46:30.942Z</time></trkpt><trkpt lat="44.40230681148016" lon="9.61753619009775"><ele>903.0</ele><time>2026-04-19T13:46:31.942Z</time></trkpt><trkpt lat="44.40224514192631" lon="9.617342451868577"><ele>902.5</ele><time>2026-04-19T13:46:32.942Z</time></trkpt><trkpt lat="44.40218938377032" lon="9.61717578882312"><ele>902.0</ele><time>2026-04-19T13:46:33.942Z</time></trkpt><trkpt lat="44.40213914516626" lon="9.617029398035564"><ele>898.4000000000001</ele><time>2026-04-19T13:46:34.942Z</time></trkpt><trkpt lat="44.40209553111481" lon="9.616902359146756"><ele>894.8000000000001</ele><time>2026-04-19T13:46:35.942Z</time></trkpt><trkpt lat="44.40202707174398" lon="9.616806547115393"><ele>891.2</ele><time>2026-04-19T13:46:36.942Z</time></trkpt><trkpt lat="44.40194004277959" lon="9.616749488583299"><ele>887.6</ele><time>2026-04-19T13:46:37.942Z</time></trkpt><trkpt lat="44.40183495756242" lon="9.616752970092092"><ele>884.0</ele><time>2026-04-19T13:46:38.942Z</time></trkpt><trkpt lat="44.40171502182697" lon="9.61680805340548"><ele>884.0</ele><time>2026-04-19T13:46:39.942Z</time></trkpt><trkpt lat="44.40160542811681" lon="9.616857082755606"><ele>884.0000000000001</ele><time>2026-04-19T13:46:40.942Z</time></trkpt><trkpt lat="44.40150461483383" lon="9.616906096035963"><ele>884.0000000000001</ele><time>2026-04-19T13:46:41.942Z</time></trkpt><trkpt lat="44.4014201558951" lon="9.616977860891081"><ele>884.0</ele><time>2026-04-19T13:46:42.942Z</time></trkpt><trkpt lat="44.40135408193967" lon="9.617080048025018"><ele>884.0</ele><time>2026-04-19T13:46:43.942Z</time></trkpt><trkpt lat="44.40130052253035" lon="9.617210470413857"><ele>886.25</ele><time>2026-04-19T13:46:44.942Z</time></trkpt><trkpt lat="44.40125241966631" lon="9.617358798234237"><ele>888.5</ele><time>2026-04-19T13:46:45.942Z</time></trkpt><trkpt lat="44.40120645216413" lon="9.617515094576541"><ele>890.75</ele><time>2026-04-19T13:46:46.942Z</time></trkpt><trkpt lat="44.40115682000212" lon="9.617680133046598"><ele>893.0</ele><time>2026-04-19T13:46:47.942Z</time></trkpt><trkpt lat="44.40108995258836" lon="9.617849172719955"><ele>893.0</ele><time>2026-04-19T13:46:48.942Z</time></trkpt><trkpt lat="44.401004510799176" lon="9.618008521407312"><ele>893.0</ele><time>2026-04-19T13:46:49.942Z</time></trkpt><trkpt lat="44.40089869839592" lon="9.618158402554224"><ele>893.0</ele><time>2026-04-19T13:46:50.942Z</time></trkpt><trkpt lat="44.40078922998494" lon="9.618289002057214"><ele>893.0</ele><time>2026-04-19T13:46:51.942Z</time></trkpt><trkpt lat="44.40066772705106" lon="9.618408083100281"><ele>893.0</ele><time>2026-04-19T13:46:52.942Z</time></trkpt><trkpt lat="44.400535827257755" lon="9.618510990501338"><ele>893.0</ele><time>2026-04-19T13:46:53.942Z</time></trkpt><trkpt lat="44.400388901269864" lon="9.618583122054062"><ele>893.0</ele><time>2026-04-19T13:46:54.942Z</time></trkpt><trkpt lat="44.40023908925587" lon="9.618616273784664"><ele>890.3333333333334</ele><time>2026-04-19T13:46:55.942Z</time></trkpt><trkpt lat="44.40008297463402" lon="9.618621339893215"><ele>887.6666666666667</ele><time>2026-04-19T13:46:56.942Z</time></trkpt><trkpt lat="44.39993036046161" lon="9.618586769538743"><ele>885.0</ele><time>2026-04-19T13:46:57.942Z</time></trkpt><trkpt lat="44.39977718397798" lon="9.618528020158072"><ele>885.6666666666667</ele><time>2026-04-19T13:46:58.942Z</time></trkpt><trkpt lat="44.39962531461381" lon="9.618453503678948"><ele>886.3333333333334</ele><time>2026-04-19T13:46:59.942Z</time></trkpt><trkpt lat="44.39947338013806" lon="9.618396964451424"><ele>887.0</ele><time>2026-04-19T13:47:00.942Z</time></trkpt><trkpt lat="44.39931502690341" lon="9.618359713110479"><ele>887.0</ele><time>2026-04-19T13:47:01.942Z</time></trkpt><trkpt lat="44.399152357011765" lon="9.618304831062956"><ele>887.0</ele><time>2026-04-19T13:47:02.942Z</time></trkpt><trkpt lat="44.39899712139262" lon="9.618230128819008"><ele>887.0</ele><time>2026-04-19T13:47:03.942Z</time></trkpt><trkpt lat="44.39885099502342" lon="9.618119318896333"><ele>890.0</ele><time>2026-04-19T13:47:04.942Z</time></trkpt><trkpt lat="44.39870728254629" lon="9.617972260186164"><ele>893.0</ele><time>2026-04-19T13:47:05.942Z</time></trkpt><trkpt lat="44.39856700972731" lon="9.61780402285972"><ele>896.0</ele><time>2026-04-19T13:47:06.942Z</time></trkpt><trkpt lat="44.39841492815081" lon="9.617663336142137"><ele>895.6666666666667</ele><time>2026-04-19T13:47:07.942Z</time></trkpt><trkpt lat="44.39824673107994" lon="9.61753736073761"><ele>895.3333333333333</ele><time>2026-04-19T13:47:08.942Z</time></trkpt><trkpt lat="44.398084605187" lon="9.61739551760166"><ele>895.0</ele><time>2026-04-19T13:47:09.942Z</time></trkpt><trkpt lat="44.39792012035152" lon="9.61726762928997"><ele>895.0</ele><time>2026-04-19T13:47:10.942Z</time></trkpt><trkpt lat="44.3977545233875" lon="9.617167215591627"><ele>895.0</ele><time>2026-04-19T13:47:11.942Z</time></trkpt><trkpt lat="44.397591191588155" lon="9.617064291212985"><ele>895.0</ele><time>2026-04-19T13:47:12.942Z</time></trkpt><trkpt lat="44.397440389257106" lon="9.616925811274497"><ele>891.0</ele><time>2026-04-19T13:47:13.942Z</time></trkpt><trkpt lat="44.39730723295999" lon="9.616767689204886"><ele>887.0</ele><time>2026-04-19T13:47:14.942Z</time></trkpt><trkpt lat="44.39718196898401" lon="9.61662603428311"><ele>883.0</ele><time>2026-04-19T13:47:15.942Z</time></trkpt><trkpt lat="44.39703288107048" lon="9.61650946787015"><ele>883.0</ele><time>2026-04-19T13:47:16.942Z</time></trkpt><trkpt lat="44.39686990752996" lon="9.616411168087488"><ele>883.0</ele><time>2026-04-19T13:47:17.942Z</time></trkpt><trkpt lat="44.396698510527116" lon="9.616311034331153"><ele>883.0</ele><time>2026-04-19T13:47:18.942Z</time></trkpt><trkpt lat="44.39654554415502" lon="9.616176800995921"><ele>876.3333333333333</ele><time>2026-04-19T13:47:19.942Z</time></trkpt><trkpt lat="44.39640269485528" lon="9.616022553235684"><ele>869.6666666666667</ele><time>2026-04-19T13:47:20.942Z</time></trkpt><trkpt lat="44.39627430946151" lon="9.615870672906627"><ele>863.0</ele><time>2026-04-19T13:47:21.942Z</time></trkpt><trkpt lat="44.39615564097974" lon="9.615736718551242"><ele>863.0</ele><time>2026-04-19T13:47:22.942Z</time></trkpt><trkpt lat="44.39604721417299" lon="9.615603340492331"><ele>863.0</ele><time>2026-04-19T13:47:23.942Z</time></trkpt><trkpt lat="44.3959396006041" lon="9.615475132049015"><ele>863.0</ele><time>2026-04-19T13:47:24.943Z</time></trkpt><trkpt lat="44.39582544805935" lon="9.615363582811627"><ele>863.0</ele><time>2026-04-19T13:47:25.943Z</time></trkpt><trkpt lat="44.395714229575276" lon="9.615273652855242"><ele>859.2</ele><time>2026-04-19T13:47:26.943Z</time></trkpt><trkpt lat="44.395619958309254" lon="9.615201086840326"><ele>855.4</ele><time>2026-04-19T13:47:27.943Z</time></trkpt><trkpt lat="44.39553096296336" lon="9.615153203559567"><ele>851.6</ele><time>2026-04-19T13:47:28.943Z</time></trkpt><trkpt lat="44.395440485025276" lon="9.615152230007848"><ele>847.8000000000001</ele><time>2026-04-19T13:47:29.943Z</time></trkpt><trkpt lat="44.395349648900805" lon="9.615204289324028"><ele>844.0</ele><time>2026-04-19T13:47:30.943Z</time></trkpt><trkpt lat="44.395265344756176" lon="9.615297034849549"><ele>844.8000000000001</ele><time>2026-04-19T13:47:31.943Z</time></trkpt><trkpt lat="44.3951807521961" lon="9.61539692350783"><ele>845.6</ele><time>2026-04-19T13:47:32.943Z</time></trkpt><trkpt lat="44.39511278293456" lon="9.615504276747066"><ele>846.4</ele><time>2026-04-19T13:47:33.943Z</time></trkpt><trkpt lat="44.39506883157954" lon="9.615614098278142"><ele>847.2</ele><time>2026-04-19T13:47:34.943Z</time></trkpt><trkpt lat="44.395069554153835" lon="9.615732509111758"><ele>848.0</ele><time>2026-04-19T13:47:35.943Z</time></trkpt><trkpt lat="44.395088842093905" lon="9.615857722387243"><ele>848.0000000000001</ele><time>2026-04-19T13:47:36.943Z</time></trkpt><trkpt lat="44.39510776985515" lon="9.61597061098137"><ele>848.0</ele><time>2026-04-19T13:47:37.943Z</time></trkpt><trkpt lat="44.39509734350372" lon="9.61607491686929"><ele>848.0</ele><time>2026-04-19T13:47:38.943Z</time></trkpt><trkpt lat="44.395050004644865" lon="9.61614657203256"><ele>848.0</ele><time>2026-04-19T13:47:39.943Z</time></trkpt><trkpt lat="44.39496904184086" lon="9.616154983462632"><ele>848.0000000000001</ele><time>2026-04-19T13:47:40.943Z</time></trkpt><trkpt lat="44.39490261121255" lon="9.616083128959096"><ele>848.0</ele><time>2026-04-19T13:47:41.943Z</time></trkpt><trkpt lat="44.3948848468734" lon="9.615954133714213"><ele>848.0</ele><time>2026-04-19T13:47:42.943Z</time></trkpt><trkpt lat="44.39489005652284" lon="9.615806343315253"><ele>848.0</ele><time>2026-04-19T13:47:43.943Z</time></trkpt><trkpt lat="44.39489832388726" lon="9.6156211494167"><ele>848.0</ele><time>2026-04-19T13:47:44.943Z</time></trkpt><trkpt lat="44.394915408398404" lon="9.615425927816599"><ele>848.0</ele><time>2026-04-19T13:47:45.943Z</time></trkpt><trkpt lat="44.39493602160589" lon="9.615245502091"><ele>846.5</ele><time>2026-04-19T13:47:46.943Z</time></trkpt><trkpt lat="44.39495355568713" lon="9.615080269889203"><ele>845.0</ele><time>2026-04-19T13:47:47.943Z</time></trkpt><trkpt lat="44.394985217241306" lon="9.614923004095285"><ele>843.5</ele><time>2026-04-19T13:47:48.943Z</time></trkpt><trkpt lat="44.39504699149953" lon="9.614769899095792"><ele>842.0</ele><time>2026-04-19T13:47:49.943Z</time></trkpt><trkpt lat="44.395129055002386" lon="9.614636787904665"><ele>842.0</ele><time>2026-04-19T13:47:50.943Z</time></trkpt><trkpt lat="44.39522854525981" lon="9.614552735978299"><ele>842.0</ele><time>2026-04-19T13:47:51.943Z</time></trkpt><trkpt lat="44.395321744923166" lon="9.61450175230074"><ele>842.0</ele><time>2026-04-19T13:47:52.943Z</time></trkpt><trkpt lat="44.395393786045645" lon="9.614445429617122"><ele>842.0</ele><time>2026-04-19T13:47:53.941Z</time></trkpt><trkpt lat="44.395433604160544" lon="9.614347172127177"><ele>842.0</ele><time>2026-04-19T13:47:54.941Z</time></trkpt><trkpt lat="44.39542994156166" lon="9.614236653735091"><ele>839.4000000000001</ele><time>2026-04-19T13:47:55.941Z</time></trkpt><trkpt lat="44.39537732434723" lon="9.614138640126807"><ele>836.8000000000001</ele><time>2026-04-19T13:47:56.941Z</time></trkpt><trkpt lat="44.39528719555079" lon="9.614107301010701"><ele>834.2</ele><time>2026-04-19T13:47:57.941Z</time></trkpt><trkpt lat="44.39519015716165" lon="9.614155368364111"><ele>831.6</ele><time>2026-04-19T13:47:58.941Z</time></trkpt><trkpt lat="44.395095427715574" lon="9.614238073563266"><ele>829.0</ele><time>2026-04-19T13:47:59.941Z</time></trkpt><trkpt lat="44.39500005772901" lon="9.614334637461802"><ele>829.0</ele><time>2026-04-19T13:48:00.941Z</time></trkpt><trkpt lat="44.394892274642736" lon="9.614431440945005"><ele>829.0</ele><time>2026-04-19T13:48:01.941Z</time></trkpt><trkpt lat="44.39479696051496" lon="9.614521802698134"><ele>829.0</ele><time>2026-04-19T13:48:02.941Z</time></trkpt><trkpt lat="44.39471248172503" lon="9.614597649571223"><ele>829.0</ele><time>2026-04-19T13:48:03.941Z</time></trkpt><trkpt lat="44.39466034578369" lon="9.614698211086338"><ele>829.0</ele><time>2026-04-19T13:48:04.941Z</time></trkpt><trkpt lat="44.39464921988104" lon="9.614836200615857"><ele>828.0</ele><time>2026-04-19T13:48:05.941Z</time></trkpt><trkpt lat="44.39465310668778" lon="9.615004664426955"><ele>827.0</ele><time>2026-04-19T13:48:06.941Z</time></trkpt><trkpt lat="44.3946595032873" lon="9.61517999735958"><ele>826.0</ele><time>2026-04-19T13:48:07.941Z</time></trkpt><trkpt lat="44.39465391006912" lon="9.615355824617208"><ele>825.0</ele><time>2026-04-19T13:48:08.941Z</time></trkpt><trkpt lat="44.39462831329652" lon="9.615505980705604"><ele>825.0</ele><time>2026-04-19T13:48:09.941Z</time></trkpt><trkpt lat="44.3945775815752" lon="9.615647083206573"><ele>825.0</ele><time>2026-04-19T13:48:10.941Z</time></trkpt><trkpt lat="44.39448978244746" lon="9.615779681214164"><ele>825.0</ele><time>2026-04-19T13:48:11.941Z</time></trkpt><trkpt lat="44.39437334212525" lon="9.615891236377147"><ele>825.0</ele><time>2026-04-19T13:48:12.941Z</time></trkpt><trkpt lat="44.39424112556823" lon="9.615946811826483"><ele>825.0</ele><time>2026-04-19T13:48:13.941Z</time></trkpt><trkpt lat="44.3941029828771" lon="9.615960816574285"><ele>825.0</ele><time>2026-04-19T13:48:14.941Z</time></trkpt><trkpt lat="44.393950944781636" lon="9.615955578319982"><ele>825.0</ele><time>2026-04-19T13:48:15.941Z</time></trkpt><trkpt lat="44.39378595280285" lon="9.615952766730722"><ele>821.6666666666667</ele><time>2026-04-19T13:48:16.941Z</time></trkpt><trkpt lat="44.39361819948304" lon="9.615968058351816"><ele>818.3333333333334</ele><time>2026-04-19T13:48:17.941Z</time></trkpt><trkpt lat="44.393444206902466" lon="9.616010677871826"><ele>815.0</ele><time>2026-04-19T13:48:18.941Z</time></trkpt><trkpt lat="44.39327216860879" lon="9.616067053770198"><ele>815.0</ele><time>2026-04-19T13:48:19.941Z</time></trkpt><trkpt lat="44.393098365734744" lon="9.616122450469307"><ele>815.0</ele><time>2026-04-19T13:48:20.941Z</time></trkpt><trkpt lat="44.39292732663413" lon="9.616172060569227"><ele>815.0</ele><time>2026-04-19T13:48:21.941Z</time></trkpt><trkpt lat="44.39275738614452" lon="9.616225435602946"><ele>814.6666666666667</ele><time>2026-04-19T13:48:22.941Z</time></trkpt><trkpt lat="44.3925839202442" lon="9.616273952828017"><ele>814.3333333333333</ele><time>2026-04-19T13:48:23.941Z</time></trkpt><trkpt lat="44.392401350877094" lon="9.616313746710633"><ele>814.0</ele><time>2026-04-19T13:48:24.941Z</time></trkpt><trkpt lat="44.39221112486104" lon="9.616341253369676"><ele>810.3333333333333</ele><time>2026-04-19T13:48:25.941Z</time></trkpt><trkpt lat="44.39201764320895" lon="9.616361452859726"><ele>806.6666666666667</ele><time>2026-04-19T13:48:26.941Z</time></trkpt><trkpt lat="44.391823113248265" lon="9.616386474957672"><ele>803.0</ele><time>2026-04-19T13:48:27.941Z</time></trkpt><trkpt lat="44.39162895098859" lon="9.616414846887212"><ele>803.0</ele><time>2026-04-19T13:48:28.941Z</time></trkpt><trkpt lat="44.39144255449266" lon="9.616450250075468"><ele>803.0</ele><time>2026-04-19T13:48:29.941Z</time></trkpt><trkpt lat="44.39126236016744" lon="9.616475521276767"><ele>803.0</ele><time>2026-04-19T13:48:30.941Z</time></trkpt><trkpt lat="44.391095280329196" lon="9.61649580635683"><ele>799.3333333333334</ele><time>2026-04-19T13:48:31.941Z</time></trkpt><trkpt lat="44.39094174416597" lon="9.616519661117708"><ele>795.6666666666667</ele><time>2026-04-19T13:48:32.941Z</time></trkpt><trkpt lat="44.39079283956557" lon="9.616524102675625"><ele>792.0</ele><time>2026-04-19T13:48:33.941Z</time></trkpt><trkpt lat="44.390646553965105" lon="9.616487317247785"><ele>788.6666666666667</ele><time>2026-04-19T13:48:34.941Z</time></trkpt><trkpt lat="44.39049814888682" lon="9.616401812478053"><ele>785.3333333333334</ele><time>2026-04-19T13:48:35.941Z</time></trkpt><trkpt lat="44.390348797539616" lon="9.616298946858638"><ele>782.0</ele><time>2026-04-19T13:48:36.941Z</time></trkpt><trkpt lat="44.390200965342096" lon="9.616189466222545"><ele>785.25</ele><time>2026-04-19T13:48:37.941Z</time></trkpt><trkpt lat="44.39006660383844" lon="9.616089417266608"><ele>788.5</ele><time>2026-04-19T13:48:38.941Z</time></trkpt><trkpt lat="44.38994620547334" lon="9.616001723113209"><ele>791.75</ele><time>2026-04-19T13:48:39.941Z</time></trkpt><trkpt lat="44.38984616110729" lon="9.61591665110008"><ele>795.0</ele><time>2026-04-19T13:48:40.941Z</time></trkpt><trkpt lat="44.38976593336724" lon="9.615825954464652"><ele>795.0</ele><time>2026-04-19T13:48:41.941Z</time></trkpt><trkpt lat="44.38971259826337" lon="9.61570144000766"><ele>795.0</ele><time>2026-04-19T13:48:42.941Z</time></trkpt><trkpt lat="44.38970212571133" lon="9.615560958059794"><ele>795.0</ele><time>2026-04-19T13:48:43.941Z</time></trkpt><trkpt lat="44.38973376490743" lon="9.615441837965866"><ele>795.0</ele><time>2026-04-19T13:48:44.941Z</time></trkpt><trkpt lat="44.38980768352404" lon="9.615355098967783"><ele>795.0</ele><time>2026-04-19T13:48:45.941Z</time></trkpt><trkpt lat="44.389911853416066" lon="9.615289868853052"><ele>790.75</ele><time>2026-04-19T13:48:46.941Z</time></trkpt><trkpt lat="44.39004834224476" lon="9.615249995765474"><ele>786.5</ele><time>2026-04-19T13:48:47.941Z</time></trkpt><trkpt lat="44.39018103886637" lon="9.615234209713533"><ele>782.25</ele><time>2026-04-19T13:48:48.941Z</time></trkpt><trkpt lat="44.39029758330644" lon="9.615241516853752"><ele>778.0</ele><time>2026-04-19T13:48:49.941Z</time></trkpt><trkpt lat="44.39040983514728" lon="9.615293095814076"><ele>781.25</ele><time>2026-04-19T13:48:50.941Z</time></trkpt><trkpt lat="44.390526500337295" lon="9.615386907484964"><ele>784.5</ele><time>2026-04-19T13:48:51.941Z</time></trkpt><trkpt lat="44.39064807715181" lon="9.615486355816103"><ele>787.75</ele><time>2026-04-19T13:48:52.941Z</time></trkpt><trkpt lat="44.390764989894635" lon="9.61555943414053"><ele>791.0</ele><time>2026-04-19T13:48:53.941Z</time></trkpt><trkpt lat="44.390877785392384" lon="9.615619552981027"><ele>791.0</ele><time>2026-04-19T13:48:54.941Z</time></trkpt><trkpt lat="44.390990940355245" lon="9.615639151295483"><ele>791.0</ele><time>2026-04-19T13:48:55.941Z</time></trkpt><trkpt lat="44.3911123199906" lon="9.615615624252616"><ele>791.0</ele><time>2026-04-19T13:48:56.941Z</time></trkpt><trkpt lat="44.39123806143476" lon="9.615535227710092"><ele>791.0</ele><time>2026-04-19T13:48:57.941Z</time></trkpt><trkpt lat="44.391364556002394" lon="9.615402626860728"><ele>786.0</ele><time>2026-04-19T13:48:58.941Z</time></trkpt><trkpt lat="44.39150949073339" lon="9.615258656048374"><ele>781.0</ele><time>2026-04-19T13:48:59.941Z</time></trkpt><trkpt lat="44.39166628678513" lon="9.615115637653101"><ele>776.0</ele><time>2026-04-19T13:49:00.941Z</time></trkpt><trkpt lat="44.39183029298522" lon="9.6149692655179"><ele>776.0</ele><time>2026-04-19T13:49:01.941Z</time></trkpt><trkpt lat="44.391980128727916" lon="9.614839292672093"><ele>776.0</ele><time>2026-04-19T13:49:02.941Z</time></trkpt><trkpt lat="44.39211312113763" lon="9.614720267456999"><ele>776.0</ele><time>2026-04-19T13:49:03.941Z</time></trkpt><trkpt lat="44.39222692275206" lon="9.614617000893753"><ele>776.0</ele><time>2026-04-19T13:49:04.941Z</time></trkpt><trkpt lat="44.39231825941607" lon="9.61452059436317"><ele>776.0</ele><time>2026-04-19T13:49:05.941Z</time></trkpt><trkpt lat="44.39238616991997" lon="9.614420891513435"><ele>776.0</ele><time>2026-04-19T13:49:06.941Z</time></trkpt><trkpt lat="44.39242330562525" lon="9.614302335247991"><ele>776.0</ele><time>2026-04-19T13:49:07.941Z</time></trkpt><trkpt lat="44.392411303384506" lon="9.614186478157302"><ele>776.0</ele><time>2026-04-19T13:49:08.941Z</time></trkpt><trkpt lat="44.392358651491996" lon="9.61408858531244"><ele>776.0</ele><time>2026-04-19T13:49:09.941Z</time></trkpt><trkpt lat="44.39228695363582" lon="9.614006743196574"><ele>776.0</ele><time>2026-04-19T13:49:10.941Z</time></trkpt><trkpt lat="44.39218503281998" lon="9.613968590031387"><ele>776.0</ele><time>2026-04-19T13:49:11.941Z</time></trkpt><trkpt lat="44.39207912901769" lon="9.613993821937184"><ele>776.0</ele><time>2026-04-19T13:49:12.941Z</time></trkpt><trkpt lat="44.39195260421184" lon="9.614024636032969"><ele>776.0</ele><time>2026-04-19T13:49:13.941Z</time></trkpt><trkpt lat="44.39181424825686" lon="9.614064387987819"><ele>772.5</ele><time>2026-04-19T13:49:14.941Z</time></trkpt><trkpt lat="44.39168264818183" lon="9.614110385429008"><ele>769.0</ele><time>2026-04-19T13:49:15.941Z</time></trkpt><trkpt lat="44.39156747268408" lon="9.614167616504115"><ele>765.5</ele><time>2026-04-19T13:49:16.941Z</time></trkpt><trkpt lat="44.39147030810649" lon="9.614266449173654"><ele>762.0</ele><time>2026-04-19T13:49:17.941Z</time></trkpt><trkpt lat="44.391384556123015" lon="9.614412271113492"><ele>763.75</ele><time>2026-04-19T13:49:18.941Z</time></trkpt><trkpt lat="44.39131072281278" lon="9.61457977255704"><ele>765.5</ele><time>2026-04-19T13:49:19.941Z</time></trkpt><trkpt lat="44.39124633024035" lon="9.614730172686192"><ele>767.25</ele><time>2026-04-19T13:49:20.941Z</time></trkpt><trkpt lat="44.39118024577799" lon="9.61485196079349"><ele>769.0</ele><time>2026-04-19T13:49:21.942Z</time></trkpt><trkpt lat="44.39109221337396" lon="9.614932384721724"><ele>769.0</ele><time>2026-04-19T13:49:22.942Z</time></trkpt><trkpt lat="44.39099022575507" lon="9.61493347659221"><ele>769.0</ele><time>2026-04-19T13:49:23.942Z</time></trkpt><trkpt lat="44.39088536096908" lon="9.614863929630438"><ele>769.0</ele><time>2026-04-19T13:49:24.942Z</time></trkpt><trkpt lat="44.39077336632169" lon="9.614743140073418"><ele>769.0</ele><time>2026-04-19T13:49:25.942Z</time></trkpt><trkpt lat="44.39065315717587" lon="9.614581950340709"><ele>765.6666666666666</ele><time>2026-04-19T13:49:26.942Z</time></trkpt><trkpt lat="44.39053197044857" lon="9.614393804742733"><ele>762.3333333333333</ele><time>2026-04-19T13:49:27.942Z</time></trkpt><trkpt lat="44.39042494665361" lon="9.614204554527877"><ele>759.0</ele><time>2026-04-19T13:49:28.942Z</time></trkpt><trkpt lat="44.390334354866084" lon="9.614044269263955"><ele>759.0</ele><time>2026-04-19T13:49:29.942Z</time></trkpt><trkpt lat="44.39025007361956" lon="9.613897963248258"><ele>759.0</ele><time>2026-04-19T13:49:30.942Z</time></trkpt><trkpt lat="44.39017368318485" lon="9.613775316207445"><ele>759.0</ele><time>2026-04-19T13:49:31.942Z</time></trkpt><trkpt lat="44.39010055175372" lon="9.613692172286529"><ele>759.0</ele><time>2026-04-19T13:49:32.942Z</time></trkpt><trkpt lat="44.39000702143482" lon="9.613643992342087"><ele>759.0</ele><time>2026-04-19T13:49:33.942Z</time></trkpt><trkpt lat="44.38989235518991" lon="9.61365257133884"><ele>759.0</ele><time>2026-04-19T13:49:34.942Z</time></trkpt><trkpt lat="44.38978314881412" lon="9.613730287193146"><ele>759.0</ele><time>2026-04-19T13:49:35.942Z</time></trkpt><trkpt lat="44.389686405100356" lon="9.61386776520612"><ele>759.0</ele><time>2026-04-19T13:49:36.942Z</time></trkpt><trkpt lat="44.38958162538814" lon="9.614028447814158"><ele>759.0</ele><time>2026-04-19T13:49:37.942Z</time></trkpt><trkpt lat="44.38944367995898" lon="9.61418827130666"><ele>753.3333333333334</ele><time>2026-04-19T13:49:38.942Z</time></trkpt><trkpt lat="44.38929089345572" lon="9.614290109516192"><ele>747.6666666666667</ele><time>2026-04-19T13:49:39.942Z</time></trkpt><trkpt lat="44.389143324734796" lon="9.614370689332624"><ele>742.0</ele><time>2026-04-19T13:49:40.942Z</time></trkpt><trkpt lat="44.38899904717574" lon="9.614472413078982"><ele>742.0</ele><time>2026-04-19T13:49:41.942Z</time></trkpt><trkpt lat="44.38886555379385" lon="9.614594787720486"><ele>742.0</ele><time>2026-04-19T13:49:42.942Z</time></trkpt><trkpt lat="44.388730425192975" lon="9.614693443395513"><ele>742.0</ele><time>2026-04-19T13:49:43.942Z</time></trkpt><trkpt lat="44.38859350622043" lon="9.614728200939686"><ele>742.0</ele><time>2026-04-19T13:49:44.942Z</time></trkpt><trkpt lat="44.3884735514777" lon="9.614737279215806"><ele>742.0</ele><time>2026-04-19T13:49:45.942Z</time></trkpt><trkpt lat="44.388372801231796" lon="9.614758183999388"><ele>742.0</ele><time>2026-04-19T13:49:46.942Z</time></trkpt><trkpt lat="44.38828217360472" lon="9.614821979446893"><ele>742.0</ele><time>2026-04-19T13:49:47.942Z</time></trkpt><trkpt lat="44.388217384955624" lon="9.614951584918456"><ele>742.0</ele><time>2026-04-19T13:49:48.942Z</time></trkpt><trkpt lat="44.38816846971289" lon="9.615123306051112"><ele>744.3333333333334</ele><time>2026-04-19T13:49:49.942Z</time></trkpt><trkpt lat="44.38814167590707" lon="9.615335772491605"><ele>746.6666666666666</ele><time>2026-04-19T13:49:50.942Z</time></trkpt><trkpt lat="44.388123658092574" lon="9.615559442104264"><ele>749.0</ele><time>2026-04-19T13:49:51.942Z</time></trkpt><trkpt lat="44.38812341435917" lon="9.615784000294761"><ele>749.0</ele><time>2026-04-19T13:49:52.942Z</time></trkpt><trkpt lat="44.38814793486055" lon="9.616012710681222"><ele>749.0</ele><time>2026-04-19T13:49:53.942Z</time></trkpt><trkpt lat="44.388167136856886" lon="9.616202294980283"><ele>749.0</ele><time>2026-04-19T13:49:54.942Z</time></trkpt><trkpt lat="44.388177172639296" lon="9.61635022739653"><ele>749.0</ele><time>2026-04-19T13:49:55.942Z</time></trkpt><trkpt lat="44.3881682539348" lon="9.616466859096153"><ele>746.2</ele><time>2026-04-19T13:49:56.942Z</time></trkpt><trkpt lat="44.388124834649375" lon="9.61656050336247"><ele>743.4000000000001</ele><time>2026-04-19T13:49:57.942Z</time></trkpt><trkpt lat="44.38802910514024" lon="9.61658047096998"><ele>740.6</ele><time>2026-04-19T13:49:58.942Z</time></trkpt><trkpt lat="44.387947039899345" lon="9.616504857651343"><ele>737.8</ele><time>2026-04-19T13:49:59.94Z</time></trkpt><trkpt lat="44.387913341270114" lon="9.616370139341413"><ele>735.0</ele><time>2026-04-19T13:50:00.939Z</time></trkpt><trkpt lat="44.387922414709465" lon="9.616211708043476"><ele>731.75</ele><time>2026-04-19T13:50:01.939Z</time></trkpt><trkpt lat="44.387938357218815" lon="9.616046259452425"><ele>728.5</ele><time>2026-04-19T13:50:02.94Z</time></trkpt><trkpt lat="44.38794185180673" lon="9.61587169918941"><ele>725.25</ele><time>2026-04-19T13:50:03.94Z</time></trkpt><trkpt lat="44.38791853313778" lon="9.615688266111944"><ele>722.0</ele><time>2026-04-19T13:50:04.94Z</time></trkpt><trkpt lat="44.38787538148689" lon="9.61550442102331"><ele>722.5</ele><time>2026-04-19T13:50:05.94Z</time></trkpt><trkpt lat="44.38780939897121" lon="9.615318914237287"><ele>723.0</ele><time>2026-04-19T13:50:06.94Z</time></trkpt><trkpt lat="44.38773349596116" lon="9.615143507545648"><ele>723.5</ele><time>2026-04-19T13:50:07.94Z</time></trkpt><trkpt lat="44.38764128105887" lon="9.614978027323472"><ele>724.0</ele><time>2026-04-19T13:50:08.94Z</time></trkpt><trkpt lat="44.387545796332184" lon="9.61481542692736"><ele>724.0</ele><time>2026-04-19T13:50:09.94Z</time></trkpt><trkpt lat="44.38744804774169" lon="9.61465505413982"><ele>724.0</ele><time>2026-04-19T13:50:10.94Z</time></trkpt><trkpt lat="44.3873634694384" lon="9.614496550554675"><ele>724.0</ele><time>2026-04-19T13:50:11.94Z</time></trkpt><trkpt lat="44.38728268144121" lon="9.61435558712918"><ele>724.0</ele><time>2026-04-19T13:50:12.94Z</time></trkpt><trkpt lat="44.387205077661996" lon="9.614224817883802"><ele>722.0</ele><time>2026-04-19T13:50:13.94Z</time></trkpt><trkpt lat="44.387113474895294" lon="9.614121732067101"><ele>720.0</ele><time>2026-04-19T13:50:14.94Z</time></trkpt><trkpt lat="44.38700071146405" lon="9.614037539646528"><ele>718.0</ele><time>2026-04-19T13:50:15.94Z</time></trkpt><trkpt lat="44.38687272022627" lon="9.613996706402125"><ele>716.0</ele><time>2026-04-19T13:50:16.94Z</time></trkpt><trkpt lat="44.38675183226517" lon="9.613968121175217"><ele>716.0</ele><time>2026-04-19T13:50:17.94Z</time></trkpt><trkpt lat="44.38665727024447" lon="9.613909812263893"><ele>716.0</ele><time>2026-04-19T13:50:18.94Z</time></trkpt><trkpt lat="44.386581008721876" lon="9.613800273429034"><ele>716.0</ele><time>2026-04-19T13:50:19.94Z</time></trkpt><trkpt lat="44.38653950527355" lon="9.613645181870446"><ele>716.0</ele><time>2026-04-19T13:50:20.94Z</time></trkpt><trkpt lat="44.38651162487294" lon="9.613485040677494"><ele>716.0</ele><time>2026-04-19T13:50:21.94Z</time></trkpt><trkpt lat="44.3864584494092" lon="9.613314534617293"><ele>714.25</ele><time>2026-04-19T13:50:22.94Z</time></trkpt><trkpt lat="44.38638132925646" lon="9.61314738137509"><ele>712.5</ele><time>2026-04-19T13:50:23.94Z</time></trkpt><trkpt lat="44.38628701459938" lon="9.613008463885263"><ele>710.75</ele><time>2026-04-19T13:50:24.94Z</time></trkpt><trkpt lat="44.38616593546449" lon="9.612902655627297"><ele>709.0</ele><time>2026-04-19T13:50:25.94Z</time></trkpt><trkpt lat="44.386021640281236" lon="9.612836369632157"><ele>706.75</ele><time>2026-04-19T13:50:26.94Z</time></trkpt><trkpt lat="44.38587735637871" lon="9.61277770366233"><ele>704.5</ele><time>2026-04-19T13:50:27.94Z</time></trkpt><trkpt lat="44.385747159168446" lon="9.612703721121953"><ele>702.25</ele><time>2026-04-19T13:50:28.94Z</time></trkpt><trkpt lat="44.38563177946662" lon="9.612593717108302"><ele>700.0</ele><time>2026-04-19T13:50:29.94Z</time></trkpt><trkpt lat="44.385536512917085" lon="9.612441578375892"><ele>698.6666666666667</ele><time>2026-04-19T13:50:30.94Z</time></trkpt><trkpt lat="44.38543772108832" lon="9.612262077014398"><ele>697.3333333333334</ele><time>2026-04-19T13:50:31.94Z</time></trkpt><trkpt lat="44.38532896728437" lon="9.612075185531568"><ele>696.0</ele><time>2026-04-19T13:50:32.94Z</time></trkpt><trkpt lat="44.385209749626185" lon="9.611878296625875"><ele>696.0</ele><time>2026-04-19T13:50:33.94Z</time></trkpt><trkpt lat="44.3850886952682" lon="9.611684670938144"><ele>696.0</ele><time>2026-04-19T13:50:34.94Z</time></trkpt><trkpt lat="44.38497562245309" lon="9.611505162198506"><ele>696.0</ele><time>2026-04-19T13:50:35.94Z</time></trkpt><trkpt lat="44.38487418187083" lon="9.61133387920967"><ele>695.0</ele><time>2026-04-19T13:50:36.94Z</time></trkpt><trkpt lat="44.38478974741886" lon="9.611153966230516"><ele>694.0</ele><time>2026-04-19T13:50:37.94Z</time></trkpt><trkpt lat="44.38471370171226" lon="9.610951682540374"><ele>693.0</ele><time>2026-04-19T13:50:38.94Z</time></trkpt><trkpt lat="44.38464561503176" lon="9.610737817239901"><ele>693.0</ele><time>2026-04-19T13:50:39.94Z</time></trkpt><trkpt lat="44.38457932445981" lon="9.610537594933907"><ele>693.0</ele><time>2026-04-19T13:50:40.94Z</time></trkpt><trkpt lat="44.38449341112193" lon="9.610365795481007"><ele>693.0</ele><time>2026-04-19T13:50:41.94Z</time></trkpt><trkpt lat="44.38438754937744" lon="9.610225990779071"><ele>693.0</ele><time>2026-04-19T13:50:42.94Z</time></trkpt><trkpt lat="44.38427338970818" lon="9.61010172236884"><ele>693.0</ele><time>2026-04-19T13:50:43.94Z</time></trkpt><trkpt lat="44.38416554628125" lon="9.609993004456799"><ele>693.0</ele><time>2026-04-19T13:50:44.94Z</time></trkpt><trkpt lat="44.384058393277655" lon="9.609903713493344"><ele>693.0</ele><time>2026-04-19T13:50:45.94Z</time></trkpt><trkpt lat="44.383946940088116" lon="9.609847199122243"><ele>690.2</ele><time>2026-04-19T13:50:46.94Z</time></trkpt><trkpt lat="44.38383660990818" lon="9.609839241837387"><ele>687.4</ele><time>2026-04-19T13:50:47.94Z</time></trkpt><trkpt lat="44.38374059795742" lon="9.609900735869623"><ele>684.6</ele><time>2026-04-19T13:50:48.94Z</time></trkpt><trkpt lat="44.38366712994904" lon="9.610004412136085"><ele>681.8000000000001</ele><time>2026-04-19T13:50:49.94Z</time></trkpt><trkpt lat="44.38361721549213" lon="9.610155548857621"><ele>679.0</ele><time>2026-04-19T13:50:50.94Z</time></trkpt><trkpt lat="44.38359521393069" lon="9.610304450007703"><ele>681.2</ele><time>2026-04-19T13:50:51.94Z</time></trkpt><trkpt lat="44.383579779348686" lon="9.610445222943278"><ele>683.4000000000001</ele><time>2026-04-19T13:50:52.94Z</time></trkpt><trkpt lat="44.38353811676059" lon="9.610562354568009"><ele>685.6</ele><time>2026-04-19T13:50:53.94Z</time></trkpt><trkpt lat="44.383467112526525" lon="9.610657980389911"><ele>687.8</ele><time>2026-04-19T13:50:54.94Z</time></trkpt><trkpt lat="44.38337068875817" lon="9.610737869604884"><ele>690.0</ele><time>2026-04-19T13:50:55.94Z</time></trkpt><trkpt lat="44.383275209781246" lon="9.610805272651646"><ele>690.0</ele><time>2026-04-19T13:50:56.94Z</time></trkpt><trkpt lat="44.383173789016716" lon="9.610854939895587"><ele>690.0</ele><time>2026-04-19T13:50:57.94Z</time></trkpt><trkpt lat="44.38306914694554" lon="9.610880265378624"><ele>690.0</ele><time>2026-04-19T13:50:58.94Z</time></trkpt><trkpt lat="44.38296913190166" lon="9.610891380448312"><ele>690.0</ele><time>2026-04-19T13:50:59.941Z</time></trkpt><trkpt lat="44.38286963500178" lon="9.610899702857214"><ele>690.0</ele><time>2026-04-19T13:51:00.941Z</time></trkpt><trkpt lat="44.38276782512641" lon="9.610904674186505"><ele>690.2</ele><time>2026-04-19T13:51:01.941Z</time></trkpt><trkpt lat="44.38266944721966" lon="9.610891033170898"><ele>690.4</ele><time>2026-04-19T13:51:02.941Z</time></trkpt><trkpt lat="44.38259107787221" lon="9.610835179604763"><ele>690.5999999999999</ele><time>2026-04-19T13:51:03.941Z</time></trkpt><trkpt lat="44.382542194645076" lon="9.61074122450811"><ele>690.8</ele><time>2026-04-19T13:51:04.941Z</time></trkpt><trkpt lat="44.38251767708818" lon="9.610624918144948"><ele>691.0</ele><time>2026-04-19T13:51:05.941Z</time></trkpt><trkpt lat="44.382490125530566" lon="9.610499538215315"><ele>691.0</ele><time>2026-04-19T13:51:06.941Z</time></trkpt><trkpt lat="44.3824364635319" lon="9.610378319234238"><ele>691.0</ele><time>2026-04-19T13:51:07.941Z</time></trkpt><trkpt lat="44.38236582119294" lon="9.610275917519658"><ele>691.0</ele><time>2026-04-19T13:51:08.941Z</time></trkpt><trkpt lat="44.38228009000351" lon="9.610205334132356"><ele>691.0</ele><time>2026-04-19T13:51:09.941Z</time></trkpt><trkpt lat="44.38219530426819" lon="9.610158911328957"><ele>691.0</ele><time>2026-04-19T13:51:10.941Z</time></trkpt><trkpt lat="44.38210696842955" lon="9.610125747123298"><ele>687.75</ele><time>2026-04-19T13:51:11.941Z</time></trkpt><trkpt lat="44.38200730028548" lon="9.610101419741962"><ele>684.5</ele><time>2026-04-19T13:51:12.941Z</time></trkpt><trkpt lat="44.38190079959316" lon="9.610086126756128"><ele>681.25</ele><time>2026-04-19T13:51:13.941Z</time></trkpt><trkpt lat="44.38178275444849" lon="9.610064957161153"><ele>678.0</ele><time>2026-04-19T13:51:14.941Z</time></trkpt><trkpt lat="44.381618915622326" lon="9.610020843926623"><ele>678.0</ele><time>2026-04-19T13:51:15.941Z</time></trkpt><trkpt lat="44.38141230222544" lon="9.60993384466197"><ele>678.0</ele><time>2026-04-19T13:51:16.941Z</time></trkpt><trkpt lat="44.38118665430513" lon="9.609824485220216"><ele>678.0</ele><time>2026-04-19T13:51:17.941Z</time></trkpt><trkpt lat="44.38094394999103" lon="9.60970476244256"><ele>678.0</ele><time>2026-04-19T13:51:18.941Z</time></trkpt><trkpt lat="44.38072753592137" lon="9.609595189716421"><ele>678.0</ele><time>2026-04-19T13:51:19.941Z</time></trkpt><trkpt lat="44.38053096748404" lon="9.609510739736296"><ele>678.0</ele><time>2026-04-19T13:51:20.941Z</time></trkpt><trkpt lat="44.380373488687255" lon="9.609421466106351"><ele>678.0</ele><time>2026-04-19T13:51:21.941Z</time></trkpt><trkpt lat="44.380229237696575" lon="9.609323686383542"><ele>673.6666666666666</ele><time>2026-04-19T13:51:22.941Z</time></trkpt><trkpt lat="44.38009494028897" lon="9.609204515083503"><ele>669.3333333333333</ele><time>2026-04-19T13:51:23.941Z</time></trkpt><trkpt lat="44.37996610443797" lon="9.609063652914795"><ele>665.0</ele><time>2026-04-19T13:51:24.941Z</time></trkpt><trkpt lat="44.37983113315289" lon="9.608911343409519"><ele>665.0</ele><time>2026-04-19T13:51:25.941Z</time></trkpt><trkpt lat="44.37971062904978" lon="9.608782588790037"><ele>665.0</ele><time>2026-04-19T13:51:26.941Z</time></trkpt><trkpt lat="44.37962359616121" lon="9.608690988912555"><ele>665.0</ele><time>2026-04-19T13:51:27.941Z</time></trkpt><trkpt lat="44.37953965022973" lon="9.60863082500447"><ele>665.0</ele><time>2026-04-19T13:51:28.941Z</time></trkpt><trkpt lat="44.37944121473559" lon="9.608618416369316"><ele>662.5</ele><time>2026-04-19T13:51:29.941Z</time></trkpt><trkpt lat="44.379337671736515" lon="9.60866844417326"><ele>660.0</ele><time>2026-04-19T13:51:30.941Z</time></trkpt><trkpt lat="44.379252039865804" lon="9.608773817069666"><ele>657.5</ele><time>2026-04-19T13:51:31.941Z</time></trkpt><trkpt lat="44.37919366620323" lon="9.608930548588239"><ele>655.0</ele><time>2026-04-19T13:51:32.941Z</time></trkpt><trkpt lat="44.37917415490945" lon="9.609113532162157"><ele>655.0</ele><time>2026-04-19T13:51:33.941Z</time></trkpt><trkpt lat="44.37918844417578" lon="9.609273258884944"><ele>655.0</ele><time>2026-04-19T13:51:34.941Z</time></trkpt><trkpt lat="44.37917052908672" lon="9.60940059731165"><ele>655.0</ele><time>2026-04-19T13:51:35.941Z</time></trkpt><trkpt lat="44.37911994390436" lon="9.609489646528344"><ele>655.0</ele><time>2026-04-19T13:51:36.941Z</time></trkpt><trkpt lat="44.37901775362141" lon="9.609493072812741"><ele>655.0</ele><time>2026-04-19T13:51:37.941Z</time></trkpt><trkpt lat="44.37891595326491" lon="9.609432056033143"><ele>653.8</ele><time>2026-04-19T13:51:38.941Z</time></trkpt><trkpt lat="44.37883932909901" lon="9.60931755876966"><ele>652.6</ele><time>2026-04-19T13:51:39.941Z</time></trkpt><trkpt lat="44.378789781814305" lon="9.609174216884373"><ele>651.4000000000001</ele><time>2026-04-19T13:51:40.941Z</time></trkpt><trkpt lat="44.378708345388695" lon="9.609071325716688"><ele>650.2</ele><time>2026-04-19T13:51:41.941Z</time></trkpt><trkpt lat="44.37861224954435" lon="9.609005555805851"><ele>649.0</ele><time>2026-04-19T13:51:42.941Z</time></trkpt><trkpt lat="44.37850603435028" lon="9.608995038037131"><ele>649.0</ele><time>2026-04-19T13:51:43.941Z</time></trkpt><trkpt lat="44.378396760993574" lon="9.609006155436546"><ele>649.0</ele><time>2026-04-19T13:51:44.941Z</time></trkpt><trkpt lat="44.37829614000275" lon="9.608992529655094"><ele>649.0</ele><time>2026-04-19T13:51:45.941Z</time></trkpt><trkpt lat="44.378192033767355" lon="9.608923227361974"><ele>649.0</ele><time>2026-04-19T13:51:46.941Z</time></trkpt><trkpt lat="44.37812813785824" lon="9.608783862294342"><ele>649.0</ele><time>2026-04-19T13:51:47.941Z</time></trkpt><trkpt lat="44.37808068428047" lon="9.60860922199852"><ele>646.2</ele><time>2026-04-19T13:51:48.941Z</time></trkpt><trkpt lat="44.378041025629706" lon="9.608439712061028"><ele>643.4000000000001</ele><time>2026-04-19T13:51:49.941Z</time></trkpt><trkpt lat="44.37800272489467" lon="9.608300192219572"><ele>640.6</ele><time>2026-04-19T13:51:50.941Z</time></trkpt><trkpt lat="44.37795276972661" lon="9.60819715267499"><ele>637.8</ele><time>2026-04-19T13:51:51.941Z</time></trkpt><trkpt lat="44.377869204435314" lon="9.60813428855961"><ele>635.0</ele><time>2026-04-19T13:51:52.941Z</time></trkpt><trkpt lat="44.377779426670934" lon="9.608159930379168"><ele>634.6</ele><time>2026-04-19T13:51:53.941Z</time></trkpt><trkpt lat="44.377703244516475" lon="9.608245987489298"><ele>634.2</ele><time>2026-04-19T13:51:54.941Z</time></trkpt><trkpt lat="44.377630898805286" lon="9.608341934194216"><ele>633.8</ele><time>2026-04-19T13:51:55.941Z</time></trkpt><trkpt lat="44.377528421624774" lon="9.608409954404374"><ele>633.4</ele><time>2026-04-19T13:51:56.941Z</time></trkpt><trkpt lat="44.37741236374887" lon="9.60841614674483"><ele>633.0</ele><time>2026-04-19T13:51:57.941Z</time></trkpt><trkpt lat="44.3773029488009" lon="9.608366115590254"><ele>633.0</ele><time>2026-04-19T13:51:58.941Z</time></trkpt><trkpt lat="44.3771933636759" lon="9.608303544829823"><ele>633.0</ele><time>2026-04-19T13:51:59.941Z</time></trkpt><trkpt lat="44.3770855746432" lon="9.608272302862842"><ele>633.0</ele><time>2026-04-19T13:52:00.941Z</time></trkpt><trkpt lat="44.376977820721784" lon="9.608283990453312"><ele>633.0</ele><time>2026-04-19T13:52:01.941Z</time></trkpt><trkpt lat="44.37686874585369" lon="9.60833272247058"><ele>631.75</ele><time>2026-04-19T13:52:02.941Z</time></trkpt><trkpt lat="44.3767553872637" lon="9.608392879912742"><ele>630.5</ele><time>2026-04-19T13:52:03.941Z</time></trkpt><trkpt lat="44.376634393813006" lon="9.608441311724581"><ele>629.25</ele><time>2026-04-19T13:52:04.941Z</time></trkpt><trkpt lat="44.37652151382445" lon="9.608438611272138"><ele>628.0</ele><time>2026-04-19T13:52:05.939Z</time></trkpt><trkpt lat="44.376431399831986" lon="9.60837781141576"><ele>628.0</ele><time>2026-04-19T13:52:06.939Z</time></trkpt><trkpt lat="44.37636281109797" lon="9.608260579050361"><ele>628.0</ele><time>2026-04-19T13:52:07.939Z</time></trkpt><trkpt lat="44.37627709266873" lon="9.60810968671539"><ele>628.0</ele><time>2026-04-19T13:52:08.939Z</time></trkpt><trkpt lat="44.37616994842665" lon="9.607984608870314"><ele>628.0</ele><time>2026-04-19T13:52:09.939Z</time></trkpt><trkpt lat="44.376042009427465" lon="9.607889084515612"><ele>627.6666666666667</ele><time>2026-04-19T13:52:10.939Z</time></trkpt><trkpt lat="44.375886891034575" lon="9.607829849557245"><ele>627.3333333333334</ele><time>2026-04-19T13:52:11.939Z</time></trkpt><trkpt lat="44.3757263123469" lon="9.607761329354574"><ele>627.0</ele><time>2026-04-19T13:52:12.939Z</time></trkpt><trkpt lat="44.375574875047626" lon="9.607673106581899"><ele>624.0</ele><time>2026-04-19T13:52:13.939Z</time></trkpt><trkpt lat="44.37543817356315" lon="9.607571568097303"><ele>621.0</ele><time>2026-04-19T13:52:14.939Z</time></trkpt><trkpt lat="44.37532513559945" lon="9.607478224253297"><ele>618.0</ele><time>2026-04-19T13:52:15.939Z</time></trkpt><trkpt lat="44.37522210657712" lon="9.607404789986942"><ele>615.0</ele><time>2026-04-19T13:52:16.939Z</time></trkpt><trkpt lat="44.375119077972435" lon="9.607356456964137"><ele>615.0</ele><time>2026-04-19T13:52:17.938Z</time></trkpt><trkpt lat="44.37500764538742" lon="9.607371790598544"><ele>615.0</ele><time>2026-04-19T13:52:18.939Z</time></trkpt><trkpt lat="44.37490232640452" lon="9.607450717278853"><ele>615.0</ele><time>2026-04-19T13:52:19.939Z</time></trkpt><trkpt lat="44.374790102395544" lon="9.607565470673087"><ele>615.0</ele><time>2026-04-19T13:52:20.939Z</time></trkpt><trkpt lat="44.374671258893265" lon="9.607656357196445"><ele>612.5</ele><time>2026-04-19T13:52:21.939Z</time></trkpt><trkpt lat="44.37455433836329" lon="9.607679777778248"><ele>610.0</ele><time>2026-04-19T13:52:22.939Z</time></trkpt><trkpt lat="44.374425384551124" lon="9.607638979043662"><ele>607.5</ele><time>2026-04-19T13:52:23.939Z</time></trkpt><trkpt lat="44.37429200680386" lon="9.607585819370396"><ele>605.0</ele><time>2026-04-19T13:52:24.939Z</time></trkpt><trkpt lat="44.374172688060504" lon="9.60755811061411"><ele>605.0</ele><time>2026-04-19T13:52:25.939Z</time></trkpt><trkpt lat="44.37405399038033" lon="9.607604081852283"><ele>605.0</ele><time>2026-04-19T13:52:26.939Z</time></trkpt><trkpt lat="44.37394942376383" lon="9.607694479987147"><ele>605.0</ele><time>2026-04-19T13:52:27.939Z</time></trkpt><trkpt lat="44.37385913083688" lon="9.607855528003054"><ele>605.0</ele><time>2026-04-19T13:52:28.939Z</time></trkpt><trkpt lat="44.37376701560031" lon="9.60799450761467"><ele>605.0</ele><time>2026-04-19T13:52:29.939Z</time></trkpt><trkpt lat="44.37365758939815" lon="9.60812940932324"><ele>605.0</ele><time>2026-04-19T13:52:30.939Z</time></trkpt><trkpt lat="44.37353551065721" lon="9.608224314189194"><ele>605.0</ele><time>2026-04-19T13:52:31.939Z</time></trkpt><trkpt lat="44.37340309382905" lon="9.608277880374983"><ele>605.0</ele><time>2026-04-19T13:52:32.939Z</time></trkpt><trkpt lat="44.37326653164322" lon="9.60827390284362"><ele>605.0</ele><time>2026-04-19T13:52:33.939Z</time></trkpt><trkpt lat="44.37313348951202" lon="9.608204775344424"><ele>605.0</ele><time>2026-04-19T13:52:34.939Z</time></trkpt><trkpt lat="44.373008506120705" lon="9.608098280449115"><ele>605.0</ele><time>2026-04-19T13:52:35.939Z</time></trkpt><trkpt lat="44.3728835890653" lon="9.608022849308009"><ele>605.0</ele><time>2026-04-19T13:52:36.939Z</time></trkpt><trkpt lat="44.372756231341526" lon="9.607991139960797"><ele>604.0</ele><time>2026-04-19T13:52:37.939Z</time></trkpt><trkpt lat="44.37261173320222" lon="9.608010545365573"><ele>603.0</ele><time>2026-04-19T13:52:38.939Z</time></trkpt><trkpt lat="44.37247483049684" lon="9.60805461689857"><ele>602.0</ele><time>2026-04-19T13:52:39.939Z</time></trkpt><trkpt lat="44.37234896139863" lon="9.608095158607933"><ele>601.0</ele><time>2026-04-19T13:52:40.939Z</time></trkpt><trkpt lat="44.37222909916414" lon="9.608071859873988"><ele>602.0</ele><time>2026-04-19T13:52:41.939Z</time></trkpt><trkpt lat="44.37212977401613" lon="9.607996626383102"><ele>603.0</ele><time>2026-04-19T13:52:42.939Z</time></trkpt><trkpt lat="44.37207101515554" lon="9.607893647593512"><ele>604.0</ele><time>2026-04-19T13:52:43.939Z</time></trkpt><trkpt lat="44.37203496666094" lon="9.607810098421208"><ele>605.0</ele><time>2026-04-19T13:52:44.939Z</time></trkpt><trkpt lat="44.37201885951757" lon="9.607720257043509"><ele>606.0</ele><time>2026-04-19T13:52:45.939Z</time></trkpt><trkpt lat="44.372057432951976" lon="9.607618523525487"><ele>607.0</ele><time>2026-04-19T13:52:46.939Z</time></trkpt><trkpt lat="44.372140505925834" lon="9.60756164129423"><ele>602.6</ele><time>2026-04-19T13:52:47.939Z</time></trkpt><trkpt lat="44.372238608633296" lon="9.607580916768127"><ele>598.2</ele><time>2026-04-19T13:52:48.939Z</time></trkpt><trkpt lat="44.37233953055051" lon="9.607662415186015"><ele>593.8</ele><time>2026-04-19T13:52:49.939Z</time></trkpt><trkpt lat="44.37243823816751" lon="9.607734474580974"><ele>589.4</ele><time>2026-04-19T13:52:50.939Z</time></trkpt><trkpt lat="44.3725389653875" lon="9.607788416325128"><ele>585.0</ele><time>2026-04-19T13:52:51.939Z</time></trkpt><trkpt lat="44.37264154927352" lon="9.607788139199483"><ele>585.0</ele><time>2026-04-19T13:52:52.939Z</time></trkpt><trkpt lat="44.37274275480479" lon="9.607732719598316"><ele>585.0</ele><time>2026-04-19T13:52:53.939Z</time></trkpt><trkpt lat="44.37282918905388" lon="9.607595103614427"><ele>585.0</ele><time>2026-04-19T13:52:54.939Z</time></trkpt><trkpt lat="44.372901874887354" lon="9.607418042740875"><ele>585.0</ele><time>2026-04-19T13:52:55.939Z</time></trkpt><trkpt lat="44.37297833952008" lon="9.60723760547996"><ele>585.5</ele><time>2026-04-19T13:52:56.939Z</time></trkpt><trkpt lat="44.373029339314" lon="9.607076426032107"><ele>586.0</ele><time>2026-04-19T13:52:57.939Z</time></trkpt><trkpt lat="44.3730445473962" lon="9.6069142885012"><ele>586.5</ele><time>2026-04-19T13:52:58.939Z</time></trkpt><trkpt lat="44.37302121701213" lon="9.606740746171123"><ele>587.0</ele><time>2026-04-19T13:52:59.939Z</time></trkpt><trkpt lat="44.37295123990485" lon="9.606569876966587"><ele>583.25</ele><time>2026-04-19T13:53:00.939Z</time></trkpt><trkpt lat="44.37285694354113" lon="9.60639893420562"><ele>579.5</ele><time>2026-04-19T13:53:01.939Z</time></trkpt><trkpt lat="44.37277468309482" lon="9.606233975593858"><ele>575.75</ele><time>2026-04-19T13:53:02.939Z</time></trkpt><trkpt lat="44.37271707126667" lon="9.606092543567671"><ele>572.0</ele><time>2026-04-19T13:53:03.939Z</time></trkpt><trkpt lat="44.372694146048296" lon="9.605954003550485"><ele>570.5</ele><time>2026-04-19T13:53:04.939Z</time></trkpt><trkpt lat="44.37271721475668" lon="9.605814460610645"><ele>569.0</ele><time>2026-04-19T13:53:05.939Z</time></trkpt><trkpt lat="44.37279031531545" lon="9.605693703679751"><ele>567.5</ele><time>2026-04-19T13:53:06.939Z</time></trkpt><trkpt lat="44.372905819275616" lon="9.605634377233594"><ele>566.0</ele><time>2026-04-19T13:53:07.939Z</time></trkpt><trkpt lat="44.37302830818585" lon="9.605682080681241"><ele>566.0</ele><time>2026-04-19T13:53:08.939Z</time></trkpt><trkpt lat="44.37313539467166" lon="9.605794759950498"><ele>566.0</ele><time>2026-04-19T13:53:09.939Z</time></trkpt><trkpt lat="44.37320907539954" lon="9.60592034002691"><ele>566.0</ele><time>2026-04-19T13:53:10.939Z</time></trkpt><trkpt lat="44.37324721436611" lon="9.606081018741355"><ele>566.0</ele><time>2026-04-19T13:53:11.939Z</time></trkpt><trkpt lat="44.373258568438644" lon="9.6062576105349"><ele>567.8</ele><time>2026-04-19T13:53:12.939Z</time></trkpt><trkpt lat="44.373279082765094" lon="9.60641675785788"><ele>569.6</ele><time>2026-04-19T13:53:13.939Z</time></trkpt><trkpt lat="44.37333145949895" lon="9.606530112138561"><ele>571.4</ele><time>2026-04-19T13:53:14.939Z</time></trkpt><trkpt lat="44.37343020942112" lon="9.606602858566998"><ele>573.2</ele><time>2026-04-19T13:53:15.939Z</time></trkpt><trkpt lat="44.37353652636116" lon="9.606613861604062"><ele>575.0</ele><time>2026-04-19T13:53:16.939Z</time></trkpt><trkpt lat="44.3736548862308" lon="9.606587099986188"><ele>575.0</ele><time>2026-04-19T13:53:17.939Z</time></trkpt><trkpt lat="44.37376356064243" lon="9.606562593657326"><ele>575.0</ele><time>2026-04-19T13:53:18.939Z</time></trkpt><trkpt lat="44.37386833308506" lon="9.60652533185071"><ele>575.0</ele><time>2026-04-19T13:53:19.939Z</time></trkpt><trkpt lat="44.373962020687024" lon="9.606456963243602"><ele>575.0</ele><time>2026-04-19T13:53:20.939Z</time></trkpt><trkpt lat="44.374059766105695" lon="9.60631740789133"><ele>569.0</ele><time>2026-04-19T13:53:21.939Z</time></trkpt><trkpt lat="44.37417189683468" lon="9.606129681968913"><ele>563.0</ele><time>2026-04-19T13:53:22.939Z</time></trkpt><trkpt lat="44.37428710575723" lon="9.605941030796561"><ele>557.0</ele><time>2026-04-19T13:53:23.939Z</time></trkpt><trkpt lat="44.37441198681498" lon="9.605767840109692"><ele>557.0</ele><time>2026-04-19T13:53:24.939Z</time></trkpt><trkpt lat="44.37453136607421" lon="9.60560587274903"><ele>557.0</ele><time>2026-04-19T13:53:25.939Z</time></trkpt><trkpt lat="44.374646650160315" lon="9.605468159684788"><ele>557.0</ele><time>2026-04-19T13:53:26.939Z</time></trkpt><trkpt lat="44.37476937690627" lon="9.605353436862721"><ele>554.5</ele><time>2026-04-19T13:53:27.939Z</time></trkpt><trkpt lat="44.37490658719559" lon="9.60527974085331"><ele>552.0</ele><time>2026-04-19T13:53:28.939Z</time></trkpt><trkpt lat="44.3750566714321" lon="9.605237323549899"><ele>549.5</ele><time>2026-04-19T13:53:29.939Z</time></trkpt><trkpt lat="44.37519975971319" lon="9.605194129302445"><ele>547.0</ele><time>2026-04-19T13:53:30.939Z</time></trkpt><trkpt lat="44.37532398280658" lon="9.605145051052096"><ele>547.0</ele><time>2026-04-19T13:53:31.939Z</time></trkpt><trkpt lat="44.37541562774937" lon="9.60512164642682"><ele>547.0</ele><time>2026-04-19T13:53:32.939Z</time></trkpt><trkpt lat="44.37549756765306" lon="9.60517249368542"><ele>547.0</ele><time>2026-04-19T13:53:33.939Z</time></trkpt><trkpt lat="44.37556974495471" lon="9.60530384278911"><ele>547.0</ele><time>2026-04-19T13:53:34.939Z</time></trkpt><trkpt lat="44.37563431684327" lon="9.605404255771962"><ele>547.0</ele><time>2026-04-19T13:53:35.939Z</time></trkpt><trkpt lat="44.375698383708645" lon="9.605464712753733"><ele>547.5</ele><time>2026-04-19T13:53:36.939Z</time></trkpt><trkpt lat="44.37578879511358" lon="9.605452149014408"><ele>548.0</ele><time>2026-04-19T13:53:37.939Z</time></trkpt><trkpt lat="44.37590929466949" lon="9.605361227258095"><ele>548.5</ele><time>2026-04-19T13:53:38.939Z</time></trkpt><trkpt lat="44.37603145370113" lon="9.605244258545191"><ele>549.0</ele><time>2026-04-19T13:53:39.939Z</time></trkpt><trkpt lat="44.376148216335494" lon="9.605129298071649"><ele>549.0</ele><time>2026-04-19T13:53:40.939Z</time></trkpt><trkpt lat="44.37624507926177" lon="9.604988561836668"><ele>549.0</ele><time>2026-04-19T13:53:41.939Z</time></trkpt><trkpt lat="44.376325075217856" lon="9.604865230753795"><ele>549.0</ele><time>2026-04-19T13:53:42.939Z</time></trkpt><trkpt lat="44.37639488587567" lon="9.604762003867707"><ele>549.0</ele><time>2026-04-19T13:53:43.939Z</time></trkpt><trkpt lat="44.376487334102464" lon="9.604733627406738"><ele>549.25</ele><time>2026-04-19T13:53:44.939Z</time></trkpt><trkpt lat="44.37660046733525" lon="9.604769660755286"><ele>549.5</ele><time>2026-04-19T13:53:45.939Z</time></trkpt><trkpt lat="44.37672006227342" lon="9.604848244005245"><ele>549.75</ele><time>2026-04-19T13:53:46.939Z</time></trkpt><trkpt lat="44.37682989552171" lon="9.604923919165476"><ele>550.0</ele><time>2026-04-19T13:53:47.939Z</time></trkpt><trkpt lat="44.376911235582966" lon="9.60501182528847"><ele>550.0</ele><time>2026-04-19T13:53:48.939Z</time></trkpt><trkpt lat="44.37696914571758" lon="9.605141076401413"><ele>550.0</ele><time>2026-04-19T13:53:49.939Z</time></trkpt><trkpt lat="44.37701862389496" lon="9.605269632733558"><ele>550.0</ele><time>2026-04-19T13:53:50.939Z</time></trkpt><trkpt lat="44.37708257955399" lon="9.605351951641735"><ele>550.0</ele><time>2026-04-19T13:53:51.939Z</time></trkpt><trkpt lat="44.37715733990227" lon="9.605393695776728"><ele>550.0</ele><time>2026-04-19T13:53:52.939Z</time></trkpt><trkpt lat="44.377249489722594" lon="9.60535094085243"><ele>550.2</ele><time>2026-04-19T13:53:53.939Z</time></trkpt><trkpt lat="44.377328938584995" lon="9.605263383546433"><ele>550.4</ele><time>2026-04-19T13:53:54.939Z</time></trkpt><trkpt lat="44.37737331124939" lon="9.605134480984155"><ele>550.6</ele><time>2026-04-19T13:53:55.939Z</time></trkpt><trkpt lat="44.37737425681778" lon="9.604982450492786"><ele>550.8</ele><time>2026-04-19T13:53:56.939Z</time></trkpt><trkpt lat="44.37735129401053" lon="9.604857490191614"><ele>551.0</ele><time>2026-04-19T13:53:57.939Z</time></trkpt><trkpt lat="44.37732226562563" lon="9.604717274020976"><ele>551.0</ele><time>2026-04-19T13:53:58.939Z</time></trkpt><trkpt lat="44.377339099639016" lon="9.604588823391028"><ele>551.0</ele><time>2026-04-19T13:53:59.939Z</time></trkpt><trkpt lat="44.377415187006875" lon="9.604485339455673"><ele>551.0</ele><time>2026-04-19T13:54:00.939Z</time></trkpt><trkpt lat="44.37748747183298" lon="9.604375146789629"><ele>551.0</ele><time>2026-04-19T13:54:01.939Z</time></trkpt><trkpt lat="44.377509545083434" lon="9.604262895978637"><ele>551.0</ele><time>2026-04-19T13:54:02.939Z</time></trkpt><trkpt lat="44.37747703097337" lon="9.604125914007362"><ele>548.25</ele><time>2026-04-19T13:54:03.939Z</time></trkpt><trkpt lat="44.37744174678658" lon="9.60398224110325"><ele>545.5</ele><time>2026-04-19T13:54:04.939Z</time></trkpt><trkpt lat="44.37744518527133" lon="9.60384102351542"><ele>542.75</ele><time>2026-04-19T13:54:05.939Z</time></trkpt><trkpt lat="44.37749758264615" lon="9.603694414094633"><ele>540.0</ele><time>2026-04-19T13:54:06.939Z</time></trkpt><trkpt lat="44.37757912332436" lon="9.603563567252193"><ele>540.8</ele><time>2026-04-19T13:54:07.939Z</time></trkpt><trkpt lat="44.37766563299845" lon="9.603451755517261"><ele>541.6</ele><time>2026-04-19T13:54:08.939Z</time></trkpt><trkpt lat="44.37774923406149" lon="9.603363328512593"><ele>542.4</ele><time>2026-04-19T13:54:09.939Z</time></trkpt><trkpt lat="44.377849123018166" lon="9.603330925326174"><ele>543.2</ele><time>2026-04-19T13:54:10.939Z</time></trkpt><trkpt lat="44.37794536891821" lon="9.603357850176108"><ele>544.0</ele><time>2026-04-19T13:54:11.938Z</time></trkpt><trkpt lat="44.37803818107161" lon="9.603413796343272"><ele>544.0</ele><time>2026-04-19T13:54:12.938Z</time></trkpt><trkpt lat="44.37811720946532" lon="9.603408271695255"><ele>544.0</ele><time>2026-04-19T13:54:13.938Z</time></trkpt><trkpt lat="44.378173560776965" lon="9.603303411712291"><ele>544.0</ele><time>2026-04-19T13:54:14.938Z</time></trkpt><trkpt lat="44.37820201185122" lon="9.603153465655131"><ele>544.0</ele><time>2026-04-19T13:54:15.938Z</time></trkpt><trkpt lat="44.37820615276831" lon="9.60299422296828"><ele>544.0</ele><time>2026-04-19T13:54:16.938Z</time></trkpt><trkpt lat="44.37818687010131" lon="9.602834240144619"><ele>539.75</ele><time>2026-04-19T13:54:17.938Z</time></trkpt><trkpt lat="44.37818033185518" lon="9.602674699918932"><ele>535.5</ele><time>2026-04-19T13:54:18.938Z</time></trkpt><trkpt lat="44.37822131599126" lon="9.60251336764759"><ele>531.25</ele><time>2026-04-19T13:54:19.938Z</time></trkpt><trkpt lat="44.378304506104755" lon="9.602360359769603"><ele>527.0</ele><time>2026-04-19T13:54:20.938Z</time></trkpt><trkpt lat="44.37839472027798" lon="9.602237863784612"><ele>527.0</ele><time>2026-04-19T13:54:21.938Z</time></trkpt><trkpt lat="44.378514709871816" lon="9.602184752364893"><ele>527.0</ele><time>2026-04-19T13:54:22.938Z</time></trkpt><trkpt lat="44.37864933383687" lon="9.602172373500073"><ele>527.0</ele><time>2026-04-19T13:54:23.937Z</time></trkpt><trkpt lat="44.37878750527103" lon="9.6021437047415"><ele>527.0</ele><time>2026-04-19T13:54:24.937Z</time></trkpt><trkpt lat="44.378921348493314" lon="9.602109674790821"><ele>527.5</ele><time>2026-04-19T13:54:25.937Z</time></trkpt><trkpt lat="44.3790533426413" lon="9.60207232916512"><ele>528.0</ele><time>2026-04-19T13:54:26.937Z</time></trkpt><trkpt lat="44.379181917670884" lon="9.60202484931625"><ele>528.5</ele><time>2026-04-19T13:54:27.937Z</time></trkpt><trkpt lat="44.37929911582874" lon="9.602011170056382"><ele>529.0</ele><time>2026-04-19T13:54:28.937Z</time></trkpt><trkpt lat="44.37941047041549" lon="9.602060297163037"><ele>529.0</ele><time>2026-04-19T13:54:29.937Z</time></trkpt><trkpt lat="44.37951994321666" lon="9.60217404117919"><ele>529.0</ele><time>2026-04-19T13:54:30.937Z</time></trkpt><trkpt lat="44.379632811845084" lon="9.602338440818372"><ele>529.0</ele><time>2026-04-19T13:54:31.937Z</time></trkpt><trkpt lat="44.37973000916712" lon="9.602490994651552"><ele>529.0</ele><time>2026-04-19T13:54:32.937Z</time></trkpt><trkpt lat="44.37981575167024" lon="9.602606019595148"><ele>529.5</ele><time>2026-04-19T13:54:33.937Z</time></trkpt><trkpt lat="44.379931568625416" lon="9.602695002270611"><ele>530.0</ele><time>2026-04-19T13:54:34.938Z</time></trkpt><trkpt lat="44.38005262760661" lon="9.602741422193471"><ele>530.5</ele><time>2026-04-19T13:54:35.938Z</time></trkpt><trkpt lat="44.38015647124539" lon="9.602801326304363"><ele>531.0</ele><time>2026-04-19T13:54:36.938Z</time></trkpt><trkpt lat="44.38022242566639" lon="9.602927288431411"><ele>531.0</ele><time>2026-04-19T13:54:37.938Z</time></trkpt><trkpt lat="44.380270920435294" lon="9.603081870768804"><ele>531.0</ele><time>2026-04-19T13:54:38.938Z</time></trkpt><trkpt lat="44.3803049517607" lon="9.603251328617453"><ele>531.0</ele><time>2026-04-19T13:54:39.938Z</time></trkpt><trkpt lat="44.38033532965107" lon="9.603404944442392"><ele>531.0</ele><time>2026-04-19T13:54:40.938Z</time></trkpt><trkpt lat="44.38038885750637" lon="9.603498475593717"><ele>531.0</ele><time>2026-04-19T13:54:41.938Z</time></trkpt><trkpt lat="44.38045514430327" lon="9.60355536323896"><ele>526.8</ele><time>2026-04-19T13:54:42.938Z</time></trkpt><trkpt lat="44.380538944296234" lon="9.603555696904444"><ele>522.6</ele><time>2026-04-19T13:54:43.938Z</time></trkpt><trkpt lat="44.38065224331467" lon="9.603500533277149"><ele>518.4</ele><time>2026-04-19T13:54:44.938Z</time></trkpt><trkpt lat="44.38075762416354" lon="9.60341925880702"><ele>514.2</ele><time>2026-04-19T13:54:45.938Z</time></trkpt><trkpt lat="44.380859587988446" lon="9.603326921791142"><ele>510.0</ele><time>2026-04-19T13:54:46.938Z</time></trkpt><trkpt lat="44.38096265637726" lon="9.603205796954047"><ele>510.0</ele><time>2026-04-19T13:54:47.938Z</time></trkpt><trkpt lat="44.38106832137204" lon="9.60307772519353"><ele>510.0</ele><time>2026-04-19T13:54:48.938Z</time></trkpt><trkpt lat="44.38115621524629" lon="9.602921657598499"><ele>510.0</ele><time>2026-04-19T13:54:49.938Z</time></trkpt><trkpt lat="44.38122324749615" lon="9.602731551928207"><ele>510.0</ele><time>2026-04-19T13:54:50.938Z</time></trkpt><trkpt lat="44.38129185760935" lon="9.602565169189619"><ele>509.0</ele><time>2026-04-19T13:54:51.938Z</time></trkpt><trkpt lat="44.381343265114204" lon="9.602386240296637"><ele>508.0</ele><time>2026-04-19T13:54:52.938Z</time></trkpt><trkpt lat="44.38137205532627" lon="9.602197898398176"><ele>507.0</ele><time>2026-04-19T13:54:53.938Z</time></trkpt><trkpt lat="44.381376536557255" lon="9.602003954025651"><ele>506.0</ele><time>2026-04-19T13:54:54.938Z</time></trkpt><trkpt lat="44.381370513729664" lon="9.601806731707699"><ele>504.5</ele><time>2026-04-19T13:54:55.938Z</time></trkpt><trkpt lat="44.381366587174135" lon="9.60160449047383"><ele>503.0</ele><time>2026-04-19T13:54:56.938Z</time></trkpt><trkpt lat="44.38135568322175" lon="9.601403398557588"><ele>501.5</ele><time>2026-04-19T13:54:57.938Z</time></trkpt><trkpt lat="44.381333977827275" lon="9.601208832405986"><ele>500.0</ele><time>2026-04-19T13:54:58.938Z</time></trkpt><trkpt lat="44.38130111810051" lon="9.601029470279894"><ele>492.0</ele><time>2026-04-19T13:54:59.938Z</time></trkpt><trkpt lat="44.38124482573478" lon="9.600861733513883"><ele>484.0</ele><time>2026-04-19T13:55:00.938Z</time></trkpt><trkpt lat="44.381188916033324" lon="9.600700592843003"><ele>476.0</ele><time>2026-04-19T13:55:01.938Z</time></trkpt><trkpt lat="44.38114240190006" lon="9.600551961674318"><ele>468.0</ele><time>2026-04-19T13:55:02.938Z</time></trkpt><trkpt lat="44.381111711261845" lon="9.600420419760495"><ele>466.2</ele><time>2026-04-19T13:55:03.938Z</time></trkpt><trkpt lat="44.38112241878789" lon="9.600285443467703"><ele>464.4</ele><time>2026-04-19T13:55:04.938Z</time></trkpt><trkpt lat="44.381173094906664" lon="9.600183753361096"><ele>462.59999999999997</ele><time>2026-04-19T13:55:05.938Z</time></trkpt><trkpt lat="44.381243220851715" lon="9.600105865107134"><ele>460.79999999999995</ele><time>2026-04-19T13:55:06.938Z</time></trkpt><trkpt lat="44.381324855546275" lon="9.600094488947432"><ele>459.0</ele><time>2026-04-19T13:55:07.938Z</time></trkpt><trkpt lat="44.381430156144155" lon="9.60011407624822"><ele>463.5</ele><time>2026-04-19T13:55:08.938Z</time></trkpt><trkpt lat="44.381556169723375" lon="9.600152983145469"><ele>468.0</ele><time>2026-04-19T13:55:09.938Z</time></trkpt><trkpt lat="44.38169433302522" lon="9.600182953763625"><ele>472.5</ele><time>2026-04-19T13:55:10.938Z</time></trkpt><trkpt lat="44.38184430240823" lon="9.600208669091474"><ele>477.0</ele><time>2026-04-19T13:55:11.938Z</time></trkpt><trkpt lat="44.38198509150954" lon="9.600249720921074"><ele>477.0</ele><time>2026-04-19T13:55:12.938Z</time></trkpt><trkpt lat="44.38211708191408" lon="9.6003101486069"><ele>477.0</ele><time>2026-04-19T13:55:13.938Z</time></trkpt><trkpt lat="44.38224001324056" lon="9.600375821042508"><ele>477.0</ele><time>2026-04-19T13:55:14.938Z</time></trkpt><trkpt lat="44.3823424381045" lon="9.600446000146993"><ele>477.0</ele><time>2026-04-19T13:55:15.938Z</time></trkpt><trkpt lat="44.38243266895847" lon="9.600506409668338"><ele>478.3333333333333</ele><time>2026-04-19T13:55:16.938Z</time></trkpt><trkpt lat="44.38251746669056" lon="9.600550668388554"><ele>479.66666666666663</ele><time>2026-04-19T13:55:17.938Z</time></trkpt><trkpt lat="44.38260445931675" lon="9.6005607036137"><ele>481.0</ele><time>2026-04-19T13:55:18.938Z</time></trkpt><trkpt lat="44.3826809540224" lon="9.600524782890542"><ele>482.3333333333333</ele><time>2026-04-19T13:55:19.938Z</time></trkpt><trkpt lat="44.38273599372867" lon="9.600433661857297"><ele>483.66666666666663</ele><time>2026-04-19T13:55:20.938Z</time></trkpt><trkpt lat="44.38274896090671" lon="9.600318066783196"><ele>485.0</ele><time>2026-04-19T13:55:21.938Z</time></trkpt><trkpt lat="44.382722500325336" lon="9.600202825431813"><ele>481.4</ele><time>2026-04-19T13:55:22.938Z</time></trkpt><trkpt lat="44.38267069111982" lon="9.600107780748909"><ele>477.8</ele><time>2026-04-19T13:55:23.938Z</time></trkpt><trkpt lat="44.38259111627171" lon="9.600051555792245"><ele>474.20000000000005</ele><time>2026-04-19T13:55:24.938Z</time></trkpt><trkpt lat="44.38248913586672" lon="9.60005286632159"><ele>470.6</ele><time>2026-04-19T13:55:25.938Z</time></trkpt><trkpt lat="44.38238495340058" lon="9.600069984907874"><ele>467.0</ele><time>2026-04-19T13:55:26.938Z</time></trkpt><trkpt lat="44.382272643600004" lon="9.600055107047247"><ele>469.0</ele><time>2026-04-19T13:55:27.938Z</time></trkpt><trkpt lat="44.38215563042128" lon="9.600008122341514"><ele>471.00000000000006</ele><time>2026-04-19T13:55:28.938Z</time></trkpt><trkpt lat="44.382052861926915" lon="9.599943710001666"><ele>473.00000000000006</ele><time>2026-04-19T13:55:29.938Z</time></trkpt><trkpt lat="44.3819632251237" lon="9.599879407359706"><ele>475.0</ele><time>2026-04-19T13:55:30.938Z</time></trkpt><trkpt lat="44.381892440231766" lon="9.599809768977018"><ele>477.0</ele><time>2026-04-19T13:55:31.938Z</time></trkpt><trkpt lat="44.3818462203008" lon="9.599722205204236"><ele>477.0</ele><time>2026-04-19T13:55:32.938Z</time></trkpt><trkpt lat="44.38183955532719" lon="9.599611136279512"><ele>477.00000000000006</ele><time>2026-04-19T13:55:33.938Z</time></trkpt><trkpt lat="44.381870641553405" lon="9.59950456997471"><ele>477.00000000000006</ele><time>2026-04-19T13:55:34.938Z</time></trkpt><trkpt lat="44.38193800891512" lon="9.599433279899053"><ele>477.0</ele><time>2026-04-19T13:55:35.938Z</time></trkpt><trkpt lat="44.382030623161484" lon="9.59940440407504"><ele>477.0</ele><time>2026-04-19T13:55:36.938Z</time></trkpt><trkpt lat="44.382147745486236" lon="9.59941349371133"><ele>471.25</ele><time>2026-04-19T13:55:37.938Z</time></trkpt><trkpt lat="44.382281711581626" lon="9.599433684047371"><ele>465.5</ele><time>2026-04-19T13:55:38.938Z</time></trkpt><trkpt lat="44.38241976018284" lon="9.599455937213158"><ele>459.75</ele><time>2026-04-19T13:55:39.938Z</time></trkpt><trkpt lat="44.38257414239543" lon="9.599472331237047"><ele>454.0</ele><time>2026-04-19T13:55:40.938Z</time></trkpt><trkpt lat="44.38271807066778" lon="9.599486681688928"><ele>456.5</ele><time>2026-04-19T13:55:41.938Z</time></trkpt><trkpt lat="44.38284994712497" lon="9.599510334237182"><ele>459.0</ele><time>2026-04-19T13:55:42.938Z</time></trkpt><trkpt lat="44.38297588894541" lon="9.599566356927602"><ele>461.5</ele><time>2026-04-19T13:55:43.938Z</time></trkpt><trkpt lat="44.38310330578189" lon="9.599654025979545"><ele>464.0</ele><time>2026-04-19T13:55:44.938Z</time></trkpt><trkpt lat="44.3832206831076" lon="9.59977208056566"><ele>464.0</ele><time>2026-04-19T13:55:45.938Z</time></trkpt><trkpt lat="44.38333993662857" lon="9.599899012546324"><ele>464.0</ele><time>2026-04-19T13:55:46.938Z</time></trkpt><trkpt lat="44.383461774705566" lon="9.60004059692579"><ele>464.0</ele><time>2026-04-19T13:55:47.938Z</time></trkpt><trkpt lat="44.38358643612446" lon="9.600185359649116"><ele>464.0</ele><time>2026-04-19T13:55:48.938Z</time></trkpt><trkpt lat="44.38370429096545" lon="9.600324191144466"><ele>464.0</ele><time>2026-04-19T13:55:49.938Z</time></trkpt><trkpt lat="44.38382011888037" lon="9.600455139538903"><ele>464.0</ele><time>2026-04-19T13:55:50.938Z</time></trkpt><trkpt lat="44.38393295586903" lon="9.600568068120355"><ele>464.0</ele><time>2026-04-19T13:55:51.938Z</time></trkpt><trkpt lat="44.38404598812297" lon="9.600668965678633"><ele>465.0</ele><time>2026-04-19T13:55:52.938Z</time></trkpt><trkpt lat="44.38415095772375" lon="9.600750368710742"><ele>466.0</ele><time>2026-04-19T13:55:53.938Z</time></trkpt><trkpt lat="44.384247202195155" lon="9.600812839936482"><ele>467.0</ele><time>2026-04-19T13:55:54.938Z</time></trkpt><trkpt lat="44.38433921488462" lon="9.600850884350626"><ele>468.0</ele><time>2026-04-19T13:55:55.938Z</time></trkpt><trkpt lat="44.384420343335655" lon="9.60084844595306"><ele>469.0</ele><time>2026-04-19T13:55:56.938Z</time></trkpt><trkpt lat="44.38450979403005" lon="9.600787642689378"><ele>469.0</ele><time>2026-04-19T13:55:57.938Z</time></trkpt><trkpt lat="44.38459932188285" lon="9.600682239407453"><ele>469.0</ele><time>2026-04-19T13:55:58.938Z</time></trkpt><trkpt lat="44.38470134647606" lon="9.600556183645326"><ele>469.0</ele><time>2026-04-19T13:55:59.938Z</time></trkpt><trkpt lat="44.3848113344134" lon="9.600433888712464"><ele>469.0</ele><time>2026-04-19T13:56:00.938Z</time></trkpt><trkpt lat="44.38494269206196" lon="9.600339295694212"><ele>461.25</ele><time>2026-04-19T13:56:01.938Z</time></trkpt><trkpt lat="44.38507554844641" lon="9.600267150408426"><ele>453.5</ele><time>2026-04-19T13:56:02.938Z</time></trkpt><trkpt lat="44.385220805794006" lon="9.600213879174651"><ele>445.75</ele><time>2026-04-19T13:56:03.938Z</time></trkpt><trkpt lat="44.38537018805511" lon="9.600176659378448"><ele>438.0</ele><time>2026-04-19T13:56:04.938Z</time></trkpt><trkpt lat="44.38552511672999" lon="9.600156006053018"><ele>437.75</ele><time>2026-04-19T13:56:05.938Z</time></trkpt><trkpt lat="44.385666100164954" lon="9.600130538753206"><ele>437.5</ele><time>2026-04-19T13:56:06.938Z</time></trkpt><trkpt lat="44.38579173659088" lon="9.600125976364147"><ele>437.25</ele><time>2026-04-19T13:56:07.938Z</time></trkpt><trkpt lat="44.38590516422817" lon="9.600170664138565"><ele>437.0</ele><time>2026-04-19T13:56:08.938Z</time></trkpt><trkpt lat="44.38600494876843" lon="9.600246848533718"><ele>444.25</ele><time>2026-04-19T13:56:09.938Z</time></trkpt><trkpt lat="44.38608102365138" lon="9.600358558114802"><ele>451.5</ele><time>2026-04-19T13:56:10.938Z</time></trkpt><trkpt lat="44.38614166241415" lon="9.60051059402799"><ele>458.75</ele><time>2026-04-19T13:56:11.938Z</time></trkpt><trkpt lat="44.386192258397394" lon="9.600682212607609"><ele>466.0</ele><time>2026-04-19T13:56:12.938Z</time></trkpt><trkpt lat="44.38624797337861" lon="9.600853142944004"><ele>466.0</ele><time>2026-04-19T13:56:13.938Z</time></trkpt><trkpt lat="44.38630768415331" lon="9.601004680546902"><ele>466.0</ele><time>2026-04-19T13:56:14.938Z</time></trkpt><trkpt lat="44.38638171726277" lon="9.601128008007601"><ele>466.0</ele><time>2026-04-19T13:56:15.938Z</time></trkpt><trkpt lat="44.3864812506071" lon="9.601223612693508"><ele>466.0</ele><time>2026-04-19T13:56:16.938Z</time></trkpt><trkpt lat="44.38660137167664" lon="9.601301683461868"><ele>463.8</ele><time>2026-04-19T13:56:17.936Z</time></trkpt><trkpt lat="44.38672187747671" lon="9.60136466356763"><ele>461.6</ele><time>2026-04-19T13:56:18.937Z</time></trkpt><trkpt lat="44.38681902078203" lon="9.601414500052444"><ele>459.4</ele><time>2026-04-19T13:56:19.937Z</time></trkpt><trkpt lat="44.38690047702045" lon="9.601444716552786"><ele>457.2</ele><time>2026-04-19T13:56:20.937Z</time></trkpt><trkpt lat="44.38697486598226" lon="9.601419977389094"><ele>455.0</ele><time>2026-04-19T13:56:21.937Z</time></trkpt><trkpt lat="44.38702281753909" lon="9.601340758027494"><ele>454.99999999999994</ele><time>2026-04-19T13:56:22.937Z</time></trkpt><trkpt lat="44.38701585667453" lon="9.601233974424614"><ele>455.0</ele><time>2026-04-19T13:56:23.937Z</time></trkpt><trkpt lat="44.38696307830009" lon="9.601134814953294"><ele>455.0</ele><time>2026-04-19T13:56:24.937Z</time></trkpt><trkpt lat="44.38688704924794" lon="9.6010545008991"><ele>455.0</ele><time>2026-04-19T13:56:25.937Z</time></trkpt><trkpt lat="44.386794036021335" lon="9.601027744449702"><ele>454.99999999999994</ele><time>2026-04-19T13:56:26.936Z</time></trkpt><trkpt lat="44.38670388395096" lon="9.601028650774435"><ele>455.0</ele><time>2026-04-19T13:56:27.937Z</time></trkpt><trkpt lat="44.38662231155361" lon="9.601019046356509"><ele>451.2</ele><time>2026-04-19T13:56:28.937Z</time></trkpt><trkpt lat="44.386540923397725" lon="9.600956258508514"><ele>447.4</ele><time>2026-04-19T13:56:29.937Z</time></trkpt><trkpt lat="44.38647760718303" lon="9.600847916344835"><ele>443.6</ele><time>2026-04-19T13:56:30.936Z</time></trkpt><trkpt lat="44.38644192358899" lon="9.600713469443505"><ele>439.8</ele><time>2026-04-19T13:56:31.936Z</time></trkpt><trkpt lat="44.386428616787505" lon="9.600564458849702"><ele>436.0</ele><time>2026-04-19T13:56:32.936Z</time></trkpt><trkpt lat="44.38641506810806" lon="9.600393292576383"><ele>436.25</ele><time>2026-04-19T13:56:33.936Z</time></trkpt><trkpt lat="44.386382100522404" lon="9.600221502300574"><ele>436.5</ele><time>2026-04-19T13:56:34.936Z</time></trkpt><trkpt lat="44.38633522002936" lon="9.600048712858516"><ele>436.75</ele><time>2026-04-19T13:56:35.936Z</time></trkpt><trkpt lat="44.38628980983167" lon="9.599892143962876"><ele>437.0</ele><time>2026-04-19T13:56:36.936Z</time></trkpt><trkpt lat="44.38623573742634" lon="9.599767282387937"><ele>437.0</ele><time>2026-04-19T13:56:37.936Z</time></trkpt><trkpt lat="44.38615984580824" lon="9.5996666161228"><ele>437.00000000000006</ele><time>2026-04-19T13:56:38.936Z</time></trkpt><trkpt lat="44.38605841281417" lon="9.599596844393245"><ele>437.00000000000006</ele><time>2026-04-19T13:56:39.936Z</time></trkpt><trkpt lat="44.38594997060563" lon="9.59954793281344"><ele>437.0</ele><time>2026-04-19T13:56:40.936Z</time></trkpt><trkpt lat="44.38584267644015" lon="9.599521572956625"><ele>437.0</ele><time>2026-04-19T13:56:41.936Z</time></trkpt><trkpt lat="44.38573195774783" lon="9.599524654165027"><ele>437.0</ele><time>2026-04-19T13:56:42.936Z</time></trkpt><trkpt lat="44.385628683280665" lon="9.599548060689546"><ele>437.00000000000006</ele><time>2026-04-19T13:56:43.936Z</time></trkpt><trkpt lat="44.38552728451924" lon="9.599588827853394"><ele>437.00000000000006</ele><time>2026-04-19T13:56:44.936Z</time></trkpt><trkpt lat="44.385422891924584" lon="9.59963554519225"><ele>437.0</ele><time>2026-04-19T13:56:45.936Z</time></trkpt><trkpt lat="44.38533230164069" lon="9.599679455193515"><ele>437.0</ele><time>2026-04-19T13:56:46.936Z</time></trkpt><trkpt lat="44.38524476649679" lon="9.599714688348836"><ele>437.16666666666663</ele><time>2026-04-19T13:56:47.936Z</time></trkpt><trkpt lat="44.38515993793535" lon="9.599728278330167"><ele>437.3333333333333</ele><time>2026-04-19T13:56:48.936Z</time></trkpt><trkpt lat="44.38508505058464" lon="9.599701756998039"><ele>437.5</ele><time>2026-04-19T13:56:49.936Z</time></trkpt><trkpt lat="44.38502160876473" lon="9.599632814805592"><ele>437.66666666666663</ele><time>2026-04-19T13:56:50.936Z</time></trkpt><trkpt lat="44.384967431030105" lon="9.599524454455555"><ele>437.8333333333333</ele><time>2026-04-19T13:56:51.936Z</time></trkpt><trkpt lat="44.38490979817757" lon="9.599421163622367"><ele>438.0</ele><time>2026-04-19T13:56:52.936Z</time></trkpt><trkpt lat="44.38485498952611" lon="9.599315170236203"><ele>435.79999999999995</ele><time>2026-04-19T13:56:53.936Z</time></trkpt><trkpt lat="44.38479609519427" lon="9.599202156830541"><ele>433.59999999999997</ele><time>2026-04-19T13:56:54.936Z</time></trkpt><trkpt lat="44.38472861983618" lon="9.599102573636053"><ele>431.40000000000003</ele><time>2026-04-19T13:56:55.936Z</time></trkpt><trkpt lat="44.38466178608781" lon="9.599011507567292"><ele>429.20000000000005</ele><time>2026-04-19T13:56:56.936Z</time></trkpt><trkpt lat="44.384592601043856" lon="9.598915924993985"><ele>427.0</ele><time>2026-04-19T13:56:57.936Z</time></trkpt><trkpt lat="44.38452244638598" lon="9.598826884848185"><ele>427.00000000000006</ele><time>2026-04-19T13:56:58.936Z</time></trkpt><trkpt lat="44.38445114551933" lon="9.59873732054717"><ele>427.0</ele><time>2026-04-19T13:56:59.936Z</time></trkpt><trkpt lat="44.38438822108765" lon="9.598663311667178"><ele>427.0</ele><time>2026-04-19T13:57:00.936Z</time></trkpt><trkpt lat="44.384322946485426" lon="9.598589453018104"><ele>427.0</ele><time>2026-04-19T13:57:01.936Z</time></trkpt><trkpt lat="44.3842595814663" lon="9.598519202979638"><ele>427.00000000000006</ele><time>2026-04-19T13:57:02.936Z</time></trkpt><trkpt lat="44.384204903190536" lon="9.598432725554575"><ele>427.0</ele><time>2026-04-19T13:57:03.936Z</time></trkpt><trkpt lat="44.38414055596233" lon="9.598344909962469"><ele>426.0</ele><time>2026-04-19T13:57:04.936Z</time></trkpt><trkpt lat="44.384069281590456" lon="9.598267763943717"><ele>425.00000000000006</ele><time>2026-04-19T13:57:05.936Z</time></trkpt><trkpt lat="44.38398670362127" lon="9.59819699867352"><ele>424.0</ele><time>2026-04-19T13:57:06.936Z</time></trkpt><trkpt lat="44.38389867083813" lon="9.598128481083277"><ele>423.0</ele><time>2026-04-19T13:57:07.936Z</time></trkpt><trkpt lat="44.38380298093454" lon="9.598070386307796"><ele>422.0</ele><time>2026-04-19T13:57:08.936Z</time></trkpt><trkpt lat="44.383698797482" lon="9.598015177258516"><ele>422.0</ele><time>2026-04-19T13:57:09.936Z</time></trkpt><trkpt lat="44.38359769614315" lon="9.597960476727392"><ele>422.0</ele><time>2026-04-19T13:57:10.936Z</time></trkpt><trkpt lat="44.38349534820147" lon="9.59790792793919"><ele>422.0</ele><time>2026-04-19T13:57:11.936Z</time></trkpt><trkpt lat="44.3833941603769" lon="9.597847028403535"><ele>422.0</ele><time>2026-04-19T13:57:12.936Z</time></trkpt><trkpt lat="44.38330846067007" lon="9.597775675132382"><ele>422.0</ele><time>2026-04-19T13:57:13.936Z</time></trkpt><trkpt lat="44.38321795732733" lon="9.597698173966418"><ele>419.8</ele><time>2026-04-19T13:57:14.936Z</time></trkpt><trkpt lat="44.38312683648453" lon="9.597619700636557"><ele>417.6</ele><time>2026-04-19T13:57:15.936Z</time></trkpt><trkpt lat="44.38304231727435" lon="9.597529340845272"><ele>415.40000000000003</ele><time>2026-04-19T13:57:16.936Z</time></trkpt><trkpt lat="44.38296072600395" lon="9.59741602057817"><ele>413.20000000000005</ele><time>2026-04-19T13:57:17.936Z</time></trkpt><trkpt lat="44.38288006927114" lon="9.597297353816742"><ele>411.0</ele><time>2026-04-19T13:57:18.936Z</time></trkpt><trkpt lat="44.38279366680349" lon="9.597164378027076"><ele>411.0</ele><time>2026-04-19T13:57:19.937Z</time></trkpt><trkpt lat="44.38269691810114" lon="9.597036335979631"><ele>411.0</ele><time>2026-04-19T13:57:20.937Z</time></trkpt><trkpt lat="44.38259812176586" lon="9.596916809426961"><ele>411.0</ele><time>2026-04-19T13:57:21.937Z</time></trkpt><trkpt lat="44.38249224957777" lon="9.596812071456805"><ele>411.0</ele><time>2026-04-19T13:57:22.937Z</time></trkpt><trkpt lat="44.38238344939399" lon="9.596723030165537"><ele>405.0</ele><time>2026-04-19T13:57:23.937Z</time></trkpt><trkpt lat="44.38226062572002" lon="9.596662041562121"><ele>399.0</ele><time>2026-04-19T13:57:24.937Z</time></trkpt><trkpt lat="44.38213548237222" lon="9.596596665536536"><ele>393.0</ele><time>2026-04-19T13:57:25.937Z</time></trkpt><trkpt lat="44.38201018666244" lon="9.596524313599865"><ele>387.0</ele><time>2026-04-19T13:57:26.937Z</time></trkpt><trkpt lat="44.38188453584898" lon="9.596454283295534"><ele>387.0</ele><time>2026-04-19T13:57:27.937Z</time></trkpt><trkpt lat="44.381756817431295" lon="9.596399596911791"><ele>387.0</ele><time>2026-04-19T13:57:28.937Z</time></trkpt><trkpt lat="44.381631849610834" lon="9.596367539742902"><ele>387.0</ele><time>2026-04-19T13:57:29.937Z</time></trkpt><trkpt lat="44.381494404688" lon="9.596354414413437"><ele>387.0</ele><time>2026-04-19T13:57:30.937Z</time></trkpt><trkpt lat="44.381366577394914" lon="9.596357088719792"><ele>386.75</ele><time>2026-04-19T13:57:31.937Z</time></trkpt><trkpt lat="44.381230641541606" lon="9.5963473600561"><ele>386.5</ele><time>2026-04-19T13:57:32.937Z</time></trkpt><trkpt lat="44.381091232837505" lon="9.596344375471293"><ele>386.25</ele><time>2026-04-19T13:57:33.937Z</time></trkpt><trkpt lat="44.38096271263952" lon="9.596342590491275"><ele>386.0</ele><time>2026-04-19T13:57:34.937Z</time></trkpt><trkpt lat="44.380841747074385" lon="9.596338060423353"><ele>386.0</ele><time>2026-04-19T13:57:35.937Z</time></trkpt><trkpt lat="44.380720707745795" lon="9.596348161357861"><ele>386.0</ele><time>2026-04-19T13:57:36.937Z</time></trkpt><trkpt lat="44.380588859366085" lon="9.596364034782166"><ele>386.0</ele><time>2026-04-19T13:57:37.937Z</time></trkpt><trkpt lat="44.38044462654275" lon="9.596399370410829"><ele>386.0</ele><time>2026-04-19T13:57:38.937Z</time></trkpt><trkpt lat="44.3803068947023" lon="9.596439495056014"><ele>386.25</ele><time>2026-04-19T13:57:39.937Z</time></trkpt><trkpt lat="44.38017299080426" lon="9.59647600030103"><ele>386.5</ele><time>2026-04-19T13:57:40.937Z</time></trkpt><trkpt lat="44.38004245026657" lon="9.596493974460762"><ele>386.75</ele><time>2026-04-19T13:57:41.937Z</time></trkpt><trkpt lat="44.37990910600255" lon="9.596489734931055"><ele>387.0</ele><time>2026-04-19T13:57:42.937Z</time></trkpt><trkpt lat="44.37978254495241" lon="9.596466399868882"><ele>385.25</ele><time>2026-04-19T13:57:43.937Z</time></trkpt><trkpt lat="44.379662278214596" lon="9.596426411718785"><ele>383.5</ele><time>2026-04-19T13:57:44.937Z</time></trkpt><trkpt lat="44.37955626872357" lon="9.59636823838455"><ele>381.75</ele><time>2026-04-19T13:57:45.937Z</time></trkpt><trkpt lat="44.3794598865016" lon="9.59628709600648"><ele>380.0</ele><time>2026-04-19T13:57:46.937Z</time></trkpt><trkpt lat="44.379366473983836" lon="9.596200174902519"><ele>377.0</ele><time>2026-04-19T13:57:47.937Z</time></trkpt><trkpt lat="44.37927520114435" lon="9.596126011849847"><ele>374.0</ele><time>2026-04-19T13:57:48.937Z</time></trkpt><trkpt lat="44.379185592452" lon="9.596060024815927"><ele>371.0</ele><time>2026-04-19T13:57:49.937Z</time></trkpt><trkpt lat="44.37908517031041" lon="9.59600841450968"><ele>368.0</ele><time>2026-04-19T13:57:50.937Z</time></trkpt><trkpt lat="44.378980752416055" lon="9.595936184828142"><ele>365.0</ele><time>2026-04-19T13:57:51.937Z</time></trkpt><trkpt lat="44.37886637214071" lon="9.5958673993328"><ele>364.75</ele><time>2026-04-19T13:57:52.937Z</time></trkpt><trkpt lat="44.37874238149389" lon="9.595811294013755"><ele>364.5</ele><time>2026-04-19T13:57:53.937Z</time></trkpt><trkpt lat="44.378611020412436" lon="9.595758533412274"><ele>364.25</ele><time>2026-04-19T13:57:54.937Z</time></trkpt><trkpt lat="44.37847475084145" lon="9.595706367976515"><ele>364.0</ele><time>2026-04-19T13:57:55.937Z</time></trkpt><trkpt lat="44.378336936055724" lon="9.595650964530757"><ele>364.0</ele><time>2026-04-19T13:57:56.937Z</time></trkpt><trkpt lat="44.37821003093145" lon="9.595596287332672"><ele>364.0</ele><time>2026-04-19T13:57:57.937Z</time></trkpt><trkpt lat="44.37808664396131" lon="9.595549800263434"><ele>364.0</ele><time>2026-04-19T13:57:58.937Z</time></trkpt><trkpt lat="44.377957388470016" lon="9.595504039995193"><ele>364.0</ele><time>2026-04-19T13:57:59.937Z</time></trkpt><trkpt lat="44.377829778708445" lon="9.595457278739486"><ele>364.75</ele><time>2026-04-19T13:58:00.937Z</time></trkpt><trkpt lat="44.37770453669955" lon="9.595410792376484"><ele>365.5</ele><time>2026-04-19T13:58:01.937Z</time></trkpt><trkpt lat="44.3775778870772" lon="9.59536390039621"><ele>366.25</ele><time>2026-04-19T13:58:02.937Z</time></trkpt><trkpt lat="44.377453035852746" lon="9.595313287698794"><ele>367.0</ele><time>2026-04-19T13:58:03.937Z</time></trkpt><trkpt lat="44.37732737384227" lon="9.595264702090436"><ele>366.0</ele><time>2026-04-19T13:58:04.937Z</time></trkpt><trkpt lat="44.377207499492854" lon="9.595217901671393"><ele>365.0</ele><time>2026-04-19T13:58:05.937Z</time></trkpt><trkpt lat="44.37710024057494" lon="9.595175274472172"><ele>364.0</ele><time>2026-04-19T13:58:06.937Z</time></trkpt><trkpt lat="44.37699391027314" lon="9.595134673081008"><ele>363.0</ele><time>2026-04-19T13:58:07.937Z</time></trkpt><trkpt lat="44.37688095273652" lon="9.595094411065073"><ele>363.0</ele><time>2026-04-19T13:58:08.937Z</time></trkpt><trkpt lat="44.376770846187306" lon="9.595052473015569"><ele>363.0</ele><time>2026-04-19T13:58:09.937Z</time></trkpt><trkpt lat="44.37665535615906" lon="9.595005083052024"><ele>363.0</ele><time>2026-04-19T13:58:10.937Z</time></trkpt><trkpt lat="44.376539974222474" lon="9.594962888433233"><ele>363.0</ele><time>2026-04-19T13:58:11.937Z</time></trkpt><trkpt lat="44.376430092988706" lon="9.594914437747306"><ele>364.79999999999995</ele><time>2026-04-19T13:58:12.937Z</time></trkpt><trkpt lat="44.376333237967785" lon="9.594876381656096"><ele>366.6</ele><time>2026-04-19T13:58:13.937Z</time></trkpt><trkpt lat="44.37623520442248" lon="9.594829173757638"><ele>368.4</ele><time>2026-04-19T13:58:14.937Z</time></trkpt><trkpt lat="44.37613553967295" lon="9.59476387833673"><ele>370.20000000000005</ele><time>2026-04-19T13:58:15.937Z</time></trkpt><trkpt lat="44.3760516391491" lon="9.594656471719185"><ele>372.0</ele><time>2026-04-19T13:58:16.937Z</time></trkpt><trkpt lat="44.3759805841587" lon="9.594538163846906"><ele>368.25</ele><time>2026-04-19T13:58:17.937Z</time></trkpt><trkpt lat="44.37591031869932" lon="9.59440812989596"><ele>364.5</ele><time>2026-04-19T13:58:18.937Z</time></trkpt><trkpt lat="44.37582493708361" lon="9.594301918566485"><ele>360.75</ele><time>2026-04-19T13:58:19.937Z</time></trkpt><trkpt lat="44.375720034581455" lon="9.594216079116872"><ele>357.0</ele><time>2026-04-19T13:58:20.937Z</time></trkpt><trkpt lat="44.37562756166664" lon="9.594128040667197"><ele>357.0</ele><time>2026-04-19T13:58:21.937Z</time></trkpt><trkpt lat="44.37553857733589" lon="9.594041234573671"><ele>357.0</ele><time>2026-04-19T13:58:22.937Z</time></trkpt><trkpt lat="44.37545272169019" lon="9.593963405314978"><ele>357.0</ele><time>2026-04-19T13:58:23.936Z</time></trkpt><trkpt lat="44.375361586246285" lon="9.593897685166889"><ele>357.0</ele><time>2026-04-19T13:58:24.935Z</time></trkpt><trkpt lat="44.375267101721505" lon="9.593838558628509"><ele>357.0</ele><time>2026-04-19T13:58:25.935Z</time></trkpt><trkpt lat="44.375176858595616" lon="9.593791779595575"><ele>356.0</ele><time>2026-04-19T13:58:26.935Z</time></trkpt><trkpt lat="44.375095375278654" lon="9.593751898415233"><ele>355.0</ele><time>2026-04-19T13:58:27.935Z</time></trkpt><trkpt lat="44.37502498857639" lon="9.593714104382956"><ele>354.0</ele><time>2026-04-19T13:58:28.935Z</time></trkpt><trkpt lat="44.37496695310337" lon="9.593675912033431"><ele>353.0</ele><time>2026-04-19T13:58:29.936Z</time></trkpt><trkpt lat="44.37489492579364" lon="9.593627040500905"><ele>352.0</ele><time>2026-04-19T13:58:31.936Z</time></trkpt><trkpt lat="44.37482874679855" lon="9.593593449157568"><ele>351.0</ele><time>2026-04-19T13:58:34.935Z</time></trkpt><trkpt lat="44.37475856622539" lon="9.593548205828505"><ele>351.0</ele><time>2026-04-19T13:58:38.936Z</time></trkpt><trkpt lat="44.374699087805325" lon="9.593502680514863"><ele>351.0</ele><time>2026-04-19T13:58:48.936Z</time></trkpt><trkpt lat="44.374608226674034" lon="9.593479645261178"><ele>351.0</ele><time>2026-04-19T13:58:54.936Z</time></trkpt><trkpt lat="44.37454578844615" lon="9.593528985171396"><ele>351.0</ele><time>2026-04-19T13:58:55.936Z</time></trkpt><trkpt lat="44.37447773795681" lon="9.593614922943717"><ele>351.0</ele><time>2026-04-19T13:58:56.936Z</time></trkpt><trkpt lat="44.37439953935762" lon="9.593723075838763"><ele>351.0</ele><time>2026-04-19T13:58:57.936Z</time></trkpt><trkpt lat="44.37432144000328" lon="9.593836776560904"><ele>350.25</ele><time>2026-04-19T13:58:58.936Z</time></trkpt><trkpt lat="44.374248754892044" lon="9.593965321561996"><ele>349.5</ele><time>2026-04-19T13:58:59.936Z</time></trkpt><trkpt lat="44.37415572105206" lon="9.594078889301283"><ele>348.75</ele><time>2026-04-19T13:59:00.936Z</time></trkpt><trkpt lat="44.374054983266234" lon="9.594206582769841"><ele>348.0</ele><time>2026-04-19T13:59:01.936Z</time></trkpt><trkpt lat="44.37395017210372" lon="9.59434536549446"><ele>348.0</ele><time>2026-04-19T13:59:02.936Z</time></trkpt><trkpt lat="44.37385733155796" lon="9.594499559787758"><ele>348.0</ele><time>2026-04-19T13:59:03.936Z</time></trkpt><trkpt lat="44.37375836189228" lon="9.594656865016859"><ele>348.0</ele><time>2026-04-19T13:59:04.936Z</time></trkpt><trkpt lat="44.3736697652278" lon="9.594815049739863"><ele>348.0</ele><time>2026-04-19T13:59:05.936Z</time></trkpt><trkpt lat="44.373573137510746" lon="9.594965263006817"><ele>347.75</ele><time>2026-04-19T13:59:06.936Z</time></trkpt><trkpt lat="44.37346739734418" lon="9.595099923531839"><ele>347.5</ele><time>2026-04-19T13:59:07.936Z</time></trkpt><trkpt lat="44.37335557102021" lon="9.595221515863777"><ele>347.25</ele><time>2026-04-19T13:59:08.936Z</time></trkpt><trkpt lat="44.373226696181625" lon="9.595325134562724"><ele>347.0</ele><time>2026-04-19T13:59:09.936Z</time></trkpt><trkpt lat="44.37309095741007" lon="9.595417964347371"><ele>349.33333333333337</ele><time>2026-04-19T13:59:10.936Z</time></trkpt><trkpt lat="44.37294939365297" lon="9.595506698984142"><ele>351.6666666666667</ele><time>2026-04-19T13:59:11.936Z</time></trkpt><trkpt lat="44.372783570885645" lon="9.595586620986008"><ele>354.0</ele><time>2026-04-19T13:59:12.936Z</time></trkpt><trkpt lat="44.372613732030224" lon="9.595661715197195"><ele>354.0</ele><time>2026-04-19T13:59:13.936Z</time></trkpt><trkpt lat="44.37243921346288" lon="9.595708142748713"><ele>354.0</ele><time>2026-04-19T13:59:14.936Z</time></trkpt><trkpt lat="44.372281640151336" lon="9.595736922862873"><ele>354.0</ele><time>2026-04-19T13:59:15.936Z</time></trkpt><trkpt lat="44.372136772664604" lon="9.59574585035798"><ele>353.0</ele><time>2026-04-19T13:59:16.936Z</time></trkpt><trkpt lat="44.37201222519309" lon="9.595749597383232"><ele>352.0</ele><time>2026-04-19T13:59:17.936Z</time></trkpt><trkpt lat="44.371884118547186" lon="9.595768775757424"><ele>351.0</ele><time>2026-04-19T13:59:18.936Z</time></trkpt><trkpt lat="44.37175284432595" lon="9.59579468919089"><ele>350.0</ele><time>2026-04-19T13:59:19.936Z</time></trkpt><trkpt lat="44.371621774119426" lon="9.595817110881084"><ele>350.0</ele><time>2026-04-19T13:59:20.936Z</time></trkpt><trkpt lat="44.37150266715915" lon="9.59583442577755"><ele>350.0</ele><time>2026-04-19T13:59:21.936Z</time></trkpt><trkpt lat="44.37138226851507" lon="9.595853144434393"><ele>350.0</ele><time>2026-04-19T13:59:22.936Z</time></trkpt><trkpt lat="44.37127641938342" lon="9.595860174197735"><ele>350.0</ele><time>2026-04-19T13:59:23.936Z</time></trkpt><trkpt lat="44.371190700281296" lon="9.59585159238558"><ele>350.0</ele><time>2026-04-19T13:59:24.936Z</time></trkpt><trkpt lat="44.37110674255242" lon="9.595819840027307"><ele>349.0</ele><time>2026-04-19T13:59:25.936Z</time></trkpt><trkpt lat="44.37102905620735" lon="9.595754162937862"><ele>348.0</ele><time>2026-04-19T13:59:26.936Z</time></trkpt><trkpt lat="44.37097839581012" lon="9.595638638341077"><ele>347.0</ele><time>2026-04-19T13:59:27.936Z</time></trkpt><trkpt lat="44.370942666848805" lon="9.595489706133536"><ele>346.0</ele><time>2026-04-19T13:59:28.936Z</time></trkpt><trkpt lat="44.37090483407295" lon="9.595334622344115"><ele>345.0</ele><time>2026-04-19T13:59:29.936Z</time></trkpt><trkpt lat="44.370863266285866" lon="9.595189990231074"><ele>344.2</ele><time>2026-04-19T13:59:30.936Z</time></trkpt><trkpt lat="44.37082408451098" lon="9.595053496787939"><ele>343.4</ele><time>2026-04-19T13:59:31.936Z</time></trkpt><trkpt lat="44.37078647060485" lon="9.594928347423098"><ele>342.6</ele><time>2026-04-19T13:59:32.936Z</time></trkpt><trkpt lat="44.37073805322188" lon="9.594818035434228"><ele>341.8</ele><time>2026-04-19T13:59:33.936Z</time></trkpt><trkpt lat="44.37067084396396" lon="9.59473350624359"><ele>341.0</ele><time>2026-04-19T13:59:34.936Z</time></trkpt><trkpt lat="44.37058598423863" lon="9.59468170824789"><ele>341.8</ele><time>2026-04-19T13:59:35.936Z</time></trkpt><trkpt lat="44.37048943813939" lon="9.59467403418536"><ele>342.6</ele><time>2026-04-19T13:59:36.936Z</time></trkpt><trkpt lat="44.37038165264761" lon="9.594691440737973"><ele>343.4</ele><time>2026-04-19T13:59:37.936Z</time></trkpt><trkpt lat="44.37027716108769" lon="9.594757579665847"><ele>344.2</ele><time>2026-04-19T13:59:38.936Z</time></trkpt><trkpt lat="44.37017412112763" lon="9.594852582157579"><ele>345.0</ele><time>2026-04-19T13:59:39.936Z</time></trkpt><trkpt lat="44.37006963619601" lon="9.594941177163388"><ele>345.0</ele><time>2026-04-19T13:59:40.936Z</time></trkpt><trkpt lat="44.369960957398554" lon="9.595003628214426"><ele>345.0</ele><time>2026-04-19T13:59:41.936Z</time></trkpt><trkpt lat="44.369855058432734" lon="9.595049186406944"><ele>345.0</ele><time>2026-04-19T13:59:42.936Z</time></trkpt><trkpt lat="44.36974909917179" lon="9.595087647579456"><ele>345.0</ele><time>2026-04-19T13:59:43.936Z</time></trkpt><trkpt lat="44.369634708681424" lon="9.5951295721789"><ele>344.0</ele><time>2026-04-19T13:59:44.936Z</time></trkpt><trkpt lat="44.369516138288944" lon="9.595182596111155"><ele>343.0</ele><time>2026-04-19T13:59:45.936Z</time></trkpt><trkpt lat="44.369394789888325" lon="9.595241696489245"><ele>342.0</ele><time>2026-04-19T13:59:46.936Z</time></trkpt><trkpt lat="44.36927953967581" lon="9.595305247431146"><ele>341.0</ele><time>2026-04-19T13:59:47.936Z</time></trkpt><trkpt lat="44.369187531888564" lon="9.595378283134803"><ele>341.0</ele><time>2026-04-19T13:59:48.936Z</time></trkpt><trkpt lat="44.36910111301988" lon="9.595420220543362"><ele>341.0</ele><time>2026-04-19T13:59:49.936Z</time></trkpt><trkpt lat="44.369010070926855" lon="9.59542096228582"><ele>341.0</ele><time>2026-04-19T13:59:50.936Z</time></trkpt><trkpt lat="44.36891266424091" lon="9.595361375681833"><ele>341.0</ele><time>2026-04-19T13:59:51.936Z</time></trkpt><trkpt lat="44.36881980482307" lon="9.595239309300666"><ele>341.0</ele><time>2026-04-19T13:59:52.936Z</time></trkpt><trkpt lat="44.36871803605943" lon="9.595120403796086"><ele>344.0</ele><time>2026-04-19T13:59:53.936Z</time></trkpt><trkpt lat="44.368623070907645" lon="9.595033219880108"><ele>347.0</ele><time>2026-04-19T13:59:54.936Z</time></trkpt><trkpt lat="44.36852540879781" lon="9.59495991935442"><ele>350.0</ele><time>2026-04-19T13:59:55.936Z</time></trkpt><trkpt lat="44.368413591572576" lon="9.594881716365718"><ele>353.0</ele><time>2026-04-19T13:59:56.936Z</time></trkpt><trkpt lat="44.36828792014685" lon="9.594798618529138"><ele>353.0</ele><time>2026-04-19T13:59:57.936Z</time></trkpt><trkpt lat="44.368162969780485" lon="9.594705670941728"><ele>353.0</ele><time>2026-04-19T13:59:58.936Z</time></trkpt><trkpt lat="44.368045616824695" lon="9.594613224644405"><ele>353.0</ele><time>2026-04-19T13:59:59.936Z</time></trkpt><trkpt lat="44.367923551818826" lon="9.594533399517838"><ele>353.0</ele><time>2026-04-19T14:00:00.936Z</time></trkpt><trkpt lat="44.36779621839585" lon="9.594481095432494"><ele>350.75</ele><time>2026-04-19T14:00:01.936Z</time></trkpt><trkpt lat="44.367667940100965" lon="9.594463347963103"><ele>348.5</ele><time>2026-04-19T14:00:02.936Z</time></trkpt><trkpt lat="44.36754140628506" lon="9.594481700432999"><ele>346.25</ele><time>2026-04-19T14:00:03.936Z</time></trkpt><trkpt lat="44.367418605225275" lon="9.594505996443804"><ele>344.0</ele><time>2026-04-19T14:00:04.936Z</time></trkpt><trkpt lat="44.36730522095479" lon="9.594536103369705"><ele>343.0</ele><time>2026-04-19T14:00:05.936Z</time></trkpt><trkpt lat="44.36719056158151" lon="9.59456184934802"><ele>342.0</ele><time>2026-04-19T14:00:06.936Z</time></trkpt><trkpt lat="44.36706856352791" lon="9.594565669781653"><ele>341.0</ele><time>2026-04-19T14:00:07.936Z</time></trkpt><trkpt lat="44.36694831132758" lon="9.594537237271252"><ele>340.0</ele><time>2026-04-19T14:00:08.936Z</time></trkpt><trkpt lat="44.36685280218949" lon="9.594499940940175"><ele>344.2</ele><time>2026-04-19T14:00:09.936Z</time></trkpt><trkpt lat="44.36676984420741" lon="9.594445645110518"><ele>348.4</ele><time>2026-04-19T14:00:10.936Z</time></trkpt><trkpt lat="44.36669010186546" lon="9.594365111723764"><ele>352.6</ele><time>2026-04-19T14:00:11.936Z</time></trkpt><trkpt lat="44.36660263105727" lon="9.594284889626037"><ele>356.8</ele><time>2026-04-19T14:00:12.936Z</time></trkpt><trkpt lat="44.36649577088386" lon="9.594238865657427"><ele>361.0</ele><time>2026-04-19T14:00:13.936Z</time></trkpt><trkpt lat="44.36638003462051" lon="9.594257393270915"><ele>363.75</ele><time>2026-04-19T14:00:14.936Z</time></trkpt><trkpt lat="44.366270599964295" lon="9.594310339999293"><ele>366.5</ele><time>2026-04-19T14:00:15.936Z</time></trkpt><trkpt lat="44.36616171642534" lon="9.594372810655138"><ele>369.25</ele><time>2026-04-19T14:00:16.936Z</time></trkpt><trkpt lat="44.36604565850071" lon="9.594418118862725"><ele>372.0</ele><time>2026-04-19T14:00:17.936Z</time></trkpt><trkpt lat="44.36591694057991" lon="9.594452610510938"><ele>372.0</ele><time>2026-04-19T14:00:18.936Z</time></trkpt><trkpt lat="44.36579598119687" lon="9.59449135875027"><ele>372.0</ele><time>2026-04-19T14:00:19.936Z</time></trkpt><trkpt lat="44.36567612407476" lon="9.594541066901074"><ele>372.0</ele><time>2026-04-19T14:00:20.936Z</time></trkpt><trkpt lat="44.36555672213867" lon="9.59459874760495"><ele>372.0</ele><time>2026-04-19T14:00:21.936Z</time></trkpt><trkpt lat="44.36544825932097" lon="9.594677255156013"><ele>371.5</ele><time>2026-04-19T14:00:22.936Z</time></trkpt><trkpt lat="44.36536859642118" lon="9.594793881961257"><ele>371.0</ele><time>2026-04-19T14:00:23.936Z</time></trkpt><trkpt lat="44.36529769877377" lon="9.594930336325183"><ele>370.5</ele><time>2026-04-19T14:00:24.936Z</time></trkpt><trkpt lat="44.3652318942022" lon="9.595090577748449"><ele>370.0</ele><time>2026-04-19T14:00:25.936Z</time></trkpt><trkpt lat="44.365171862188674" lon="9.595233939123174"><ele>370.0</ele><time>2026-04-19T14:00:26.936Z</time></trkpt><trkpt lat="44.365112711187244" lon="9.595332625034652"><ele>370.0</ele><time>2026-04-19T14:00:27.936Z</time></trkpt><trkpt lat="44.365037808977796" lon="9.595421612372151"><ele>370.0</ele><time>2026-04-19T14:00:28.936Z</time></trkpt><trkpt lat="44.36494658484295" lon="9.595461655467584"><ele>370.0</ele><time>2026-04-19T14:00:29.933Z</time></trkpt><trkpt lat="44.36485048414534" lon="9.595448570715135"><ele>370.0</ele><time>2026-04-19T14:00:30.934Z</time></trkpt><trkpt lat="44.36475252914671" lon="9.595387831405738"><ele>366.5</ele><time>2026-04-19T14:00:31.934Z</time></trkpt><trkpt lat="44.36464350524562" lon="9.595297323141397"><ele>363.0</ele><time>2026-04-19T14:00:32.934Z</time></trkpt><trkpt lat="44.36453623962061" lon="9.59518887294367"><ele>359.5</ele><time>2026-04-19T14:00:33.933Z</time></trkpt><trkpt lat="44.364436730621826" lon="9.595092989800056"><ele>356.0</ele><time>2026-04-19T14:00:34.933Z</time></trkpt><trkpt lat="44.36433131780446" lon="9.594990624424357"><ele>356.0</ele><time>2026-04-19T14:00:35.934Z</time></trkpt><trkpt lat="44.36422529262535" lon="9.594889142738452"><ele>356.0</ele><time>2026-04-19T14:00:36.933Z</time></trkpt><trkpt lat="44.364112939420394" lon="9.594808846934207"><ele>356.0</ele><time>2026-04-19T14:00:37.933Z</time></trkpt><trkpt lat="44.363990429053125" lon="9.594758303867913"><ele>356.0</ele><time>2026-04-19T14:00:38.934Z</time></trkpt><trkpt lat="44.363862132410986" lon="9.594728648445848"><ele>357.75</ele><time>2026-04-19T14:00:39.934Z</time></trkpt><trkpt lat="44.363736676283715" lon="9.594702495724098"><ele>359.5</ele><time>2026-04-19T14:00:40.934Z</time></trkpt><trkpt lat="44.36361681466676" lon="9.594652331335043"><ele>361.25</ele><time>2026-04-19T14:00:41.933Z</time></trkpt><trkpt lat="44.36348890824101" lon="9.594570925187412"><ele>363.0</ele><time>2026-04-19T14:00:42.934Z</time></trkpt><trkpt lat="44.363367183948384" lon="9.594481348642349"><ele>363.0</ele><time>2026-04-19T14:00:43.934Z</time></trkpt><trkpt lat="44.36324392042505" lon="9.594386174004933"><ele>363.0</ele><time>2026-04-19T14:00:44.934Z</time></trkpt><trkpt lat="44.363114905953026" lon="9.594290472807081"><ele>363.0</ele><time>2026-04-19T14:00:45.934Z</time></trkpt><trkpt lat="44.3629863216471" lon="9.594200947343163"><ele>363.0</ele><time>2026-04-19T14:00:46.934Z</time></trkpt><trkpt lat="44.3628573831659" lon="9.594111770968174"><ele>360.5</ele><time>2026-04-19T14:00:47.934Z</time></trkpt><trkpt lat="44.36272518379204" lon="9.59402093652382"><ele>358.0</ele><time>2026-04-19T14:00:48.934Z</time></trkpt><trkpt lat="44.36258869814818" lon="9.593933921364856"><ele>355.5</ele><time>2026-04-19T14:00:49.934Z</time></trkpt><trkpt lat="44.362452174324936" lon="9.593854766716573"><ele>353.0</ele><time>2026-04-19T14:00:50.934Z</time></trkpt><trkpt lat="44.36231693214907" lon="9.593788078740777"><ele>354.25</ele><time>2026-04-19T14:00:51.934Z</time></trkpt><trkpt lat="44.362177874010705" lon="9.593729793548828"><ele>355.5</ele><time>2026-04-19T14:00:52.934Z</time></trkpt><trkpt lat="44.36203434283642" lon="9.593675391451617"><ele>356.75</ele><time>2026-04-19T14:00:53.934Z</time></trkpt><trkpt lat="44.361890842840964" lon="9.593629546267323"><ele>358.0</ele><time>2026-04-19T14:00:54.934Z</time></trkpt><trkpt lat="44.36174821022858" lon="9.593593354132802"><ele>358.0</ele><time>2026-04-19T14:00:55.934Z</time></trkpt><trkpt lat="44.36160233849209" lon="9.593565991551156"><ele>358.0</ele><time>2026-04-19T14:00:56.934Z</time></trkpt><trkpt lat="44.36144898574181" lon="9.593558933747499"><ele>358.0</ele><time>2026-04-19T14:00:57.934Z</time></trkpt><trkpt lat="44.361265710972404" lon="9.593580111155822"><ele>349.0</ele><time>2026-04-19T14:00:58.934Z</time></trkpt><trkpt lat="44.36104218552903" lon="9.593604796353816"><ele>340.0</ele><time>2026-04-19T14:00:59.934Z</time></trkpt><trkpt lat="44.36078863211019" lon="9.593620734215266"><ele>339.5</ele><time>2026-04-19T14:01:00.934Z</time></trkpt><trkpt lat="44.36052550758801" lon="9.593635723042762"><ele>339.0</ele><time>2026-04-19T14:01:01.934Z</time></trkpt><trkpt lat="44.36024898643062" lon="9.59366185158903"><ele>333.5</ele><time>2026-04-19T14:01:02.934Z</time></trkpt><trkpt lat="44.359986980512375" lon="9.593684055957844"><ele>328.0</ele><time>2026-04-19T14:01:03.934Z</time></trkpt><trkpt lat="44.35975085226604" lon="9.59371134868625"><ele>328.3333333333333</ele><time>2026-04-19T14:01:04.934Z</time></trkpt><trkpt lat="44.359528392980785" lon="9.593745529948425"><ele>328.6666666666667</ele><time>2026-04-19T14:01:05.934Z</time></trkpt><trkpt lat="44.35932347114983" lon="9.593766213782716"><ele>329.0</ele><time>2026-04-19T14:01:06.934Z</time></trkpt><trkpt lat="44.35912003683019" lon="9.593771321854698"><ele>329.0</ele><time>2026-04-19T14:01:07.934Z</time></trkpt><trkpt lat="44.35891252338892" lon="9.593755650188927"><ele>329.0</ele><time>2026-04-19T14:01:08.934Z</time></trkpt><trkpt lat="44.358706795417895" lon="9.59372036603308"><ele>329.0</ele><time>2026-04-19T14:01:09.934Z</time></trkpt><trkpt lat="44.358492300880634" lon="9.593669814111506"><ele>333.0</ele><time>2026-04-19T14:01:10.934Z</time></trkpt><trkpt lat="44.358278936651566" lon="9.593643347303539"><ele>337.0</ele><time>2026-04-19T14:01:11.934Z</time></trkpt><trkpt lat="44.35806427979489" lon="9.593638723162696"><ele>341.0</ele><time>2026-04-19T14:01:12.934Z</time></trkpt><trkpt lat="44.35784933765707" lon="9.593632536136326"><ele>341.0</ele><time>2026-04-19T14:01:13.934Z</time></trkpt><trkpt lat="44.357631455369265" lon="9.593641953769374"><ele>341.0</ele><time>2026-04-19T14:01:14.934Z</time></trkpt><trkpt lat="44.35740699405473" lon="9.593666564462886"><ele>341.0</ele><time>2026-04-19T14:01:15.934Z</time></trkpt><trkpt lat="44.35718564684523" lon="9.593696348584759"><ele>335.0</ele><time>2026-04-19T14:01:16.934Z</time></trkpt><trkpt lat="44.356966178203685" lon="9.593710780063015"><ele>329.0</ele><time>2026-04-19T14:01:17.934Z</time></trkpt><trkpt lat="44.356757555193546" lon="9.593734698609381"><ele>323.0</ele><time>2026-04-19T14:01:18.934Z</time></trkpt><trkpt lat="44.35655802087042" lon="9.593763001737507"><ele>323.0</ele><time>2026-04-19T14:01:19.934Z</time></trkpt><trkpt lat="44.35637372125773" lon="9.593777569460944"><ele>323.0</ele><time>2026-04-19T14:01:20.934Z</time></trkpt><trkpt lat="44.35619210217049" lon="9.59377310005789"><ele>323.0</ele><time>2026-04-19T14:01:21.934Z</time></trkpt><trkpt lat="44.35600923360427" lon="9.593775561885518"><ele>323.6666666666667</ele><time>2026-04-19T14:01:22.934Z</time></trkpt><trkpt lat="44.35583817996167" lon="9.593785418381003"><ele>324.3333333333333</ele><time>2026-04-19T14:01:23.934Z</time></trkpt><trkpt lat="44.35567529520624" lon="9.593838155206383"><ele>325.0</ele><time>2026-04-19T14:01:24.934Z</time></trkpt><trkpt lat="44.355526712747434" lon="9.593929034191905"><ele>327.5</ele><time>2026-04-19T14:01:25.934Z</time></trkpt><trkpt lat="44.35540239888471" lon="9.59402819617868"><ele>330.0</ele><time>2026-04-19T14:01:26.934Z</time></trkpt><trkpt lat="44.35528415162496" lon="9.59414350655946"><ele>332.5</ele><time>2026-04-19T14:01:27.934Z</time></trkpt><trkpt lat="44.35515232204355" lon="9.594257393042772"><ele>335.0</ele><time>2026-04-19T14:01:28.934Z</time></trkpt><trkpt lat="44.3549983731519" lon="9.594313366257001"><ele>335.0</ele><time>2026-04-19T14:01:29.934Z</time></trkpt><trkpt lat="44.354833808750534" lon="9.594360270735644"><ele>335.0</ele><time>2026-04-19T14:01:30.934Z</time></trkpt><trkpt lat="44.35467066243582" lon="9.594441975170255"><ele>335.0</ele><time>2026-04-19T14:01:31.934Z</time></trkpt><trkpt lat="44.35448920983051" lon="9.59454602836613"><ele>329.6666666666667</ele><time>2026-04-19T14:01:32.934Z</time></trkpt><trkpt lat="44.35428755284701" lon="9.594648440999164"><ele>324.3333333333333</ele><time>2026-04-19T14:01:33.934Z</time></trkpt><trkpt lat="44.35407093049349" lon="9.594755323825353"><ele>319.0</ele><time>2026-04-19T14:01:34.934Z</time></trkpt><trkpt lat="44.35387491954649" lon="9.594833378906237"><ele>319.0</ele><time>2026-04-19T14:01:35.934Z</time></trkpt><trkpt lat="44.35369070830287" lon="9.59489431009793"><ele>319.0</ele><time>2026-04-19T14:01:36.934Z</time></trkpt><trkpt lat="44.353530674596264" lon="9.594965733195947"><ele>319.0</ele><time>2026-04-19T14:01:37.934Z</time></trkpt><trkpt lat="44.35338068193386" lon="9.595033804505745"><ele>319.0</ele><time>2026-04-19T14:01:38.934Z</time></trkpt><trkpt lat="44.35323528140319" lon="9.595100403832324"><ele>319.0</ele><time>2026-04-19T14:01:39.934Z</time></trkpt><trkpt lat="44.35309150498342" lon="9.59510541499611"><ele>319.0</ele><time>2026-04-19T14:01:40.934Z</time></trkpt><trkpt lat="44.352928565154734" lon="9.595065360316914"><ele>319.3333333333333</ele><time>2026-04-19T14:01:41.934Z</time></trkpt><trkpt lat="44.352757357141485" lon="9.595045399029589"><ele>319.6666666666667</ele><time>2026-04-19T14:01:42.934Z</time></trkpt><trkpt lat="44.35260510700947" lon="9.595032917554974"><ele>320.0</ele><time>2026-04-19T14:01:43.934Z</time></trkpt><trkpt lat="44.35246883059403" lon="9.595019865302339"><ele>320.0</ele><time>2026-04-19T14:01:44.934Z</time></trkpt><trkpt lat="44.35235535893927" lon="9.595001937770489"><ele>320.0</ele><time>2026-04-19T14:01:45.934Z</time></trkpt><trkpt lat="44.35227028518573" lon="9.594989883545"><ele>320.0</ele><time>2026-04-19T14:01:46.934Z</time></trkpt><trkpt lat="44.352200090199545" lon="9.595013841830514"><ele>320.0</ele><time>2026-04-19T14:01:47.934Z</time></trkpt><trkpt lat="44.352149655520954" lon="9.595097590072326"><ele>320.0</ele><time>2026-04-19T14:01:48.934Z</time></trkpt><trkpt lat="44.35213187804102" lon="9.59525331249312"><ele>320.0</ele><time>2026-04-19T14:01:49.934Z</time></trkpt><trkpt lat="44.35212372284344" lon="9.595441525532214"><ele>320.0</ele><time>2026-04-19T14:01:50.934Z</time></trkpt><trkpt lat="44.35208447573972" lon="9.595608220639498"><ele>320.0</ele><time>2026-04-19T14:01:51.934Z</time></trkpt><trkpt lat="44.35202374553498" lon="9.59573616043792"><ele>320.0</ele><time>2026-04-19T14:01:52.934Z</time></trkpt><trkpt lat="44.35191615529537" lon="9.595836305596341"><ele>320.0</ele><time>2026-04-19T14:01:53.934Z</time></trkpt><trkpt lat="44.35178586402586" lon="9.595915170510297"><ele>320.0</ele><time>2026-04-19T14:01:54.934Z</time></trkpt><trkpt lat="44.35165255855517" lon="9.595932493051052"><ele>320.0</ele><time>2026-04-19T14:01:55.934Z</time></trkpt><trkpt lat="44.35151499791841" lon="9.595910863868331"><ele>320.0</ele><time>2026-04-19T14:01:56.934Z</time></trkpt><trkpt lat="44.35138239073017" lon="9.59584890557161"><ele>317.6666666666667</ele><time>2026-04-19T14:01:57.934Z</time></trkpt><trkpt lat="44.35125099612923" lon="9.5957555723228"><ele>315.3333333333333</ele><time>2026-04-19T14:01:58.934Z</time></trkpt><trkpt lat="44.35112457343632" lon="9.595630051635931"><ele>313.0</ele><time>2026-04-19T14:01:59.934Z</time></trkpt><trkpt lat="44.35098981777774" lon="9.59549761754746"><ele>313.0</ele><time>2026-04-19T14:02:00.934Z</time></trkpt><trkpt lat="44.350850964710006" lon="9.59535404782532"><ele>313.0</ele><time>2026-04-19T14:02:01.934Z</time></trkpt><trkpt lat="44.350708076150624" lon="9.595221433415144"><ele>313.0</ele><time>2026-04-19T14:02:02.934Z</time></trkpt><trkpt lat="44.35056532235958" lon="9.595102072763497"><ele>315.3333333333333</ele><time>2026-04-19T14:02:03.934Z</time></trkpt><trkpt lat="44.35040651297359" lon="9.59501772667243"><ele>317.6666666666667</ele><time>2026-04-19T14:02:04.934Z</time></trkpt><trkpt lat="44.35023788254514" lon="9.59496045469014"><ele>320.0</ele><time>2026-04-19T14:02:05.934Z</time></trkpt><trkpt lat="44.35006884948645" lon="9.594928861514255"><ele>320.0</ele><time>2026-04-19T14:02:06.935Z</time></trkpt><trkpt lat="44.349918081993756" lon="9.594914575359715"><ele>320.0</ele><time>2026-04-19T14:02:07.935Z</time></trkpt><trkpt lat="44.34977808223874" lon="9.594881498833859"><ele>320.0</ele><time>2026-04-19T14:02:08.935Z</time></trkpt><trkpt lat="44.34964672027539" lon="9.594818695400814"><ele>320.0</ele><time>2026-04-19T14:02:09.935Z</time></trkpt><trkpt lat="44.349511687509526" lon="9.594717131789999"><ele>319.6666666666667</ele><time>2026-04-19T14:02:10.935Z</time></trkpt><trkpt lat="44.349394586445264" lon="9.594579820100774"><ele>319.3333333333333</ele><time>2026-04-19T14:02:11.935Z</time></trkpt><trkpt lat="44.34929050646067" lon="9.5944130944118"><ele>319.0</ele><time>2026-04-19T14:02:12.935Z</time></trkpt><trkpt lat="44.34920010848832" lon="9.59421009284308"><ele>319.0</ele><time>2026-04-19T14:02:13.935Z</time></trkpt><trkpt lat="44.349121546674134" lon="9.593985035761445"><ele>319.0</ele><time>2026-04-19T14:02:14.935Z</time></trkpt><trkpt lat="44.34904149888304" lon="9.593750806753278"><ele>319.0</ele><time>2026-04-19T14:02:15.935Z</time></trkpt><trkpt lat="44.34895233998349" lon="9.593530396048765"><ele>315.0</ele><time>2026-04-19T14:02:16.935Z</time></trkpt><trkpt lat="44.34885052109745" lon="9.59332071948528"><ele>311.0</ele><time>2026-04-19T14:02:17.935Z</time></trkpt><trkpt lat="44.34874407644573" lon="9.59312627543557"><ele>307.0</ele><time>2026-04-19T14:02:18.935Z</time></trkpt><trkpt lat="44.34864207598354" lon="9.592948332776755"><ele>311.66666666666663</ele><time>2026-04-19T14:02:19.935Z</time></trkpt><trkpt lat="44.348524900341644" lon="9.592792029653069"><ele>316.3333333333333</ele><time>2026-04-19T14:02:20.935Z</time></trkpt><trkpt lat="44.34839595366323" lon="9.592658299926564"><ele>321.0</ele><time>2026-04-19T14:02:21.935Z</time></trkpt><trkpt lat="44.34825658377744" lon="9.592547404469258"><ele>321.0</ele><time>2026-04-19T14:02:22.935Z</time></trkpt><trkpt lat="44.34809598591888" lon="9.592454361834397"><ele>321.0</ele><time>2026-04-19T14:02:23.935Z</time></trkpt><trkpt lat="44.34791268255864" lon="9.592384543350484"><ele>321.0</ele><time>2026-04-19T14:02:24.935Z</time></trkpt><trkpt lat="44.34771572262829" lon="9.592332949933635"><ele>318.3333333333333</ele><time>2026-04-19T14:02:25.935Z</time></trkpt><trkpt lat="44.34752394426308" lon="9.592299555797728"><ele>315.66666666666663</ele><time>2026-04-19T14:02:26.935Z</time></trkpt><trkpt lat="44.347360858649516" lon="9.592269468791642"><ele>313.0</ele><time>2026-04-19T14:02:27.935Z</time></trkpt><trkpt lat="44.34721312007395" lon="9.592256056109006"><ele>312.3333333333333</ele><time>2026-04-19T14:02:28.935Z</time></trkpt><trkpt lat="44.34706477215334" lon="9.592275116340426"><ele>311.6666666666667</ele><time>2026-04-19T14:02:29.935Z</time></trkpt><trkpt lat="44.34691337851829" lon="9.592348637050954"><ele>311.0</ele><time>2026-04-19T14:02:30.935Z</time></trkpt><trkpt lat="44.34676304070071" lon="9.592453847934513"><ele>311.0</ele><time>2026-04-19T14:02:31.935Z</time></trkpt><trkpt lat="44.34660581981417" lon="9.592574517053919"><ele>311.0</ele><time>2026-04-19T14:02:32.935Z</time></trkpt><trkpt lat="44.3464551710541" lon="9.592693927432125"><ele>311.0</ele><time>2026-04-19T14:02:33.935Z</time></trkpt><trkpt lat="44.34631885579967" lon="9.592802036309326"><ele>308.5</ele><time>2026-04-19T14:02:34.935Z</time></trkpt><trkpt lat="44.346186842078886" lon="9.59289720289729"><ele>306.0</ele><time>2026-04-19T14:02:35.932Z</time></trkpt><trkpt lat="44.34604945805624" lon="9.592979307226049"><ele>303.5</ele><time>2026-04-19T14:02:36.932Z</time></trkpt><trkpt lat="44.345913810607335" lon="9.593045692622725"><ele>301.0</ele><time>2026-04-19T14:02:37.932Z</time></trkpt><trkpt lat="44.345780910407846" lon="9.593085085983569"><ele>301.0</ele><time>2026-04-19T14:02:38.932Z</time></trkpt><trkpt lat="44.345641102038535" lon="9.593073119540696"><ele>301.0</ele><time>2026-04-19T14:02:39.932Z</time></trkpt><trkpt lat="44.3454993547185" lon="9.593048884375415"><ele>301.0</ele><time>2026-04-19T14:02:40.932Z</time></trkpt><trkpt lat="44.34537898628519" lon="9.59302377610411"><ele>301.0</ele><time>2026-04-19T14:02:41.932Z</time></trkpt><trkpt lat="44.34527629640074" lon="9.592962758774554"><ele>300.25</ele><time>2026-04-19T14:02:42.932Z</time></trkpt><trkpt lat="44.3451847516692" lon="9.592853865657627"><ele>299.5</ele><time>2026-04-19T14:02:43.932Z</time></trkpt><trkpt lat="44.3450990670777" lon="9.592712672069986"><ele>298.75</ele><time>2026-04-19T14:02:44.932Z</time></trkpt><trkpt lat="44.3450052367297" lon="9.592547734358519"><ele>298.0</ele><time>2026-04-19T14:02:45.932Z</time></trkpt><trkpt lat="44.34490576567516" lon="9.592371227071904"><ele>297.3333333333333</ele><time>2026-04-19T14:02:46.932Z</time></trkpt><trkpt lat="44.34480277715904" lon="9.592193317906784"><ele>296.6666666666667</ele><time>2026-04-19T14:02:47.932Z</time></trkpt><trkpt lat="44.34470231963683" lon="9.59201043398492"><ele>296.0</ele><time>2026-04-19T14:02:48.932Z</time></trkpt><trkpt lat="44.34461137961045" lon="9.591812454954086"><ele>296.0</ele><time>2026-04-19T14:02:49.932Z</time></trkpt><trkpt lat="44.344528527460206" lon="9.591597686579716"><ele>296.0</ele><time>2026-04-19T14:02:50.932Z</time></trkpt><trkpt lat="44.34445278712268" lon="9.591378158735209"><ele>296.0</ele><time>2026-04-19T14:02:51.932Z</time></trkpt><trkpt lat="44.34438149126807" lon="9.591162709989115"><ele>296.33333333333337</ele><time>2026-04-19T14:02:52.932Z</time></trkpt><trkpt lat="44.3443114076601" lon="9.590953788118188"><ele>296.6666666666667</ele><time>2026-04-19T14:02:53.932Z</time></trkpt><trkpt lat="44.3442430579179" lon="9.590759709734892"><ele>297.0</ele><time>2026-04-19T14:02:54.932Z</time></trkpt><trkpt lat="44.344180299274065" lon="9.590585684985333"><ele>297.0</ele><time>2026-04-19T14:02:55.932Z</time></trkpt><trkpt lat="44.34412343935081" lon="9.590428415507613"><ele>297.0</ele><time>2026-04-19T14:02:56.932Z</time></trkpt><trkpt lat="44.34406632374803" lon="9.590289050961845"><ele>297.0</ele><time>2026-04-19T14:02:57.932Z</time></trkpt><trkpt lat="44.34399941189055" lon="9.590172423554897"><ele>297.0</ele><time>2026-04-19T14:02:58.932Z</time></trkpt><trkpt lat="44.34390596366218" lon="9.590100137958306"><ele>300.75</ele><time>2026-04-19T14:02:59.932Z</time></trkpt><trkpt lat="44.34379266247101" lon="9.590091149519745"><ele>304.5</ele><time>2026-04-19T14:03:00.932Z</time></trkpt><trkpt lat="44.34366217849539" lon="9.59008791208889"><ele>308.25</ele><time>2026-04-19T14:03:01.932Z</time></trkpt><trkpt lat="44.34351915319564" lon="9.590063648822781"><ele>312.0</ele><time>2026-04-19T14:03:02.932Z</time></trkpt><trkpt lat="44.34337909870982" lon="9.590038451807285"><ele>312.0</ele><time>2026-04-19T14:03:03.932Z</time></trkpt><trkpt lat="44.34325044804349" lon="9.59005668145306"><ele>312.0</ele><time>2026-04-19T14:03:04.932Z</time></trkpt><trkpt lat="44.343130344245814" lon="9.590136825140636"><ele>312.0</ele><time>2026-04-19T14:03:05.932Z</time></trkpt><trkpt lat="44.342998123412215" lon="9.590211042397492"><ele>312.0</ele><time>2026-04-19T14:03:06.932Z</time></trkpt><trkpt lat="44.342860210762616" lon="9.590267219522179"><ele>313.0</ele><time>2026-04-19T14:03:07.932Z</time></trkpt><trkpt lat="44.3427326398917" lon="9.590307882843955"><ele>314.0</ele><time>2026-04-19T14:03:08.932Z</time></trkpt><trkpt lat="44.34259807425751" lon="9.59032871252276"><ele>315.0</ele><time>2026-04-19T14:03:09.932Z</time></trkpt><trkpt lat="44.34245142426396" lon="9.590332398129474"><ele>316.0</ele><time>2026-04-19T14:03:10.932Z</time></trkpt><trkpt lat="44.34229600752114" lon="9.590311492896092"><ele>313.66666666666663</ele><time>2026-04-19T14:03:11.932Z</time></trkpt><trkpt lat="44.342136974013414" lon="9.590275530262064"><ele>311.3333333333333</ele><time>2026-04-19T14:03:12.932Z</time></trkpt><trkpt lat="44.341967439560115" lon="9.590263961626103"><ele>309.0</ele><time>2026-04-19T14:03:13.932Z</time></trkpt><trkpt lat="44.34179971270521" lon="9.590268539670284"><ele>309.0</ele><time>2026-04-19T14:03:14.932Z</time></trkpt><trkpt lat="44.34163402054363" lon="9.590282147822117"><ele>309.0</ele><time>2026-04-19T14:03:15.932Z</time></trkpt><trkpt lat="44.341467916519704" lon="9.590297761486152"><ele>309.0</ele><time>2026-04-19T14:03:16.932Z</time></trkpt><trkpt lat="44.341298334227446" lon="9.590306195700618"><ele>308.0</ele><time>2026-04-19T14:03:17.932Z</time></trkpt><trkpt lat="44.34113122499099" lon="9.59031477420841"><ele>307.0</ele><time>2026-04-19T14:03:18.932Z</time></trkpt><trkpt lat="44.340973744585526" lon="9.590322282929005"><ele>306.0</ele><time>2026-04-19T14:03:19.932Z</time></trkpt><trkpt lat="44.34082388067895" lon="9.590327127576721"><ele>306.0</ele><time>2026-04-19T14:03:20.932Z</time></trkpt><trkpt lat="44.34067113508444" lon="9.590340851362916"><ele>306.0</ele><time>2026-04-19T14:03:21.932Z</time></trkpt><trkpt lat="44.340516993197966" lon="9.590351195339052"><ele>306.0</ele><time>2026-04-19T14:03:22.932Z</time></trkpt><trkpt lat="44.34036455331393" lon="9.590359484496192"><ele>302.3333333333333</ele><time>2026-04-19T14:03:23.932Z</time></trkpt><trkpt lat="44.340212939644985" lon="9.59037402256561"><ele>298.66666666666663</ele><time>2026-04-19T14:03:24.932Z</time></trkpt><trkpt lat="44.340059991961226" lon="9.590383746381454"><ele>295.0</ele><time>2026-04-19T14:03:25.932Z</time></trkpt><trkpt lat="44.3399048613578" lon="9.590394193268613"><ele>295.0</ele><time>2026-04-19T14:03:26.932Z</time></trkpt><trkpt lat="44.33975149846495" lon="9.590398311505282"><ele>295.0</ele><time>2026-04-19T14:03:27.932Z</time></trkpt><trkpt lat="44.33959352363072" lon="9.590405471232735"><ele>295.0</ele><time>2026-04-19T14:03:28.932Z</time></trkpt><trkpt lat="44.339434983795776" lon="9.590414369436843"><ele>294.3333333333333</ele><time>2026-04-19T14:03:29.932Z</time></trkpt><trkpt lat="44.33927862052258" lon="9.590426034439291"><ele>293.6666666666667</ele><time>2026-04-19T14:03:30.932Z</time></trkpt><trkpt lat="44.33911771477459" lon="9.59043463161536"><ele>293.0</ele><time>2026-04-19T14:03:31.932Z</time></trkpt><trkpt lat="44.338955450434334" lon="9.59042489400467"><ele>294.6666666666667</ele><time>2026-04-19T14:03:32.932Z</time></trkpt><trkpt lat="44.338791676496406" lon="9.590388223707631"><ele>296.3333333333333</ele><time>2026-04-19T14:03:33.932Z</time></trkpt><trkpt lat="44.33863643451133" lon="9.590334570897223"><ele>298.0</ele><time>2026-04-19T14:03:34.932Z</time></trkpt><trkpt lat="44.33848045832974" lon="9.590277334355667"><ele>298.0</ele><time>2026-04-19T14:03:35.932Z</time></trkpt><trkpt lat="44.33832338874856" lon="9.590218829334185"><ele>298.0</ele><time>2026-04-19T14:03:36.932Z</time></trkpt><trkpt lat="44.33816472722438" lon="9.590157626000549"><ele>298.0</ele><time>2026-04-19T14:03:37.932Z</time></trkpt><trkpt lat="44.338007004647345" lon="9.590095487341875"><ele>295.3333333333333</ele><time>2026-04-19T14:03:38.932Z</time></trkpt><trkpt lat="44.33785058792765" lon="9.59003252320615"><ele>292.6666666666667</ele><time>2026-04-19T14:03:39.932Z</time></trkpt><trkpt lat="44.33769477453792" lon="9.589967616280225"><ele>290.0</ele><time>2026-04-19T14:03:40.932Z</time></trkpt><trkpt lat="44.3375423274789" lon="9.589904026438154"><ele>290.0</ele><time>2026-04-19T14:03:41.932Z</time></trkpt><trkpt lat="44.337389620426556" lon="9.589841080666389"><ele>290.0</ele><time>2026-04-19T14:03:42.932Z</time></trkpt><trkpt lat="44.33723804510025" lon="9.589780878486525"><ele>290.0</ele><time>2026-04-19T14:03:43.932Z</time></trkpt><trkpt lat="44.33708538558327" lon="9.589724450957068"><ele>289.5</ele><time>2026-04-19T14:03:44.932Z</time></trkpt><trkpt lat="44.33693301712478" lon="9.589676458849203"><ele>289.0</ele><time>2026-04-19T14:03:45.932Z</time></trkpt><trkpt lat="44.33678921389305" lon="9.58963983484509"><ele>288.5</ele><time>2026-04-19T14:03:46.932Z</time></trkpt><trkpt lat="44.336647395739426" lon="9.589608835380991"><ele>288.0</ele><time>2026-04-19T14:03:47.932Z</time></trkpt><trkpt lat="44.336510847594084" lon="9.589576068227586"><ele>287.25</ele><time>2026-04-19T14:03:48.932Z</time></trkpt><trkpt lat="44.33637871977456" lon="9.589539289600825"><ele>286.5</ele><time>2026-04-19T14:03:49.932Z</time></trkpt><trkpt lat="44.3362460514401" lon="9.589502907005679"><ele>285.75</ele><time>2026-04-19T14:03:50.932Z</time></trkpt><trkpt lat="44.336119667333826" lon="9.589468876059394"><ele>285.0</ele><time>2026-04-19T14:03:51.932Z</time></trkpt><trkpt lat="44.33599644309572" lon="9.589439832135874"><ele>285.0</ele><time>2026-04-19T14:03:52.932Z</time></trkpt><trkpt lat="44.33588018683439" lon="9.589404954370906"><ele>285.0</ele><time>2026-04-19T14:03:53.932Z</time></trkpt><trkpt lat="44.33577850775546" lon="9.589376708978458"><ele>285.0</ele><time>2026-04-19T14:03:54.932Z</time></trkpt><trkpt lat="44.33568304093322" lon="9.589365164839622"><ele>285.0</ele><time>2026-04-19T14:03:55.932Z</time></trkpt><trkpt lat="44.33559063725592" lon="9.589387630202538"><ele>285.0</ele><time>2026-04-19T14:03:56.932Z</time></trkpt><trkpt lat="44.33549618140207" lon="9.5894291046858"><ele>285.2</ele><time>2026-04-19T14:03:57.932Z</time></trkpt><trkpt lat="44.335394632956046" lon="9.589466594714747"><ele>285.4</ele><time>2026-04-19T14:03:58.932Z</time></trkpt><trkpt lat="44.335286813063874" lon="9.589488930704544"><ele>285.6</ele><time>2026-04-19T14:03:59.932Z</time></trkpt><trkpt lat="44.33518442672241" lon="9.589499199359507"><ele>285.8</ele><time>2026-04-19T14:04:00.932Z</time></trkpt><trkpt lat="44.33507966247671" lon="9.589515979087325"><ele>286.0</ele><time>2026-04-19T14:04:01.932Z</time></trkpt><trkpt lat="44.33497386358091" lon="9.589531436636072"><ele>286.40000000000003</ele><time>2026-04-19T14:04:02.932Z</time></trkpt><trkpt lat="44.33487850257372" lon="9.589551244613302"><ele>286.8</ele><time>2026-04-19T14:04:03.932Z</time></trkpt><trkpt lat="44.334787713752675" lon="9.589567306777644"><ele>287.20000000000005</ele><time>2026-04-19T14:04:04.932Z</time></trkpt><trkpt lat="44.33469938169706" lon="9.589583770305644"><ele>287.6</ele><time>2026-04-19T14:04:05.932Z</time></trkpt><trkpt lat="44.33460678767328" lon="9.589587563664628"><ele>288.0</ele><time>2026-04-19T14:04:06.932Z</time></trkpt><trkpt lat="44.33451061120505" lon="9.58960124661603"><ele>288.2</ele><time>2026-04-19T14:04:07.932Z</time></trkpt><trkpt lat="44.33441553886694" lon="9.589633764303166"><ele>288.4</ele><time>2026-04-19T14:04:08.932Z</time></trkpt><trkpt lat="44.33431663599534" lon="9.589651083258032"><ele>288.59999999999997</ele><time>2026-04-19T14:04:09.932Z</time></trkpt><trkpt lat="44.334210263449" lon="9.589663255286482"><ele>288.8</ele><time>2026-04-19T14:04:10.932Z</time></trkpt><trkpt lat="44.334109279164615" lon="9.589684482092657"><ele>289.0</ele><time>2026-04-19T14:04:11.932Z</time></trkpt><trkpt lat="44.33401259984758" lon="9.589705236136153"><ele>289.0</ele><time>2026-04-19T14:04:12.932Z</time></trkpt><trkpt lat="44.333926855563504" lon="9.589715250556997"><ele>289.0</ele><time>2026-04-19T14:04:13.932Z</time></trkpt><trkpt lat="44.33383233682402" lon="9.589682655517919"><ele>289.0</ele><time>2026-04-19T14:04:15.932Z</time></trkpt><trkpt lat="44.33381615984429" lon="9.589568218204109"><ele>289.0</ele><time>2026-04-19T14:04:17.932Z</time></trkpt><trkpt lat="44.33385189418614" lon="9.58947548812621"><ele>289.0</ele><time>2026-04-19T14:04:18.932Z</time></trkpt><trkpt lat="44.33390958779811" lon="9.589380588805954"><ele>289.0</ele><time>2026-04-19T14:04:19.932Z</time></trkpt><trkpt lat="44.333989791478736" lon="9.589274274098768"><ele>290.25</ele><time>2026-04-19T14:04:20.932Z</time></trkpt><trkpt lat="44.3340817703981" lon="9.589168462301112"><ele>291.5</ele><time>2026-04-19T14:04:21.932Z</time></trkpt><trkpt lat="44.33417718512656" lon="9.589060062823942"><ele>292.75</ele><time>2026-04-19T14:04:22.932Z</time></trkpt><trkpt lat="44.33425658937941" lon="9.588957659304683"><ele>294.0</ele><time>2026-04-19T14:04:23.932Z</time></trkpt><trkpt lat="44.334313080123145" lon="9.58884029852956"><ele>294.0</ele><time>2026-04-19T14:04:24.932Z</time></trkpt><trkpt lat="44.3343539780233" lon="9.58869894161478"><ele>294.0</ele><time>2026-04-19T14:04:25.932Z</time></trkpt><trkpt lat="44.33438445547738" lon="9.588544207502096"><ele>294.0</ele><time>2026-04-19T14:04:26.932Z</time></trkpt><trkpt lat="44.334400615747626" lon="9.588402221644737"><ele>294.0</ele><time>2026-04-19T14:04:27.932Z</time></trkpt><trkpt lat="44.334398497071085" lon="9.588260969396075"><ele>294.0</ele><time>2026-04-19T14:04:28.932Z</time></trkpt><trkpt lat="44.33436400036276" lon="9.588125715740938"><ele>295.0</ele><time>2026-04-19T14:04:29.932Z</time></trkpt><trkpt lat="44.33430013715909" lon="9.587989093393322"><ele>296.0</ele><time>2026-04-19T14:04:30.932Z</time></trkpt><trkpt lat="44.334205792872815" lon="9.587835568285179"><ele>297.0</ele><time>2026-04-19T14:04:31.932Z</time></trkpt><trkpt lat="44.33409840831314" lon="9.587667270269678"><ele>298.0</ele><time>2026-04-19T14:04:32.932Z</time></trkpt><trkpt lat="44.333988826525136" lon="9.587482126764604"><ele>298.0</ele><time>2026-04-19T14:04:33.932Z</time></trkpt><trkpt lat="44.33389040524473" lon="9.58728702148957"><ele>298.0</ele><time>2026-04-19T14:04:34.932Z</time></trkpt><trkpt lat="44.33380562445052" lon="9.58710308820901"><ele>298.0</ele><time>2026-04-19T14:04:35.932Z</time></trkpt><trkpt lat="44.33374198423809" lon="9.586941824523493"><ele>304.25</ele><time>2026-04-19T14:04:36.932Z</time></trkpt><trkpt lat="44.333682596507025" lon="9.58677838406201"><ele>310.5</ele><time>2026-04-19T14:04:37.932Z</time></trkpt><trkpt lat="44.33363559071724" lon="9.586598952493485"><ele>316.75</ele><time>2026-04-19T14:04:38.932Z</time></trkpt><trkpt lat="44.333603191762975" lon="9.58640737905078"><ele>323.0</ele><time>2026-04-19T14:04:39.932Z</time></trkpt><trkpt lat="44.333576066455876" lon="9.586213031291294"><ele>324.0</ele><time>2026-04-19T14:04:40.932Z</time></trkpt><trkpt lat="44.33356011536708" lon="9.58601381156215"><ele>325.0</ele><time>2026-04-19T14:04:41.93Z</time></trkpt><trkpt lat="44.33355354794508" lon="9.585808556251346"><ele>326.0</ele><time>2026-04-19T14:04:42.931Z</time></trkpt><trkpt lat="44.333537660314185" lon="9.585620463551008"><ele>327.0</ele><time>2026-04-19T14:04:43.931Z</time></trkpt><trkpt lat="44.33351153685649" lon="9.585437613048216"><ele>325.3333333333333</ele><time>2026-04-19T14:04:44.931Z</time></trkpt><trkpt lat="44.33346653657984" lon="9.585246257096772"><ele>323.66666666666663</ele><time>2026-04-19T14:04:45.93Z</time></trkpt><trkpt lat="44.33340473799701" lon="9.585041874473244"><ele>322.0</ele><time>2026-04-19T14:04:46.93Z</time></trkpt><trkpt lat="44.33333290935026" lon="9.58483154015829"><ele>322.0</ele><time>2026-04-19T14:04:47.931Z</time></trkpt><trkpt lat="44.33326869180946" lon="9.584636491752514"><ele>322.0</ele><time>2026-04-19T14:04:48.93Z</time></trkpt><trkpt lat="44.333216632337326" lon="9.584473695150711"><ele>322.0</ele><time>2026-04-19T14:04:49.93Z</time></trkpt><trkpt lat="44.33317444037044" lon="9.5843402090147"><ele>322.0</ele><time>2026-04-19T14:04:50.93Z</time></trkpt><trkpt lat="44.3331316510528" lon="9.584238123995728"><ele>321.66666666666663</ele><time>2026-04-19T14:04:51.931Z</time></trkpt><trkpt lat="44.33307186561814" lon="9.584181731001374"><ele>321.3333333333333</ele><time>2026-04-19T14:04:52.931Z</time></trkpt><trkpt lat="44.33300268194761" lon="9.584200420660109"><ele>321.0</ele><time>2026-04-19T14:04:53.93Z</time></trkpt><trkpt lat="44.332961878385895" lon="9.584279611381293"><ele>320.6666666666667</ele><time>2026-04-19T14:04:54.931Z</time></trkpt><trkpt lat="44.33296773106228" lon="9.58438988879948"><ele>320.33333333333337</ele><time>2026-04-19T14:04:55.931Z</time></trkpt><trkpt lat="44.33299127942067" lon="9.584524165343423"><ele>320.0</ele><time>2026-04-19T14:04:56.931Z</time></trkpt><trkpt lat="44.33301144341266" lon="9.584678045153213"><ele>320.5</ele><time>2026-04-19T14:04:57.931Z</time></trkpt><trkpt lat="44.333031204804186" lon="9.584858802770961"><ele>321.0</ele><time>2026-04-19T14:04:58.931Z</time></trkpt><trkpt lat="44.33305274625117" lon="9.585059628024913"><ele>321.5</ele><time>2026-04-19T14:04:59.931Z</time></trkpt><trkpt lat="44.333076981981705" lon="9.585297011989093"><ele>322.0</ele><time>2026-04-19T14:05:00.931Z</time></trkpt><trkpt lat="44.33310209440115" lon="9.585506716987751"><ele>323.25</ele><time>2026-04-19T14:05:01.931Z</time></trkpt><trkpt lat="44.333136171513495" lon="9.585680250916324"><ele>324.5</ele><time>2026-04-19T14:05:02.931Z</time></trkpt><trkpt lat="44.33316362148188" lon="9.58583567227533"><ele>325.75</ele><time>2026-04-19T14:05:03.931Z</time></trkpt><trkpt lat="44.33315733636687" lon="9.585988849441787"><ele>327.0</ele><time>2026-04-19T14:05:04.931Z</time></trkpt><trkpt lat="44.33313252413204" lon="9.58614702952023"><ele>326.3333333333333</ele><time>2026-04-19T14:05:05.931Z</time></trkpt><trkpt lat="44.33309854683258" lon="9.586268826084964"><ele>325.6666666666667</ele><time>2026-04-19T14:05:06.931Z</time></trkpt><trkpt lat="44.33305325299822" lon="9.586367588240185"><ele>325.0</ele><time>2026-04-19T14:05:07.931Z</time></trkpt><trkpt lat="44.333004937378504" lon="9.58644105244619"><ele>324.33333333333337</ele><time>2026-04-19T14:05:08.931Z</time></trkpt><trkpt lat="44.332942203706615" lon="9.586465937228699"><ele>323.6666666666667</ele><time>2026-04-19T14:05:09.931Z</time></trkpt><trkpt lat="44.33287763105229" lon="9.586418751368019"><ele>323.0</ele><time>2026-04-19T14:05:10.931Z</time></trkpt><trkpt lat="44.332846567215334" lon="9.586312530650263"><ele>326.33333333333337</ele><time>2026-04-19T14:05:11.931Z</time></trkpt><trkpt lat="44.33287432780209" lon="9.586220082841638"><ele>329.6666666666667</ele><time>2026-04-19T14:05:12.931Z</time></trkpt><trkpt lat="44.332921022895206" lon="9.586121559941871"><ele>333.0</ele><time>2026-04-19T14:05:13.931Z</time></trkpt><trkpt lat="44.33295898974046" lon="9.586005118771675"><ele>336.3333333333333</ele><time>2026-04-19T14:05:14.931Z</time></trkpt><trkpt lat="44.332957984645226" lon="9.585887806512813"><ele>339.66666666666663</ele><time>2026-04-19T14:05:15.931Z</time></trkpt><trkpt lat="44.332911479661455" lon="9.585783304123078"><ele>343.0</ele><time>2026-04-19T14:05:16.931Z</time></trkpt><trkpt lat="44.33283738314336" lon="9.585694900503512"><ele>343.25</ele><time>2026-04-19T14:05:17.931Z</time></trkpt><trkpt lat="44.3327446163686" lon="9.5855996024613"><ele>343.5</ele><time>2026-04-19T14:05:18.931Z</time></trkpt><trkpt lat="44.33264481547577" lon="9.585485671217402"><ele>343.75</ele><time>2026-04-19T14:05:19.931Z</time></trkpt><trkpt lat="44.332538800997646" lon="9.585356683249751"><ele>344.0</ele><time>2026-04-19T14:05:20.931Z</time></trkpt><trkpt lat="44.33242719221095" lon="9.585199463822832"><ele>344.0</ele><time>2026-04-19T14:05:21.931Z</time></trkpt><trkpt lat="44.33231164487653" lon="9.58503860784896"><ele>344.0</ele><time>2026-04-19T14:05:22.931Z</time></trkpt><trkpt lat="44.33220205404953" lon="9.584881856914496"><ele>344.0</ele><time>2026-04-19T14:05:23.931Z</time></trkpt><trkpt lat="44.33211216201493" lon="9.584748509062011"><ele>346.25</ele><time>2026-04-19T14:05:24.931Z</time></trkpt><trkpt lat="44.33202207367832" lon="9.584636519205837"><ele>348.5</ele><time>2026-04-19T14:05:25.931Z</time></trkpt><trkpt lat="44.331920182339296" lon="9.584534104053494"><ele>350.75</ele><time>2026-04-19T14:05:26.931Z</time></trkpt><trkpt lat="44.331808017425125" lon="9.584442843539614"><ele>353.0</ele><time>2026-04-19T14:05:27.931Z</time></trkpt><trkpt lat="44.331692727864436" lon="9.58437963875127"><ele>353.0</ele><time>2026-04-19T14:05:28.931Z</time></trkpt><trkpt lat="44.33158926743136" lon="9.58433866476098"><ele>353.0</ele><time>2026-04-19T14:05:29.931Z</time></trkpt><trkpt lat="44.331489046701506" lon="9.584324209363263"><ele>353.0</ele><time>2026-04-19T14:05:30.931Z</time></trkpt><trkpt lat="44.33140340952608" lon="9.584330120288149"><ele>353.0</ele><time>2026-04-19T14:05:31.931Z</time></trkpt><trkpt lat="44.33132876664463" lon="9.584332599879874"><ele>353.0</ele><time>2026-04-19T14:05:32.931Z</time></trkpt><trkpt lat="44.33124220867371" lon="9.584083752993564"><ele>357.25</ele><time>2026-04-19T14:05:35.931Z</time></trkpt><trkpt lat="44.331251412987214" lon="9.583933291764058"><ele>361.5</ele><time>2026-04-19T14:05:36.931Z</time></trkpt><trkpt lat="44.33124718145259" lon="9.583768123826953"><ele>365.75</ele><time>2026-04-19T14:05:37.931Z</time></trkpt><trkpt lat="44.331242251813485" lon="9.583592785825855"><ele>370.0</ele><time>2026-04-19T14:05:38.931Z</time></trkpt><trkpt lat="44.33123717642267" lon="9.583421037283765"><ele>370.0</ele><time>2026-04-19T14:05:39.931Z</time></trkpt><trkpt lat="44.33122571726463" lon="9.583266344945008"><ele>370.0</ele><time>2026-04-19T14:05:40.931Z</time></trkpt><trkpt lat="44.331182730393365" lon="9.583116999013486"><ele>370.0</ele><time>2026-04-19T14:05:41.931Z</time></trkpt><trkpt lat="44.33111307763827" lon="9.58296961104588"><ele>370.0</ele><time>2026-04-19T14:05:42.931Z</time></trkpt><trkpt lat="44.33104567624974" lon="9.582804732733278"><ele>369.75</ele><time>2026-04-19T14:05:43.931Z</time></trkpt><trkpt lat="44.33101364758872" lon="9.582618789867738"><ele>369.5</ele><time>2026-04-19T14:05:44.931Z</time></trkpt><trkpt lat="44.331005085348146" lon="9.582423386869628"><ele>369.25</ele><time>2026-04-19T14:05:45.931Z</time></trkpt><trkpt lat="44.330998800466794" lon="9.582213479391735"><ele>369.0</ele><time>2026-04-19T14:05:46.931Z</time></trkpt><trkpt lat="44.33100831530821" lon="9.581993869273948"><ele>369.0</ele><time>2026-04-19T14:05:47.931Z</time></trkpt><trkpt lat="44.33102104233592" lon="9.58177420933909"><ele>369.0</ele><time>2026-04-19T14:05:48.931Z</time></trkpt><trkpt lat="44.33102004774851" lon="9.581579638370622"><ele>369.0</ele><time>2026-04-19T14:05:49.931Z</time></trkpt><trkpt lat="44.33100783337445" lon="9.581413519995587"><ele>369.0</ele><time>2026-04-19T14:05:50.931Z</time></trkpt><trkpt lat="44.330966389471165" lon="9.581250136431146"><ele>368.25</ele><time>2026-04-19T14:05:51.931Z</time></trkpt><trkpt lat="44.33089770366321" lon="9.581091216557292"><ele>367.5</ele><time>2026-04-19T14:05:52.931Z</time></trkpt><trkpt lat="44.33081724795505" lon="9.580922093113792"><ele>366.75</ele><time>2026-04-19T14:05:53.931Z</time></trkpt><trkpt lat="44.330728239147504" lon="9.580774191748556"><ele>366.0</ele><time>2026-04-19T14:05:54.931Z</time></trkpt><trkpt lat="44.330614950821385" lon="9.580649765494906"><ele>367.75</ele><time>2026-04-19T14:05:55.931Z</time></trkpt><trkpt lat="44.330513646322906" lon="9.580517503789867"><ele>369.5</ele><time>2026-04-19T14:05:56.931Z</time></trkpt><trkpt lat="44.33043460084292" lon="9.580353294236511"><ele>371.25</ele><time>2026-04-19T14:05:57.931Z</time></trkpt><trkpt lat="44.33036470830201" lon="9.580212546634918"><ele>373.0</ele><time>2026-04-19T14:05:58.931Z</time></trkpt><trkpt lat="44.330295318693516" lon="9.580106702941238"><ele>373.0</ele><time>2026-04-19T14:05:59.931Z</time></trkpt><trkpt lat="44.33022000913757" lon="9.58004728569279"><ele>373.0</ele><time>2026-04-19T14:06:00.931Z</time></trkpt><trkpt lat="44.33012720608272" lon="9.58002450559892"><ele>373.0</ele><time>2026-04-19T14:06:01.931Z</time></trkpt><trkpt lat="44.330019547407765" lon="9.580007866128263"><ele>373.0</ele><time>2026-04-19T14:06:02.931Z</time></trkpt><trkpt lat="44.32989540490452" lon="9.580016028521385"><ele>373.0</ele><time>2026-04-19T14:06:03.931Z</time></trkpt><trkpt lat="44.329758167946146" lon="9.580058867333891"><ele>374.4</ele><time>2026-04-19T14:06:04.931Z</time></trkpt><trkpt lat="44.32962040373957" lon="9.580095202860878"><ele>375.79999999999995</ele><time>2026-04-19T14:06:05.931Z</time></trkpt><trkpt lat="44.32949846313966" lon="9.580105036671663"><ele>377.2</ele><time>2026-04-19T14:06:06.931Z</time></trkpt><trkpt lat="44.32939703800201" lon="9.580106940953009"><ele>378.6</ele><time>2026-04-19T14:06:07.931Z</time></trkpt><trkpt lat="44.32931717773455" lon="9.580097968854888"><ele>380.0</ele><time>2026-04-19T14:06:08.931Z</time></trkpt><trkpt lat="44.32924739761178" lon="9.580039456994001"><ele>380.0</ele><time>2026-04-19T14:06:09.931Z</time></trkpt><trkpt lat="44.32920065007735" lon="9.57992514298077"><ele>380.0</ele><time>2026-04-19T14:06:10.931Z</time></trkpt><trkpt lat="44.32916786082517" lon="9.579770405887537"><ele>380.0</ele><time>2026-04-19T14:06:11.931Z</time></trkpt><trkpt lat="44.32913730638183" lon="9.579595285720593"><ele>380.0</ele><time>2026-04-19T14:06:12.931Z</time></trkpt><trkpt lat="44.32913018455933" lon="9.579407811315352"><ele>378.75</ele><time>2026-04-19T14:06:13.931Z</time></trkpt><trkpt lat="44.32912685814131" lon="9.57921750052487"><ele>377.5</ele><time>2026-04-19T14:06:14.931Z</time></trkpt><trkpt lat="44.32911389725221" lon="9.579028000954368"><ele>376.25</ele><time>2026-04-19T14:06:15.931Z</time></trkpt><trkpt lat="44.32909452679154" lon="9.57886866202139"><ele>375.0</ele><time>2026-04-19T14:06:16.931Z</time></trkpt><trkpt lat="44.329060403164235" lon="9.578745144764635"><ele>374.5</ele><time>2026-04-19T14:06:17.931Z</time></trkpt><trkpt lat="44.3290011482019" lon="9.578666615635079"><ele>374.0</ele><time>2026-04-19T14:06:18.931Z</time></trkpt><trkpt lat="44.32892757901692" lon="9.578638671732532"><ele>373.5</ele><time>2026-04-19T14:06:19.931Z</time></trkpt><trkpt lat="44.32884791806275" lon="9.578668541021475"><ele>373.0</ele><time>2026-04-19T14:06:20.931Z</time></trkpt><trkpt lat="44.32879053476518" lon="9.578765677596095"><ele>372.5</ele><time>2026-04-19T14:06:21.931Z</time></trkpt><trkpt lat="44.32875475827395" lon="9.578875320623382"><ele>372.0</ele><time>2026-04-19T14:06:22.931Z</time></trkpt><trkpt lat="44.328722925851444" lon="9.578986693894425"><ele>373.8</ele><time>2026-04-19T14:06:23.931Z</time></trkpt><trkpt lat="44.32867340957998" lon="9.579061232721578"><ele>375.6</ele><time>2026-04-19T14:06:24.931Z</time></trkpt><trkpt lat="44.32859295129503" lon="9.579086676133295"><ele>377.40000000000003</ele><time>2026-04-19T14:06:25.931Z</time></trkpt><trkpt lat="44.32850711189092" lon="9.57905155492905"><ele>379.20000000000005</ele><time>2026-04-19T14:06:26.931Z</time></trkpt><trkpt lat="44.32841200791399" lon="9.57898533405752"><ele>381.0</ele><time>2026-04-19T14:06:27.931Z</time></trkpt><trkpt lat="44.32830874567218" lon="9.578943920407474"><ele>381.0</ele><time>2026-04-19T14:06:28.931Z</time></trkpt><trkpt lat="44.3282055661657" lon="9.578957198882796"><ele>381.0</ele><time>2026-04-19T14:06:29.931Z</time></trkpt><trkpt lat="44.32811908692682" lon="9.579030675433803"><ele>381.0</ele><time>2026-04-19T14:06:30.931Z</time></trkpt><trkpt lat="44.32804804434542" lon="9.579150368711373"><ele>381.0</ele><time>2026-04-19T14:06:31.931Z</time></trkpt><trkpt lat="44.327986100775426" lon="9.579264624212433"><ele>381.0</ele><time>2026-04-19T14:06:32.931Z</time></trkpt><trkpt lat="44.327906402721936" lon="9.579367711482899"><ele>381.20000000000005</ele><time>2026-04-19T14:06:33.931Z</time></trkpt><trkpt lat="44.32780384392014" lon="9.579425297180551"><ele>381.40000000000003</ele><time>2026-04-19T14:06:34.931Z</time></trkpt><trkpt lat="44.3277077219779" lon="9.579414775553628"><ele>381.6</ele><time>2026-04-19T14:06:35.931Z</time></trkpt><trkpt lat="44.32762568965647" lon="9.579350736987173"><ele>381.8</ele><time>2026-04-19T14:06:36.931Z</time></trkpt><trkpt lat="44.327550480523435" lon="9.57925212314108"><ele>382.0</ele><time>2026-04-19T14:06:37.931Z</time></trkpt><trkpt lat="44.32745765314468" lon="9.579169375533121"><ele>382.0</ele><time>2026-04-19T14:06:38.931Z</time></trkpt><trkpt lat="44.32735398830124" lon="9.579108647371497"><ele>382.0</ele><time>2026-04-19T14:06:39.931Z</time></trkpt><trkpt lat="44.32724048727912" lon="9.579092739924825"><ele>382.0</ele><time>2026-04-19T14:06:40.931Z</time></trkpt><trkpt lat="44.32712770935567" lon="9.57909901870314"><ele>382.0</ele><time>2026-04-19T14:06:41.931Z</time></trkpt><trkpt lat="44.32701645184443" lon="9.579136227806393"><ele>381.40000000000003</ele><time>2026-04-19T14:06:42.931Z</time></trkpt><trkpt lat="44.326915107140465" lon="9.579206855947026"><ele>380.8</ele><time>2026-04-19T14:06:43.932Z</time></trkpt><trkpt lat="44.326838631375985" lon="9.579299444412031"><ele>380.2</ele><time>2026-04-19T14:06:44.932Z</time></trkpt><trkpt lat="44.32678632488814" lon="9.579406062339729"><ele>379.6</ele><time>2026-04-19T14:06:45.932Z</time></trkpt><trkpt lat="44.32674567124802" lon="9.579526350902515"><ele>379.0</ele><time>2026-04-19T14:06:46.932Z</time></trkpt><trkpt lat="44.326687937038855" lon="9.579610749627175"><ele>382.5</ele><time>2026-04-19T14:06:47.93Z</time></trkpt><trkpt lat="44.32659484236231" lon="9.57966407568984"><ele>386.0</ele><time>2026-04-19T14:06:48.93Z</time></trkpt><trkpt lat="44.32648597103509" lon="9.579701792258152"><ele>389.5</ele><time>2026-04-19T14:06:49.93Z</time></trkpt><trkpt lat="44.32637279055143" lon="9.579742987069494"><ele>393.0</ele><time>2026-04-19T14:06:50.93Z</time></trkpt><trkpt lat="44.32625521172406" lon="9.57980669372491"><ele>394.4</ele><time>2026-04-19T14:06:51.929Z</time></trkpt><trkpt lat="44.32614723481137" lon="9.57985963037686"><ele>395.79999999999995</ele><time>2026-04-19T14:06:52.929Z</time></trkpt><trkpt lat="44.32605320195858" lon="9.579902964207495"><ele>397.2</ele><time>2026-04-19T14:06:53.93Z</time></trkpt><trkpt lat="44.32597158012961" lon="9.579919011832821"><ele>398.6</ele><time>2026-04-19T14:06:54.93Z</time></trkpt><trkpt lat="44.3259005317766" lon="9.579877780691866"><ele>400.0</ele><time>2026-04-19T14:06:55.93Z</time></trkpt><trkpt lat="44.325841535773165" lon="9.579789546709382"><ele>400.0</ele><time>2026-04-19T14:06:56.93Z</time></trkpt><trkpt lat="44.32578036838809" lon="9.579670529011285"><ele>400.0</ele><time>2026-04-19T14:06:57.929Z</time></trkpt><trkpt lat="44.325725174474854" lon="9.579521123977027"><ele>400.0</ele><time>2026-04-19T14:06:58.929Z</time></trkpt><trkpt lat="44.32569120904534" lon="9.579352866078752"><ele>400.0</ele><time>2026-04-19T14:06:59.929Z</time></trkpt><trkpt lat="44.32567808667698" lon="9.57916639949746"><ele>396.75</ele><time>2026-04-19T14:07:00.93Z</time></trkpt><trkpt lat="44.32567719337278" lon="9.578969846999497"><ele>393.5</ele><time>2026-04-19T14:07:01.93Z</time></trkpt><trkpt lat="44.32567906154892" lon="9.578788185312696"><ele>390.25</ele><time>2026-04-19T14:07:02.93Z</time></trkpt><trkpt lat="44.32568554357832" lon="9.578628894217111"><ele>387.0</ele><time>2026-04-19T14:07:03.93Z</time></trkpt><trkpt lat="44.32566908226166" lon="9.578486908926498"><ele>386.40000000000003</ele><time>2026-04-19T14:07:04.93Z</time></trkpt><trkpt lat="44.32561518471457" lon="9.578376762683556"><ele>385.8</ele><time>2026-04-19T14:07:05.93Z</time></trkpt><trkpt lat="44.32554156424908" lon="9.578326881893485"><ele>385.2</ele><time>2026-04-19T14:07:06.93Z</time></trkpt><trkpt lat="44.32544490414097" lon="9.578283720177891"><ele>384.6</ele><time>2026-04-19T14:07:07.93Z</time></trkpt><trkpt lat="44.32535861697274" lon="9.578232067742938"><ele>384.0</ele><time>2026-04-19T14:07:08.93Z</time></trkpt><trkpt lat="44.32530209983529" lon="9.578150793134057"><ele>384.0</ele><time>2026-04-19T14:07:09.93Z</time></trkpt><trkpt lat="44.325259866956074" lon="9.578041975435637"><ele>384.0</ele><time>2026-04-19T14:07:10.93Z</time></trkpt><trkpt lat="44.32521050789962" lon="9.577940574864341"><ele>384.0</ele><time>2026-04-19T14:07:11.93Z</time></trkpt><trkpt lat="44.32513423057631" lon="9.577867812589766"><ele>384.0</ele><time>2026-04-19T14:07:12.93Z</time></trkpt><trkpt lat="44.32503372471552" lon="9.577854636322709"><ele>384.0</ele><time>2026-04-19T14:07:13.93Z</time></trkpt><trkpt lat="44.32491437243769" lon="9.577880572656394"><ele>384.0</ele><time>2026-04-19T14:07:14.93Z</time></trkpt><trkpt lat="44.32478882274701" lon="9.577920382120109"><ele>384.0</ele><time>2026-04-19T14:07:15.93Z</time></trkpt><trkpt lat="44.32467396544687" lon="9.577951788492573"><ele>384.0</ele><time>2026-04-19T14:07:16.93Z</time></trkpt><trkpt lat="44.32457179005329" lon="9.577978050423495"><ele>384.0</ele><time>2026-04-19T14:07:17.93Z</time></trkpt><trkpt lat="44.324491569430876" lon="9.577977968565854"><ele>384.0</ele><time>2026-04-19T14:07:18.93Z</time></trkpt><trkpt lat="44.32442947084169" lon="9.57793067111269"><ele>383.2</ele><time>2026-04-19T14:07:19.93Z</time></trkpt><trkpt lat="44.3243925755328" lon="9.577841415476582"><ele>382.4</ele><time>2026-04-19T14:07:20.93Z</time></trkpt><trkpt lat="44.324385827849376" lon="9.577708458652427"><ele>381.6</ele><time>2026-04-19T14:07:21.93Z</time></trkpt><trkpt lat="44.324407381328335" lon="9.577564074003094"><ele>380.8</ele><time>2026-04-19T14:07:22.93Z</time></trkpt><trkpt lat="44.324448843920884" lon="9.577400134251885"><ele>380.0</ele><time>2026-04-19T14:07:23.93Z</time></trkpt><trkpt lat="44.32449360624003" lon="9.57724077884191"><ele>380.0</ele><time>2026-04-19T14:07:24.93Z</time></trkpt><trkpt lat="44.324535934262755" lon="9.577096529387664"><ele>380.0</ele><time>2026-04-19T14:07:25.93Z</time></trkpt><trkpt lat="44.324566049613054" lon="9.576966051009366"><ele>380.0</ele><time>2026-04-19T14:07:26.93Z</time></trkpt><trkpt lat="44.32457066401838" lon="9.576854023869945"><ele>380.0</ele><time>2026-04-19T14:07:27.93Z</time></trkpt><trkpt lat="44.32454436428845" lon="9.576753970825617"><ele>380.0</ele><time>2026-04-19T14:07:28.93Z</time></trkpt><trkpt lat="44.32448437389412" lon="9.576672123880973"><ele>375.5</ele><time>2026-04-19T14:07:29.93Z</time></trkpt><trkpt lat="44.324387040502515" lon="9.57663503515812"><ele>371.0</ele><time>2026-04-19T14:07:30.93Z</time></trkpt><trkpt lat="44.32427545629096" lon="9.57663813935534"><ele>366.5</ele><time>2026-04-19T14:07:31.93Z</time></trkpt><trkpt lat="44.324145696742775" lon="9.576650370850423"><ele>362.0</ele><time>2026-04-19T14:07:32.93Z</time></trkpt><trkpt lat="44.3240032694117" lon="9.576640213751814"><ele>366.5</ele><time>2026-04-19T14:07:33.93Z</time></trkpt><trkpt lat="44.32385535411855" lon="9.576612892848734"><ele>371.0</ele><time>2026-04-19T14:07:34.93Z</time></trkpt><trkpt lat="44.32372059896321" lon="9.57657920185477"><ele>375.5</ele><time>2026-04-19T14:07:35.93Z</time></trkpt><trkpt lat="44.32359533919049" lon="9.576516937753945"><ele>380.0</ele><time>2026-04-19T14:07:36.93Z</time></trkpt><trkpt lat="44.323477957989404" lon="9.57641866714213"><ele>380.0</ele><time>2026-04-19T14:07:37.93Z</time></trkpt><trkpt lat="44.32336436705104" lon="9.576317902118742"><ele>380.0</ele><time>2026-04-19T14:07:38.93Z</time></trkpt><trkpt lat="44.32324094584683" lon="9.576250664416918"><ele>380.0</ele><time>2026-04-19T14:07:39.93Z</time></trkpt><trkpt lat="44.32312105103373" lon="9.576194298629135"><ele>380.0</ele><time>2026-04-19T14:07:40.93Z</time></trkpt><trkpt lat="44.32301872070668" lon="9.576117864143988"><ele>380.25</ele><time>2026-04-19T14:07:41.93Z</time></trkpt><trkpt lat="44.322938745795206" lon="9.576009510822805"><ele>380.5</ele><time>2026-04-19T14:07:42.93Z</time></trkpt><trkpt lat="44.32287649959912" lon="9.575868736248541"><ele>380.75</ele><time>2026-04-19T14:07:43.93Z</time></trkpt><trkpt lat="44.322840646639904" lon="9.575694943343533"><ele>381.0</ele><time>2026-04-19T14:07:44.93Z</time></trkpt><trkpt lat="44.322827622760094" lon="9.575507112655414"><ele>375.0</ele><time>2026-04-19T14:07:45.93Z</time></trkpt><trkpt lat="44.322814402860864" lon="9.575321304231434"><ele>369.0</ele><time>2026-04-19T14:07:46.93Z</time></trkpt><trkpt lat="44.32279490184945" lon="9.575148457154931"><ele>363.0</ele><time>2026-04-19T14:07:47.93Z</time></trkpt><trkpt lat="44.32276296174069" lon="9.574989955120408"><ele>357.0</ele><time>2026-04-19T14:07:48.93Z</time></trkpt><trkpt lat="44.322710926804334" lon="9.574853271476176"><ele>357.0</ele><time>2026-04-19T14:07:49.93Z</time></trkpt><trkpt lat="44.32262982697771" lon="9.574742605963497"><ele>357.0</ele><time>2026-04-19T14:07:50.93Z</time></trkpt><trkpt lat="44.32252330255124" lon="9.574646555166575"><ele>357.0</ele><time>2026-04-19T14:07:51.93Z</time></trkpt><trkpt lat="44.32240283505568" lon="9.574585002545946"><ele>357.0</ele><time>2026-04-19T14:07:52.93Z</time></trkpt><trkpt lat="44.32226673678447" lon="9.574557367838693"><ele>358.6666666666667</ele><time>2026-04-19T14:07:53.93Z</time></trkpt><trkpt lat="44.322117840715734" lon="9.574540065812593"><ele>360.33333333333337</ele><time>2026-04-19T14:07:54.93Z</time></trkpt><trkpt lat="44.32196440406603" lon="9.574517783499536"><ele>362.0</ele><time>2026-04-19T14:07:55.93Z</time></trkpt><trkpt lat="44.32180953555126" lon="9.574497898489424"><ele>362.25</ele><time>2026-04-19T14:07:56.93Z</time></trkpt><trkpt lat="44.32166529760374" lon="9.574496836077085"><ele>362.5</ele><time>2026-04-19T14:07:57.93Z</time></trkpt><trkpt lat="44.32151640394566" lon="9.574521288209006"><ele>362.75</ele><time>2026-04-19T14:07:58.93Z</time></trkpt><trkpt lat="44.321370660266126" lon="9.574560576778712"><ele>363.0</ele><time>2026-04-19T14:07:59.93Z</time></trkpt><trkpt lat="44.32123313587324" lon="9.574596362625744"><ele>363.0</ele><time>2026-04-19T14:08:00.93Z</time></trkpt><trkpt lat="44.32111259987081" lon="9.574635250816263"><ele>363.0</ele><time>2026-04-19T14:08:01.93Z</time></trkpt><trkpt lat="44.321003432843945" lon="9.574663177984368"><ele>363.0</ele><time>2026-04-19T14:08:02.93Z</time></trkpt><trkpt lat="44.32090110299213" lon="9.574640255049609"><ele>363.0</ele><time>2026-04-19T14:08:03.93Z</time></trkpt><trkpt lat="44.32078671108964" lon="9.574583070313048"><ele>357.75</ele><time>2026-04-19T14:08:04.93Z</time></trkpt><trkpt lat="44.320659565205546" lon="9.574518106187135"><ele>352.5</ele><time>2026-04-19T14:08:05.93Z</time></trkpt><trkpt lat="44.320527578412246" lon="9.574447761318293"><ele>347.25</ele><time>2026-04-19T14:08:06.93Z</time></trkpt><trkpt lat="44.32039861702287" lon="9.574395447190337"><ele>342.0</ele><time>2026-04-19T14:08:07.93Z</time></trkpt><trkpt lat="44.32027996037191" lon="9.574357661339002"><ele>342.0</ele><time>2026-04-19T14:08:08.93Z</time></trkpt><trkpt lat="44.32015703972664" lon="9.574341071370942"><ele>342.0</ele><time>2026-04-19T14:08:09.93Z</time></trkpt><trkpt lat="44.320027334305884" lon="9.574361698128813"><ele>342.0</ele><time>2026-04-19T14:08:10.93Z</time></trkpt><trkpt lat="44.3198950581071" lon="9.574422331714588"><ele>342.0</ele><time>2026-04-19T14:08:11.93Z</time></trkpt><trkpt lat="44.319765016108164" lon="9.574507432320667"><ele>344.25</ele><time>2026-04-19T14:08:12.93Z</time></trkpt><trkpt lat="44.319635953505504" lon="9.574594987353237"><ele>346.5</ele><time>2026-04-19T14:08:13.93Z</time></trkpt><trkpt lat="44.31950975945551" lon="9.57467197015339"><ele>348.75</ele><time>2026-04-19T14:08:14.93Z</time></trkpt><trkpt lat="44.31938033853675" lon="9.574726379596573"><ele>351.0</ele><time>2026-04-19T14:08:15.93Z</time></trkpt><trkpt lat="44.31923988070779" lon="9.574746975347903"><ele>351.0</ele><time>2026-04-19T14:08:16.93Z</time></trkpt><trkpt lat="44.31909542513168" lon="9.574735444050914"><ele>351.0</ele><time>2026-04-19T14:08:17.93Z</time></trkpt><trkpt lat="44.31895046188798" lon="9.574693927144313"><ele>351.0</ele><time>2026-04-19T14:08:18.93Z</time></trkpt><trkpt lat="44.31880538760788" lon="9.57462726147102"><ele>351.0</ele><time>2026-04-19T14:08:19.93Z</time></trkpt><trkpt lat="44.3186585858712" lon="9.574541150038781"><ele>352.3333333333333</ele><time>2026-04-19T14:08:20.93Z</time></trkpt><trkpt lat="44.31851314327895" lon="9.574445278815746"><ele>353.66666666666663</ele><time>2026-04-19T14:08:21.93Z</time></trkpt><trkpt lat="44.31838431313987" lon="9.57433545949463"><ele>355.0</ele><time>2026-04-19T14:08:22.93Z</time></trkpt><trkpt lat="44.31826400954209" lon="9.574205008810022"><ele>355.0</ele><time>2026-04-19T14:08:23.93Z</time></trkpt><trkpt lat="44.31816193296582" lon="9.574048517128395"><ele>355.0</ele><time>2026-04-19T14:08:24.93Z</time></trkpt><trkpt lat="44.31805842310511" lon="9.573893679483577"><ele>355.0</ele><time>2026-04-19T14:08:25.93Z</time></trkpt><trkpt lat="44.31793774959005" lon="9.573752488144315"><ele>356.66666666666663</ele><time>2026-04-19T14:08:26.93Z</time></trkpt><trkpt lat="44.317808494976475" lon="9.573624935216287"><ele>358.3333333333333</ele><time>2026-04-19T14:08:27.93Z</time></trkpt><trkpt lat="44.31767505155674" lon="9.57351780741252"><ele>360.0</ele><time>2026-04-19T14:08:28.93Z</time></trkpt><trkpt lat="44.317543555524544" lon="9.573395932205322"><ele>360.0</ele><time>2026-04-19T14:08:29.93Z</time></trkpt><trkpt lat="44.31742708048687" lon="9.573260273943612"><ele>360.0</ele><time>2026-04-19T14:08:30.93Z</time></trkpt><trkpt lat="44.317311059823275" lon="9.573109422078579"><ele>360.0</ele><time>2026-04-19T14:08:31.93Z</time></trkpt><trkpt lat="44.317215248947804" lon="9.572972225510624"><ele>360.0</ele><time>2026-04-19T14:08:32.93Z</time></trkpt><trkpt lat="44.31712055082718" lon="9.572841474975649"><ele>357.75</ele><time>2026-04-19T14:08:33.93Z</time></trkpt><trkpt lat="44.31702418412799" lon="9.572705321544719"><ele>355.5</ele><time>2026-04-19T14:08:34.93Z</time></trkpt><trkpt lat="44.3169209622052" lon="9.572604527871958"><ele>353.25</ele><time>2026-04-19T14:08:35.93Z</time></trkpt><trkpt lat="44.316789642831075" lon="9.572529186802274"><ele>351.0</ele><time>2026-04-19T14:08:36.93Z</time></trkpt><trkpt lat="44.3166431016453" lon="9.572479429079655"><ele>351.0</ele><time>2026-04-19T14:08:37.93Z</time></trkpt><trkpt lat="44.31648104367231" lon="9.572432043158656"><ele>351.0</ele><time>2026-04-19T14:08:38.93Z</time></trkpt><trkpt lat="44.316329971003796" lon="9.572376774903681"><ele>351.0</ele><time>2026-04-19T14:08:39.93Z</time></trkpt><trkpt lat="44.31618600625197" lon="9.572321998363426"><ele>351.25</ele><time>2026-04-19T14:08:40.93Z</time></trkpt><trkpt lat="44.316039125421575" lon="9.572290537085134"><ele>351.5</ele><time>2026-04-19T14:08:41.93Z</time></trkpt><trkpt lat="44.31588469960892" lon="9.572290486249127"><ele>351.75</ele><time>2026-04-19T14:08:42.93Z</time></trkpt><trkpt lat="44.31574902861226" lon="9.572294870207454"><ele>352.0</ele><time>2026-04-19T14:08:43.93Z</time></trkpt><trkpt lat="44.31564071534405" lon="9.572300601206688"><ele>353.20000000000005</ele><time>2026-04-19T14:08:44.93Z</time></trkpt><trkpt lat="44.31555251419367" lon="9.57227476993528"><ele>354.4</ele><time>2026-04-19T14:08:45.93Z</time></trkpt><trkpt lat="44.31548036398755" lon="9.572207631743893"><ele>355.6</ele><time>2026-04-19T14:08:46.93Z</time></trkpt><trkpt lat="44.31541843000751" lon="9.572101131206425"><ele>356.79999999999995</ele><time>2026-04-19T14:08:47.93Z</time></trkpt><trkpt lat="44.31537602016312" lon="9.57194808008044"><ele>358.0</ele><time>2026-04-19T14:08:48.93Z</time></trkpt><trkpt lat="44.31531525247389" lon="9.571809376902287"><ele>358.0</ele><time>2026-04-19T14:08:49.93Z</time></trkpt><trkpt lat="44.31523244735049" lon="9.571686308093819"><ele>358.0</ele><time>2026-04-19T14:08:50.93Z</time></trkpt><trkpt lat="44.31513152318566" lon="9.571585754340232"><ele>358.0</ele><time>2026-04-19T14:08:51.93Z</time></trkpt><trkpt lat="44.31501314785545" lon="9.571502370085842"><ele>358.0</ele><time>2026-04-19T14:08:52.93Z</time></trkpt><trkpt lat="44.31488425461717" lon="9.571435566129065"><ele>358.0</ele><time>2026-04-19T14:08:53.928Z</time></trkpt><trkpt lat="44.314748864951355" lon="9.571385892774616"><ele>358.0</ele><time>2026-04-19T14:08:54.928Z</time></trkpt><trkpt lat="44.314614136181426" lon="9.571343238390925"><ele>358.0</ele><time>2026-04-19T14:08:55.928Z</time></trkpt><trkpt lat="44.3144836491328" lon="9.571308896698866"><ele>358.0</ele><time>2026-04-19T14:08:56.929Z</time></trkpt><trkpt lat="44.314360011976966" lon="9.571290188635544"><ele>359.25</ele><time>2026-04-19T14:08:57.928Z</time></trkpt><trkpt lat="44.31422412800503" lon="9.571311778681347"><ele>360.5</ele><time>2026-04-19T14:08:58.928Z</time></trkpt><trkpt lat="44.314087312831255" lon="9.571345500213186"><ele>361.75</ele><time>2026-04-19T14:08:59.929Z</time></trkpt><trkpt lat="44.31394659949764" lon="9.571357623841164"><ele>363.0</ele><time>2026-04-19T14:09:00.929Z</time></trkpt><trkpt lat="44.31379437572276" lon="9.571345495668075"><ele>363.0</ele><time>2026-04-19T14:09:01.929Z</time></trkpt><trkpt lat="44.31363325954512" lon="9.571317347956464"><ele>363.0</ele><time>2026-04-19T14:09:02.928Z</time></trkpt><trkpt lat="44.31346306266233" lon="9.571278173202817"><ele>363.0</ele><time>2026-04-19T14:09:03.928Z</time></trkpt><trkpt lat="44.313282405387845" lon="9.571246646344116"><ele>363.0</ele><time>2026-04-19T14:09:04.928Z</time></trkpt><trkpt lat="44.31309934593526" lon="9.571220656206075"><ele>363.0</ele><time>2026-04-19T14:09:05.928Z</time></trkpt><trkpt lat="44.31292747741892" lon="9.571192122298752"><ele>363.0</ele><time>2026-04-19T14:09:06.928Z</time></trkpt><trkpt lat="44.312777502408466" lon="9.571170728101036"><ele>365.75</ele><time>2026-04-19T14:09:07.928Z</time></trkpt><trkpt lat="44.31264169546683" lon="9.571151571136546"><ele>368.5</ele><time>2026-04-19T14:09:08.928Z</time></trkpt><trkpt lat="44.31251745438883" lon="9.571122924251132"><ele>371.25</ele><time>2026-04-19T14:09:09.928Z</time></trkpt><trkpt lat="44.31239391169136" lon="9.571071845395286"><ele>374.0</ele><time>2026-04-19T14:09:10.928Z</time></trkpt><trkpt lat="44.31227964113528" lon="9.570986270555037"><ele>373.25</ele><time>2026-04-19T14:09:11.928Z</time></trkpt><trkpt lat="44.31217607865979" lon="9.570866857090248"><ele>372.5</ele><time>2026-04-19T14:09:12.928Z</time></trkpt><trkpt lat="44.312041708972615" lon="9.570753184256578"><ele>371.75</ele><time>2026-04-19T14:09:13.928Z</time></trkpt><trkpt lat="44.31190857850148" lon="9.570635191990691"><ele>371.0</ele><time>2026-04-19T14:09:14.928Z</time></trkpt><trkpt lat="44.31179165246628" lon="9.570504215922622"><ele>371.0</ele><time>2026-04-19T14:09:15.928Z</time></trkpt><trkpt lat="44.31167293504156" lon="9.570361785371503"><ele>371.0</ele><time>2026-04-19T14:09:16.928Z</time></trkpt><trkpt lat="44.31153920717584" lon="9.570267739331884"><ele>371.0</ele><time>2026-04-19T14:09:17.928Z</time></trkpt><trkpt lat="44.31139839701885" lon="9.570172493536894"><ele>370.33333333333337</ele><time>2026-04-19T14:09:18.928Z</time></trkpt><trkpt lat="44.311268834196156" lon="9.570053198924144"><ele>369.6666666666667</ele><time>2026-04-19T14:09:19.928Z</time></trkpt><trkpt lat="44.311145713782494" lon="9.569917396459177"><ele>369.0</ele><time>2026-04-19T14:09:20.928Z</time></trkpt><trkpt lat="44.31103417291551" lon="9.569765947032812"><ele>369.0</ele><time>2026-04-19T14:09:21.928Z</time></trkpt><trkpt lat="44.3109408758118" lon="9.569602107622444"><ele>369.0</ele><time>2026-04-19T14:09:22.928Z</time></trkpt><trkpt lat="44.310856690041675" lon="9.56944918210177"><ele>369.0</ele><time>2026-04-19T14:09:23.928Z</time></trkpt><trkpt lat="44.31078789165652" lon="9.569286243007149"><ele>369.0</ele><time>2026-04-19T14:09:24.928Z</time></trkpt><trkpt lat="44.31073395103834" lon="9.569108697561562"><ele>368.75</ele><time>2026-04-19T14:09:25.928Z</time></trkpt><trkpt lat="44.3106796386721" lon="9.568917709286632"><ele>368.5</ele><time>2026-04-19T14:09:26.928Z</time></trkpt><trkpt lat="44.31062966690911" lon="9.56872677245256"><ele>368.25</ele><time>2026-04-19T14:09:27.928Z</time></trkpt><trkpt lat="44.310575268005316" lon="9.56855450698121"><ele>368.0</ele><time>2026-04-19T14:09:28.928Z</time></trkpt><trkpt lat="44.31053200693976" lon="9.568418725704504"><ele>368.0</ele><time>2026-04-19T14:09:29.928Z</time></trkpt><trkpt lat="44.31048847381526" lon="9.5682947269139"><ele>368.0</ele><time>2026-04-19T14:09:30.928Z</time></trkpt><trkpt lat="44.31042328650979" lon="9.568197739870385"><ele>368.0</ele><time>2026-04-19T14:09:31.928Z</time></trkpt><trkpt lat="44.31032899846802" lon="9.568123794136817"><ele>368.0</ele><time>2026-04-19T14:09:32.928Z</time></trkpt><trkpt lat="44.31020457181195" lon="9.568091437183133"><ele>368.0</ele><time>2026-04-19T14:09:33.928Z</time></trkpt><trkpt lat="44.31006354400886" lon="9.568055572746404"><ele>368.0</ele><time>2026-04-19T14:09:34.928Z</time></trkpt><trkpt lat="44.30993329621849" lon="9.568021283340158"><ele>368.0</ele><time>2026-04-19T14:09:35.928Z</time></trkpt><trkpt lat="44.30980564853799" lon="9.567974264136645"><ele>368.0</ele><time>2026-04-19T14:09:36.928Z</time></trkpt><trkpt lat="44.30968448154558" lon="9.567920462930703"><ele>368.0</ele><time>2026-04-19T14:09:37.928Z</time></trkpt><trkpt lat="44.309554984236826" lon="9.567869617139896"><ele>370.25</ele><time>2026-04-19T14:09:38.928Z</time></trkpt><trkpt lat="44.30942549608271" lon="9.567826886264996"><ele>372.5</ele><time>2026-04-19T14:09:39.928Z</time></trkpt><trkpt lat="44.30931049222749" lon="9.567776283882269"><ele>374.75</ele><time>2026-04-19T14:09:40.928Z</time></trkpt><trkpt lat="44.30919451011111" lon="9.567735610199934"><ele>377.0</ele><time>2026-04-19T14:09:41.928Z</time></trkpt><trkpt lat="44.30908236235397" lon="9.567692130333258"><ele>377.0</ele><time>2026-04-19T14:09:42.928Z</time></trkpt><trkpt lat="44.3089694546872" lon="9.567653999759559"><ele>377.0</ele><time>2026-04-19T14:09:43.928Z</time></trkpt><trkpt lat="44.30885792376492" lon="9.567625488419173"><ele>377.0</ele><time>2026-04-19T14:09:44.928Z</time></trkpt><trkpt lat="44.3087477927862" lon="9.567633090458765"><ele>377.0</ele><time>2026-04-19T14:09:45.928Z</time></trkpt><trkpt lat="44.30864425339558" lon="9.567665792125899"><ele>377.0</ele><time>2026-04-19T14:09:46.928Z</time></trkpt><trkpt lat="44.308535772819674" lon="9.567708277716974"><ele>376.0</ele><time>2026-04-19T14:09:47.928Z</time></trkpt><trkpt lat="44.30842978872972" lon="9.567751027251083"><ele>375.0</ele><time>2026-04-19T14:09:48.928Z</time></trkpt><trkpt lat="44.308326267374504" lon="9.567786119227115"><ele>374.0</ele><time>2026-04-19T14:09:49.928Z</time></trkpt><trkpt lat="44.30822618129246" lon="9.56779386037511"><ele>373.0</ele><time>2026-04-19T14:09:50.928Z</time></trkpt><trkpt lat="44.308123547140205" lon="9.567759474359454"><ele>372.0</ele><time>2026-04-19T14:09:51.928Z</time></trkpt><trkpt lat="44.30801933748475" lon="9.567708977808028"><ele>371.6</ele><time>2026-04-19T14:09:52.928Z</time></trkpt><trkpt lat="44.307919914967606" lon="9.567652294439256"><ele>371.20000000000005</ele><time>2026-04-19T14:09:53.928Z</time></trkpt><trkpt lat="44.3078194551818" lon="9.567590051547503"><ele>370.8</ele><time>2026-04-19T14:09:54.928Z</time></trkpt><trkpt lat="44.30772688329587" lon="9.567516494549489"><ele>370.4</ele><time>2026-04-19T14:09:55.928Z</time></trkpt><trkpt lat="44.30764346497923" lon="9.567417023163713"><ele>370.0</ele><time>2026-04-19T14:09:56.928Z</time></trkpt><trkpt lat="44.30756232481447" lon="9.567299693623267"><ele>370.0</ele><time>2026-04-19T14:09:57.928Z</time></trkpt><trkpt lat="44.30747850818702" lon="9.567190832935411"><ele>370.0</ele><time>2026-04-19T14:09:58.928Z</time></trkpt><trkpt lat="44.30738220406376" lon="9.567109070141854"><ele>370.0</ele><time>2026-04-19T14:09:59.928Z</time></trkpt><trkpt lat="44.30727559058523" lon="9.567063088595582"><ele>370.0</ele><time>2026-04-19T14:10:00.928Z</time></trkpt><trkpt lat="44.30715311228245" lon="9.567031561476357"><ele>372.75</ele><time>2026-04-19T14:10:01.928Z</time></trkpt><trkpt lat="44.30702643093574" lon="9.567003859193626"><ele>375.5</ele><time>2026-04-19T14:10:02.928Z</time></trkpt><trkpt lat="44.306901117721615" lon="9.566982011101578"><ele>378.25</ele><time>2026-04-19T14:10:03.928Z</time></trkpt><trkpt lat="44.30678107493218" lon="9.566958896716148"><ele>381.0</ele><time>2026-04-19T14:10:04.928Z</time></trkpt><trkpt lat="44.30667314865036" lon="9.566930175947501"><ele>381.0</ele><time>2026-04-19T14:10:05.928Z</time></trkpt><trkpt lat="44.30656305067936" lon="9.56690652838902"><ele>381.0</ele><time>2026-04-19T14:10:06.929Z</time></trkpt><trkpt lat="44.306453785161544" lon="9.56689151671615"><ele>381.0</ele><time>2026-04-19T14:10:07.929Z</time></trkpt><trkpt lat="44.30634403514647" lon="9.566865073404301"><ele>381.0</ele><time>2026-04-19T14:10:08.929Z</time></trkpt><trkpt lat="44.306234186720516" lon="9.566840237783422"><ele>381.0</ele><time>2026-04-19T14:10:09.929Z</time></trkpt><trkpt lat="44.30612431281829" lon="9.566826459444451"><ele>380.8</ele><time>2026-04-19T14:10:10.929Z</time></trkpt><trkpt lat="44.30601399591517" lon="9.566813991322276"><ele>380.6</ele><time>2026-04-19T14:10:11.929Z</time></trkpt><trkpt lat="44.305904159708376" lon="9.566798749324148"><ele>380.4</ele><time>2026-04-19T14:10:12.929Z</time></trkpt><trkpt lat="44.3057989580846" lon="9.566778489460338"><ele>380.2</ele><time>2026-04-19T14:10:13.929Z</time></trkpt><trkpt lat="44.3056957625147" lon="9.566753941498872"><ele>380.0</ele><time>2026-04-19T14:10:14.929Z</time></trkpt><trkpt lat="44.3055929984583" lon="9.566725172591866"><ele>378.8</ele><time>2026-04-19T14:10:15.929Z</time></trkpt><trkpt lat="44.30549125552735" lon="9.56669173529391"><ele>377.6</ele><time>2026-04-19T14:10:16.929Z</time></trkpt><trkpt lat="44.305388370235185" lon="9.566668080657287"><ele>376.4</ele><time>2026-04-19T14:10:17.929Z</time></trkpt><trkpt lat="44.305282651597544" lon="9.566639420681538"><ele>375.2</ele><time>2026-04-19T14:10:18.929Z</time></trkpt><trkpt lat="44.30517542242629" lon="9.566608999216609"><ele>374.0</ele><time>2026-04-19T14:10:19.929Z</time></trkpt><trkpt lat="44.30506736474208" lon="9.566584019213156"><ele>374.0</ele><time>2026-04-19T14:10:20.929Z</time></trkpt><trkpt lat="44.3049481576453" lon="9.566555031843123"><ele>374.0</ele><time>2026-04-19T14:10:21.929Z</time></trkpt><trkpt lat="44.304819338208084" lon="9.56652156372498"><ele>374.0</ele><time>2026-04-19T14:10:22.929Z</time></trkpt><trkpt lat="44.30468697905712" lon="9.566488655580757"><ele>374.0</ele><time>2026-04-19T14:10:23.929Z</time></trkpt><trkpt lat="44.30455147507566" lon="9.566452578337199"><ele>374.75</ele><time>2026-04-19T14:10:24.929Z</time></trkpt><trkpt lat="44.30441358585476" lon="9.566416342754174"><ele>375.5</ele><time>2026-04-19T14:10:25.929Z</time></trkpt><trkpt lat="44.30427503770431" lon="9.566382757699898"><ele>376.25</ele><time>2026-04-19T14:10:26.929Z</time></trkpt><trkpt lat="44.304138625580144" lon="9.56635357086317"><ele>377.0</ele><time>2026-04-19T14:10:27.929Z</time></trkpt><trkpt lat="44.30400210625391" lon="9.566316060220895"><ele>378.0</ele><time>2026-04-19T14:10:28.929Z</time></trkpt><trkpt lat="44.30386595693666" lon="9.566282883986657"><ele>379.0</ele><time>2026-04-19T14:10:29.929Z</time></trkpt><trkpt lat="44.30373323850867" lon="9.5662502598827"><ele>380.0</ele><time>2026-04-19T14:10:30.929Z</time></trkpt><trkpt lat="44.303602766136" lon="9.566218019816592"><ele>381.0</ele><time>2026-04-19T14:10:31.929Z</time></trkpt><trkpt lat="44.30347427289842" lon="9.566189773168793"><ele>381.0</ele><time>2026-04-19T14:10:32.929Z</time></trkpt><trkpt lat="44.30334576903995" lon="9.566160264606482"><ele>381.0</ele><time>2026-04-19T14:10:33.929Z</time></trkpt><trkpt lat="44.30321699560826" lon="9.566137504581139"><ele>381.0</ele><time>2026-04-19T14:10:34.929Z</time></trkpt><trkpt lat="44.303091585232856" lon="9.566103523990309"><ele>381.0</ele><time>2026-04-19T14:10:35.929Z</time></trkpt><trkpt lat="44.30296375321054" lon="9.566073220704032"><ele>381.75</ele><time>2026-04-19T14:10:36.929Z</time></trkpt><trkpt lat="44.30283764034254" lon="9.5660396089267"><ele>382.5</ele><time>2026-04-19T14:10:37.929Z</time></trkpt><trkpt lat="44.30270856615812" lon="9.566009066406224"><ele>383.25</ele><time>2026-04-19T14:10:38.929Z</time></trkpt><trkpt lat="44.30258232265853" lon="9.565981951245488"><ele>384.0</ele><time>2026-04-19T14:10:39.929Z</time></trkpt><trkpt lat="44.302452416830455" lon="9.56595323576964"><ele>384.0</ele><time>2026-04-19T14:10:40.929Z</time></trkpt><trkpt lat="44.30232491155669" lon="9.565922317565954"><ele>384.0</ele><time>2026-04-19T14:10:41.929Z</time></trkpt><trkpt lat="44.30219721987722" lon="9.565885463790458"><ele>384.0</ele><time>2026-04-19T14:10:42.929Z</time></trkpt><trkpt lat="44.30207179521322" lon="9.56584455390682"><ele>384.0</ele><time>2026-04-19T14:10:43.929Z</time></trkpt><trkpt lat="44.301960120230376" lon="9.565822030292676"><ele>383.5</ele><time>2026-04-19T14:10:44.929Z</time></trkpt><trkpt lat="44.301847518077786" lon="9.565804100686664"><ele>383.0</ele><time>2026-04-19T14:10:45.929Z</time></trkpt><trkpt lat="44.30173020867059" lon="9.56577827702804"><ele>382.5</ele><time>2026-04-19T14:10:46.929Z</time></trkpt><trkpt lat="44.30160462513168" lon="9.565748658345772"><ele>382.0</ele><time>2026-04-19T14:10:47.929Z</time></trkpt><trkpt lat="44.30147699667104" lon="9.565719757012525"><ele>382.40000000000003</ele><time>2026-04-19T14:10:48.929Z</time></trkpt><trkpt lat="44.30135835102477" lon="9.565686919293567"><ele>382.8</ele><time>2026-04-19T14:10:49.929Z</time></trkpt><trkpt lat="44.30125780775496" lon="9.565662244794728"><ele>383.2</ele><time>2026-04-19T14:10:50.929Z</time></trkpt><trkpt lat="44.30117111094571" lon="9.5656332960725"><ele>383.6</ele><time>2026-04-19T14:10:51.929Z</time></trkpt><trkpt lat="44.301099662326045" lon="9.56560332267399"><ele>384.0</ele><time>2026-04-19T14:10:52.929Z</time></trkpt><trkpt lat="44.301037876173794" lon="9.565585262762456"><ele>384.0</ele><time>2026-04-19T14:10:53.929Z</time></trkpt><trkpt lat="44.30094709375343" lon="9.565563796888876"><ele>384.0</ele><time>2026-04-19T14:10:55.929Z</time></trkpt><trkpt lat="44.300891653592885" lon="9.56562324204218"><ele>384.0</ele><time>2026-04-19T14:10:57.929Z</time></trkpt><trkpt lat="44.300870329121274" lon="9.565721692487317"><ele>384.0</ele><time>2026-04-19T14:10:59.928Z</time></trkpt><trkpt lat="44.300825245131776" lon="9.565813939826844"><ele>384.0</ele><time>2026-04-19T14:11:07.927Z</time></trkpt><trkpt lat="44.300753754220736" lon="9.565776491712574"><ele>384.0</ele><time>2026-04-19T14:11:09.927Z</time></trkpt><trkpt lat="44.300704121648415" lon="9.565714750037218"><ele>384.0</ele><time>2026-04-19T14:11:10.927Z</time></trkpt><trkpt lat="44.30064199929972" lon="9.56566986098279"><ele>384.0</ele><time>2026-04-19T14:11:11.927Z</time></trkpt><trkpt lat="44.30057327827845" lon="9.56563338356395"><ele>384.0</ele><time>2026-04-19T14:11:12.927Z</time></trkpt><trkpt lat="44.30049987839875" lon="9.5656037141671"><ele>384.0</ele><time>2026-04-19T14:11:13.927Z</time></trkpt><trkpt lat="44.30038948314481" lon="9.565525797969874"><ele>384.0</ele><time>2026-04-19T14:11:15.927Z</time></trkpt><trkpt lat="44.30032374225932" lon="9.565473357807358"><ele>384.0</ele><time>2026-04-19T14:11:16.927Z</time></trkpt><trkpt lat="44.300257870602515" lon="9.56542629170862"><ele>384.3333333333333</ele><time>2026-04-19T14:11:17.927Z</time></trkpt><trkpt lat="44.3001839059902" lon="9.565376629206916"><ele>384.66666666666663</ele><time>2026-04-19T14:11:18.927Z</time></trkpt><trkpt lat="44.30011396629278" lon="9.56532618194496"><ele>385.0</ele><time>2026-04-19T14:11:19.927Z</time></trkpt><trkpt lat="44.300042817140636" lon="9.565285635062047"><ele>385.3333333333333</ele><time>2026-04-19T14:11:20.927Z</time></trkpt><trkpt lat="44.299969832668985" lon="9.565246108207806"><ele>385.66666666666663</ele><time>2026-04-19T14:11:21.927Z</time></trkpt><trkpt lat="44.299897390502004" lon="9.565211190999019"><ele>386.0</ele><time>2026-04-19T14:11:22.927Z</time></trkpt><trkpt lat="44.29982999281327" lon="9.565174204497703"><ele>386.00000000000006</ele><time>2026-04-19T14:11:23.927Z</time></trkpt><trkpt lat="44.29976261988183" lon="9.565152923577696"><ele>386.0</ele><time>2026-04-19T14:11:24.927Z</time></trkpt><trkpt lat="44.299697155653526" lon="9.565141379734547"><ele>386.0</ele><time>2026-04-19T14:11:25.927Z</time></trkpt><trkpt lat="44.299616357324005" lon="9.565151030074711"><ele>386.0</ele><time>2026-04-19T14:11:26.927Z</time></trkpt><trkpt lat="44.29953867371153" lon="9.565150387371691"><ele>386.0</ele><time>2026-04-19T14:11:27.927Z</time></trkpt><trkpt lat="44.2994673591105" lon="9.565141865666867"><ele>386.00000000000006</ele><time>2026-04-19T14:11:28.927Z</time></trkpt><trkpt lat="44.29939111838548" lon="9.56511470247645"><ele>386.0</ele><time>2026-04-19T14:11:29.927Z</time></trkpt><trkpt lat="44.299323854248684" lon="9.565060541144684"><ele>387.49999999999994</ele><time>2026-04-19T14:11:30.927Z</time></trkpt><trkpt lat="44.299253277766944" lon="9.564996008101678"><ele>389.0</ele><time>2026-04-19T14:11:31.927Z</time></trkpt><trkpt lat="44.29917801034433" lon="9.564935196394131"><ele>390.5</ele><time>2026-04-19T14:11:32.927Z</time></trkpt><trkpt lat="44.29911063243547" lon="9.564880748994975"><ele>392.0</ele><time>2026-04-19T14:11:33.927Z</time></trkpt><trkpt lat="44.299048258733265" lon="9.564831211674763"><ele>393.49999999999994</ele><time>2026-04-19T14:11:34.927Z</time></trkpt><trkpt lat="44.298936391616564" lon="9.56479462727917"><ele>395.0</ele><time>2026-04-19T14:11:36.927Z</time></trkpt><trkpt lat="44.29886963151206" lon="9.56481544854658"><ele>397.8333333333333</ele><time>2026-04-19T14:11:37.927Z</time></trkpt><trkpt lat="44.29880481788863" lon="9.564863780485366"><ele>400.66666666666663</ele><time>2026-04-19T14:11:38.927Z</time></trkpt><trkpt lat="44.29874692769947" lon="9.564926645876676"><ele>403.5</ele><time>2026-04-19T14:11:39.927Z</time></trkpt><trkpt lat="44.29869450559125" lon="9.564991884359564"><ele>406.33333333333337</ele><time>2026-04-19T14:11:40.927Z</time></trkpt><trkpt lat="44.29864230934142" lon="9.56505374763996"><ele>409.1666666666667</ele><time>2026-04-19T14:11:41.927Z</time></trkpt><trkpt lat="44.298551134991726" lon="9.565065713842142"><ele>412.0</ele><time>2026-04-19T14:11:43.927Z</time></trkpt><trkpt lat="44.298476802503316" lon="9.564931528762473"><ele>412.0</ele><time>2026-04-19T14:11:45.927Z</time></trkpt><trkpt lat="44.29838268409996" lon="9.564800605240071"><ele>412.0</ele><time>2026-04-19T14:11:47.927Z</time></trkpt><trkpt lat="44.29830547787188" lon="9.564752455863058"><ele>412.0</ele><time>2026-04-19T14:11:48.927Z</time></trkpt><trkpt lat="44.29823614292179" lon="9.564696898779216"><ele>412.0</ele><time>2026-04-19T14:11:49.927Z</time></trkpt><trkpt lat="44.29816650509708" lon="9.564681081982332"><ele>412.0</ele><time>2026-04-19T14:11:50.927Z</time></trkpt><trkpt lat="44.298082878347024" lon="9.564649495972244"><ele>416.6</ele><time>2026-04-19T14:11:51.927Z</time></trkpt><trkpt lat="44.29798756450956" lon="9.564624525757345"><ele>421.20000000000005</ele><time>2026-04-19T14:11:52.927Z</time></trkpt><trkpt lat="44.29789103096038" lon="9.564606315401196"><ele>425.8</ele><time>2026-04-19T14:11:53.927Z</time></trkpt><trkpt lat="44.29779853966451" lon="9.564593873057637"><ele>430.4</ele><time>2026-04-19T14:11:54.927Z</time></trkpt><trkpt lat="44.29770256446034" lon="9.564593986786097"><ele>435.0</ele><time>2026-04-19T14:11:55.927Z</time></trkpt><trkpt lat="44.297617462798044" lon="9.564608030874501"><ele>435.0</ele><time>2026-04-19T14:11:56.927Z</time></trkpt><trkpt lat="44.29755024319067" lon="9.564626569839376"><ele>435.0</ele><time>2026-04-19T14:11:57.927Z</time></trkpt><trkpt lat="44.29745030644554" lon="9.564604463338686"><ele>435.0</ele><time>2026-04-19T14:11:59.927Z</time></trkpt><trkpt lat="44.297407286326475" lon="9.564498103304066"><ele>435.0</ele><time>2026-04-19T14:12:01.927Z</time></trkpt><trkpt lat="44.29739030312376" lon="9.564380867827452"><ele>435.0</ele><time>2026-04-19T14:12:03.927Z</time></trkpt><trkpt lat="44.29735949509776" lon="9.564292947869143"><ele>435.0</ele><time>2026-04-19T14:12:05.927Z</time></trkpt><trkpt lat="44.297261478174896" lon="9.564269339820322"><ele>434.0</ele><time>2026-04-19T14:12:07.927Z</time></trkpt><trkpt lat="44.297217032404575" lon="9.564372826779898"><ele>433.0</ele><time>2026-04-19T14:12:09.927Z</time></trkpt><trkpt lat="44.297202321034646" lon="9.564472308859337"><ele>432.0</ele><time>2026-04-19T14:12:10.927Z</time></trkpt><trkpt lat="44.29719159776001" lon="9.5646360481207"><ele>431.0</ele><time>2026-04-19T14:12:12.927Z</time></trkpt><trkpt lat="44.297185256580434" lon="9.56475041810266"><ele>430.0</ele><time>2026-04-19T14:12:14.927Z</time></trkpt><trkpt lat="44.29719513330575" lon="9.564843291550181"><ele>429.0</ele><time>2026-04-19T14:12:16.927Z</time></trkpt><trkpt lat="44.29722003114522" lon="9.565005725350845"><ele>430.0</ele><time>2026-04-19T14:12:18.927Z</time></trkpt><trkpt lat="44.297251021925675" lon="9.565090371005354"><ele>431.0</ele><time>2026-04-19T14:12:19.927Z</time></trkpt><trkpt lat="44.29730480776447" lon="9.565166944578019"><ele>432.0</ele><time>2026-04-19T14:12:21.927Z</time></trkpt><trkpt lat="44.29738558261185" lon="9.565215308342857"><ele>433.0</ele><time>2026-04-19T14:12:23.927Z</time></trkpt><trkpt lat="44.297451499198985" lon="9.565253490197167"><ele>434.0</ele><time>2026-04-19T14:12:24.927Z</time></trkpt><trkpt lat="44.29752254046185" lon="9.565305689673398"><ele>435.0</ele><time>2026-04-19T14:12:25.927Z</time></trkpt><trkpt lat="44.29757991142773" lon="9.565365776830385"><ele>437.3333333333333</ele><time>2026-04-19T14:12:26.927Z</time></trkpt><trkpt lat="44.297626944342085" lon="9.565429995054611"><ele>439.66666666666663</ele><time>2026-04-19T14:12:27.927Z</time></trkpt><trkpt lat="44.29767534612711" lon="9.565541058603618"><ele>442.0</ele><time>2026-04-19T14:12:29.927Z</time></trkpt><trkpt lat="44.29764005675458" lon="9.565614754399189"><ele>444.3333333333333</ele><time>2026-04-19T14:12:32.927Z</time></trkpt><trkpt lat="44.29762545458341" lon="9.565723699073189"><ele>446.66666666666663</ele><time>2026-04-19T14:12:35.927Z</time></trkpt><trkpt lat="44.29755870583267" lon="9.565836048436447"><ele>449.0</ele><time>2026-04-19T14:12:38.927Z</time></trkpt><trkpt lat="44.297441839755635" lon="9.56588496240497"><ele>449.0</ele><time>2026-04-19T14:12:40.927Z</time></trkpt><trkpt lat="44.29737569364349" lon="9.565905250186516"><ele>449.0</ele><time>2026-04-19T14:12:41.927Z</time></trkpt><trkpt lat="44.297310893874624" lon="9.565941499611741"><ele>449.0</ele><time>2026-04-19T14:12:42.927Z</time></trkpt><trkpt lat="44.29720519552076" lon="9.565984322404681"><ele>449.0</ele><time>2026-04-19T14:12:44.927Z</time></trkpt><trkpt lat="44.297089853064904" lon="9.566034772203981"><ele>449.0</ele><time>2026-04-19T14:12:46.927Z</time></trkpt><trkpt lat="44.29699011955849" lon="9.566045970707213"><ele>452.16666666666663</ele><time>2026-04-19T14:12:48.927Z</time></trkpt><trkpt lat="44.29690979125982" lon="9.565998714444667"><ele>455.3333333333333</ele><time>2026-04-19T14:12:50.927Z</time></trkpt><trkpt lat="44.29681327893513" lon="9.565914890027733"><ele>458.5</ele><time>2026-04-19T14:12:52.927Z</time></trkpt><trkpt lat="44.29675208234533" lon="9.565873208620463"><ele>461.66666666666663</ele><time>2026-04-19T14:12:53.927Z</time></trkpt><trkpt lat="44.29668810305155" lon="9.565825816925608"><ele>464.8333333333333</ele><time>2026-04-19T14:12:54.927Z</time></trkpt><trkpt lat="44.29662908701225" lon="9.565777696876808"><ele>468.0</ele><time>2026-04-19T14:12:55.927Z</time></trkpt><trkpt lat="44.296561628510304" lon="9.565742433641727"><ele>468.0</ele><time>2026-04-19T14:12:56.927Z</time></trkpt><trkpt lat="44.296492031270226" lon="9.565703731203405"><ele>468.0</ele><time>2026-04-19T14:12:57.927Z</time></trkpt><trkpt lat="44.296418891236975" lon="9.56564794807837"><ele>468.0</ele><time>2026-04-19T14:12:58.927Z</time></trkpt><trkpt lat="44.29632870896747" lon="9.565569258884947"><ele>468.0</ele><time>2026-04-19T14:13:00.928Z</time></trkpt><trkpt lat="44.29626021890935" lon="9.56551936167"><ele>468.0</ele><time>2026-04-19T14:13:02.928Z</time></trkpt><trkpt lat="44.296205282662804" lon="9.565567887772893"><ele>468.0</ele><time>2026-04-19T14:13:04.928Z</time></trkpt><trkpt lat="44.29621068249716" lon="9.565677840202978"><ele>468.0</ele><time>2026-04-19T14:13:06.926Z</time></trkpt><trkpt lat="44.29629765626329" lon="9.565814911684031"><ele>468.0</ele><time>2026-04-19T14:13:08.927Z</time></trkpt><trkpt lat="44.29634938156889" lon="9.5658774610528"><ele>468.0</ele><time>2026-04-19T14:13:09.926Z</time></trkpt><trkpt lat="44.296397551550356" lon="9.565953838739448"><ele>468.0</ele><time>2026-04-19T14:13:10.926Z</time></trkpt><trkpt lat="44.29644278269436" lon="9.566038710740715"><ele>468.0</ele><time>2026-04-19T14:13:11.926Z</time></trkpt><trkpt lat="44.296476834462794" lon="9.566114116104384"><ele>468.0</ele><time>2026-04-19T14:13:12.926Z</time></trkpt><trkpt lat="44.29651214061739" lon="9.566199013937977"><ele>471.0</ele><time>2026-04-19T14:13:13.926Z</time></trkpt><trkpt lat="44.29654261299109" lon="9.566358797289125"><ele>473.99999999999994</ele><time>2026-04-19T14:13:15.926Z</time></trkpt><trkpt lat="44.29650500527037" lon="9.566532461983796"><ele>476.99999999999994</ele><time>2026-04-19T14:13:17.926Z</time></trkpt><trkpt lat="44.29648941818404" lon="9.566633174563298"><ele>480.0</ele><time>2026-04-19T14:13:18.926Z</time></trkpt><trkpt lat="44.29648085534918" lon="9.56673039590898"><ele>483.0</ele><time>2026-04-19T14:13:19.926Z</time></trkpt><trkpt lat="44.29647370044592" lon="9.566827485808334"><ele>483.0</ele><time>2026-04-19T14:13:20.926Z</time></trkpt><trkpt lat="44.296493254851164" lon="9.566984747647536"><ele>483.0</ele><time>2026-04-19T14:13:22.926Z</time></trkpt><trkpt lat="44.296535950879814" lon="9.567050548146344"><ele>483.0</ele><time>2026-04-19T14:13:23.926Z</time></trkpt><trkpt lat="44.29658511254696" lon="9.567117466235763"><ele>483.0</ele><time>2026-04-19T14:13:24.926Z</time></trkpt><trkpt lat="44.29665790594788" lon="9.56718310736748"><ele>483.0</ele><time>2026-04-19T14:13:25.926Z</time></trkpt><trkpt lat="44.296730939891425" lon="9.567254198379649"><ele>483.0</ele><time>2026-04-19T14:13:26.926Z</time></trkpt><trkpt lat="44.29680418630542" lon="9.567315271253547"><ele>486.0</ele><time>2026-04-19T14:13:27.926Z</time></trkpt><trkpt lat="44.29686419303325" lon="9.567374966193464"><ele>489.0</ele><time>2026-04-19T14:13:28.926Z</time></trkpt><trkpt lat="44.29692620304531" lon="9.567427051118331"><ele>492.0</ele><time>2026-04-19T14:13:29.926Z</time></trkpt><trkpt lat="44.2970043719761" lon="9.567477536531088"><ele>495.0</ele><time>2026-04-19T14:13:31.926Z</time></trkpt><trkpt lat="44.29702977997245" lon="9.567583678819481"><ele>498.0</ele><time>2026-04-19T14:13:34.926Z</time></trkpt><trkpt lat="44.296965203112386" lon="9.567616677115545"><ele>501.0</ele><time>2026-04-19T14:13:36.926Z</time></trkpt><trkpt lat="44.296880726964616" lon="9.567553920154818"><ele>501.0</ele><time>2026-04-19T14:13:38.926Z</time></trkpt><trkpt lat="44.29678859136562" lon="9.567506390696375"><ele>501.0</ele><time>2026-04-19T14:13:40.926Z</time></trkpt><trkpt lat="44.296676431683096" lon="9.567509794103561"><ele>501.0</ele><time>2026-04-19T14:13:42.926Z</time></trkpt><trkpt lat="44.29654889309139" lon="9.567537809003749"><ele>501.0</ele><time>2026-04-19T14:13:44.927Z</time></trkpt><trkpt lat="44.29649252651958" lon="9.56758087702188"><ele>501.0</ele><time>2026-04-19T14:13:45.927Z</time></trkpt><trkpt lat="44.296386393434496" lon="9.567678950504622"><ele>499.6666666666667</ele><time>2026-04-19T14:13:47.927Z</time></trkpt><trkpt lat="44.29634143774268" lon="9.567783556620647"><ele>498.33333333333337</ele><time>2026-04-19T14:13:48.927Z</time></trkpt><trkpt lat="44.29629478978969" lon="9.567896171805298"><ele>497.0</ele><time>2026-04-19T14:13:49.927Z</time></trkpt><trkpt lat="44.296249724911576" lon="9.56800473096742"><ele>495.6666666666667</ele><time>2026-04-19T14:13:50.927Z</time></trkpt><trkpt lat="44.296223299533814" lon="9.568104946069889"><ele>494.33333333333337</ele><time>2026-04-19T14:13:51.927Z</time></trkpt><trkpt lat="44.296188466087635" lon="9.568212970621248"><ele>493.0</ele><time>2026-04-19T14:13:52.927Z</time></trkpt><trkpt lat="44.296157117808846" lon="9.568320616946936"><ele>495.6666666666667</ele><time>2026-04-19T14:13:53.927Z</time></trkpt><trkpt lat="44.29613323297717" lon="9.56841485379726"><ele>498.33333333333337</ele><time>2026-04-19T14:13:54.927Z</time></trkpt><trkpt lat="44.296067645308675" lon="9.568557227414964"><ele>501.0</ele><time>2026-04-19T14:13:56.927Z</time></trkpt><trkpt lat="44.29604163973089" lon="9.568691976258158"><ele>503.66666666666663</ele><time>2026-04-19T14:13:58.927Z</time></trkpt><trkpt lat="44.2961006149575" lon="9.568761973227753"><ele>506.3333333333333</ele><time>2026-04-19T14:14:00.927Z</time></trkpt><trkpt lat="44.296170191781776" lon="9.568716662813445"><ele>509.0</ele><time>2026-04-19T14:14:02.927Z</time></trkpt><trkpt lat="44.29624589038969" lon="9.568646485918126"><ele>510.66666666666663</ele><time>2026-04-19T14:14:04.927Z</time></trkpt><trkpt lat="44.29633318135667" lon="9.568702834734944"><ele>512.3333333333333</ele><time>2026-04-19T14:14:07.927Z</time></trkpt><trkpt lat="44.29635691217415" lon="9.568834110670892"><ele>514.0</ele><time>2026-04-19T14:14:09.927Z</time></trkpt><trkpt lat="44.29636293386015" lon="9.568926961902324"><ele>515.6666666666666</ele><time>2026-04-19T14:14:10.927Z</time></trkpt><trkpt lat="44.29637044601597" lon="9.569031701281608"><ele>517.3333333333334</ele><time>2026-04-19T14:14:11.927Z</time></trkpt><trkpt lat="44.29636979164178" lon="9.569136929046842"><ele>519.0</ele><time>2026-04-19T14:14:12.927Z</time></trkpt><trkpt lat="44.296353812383366" lon="9.569235562991578"><ele>519.0</ele><time>2026-04-19T14:14:13.927Z</time></trkpt><trkpt lat="44.29634389090537" lon="9.569332421763676"><ele>519.0</ele><time>2026-04-19T14:14:14.927Z</time></trkpt><trkpt lat="44.296340192561814" lon="9.569434182895256"><ele>519.0</ele><time>2026-04-19T14:14:15.927Z</time></trkpt><trkpt lat="44.29632929237821" lon="9.569533311100713"><ele>519.0</ele><time>2026-04-19T14:14:16.927Z</time></trkpt><trkpt lat="44.296321246684066" lon="9.569636422036982"><ele>519.0</ele><time>2026-04-19T14:14:17.927Z</time></trkpt><trkpt lat="44.296321406325035" lon="9.56973810905602"><ele>519.0</ele><time>2026-04-19T14:14:18.927Z</time></trkpt><trkpt lat="44.296327352195725" lon="9.569834528253924"><ele>519.0</ele><time>2026-04-19T14:14:19.927Z</time></trkpt><trkpt lat="44.29634458561639" lon="9.569930597550028"><ele>520.5</ele><time>2026-04-19T14:14:20.927Z</time></trkpt><trkpt lat="44.29636449807601" lon="9.570028584723445"><ele>522.0</ele><time>2026-04-19T14:14:21.927Z</time></trkpt><trkpt lat="44.29638916184383" lon="9.57012672783449"><ele>523.5</ele><time>2026-04-19T14:14:22.927Z</time></trkpt><trkpt lat="44.296415218046064" lon="9.570230854418034"><ele>525.0</ele><time>2026-04-19T14:14:23.927Z</time></trkpt><trkpt lat="44.29644892289274" lon="9.570410896105106"><ele>526.5</ele><time>2026-04-19T14:14:25.927Z</time></trkpt><trkpt lat="44.29646812647862" lon="9.570515327951673"><ele>528.0</ele><time>2026-04-19T14:14:26.927Z</time></trkpt><trkpt lat="44.296474949884825" lon="9.570636526025476"><ele>530.1666666666666</ele><time>2026-04-19T14:14:27.927Z</time></trkpt><trkpt lat="44.29646885901171" lon="9.5707490959361"><ele>532.3333333333334</ele><time>2026-04-19T14:14:28.927Z</time></trkpt><trkpt lat="44.296461341294524" lon="9.570869909860988"><ele>534.5</ele><time>2026-04-19T14:14:29.927Z</time></trkpt><trkpt lat="44.29646234338511" lon="9.570990031625806"><ele>536.6666666666667</ele><time>2026-04-19T14:14:30.927Z</time></trkpt><trkpt lat="44.29647793079112" lon="9.571097373126149"><ele>538.8333333333334</ele><time>2026-04-19T14:14:31.927Z</time></trkpt><trkpt lat="44.29649662047776" lon="9.571208278678013"><ele>541.0</ele><time>2026-04-19T14:14:32.927Z</time></trkpt><trkpt lat="44.296514267415375" lon="9.571305207435941"><ele>542.8</ele><time>2026-04-19T14:14:33.927Z</time></trkpt><trkpt lat="44.29654434265687" lon="9.571442470088925"><ele>544.6</ele><time>2026-04-19T14:14:35.927Z</time></trkpt><trkpt lat="44.29657792299499" lon="9.571540844652334"><ele>546.4</ele><time>2026-04-19T14:14:37.927Z</time></trkpt><trkpt lat="44.29661285799077" lon="9.571630564595482"><ele>548.2</ele><time>2026-04-19T14:14:39.927Z</time></trkpt><trkpt lat="44.29667564426117" lon="9.571792465069857"><ele>550.0</ele><time>2026-04-19T14:14:41.927Z</time></trkpt><trkpt lat="44.296712794277454" lon="9.571872140986148"><ele>550.0</ele><time>2026-04-19T14:14:42.927Z</time></trkpt><trkpt lat="44.29677637618886" lon="9.57201904201701"><ele>550.0</ele><time>2026-04-19T14:14:44.927Z</time></trkpt><trkpt lat="44.296825717673556" lon="9.572185285832594"><ele>550.0</ele><time>2026-04-19T14:14:46.927Z</time></trkpt><trkpt lat="44.29684756857919" lon="9.572273327876658"><ele>550.0</ele><time>2026-04-19T14:14:47.927Z</time></trkpt><trkpt lat="44.29687994906679" lon="9.572441155202077"><ele>550.0</ele><time>2026-04-19T14:14:49.927Z</time></trkpt><trkpt lat="44.29688590410528" lon="9.572533155886656"><ele>551.8</ele><time>2026-04-19T14:14:50.927Z</time></trkpt><trkpt lat="44.296868447067865" lon="9.57269204847875"><ele>553.6</ele><time>2026-04-19T14:14:52.927Z</time></trkpt><trkpt lat="44.29687476034675" lon="9.572828513617399"><ele>555.4</ele><time>2026-04-19T14:14:55.927Z</time></trkpt><trkpt lat="44.29694146311119" lon="9.572888735230865"><ele>557.2</ele><time>2026-04-19T14:14:57.927Z</time></trkpt><trkpt lat="44.29703666948003" lon="9.572946554304124"><ele>559.0</ele><time>2026-04-19T14:14:59.927Z</time></trkpt><trkpt lat="44.297125968247556" lon="9.573059091685323"><ele>561.3333333333334</ele><time>2026-04-19T14:15:01.927Z</time></trkpt><trkpt lat="44.297186988561954" lon="9.573194516902404"><ele>563.6666666666667</ele><time>2026-04-19T14:15:03.927Z</time></trkpt><trkpt lat="44.297274659663614" lon="9.573262000050143"><ele>566.0</ele><time>2026-04-19T14:15:05.927Z</time></trkpt><trkpt lat="44.297341156506086" lon="9.573273580124608"><ele>568.3333333333334</ele><time>2026-04-19T14:15:06.927Z</time></trkpt><trkpt lat="44.29743022615729" lon="9.573271658671734"><ele>570.6666666666666</ele><time>2026-04-19T14:15:08.927Z</time></trkpt><trkpt lat="44.29748615082205" lon="9.57332942804328"><ele>573.0</ele><time>2026-04-19T14:15:10.927Z</time></trkpt><trkpt lat="44.2974947004327" lon="9.573421935191568"><ele>573.0</ele><time>2026-04-19T14:15:12.924Z</time></trkpt><trkpt lat="44.29740130574353" lon="9.573458946476446"><ele>573.0</ele><time>2026-04-19T14:15:15.925Z</time></trkpt><trkpt lat="44.297304733403514" lon="9.573450797526002"><ele>573.0</ele><time>2026-04-19T14:15:17.924Z</time></trkpt><trkpt lat="44.297218125210165" lon="9.573425592343176"><ele>573.0</ele><time>2026-04-19T14:15:19.924Z</time></trkpt><trkpt lat="44.29709609136472" lon="9.573431232941807"><ele>573.0</ele><time>2026-04-19T14:15:21.924Z</time></trkpt><trkpt lat="44.297003190026864" lon="9.573506996542976"><ele>573.0</ele><time>2026-04-19T14:15:23.924Z</time></trkpt><trkpt lat="44.296951332565975" lon="9.573604483193032"><ele>573.0</ele><time>2026-04-19T14:15:25.924Z</time></trkpt><trkpt lat="44.29693099236524" lon="9.573696357718092"><ele>573.0</ele><time>2026-04-19T14:15:26.924Z</time></trkpt><trkpt lat="44.29692492712871" lon="9.573856601098496"><ele>573.0</ele><time>2026-04-19T14:15:28.924Z</time></trkpt><trkpt lat="44.29693407983719" lon="9.574011836411007"><ele>573.0</ele><time>2026-04-19T14:15:30.924Z</time></trkpt><trkpt lat="44.29695659558521" lon="9.57409634444065"><ele>573.0</ele><time>2026-04-19T14:15:31.924Z</time></trkpt><trkpt lat="44.2969968211078" lon="9.574266111697368"><ele>575.4</ele><time>2026-04-19T14:15:33.924Z</time></trkpt><trkpt lat="44.29699866422456" lon="9.57435543935674"><ele>577.8</ele><time>2026-04-19T14:15:34.924Z</time></trkpt><trkpt lat="44.29698824982731" lon="9.574513792179125"><ele>580.2</ele><time>2026-04-19T14:15:36.924Z</time></trkpt><trkpt lat="44.296939343344846" lon="9.574662972951687"><ele>582.6</ele><time>2026-04-19T14:15:38.924Z</time></trkpt><trkpt lat="44.296862329823" lon="9.574791455718206"><ele>585.0</ele><time>2026-04-19T14:15:40.924Z</time></trkpt><trkpt lat="44.29678559318324" lon="9.57493743047615"><ele>587.0</ele><time>2026-04-19T14:15:42.924Z</time></trkpt><trkpt lat="44.296697460009995" lon="9.575109024334939"><ele>589.0</ele><time>2026-04-19T14:15:44.924Z</time></trkpt><trkpt lat="44.2966401837657" lon="9.575207194511655"><ele>591.0</ele><time>2026-04-19T14:15:45.924Z</time></trkpt><trkpt lat="44.29658842516759" lon="9.57528549500668"><ele>593.0</ele><time>2026-04-19T14:15:46.924Z</time></trkpt><trkpt lat="44.29655334631938" lon="9.57535867036359"><ele>595.0</ele><time>2026-04-19T14:15:47.924Z</time></trkpt><trkpt lat="44.29650939997839" lon="9.575435261196235"><ele>595.0</ele><time>2026-04-19T14:15:48.924Z</time></trkpt><trkpt lat="44.29646967172386" lon="9.5755197216831"><ele>595.0</ele><time>2026-04-19T14:15:49.924Z</time></trkpt><trkpt lat="44.296412675432656" lon="9.575609029194492"><ele>595.0</ele><time>2026-04-19T14:15:50.924Z</time></trkpt><trkpt lat="44.2963563885047" lon="9.57570210079327"><ele>595.0</ele><time>2026-04-19T14:15:51.924Z</time></trkpt><trkpt lat="44.29630815458954" lon="9.57581836131547"><ele>595.0</ele><time>2026-04-19T14:15:52.924Z</time></trkpt><trkpt lat="44.296270396998885" lon="9.57592666392214"><ele>595.0</ele><time>2026-04-19T14:15:53.924Z</time></trkpt><trkpt lat="44.29622973728413" lon="9.576029053958338"><ele>594.8571428571429</ele><time>2026-04-19T14:15:54.924Z</time></trkpt><trkpt lat="44.29619014077056" lon="9.57611710633894"><ele>594.7142857142858</ele><time>2026-04-19T14:15:55.924Z</time></trkpt><trkpt lat="44.296155781348745" lon="9.576196823379009"><ele>594.5714285714286</ele><time>2026-04-19T14:15:56.924Z</time></trkpt><trkpt lat="44.296115606525" lon="9.576272649681604"><ele>594.4285714285714</ele><time>2026-04-19T14:15:57.924Z</time></trkpt><trkpt lat="44.29607161545745" lon="9.576340779892128"><ele>594.2857142857143</ele><time>2026-04-19T14:15:58.924Z</time></trkpt><trkpt lat="44.29602481146702" lon="9.57640694286756"><ele>594.1428571428571</ele><time>2026-04-19T14:15:59.924Z</time></trkpt><trkpt lat="44.295962468358674" lon="9.576478699081466"><ele>594.0</ele><time>2026-04-19T14:16:00.924Z</time></trkpt><trkpt lat="44.295891547916185" lon="9.57654846468497"><ele>595.0</ele><time>2026-04-19T14:16:01.924Z</time></trkpt><trkpt lat="44.29581884382557" lon="9.576631940767493"><ele>596.0</ele><time>2026-04-19T14:16:02.924Z</time></trkpt><trkpt lat="44.295738277656426" lon="9.576724023905818"><ele>597.0</ele><time>2026-04-19T14:16:03.924Z</time></trkpt><trkpt lat="44.295662357161405" lon="9.576809257881372"><ele>598.0</ele><time>2026-04-19T14:16:04.924Z</time></trkpt><trkpt lat="44.29558586476657" lon="9.576885723787981"><ele>599.0</ele><time>2026-04-19T14:16:05.924Z</time></trkpt><trkpt lat="44.29551416584092" lon="9.57695317262144"><ele>599.0</ele><time>2026-04-19T14:16:06.924Z</time></trkpt><trkpt lat="44.29544388361305" lon="9.577017268015727"><ele>599.0</ele><time>2026-04-19T14:16:07.924Z</time></trkpt><trkpt lat="44.295391493591964" lon="9.57707812575253"><ele>599.0</ele><time>2026-04-19T14:16:08.924Z</time></trkpt><trkpt lat="44.295333297390236" lon="9.577180970636936"><ele>599.0</ele><time>2026-04-19T14:16:09.924Z</time></trkpt><trkpt lat="44.29526880667562" lon="9.577300799773086"><ele>599.0</ele><time>2026-04-19T14:16:10.924Z</time></trkpt><trkpt lat="44.29521066367882" lon="9.577400170832759"><ele>599.0</ele><time>2026-04-19T14:16:11.924Z</time></trkpt><trkpt lat="44.29514667594614" lon="9.577489231840383"><ele>601.0</ele><time>2026-04-19T14:16:12.924Z</time></trkpt><trkpt lat="44.295077480893944" lon="9.57757610969671"><ele>603.0</ele><time>2026-04-19T14:16:13.924Z</time></trkpt><trkpt lat="44.295015162951046" lon="9.577663047597019"><ele>605.0</ele><time>2026-04-19T14:16:14.924Z</time></trkpt><trkpt lat="44.294955580055955" lon="9.5777567233029"><ele>607.0</ele><time>2026-04-19T14:16:15.924Z</time></trkpt><trkpt lat="44.29489977221751" lon="9.577858523976397"><ele>609.0</ele><time>2026-04-19T14:16:16.924Z</time></trkpt><trkpt lat="44.294846907353936" lon="9.577954464996623"><ele>611.0</ele><time>2026-04-19T14:16:17.925Z</time></trkpt><trkpt lat="44.294793858074264" lon="9.578040042786109"><ele>610.8</ele><time>2026-04-19T14:16:18.925Z</time></trkpt><trkpt lat="44.29474045350077" lon="9.578111557305595"><ele>610.6</ele><time>2026-04-19T14:16:19.925Z</time></trkpt><trkpt lat="44.294625955377256" lon="9.578187707077413"><ele>610.4</ele><time>2026-04-19T14:16:21.925Z</time></trkpt><trkpt lat="44.294544003918496" lon="9.578287330377979"><ele>610.2</ele><time>2026-04-19T14:16:23.925Z</time></trkpt><trkpt lat="44.29449979055706" lon="9.57844955321035"><ele>610.0</ele><time>2026-04-19T14:16:25.925Z</time></trkpt><trkpt lat="44.2945006222082" lon="9.578544265798394"><ele>610.0</ele><time>2026-04-19T14:16:26.925Z</time></trkpt><trkpt lat="44.29448375887924" lon="9.578662012228454"><ele>610.0</ele><time>2026-04-19T14:16:27.925Z</time></trkpt><trkpt lat="44.2944545247249" lon="9.578760540130437"><ele>610.0</ele><time>2026-04-19T14:16:28.925Z</time></trkpt><trkpt lat="44.294417747619434" lon="9.578866868959853"><ele>610.0</ele><time>2026-04-19T14:16:29.925Z</time></trkpt><trkpt lat="44.294387763144044" lon="9.578959676304278"><ele>610.0</ele><time>2026-04-19T14:16:30.925Z</time></trkpt><trkpt lat="44.29431051627615" lon="9.57910123565406"><ele>610.0</ele><time>2026-04-19T14:16:32.925Z</time></trkpt><trkpt lat="44.29424051565872" lon="9.579172270550146"><ele>612.3333333333334</ele><time>2026-04-19T14:16:33.925Z</time></trkpt><trkpt lat="44.29416868873027" lon="9.579220879411158"><ele>614.6666666666667</ele><time>2026-04-19T14:16:34.925Z</time></trkpt><trkpt lat="44.29406067639683" lon="9.579318496249895"><ele>617.0</ele><time>2026-04-19T14:16:36.925Z</time></trkpt><trkpt lat="44.29401246079493" lon="9.579394312667693"><ele>619.3333333333334</ele><time>2026-04-19T14:16:37.925Z</time></trkpt><trkpt lat="44.293971951687624" lon="9.579489354673811"><ele>621.6666666666666</ele><time>2026-04-19T14:16:38.925Z</time></trkpt><trkpt lat="44.29392492923588" lon="9.57958110726237"><ele>624.0</ele><time>2026-04-19T14:16:39.925Z</time></trkpt><trkpt lat="44.293857346923886" lon="9.579717821152357"><ele>625.3333333333334</ele><time>2026-04-19T14:16:41.925Z</time></trkpt><trkpt lat="44.29380425794447" lon="9.579797155355251"><ele>626.6666666666666</ele><time>2026-04-19T14:16:42.925Z</time></trkpt><trkpt lat="44.293730513548624" lon="9.57985184062652"><ele>628.0</ele><time>2026-04-19T14:16:43.925Z</time></trkpt><trkpt lat="44.293660538110046" lon="9.579880296353334"><ele>629.3333333333333</ele><time>2026-04-19T14:16:44.925Z</time></trkpt><trkpt lat="44.29359010319133" lon="9.57991063385825"><ele>630.6666666666666</ele><time>2026-04-19T14:16:45.925Z</time></trkpt><trkpt lat="44.293527414672596" lon="9.57995539387407"><ele>632.0</ele><time>2026-04-19T14:16:46.925Z</time></trkpt><trkpt lat="44.293433998073475" lon="9.580047264943342"><ele>632.0</ele><time>2026-04-19T14:16:48.925Z</time></trkpt><trkpt lat="44.29334076652418" lon="9.580131501489848"><ele>632.0</ele><time>2026-04-19T14:16:50.925Z</time></trkpt><trkpt lat="44.29327069952029" lon="9.580162830519038"><ele>632.0</ele><time>2026-04-19T14:16:51.925Z</time></trkpt><trkpt lat="44.29316993177443" lon="9.580152219273291"><ele>632.0</ele><time>2026-04-19T14:16:53.925Z</time></trkpt><trkpt lat="44.29307352915077" lon="9.580120191381463"><ele>632.0</ele><time>2026-04-19T14:16:55.925Z</time></trkpt><trkpt lat="44.29297761952831" lon="9.580150708763712"><ele>632.1666666666666</ele><time>2026-04-19T14:16:57.925Z</time></trkpt><trkpt lat="44.29287848709012" lon="9.580235662515447"><ele>632.3333333333333</ele><time>2026-04-19T14:16:59.925Z</time></trkpt><trkpt lat="44.292801735239564" lon="9.580349577725471"><ele>632.5</ele><time>2026-04-19T14:17:01.925Z</time></trkpt><trkpt lat="44.292777449961264" lon="9.580439719576786"><ele>632.6666666666666</ele><time>2026-04-19T14:17:02.925Z</time></trkpt><trkpt lat="44.29275460615563" lon="9.580527580968942"><ele>632.8333333333334</ele><time>2026-04-19T14:17:03.925Z</time></trkpt><trkpt lat="44.29273173225327" lon="9.580625446106078"><ele>633.0</ele><time>2026-04-19T14:17:04.925Z</time></trkpt><trkpt lat="44.292717906990084" lon="9.580729032813869"><ele>633.0</ele><time>2026-04-19T14:17:05.925Z</time></trkpt><trkpt lat="44.292691734648834" lon="9.580826845991016"><ele>633.0</ele><time>2026-04-19T14:17:06.925Z</time></trkpt><trkpt lat="44.29264258995719" lon="9.580913136896529"><ele>633.0</ele><time>2026-04-19T14:17:07.925Z</time></trkpt><trkpt lat="44.29259384357189" lon="9.581006348095265"><ele>633.0</ele><time>2026-04-19T14:17:08.925Z</time></trkpt><trkpt lat="44.29255047993431" lon="9.581071021362568"><ele>633.0</ele><time>2026-04-19T14:17:09.925Z</time></trkpt><trkpt lat="44.29247968100063" lon="9.581176145178038"><ele>633.0</ele><time>2026-04-19T14:17:11.925Z</time></trkpt><trkpt lat="44.29242463003245" lon="9.581218961137466"><ele>632.4285714285714</ele><time>2026-04-19T14:17:12.925Z</time></trkpt><trkpt lat="44.292353815542256" lon="9.581263741543962"><ele>631.8571428571429</ele><time>2026-04-19T14:17:13.925Z</time></trkpt><trkpt lat="44.29229057520047" lon="9.581307641915057"><ele>631.2857142857142</ele><time>2026-04-19T14:17:14.925Z</time></trkpt><trkpt lat="44.29219876140606" lon="9.581329283560402"><ele>630.7142857142858</ele><time>2026-04-19T14:17:16.925Z</time></trkpt><trkpt lat="44.29213844088504" lon="9.581272518174023"><ele>630.1428571428572</ele><time>2026-04-19T14:17:18.923Z</time></trkpt><trkpt lat="44.29208194614039" lon="9.581216664739168"><ele>629.5714285714286</ele><time>2026-04-19T14:17:19.923Z</time></trkpt><trkpt lat="44.29203262735696" lon="9.581155392224291"><ele>629.0</ele><time>2026-04-19T14:17:20.922Z</time></trkpt><trkpt lat="44.29194187455333" lon="9.581076822530264"><ele>629.0</ele><time>2026-04-19T14:17:22.923Z</time></trkpt><trkpt lat="44.29184153204621" lon="9.58105642383145"><ele>629.0</ele><time>2026-04-19T14:17:24.922Z</time></trkpt><trkpt lat="44.291711807644546" lon="9.581068153426994"><ele>629.0</ele><time>2026-04-19T14:17:26.923Z</time></trkpt><trkpt lat="44.29164539586933" lon="9.58108782236182"><ele>629.0</ele><time>2026-04-19T14:17:27.923Z</time></trkpt><trkpt lat="44.29154823280371" lon="9.581142646033"><ele>629.0</ele><time>2026-04-19T14:17:29.923Z</time></trkpt><trkpt lat="44.291461726221044" lon="9.581189507545238"><ele>631.0</ele><time>2026-04-19T14:17:31.922Z</time></trkpt><trkpt lat="44.29137809685694" lon="9.581221483627042"><ele>633.0</ele><time>2026-04-19T14:17:34.922Z</time></trkpt><trkpt lat="44.291308473227275" lon="9.581167853077341"><ele>635.0</ele><time>2026-04-19T14:17:36.922Z</time></trkpt><trkpt lat="44.2912693489955" lon="9.5810960874347"><ele>637.0</ele><time>2026-04-19T14:17:37.922Z</time></trkpt><trkpt lat="44.29116158216408" lon="9.581008004481562"><ele>639.0</ele><time>2026-04-19T14:17:39.922Z</time></trkpt><trkpt lat="44.29106931278662" lon="9.58094880177665"><ele>639.0</ele><time>2026-04-19T14:17:40.922Z</time></trkpt><trkpt lat="44.29098248250217" lon="9.580921682299739"><ele>639.0</ele><time>2026-04-19T14:17:41.922Z</time></trkpt><trkpt lat="44.290905414095484" lon="9.580870961879617"><ele>639.0</ele><time>2026-04-19T14:17:42.922Z</time></trkpt><trkpt lat="44.2908451284386" lon="9.580831322763158"><ele>639.0</ele><time>2026-04-19T14:17:43.922Z</time></trkpt><trkpt lat="44.290783079201745" lon="9.580805393055737"><ele>639.0</ele><time>2026-04-19T14:17:44.922Z</time></trkpt><trkpt lat="44.29071495380224" lon="9.580793626104173"><ele>639.0</ele><time>2026-04-19T14:17:45.922Z</time></trkpt><trkpt lat="44.290630673561274" lon="9.58080496594824"><ele>640.6</ele><time>2026-04-19T14:17:46.922Z</time></trkpt><trkpt lat="44.29054176935948" lon="9.580831060398447"><ele>642.2</ele><time>2026-04-19T14:17:47.922Z</time></trkpt><trkpt lat="44.29044628055813" lon="9.580860344282385"><ele>643.8000000000001</ele><time>2026-04-19T14:17:48.922Z</time></trkpt><trkpt lat="44.29035662659508" lon="9.580903169237436"><ele>645.4</ele><time>2026-04-19T14:17:49.922Z</time></trkpt><trkpt lat="44.290258165075684" lon="9.580946666706106"><ele>647.0</ele><time>2026-04-19T14:17:50.923Z</time></trkpt><trkpt lat="44.29016050517503" lon="9.580975953707346"><ele>647.0</ele><time>2026-04-19T14:17:51.923Z</time></trkpt><trkpt lat="44.2900878246851" lon="9.58100622028625"><ele>647.0</ele><time>2026-04-19T14:17:52.923Z</time></trkpt><trkpt lat="44.28998624182856" lon="9.580972968409133"><ele>647.0</ele><time>2026-04-19T14:17:54.923Z</time></trkpt><trkpt lat="44.28991746268005" lon="9.580846567241487"><ele>647.0</ele><time>2026-04-19T14:17:56.923Z</time></trkpt><trkpt lat="44.2898311488167" lon="9.580736378443746"><ele>647.0</ele><time>2026-04-19T14:17:58.923Z</time></trkpt><trkpt lat="44.289726985871596" lon="9.580701735670612"><ele>647.6</ele><time>2026-04-19T14:18:00.923Z</time></trkpt><trkpt lat="44.289603341231306" lon="9.580703597102122"><ele>648.2</ele><time>2026-04-19T14:18:02.923Z</time></trkpt><trkpt lat="44.289521655559874" lon="9.58068181014841"><ele>648.8</ele><time>2026-04-19T14:18:03.923Z</time></trkpt><trkpt lat="44.28943014880636" lon="9.580660345977371"><ele>649.4</ele><time>2026-04-19T14:18:04.923Z</time></trkpt><trkpt lat="44.28933467166305" lon="9.58061672255552"><ele>650.0</ele><time>2026-04-19T14:18:05.923Z</time></trkpt><trkpt lat="44.28924619729879" lon="9.580579914395516"><ele>650.0</ele><time>2026-04-19T14:18:06.923Z</time></trkpt><trkpt lat="44.28914747455805" lon="9.58053029072198"><ele>650.0</ele><time>2026-04-19T14:18:07.923Z</time></trkpt><trkpt lat="44.289059969175135" lon="9.58047067322685"><ele>650.0</ele><time>2026-04-19T14:18:08.923Z</time></trkpt><trkpt lat="44.288957530309496" lon="9.580415021542986"><ele>650.0</ele><time>2026-04-19T14:18:09.923Z</time></trkpt><trkpt lat="44.288862179335794" lon="9.58037508020445"><ele>650.0</ele><time>2026-04-19T14:18:10.923Z</time></trkpt><trkpt lat="44.288765603395596" lon="9.580335804680267"><ele>649.0</ele><time>2026-04-19T14:18:11.923Z</time></trkpt><trkpt lat="44.288680027380614" lon="9.580319991260714"><ele>648.0</ele><time>2026-04-19T14:18:12.923Z</time></trkpt><trkpt lat="44.28860241553932" lon="9.580311633522992"><ele>647.0</ele><time>2026-04-19T14:18:13.923Z</time></trkpt><trkpt lat="44.28853887891309" lon="9.58030511551904"><ele>646.0</ele><time>2026-04-19T14:18:14.923Z</time></trkpt><trkpt lat="44.288423351705546" lon="9.58029454671593"><ele>645.0</ele><time>2026-04-19T14:18:16.923Z</time></trkpt><trkpt lat="44.288337819731176" lon="9.58027588065422"><ele>644.0</ele><time>2026-04-19T14:18:18.923Z</time></trkpt><trkpt lat="44.28826184642209" lon="9.580181336130238"><ele>644.0</ele><time>2026-04-19T14:18:20.923Z</time></trkpt><trkpt lat="44.28822628384805" lon="9.580105513357834"><ele>644.0</ele><time>2026-04-19T14:18:21.923Z</time></trkpt><trkpt lat="44.28819275719553" lon="9.580024902032616"><ele>644.0</ele><time>2026-04-19T14:18:22.923Z</time></trkpt><trkpt lat="44.28815671094568" lon="9.57993704570372"><ele>644.0</ele><time>2026-04-19T14:18:23.923Z</time></trkpt><trkpt lat="44.288127760934856" lon="9.579839025068575"><ele>644.0</ele><time>2026-04-19T14:18:24.923Z</time></trkpt><trkpt lat="44.28809794387533" lon="9.579731778086318"><ele>644.0</ele><time>2026-04-19T14:18:25.923Z</time></trkpt><trkpt lat="44.28806952865124" lon="9.579616617111359"><ele>644.0</ele><time>2026-04-19T14:18:26.923Z</time></trkpt><trkpt lat="44.28804390420889" lon="9.579505232679555"><ele>644.0</ele><time>2026-04-19T14:18:27.923Z</time></trkpt><trkpt lat="44.28801826254606" lon="9.579392719821755"><ele>644.0</ele><time>2026-04-19T14:18:28.923Z</time></trkpt><trkpt lat="44.2879867190089" lon="9.579283930509915"><ele>644.0</ele><time>2026-04-19T14:18:29.923Z</time></trkpt><trkpt lat="44.28795264504867" lon="9.579173421847724"><ele>644.0</ele><time>2026-04-19T14:18:30.923Z</time></trkpt><trkpt lat="44.28792115942259" lon="9.57904807192501"><ele>644.0</ele><time>2026-04-19T14:18:31.923Z</time></trkpt><trkpt lat="44.287892032280034" lon="9.578919114565107"><ele>644.0</ele><time>2026-04-19T14:18:32.923Z</time></trkpt><trkpt lat="44.287857248990285" lon="9.578797130494278"><ele>644.0</ele><time>2026-04-19T14:18:33.923Z</time></trkpt><trkpt lat="44.28781629853758" lon="9.578690714488113"><ele>644.0</ele><time>2026-04-19T14:18:34.923Z</time></trkpt><trkpt lat="44.28776741474078" lon="9.578603882275189"><ele>644.0</ele><time>2026-04-19T14:18:35.923Z</time></trkpt><trkpt lat="44.28770095988356" lon="9.578529256896699"><ele>644.0</ele><time>2026-04-19T14:18:36.923Z</time></trkpt><trkpt lat="44.28761874590208" lon="9.578462951070904"><ele>644.0</ele><time>2026-04-19T14:18:37.923Z</time></trkpt><trkpt lat="44.28753097816863" lon="9.57841507159399"><ele>645.8000000000001</ele><time>2026-04-19T14:18:38.923Z</time></trkpt><trkpt lat="44.28743723927616" lon="9.57839608508251"><ele>647.6</ele><time>2026-04-19T14:18:39.923Z</time></trkpt><trkpt lat="44.287340630658846" lon="9.57838732382656"><ele>649.4</ele><time>2026-04-19T14:18:40.923Z</time></trkpt><trkpt lat="44.28724127159073" lon="9.578389162607913"><ele>651.2</ele><time>2026-04-19T14:18:41.923Z</time></trkpt><trkpt lat="44.287154150317214" lon="9.578371447983125"><ele>653.0</ele><time>2026-04-19T14:18:42.923Z</time></trkpt><trkpt lat="44.28707168486912" lon="9.578340091970615"><ele>653.0</ele><time>2026-04-19T14:18:43.923Z</time></trkpt><trkpt lat="44.286988013737265" lon="9.578293586325264"><ele>653.0</ele><time>2026-04-19T14:18:44.923Z</time></trkpt><trkpt lat="44.28691062066358" lon="9.578220667373584"><ele>653.0</ele><time>2026-04-19T14:18:45.923Z</time></trkpt><trkpt lat="44.28683490945038" lon="9.578131558179669"><ele>653.0</ele><time>2026-04-19T14:18:46.923Z</time></trkpt><trkpt lat="44.28676805065896" lon="9.578025176907378"><ele>653.0</ele><time>2026-04-19T14:18:47.923Z</time></trkpt><trkpt lat="44.28670275243156" lon="9.577914733370548"><ele>655.5999999999999</ele><time>2026-04-19T14:18:48.923Z</time></trkpt><trkpt lat="44.28663621648803" lon="9.57778567766878"><ele>658.1999999999999</ele><time>2026-04-19T14:18:49.923Z</time></trkpt><trkpt lat="44.28656872430134" lon="9.577657057594998"><ele>660.8</ele><time>2026-04-19T14:18:50.923Z</time></trkpt><trkpt lat="44.28649917938376" lon="9.577539570919937"><ele>663.4</ele><time>2026-04-19T14:18:51.923Z</time></trkpt><trkpt lat="44.28643627394942" lon="9.577441158363014"><ele>666.0</ele><time>2026-04-19T14:18:52.923Z</time></trkpt><trkpt lat="44.28636450835311" lon="9.577349620913948"><ele>666.0</ele><time>2026-04-19T14:18:53.923Z</time></trkpt><trkpt lat="44.28628252158505" lon="9.577275300900789"><ele>666.0</ele><time>2026-04-19T14:18:54.923Z</time></trkpt><trkpt lat="44.28618541958848" lon="9.577232669073288"><ele>666.0</ele><time>2026-04-19T14:18:55.923Z</time></trkpt><trkpt lat="44.286083428516314" lon="9.577207768818393"><ele>666.0</ele><time>2026-04-19T14:18:56.923Z</time></trkpt><trkpt lat="44.28597857562662" lon="9.5772066604116"><ele>666.0</ele><time>2026-04-19T14:18:57.923Z</time></trkpt><trkpt lat="44.28585618842893" lon="9.577216193472823"><ele>666.0</ele><time>2026-04-19T14:18:58.923Z</time></trkpt><trkpt lat="44.285726877468356" lon="9.577223121104883"><ele>666.0</ele><time>2026-04-19T14:18:59.923Z</time></trkpt><trkpt lat="44.28560184645489" lon="9.57722904250331"><ele>666.0</ele><time>2026-04-19T14:19:00.923Z</time></trkpt><trkpt lat="44.285479234765695" lon="9.577244723605652"><ele>666.0</ele><time>2026-04-19T14:19:01.923Z</time></trkpt><trkpt lat="44.285362570704855" lon="9.577268149798153"><ele>667.0</ele><time>2026-04-19T14:19:02.923Z</time></trkpt><trkpt lat="44.28525093215624" lon="9.577297563152019"><ele>668.0</ele><time>2026-04-19T14:19:03.923Z</time></trkpt><trkpt lat="44.285143159535444" lon="9.577338342206392"><ele>669.0</ele><time>2026-04-19T14:19:04.923Z</time></trkpt><trkpt lat="44.28503389253255" lon="9.57738929574936"><ele>670.0</ele><time>2026-04-19T14:19:05.923Z</time></trkpt><trkpt lat="44.28493210710301" lon="9.5774516951913"><ele>670.0</ele><time>2026-04-19T14:19:06.923Z</time></trkpt><trkpt lat="44.2848291258137" lon="9.57752317494712"><ele>670.0</ele><time>2026-04-19T14:19:07.923Z</time></trkpt><trkpt lat="44.28472406589456" lon="9.577572390769232"><ele>670.0</ele><time>2026-04-19T14:19:08.923Z</time></trkpt><trkpt lat="44.28461612884212" lon="9.577596796060613"><ele>670.0</ele><time>2026-04-19T14:19:09.923Z</time></trkpt><trkpt lat="44.28449974665873" lon="9.577602525036214"><ele>670.4</ele><time>2026-04-19T14:19:10.923Z</time></trkpt><trkpt lat="44.28438201148012" lon="9.577585882094565"><ele>670.8</ele><time>2026-04-19T14:19:11.923Z</time></trkpt><trkpt lat="44.2842885826508" lon="9.577543457520514"><ele>671.2</ele><time>2026-04-19T14:19:12.923Z</time></trkpt><trkpt lat="44.284210936762356" lon="9.577479247978282"><ele>671.6</ele><time>2026-04-19T14:19:13.923Z</time></trkpt><trkpt lat="44.28414477004359" lon="9.577392252528654"><ele>672.0</ele><time>2026-04-19T14:19:14.923Z</time></trkpt><trkpt lat="44.28408331978534" lon="9.577282767528875"><ele>672.0</ele><time>2026-04-19T14:19:15.923Z</time></trkpt><trkpt lat="44.284027987239604" lon="9.577164679469213"><ele>672.0</ele><time>2026-04-19T14:19:16.923Z</time></trkpt><trkpt lat="44.28397933218136" lon="9.577060668085874"><ele>672.0</ele><time>2026-04-19T14:19:17.923Z</time></trkpt><trkpt lat="44.28391232912924" lon="9.576972001642833"><ele>672.0</ele><time>2026-04-19T14:19:18.923Z</time></trkpt><trkpt lat="44.28382196683508" lon="9.576906775640339"><ele>672.0</ele><time>2026-04-19T14:19:19.923Z</time></trkpt><trkpt lat="44.28369714027673" lon="9.576840196638493"><ele>673.75</ele><time>2026-04-19T14:19:20.923Z</time></trkpt><trkpt lat="44.28356404003278" lon="9.576770351703923"><ele>675.5</ele><time>2026-04-19T14:19:21.923Z</time></trkpt><trkpt lat="44.28344496840358" lon="9.576714827204652"><ele>677.25</ele><time>2026-04-19T14:19:22.923Z</time></trkpt><trkpt lat="44.2833371420516" lon="9.576654898813725"><ele>679.0</ele><time>2026-04-19T14:19:23.921Z</time></trkpt><trkpt lat="44.283237022468796" lon="9.576592843648118"><ele>679.0</ele><time>2026-04-19T14:19:24.921Z</time></trkpt><trkpt lat="44.28314092461426" lon="9.576546261301008"><ele>679.0</ele><time>2026-04-19T14:19:25.921Z</time></trkpt><trkpt lat="44.2830350310389" lon="9.576537435108209"><ele>679.0</ele><time>2026-04-19T14:19:26.921Z</time></trkpt><trkpt lat="44.28292420355136" lon="9.576545646379142"><ele>679.0</ele><time>2026-04-19T14:19:27.921Z</time></trkpt><trkpt lat="44.28282001045921" lon="9.576569151321875"><ele>679.0</ele><time>2026-04-19T14:19:28.921Z</time></trkpt><trkpt lat="44.282681220868255" lon="9.576605659316959"><ele>677.75</ele><time>2026-04-19T14:19:29.921Z</time></trkpt><trkpt lat="44.2825472820777" lon="9.576634917114252"><ele>676.5</ele><time>2026-04-19T14:19:30.921Z</time></trkpt><trkpt lat="44.282410867662314" lon="9.576662154342868"><ele>675.25</ele><time>2026-04-19T14:19:31.921Z</time></trkpt><trkpt lat="44.28227906073081" lon="9.576688674088242"><ele>674.0</ele><time>2026-04-19T14:19:32.921Z</time></trkpt><trkpt lat="44.28215970423888" lon="9.576714151043992"><ele>674.0</ele><time>2026-04-19T14:19:33.92Z</time></trkpt><trkpt lat="44.282063827628825" lon="9.57672899301085"><ele>674.0</ele><time>2026-04-19T14:19:34.92Z</time></trkpt><trkpt lat="44.2819751915457" lon="9.576741885762978"><ele>674.0</ele><time>2026-04-19T14:19:35.921Z</time></trkpt><trkpt lat="44.28189945789532" lon="9.576771658926647"><ele>674.0</ele><time>2026-04-19T14:19:36.921Z</time></trkpt><trkpt lat="44.281834510258996" lon="9.576821853858165"><ele>674.0</ele><time>2026-04-19T14:19:37.921Z</time></trkpt><trkpt lat="44.28177190749471" lon="9.57690223951537"><ele>674.0</ele><time>2026-04-19T14:19:38.921Z</time></trkpt><trkpt lat="44.28170819826578" lon="9.577002250266672"><ele>673.0</ele><time>2026-04-19T14:19:39.921Z</time></trkpt><trkpt lat="44.28164522083639" lon="9.577122421183647"><ele>672.0</ele><time>2026-04-19T14:19:40.921Z</time></trkpt><trkpt lat="44.28157135021744" lon="9.577251376963009"><ele>671.0</ele><time>2026-04-19T14:19:41.921Z</time></trkpt><trkpt lat="44.281507991135776" lon="9.577365004299637"><ele>670.0</ele><time>2026-04-19T14:19:42.921Z</time></trkpt><trkpt lat="44.281457997049436" lon="9.577471835240516"><ele>669.0</ele><time>2026-04-19T14:19:43.921Z</time></trkpt><trkpt lat="44.28140458194401" lon="9.577574274249928"><ele>669.0</ele><time>2026-04-19T14:19:44.921Z</time></trkpt><trkpt lat="44.28136194055603" lon="9.577655808777902"><ele>669.0</ele><time>2026-04-19T14:19:45.921Z</time></trkpt><trkpt lat="44.28131480890831" lon="9.577720636169708"><ele>669.0</ele><time>2026-04-19T14:19:46.921Z</time></trkpt><trkpt lat="44.281202460214864" lon="9.57779566195994"><ele>669.0</ele><time>2026-04-19T14:19:48.921Z</time></trkpt><trkpt lat="44.281139969629535" lon="9.577807128383888"><ele>669.0</ele><time>2026-04-19T14:19:49.921Z</time></trkpt><trkpt lat="44.28107708277767" lon="9.577814950968964"><ele>669.0</ele><time>2026-04-19T14:19:50.921Z</time></trkpt><trkpt lat="44.280958818253985" lon="9.577780169181347"><ele>669.0</ele><time>2026-04-19T14:19:52.921Z</time></trkpt><trkpt lat="44.28089758560875" lon="9.577729395648614"><ele>669.0</ele><time>2026-04-19T14:19:53.921Z</time></trkpt><trkpt lat="44.280835447695765" lon="9.577656790170703"><ele>669.0</ele><time>2026-04-19T14:19:54.921Z</time></trkpt><trkpt lat="44.28077555404121" lon="9.577593656623478"><ele>669.0</ele><time>2026-04-19T14:19:55.921Z</time></trkpt><trkpt lat="44.28068442990848" lon="9.57746940725144"><ele>669.0</ele><time>2026-04-19T14:19:57.921Z</time></trkpt><trkpt lat="44.280629588509" lon="9.577391101359845"><ele>669.0</ele><time>2026-04-19T14:19:58.921Z</time></trkpt><trkpt lat="44.280547356481705" lon="9.57726499745529"><ele>666.0</ele><time>2026-04-19T14:20:00.921Z</time></trkpt><trkpt lat="44.28043031492118" lon="9.577212688484869"><ele>663.0</ele><time>2026-04-19T14:20:02.921Z</time></trkpt><trkpt lat="44.280320045394355" lon="9.577250830303168"><ele>660.0</ele><time>2026-04-19T14:20:04.921Z</time></trkpt><trkpt lat="44.28020421387749" lon="9.577322492762768"><ele>657.0</ele><time>2026-04-19T14:20:06.921Z</time></trkpt><trkpt lat="44.28013575024127" lon="9.577328535194138"><ele>654.0</ele><time>2026-04-19T14:20:07.921Z</time></trkpt><trkpt lat="44.28006826732835" lon="9.577313989031781"><ele>654.0</ele><time>2026-04-19T14:20:08.921Z</time></trkpt><trkpt lat="44.28000546723978" lon="9.577286693644215"><ele>654.0</ele><time>2026-04-19T14:20:09.921Z</time></trkpt><trkpt lat="44.279942525054416" lon="9.577264457615486"><ele>654.0</ele><time>2026-04-19T14:20:10.921Z</time></trkpt><trkpt lat="44.2798305794316" lon="9.577241839439855"><ele>654.0</ele><time>2026-04-19T14:20:12.921Z</time></trkpt><trkpt lat="44.2797513114713" lon="9.57722945431145"><ele>654.0</ele><time>2026-04-19T14:20:14.921Z</time></trkpt><trkpt lat="44.27968935544963" lon="9.577255250422283"><ele>654.0</ele><time>2026-04-19T14:20:20.921Z</time></trkpt><trkpt lat="44.27967874233625" lon="9.57737289446814"><ele>654.0</ele><time>2026-04-19T14:20:23.921Z</time></trkpt><trkpt lat="44.27972308328479" lon="9.577445301419864"><ele>654.0</ele><time>2026-04-19T14:20:24.921Z</time></trkpt><trkpt lat="44.27981493658104" lon="9.577571829734454"><ele>654.0</ele><time>2026-04-19T14:20:26.921Z</time></trkpt><trkpt lat="44.27987521420399" lon="9.577636912483204"><ele>654.0</ele><time>2026-04-19T14:20:27.921Z</time></trkpt><trkpt lat="44.27995279580931" lon="9.57769099246081"><ele>654.0</ele><time>2026-04-19T14:20:28.921Z</time></trkpt><trkpt lat="44.28003733325504" lon="9.577732829287134"><ele>654.0</ele><time>2026-04-19T14:20:29.921Z</time></trkpt><trkpt lat="44.28012368243684" lon="9.577769046644264"><ele>654.0</ele><time>2026-04-19T14:20:30.921Z</time></trkpt><trkpt lat="44.28020749179881" lon="9.577793751658273"><ele>654.0</ele><time>2026-04-19T14:20:31.921Z</time></trkpt><trkpt lat="44.280289332147795" lon="9.577826523089954"><ele>654.0</ele><time>2026-04-19T14:20:32.921Z</time></trkpt><trkpt lat="44.280372045690726" lon="9.577876855367633"><ele>654.0</ele><time>2026-04-19T14:20:33.921Z</time></trkpt><trkpt lat="44.28045377112619" lon="9.577941844877198"><ele>654.0</ele><time>2026-04-19T14:20:34.921Z</time></trkpt><trkpt lat="44.28052807317722" lon="9.578023148118852"><ele>654.0</ele><time>2026-04-19T14:20:35.921Z</time></trkpt><trkpt lat="44.28059171282208" lon="9.578113048141583"><ele>654.0</ele><time>2026-04-19T14:20:36.921Z</time></trkpt><trkpt lat="44.28065523568496" lon="9.578195293637346"><ele>654.0</ele><time>2026-04-19T14:20:37.921Z</time></trkpt><trkpt lat="44.280712626936996" lon="9.57826605459443"><ele>654.0</ele><time>2026-04-19T14:20:38.921Z</time></trkpt><trkpt lat="44.280764567189074" lon="9.578334777511884"><ele>654.0</ele><time>2026-04-19T14:20:39.921Z</time></trkpt><trkpt lat="44.280808660087914" lon="9.578408593880955"><ele>654.0</ele><time>2026-04-19T14:20:40.921Z</time></trkpt><trkpt lat="44.28083127769676" lon="9.57849365217665"><ele>654.0</ele><time>2026-04-19T14:20:41.921Z</time></trkpt><trkpt lat="44.28082271406101" lon="9.5785914881789"><ele>654.0</ele><time>2026-04-19T14:20:42.921Z</time></trkpt><trkpt lat="44.28076445183267" lon="9.5786579566191"><ele>654.0</ele><time>2026-04-19T14:20:43.921Z</time></trkpt><trkpt lat="44.2806887090967" lon="9.578684789341025"><ele>654.0</ele><time>2026-04-19T14:20:44.921Z</time></trkpt><trkpt lat="44.28060251554315" lon="9.578662941441438"><ele>654.0</ele><time>2026-04-19T14:20:45.921Z</time></trkpt><trkpt lat="44.28052190952559" lon="9.578594391603772"><ele>654.0</ele><time>2026-04-19T14:20:46.921Z</time></trkpt><trkpt lat="44.28044458278487" lon="9.578519191116891"><ele>652.4000000000001</ele><time>2026-04-19T14:20:47.921Z</time></trkpt><trkpt lat="44.2803656042791" lon="9.578471325764681"><ele>650.8</ele><time>2026-04-19T14:20:48.921Z</time></trkpt><trkpt lat="44.28027211376672" lon="9.578458908230854"><ele>649.2</ele><time>2026-04-19T14:20:49.921Z</time></trkpt><trkpt lat="44.28016854943289" lon="9.578503944062627"><ele>647.5999999999999</ele><time>2026-04-19T14:20:50.921Z</time></trkpt><trkpt lat="44.28007174106149" lon="9.578565514651673"><ele>646.0</ele><time>2026-04-19T14:20:51.921Z</time></trkpt><trkpt lat="44.279964297196976" lon="9.578630572933621"><ele>644.0</ele><time>2026-04-19T14:20:52.921Z</time></trkpt><trkpt lat="44.279853621939004" lon="9.578698998278036"><ele>642.0</ele><time>2026-04-19T14:20:53.921Z</time></trkpt><trkpt lat="44.2797446066095" lon="9.578752415718123"><ele>640.0</ele><time>2026-04-19T14:20:54.921Z</time></trkpt><trkpt lat="44.27964434920513" lon="9.57880064568043"><ele>638.0</ele><time>2026-04-19T14:20:55.921Z</time></trkpt><trkpt lat="44.27955845278255" lon="9.578851658775184"><ele>636.0</ele><time>2026-04-19T14:20:56.921Z</time></trkpt><trkpt lat="44.27948866914572" lon="9.578920774578124"><ele>636.0</ele><time>2026-04-19T14:20:57.921Z</time></trkpt><trkpt lat="44.27944437961714" lon="9.579012948755992"><ele>636.0</ele><time>2026-04-19T14:20:58.921Z</time></trkpt><trkpt lat="44.27942749454064" lon="9.579128427273334"><ele>636.0</ele><time>2026-04-19T14:20:59.921Z</time></trkpt><trkpt lat="44.27943652928245" lon="9.579256347584233"><ele>636.0</ele><time>2026-04-19T14:21:00.921Z</time></trkpt><trkpt lat="44.27948770457796" lon="9.579376696095895"><ele>636.0</ele><time>2026-04-19T14:21:01.921Z</time></trkpt><trkpt lat="44.27955764537916" lon="9.579463383692774"><ele>636.0</ele><time>2026-04-19T14:21:02.921Z</time></trkpt><trkpt lat="44.27963530039995" lon="9.579507134568251"><ele>636.0</ele><time>2026-04-19T14:21:03.921Z</time></trkpt><trkpt lat="44.27971991350873" lon="9.579506059719648"><ele>636.0</ele><time>2026-04-19T14:21:04.921Z</time></trkpt><trkpt lat="44.279809643910404" lon="9.579475956738685"><ele>636.0</ele><time>2026-04-19T14:21:05.921Z</time></trkpt><trkpt lat="44.27990704370784" lon="9.57940908390374"><ele>636.0</ele><time>2026-04-19T14:21:06.921Z</time></trkpt><trkpt lat="44.280008116174244" lon="9.579336964037276"><ele>635.25</ele><time>2026-04-19T14:21:07.921Z</time></trkpt><trkpt lat="44.28011890494044" lon="9.57929711079945"><ele>634.5</ele><time>2026-04-19T14:21:08.921Z</time></trkpt><trkpt lat="44.28023670647942" lon="9.579280343566532"><ele>633.75</ele><time>2026-04-19T14:21:09.921Z</time></trkpt><trkpt lat="44.28035079679916" lon="9.57931968722518"><ele>633.0</ele><time>2026-04-19T14:21:10.921Z</time></trkpt><trkpt lat="44.28046275862242" lon="9.579386666560675"><ele>633.0</ele><time>2026-04-19T14:21:11.921Z</time></trkpt><trkpt lat="44.2805674378821" lon="9.579489676300607"><ele>633.0</ele><time>2026-04-19T14:21:12.921Z</time></trkpt><trkpt lat="44.28066172009458" lon="9.579609879979264"><ele>633.0</ele><time>2026-04-19T14:21:13.921Z</time></trkpt><trkpt lat="44.28075884820778" lon="9.579738577477572"><ele>633.0</ele><time>2026-04-19T14:21:14.921Z</time></trkpt><trkpt lat="44.28086168346204" lon="9.579855676710025"><ele>630.0</ele><time>2026-04-19T14:21:15.921Z</time></trkpt><trkpt lat="44.28096659845469" lon="9.579966051093553"><ele>627.0</ele><time>2026-04-19T14:21:16.921Z</time></trkpt><trkpt lat="44.28107134855614" lon="9.580082744653666"><ele>624.0</ele><time>2026-04-19T14:21:17.921Z</time></trkpt><trkpt lat="44.28116819899147" lon="9.580192448583553"><ele>621.0</ele><time>2026-04-19T14:21:18.921Z</time></trkpt><trkpt lat="44.28126068166589" lon="9.580295491245408"><ele>616.75</ele><time>2026-04-19T14:21:19.921Z</time></trkpt><trkpt lat="44.281356263287634" lon="9.580381829184699"><ele>612.5</ele><time>2026-04-19T14:21:20.921Z</time></trkpt><trkpt lat="44.28146120356651" lon="9.580435144483621"><ele>608.25</ele><time>2026-04-19T14:21:21.921Z</time></trkpt><trkpt lat="44.28157580179547" lon="9.580449303779867"><ele>604.0</ele><time>2026-04-19T14:21:22.921Z</time></trkpt><trkpt lat="44.28170114198502" lon="9.580451750200073"><ele>604.0</ele><time>2026-04-19T14:21:23.922Z</time></trkpt><trkpt lat="44.28184072939503" lon="9.580459434386674"><ele>604.0</ele><time>2026-04-19T14:21:24.922Z</time></trkpt><trkpt lat="44.28198037567374" lon="9.580467157117226"><ele>604.0</ele><time>2026-04-19T14:21:25.922Z</time></trkpt><trkpt lat="44.282111638055234" lon="9.580483493126822"><ele>604.0</ele><time>2026-04-19T14:21:26.922Z</time></trkpt><trkpt lat="44.2822369091722" lon="9.580490039494592"><ele>603.5</ele><time>2026-04-19T14:21:27.922Z</time></trkpt><trkpt lat="44.28235468241843" lon="9.580513474294364"><ele>603.0</ele><time>2026-04-19T14:21:28.922Z</time></trkpt><trkpt lat="44.28245645579505" lon="9.580573914209005"><ele>602.5</ele><time>2026-04-19T14:21:29.919Z</time></trkpt><trkpt lat="44.28254775965468" lon="9.580669727951111"><ele>602.0</ele><time>2026-04-19T14:21:30.92Z</time></trkpt><trkpt lat="44.2826307782195" lon="9.580774035283358"><ele>602.0</ele><time>2026-04-19T14:21:31.92Z</time></trkpt><trkpt lat="44.28271812651898" lon="9.580858936954936"><ele>602.0</ele><time>2026-04-19T14:21:32.92Z</time></trkpt><trkpt lat="44.28280659915217" lon="9.580928314665304"><ele>602.0</ele><time>2026-04-19T14:21:33.92Z</time></trkpt><trkpt lat="44.282914847475006" lon="9.580993018535647"><ele>602.0</ele><time>2026-04-19T14:21:34.92Z</time></trkpt><trkpt lat="44.28300619134541" lon="9.581058242794619"><ele>602.0</ele><time>2026-04-19T14:21:35.919Z</time></trkpt><trkpt lat="44.28306916552178" lon="9.581116538577724"><ele>599.3333333333333</ele><time>2026-04-19T14:21:36.919Z</time></trkpt><trkpt lat="44.28310128592531" lon="9.581207858978438"><ele>596.6666666666666</ele><time>2026-04-19T14:21:37.919Z</time></trkpt><trkpt lat="44.28308217848997" lon="9.58132137496358"><ele>594.0</ele><time>2026-04-19T14:21:38.92Z</time></trkpt><trkpt lat="44.28301813703026" lon="9.581395383515387"><ele>591.3333333333334</ele><time>2026-04-19T14:21:39.92Z</time></trkpt><trkpt lat="44.282940146506434" lon="9.581415703635175"><ele>588.6666666666667</ele><time>2026-04-19T14:21:40.92Z</time></trkpt><trkpt lat="44.28285585599623" lon="9.581382012871899"><ele>586.0</ele><time>2026-04-19T14:21:41.919Z</time></trkpt><trkpt lat="44.28278735250871" lon="9.581307797590203"><ele>585.4</ele><time>2026-04-19T14:21:42.919Z</time></trkpt><trkpt lat="44.282734262142114" lon="9.581191213442878"><ele>584.8</ele><time>2026-04-19T14:21:43.919Z</time></trkpt><trkpt lat="44.282668130526595" lon="9.58107711409157"><ele>584.1999999999999</ele><time>2026-04-19T14:21:44.919Z</time></trkpt><trkpt lat="44.28258162228561" lon="9.58097380876085"><ele>583.6</ele><time>2026-04-19T14:21:45.919Z</time></trkpt><trkpt lat="44.2824838969312" lon="9.580907047620258"><ele>583.0</ele><time>2026-04-19T14:21:46.919Z</time></trkpt><trkpt lat="44.28239536919182" lon="9.580852595243908"><ele>586.8</ele><time>2026-04-19T14:21:47.919Z</time></trkpt><trkpt lat="44.282296805485565" lon="9.580834985347545"><ele>590.5999999999999</ele><time>2026-04-19T14:21:48.919Z</time></trkpt><trkpt lat="44.2821929118119" lon="9.58085804214364"><ele>594.4000000000001</ele><time>2026-04-19T14:21:49.919Z</time></trkpt><trkpt lat="44.28208105980232" lon="9.580924467539715"><ele>598.2</ele><time>2026-04-19T14:21:50.919Z</time></trkpt><trkpt lat="44.2819704221611" lon="9.580982799902248"><ele>602.0</ele><time>2026-04-19T14:21:51.919Z</time></trkpt><trkpt lat="44.281878262982964" lon="9.581049565271487"><ele>602.4</ele><time>2026-04-19T14:21:52.919Z</time></trkpt><trkpt lat="44.281813532126975" lon="9.581126474374651"><ele>602.8000000000001</ele><time>2026-04-19T14:21:53.919Z</time></trkpt><trkpt lat="44.28178129802065" lon="9.581240742666555"><ele>603.2</ele><time>2026-04-19T14:21:54.919Z</time></trkpt><trkpt lat="44.28179076220975" lon="9.581396569934098"><ele>603.6</ele><time>2026-04-19T14:21:55.919Z</time></trkpt><trkpt lat="44.28184284034003" lon="9.581541189483705"><ele>604.0</ele><time>2026-04-19T14:21:56.919Z</time></trkpt><trkpt lat="44.281895857375304" lon="9.581693358793837"><ele>600.5</ele><time>2026-04-19T14:21:57.919Z</time></trkpt><trkpt lat="44.28196343192845" lon="9.581831169911698"><ele>597.0</ele><time>2026-04-19T14:21:58.919Z</time></trkpt><trkpt lat="44.28202890396656" lon="9.581972872607475"><ele>593.5</ele><time>2026-04-19T14:21:59.919Z</time></trkpt><trkpt lat="44.28208369596232" lon="9.582124362040062"><ele>590.0</ele><time>2026-04-19T14:22:00.919Z</time></trkpt><trkpt lat="44.28211760805372" lon="9.582283780170247"><ele>588.0</ele><time>2026-04-19T14:22:01.919Z</time></trkpt><trkpt lat="44.28213057536965" lon="9.582451691821523"><ele>586.0</ele><time>2026-04-19T14:22:02.919Z</time></trkpt><trkpt lat="44.28213910811511" lon="9.582625543055363"><ele>584.0</ele><time>2026-04-19T14:22:03.919Z</time></trkpt><trkpt lat="44.28214209563151" lon="9.582790556439917"><ele>582.0</ele><time>2026-04-19T14:22:04.919Z</time></trkpt><trkpt lat="44.282131616378344" lon="9.58294265063934"><ele>579.25</ele><time>2026-04-19T14:22:05.919Z</time></trkpt><trkpt lat="44.28209407027844" lon="9.583093326382649"><ele>576.5</ele><time>2026-04-19T14:22:06.919Z</time></trkpt><trkpt lat="44.28203471185338" lon="9.583246377228779"><ele>573.75</ele><time>2026-04-19T14:22:07.919Z</time></trkpt><trkpt lat="44.28196083274558" lon="9.58339223545865"><ele>571.0</ele><time>2026-04-19T14:22:08.919Z</time></trkpt><trkpt lat="44.281877549143616" lon="9.583548212301922"><ele>568.0</ele><time>2026-04-19T14:22:09.919Z</time></trkpt><trkpt lat="44.281784985580444" lon="9.58372920864534"><ele>565.0</ele><time>2026-04-19T14:22:10.919Z</time></trkpt><trkpt lat="44.281691760249906" lon="9.58390849485311"><ele>562.0</ele><time>2026-04-19T14:22:11.919Z</time></trkpt><trkpt lat="44.28161134936948" lon="9.584074623097738"><ele>562.0</ele><time>2026-04-19T14:22:12.919Z</time></trkpt><trkpt lat="44.281536887752154" lon="9.584225044050587"><ele>562.0</ele><time>2026-04-19T14:22:13.919Z</time></trkpt><trkpt lat="44.28146901209364" lon="9.584359356139181"><ele>562.0</ele><time>2026-04-19T14:22:14.92Z</time></trkpt><trkpt lat="44.28141207782601" lon="9.584479585926385"><ele>562.0</ele><time>2026-04-19T14:22:15.92Z</time></trkpt><trkpt lat="44.28137057334134" lon="9.584581839752902"><ele>562.0</ele><time>2026-04-19T14:22:16.92Z</time></trkpt><trkpt lat="44.28136731761252" lon="9.584698607136701"><ele>561.5</ele><time>2026-04-19T14:22:17.92Z</time></trkpt><trkpt lat="44.281408760897364" lon="9.584835001973808"><ele>561.0</ele><time>2026-04-19T14:22:18.92Z</time></trkpt><trkpt lat="44.281481048792806" lon="9.5849697331694"><ele>560.5</ele><time>2026-04-19T14:22:19.92Z</time></trkpt><trkpt lat="44.28158024389073" lon="9.585092934053906"><ele>560.0</ele><time>2026-04-19T14:22:20.92Z</time></trkpt><trkpt lat="44.28168431707798" lon="9.585230316726784"><ele>556.0</ele><time>2026-04-19T14:22:21.92Z</time></trkpt><trkpt lat="44.28179881832691" lon="9.585388028853428"><ele>552.0</ele><time>2026-04-19T14:22:22.92Z</time></trkpt><trkpt lat="44.28190877209894" lon="9.585550759647372"><ele>548.0</ele><time>2026-04-19T14:22:23.92Z</time></trkpt><trkpt lat="44.28202705144394" lon="9.585720512281375"><ele>548.0</ele><time>2026-04-19T14:22:24.92Z</time></trkpt><trkpt lat="44.28213516642131" lon="9.585881567642213"><ele>548.0</ele><time>2026-04-19T14:22:25.92Z</time></trkpt><trkpt lat="44.282233827431064" lon="9.586024839096014"><ele>548.0</ele><time>2026-04-19T14:22:26.92Z</time></trkpt><trkpt lat="44.28232807464184" lon="9.586165896363854"><ele>548.0</ele><time>2026-04-19T14:22:27.92Z</time></trkpt><trkpt lat="44.28241873695515" lon="9.586294228924432"><ele>548.4</ele><time>2026-04-19T14:22:28.92Z</time></trkpt><trkpt lat="44.28249741271261" lon="9.586414285243556"><ele>548.8</ele><time>2026-04-19T14:22:29.92Z</time></trkpt><trkpt lat="44.28256051419339" lon="9.586513624332108"><ele>549.2</ele><time>2026-04-19T14:22:30.92Z</time></trkpt><trkpt lat="44.28261240535299" lon="9.586605296231218"><ele>549.6</ele><time>2026-04-19T14:22:31.92Z</time></trkpt><trkpt lat="44.28264806063912" lon="9.586713694275293"><ele>550.0</ele><time>2026-04-19T14:22:32.92Z</time></trkpt><trkpt lat="44.28265145011148" lon="9.586845878794062"><ele>550.0</ele><time>2026-04-19T14:22:33.92Z</time></trkpt><trkpt lat="44.28260783550037" lon="9.586983156585344"><ele>550.0</ele><time>2026-04-19T14:22:34.92Z</time></trkpt><trkpt lat="44.282534667067544" lon="9.587091222250569"><ele>550.0</ele><time>2026-04-19T14:22:35.92Z</time></trkpt><trkpt lat="44.282453026204585" lon="9.587177931162811"><ele>550.0</ele><time>2026-04-19T14:22:36.92Z</time></trkpt><trkpt lat="44.28236045586249" lon="9.58720945523569"><ele>550.0</ele><time>2026-04-19T14:22:37.92Z</time></trkpt><trkpt lat="44.28226619210205" lon="9.58720107833418"><ele>546.25</ele><time>2026-04-19T14:22:38.92Z</time></trkpt><trkpt lat="44.28216941717058" lon="9.587126344357902"><ele>542.5</ele><time>2026-04-19T14:22:39.92Z</time></trkpt><trkpt lat="44.282084503345956" lon="9.58701205812496"><ele>538.75</ele><time>2026-04-19T14:22:40.92Z</time></trkpt><trkpt lat="44.28198919138448" lon="9.58689547307031"><ele>535.0</ele><time>2026-04-19T14:22:41.92Z</time></trkpt><trkpt lat="44.28189891331304" lon="9.586752639225232"><ele>535.0</ele><time>2026-04-19T14:22:42.92Z</time></trkpt><trkpt lat="44.28181216515115" lon="9.586601697557281"><ele>535.0</ele><time>2026-04-19T14:22:43.92Z</time></trkpt><trkpt lat="44.28171996868385" lon="9.586470769020982"><ele>535.0</ele><time>2026-04-19T14:22:44.92Z</time></trkpt><trkpt lat="44.28162831909939" lon="9.586355037527474"><ele>535.0</ele><time>2026-04-19T14:22:45.92Z</time></trkpt><trkpt lat="44.28154436175358" lon="9.586241885362607"><ele>535.6</ele><time>2026-04-19T14:22:46.92Z</time></trkpt><trkpt lat="44.28146458294806" lon="9.586153513577834"><ele>536.2</ele><time>2026-04-19T14:22:47.92Z</time></trkpt><trkpt lat="44.281376786125996" lon="9.586099442288978"><ele>536.8</ele><time>2026-04-19T14:22:48.92Z</time></trkpt><trkpt lat="44.28127839229865" lon="9.58609253761393"><ele>537.4</ele><time>2026-04-19T14:22:49.92Z</time></trkpt><trkpt lat="44.281175716565976" lon="9.586151831041407"><ele>538.0</ele><time>2026-04-19T14:22:50.92Z</time></trkpt><trkpt lat="44.28110649660796" lon="9.586260548555707"><ele>538.0</ele><time>2026-04-19T14:22:51.92Z</time></trkpt><trkpt lat="44.28106336862155" lon="9.58641151837752"><ele>538.0</ele><time>2026-04-19T14:22:52.92Z</time></trkpt><trkpt lat="44.28102820268729" lon="9.586580466557562"><ele>538.0</ele><time>2026-04-19T14:22:53.92Z</time></trkpt><trkpt lat="44.28099526021457" lon="9.586756755426592"><ele>538.0</ele><time>2026-04-19T14:22:54.92Z</time></trkpt><trkpt lat="44.2809507341859" lon="9.586936947583771"><ele>533.5</ele><time>2026-04-19T14:22:55.92Z</time></trkpt><trkpt lat="44.280898145328585" lon="9.587100990839527"><ele>529.0</ele><time>2026-04-19T14:22:56.92Z</time></trkpt><trkpt lat="44.28082487831682" lon="9.587246519325486"><ele>524.5</ele><time>2026-04-19T14:22:57.92Z</time></trkpt><trkpt lat="44.280730217051506" lon="9.58737546787566"><ele>520.0</ele><time>2026-04-19T14:22:58.92Z</time></trkpt><trkpt lat="44.28062221135003" lon="9.587495630101424"><ele>521.25</ele><time>2026-04-19T14:22:59.92Z</time></trkpt><trkpt lat="44.28052522120901" lon="9.587617541353001"><ele>522.5</ele><time>2026-04-19T14:23:00.92Z</time></trkpt><trkpt lat="44.28043964729164" lon="9.587764878004247"><ele>523.75</ele><time>2026-04-19T14:23:01.92Z</time></trkpt><trkpt lat="44.28036939792105" lon="9.587916586742223"><ele>525.0</ele><time>2026-04-19T14:23:02.92Z</time></trkpt><trkpt lat="44.280309655717076" lon="9.588099419357313"><ele>525.0</ele><time>2026-04-19T14:23:03.92Z</time></trkpt><trkpt lat="44.28024722276492" lon="9.588285679088727"><ele>525.0</ele><time>2026-04-19T14:23:04.92Z</time></trkpt><trkpt lat="44.28018878198439" lon="9.588457932448046"><ele>525.0</ele><time>2026-04-19T14:23:05.92Z</time></trkpt><trkpt lat="44.2801452001107" lon="9.588626393195552"><ele>525.0</ele><time>2026-04-19T14:23:06.92Z</time></trkpt><trkpt lat="44.280112336969495" lon="9.588801523854576"><ele>522.5</ele><time>2026-04-19T14:23:07.92Z</time></trkpt><trkpt lat="44.28008855060467" lon="9.588986947496977"><ele>520.0</ele><time>2026-04-19T14:23:08.92Z</time></trkpt><trkpt lat="44.28006887992639" lon="9.589162991709268"><ele>517.5</ele><time>2026-04-19T14:23:09.92Z</time></trkpt><trkpt lat="44.28004764485406" lon="9.589325639780489"><ele>515.0</ele><time>2026-04-19T14:23:10.92Z</time></trkpt><trkpt lat="44.27999916449028" lon="9.589467729870275"><ele>513.75</ele><time>2026-04-19T14:23:11.92Z</time></trkpt><trkpt lat="44.279928485239694" lon="9.589591009807044"><ele>512.5</ele><time>2026-04-19T14:23:12.92Z</time></trkpt><trkpt lat="44.279831520312136" lon="9.589713673267248"><ele>511.25</ele><time>2026-04-19T14:23:13.92Z</time></trkpt><trkpt lat="44.27970656702425" lon="9.589814318259522"><ele>510.0</ele><time>2026-04-19T14:23:14.92Z</time></trkpt><trkpt lat="44.279596265342015" lon="9.589935349357882"><ele>510.0</ele><time>2026-04-19T14:23:15.92Z</time></trkpt><trkpt lat="44.27948181218729" lon="9.590061897978778"><ele>510.0</ele><time>2026-04-19T14:23:16.92Z</time></trkpt><trkpt lat="44.279378485734256" lon="9.590172330489182"><ele>510.0</ele><time>2026-04-19T14:23:17.92Z</time></trkpt><trkpt lat="44.279270412664026" lon="9.590304931265"><ele>510.0</ele><time>2026-04-19T14:23:18.92Z</time></trkpt><trkpt lat="44.27919118878822" lon="9.590404636958812"><ele>509.1666666666667</ele><time>2026-04-19T14:23:19.92Z</time></trkpt><trkpt lat="44.27913182861631" lon="9.590465564212789"><ele>508.33333333333337</ele><time>2026-04-19T14:23:20.92Z</time></trkpt><trkpt lat="44.27906670971822" lon="9.590486135082628"><ele>507.5</ele><time>2026-04-19T14:23:23.92Z</time></trkpt><trkpt lat="44.27901403077766" lon="9.590546966781863"><ele>506.6666666666667</ele><time>2026-04-19T14:23:26.92Z</time></trkpt><trkpt lat="44.27898322944428" lon="9.5906449794035"><ele>505.83333333333337</ele><time>2026-04-19T14:31:28.916Z</time></trkpt><trkpt lat="44.278918918082944" lon="9.590732429755649"><ele>505.0</ele><time>2026-04-19T14:31:30.916Z</time></trkpt><trkpt lat="44.27881451951692" lon="9.590817598521404"><ele>505.00000000000006</ele><time>2026-04-19T14:31:32.916Z</time></trkpt><trkpt lat="44.27875851140192" lon="9.590860556187453"><ele>505.0</ele><time>2026-04-19T14:31:33.916Z</time></trkpt><trkpt lat="44.278702540679994" lon="9.590901846596147"><ele>505.0</ele><time>2026-04-19T14:31:34.916Z</time></trkpt><trkpt lat="44.27864553307021" lon="9.590944727351403"><ele>505.0</ele><time>2026-04-19T14:31:35.916Z</time></trkpt><trkpt lat="44.278579159664496" lon="9.59099541559549"><ele>505.00000000000006</ele><time>2026-04-19T14:31:36.916Z</time></trkpt><trkpt lat="44.27851002205709" lon="9.591066272306788"><ele>505.0</ele><time>2026-04-19T14:31:37.916Z</time></trkpt><trkpt lat="44.278447649405756" lon="9.59117098955145"><ele>499.5</ele><time>2026-04-19T14:31:38.916Z</time></trkpt><trkpt lat="44.27838460047533" lon="9.591311484096359"><ele>494.0</ele><time>2026-04-19T14:31:39.916Z</time></trkpt><trkpt lat="44.278320409777116" lon="9.591472620983286"><ele>488.5</ele><time>2026-04-19T14:31:40.916Z</time></trkpt><trkpt lat="44.27825543859329" lon="9.591635085128758"><ele>483.0</ele><time>2026-04-19T14:31:41.916Z</time></trkpt><trkpt lat="44.27819402298026" lon="9.591788118246912"><ele>483.0</ele><time>2026-04-19T14:31:42.916Z</time></trkpt><trkpt lat="44.27812931506232" lon="9.591934308601195"><ele>483.0</ele><time>2026-04-19T14:31:43.916Z</time></trkpt><trkpt lat="44.27806262777604" lon="9.592081096528254"><ele>483.0</ele><time>2026-04-19T14:31:44.916Z</time></trkpt><trkpt lat="44.277987930646674" lon="9.592224525422093"><ele>483.0</ele><time>2026-04-19T14:31:45.916Z</time></trkpt><trkpt lat="44.27789477424862" lon="9.592382542898441"><ele>480.25</ele><time>2026-04-19T14:31:46.916Z</time></trkpt><trkpt lat="44.27779327816772" lon="9.592536567427416"><ele>477.5</ele><time>2026-04-19T14:31:47.916Z</time></trkpt><trkpt lat="44.277694533671756" lon="9.592688272746553"><ele>474.75</ele><time>2026-04-19T14:31:48.916Z</time></trkpt><trkpt lat="44.277599196898414" lon="9.592833098061902"><ele>472.0</ele><time>2026-04-19T14:31:49.916Z</time></trkpt><trkpt lat="44.27751728218557" lon="9.592975430665772"><ele>472.0</ele><time>2026-04-19T14:31:50.916Z</time></trkpt><trkpt lat="44.277436593520015" lon="9.593113634747231"><ele>472.0</ele><time>2026-04-19T14:31:51.916Z</time></trkpt><trkpt lat="44.27735950495825" lon="9.59325490333713"><ele>472.0</ele><time>2026-04-19T14:31:52.916Z</time></trkpt><trkpt lat="44.27731413610419" lon="9.593407269048889"><ele>472.0</ele><time>2026-04-19T14:31:53.916Z</time></trkpt><trkpt lat="44.27728233800715" lon="9.593573370082744"><ele>473.75</ele><time>2026-04-19T14:31:54.916Z</time></trkpt><trkpt lat="44.277266740029035" lon="9.593723564698886"><ele>475.5</ele><time>2026-04-19T14:31:55.916Z</time></trkpt><trkpt lat="44.27722216840372" lon="9.593864185828718"><ele>477.25</ele><time>2026-04-19T14:31:56.916Z</time></trkpt><trkpt lat="44.27715390352657" lon="9.593988682430794"><ele>479.0</ele><time>2026-04-19T14:31:57.916Z</time></trkpt><trkpt lat="44.27705351099555" lon="9.59410945149365"><ele>479.0</ele><time>2026-04-19T14:31:58.916Z</time></trkpt><trkpt lat="44.27694505945294" lon="9.59423808802334"><ele>479.0</ele><time>2026-04-19T14:31:59.914Z</time></trkpt><trkpt lat="44.27683688788404" lon="9.594367576587628"><ele>479.0</ele><time>2026-04-19T14:32:00.914Z</time></trkpt><trkpt lat="44.27672429719686" lon="9.594502906590808"><ele>479.0</ele><time>2026-04-19T14:32:01.914Z</time></trkpt><trkpt lat="44.27661445320618" lon="9.59464288708769"><ele>477.75</ele><time>2026-04-19T14:32:02.914Z</time></trkpt><trkpt lat="44.276516831879555" lon="9.59477986909175"><ele>476.5</ele><time>2026-04-19T14:32:03.914Z</time></trkpt><trkpt lat="44.27642151628999" lon="9.594897975616401"><ele>475.25</ele><time>2026-04-19T14:32:04.914Z</time></trkpt><trkpt lat="44.27632890126764" lon="9.595045305239525"><ele>474.0</ele><time>2026-04-19T14:32:05.914Z</time></trkpt><trkpt lat="44.2762492765648" lon="9.595204779362389"><ele>469.5</ele><time>2026-04-19T14:32:06.914Z</time></trkpt><trkpt lat="44.27619527069016" lon="9.595378322121121"><ele>465.0</ele><time>2026-04-19T14:32:07.914Z</time></trkpt><trkpt lat="44.27613833539742" lon="9.59553486347306"><ele>460.5</ele><time>2026-04-19T14:32:08.914Z</time></trkpt><trkpt lat="44.2760675937231" lon="9.595669189748836"><ele>456.0</ele><time>2026-04-19T14:32:09.914Z</time></trkpt><trkpt lat="44.27596308745347" lon="9.595785123278347"><ele>456.0</ele><time>2026-04-19T14:32:10.914Z</time></trkpt><trkpt lat="44.27583084507228" lon="9.595877827488643"><ele>456.0</ele><time>2026-04-19T14:32:11.914Z</time></trkpt><trkpt lat="44.27569162615565" lon="9.595962608821528"><ele>456.0</ele><time>2026-04-19T14:32:12.914Z</time></trkpt><trkpt lat="44.275568076943976" lon="9.5960555809089"><ele>456.0</ele><time>2026-04-19T14:32:13.914Z</time></trkpt><trkpt lat="44.27547093256809" lon="9.596159269926098"><ele>452.75</ele><time>2026-04-19T14:32:14.914Z</time></trkpt><trkpt lat="44.27538440828182" lon="9.596309726346663"><ele>449.5</ele><time>2026-04-19T14:32:15.914Z</time></trkpt><trkpt lat="44.27531895858219" lon="9.596475648030285"><ele>446.25</ele><time>2026-04-19T14:32:16.914Z</time></trkpt><trkpt lat="44.27525642073518" lon="9.596641079646927"><ele>443.0</ele><time>2026-04-19T14:32:17.914Z</time></trkpt><trkpt lat="44.27520158666988" lon="9.59681135364664"><ele>443.0</ele><time>2026-04-19T14:32:18.914Z</time></trkpt><trkpt lat="44.27516240576551" lon="9.596980798120521"><ele>443.0</ele><time>2026-04-19T14:32:19.914Z</time></trkpt><trkpt lat="44.27514430877731" lon="9.597166961130783"><ele>443.0</ele><time>2026-04-19T14:32:20.914Z</time></trkpt><trkpt lat="44.27515330609458" lon="9.597346105132626"><ele>443.0</ele><time>2026-04-19T14:32:21.914Z</time></trkpt><trkpt lat="44.27516361720626" lon="9.597509790300608"><ele>441.79999999999995</ele><time>2026-04-19T14:32:22.914Z</time></trkpt><trkpt lat="44.27515814663731" lon="9.59765468954144"><ele>440.59999999999997</ele><time>2026-04-19T14:32:23.914Z</time></trkpt><trkpt lat="44.275134565757334" lon="9.597808817999736"><ele>439.40000000000003</ele><time>2026-04-19T14:32:24.914Z</time></trkpt><trkpt lat="44.27509964410253" lon="9.597957208852145"><ele>438.20000000000005</ele><time>2026-04-19T14:32:25.914Z</time></trkpt><trkpt lat="44.27505130293686" lon="9.598096480961173"><ele>437.0</ele><time>2026-04-19T14:32:26.914Z</time></trkpt><trkpt lat="44.274982857003835" lon="9.598233455862202"><ele>437.0</ele><time>2026-04-19T14:32:27.914Z</time></trkpt><trkpt lat="44.27491077685712" lon="9.598381747418358"><ele>437.0</ele><time>2026-04-19T14:32:28.914Z</time></trkpt><trkpt lat="44.274835799993916" lon="9.598547391099887"><ele>437.0</ele><time>2026-04-19T14:32:29.914Z</time></trkpt><trkpt lat="44.27476336391469" lon="9.598717192271698"><ele>437.0</ele><time>2026-04-19T14:32:30.914Z</time></trkpt><trkpt lat="44.27470238651855" lon="9.598874804403001"><ele>437.25</ele><time>2026-04-19T14:32:31.914Z</time></trkpt><trkpt lat="44.27464665370116" lon="9.599015094058634"><ele>437.5</ele><time>2026-04-19T14:32:32.914Z</time></trkpt><trkpt lat="44.27459917083957" lon="9.59915081732321"><ele>437.75</ele><time>2026-04-19T14:32:33.914Z</time></trkpt><trkpt lat="44.27456888943855" lon="9.59929813981502"><ele>438.0</ele><time>2026-04-19T14:32:34.914Z</time></trkpt><trkpt lat="44.27455013751683" lon="9.599462662133"><ele>440.75</ele><time>2026-04-19T14:32:35.914Z</time></trkpt><trkpt lat="44.27455768271831" lon="9.599638065229316"><ele>443.5</ele><time>2026-04-19T14:32:36.914Z</time></trkpt><trkpt lat="44.27457017356821" lon="9.59982867387539"><ele>446.25</ele><time>2026-04-19T14:32:37.914Z</time></trkpt><trkpt lat="44.274583106004954" lon="9.600026189395138"><ele>449.0</ele><time>2026-04-19T14:32:38.914Z</time></trkpt><trkpt lat="44.274589473561676" lon="9.600211856826249"><ele>449.75</ele><time>2026-04-19T14:32:39.914Z</time></trkpt><trkpt lat="44.27459041767723" lon="9.600379334663714"><ele>450.5</ele><time>2026-04-19T14:32:40.914Z</time></trkpt><trkpt lat="44.274605575688106" lon="9.600539912569397"><ele>451.25</ele><time>2026-04-19T14:32:41.914Z</time></trkpt><trkpt lat="44.274637038808415" lon="9.600698571358459"><ele>452.0</ele><time>2026-04-19T14:32:42.914Z</time></trkpt><trkpt lat="44.27468339809638" lon="9.600839753164399"><ele>452.0</ele><time>2026-04-19T14:32:43.914Z</time></trkpt><trkpt lat="44.274731730042504" lon="9.600969819016246"><ele>452.00000000000006</ele><time>2026-04-19T14:32:44.914Z</time></trkpt><trkpt lat="44.27477571707406" lon="9.60109828478859"><ele>452.00000000000006</ele><time>2026-04-19T14:32:45.914Z</time></trkpt><trkpt lat="44.27478264281295" lon="9.60121751637432"><ele>452.0</ele><time>2026-04-19T14:32:46.914Z</time></trkpt><trkpt lat="44.274744664942205" lon="9.601342304552963"><ele>452.0</ele><time>2026-04-19T14:32:47.914Z</time></trkpt><trkpt lat="44.27467897963187" lon="9.601477543244709"><ele>450.25</ele><time>2026-04-19T14:32:48.914Z</time></trkpt><trkpt lat="44.27459618752301" lon="9.601623112860395"><ele>448.5</ele><time>2026-04-19T14:32:49.914Z</time></trkpt><trkpt lat="44.274518584526334" lon="9.60177060051256"><ele>446.75</ele><time>2026-04-19T14:32:50.914Z</time></trkpt><trkpt lat="44.27445583345657" lon="9.601912398156905"><ele>445.0</ele><time>2026-04-19T14:32:51.914Z</time></trkpt><trkpt lat="44.274404766049116" lon="9.602048672394453"><ele>441.5</ele><time>2026-04-19T14:32:52.914Z</time></trkpt><trkpt lat="44.27439268878473" lon="9.602199226619742"><ele>438.0</ele><time>2026-04-19T14:32:53.914Z</time></trkpt><trkpt lat="44.27441488977007" lon="9.602367941913649"><ele>434.5</ele><time>2026-04-19T14:32:54.914Z</time></trkpt><trkpt lat="44.27445047937376" lon="9.602546613430682"><ele>431.0</ele><time>2026-04-19T14:32:55.914Z</time></trkpt><trkpt lat="44.27448133793828" lon="9.60273580853724"><ele>428.0</ele><time>2026-04-19T14:32:56.914Z</time></trkpt><trkpt lat="44.274509273434006" lon="9.602914607031765"><ele>425.0</ele><time>2026-04-19T14:32:57.914Z</time></trkpt><trkpt lat="44.274520857206916" lon="9.60307361717539"><ele>422.0</ele><time>2026-04-19T14:32:58.914Z</time></trkpt><trkpt lat="44.27453074080732" lon="9.603221231232252"><ele>419.0</ele><time>2026-04-19T14:32:59.914Z</time></trkpt><trkpt lat="44.274525094646776" lon="9.60336755585462"><ele>419.0</ele><time>2026-04-19T14:33:00.914Z</time></trkpt><trkpt lat="44.274468104968456" lon="9.603493457157716"><ele>419.0</ele><time>2026-04-19T14:33:01.914Z</time></trkpt><trkpt lat="44.274402310185124" lon="9.603599343540527"><ele>419.0</ele><time>2026-04-19T14:33:02.914Z</time></trkpt><trkpt lat="44.2743051163226" lon="9.603670884578419"><ele>419.0</ele><time>2026-04-19T14:33:03.914Z</time></trkpt><trkpt lat="44.274190880085165" lon="9.60372472701295"><ele>419.0</ele><time>2026-04-19T14:33:04.914Z</time></trkpt><trkpt lat="44.27408300717415" lon="9.603795287520189"><ele>416.75</ele><time>2026-04-19T14:33:05.914Z</time></trkpt><trkpt lat="44.27397531715794" lon="9.603872152743369"><ele>414.5</ele><time>2026-04-19T14:33:06.914Z</time></trkpt><trkpt lat="44.27386867527587" lon="9.603959421124014"><ele>412.25</ele><time>2026-04-19T14:33:07.914Z</time></trkpt><trkpt lat="44.27376384712314" lon="9.604043782389493"><ele>410.0</ele><time>2026-04-19T14:33:08.914Z</time></trkpt><trkpt lat="44.273658223851555" lon="9.604122331968597"><ele>410.0</ele><time>2026-04-19T14:33:09.914Z</time></trkpt><trkpt lat="44.27355492798478" lon="9.604199976512593"><ele>410.0</ele><time>2026-04-19T14:33:10.914Z</time></trkpt><trkpt lat="44.27345255039735" lon="9.604285338903416"><ele>410.0</ele><time>2026-04-19T14:33:11.914Z</time></trkpt><trkpt lat="44.27335825943289" lon="9.604371668191606"><ele>410.0</ele><time>2026-04-19T14:33:12.914Z</time></trkpt><trkpt lat="44.273271379189566" lon="9.604468277432442"><ele>406.75</ele><time>2026-04-19T14:33:13.914Z</time></trkpt><trkpt lat="44.273192149491024" lon="9.604575981997682"><ele>403.5</ele><time>2026-04-19T14:33:14.914Z</time></trkpt><trkpt lat="44.273115669869235" lon="9.604692804293881"><ele>400.25</ele><time>2026-04-19T14:33:15.914Z</time></trkpt><trkpt lat="44.273042664274904" lon="9.604816867031383"><ele>397.0</ele><time>2026-04-19T14:33:16.914Z</time></trkpt><trkpt lat="44.27296931241995" lon="9.604934498056595"><ele>397.0</ele><time>2026-04-19T14:33:17.914Z</time></trkpt><trkpt lat="44.27289130083989" lon="9.605045382853024"><ele>397.0</ele><time>2026-04-19T14:33:18.914Z</time></trkpt><trkpt lat="44.27281336792231" lon="9.605154166870209"><ele>397.0</ele><time>2026-04-19T14:33:19.914Z</time></trkpt><trkpt lat="44.27272800781296" lon="9.60526076154421"><ele>397.0</ele><time>2026-04-19T14:33:20.914Z</time></trkpt><trkpt lat="44.27264867609094" lon="9.60536269645956"><ele>397.0</ele><time>2026-04-19T14:33:21.914Z</time></trkpt><trkpt lat="44.27256033568304" lon="9.605474192137128"><ele>397.6</ele><time>2026-04-19T14:33:22.914Z</time></trkpt><trkpt lat="44.27246676964607" lon="9.605586005029776"><ele>398.20000000000005</ele><time>2026-04-19T14:33:23.914Z</time></trkpt><trkpt lat="44.272392792720844" lon="9.605698919039668"><ele>398.8</ele><time>2026-04-19T14:33:24.914Z</time></trkpt><trkpt lat="44.27233077057397" lon="9.605798624871102"><ele>399.4</ele><time>2026-04-19T14:33:25.914Z</time></trkpt><trkpt lat="44.27227771237173" lon="9.60592072457139"><ele>400.0</ele><time>2026-04-19T14:33:26.914Z</time></trkpt><trkpt lat="44.27222699162388" lon="9.606067307818018"><ele>395.0</ele><time>2026-04-19T14:33:27.914Z</time></trkpt><trkpt lat="44.27220039528522" lon="9.606260015397332"><ele>390.0</ele><time>2026-04-19T14:33:28.914Z</time></trkpt><trkpt lat="44.272175068980495" lon="9.606454429558747"><ele>385.0</ele><time>2026-04-19T14:33:29.914Z</time></trkpt><trkpt lat="44.272153680245786" lon="9.60666721830625"><ele>380.0</ele><time>2026-04-19T14:33:30.914Z</time></trkpt><trkpt lat="44.272137220274125" lon="9.606895102452112"><ele>378.0</ele><time>2026-04-19T14:33:31.914Z</time></trkpt><trkpt lat="44.27212293705597" lon="9.607124478071526"><ele>376.0</ele><time>2026-04-19T14:33:32.914Z</time></trkpt><trkpt lat="44.2721058105144" lon="9.60733612571475"><ele>374.0</ele><time>2026-04-19T14:33:33.914Z</time></trkpt><trkpt lat="44.27208647763284" lon="9.607533281676414"><ele>374.0</ele><time>2026-04-19T14:33:34.914Z</time></trkpt><trkpt lat="44.272067672489754" lon="9.607730263086001"><ele>374.0</ele><time>2026-04-19T14:33:35.914Z</time></trkpt><trkpt lat="44.2720438056052" lon="9.607920457974506"><ele>374.0</ele><time>2026-04-19T14:33:36.914Z</time></trkpt><trkpt lat="44.27202156208503" lon="9.60810699354793"><ele>374.0</ele><time>2026-04-19T14:33:37.914Z</time></trkpt><trkpt lat="44.27201271878757" lon="9.608291492184104"><ele>373.4</ele><time>2026-04-19T14:33:38.914Z</time></trkpt><trkpt lat="44.2720104748997" lon="9.608455908874875"><ele>372.79999999999995</ele><time>2026-04-19T14:33:39.914Z</time></trkpt><trkpt lat="44.27202415947038" lon="9.608601420019811"><ele>372.20000000000005</ele><time>2026-04-19T14:33:40.914Z</time></trkpt><trkpt lat="44.272059264233235" lon="9.608745499899497"><ele>371.6</ele><time>2026-04-19T14:33:41.914Z</time></trkpt><trkpt lat="44.272102373524774" lon="9.608885853055511"><ele>371.0</ele><time>2026-04-19T14:33:42.915Z</time></trkpt><trkpt lat="44.27214235899108" lon="9.609024170765283"><ele>370.6</ele><time>2026-04-19T14:33:43.915Z</time></trkpt><trkpt lat="44.27218478995232" lon="9.609155762522343"><ele>370.20000000000005</ele><time>2026-04-19T14:33:44.915Z</time></trkpt><trkpt lat="44.272212377066154" lon="9.609285588253481"><ele>369.79999999999995</ele><time>2026-04-19T14:33:45.915Z</time></trkpt><trkpt lat="44.27223047471357" lon="9.609415136715445"><ele>369.4</ele><time>2026-04-19T14:33:46.915Z</time></trkpt><trkpt lat="44.27223292254415" lon="9.609551086024833"><ele>369.0</ele><time>2026-04-19T14:33:47.915Z</time></trkpt><trkpt lat="44.27221187275191" lon="9.609696551216494"><ele>368.75</ele><time>2026-04-19T14:33:48.915Z</time></trkpt><trkpt lat="44.27220217408813" lon="9.609853028811203"><ele>368.5</ele><time>2026-04-19T14:33:49.915Z</time></trkpt><trkpt lat="44.272194584106195" lon="9.610023552908777"><ele>368.25</ele><time>2026-04-19T14:33:50.915Z</time></trkpt><trkpt lat="44.27216795581144" lon="9.610192783474217"><ele>368.0</ele><time>2026-04-19T14:33:51.915Z</time></trkpt><trkpt lat="44.272150512605684" lon="9.610362401243417"><ele>367.25</ele><time>2026-04-19T14:33:52.915Z</time></trkpt><trkpt lat="44.27214201012757" lon="9.610534257386423"><ele>366.5</ele><time>2026-04-19T14:33:53.915Z</time></trkpt><trkpt lat="44.27211309646619" lon="9.610698873588223"><ele>365.75</ele><time>2026-04-19T14:33:54.915Z</time></trkpt><trkpt lat="44.272087819324966" lon="9.610867005608158"><ele>365.0</ele><time>2026-04-19T14:33:55.915Z</time></trkpt><trkpt lat="44.27206997639886" lon="9.611037956977817"><ele>365.8</ele><time>2026-04-19T14:33:56.915Z</time></trkpt><trkpt lat="44.27204038381071" lon="9.611203177083148"><ele>366.6</ele><time>2026-04-19T14:33:57.915Z</time></trkpt><trkpt lat="44.272006351379346" lon="9.611351527448301"><ele>367.4</ele><time>2026-04-19T14:33:58.915Z</time></trkpt><trkpt lat="44.27196051143626" lon="9.611482224126888"><ele>368.2</ele><time>2026-04-19T14:33:59.915Z</time></trkpt><trkpt lat="44.271909677035765" lon="9.61160691595485"><ele>369.0</ele><time>2026-04-19T14:34:00.915Z</time></trkpt><trkpt lat="44.27184957307298" lon="9.6117250080405"><ele>369.0</ele><time>2026-04-19T14:34:01.915Z</time></trkpt><trkpt lat="44.27178075167478" lon="9.611847936515678"><ele>369.0</ele><time>2026-04-19T14:34:02.915Z</time></trkpt><trkpt lat="44.271702155087205" lon="9.61195768965522"><ele>369.0</ele><time>2026-04-19T14:34:03.915Z</time></trkpt><trkpt lat="44.27161914371395" lon="9.612063788524338"><ele>369.0</ele><time>2026-04-19T14:34:04.915Z</time></trkpt><trkpt lat="44.27153320794506" lon="9.612154016582451"><ele>369.0</ele><time>2026-04-19T14:34:05.911Z</time></trkpt><trkpt lat="44.27144634304938" lon="9.612238705566707"><ele>368.0</ele><time>2026-04-19T14:34:06.911Z</time></trkpt><trkpt lat="44.271359373539134" lon="9.61232334561019"><ele>367.0</ele><time>2026-04-19T14:34:07.911Z</time></trkpt><trkpt lat="44.27126561357947" lon="9.612437972845289"><ele>366.0</ele><time>2026-04-19T14:34:08.912Z</time></trkpt><trkpt lat="44.27117010349607" lon="9.612541969435616"><ele>365.0</ele><time>2026-04-19T14:34:09.911Z</time></trkpt><trkpt lat="44.271072471547754" lon="9.612644301268324"><ele>365.0</ele><time>2026-04-19T14:34:10.911Z</time></trkpt><trkpt lat="44.27097994235724" lon="9.612752353240845"><ele>365.0</ele><time>2026-04-19T14:34:11.911Z</time></trkpt><trkpt lat="44.27089387445287" lon="9.612866210894817"><ele>365.0</ele><time>2026-04-19T14:34:12.911Z</time></trkpt><trkpt lat="44.27081446484241" lon="9.612981165273942"><ele>365.0</ele><time>2026-04-19T14:34:13.911Z</time></trkpt><trkpt lat="44.27074651532832" lon="9.61309054719595"><ele>364.5</ele><time>2026-04-19T14:34:14.911Z</time></trkpt><trkpt lat="44.27069603907957" lon="9.613179049736113"><ele>364.0</ele><time>2026-04-19T14:34:15.911Z</time></trkpt><trkpt lat="44.27063073414313" lon="9.61328387712336"><ele>363.5</ele><time>2026-04-19T14:34:17.911Z</time></trkpt><trkpt lat="44.27058756415747" lon="9.613359783265112"><ele>363.0</ele><time>2026-04-19T14:34:21.911Z</time></trkpt><trkpt lat="44.27055027981577" lon="9.61344089831545"><ele>362.5</ele><time>2026-04-19T14:34:25.911Z</time></trkpt><trkpt lat="44.27052766545304" lon="9.613563016089806"><ele>362.0</ele><time>2026-04-19T14:34:27.911Z</time></trkpt><trkpt lat="44.2705068933722" lon="9.613725472224594"><ele>361.0</ele><time>2026-04-19T14:34:29.911Z</time></trkpt><trkpt lat="44.27050489985496" lon="9.613815739800401"><ele>360.0</ele><time>2026-04-19T14:34:30.911Z</time></trkpt><trkpt lat="44.27051300649502" lon="9.61397399023875"><ele>359.0</ele><time>2026-04-19T14:34:32.911Z</time></trkpt><trkpt lat="44.270517034846755" lon="9.614099964969471"><ele>358.0</ele><time>2026-04-19T14:34:34.911Z</time></trkpt><trkpt lat="44.270496744944786" lon="9.614191131956934"><ele>357.0</ele><time>2026-04-19T14:34:37.911Z</time></trkpt><trkpt lat="44.27052741621519" lon="9.614284363967348"><ele>356.0</ele><time>2026-04-19T14:40:38.906Z</time></trkpt><trkpt lat="44.27054569332225" lon="9.614420673470207"><ele>356.4</ele><time>2026-04-19T14:40:41.906Z</time></trkpt><trkpt lat="44.27054491602968" lon="9.614573723126748"><ele>356.8</ele><time>2026-04-19T14:40:43.906Z</time></trkpt><trkpt lat="44.27055634260711" lon="9.61467159989174"><ele>357.2</ele><time>2026-04-19T14:40:44.906Z</time></trkpt><trkpt lat="44.27055559910622" lon="9.61478512145665"><ele>357.59999999999997</ele><time>2026-04-19T14:40:45.906Z</time></trkpt><trkpt lat="44.2705521507772" lon="9.61491526106044"><ele>358.0</ele><time>2026-04-19T14:40:46.906Z</time></trkpt><trkpt lat="44.27054387835404" lon="9.615061210678974"><ele>358.0</ele><time>2026-04-19T14:40:47.906Z</time></trkpt><trkpt lat="44.27052145690207" lon="9.615194193846097"><ele>358.0</ele><time>2026-04-19T14:40:48.906Z</time></trkpt><trkpt lat="44.27049064296332" lon="9.615331306116238"><ele>358.0</ele><time>2026-04-19T14:40:49.906Z</time></trkpt><trkpt lat="44.270427166401994" lon="9.61543809561178"><ele>358.0</ele><time>2026-04-19T14:40:50.906Z</time></trkpt><trkpt lat="44.27037421263141" lon="9.615551632610034"><ele>358.0</ele><time>2026-04-19T14:40:51.906Z</time></trkpt><trkpt lat="44.27031715487603" lon="9.61567031242158"><ele>357.75</ele><time>2026-04-19T14:40:52.906Z</time></trkpt><trkpt lat="44.270238556704065" lon="9.615767831663687"><ele>357.5</ele><time>2026-04-19T14:40:53.906Z</time></trkpt><trkpt lat="44.27012466187811" lon="9.615838965282519"><ele>357.25</ele><time>2026-04-19T14:40:54.906Z</time></trkpt><trkpt lat="44.27002830700875" lon="9.615910923621017"><ele>357.0</ele><time>2026-04-19T14:40:55.906Z</time></trkpt><trkpt lat="44.26992280915804" lon="9.615997928511293"><ele>357.0</ele><time>2026-04-19T14:40:56.906Z</time></trkpt><trkpt lat="44.269821325803015" lon="9.616086748960834"><ele>357.0</ele><time>2026-04-19T14:40:57.906Z</time></trkpt><trkpt lat="44.269726137659916" lon="9.616171845323306"><ele>357.0</ele><time>2026-04-19T14:40:58.906Z</time></trkpt><trkpt lat="44.26964207449129" lon="9.616243787505121"><ele>357.0</ele><time>2026-04-19T14:40:59.906Z</time></trkpt><trkpt lat="44.26955680893364" lon="9.616315624970124"><ele>357.0</ele><time>2026-04-19T14:41:00.906Z</time></trkpt><trkpt lat="44.26948365469652" lon="9.61640992724726"><ele>355.40000000000003</ele><time>2026-04-19T14:41:01.906Z</time></trkpt><trkpt lat="44.26940641233973" lon="9.616512056016367"><ele>353.8</ele><time>2026-04-19T14:41:02.906Z</time></trkpt><trkpt lat="44.26935072980871" lon="9.616624840297256"><ele>352.2</ele><time>2026-04-19T14:41:03.906Z</time></trkpt><trkpt lat="44.26930738901375" lon="9.616772670581854"><ele>350.6</ele><time>2026-04-19T14:41:04.906Z</time></trkpt><trkpt lat="44.269266297714154" lon="9.616925604471303"><ele>349.0</ele><time>2026-04-19T14:41:05.906Z</time></trkpt><trkpt lat="44.269251165693824" lon="9.617100731859487"><ele>346.75</ele><time>2026-04-19T14:41:06.906Z</time></trkpt><trkpt lat="44.26923916985227" lon="9.617270691924562"><ele>344.5</ele><time>2026-04-19T14:41:07.906Z</time></trkpt><trkpt lat="44.2692359484001" lon="9.617445073835128"><ele>342.25</ele><time>2026-04-19T14:41:08.906Z</time></trkpt><trkpt lat="44.26924196945713" lon="9.617640010584065"><ele>340.0</ele><time>2026-04-19T14:41:09.906Z</time></trkpt><trkpt lat="44.26924387504313" lon="9.617850854945837"><ele>338.3333333333333</ele><time>2026-04-19T14:41:10.906Z</time></trkpt><trkpt lat="44.26924747844612" lon="9.618061317275448"><ele>336.6666666666667</ele><time>2026-04-19T14:41:11.906Z</time></trkpt><trkpt lat="44.26924606338973" lon="9.618280381745242"><ele>335.0</ele><time>2026-04-19T14:41:12.906Z</time></trkpt><trkpt lat="44.26925008106032" lon="9.618485050452202"><ele>335.5</ele><time>2026-04-19T14:41:13.906Z</time></trkpt><trkpt lat="44.26924513507848" lon="9.618681017679995"><ele>336.0</ele><time>2026-04-19T14:41:14.906Z</time></trkpt><trkpt lat="44.269239562122365" lon="9.618884446969071"><ele>336.5</ele><time>2026-04-19T14:41:15.906Z</time></trkpt><trkpt lat="44.269234858918054" lon="9.61909477083929"><ele>337.0</ele><time>2026-04-19T14:41:16.906Z</time></trkpt><trkpt lat="44.269209045561546" lon="9.619313112752563"><ele>335.3333333333333</ele><time>2026-04-19T14:41:17.906Z</time></trkpt><trkpt lat="44.2691820455296" lon="9.61952830625812"><ele>333.6666666666667</ele><time>2026-04-19T14:41:18.906Z</time></trkpt><trkpt lat="44.269154953364826" lon="9.619750297626206"><ele>332.0</ele><time>2026-04-19T14:41:19.906Z</time></trkpt><trkpt lat="44.26912694505459" lon="9.61996960554149"><ele>332.0</ele><time>2026-04-19T14:41:20.906Z</time></trkpt><trkpt lat="44.26910735466084" lon="9.62018925352281"><ele>332.0</ele><time>2026-04-19T14:41:21.906Z</time></trkpt><trkpt lat="44.26908064757713" lon="9.620410399422902"><ele>332.0</ele><time>2026-04-19T14:41:22.906Z</time></trkpt><trkpt lat="44.269058007412994" lon="9.620609862430639"><ele>331.5</ele><time>2026-04-19T14:41:23.906Z</time></trkpt><trkpt lat="44.26900999418034" lon="9.620811983279381"><ele>331.0</ele><time>2026-04-19T14:41:24.906Z</time></trkpt><trkpt lat="44.26897351240971" lon="9.621001305999973"><ele>330.5</ele><time>2026-04-19T14:41:25.906Z</time></trkpt><trkpt lat="44.268905557350166" lon="9.62119725357126"><ele>330.0</ele><time>2026-04-19T14:41:26.906Z</time></trkpt><trkpt lat="44.26882156331401" lon="9.621382289637664"><ele>321.6666666666667</ele><time>2026-04-19T14:41:27.906Z</time></trkpt><trkpt lat="44.26873677961649" lon="9.621564284165299"><ele>313.33333333333337</ele><time>2026-04-19T14:41:28.906Z</time></trkpt><trkpt lat="44.26864944290868" lon="9.621739847960718"><ele>305.0</ele><time>2026-04-19T14:41:29.906Z</time></trkpt><trkpt lat="44.26856563539265" lon="9.621923795764628"><ele>307.5</ele><time>2026-04-19T14:41:30.906Z</time></trkpt><trkpt lat="44.268487188333246" lon="9.622100915425762"><ele>310.0</ele><time>2026-04-19T14:41:31.906Z</time></trkpt><trkpt lat="44.268409277098776" lon="9.62227020620952"><ele>312.5</ele><time>2026-04-19T14:41:32.906Z</time></trkpt><trkpt lat="44.2683349574959" lon="9.622423391295543"><ele>315.0</ele><time>2026-04-19T14:41:33.906Z</time></trkpt><trkpt lat="44.26826126309811" lon="9.622569186904254"><ele>315.0</ele><time>2026-04-19T14:41:34.906Z</time></trkpt><trkpt lat="44.268198558488784" lon="9.622703883297488"><ele>315.0</ele><time>2026-04-19T14:41:35.906Z</time></trkpt><trkpt lat="44.26814604389507" lon="9.62287142004827"><ele>315.0</ele><time>2026-04-19T14:41:36.906Z</time></trkpt><trkpt lat="44.26811082486711" lon="9.623037536848456"><ele>315.0</ele><time>2026-04-19T14:41:37.906Z</time></trkpt><trkpt lat="44.26808261448087" lon="9.623219328615715"><ele>307.5</ele><time>2026-04-19T14:41:38.906Z</time></trkpt><trkpt lat="44.26806031097581" lon="9.6234075592326"><ele>300.0</ele><time>2026-04-19T14:41:39.906Z</time></trkpt><trkpt lat="44.26804234557185" lon="9.62357341068955"><ele>292.5</ele><time>2026-04-19T14:41:40.906Z</time></trkpt><trkpt lat="44.268014189719096" lon="9.62374323990546"><ele>285.0</ele><time>2026-04-19T14:41:41.906Z</time></trkpt><trkpt lat="44.267993008110174" lon="9.623903677088704"><ele>284.6</ele><time>2026-04-19T14:41:42.906Z</time></trkpt><trkpt lat="44.267980763318874" lon="9.624050004919344"><ele>284.2</ele><time>2026-04-19T14:41:43.906Z</time></trkpt><trkpt lat="44.26798209662864" lon="9.624190964235616"><ele>283.8</ele><time>2026-04-19T14:41:44.906Z</time></trkpt><trkpt lat="44.26797005259876" lon="9.624320427019768"><ele>283.4</ele><time>2026-04-19T14:41:45.906Z</time></trkpt><trkpt lat="44.26794470314015" lon="9.624441532227669"><ele>283.0</ele><time>2026-04-19T14:41:46.907Z</time></trkpt><trkpt lat="44.26789162546053" lon="9.62453500298187"><ele>284.3333333333333</ele><time>2026-04-19T14:41:47.907Z</time></trkpt><trkpt lat="44.26783402163023" lon="9.62463429966922"><ele>285.66666666666663</ele><time>2026-04-19T14:41:48.907Z</time></trkpt><trkpt lat="44.26778364413428" lon="9.624725241607178"><ele>287.0</ele><time>2026-04-19T14:41:49.907Z</time></trkpt><trkpt lat="44.267763051754784" lon="9.624813859569015"><ele>288.3333333333333</ele><time>2026-04-19T14:41:50.907Z</time></trkpt><trkpt lat="44.267735105378684" lon="9.624926461449919"><ele>289.6666666666667</ele><time>2026-04-19T14:41:51.907Z</time></trkpt><trkpt lat="44.2676707983221" lon="9.625066266792066"><ele>291.0</ele><time>2026-04-19T14:41:52.907Z</time></trkpt><trkpt lat="44.267584158162464" lon="9.625210360749568"><ele>287.40000000000003</ele><time>2026-04-19T14:41:53.907Z</time></trkpt><trkpt lat="44.26750092690826" lon="9.625325674496729"><ele>283.8</ele><time>2026-04-19T14:41:54.907Z</time></trkpt><trkpt lat="44.26742634276359" lon="9.625429888729862"><ele>280.20000000000005</ele><time>2026-04-19T14:41:55.907Z</time></trkpt><trkpt lat="44.26737062575621" lon="9.625542958952988"><ele>276.6</ele><time>2026-04-19T14:41:56.907Z</time></trkpt><trkpt lat="44.26731317371107" lon="9.62566776175264"><ele>273.0</ele><time>2026-04-19T14:41:57.907Z</time></trkpt><trkpt lat="44.267248258185845" lon="9.625762127844007"><ele>273.0</ele><time>2026-04-19T14:41:58.907Z</time></trkpt><trkpt lat="44.26715689652686" lon="9.625830403973294"><ele>273.0</ele><time>2026-04-19T14:41:59.907Z</time></trkpt><trkpt lat="44.267056915594246" lon="9.625889656963922"><ele>273.0</ele><time>2026-04-19T14:42:00.907Z</time></trkpt><trkpt lat="44.26696319027556" lon="9.625978607905447"><ele>273.0</ele><time>2026-04-19T14:42:01.907Z</time></trkpt><trkpt lat="44.26687432863379" lon="9.626094235851976"><ele>273.0</ele><time>2026-04-19T14:42:02.907Z</time></trkpt><trkpt lat="44.266780363601654" lon="9.626225763143673"><ele>271.4</ele><time>2026-04-19T14:42:03.907Z</time></trkpt><trkpt lat="44.26669260467813" lon="9.626355342035614"><ele>269.8</ele><time>2026-04-19T14:42:04.907Z</time></trkpt><trkpt lat="44.266611854346856" lon="9.626473118588843"><ele>268.2</ele><time>2026-04-19T14:42:05.907Z</time></trkpt><trkpt lat="44.266539981909276" lon="9.626562303450092"><ele>266.6</ele><time>2026-04-19T14:42:06.907Z</time></trkpt><trkpt lat="44.26648492164207" lon="9.626654836989866"><ele>265.0</ele><time>2026-04-19T14:42:07.907Z</time></trkpt><trkpt lat="44.26644345350298" lon="9.626762194595775"><ele>267.4</ele><time>2026-04-19T14:42:08.907Z</time></trkpt><trkpt lat="44.26645091283412" lon="9.626900751600086"><ele>269.8</ele><time>2026-04-19T14:42:09.907Z</time></trkpt><trkpt lat="44.266484346472026" lon="9.627021624547686"><ele>272.2</ele><time>2026-04-19T14:42:10.907Z</time></trkpt><trkpt lat="44.26654111269216" lon="9.627130743104567"><ele>274.6</ele><time>2026-04-19T14:42:11.907Z</time></trkpt><trkpt lat="44.26662026733784" lon="9.627215992874733"><ele>277.0</ele><time>2026-04-19T14:42:12.907Z</time></trkpt><trkpt lat="44.26671873369461" lon="9.627262844868394"><ele>277.0</ele><time>2026-04-19T14:42:13.907Z</time></trkpt><trkpt lat="44.26682396433545" lon="9.627289545018764"><ele>277.0</ele><time>2026-04-19T14:42:14.907Z</time></trkpt><trkpt lat="44.26690990183504" lon="9.627354336781554"><ele>277.0</ele><time>2026-04-19T14:42:15.907Z</time></trkpt><trkpt lat="44.26698883866085" lon="9.627452408082185"><ele>277.0</ele><time>2026-04-19T14:42:16.907Z</time></trkpt><trkpt lat="44.26704733302395" lon="9.627587743769508"><ele>277.0</ele><time>2026-04-19T14:42:17.907Z</time></trkpt><trkpt lat="44.267068280235236" lon="9.627726185205495"><ele>274.0</ele><time>2026-04-19T14:42:18.907Z</time></trkpt><trkpt lat="44.2670698737244" lon="9.62788120301612"><ele>271.0</ele><time>2026-04-19T14:42:19.907Z</time></trkpt><trkpt lat="44.267074567305755" lon="9.628043206734624"><ele>268.0</ele><time>2026-04-19T14:42:20.907Z</time></trkpt><trkpt lat="44.26708242526188" lon="9.62819932685564"><ele>265.0</ele><time>2026-04-19T14:42:21.907Z</time></trkpt><trkpt lat="44.267086811630534" lon="9.628357637182452"><ele>265.0</ele><time>2026-04-19T14:42:22.907Z</time></trkpt><trkpt lat="44.26709076278403" lon="9.62852106706618"><ele>265.0</ele><time>2026-04-19T14:42:23.907Z</time></trkpt><trkpt lat="44.2670875303596" lon="9.628686866305847"><ele>265.0</ele><time>2026-04-19T14:42:24.907Z</time></trkpt><trkpt lat="44.26708085523909" lon="9.628844824608072"><ele>265.0</ele><time>2026-04-19T14:42:25.907Z</time></trkpt><trkpt lat="44.26708385858277" lon="9.62899208613162"><ele>263.8</ele><time>2026-04-19T14:42:26.907Z</time></trkpt><trkpt lat="44.26708392951355" lon="9.629141268553614"><ele>262.6</ele><time>2026-04-19T14:42:27.907Z</time></trkpt><trkpt lat="44.267080241595885" lon="9.62929877827803"><ele>261.4</ele><time>2026-04-19T14:42:28.907Z</time></trkpt><trkpt lat="44.26705683543676" lon="9.629442055140512"><ele>260.2</ele><time>2026-04-19T14:42:29.902Z</time></trkpt><trkpt lat="44.26701446454661" lon="9.629575802001202"><ele>259.0</ele><time>2026-04-19T14:42:30.903Z</time></trkpt><trkpt lat="44.266957854904575" lon="9.62970403047747"><ele>263.75</ele><time>2026-04-19T14:42:31.903Z</time></trkpt><trkpt lat="44.266869911836835" lon="9.629820898118451"><ele>268.5</ele><time>2026-04-19T14:42:32.903Z</time></trkpt><trkpt lat="44.26676803291079" lon="9.629927222347735"><ele>273.25</ele><time>2026-04-19T14:42:33.902Z</time></trkpt><trkpt lat="44.266662757236375" lon="9.630012757597903"><ele>278.0</ele><time>2026-04-19T14:42:34.902Z</time></trkpt><trkpt lat="44.26657546181693" lon="9.630095778325583"><ele>278.0</ele><time>2026-04-19T14:42:35.902Z</time></trkpt><trkpt lat="44.26648902478389" lon="9.630158575247032"><ele>278.0</ele><time>2026-04-19T14:42:36.903Z</time></trkpt><trkpt lat="44.26640869777531" lon="9.630220880656898"><ele>278.0</ele><time>2026-04-19T14:42:37.903Z</time></trkpt><trkpt lat="44.26632224621458" lon="9.630280429671092"><ele>278.0</ele><time>2026-04-19T14:42:38.903Z</time></trkpt><trkpt lat="44.26622082190794" lon="9.630341468560205"><ele>278.0</ele><time>2026-04-19T14:42:39.903Z</time></trkpt><trkpt lat="44.26610240585631" lon="9.630405649505892"><ele>283.0</ele><time>2026-04-19T14:42:40.903Z</time></trkpt><trkpt lat="44.26599170391171" lon="9.630470588160223"><ele>288.0</ele><time>2026-04-19T14:42:41.902Z</time></trkpt><trkpt lat="44.26586877826804" lon="9.63052252426673"><ele>293.0</ele><time>2026-04-19T14:42:42.902Z</time></trkpt><trkpt lat="44.265740443542036" lon="9.630541864808446"><ele>298.0</ele><time>2026-04-19T14:42:43.902Z</time></trkpt><trkpt lat="44.26561411797875" lon="9.630526436149816"><ele>289.25</ele><time>2026-04-19T14:42:44.902Z</time></trkpt><trkpt lat="44.265491030288295" lon="9.63049558338134"><ele>280.5</ele><time>2026-04-19T14:42:45.902Z</time></trkpt><trkpt lat="44.26537171480467" lon="9.630482305273048"><ele>271.75</ele><time>2026-04-19T14:42:46.902Z</time></trkpt><trkpt lat="44.26526477702366" lon="9.630483731640068"><ele>263.0</ele><time>2026-04-19T14:42:47.902Z</time></trkpt><trkpt lat="44.26516474594728" lon="9.630532146640757"><ele>263.0</ele><time>2026-04-19T14:42:48.902Z</time></trkpt><trkpt lat="44.26507270050127" lon="9.630612760244238"><ele>263.0</ele><time>2026-04-19T14:42:49.902Z</time></trkpt><trkpt lat="44.264985872607156" lon="9.630720027706673"><ele>263.0</ele><time>2026-04-19T14:42:50.902Z</time></trkpt><trkpt lat="44.2649134673843" lon="9.630835640784069"><ele>263.0</ele><time>2026-04-19T14:42:51.902Z</time></trkpt><trkpt lat="44.26485330682962" lon="9.630977453678497"><ele>263.0</ele><time>2026-04-19T14:42:52.902Z</time></trkpt><trkpt lat="44.264801472985845" lon="9.631134742640738"><ele>263.0</ele><time>2026-04-19T14:42:53.902Z</time></trkpt><trkpt lat="44.264758737183506" lon="9.63129427090861"><ele>263.0</ele><time>2026-04-19T14:42:54.902Z</time></trkpt><trkpt lat="44.26471375518523" lon="9.63145806017456"><ele>263.0</ele><time>2026-04-19T14:42:55.902Z</time></trkpt><trkpt lat="44.26467062244323" lon="9.631615620140211"><ele>261.25</ele><time>2026-04-19T14:42:56.902Z</time></trkpt><trkpt lat="44.26460479484036" lon="9.631785064481154"><ele>259.5</ele><time>2026-04-19T14:42:57.902Z</time></trkpt><trkpt lat="44.264537130917326" lon="9.631960898496656"><ele>257.75</ele><time>2026-04-19T14:42:58.902Z</time></trkpt><trkpt lat="44.26446550907253" lon="9.632124022627693"><ele>256.0</ele><time>2026-04-19T14:42:59.902Z</time></trkpt><trkpt lat="44.26439540495748" lon="9.632273235238308"><ele>256.0</ele><time>2026-04-19T14:43:00.902Z</time></trkpt><trkpt lat="44.264338368890485" lon="9.632408943818538"><ele>256.0</ele><time>2026-04-19T14:43:01.902Z</time></trkpt><trkpt lat="44.26429128425368" lon="9.632528371616502"><ele>256.0</ele><time>2026-04-19T14:43:02.902Z</time></trkpt><trkpt lat="44.2642781013273" lon="9.632677533743315"><ele>256.0</ele><time>2026-04-19T14:43:03.902Z</time></trkpt><trkpt lat="44.26427857566511" lon="9.632838218999861"><ele>256.0</ele><time>2026-04-19T14:43:04.902Z</time></trkpt><trkpt lat="44.26430178366136" lon="9.632993351590759"><ele>254.25</ele><time>2026-04-19T14:43:05.902Z</time></trkpt><trkpt lat="44.264359907541554" lon="9.6331248420419"><ele>252.5</ele><time>2026-04-19T14:43:06.902Z</time></trkpt><trkpt lat="44.26443757620315" lon="9.633264470520025"><ele>250.75</ele><time>2026-04-19T14:43:07.902Z</time></trkpt><trkpt lat="44.264516240970146" lon="9.633402135647295"><ele>249.0</ele><time>2026-04-19T14:43:08.902Z</time></trkpt><trkpt lat="44.26458690090139" lon="9.633545315351103"><ele>249.2</ele><time>2026-04-19T14:43:09.902Z</time></trkpt><trkpt lat="44.26464554598909" lon="9.633687887033297"><ele>249.39999999999998</ele><time>2026-04-19T14:43:10.903Z</time></trkpt><trkpt lat="44.26469356298747" lon="9.633821950766427"><ele>249.6</ele><time>2026-04-19T14:43:11.903Z</time></trkpt><trkpt lat="44.26473121609437" lon="9.63395117372757"><ele>249.8</ele><time>2026-04-19T14:43:12.903Z</time></trkpt><trkpt lat="44.26476952008716" lon="9.634070005754143"><ele>250.0</ele><time>2026-04-19T14:43:13.903Z</time></trkpt><trkpt lat="44.26482268813206" lon="9.63417958551031"><ele>247.6</ele><time>2026-04-19T14:43:14.903Z</time></trkpt><trkpt lat="44.26488651483022" lon="9.634285613715928"><ele>245.2</ele><time>2026-04-19T14:43:15.903Z</time></trkpt><trkpt lat="44.26495312563319" lon="9.6343907930548"><ele>242.8</ele><time>2026-04-19T14:43:16.903Z</time></trkpt><trkpt lat="44.26502288511643" lon="9.634502791572004"><ele>240.4</ele><time>2026-04-19T14:43:17.903Z</time></trkpt><trkpt lat="44.265098952165424" lon="9.634615553324702"><ele>238.0</ele><time>2026-04-19T14:43:18.903Z</time></trkpt><trkpt lat="44.26517842052769" lon="9.634728310134902"><ele>238.0</ele><time>2026-04-19T14:43:19.903Z</time></trkpt><trkpt lat="44.265250699819745" lon="9.63484126474166"><ele>238.0</ele><time>2026-04-19T14:43:20.903Z</time></trkpt><trkpt lat="44.26531698553916" lon="9.634952404262613"><ele>238.0</ele><time>2026-04-19T14:43:21.903Z</time></trkpt><trkpt lat="44.26538047386521" lon="9.635059274588553"><ele>238.0</ele><time>2026-04-19T14:43:22.903Z</time></trkpt><trkpt lat="44.26544490605963" lon="9.6351473564579"><ele>238.0</ele><time>2026-04-19T14:43:23.903Z</time></trkpt><trkpt lat="44.26550574474345" lon="9.635241102964773"><ele>237.2</ele><time>2026-04-19T14:43:24.903Z</time></trkpt><trkpt lat="44.265588796651826" lon="9.635318942145034"><ele>236.4</ele><time>2026-04-19T14:43:25.903Z</time></trkpt><trkpt lat="44.2656835266292" lon="9.63537030888688"><ele>235.59999999999997</ele><time>2026-04-19T14:43:26.903Z</time></trkpt><trkpt lat="44.26577764266027" lon="9.63540565970757"><ele>234.79999999999998</ele><time>2026-04-19T14:43:27.903Z</time></trkpt><trkpt lat="44.26588543983173" lon="9.635450711713574"><ele>234.0</ele><time>2026-04-19T14:43:28.903Z</time></trkpt><trkpt lat="44.265999078150635" lon="9.635506195036083"><ele>234.0</ele><time>2026-04-19T14:43:29.903Z</time></trkpt><trkpt lat="44.26611233857036" lon="9.635562839974702"><ele>234.0</ele><time>2026-04-19T14:43:30.903Z</time></trkpt><trkpt lat="44.266227652941886" lon="9.635617595683556"><ele>234.0</ele><time>2026-04-19T14:43:31.903Z</time></trkpt><trkpt lat="44.26634238103773" lon="9.635681082760563"><ele>234.0</ele><time>2026-04-19T14:43:32.903Z</time></trkpt><trkpt lat="44.26645741393922" lon="9.635747497560034"><ele>232.79999999999998</ele><time>2026-04-19T14:43:33.903Z</time></trkpt><trkpt lat="44.266564417521984" lon="9.635805936305356"><ele>231.59999999999997</ele><time>2026-04-19T14:43:34.903Z</time></trkpt><trkpt lat="44.26666243235339" lon="9.635862392606406"><ele>230.4</ele><time>2026-04-19T14:43:35.903Z</time></trkpt><trkpt lat="44.26676737694825" lon="9.635939963539611"><ele>229.2</ele><time>2026-04-19T14:43:36.903Z</time></trkpt><trkpt lat="44.266858134923915" lon="9.636013545162243"><ele>228.0</ele><time>2026-04-19T14:43:37.903Z</time></trkpt><trkpt lat="44.26694332418194" lon="9.636138011082364"><ele>228.0</ele><time>2026-04-19T14:43:38.903Z</time></trkpt><trkpt lat="44.26702614660141" lon="9.636282386102517"><ele>228.0</ele><time>2026-04-19T14:43:39.903Z</time></trkpt><trkpt lat="44.267096704707484" lon="9.636442507999957"><ele>228.0</ele><time>2026-04-19T14:43:40.903Z</time></trkpt><trkpt lat="44.26713440428668" lon="9.63661790356219"><ele>228.0</ele><time>2026-04-19T14:43:41.903Z</time></trkpt><trkpt lat="44.26716456203132" lon="9.636788060828138"><ele>228.0</ele><time>2026-04-19T14:43:42.903Z</time></trkpt><trkpt lat="44.26717607657336" lon="9.636959173422023"><ele>228.0</ele><time>2026-04-19T14:43:43.903Z</time></trkpt><trkpt lat="44.267162587363174" lon="9.637137492569197"><ele>228.0</ele><time>2026-04-19T14:43:44.903Z</time></trkpt><trkpt lat="44.26712984632635" lon="9.63732021874707"><ele>228.0</ele><time>2026-04-19T14:43:45.903Z</time></trkpt><trkpt lat="44.267077155406525" lon="9.637494685983482"><ele>227.5</ele><time>2026-04-19T14:43:46.903Z</time></trkpt><trkpt lat="44.26700934672291" lon="9.63766702827688"><ele>227.0</ele><time>2026-04-19T14:43:47.903Z</time></trkpt><trkpt lat="44.266937625896105" lon="9.637839996698574"><ele>226.5</ele><time>2026-04-19T14:43:48.903Z</time></trkpt><trkpt lat="44.26687109627866" lon="9.637998718498753"><ele>226.0</ele><time>2026-04-19T14:43:49.903Z</time></trkpt><trkpt lat="44.26681207802389" lon="9.638149656700708"><ele>226.0</ele><time>2026-04-19T14:43:50.903Z</time></trkpt><trkpt lat="44.266751961531035" lon="9.638287815430363"><ele>226.00000000000003</ele><time>2026-04-19T14:43:51.903Z</time></trkpt><trkpt lat="44.26672416814253" lon="9.638427846838995"><ele>226.00000000000003</ele><time>2026-04-19T14:43:52.903Z</time></trkpt><trkpt lat="44.266721489750445" lon="9.638577635604243"><ele>226.0</ele><time>2026-04-19T14:43:53.903Z</time></trkpt><trkpt lat="44.26674414866359" lon="9.638731870175702"><ele>226.0</ele><time>2026-04-19T14:43:54.903Z</time></trkpt><trkpt lat="44.26680909402466" lon="9.638886241759996"><ele>227.0</ele><time>2026-04-19T14:43:55.903Z</time></trkpt><trkpt lat="44.266891780337005" lon="9.639019901082136"><ele>228.0</ele><time>2026-04-19T14:43:56.903Z</time></trkpt><trkpt lat="44.26701475776548" lon="9.6391226129926"><ele>229.0</ele><time>2026-04-19T14:43:57.903Z</time></trkpt><trkpt lat="44.267159353679084" lon="9.639227963672836"><ele>230.0</ele><time>2026-04-19T14:43:58.903Z</time></trkpt><trkpt lat="44.26730456720683" lon="9.63933200779772"><ele>230.0</ele><time>2026-04-19T14:43:59.903Z</time></trkpt><trkpt lat="44.267446913287785" lon="9.639446286596863"><ele>230.0</ele><time>2026-04-19T14:44:00.903Z</time></trkpt><trkpt lat="44.2675803446703" lon="9.639568637756671"><ele>230.0</ele><time>2026-04-19T14:44:01.903Z</time></trkpt><trkpt lat="44.267709933834425" lon="9.639690383432079"><ele>225.0</ele><time>2026-04-19T14:44:02.903Z</time></trkpt><trkpt lat="44.267843603176196" lon="9.63981389473268"><ele>220.0</ele><time>2026-04-19T14:44:03.903Z</time></trkpt><trkpt lat="44.26797709222678" lon="9.639920314879165"><ele>215.0</ele><time>2026-04-19T14:44:04.903Z</time></trkpt><trkpt lat="44.26810382299814" lon="9.640014451917125"><ele>213.5</ele><time>2026-04-19T14:44:05.903Z</time></trkpt><trkpt lat="44.26822022786908" lon="9.640108758614186"><ele>212.0</ele><time>2026-04-19T14:44:06.903Z</time></trkpt><trkpt lat="44.26830715268963" lon="9.640216594111166"><ele>210.5</ele><time>2026-04-19T14:44:07.903Z</time></trkpt><trkpt lat="44.268399051761314" lon="9.64032683457329"><ele>209.0</ele><time>2026-04-19T14:44:08.903Z</time></trkpt><trkpt lat="44.26848903367761" lon="9.640460004331421"><ele>209.0</ele><time>2026-04-19T14:44:09.903Z</time></trkpt><trkpt lat="44.26855505394543" lon="9.640593712672148"><ele>209.0</ele><time>2026-04-19T14:44:10.903Z</time></trkpt><trkpt lat="44.268590277676566" lon="9.640744239894875"><ele>209.0</ele><time>2026-04-19T14:44:11.903Z</time></trkpt><trkpt lat="44.26860545044568" lon="9.64089674569589"><ele>209.0</ele><time>2026-04-19T14:44:12.903Z</time></trkpt><trkpt lat="44.268601870986906" lon="9.641051912691994"><ele>209.6</ele><time>2026-04-19T14:44:13.903Z</time></trkpt><trkpt lat="44.268592204830085" lon="9.641202138331963"><ele>210.2</ele><time>2026-04-19T14:44:14.903Z</time></trkpt><trkpt lat="44.268567016804575" lon="9.641344639792756"><ele>210.79999999999998</ele><time>2026-04-19T14:44:15.903Z</time></trkpt><trkpt lat="44.26853390736672" lon="9.641479084591282"><ele>211.39999999999998</ele><time>2026-04-19T14:44:16.903Z</time></trkpt><trkpt lat="44.268508706509714" lon="9.641607912416417"><ele>212.0</ele><time>2026-04-19T14:44:17.903Z</time></trkpt><trkpt lat="44.268486612114685" lon="9.641720927776422"><ele>212.0</ele><time>2026-04-19T14:44:18.903Z</time></trkpt><trkpt lat="44.26847082524239" lon="9.64184180869981"><ele>212.0</ele><time>2026-04-19T14:44:19.903Z</time></trkpt><trkpt lat="44.26844545380364" lon="9.641967633420661"><ele>212.0</ele><time>2026-04-19T14:44:20.903Z</time></trkpt><trkpt lat="44.268440062130466" lon="9.642115717287204"><ele>212.0</ele><time>2026-04-19T14:44:21.903Z</time></trkpt><trkpt lat="44.2684302895452" lon="9.642271053340632"><ele>212.0</ele><time>2026-04-19T14:44:22.903Z</time></trkpt><trkpt lat="44.26843156769814" lon="9.642410552316868"><ele>211.2</ele><time>2026-04-19T14:44:23.903Z</time></trkpt><trkpt lat="44.26845727108385" lon="9.642545963606501"><ele>210.39999999999998</ele><time>2026-04-19T14:44:24.903Z</time></trkpt><trkpt lat="44.26849326757966" lon="9.642670341759626"><ele>209.60000000000002</ele><time>2026-04-19T14:44:25.903Z</time></trkpt><trkpt lat="44.26854506752358" lon="9.642787161804128"><ele>208.8</ele><time>2026-04-19T14:44:26.903Z</time></trkpt><trkpt lat="44.26861454999733" lon="9.642888450661685"><ele>208.0</ele><time>2026-04-19T14:44:27.903Z</time></trkpt><trkpt lat="44.268681165861324" lon="9.64298479352568"><ele>207.5</ele><time>2026-04-19T14:44:28.903Z</time></trkpt><trkpt lat="44.2687546100204" lon="9.643074252443748"><ele>207.0</ele><time>2026-04-19T14:44:29.903Z</time></trkpt><trkpt lat="44.26883498575847" lon="9.643155501922406"><ele>206.5</ele><time>2026-04-19T14:44:30.903Z</time></trkpt><trkpt lat="44.268944441850174" lon="9.64325806268203"><ele>206.0</ele><time>2026-04-19T14:44:31.903Z</time></trkpt><trkpt lat="44.269006022666474" lon="9.643421120537155"><ele>207.0</ele><time>2026-04-19T14:44:32.903Z</time></trkpt><trkpt lat="44.269064488214646" lon="9.643623862431884"><ele>208.0</ele><time>2026-04-19T14:44:33.903Z</time></trkpt><trkpt lat="44.269115477236696" lon="9.64383175502079"><ele>209.0</ele><time>2026-04-19T14:44:34.903Z</time></trkpt><trkpt lat="44.26917111658444" lon="9.644042763066153"><ele>209.0</ele><time>2026-04-19T14:44:35.9Z</time></trkpt><trkpt lat="44.269235991529584" lon="9.644268838596616"><ele>209.0</ele><time>2026-04-19T14:44:36.901Z</time></trkpt><trkpt lat="44.2692963491992" lon="9.644505866096262"><ele>209.0</ele><time>2026-04-19T14:44:37.901Z</time></trkpt><trkpt lat="44.26934536629916" lon="9.644743567258116"><ele>207.66666666666669</ele><time>2026-04-19T14:44:38.9Z</time></trkpt><trkpt lat="44.269373135906754" lon="9.644998777474596"><ele>206.33333333333331</ele><time>2026-04-19T14:44:39.9Z</time></trkpt><trkpt lat="44.26939900542028" lon="9.64525463989587"><ele>205.0</ele><time>2026-04-19T14:44:40.9Z</time></trkpt><trkpt lat="44.2694179824686" lon="9.645496553455038"><ele>204.66666666666666</ele><time>2026-04-19T14:44:41.9Z</time></trkpt><trkpt lat="44.26943876497636" lon="9.645755040564762"><ele>204.33333333333331</ele><time>2026-04-19T14:44:42.9Z</time></trkpt><trkpt lat="44.269463813585446" lon="9.645985506293323"><ele>204.0</ele><time>2026-04-19T14:44:43.9Z</time></trkpt><trkpt lat="44.26949648254839" lon="9.64620562406412"><ele>203.25</ele><time>2026-04-19T14:44:44.9Z</time></trkpt><trkpt lat="44.26953536566434" lon="9.646416345469898"><ele>202.5</ele><time>2026-04-19T14:44:45.9Z</time></trkpt><trkpt lat="44.2695832756777" lon="9.646609433079334"><ele>201.75</ele><time>2026-04-19T14:44:46.9Z</time></trkpt><trkpt lat="44.269635051931736" lon="9.646782805020104"><ele>201.0</ele><time>2026-04-19T14:44:47.9Z</time></trkpt><trkpt lat="44.2696911497695" lon="9.646948683033168"><ele>201.25</ele><time>2026-04-19T14:44:48.9Z</time></trkpt><trkpt lat="44.269764796934346" lon="9.647100469531967"><ele>201.5</ele><time>2026-04-19T14:44:49.9Z</time></trkpt><trkpt lat="44.26985527740364" lon="9.647230997756223"><ele>201.75</ele><time>2026-04-19T14:44:50.9Z</time></trkpt><trkpt lat="44.26995777227279" lon="9.647336032556675"><ele>202.0</ele><time>2026-04-19T14:44:51.9Z</time></trkpt><trkpt lat="44.27006886629605" lon="9.647433715119265"><ele>199.5</ele><time>2026-04-19T14:44:52.9Z</time></trkpt><trkpt lat="44.27019007466432" lon="9.647527500412092"><ele>197.0</ele><time>2026-04-19T14:44:53.9Z</time></trkpt><trkpt lat="44.27028298572523" lon="9.64762884448618"><ele>194.5</ele><time>2026-04-19T14:44:54.9Z</time></trkpt><trkpt lat="44.2703650483835" lon="9.647744888761146"><ele>192.0</ele><time>2026-04-19T14:44:55.9Z</time></trkpt><trkpt lat="44.270442075830715" lon="9.647903769911824"><ele>190.66666666666666</ele><time>2026-04-19T14:44:56.9Z</time></trkpt><trkpt lat="44.27050404640289" lon="9.64809535978807"><ele>189.33333333333331</ele><time>2026-04-19T14:44:57.9Z</time></trkpt><trkpt lat="44.27052825974804" lon="9.64829840199549"><ele>188.0</ele><time>2026-04-19T14:44:58.9Z</time></trkpt><trkpt lat="44.270539392140165" lon="9.648525726423298"><ele>188.66666666666666</ele><time>2026-04-19T14:44:59.9Z</time></trkpt><trkpt lat="44.270569970471506" lon="9.648741210702498"><ele>189.33333333333334</ele><time>2026-04-19T14:45:00.9Z</time></trkpt><trkpt lat="44.27062288466162" lon="9.64897082502652"><ele>190.0</ele><time>2026-04-19T14:45:01.9Z</time></trkpt><trkpt lat="44.27069634325875" lon="9.649215863919066"><ele>187.66666666666669</ele><time>2026-04-19T14:45:02.9Z</time></trkpt><trkpt lat="44.270779234760404" lon="9.64946075992083"><ele>185.33333333333334</ele><time>2026-04-19T14:45:03.9Z</time></trkpt><trkpt lat="44.270870888994956" lon="9.649710840128192"><ele>183.0</ele><time>2026-04-19T14:45:04.9Z</time></trkpt><trkpt lat="44.27095975716461" lon="9.649977733582723"><ele>183.0</ele><time>2026-04-19T14:45:05.9Z</time></trkpt><trkpt lat="44.271046371260965" lon="9.650245581216234"><ele>183.0</ele><time>2026-04-19T14:45:06.9Z</time></trkpt><trkpt lat="44.271134879888145" lon="9.650511021546533"><ele>183.0</ele><time>2026-04-19T14:45:07.9Z</time></trkpt><trkpt lat="44.27121746153221" lon="9.650769684927413"><ele>182.0</ele><time>2026-04-19T14:45:08.9Z</time></trkpt><trkpt lat="44.27129396050668" lon="9.651013259559754"><ele>181.0</ele><time>2026-04-19T14:45:09.9Z</time></trkpt><trkpt lat="44.2713701062918" lon="9.65122723545629"><ele>180.0</ele><time>2026-04-19T14:45:10.9Z</time></trkpt><trkpt lat="44.2714357068284" lon="9.651416389486439"><ele>182.75</ele><time>2026-04-19T14:45:11.9Z</time></trkpt><trkpt lat="44.27148168942176" lon="9.651568253018604"><ele>185.5</ele><time>2026-04-19T14:45:12.9Z</time></trkpt><trkpt lat="44.2714958580118" lon="9.651762517539987"><ele>188.25</ele><time>2026-04-19T14:45:13.9Z</time></trkpt><trkpt lat="44.2714896741579" lon="9.651960722225457"><ele>191.0</ele><time>2026-04-19T14:45:14.9Z</time></trkpt><trkpt lat="44.27148167445344" lon="9.652152883568524"><ele>191.0</ele><time>2026-04-19T14:45:15.9Z</time></trkpt><trkpt lat="44.27148441091811" lon="9.652333928868732"><ele>191.0</ele><time>2026-04-19T14:45:16.9Z</time></trkpt><trkpt lat="44.27151027183565" lon="9.65251204555225"><ele>191.0</ele><time>2026-04-19T14:45:17.9Z</time></trkpt><trkpt lat="44.271557380678544" lon="9.652683452023204"><ele>191.0</ele><time>2026-04-19T14:45:18.9Z</time></trkpt><trkpt lat="44.27161864418058" lon="9.652844216765361"><ele>187.25</ele><time>2026-04-19T14:45:19.9Z</time></trkpt><trkpt lat="44.271692168448624" lon="9.652997747363775"><ele>183.5</ele><time>2026-04-19T14:45:20.9Z</time></trkpt><trkpt lat="44.27180111437324" lon="9.653139806925113"><ele>179.75</ele><time>2026-04-19T14:45:21.9Z</time></trkpt><trkpt lat="44.27193408476701" lon="9.653268528263784"><ele>176.0</ele><time>2026-04-19T14:45:22.9Z</time></trkpt><trkpt lat="44.27207847000823" lon="9.653393356557087"><ele>176.0</ele><time>2026-04-19T14:45:23.9Z</time></trkpt><trkpt lat="44.272219189872" lon="9.653523902361107"><ele>176.0</ele><time>2026-04-19T14:45:24.9Z</time></trkpt><trkpt lat="44.27235090262512" lon="9.65364890896935"><ele>176.0</ele><time>2026-04-19T14:45:25.9Z</time></trkpt><trkpt lat="44.272475514869214" lon="9.653797379093794"><ele>177.33333333333331</ele><time>2026-04-19T14:45:26.9Z</time></trkpt><trkpt lat="44.27260089052653" lon="9.653980758549025"><ele>178.66666666666666</ele><time>2026-04-19T14:45:27.9Z</time></trkpt><trkpt lat="44.27271219666478" lon="9.65416393920908"><ele>180.0</ele><time>2026-04-19T14:45:28.9Z</time></trkpt><trkpt lat="44.27282085748137" lon="9.654349210337877"><ele>177.33333333333334</ele><time>2026-04-19T14:45:29.9Z</time></trkpt><trkpt lat="44.272928359005356" lon="9.654540629133615"><ele>174.66666666666669</ele><time>2026-04-19T14:45:30.9Z</time></trkpt><trkpt lat="44.27304215214359" lon="9.654725263730624"><ele>172.0</ele><time>2026-04-19T14:45:31.9Z</time></trkpt><trkpt lat="44.27314798670957" lon="9.654905885566988"><ele>173.66666666666669</ele><time>2026-04-19T14:45:32.901Z</time></trkpt><trkpt lat="44.27325232047705" lon="9.655076466396743"><ele>175.33333333333334</ele><time>2026-04-19T14:45:33.901Z</time></trkpt><trkpt lat="44.273354863601355" lon="9.6552485884185"><ele>177.0</ele><time>2026-04-19T14:45:34.901Z</time></trkpt><trkpt lat="44.27345010921186" lon="9.65542973388398"><ele>177.0</ele><time>2026-04-19T14:45:35.901Z</time></trkpt><trkpt lat="44.27354069738563" lon="9.655627016859532"><ele>177.0</ele><time>2026-04-19T14:45:36.901Z</time></trkpt><trkpt lat="44.27362774935694" lon="9.655820482553256"><ele>177.0</ele><time>2026-04-19T14:45:37.901Z</time></trkpt><trkpt lat="44.27370860196045" lon="9.656017715715866"><ele>175.33333333333334</ele><time>2026-04-19T14:45:38.901Z</time></trkpt><trkpt lat="44.27378849322008" lon="9.656213982558326"><ele>173.66666666666669</ele><time>2026-04-19T14:45:39.901Z</time></trkpt><trkpt lat="44.27386252863808" lon="9.656409975956787"><ele>172.0</ele><time>2026-04-19T14:45:40.901Z</time></trkpt><trkpt lat="44.273935015485236" lon="9.656601836696517"><ele>175.66666666666669</ele><time>2026-04-19T14:45:41.901Z</time></trkpt><trkpt lat="44.27401064351705" lon="9.656790815270522"><ele>179.33333333333334</ele><time>2026-04-19T14:45:42.901Z</time></trkpt><trkpt lat="44.27409257045565" lon="9.656976659131088"><ele>183.0</ele><time>2026-04-19T14:45:43.901Z</time></trkpt><trkpt lat="44.27417685802369" lon="9.657154340681506"><ele>183.0</ele><time>2026-04-19T14:45:44.901Z</time></trkpt><trkpt lat="44.27426406877492" lon="9.657323061322765"><ele>183.0</ele><time>2026-04-19T14:45:45.901Z</time></trkpt><trkpt lat="44.27435753309211" lon="9.657482372096473"><ele>183.0</ele><time>2026-04-19T14:45:46.901Z</time></trkpt><trkpt lat="44.27445777386964" lon="9.657641412763752"><ele>183.0</ele><time>2026-04-19T14:45:47.901Z</time></trkpt><trkpt lat="44.27455790383397" lon="9.657782750783777"><ele>181.25</ele><time>2026-04-19T14:45:48.901Z</time></trkpt><trkpt lat="44.27464806726524" lon="9.657912157816586"><ele>179.5</ele><time>2026-04-19T14:45:49.901Z</time></trkpt><trkpt lat="44.27473826688476" lon="9.658028276972601"><ele>177.75</ele><time>2026-04-19T14:45:50.901Z</time></trkpt><trkpt lat="44.27481150238045" lon="9.658135254932054"><ele>176.0</ele><time>2026-04-19T14:45:51.901Z</time></trkpt><trkpt lat="44.27486601328993" lon="9.658244086988963"><ele>177.83333333333331</ele><time>2026-04-19T14:45:52.901Z</time></trkpt><trkpt lat="44.27490010726975" lon="9.658360496212289"><ele>179.66666666666666</ele><time>2026-04-19T14:45:53.901Z</time></trkpt><trkpt lat="44.27491357434736" lon="9.658487064127044"><ele>181.5</ele><time>2026-04-19T14:45:54.901Z</time></trkpt><trkpt lat="44.27492361673708" lon="9.658604212634069"><ele>183.33333333333334</ele><time>2026-04-19T14:45:55.901Z</time></trkpt><trkpt lat="44.274916072100446" lon="9.658709150922311"><ele>185.16666666666669</ele><time>2026-04-19T14:45:56.901Z</time></trkpt><trkpt lat="44.274910334988476" lon="9.658819216235525"><ele>187.0</ele><time>2026-04-19T14:45:57.901Z</time></trkpt><trkpt lat="44.27492582658135" lon="9.658934084602947"><ele>187.0</ele><time>2026-04-19T14:45:58.901Z</time></trkpt><trkpt lat="44.274962149614325" lon="9.659052926589174"><ele>187.0</ele><time>2026-04-19T14:45:59.901Z</time></trkpt><trkpt lat="44.27500932561578" lon="9.65916810807091"><ele>187.0</ele><time>2026-04-19T14:46:00.901Z</time></trkpt><trkpt lat="44.27505750732601" lon="9.659276734947133"><ele>187.0</ele><time>2026-04-19T14:46:01.901Z</time></trkpt><trkpt lat="44.27510552222629" lon="9.659361603484657"><ele>187.0</ele><time>2026-04-19T14:46:02.901Z</time></trkpt><trkpt lat="44.2751468629786" lon="9.659500244791138"><ele>185.5</ele><time>2026-04-19T14:46:04.901Z</time></trkpt><trkpt lat="44.27513899201346" lon="9.659623438746298"><ele>184.0</ele><time>2026-04-19T14:46:06.901Z</time></trkpt><trkpt lat="44.2751602882981" lon="9.659716086202994"><ele>182.5</ele><time>2026-04-19T14:46:08.901Z</time></trkpt><trkpt lat="44.27524945016408" lon="9.659809263648993"><ele>181.0</ele><time>2026-04-19T14:46:10.901Z</time></trkpt><trkpt lat="44.275327974691535" lon="9.659843747624533"><ele>179.5</ele><time>2026-04-19T14:46:11.901Z</time></trkpt><trkpt lat="44.27540779249337" lon="9.659874816995885"><ele>178.0</ele><time>2026-04-19T14:46:12.901Z</time></trkpt><trkpt lat="44.275499694865616" lon="9.659907254363004"><ele>181.75</ele><time>2026-04-19T14:46:13.901Z</time></trkpt><trkpt lat="44.27561902507502" lon="9.659948505408009"><ele>185.5</ele><time>2026-04-19T14:46:14.901Z</time></trkpt><trkpt lat="44.27574254919795" lon="9.659994320183468"><ele>189.25</ele><time>2026-04-19T14:46:15.901Z</time></trkpt><trkpt lat="44.275859776990536" lon="9.660043772836648"><ele>193.0</ele><time>2026-04-19T14:46:16.901Z</time></trkpt><trkpt lat="44.27597139295662" lon="9.660089946874587"><ele>193.0</ele><time>2026-04-19T14:46:17.901Z</time></trkpt><trkpt lat="44.27608431189" lon="9.660148076023004"><ele>193.0</ele><time>2026-04-19T14:46:18.901Z</time></trkpt><trkpt lat="44.276194322530465" lon="9.660216957747542"><ele>193.0</ele><time>2026-04-19T14:46:19.901Z</time></trkpt><trkpt lat="44.2762983333063" lon="9.660297261817696"><ele>193.0</ele><time>2026-04-19T14:46:20.901Z</time></trkpt><trkpt lat="44.27639972298648" lon="9.66039032291701"><ele>191.0</ele><time>2026-04-19T14:46:21.901Z</time></trkpt><trkpt lat="44.276500925732655" lon="9.660482653911938"><ele>189.0</ele><time>2026-04-19T14:46:22.901Z</time></trkpt><trkpt lat="44.27658978715331" lon="9.660579738362724"><ele>187.0</ele><time>2026-04-19T14:46:23.901Z</time></trkpt><trkpt lat="44.27667874189855" lon="9.660676385293007"><ele>185.0</ele><time>2026-04-19T14:46:24.901Z</time></trkpt><trkpt lat="44.27677079345078" lon="9.660760717924648"><ele>185.0</ele><time>2026-04-19T14:46:25.901Z</time></trkpt><trkpt lat="44.27686611561862" lon="9.66084126472981"><ele>185.0</ele><time>2026-04-19T14:46:26.901Z</time></trkpt><trkpt lat="44.27695410072918" lon="9.660923992572634"><ele>185.0</ele><time>2026-04-19T14:46:27.901Z</time></trkpt><trkpt lat="44.277033803253744" lon="9.661009557317112"><ele>185.0</ele><time>2026-04-19T14:46:28.901Z</time></trkpt><trkpt lat="44.277111330289806" lon="9.661091655784452"><ele>185.0</ele><time>2026-04-19T14:46:29.901Z</time></trkpt><trkpt lat="44.27718760175866" lon="9.661160086209723"><ele>184.99999999999997</ele><time>2026-04-19T14:46:30.901Z</time></trkpt><trkpt lat="44.277255288719026" lon="9.661218373670755"><ele>185.0</ele><time>2026-04-19T14:46:31.901Z</time></trkpt><trkpt lat="44.27731693023531" lon="9.66127017358498"><ele>185.0</ele><time>2026-04-19T14:46:32.901Z</time></trkpt><trkpt lat="44.27738162679645" lon="9.661312328446384"><ele>185.0</ele><time>2026-04-19T14:46:33.901Z</time></trkpt><trkpt lat="44.27744440883632" lon="9.661324400698952"><ele>185.0</ele><time>2026-04-19T14:46:34.901Z</time></trkpt><trkpt lat="44.277506623314125" lon="9.661305962244825"><ele>184.99999999999997</ele><time>2026-04-19T14:46:35.901Z</time></trkpt><trkpt lat="44.27756325227072" lon="9.661260970847739"><ele>185.0</ele><time>2026-04-19T14:46:36.901Z</time></trkpt><trkpt lat="44.27764034540795" lon="9.661131145677661"><ele>186.33333333333331</ele><time>2026-04-19T14:46:38.901Z</time></trkpt><trkpt lat="44.27767323578487" lon="9.661053804010896"><ele>187.66666666666666</ele><time>2026-04-19T14:46:39.901Z</time></trkpt><trkpt lat="44.2777166535368" lon="9.660977746948214"><ele>189.0</ele><time>2026-04-19T14:46:40.901Z</time></trkpt><trkpt lat="44.27777239365621" lon="9.660902402868542"><ele>190.33333333333331</ele><time>2026-04-19T14:46:41.898Z</time></trkpt><trkpt lat="44.27782915956683" lon="9.660819526034688"><ele>191.66666666666666</ele><time>2026-04-19T14:46:42.898Z</time></trkpt><trkpt lat="44.27788268575589" lon="9.660733199861191"><ele>193.0</ele><time>2026-04-19T14:46:43.898Z</time></trkpt><trkpt lat="44.27792991811869" lon="9.66064934926784"><ele>192.99999999999997</ele><time>2026-04-19T14:46:44.898Z</time></trkpt><trkpt lat="44.27796370462739" lon="9.660561972288018"><ele>193.0</ele><time>2026-04-19T14:46:45.898Z</time></trkpt><trkpt lat="44.2779947027711" lon="9.660465167889535"><ele>193.0</ele><time>2026-04-19T14:46:46.898Z</time></trkpt><trkpt lat="44.278013314078045" lon="9.66037076378036"><ele>193.0</ele><time>2026-04-19T14:46:47.898Z</time></trkpt><trkpt lat="44.27802111691925" lon="9.660265006775381"><ele>192.99999999999997</ele><time>2026-04-19T14:46:48.897Z</time></trkpt><trkpt lat="44.27801603487474" lon="9.660176765088302"><ele>193.0</ele><time>2026-04-19T14:46:49.897Z</time></trkpt><trkpt lat="44.2780504841253" lon="9.660019696848215"><ele>191.16666666666666</ele><time>2026-04-19T14:46:51.898Z</time></trkpt><trkpt lat="44.278108249229334" lon="9.659944325185137"><ele>189.33333333333331</ele><time>2026-04-19T14:46:52.898Z</time></trkpt><trkpt lat="44.27816932493531" lon="9.659870936706238"><ele>187.5</ele><time>2026-04-19T14:46:53.898Z</time></trkpt><trkpt lat="44.27824193292245" lon="9.65979022505432"><ele>185.66666666666666</ele><time>2026-04-19T14:46:54.897Z</time></trkpt><trkpt lat="44.278305199617655" lon="9.659709052366473"><ele>183.83333333333331</ele><time>2026-04-19T14:46:55.897Z</time></trkpt><trkpt lat="44.278362154762256" lon="9.659635245646532"><ele>182.0</ele><time>2026-04-19T14:46:56.897Z</time></trkpt><trkpt lat="44.27841315157122" lon="9.659578747427332"><ele>182.0</ele><time>2026-04-19T14:46:57.897Z</time></trkpt><trkpt lat="44.27846871501418" lon="9.659533935517675"><ele>182.0</ele><time>2026-04-19T14:46:58.897Z</time></trkpt><trkpt lat="44.27853333715071" lon="9.659494795217503"><ele>182.0</ele><time>2026-04-19T14:46:59.897Z</time></trkpt><trkpt lat="44.2786100653086" lon="9.659488711298978"><ele>182.0</ele><time>2026-04-19T14:47:00.897Z</time></trkpt><trkpt lat="44.27867953284068" lon="9.659522164340972"><ele>182.0</ele><time>2026-04-19T14:47:01.897Z</time></trkpt><trkpt lat="44.27874228659857" lon="9.659573948307278"><ele>182.0</ele><time>2026-04-19T14:47:02.897Z</time></trkpt><trkpt lat="44.27880617809834" lon="9.659644101281689"><ele>182.0</ele><time>2026-04-19T14:47:03.897Z</time></trkpt><trkpt lat="44.27886884841049" lon="9.659737465348154"><ele>182.0</ele><time>2026-04-19T14:47:04.897Z</time></trkpt><trkpt lat="44.27892965408416" lon="9.659832034783639"><ele>182.0</ele><time>2026-04-19T14:47:05.897Z</time></trkpt><trkpt lat="44.27898465481595" lon="9.659941132167846"><ele>182.0</ele><time>2026-04-19T14:47:06.897Z</time></trkpt><trkpt lat="44.279035607601436" lon="9.660067785351977"><ele>182.0</ele><time>2026-04-19T14:47:07.897Z</time></trkpt><trkpt lat="44.27908874395827" lon="9.66019608901112"><ele>182.0</ele><time>2026-04-19T14:47:08.897Z</time></trkpt><trkpt lat="44.27913966645239" lon="9.660334921871979"><ele>185.5</ele><time>2026-04-19T14:47:09.897Z</time></trkpt><trkpt lat="44.2791956591059" lon="9.66047347200504"><ele>189.0</ele><time>2026-04-19T14:47:10.897Z</time></trkpt><trkpt lat="44.27925617434831" lon="9.660613318766796"><ele>192.5</ele><time>2026-04-19T14:47:11.897Z</time></trkpt><trkpt lat="44.2793160873203" lon="9.660746628896042"><ele>196.0</ele><time>2026-04-19T14:47:12.897Z</time></trkpt><trkpt lat="44.27937280830381" lon="9.660872957373398"><ele>196.0</ele><time>2026-04-19T14:47:13.897Z</time></trkpt><trkpt lat="44.279420988359234" lon="9.661006143766109"><ele>196.0</ele><time>2026-04-19T14:47:14.897Z</time></trkpt><trkpt lat="44.27947234908687" lon="9.661122620649376"><ele>196.0</ele><time>2026-04-19T14:47:15.897Z</time></trkpt><trkpt lat="44.27952442117918" lon="9.661238752563667"><ele>196.0</ele><time>2026-04-19T14:47:16.897Z</time></trkpt><trkpt lat="44.279585354837764" lon="9.66134462511029"><ele>196.0</ele><time>2026-04-19T14:47:17.897Z</time></trkpt><trkpt lat="44.279651598579605" lon="9.661446538164359"><ele>195.60000000000002</ele><time>2026-04-19T14:47:18.897Z</time></trkpt><trkpt lat="44.27971852642062" lon="9.6615335607107"><ele>195.2</ele><time>2026-04-19T14:47:19.897Z</time></trkpt><trkpt lat="44.279782491679455" lon="9.661612145075917"><ele>194.8</ele><time>2026-04-19T14:47:20.897Z</time></trkpt><trkpt lat="44.279856253633355" lon="9.661678753308191"><ele>194.39999999999998</ele><time>2026-04-19T14:47:21.897Z</time></trkpt><trkpt lat="44.27996091823065" lon="9.661719457151694"><ele>194.0</ele><time>2026-04-19T14:47:22.897Z</time></trkpt><trkpt lat="44.28007728375148" lon="9.661740241275906"><ele>194.0</ele><time>2026-04-19T14:47:23.897Z</time></trkpt><trkpt lat="44.280202414591045" lon="9.661768302458318"><ele>194.0</ele><time>2026-04-19T14:47:24.897Z</time></trkpt><trkpt lat="44.28032881390941" lon="9.661797506288673"><ele>194.0</ele><time>2026-04-19T14:47:25.897Z</time></trkpt><trkpt lat="44.28045032288063" lon="9.66182716752745"><ele>194.0</ele><time>2026-04-19T14:47:26.897Z</time></trkpt><trkpt lat="44.28056952347137" lon="9.661849182369908"><ele>194.25</ele><time>2026-04-19T14:47:27.897Z</time></trkpt><trkpt lat="44.28068422552617" lon="9.661873438046143"><ele>194.5</ele><time>2026-04-19T14:47:28.897Z</time></trkpt><trkpt lat="44.28080572985386" lon="9.661897810491478"><ele>194.75</ele><time>2026-04-19T14:47:29.897Z</time></trkpt><trkpt lat="44.280916768068444" lon="9.661926321715724"><ele>195.0</ele><time>2026-04-19T14:47:30.897Z</time></trkpt><trkpt lat="44.281031209048805" lon="9.66195280458484"><ele>195.0</ele><time>2026-04-19T14:47:31.897Z</time></trkpt><trkpt lat="44.281145089647374" lon="9.661976663223006"><ele>195.0</ele><time>2026-04-19T14:47:32.897Z</time></trkpt><trkpt lat="44.28125409166187" lon="9.662005071203954"><ele>195.0</ele><time>2026-04-19T14:47:33.898Z</time></trkpt><trkpt lat="44.281360519851354" lon="9.662006200121464"><ele>195.0</ele><time>2026-04-19T14:47:34.898Z</time></trkpt><trkpt lat="44.28147201255121" lon="9.66199283500622"><ele>195.0</ele><time>2026-04-19T14:47:35.898Z</time></trkpt><trkpt lat="44.2815927335706" lon="9.661967440630272"><ele>195.2</ele><time>2026-04-19T14:47:36.898Z</time></trkpt><trkpt lat="44.28169918341802" lon="9.661943164056664"><ele>195.4</ele><time>2026-04-19T14:47:37.898Z</time></trkpt><trkpt lat="44.28180283242937" lon="9.661940643953352"><ele>195.60000000000002</ele><time>2026-04-19T14:47:38.898Z</time></trkpt><trkpt lat="44.281906717689274" lon="9.661971643117864"><ele>195.8</ele><time>2026-04-19T14:47:39.898Z</time></trkpt><trkpt lat="44.28201311459396" lon="9.662021009086954"><ele>196.0</ele><time>2026-04-19T14:47:40.898Z</time></trkpt><trkpt lat="44.28211788949078" lon="9.662079644300709"><ele>196.0</ele><time>2026-04-19T14:47:41.898Z</time></trkpt><trkpt lat="44.28221874392063" lon="9.662161538738292"><ele>196.0</ele><time>2026-04-19T14:47:42.898Z</time></trkpt><trkpt lat="44.282316595222355" lon="9.662238983977748"><ele>196.0</ele><time>2026-04-19T14:47:43.898Z</time></trkpt><trkpt lat="44.28241431209928" lon="9.662324900269997"><ele>196.0</ele><time>2026-04-19T14:47:44.898Z</time></trkpt><trkpt lat="44.28251095000657" lon="9.662414212061309"><ele>197.0</ele><time>2026-04-19T14:47:45.898Z</time></trkpt><trkpt lat="44.28261836360698" lon="9.662517911183725"><ele>198.0</ele><time>2026-04-19T14:47:46.898Z</time></trkpt><trkpt lat="44.28273217073751" lon="9.662615885967686"><ele>199.0</ele><time>2026-04-19T14:47:47.898Z</time></trkpt><trkpt lat="44.28283732639787" lon="9.662714879822966"><ele>200.0</ele><time>2026-04-19T14:47:48.898Z</time></trkpt><trkpt lat="44.28293203225567" lon="9.662811947808262"><ele>200.0</ele><time>2026-04-19T14:47:49.898Z</time></trkpt><trkpt lat="44.283021624783075" lon="9.662908100226705"><ele>200.0</ele><time>2026-04-19T14:47:50.898Z</time></trkpt><trkpt lat="44.2830965011368" lon="9.662999499752496"><ele>200.0</ele><time>2026-04-19T14:47:51.898Z</time></trkpt><trkpt lat="44.28318346601227" lon="9.663113261713079"><ele>200.0</ele><time>2026-04-19T14:47:52.898Z</time></trkpt><trkpt lat="44.28326577364194" lon="9.663238632598832"><ele>200.5</ele><time>2026-04-19T14:47:53.898Z</time></trkpt><trkpt lat="44.283345619087356" lon="9.663357650436787"><ele>201.0</ele><time>2026-04-19T14:47:54.898Z</time></trkpt><trkpt lat="44.2834132639214" lon="9.663477169887617"><ele>201.5</ele><time>2026-04-19T14:47:55.898Z</time></trkpt><trkpt lat="44.28347771896861" lon="9.663610957571505"><ele>202.0</ele><time>2026-04-19T14:47:56.898Z</time></trkpt><trkpt lat="44.28355663143277" lon="9.6637439058949"><ele>202.0</ele><time>2026-04-19T14:47:57.898Z</time></trkpt><trkpt lat="44.28364420131612" lon="9.663877539445728"><ele>202.0</ele><time>2026-04-19T14:47:58.898Z</time></trkpt><trkpt lat="44.28372862862971" lon="9.664031314191897"><ele>202.0</ele><time>2026-04-19T14:47:59.898Z</time></trkpt><trkpt lat="44.28382588125869" lon="9.66419388947563"><ele>202.0</ele><time>2026-04-19T14:48:00.898Z</time></trkpt><trkpt lat="44.283926069042984" lon="9.664359530751044"><ele>203.33333333333331</ele><time>2026-04-19T14:48:01.898Z</time></trkpt><trkpt lat="44.28402930043089" lon="9.66453478828769"><ele>204.66666666666669</ele><time>2026-04-19T14:48:02.898Z</time></trkpt><trkpt lat="44.28413502077961" lon="9.66471401140236"><ele>206.0</ele><time>2026-04-19T14:48:03.898Z</time></trkpt><trkpt lat="44.28425341474035" lon="9.664901252322938"><ele>206.0</ele><time>2026-04-19T14:48:04.898Z</time></trkpt><trkpt lat="44.28437306824746" lon="9.665093997865105"><ele>206.0</ele><time>2026-04-19T14:48:05.898Z</time></trkpt><trkpt lat="44.28449522922089" lon="9.665291509008751"><ele>206.0</ele><time>2026-04-19T14:48:06.898Z</time></trkpt><trkpt lat="44.28461484722831" lon="9.665490039413811"><ele>205.33333333333334</ele><time>2026-04-19T14:48:07.898Z</time></trkpt><trkpt lat="44.28474159773305" lon="9.665697762706383"><ele>204.66666666666669</ele><time>2026-04-19T14:48:08.898Z</time></trkpt><trkpt lat="44.2848632579899" lon="9.665903627165097"><ele>204.0</ele><time>2026-04-19T14:48:09.898Z</time></trkpt><trkpt lat="44.28498199721417" lon="9.666099318564202"><ele>206.33333333333331</ele><time>2026-04-19T14:48:10.898Z</time></trkpt><trkpt lat="44.28509886497658" lon="9.6662928701805"><ele>208.66666666666666</ele><time>2026-04-19T14:48:11.898Z</time></trkpt><trkpt lat="44.28520849506358" lon="9.666479400912298"><ele>211.0</ele><time>2026-04-19T14:48:12.898Z</time></trkpt><trkpt lat="44.28531573337272" lon="9.666665570945838"><ele>211.0</ele><time>2026-04-19T14:48:13.898Z</time></trkpt><trkpt lat="44.28542933731469" lon="9.666855399061172"><ele>211.0</ele><time>2026-04-19T14:48:14.898Z</time></trkpt><trkpt lat="44.28554398605997" lon="9.66704293395194"><ele>211.0</ele><time>2026-04-19T14:48:15.898Z</time></trkpt><trkpt lat="44.28565564356067" lon="9.66722631024282"><ele>212.66666666666666</ele><time>2026-04-19T14:48:16.898Z</time></trkpt><trkpt lat="44.28576785296128" lon="9.667404265606715"><ele>214.33333333333331</ele><time>2026-04-19T14:48:17.898Z</time></trkpt><trkpt lat="44.285884167315174" lon="9.667581908061585"><ele>216.0</ele><time>2026-04-19T14:48:18.898Z</time></trkpt><trkpt lat="44.28601687379938" lon="9.667746604712029"><ele>215.33333333333331</ele><time>2026-04-19T14:48:19.898Z</time></trkpt><trkpt lat="44.286158694026916" lon="9.66789690455413"><ele>214.66666666666666</ele><time>2026-04-19T14:48:20.898Z</time></trkpt><trkpt lat="44.28630248202502" lon="9.668044008324836"><ele>214.0</ele><time>2026-04-19T14:48:21.898Z</time></trkpt><trkpt lat="44.28644976633213" lon="9.668181200453404"><ele>215.66666666666666</ele><time>2026-04-19T14:48:22.898Z</time></trkpt><trkpt lat="44.286585305751395" lon="9.668322425146904"><ele>217.33333333333331</ele><time>2026-04-19T14:48:23.898Z</time></trkpt><trkpt lat="44.28672217994037" lon="9.668467254803387"><ele>219.0</ele><time>2026-04-19T14:48:24.898Z</time></trkpt><trkpt lat="44.28686104027627" lon="9.668604874267794"><ele>219.0</ele><time>2026-04-19T14:48:25.898Z</time></trkpt><trkpt lat="44.28698634330734" lon="9.668743294951069"><ele>219.0</ele><time>2026-04-19T14:48:26.898Z</time></trkpt><trkpt lat="44.287124175335876" lon="9.66888936963498"><ele>219.0</ele><time>2026-04-19T14:48:27.898Z</time></trkpt><trkpt lat="44.287262017461764" lon="9.669029172803963"><ele>219.75</ele><time>2026-04-19T14:48:28.898Z</time></trkpt><trkpt lat="44.28738748127823" lon="9.669155565832863"><ele>220.5</ele><time>2026-04-19T14:48:29.898Z</time></trkpt><trkpt lat="44.28750134081897" lon="9.66927354524769"><ele>221.25</ele><time>2026-04-19T14:48:30.898Z</time></trkpt><trkpt lat="44.28760401011483" lon="9.669375531144649"><ele>222.0</ele><time>2026-04-19T14:48:31.898Z</time></trkpt><trkpt lat="44.28769351119962" lon="9.669467627172224"><ele>222.2</ele><time>2026-04-19T14:48:32.898Z</time></trkpt><trkpt lat="44.28777855444062" lon="9.6695531441729"><ele>222.39999999999998</ele><time>2026-04-19T14:48:33.898Z</time></trkpt><trkpt lat="44.28786226588848" lon="9.669638373526698"><ele>222.60000000000002</ele><time>2026-04-19T14:48:34.898Z</time></trkpt><trkpt lat="44.2879455152214" lon="9.669725656793508"><ele>222.8</ele><time>2026-04-19T14:48:35.898Z</time></trkpt><trkpt lat="44.288032292897846" lon="9.669814093147108"><ele>223.0</ele><time>2026-04-19T14:48:36.898Z</time></trkpt><trkpt lat="44.28813844142081" lon="9.66991292114091"><ele>223.5</ele><time>2026-04-19T14:48:37.898Z</time></trkpt><trkpt lat="44.28824924136833" lon="9.670022084749851"><ele>224.0</ele><time>2026-04-19T14:48:38.898Z</time></trkpt><trkpt lat="44.28836641517709" lon="9.670140257061508"><ele>224.5</ele><time>2026-04-19T14:48:39.898Z</time></trkpt><trkpt lat="44.2884821099481" lon="9.670254822787058"><ele>225.0</ele><time>2026-04-19T14:48:40.898Z</time></trkpt><trkpt lat="44.288593804517156" lon="9.670371465215972"><ele>225.0</ele><time>2026-04-19T14:48:41.898Z</time></trkpt><trkpt lat="44.28870494162771" lon="9.67048321374352"><ele>225.0</ele><time>2026-04-19T14:48:42.898Z</time></trkpt><trkpt lat="44.2888124507904" lon="9.670598268808583"><ele>225.0</ele><time>2026-04-19T14:48:43.898Z</time></trkpt><trkpt lat="44.28892240418491" lon="9.670711963834597"><ele>225.0</ele><time>2026-04-19T14:48:44.898Z</time></trkpt><trkpt lat="44.28903124499667" lon="9.670819859480073"><ele>225.75</ele><time>2026-04-19T14:48:45.898Z</time></trkpt><trkpt lat="44.28913942971558" lon="9.67092780618379"><ele>226.5</ele><time>2026-04-19T14:48:46.898Z</time></trkpt><trkpt lat="44.28924595171102" lon="9.67103963008542"><ele>227.25</ele><time>2026-04-19T14:48:47.896Z</time></trkpt><trkpt lat="44.289352247145374" lon="9.671151688340318"><ele>228.0</ele><time>2026-04-19T14:48:48.896Z</time></trkpt><trkpt lat="44.28945229217" lon="9.67126016011888"><ele>228.0</ele><time>2026-04-19T14:48:49.896Z</time></trkpt><trkpt lat="44.28956098165654" lon="9.671359374639588"><ele>228.0</ele><time>2026-04-19T14:48:50.895Z</time></trkpt><trkpt lat="44.28966551775366" lon="9.671467810757362"><ele>228.0</ele><time>2026-04-19T14:48:51.895Z</time></trkpt><trkpt lat="44.28977234158372" lon="9.671570815976944"><ele>228.0</ele><time>2026-04-19T14:48:52.895Z</time></trkpt><trkpt lat="44.28987733575033" lon="9.671671874259106"><ele>228.2</ele><time>2026-04-19T14:48:53.895Z</time></trkpt><trkpt lat="44.28996494123365" lon="9.671771277766851"><ele>228.4</ele><time>2026-04-19T14:48:54.896Z</time></trkpt><trkpt lat="44.290049138410396" lon="9.67186609667459"><ele>228.59999999999997</ele><time>2026-04-19T14:48:55.896Z</time></trkpt><trkpt lat="44.29014312844685" lon="9.671958225250304"><ele>228.79999999999998</ele><time>2026-04-19T14:48:56.895Z</time></trkpt><trkpt lat="44.290231929223395" lon="9.672047577878812"><ele>229.0</ele><time>2026-04-19T14:48:57.896Z</time></trkpt><trkpt lat="44.29032389452082" lon="9.672139975587028"><ele>229.0</ele><time>2026-04-19T14:48:58.896Z</time></trkpt><trkpt lat="44.290413532996304" lon="9.672232930895746"><ele>228.99999999999997</ele><time>2026-04-19T14:48:59.896Z</time></trkpt><trkpt lat="44.29050245629314" lon="9.672323332913447"><ele>228.99999999999997</ele><time>2026-04-19T14:49:00.895Z</time></trkpt><trkpt lat="44.29058374498167" lon="9.672410571290007"><ele>229.0</ele><time>2026-04-19T14:49:01.895Z</time></trkpt><trkpt lat="44.29066277473124" lon="9.672497095068541"><ele>229.0</ele><time>2026-04-19T14:49:02.895Z</time></trkpt><trkpt lat="44.29074261205913" lon="9.672595937141208"><ele>229.6</ele><time>2026-04-19T14:49:03.895Z</time></trkpt><trkpt lat="44.29083416966084" lon="9.672681612730234"><ele>230.2</ele><time>2026-04-19T14:49:04.895Z</time></trkpt><trkpt lat="44.290932111613905" lon="9.672764931279168"><ele>230.79999999999998</ele><time>2026-04-19T14:49:05.895Z</time></trkpt><trkpt lat="44.29102926106502" lon="9.672846338501188"><ele>231.39999999999998</ele><time>2026-04-19T14:49:06.895Z</time></trkpt><trkpt lat="44.291115052808124" lon="9.672933696378804"><ele>232.0</ele><time>2026-04-19T14:49:07.895Z</time></trkpt><trkpt lat="44.291193080904115" lon="9.67302247064578"><ele>232.0</ele><time>2026-04-19T14:49:08.895Z</time></trkpt><trkpt lat="44.29127582760394" lon="9.673107825934327"><ele>232.0</ele><time>2026-04-19T14:49:09.895Z</time></trkpt><trkpt lat="44.29136280176393" lon="9.673189956661377"><ele>232.0</ele><time>2026-04-19T14:49:10.895Z</time></trkpt><trkpt lat="44.291445411387514" lon="9.673269354082628"><ele>232.0</ele><time>2026-04-19T14:49:11.895Z</time></trkpt><trkpt lat="44.291526133011445" lon="9.67335689573038"><ele>232.0</ele><time>2026-04-19T14:49:12.895Z</time></trkpt><trkpt lat="44.29160667025365" lon="9.673434699398573"><ele>233.39999999999998</ele><time>2026-04-19T14:49:13.895Z</time></trkpt><trkpt lat="44.291685655326894" lon="9.67351532867996"><ele>234.79999999999998</ele><time>2026-04-19T14:49:14.895Z</time></trkpt><trkpt lat="44.29176665058532" lon="9.673593896170544"><ele>236.2</ele><time>2026-04-19T14:49:15.895Z</time></trkpt><trkpt lat="44.29184572196582" lon="9.673675131727167"><ele>237.6</ele><time>2026-04-19T14:49:16.895Z</time></trkpt><trkpt lat="44.29192602331774" lon="9.673755797193621"><ele>239.0</ele><time>2026-04-19T14:49:17.895Z</time></trkpt><trkpt lat="44.292007631650634" lon="9.67382919063001"><ele>239.0</ele><time>2026-04-19T14:49:18.895Z</time></trkpt><trkpt lat="44.292086410960124" lon="9.673899515055865"><ele>238.99999999999997</ele><time>2026-04-19T14:49:19.895Z</time></trkpt><trkpt lat="44.29216889178587" lon="9.673967360593686"><ele>238.99999999999997</ele><time>2026-04-19T14:49:20.895Z</time></trkpt><trkpt lat="44.29225230115956" lon="9.674036135359028"><ele>239.0</ele><time>2026-04-19T14:49:21.895Z</time></trkpt><trkpt lat="44.29234081048719" lon="9.674102851866369"><ele>239.0</ele><time>2026-04-19T14:49:22.895Z</time></trkpt><trkpt lat="44.29242509237569" lon="9.674168908759018"><ele>240.33333333333334</ele><time>2026-04-19T14:49:23.895Z</time></trkpt><trkpt lat="44.29250184881061" lon="9.674234612612848"><ele>241.66666666666669</ele><time>2026-04-19T14:49:24.895Z</time></trkpt><trkpt lat="44.29258424724368" lon="9.67429211630679"><ele>243.0</ele><time>2026-04-19T14:49:25.895Z</time></trkpt><trkpt lat="44.292663129027055" lon="9.674352953401035"><ele>244.33333333333331</ele><time>2026-04-19T14:49:26.895Z</time></trkpt><trkpt lat="44.29273352064004" lon="9.674417888068882"><ele>245.66666666666666</ele><time>2026-04-19T14:49:27.895Z</time></trkpt><trkpt lat="44.292804792015886" lon="9.674480718077623"><ele>247.0</ele><time>2026-04-19T14:49:28.895Z</time></trkpt><trkpt lat="44.29287523317265" lon="9.674537632868475"><ele>247.14285714285717</ele><time>2026-04-19T14:49:29.895Z</time></trkpt><trkpt lat="44.29294701531548" lon="9.674599412616624"><ele>247.28571428571428</ele><time>2026-04-19T14:49:30.895Z</time></trkpt><trkpt lat="44.29300262911094" lon="9.674651217237855"><ele>247.42857142857144</ele><time>2026-04-19T14:49:31.895Z</time></trkpt><trkpt lat="44.29306104043444" lon="9.674694043511295"><ele>247.57142857142858</ele><time>2026-04-19T14:49:32.895Z</time></trkpt><trkpt lat="44.29311922654712" lon="9.674735715502218"><ele>247.71428571428572</ele><time>2026-04-19T14:49:33.895Z</time></trkpt><trkpt lat="44.2931817292863" lon="9.674774925701504"><ele>247.85714285714286</ele><time>2026-04-19T14:49:34.895Z</time></trkpt><trkpt lat="44.29324616864094" lon="9.674821525706454"><ele>248.0</ele><time>2026-04-19T14:49:35.895Z</time></trkpt><trkpt lat="44.293304565446995" lon="9.674867491935963"><ele>248.0</ele><time>2026-04-19T14:49:36.895Z</time></trkpt><trkpt lat="44.29340424414939" lon="9.674950707357583"><ele>248.0</ele><time>2026-04-19T14:49:38.895Z</time></trkpt><trkpt lat="44.293476533687766" lon="9.675014082708852"><ele>248.0</ele><time>2026-04-19T14:49:40.896Z</time></trkpt><trkpt lat="44.293558073039186" lon="9.67507951649305"><ele>248.0</ele><time>2026-04-19T14:49:42.896Z</time></trkpt><trkpt lat="44.29363462933825" lon="9.675185533133511"><ele>248.0</ele><time>2026-04-19T14:49:44.896Z</time></trkpt><trkpt lat="44.29372297169297" lon="9.67529042924512"><ele>248.0</ele><time>2026-04-19T14:49:46.896Z</time></trkpt><trkpt lat="44.29380379102267" lon="9.675358827834973"><ele>248.0</ele><time>2026-04-19T14:49:48.896Z</time></trkpt><trkpt lat="44.29386914141326" lon="9.675381136508975"><ele>248.0</ele><time>2026-04-19T14:49:49.896Z</time></trkpt><trkpt lat="44.29395254165727" lon="9.675421385710074"><ele>248.0</ele><time>2026-04-19T14:49:50.896Z</time></trkpt><trkpt lat="44.29405230652339" lon="9.67547702546034"><ele>248.0</ele><time>2026-04-19T14:49:51.896Z</time></trkpt><trkpt lat="44.294161082160095" lon="9.675557852118365"><ele>249.5</ele><time>2026-04-19T14:49:52.896Z</time></trkpt><trkpt lat="44.29427377819667" lon="9.675639251668938"><ele>251.0</ele><time>2026-04-19T14:49:53.896Z</time></trkpt><trkpt lat="44.29438417453797" lon="9.67573005083409"><ele>252.5</ele><time>2026-04-19T14:49:54.896Z</time></trkpt><trkpt lat="44.29449771392552" lon="9.675827564642855"><ele>254.0</ele><time>2026-04-19T14:49:55.896Z</time></trkpt><trkpt lat="44.29461920749959" lon="9.67592616973781"><ele>254.0</ele><time>2026-04-19T14:49:56.896Z</time></trkpt><trkpt lat="44.29474344789224" lon="9.676026554317653"><ele>254.0</ele><time>2026-04-19T14:49:57.896Z</time></trkpt><trkpt lat="44.29486427014482" lon="9.67612807859678"><ele>254.0</ele><time>2026-04-19T14:49:58.896Z</time></trkpt><trkpt lat="44.29498274790224" lon="9.676225406772788"><ele>254.0</ele><time>2026-04-19T14:49:59.896Z</time></trkpt><trkpt lat="44.29509719895239" lon="9.676320175485465"><ele>254.75</ele><time>2026-04-19T14:50:00.896Z</time></trkpt><trkpt lat="44.295211349577784" lon="9.676407416174182"><ele>255.5</ele><time>2026-04-19T14:50:01.896Z</time></trkpt><trkpt lat="44.29531819641038" lon="9.676496551432406"><ele>256.25</ele><time>2026-04-19T14:50:02.896Z</time></trkpt><trkpt lat="44.29542640289267" lon="9.676585060335462"><ele>257.0</ele><time>2026-04-19T14:50:03.896Z</time></trkpt><trkpt lat="44.29553395466173" lon="9.676667257348653"><ele>256.75</ele><time>2026-04-19T14:50:04.896Z</time></trkpt><trkpt lat="44.29564290863616" lon="9.676753502779361"><ele>256.5</ele><time>2026-04-19T14:50:05.896Z</time></trkpt><trkpt lat="44.295740667410975" lon="9.676849254164408"><ele>256.25</ele><time>2026-04-19T14:50:06.896Z</time></trkpt><trkpt lat="44.29585079072213" lon="9.676930580398796"><ele>256.0</ele><time>2026-04-19T14:50:07.896Z</time></trkpt><trkpt lat="44.29595453716353" lon="9.677013482453203"><ele>256.0</ele><time>2026-04-19T14:50:08.896Z</time></trkpt><trkpt lat="44.29606339176317" lon="9.677090089200435"><ele>256.0</ele><time>2026-04-19T14:50:09.896Z</time></trkpt><trkpt lat="44.29617792152379" lon="9.677174330590587"><ele>256.0</ele><time>2026-04-19T14:50:10.896Z</time></trkpt><trkpt lat="44.29628358674602" lon="9.677259369402412"><ele>256.0</ele><time>2026-04-19T14:50:11.896Z</time></trkpt><trkpt lat="44.29639662606732" lon="9.677347887768626"><ele>256.75</ele><time>2026-04-19T14:50:12.896Z</time></trkpt><trkpt lat="44.29650718257933" lon="9.67743593509935"><ele>257.5</ele><time>2026-04-19T14:50:13.896Z</time></trkpt><trkpt lat="44.29662193824703" lon="9.677522267018139"><ele>258.25</ele><time>2026-04-19T14:50:14.896Z</time></trkpt><trkpt lat="44.29672994602357" lon="9.677610079287229"><ele>259.0</ele><time>2026-04-19T14:50:15.896Z</time></trkpt><trkpt lat="44.29683097499156" lon="9.677681598115491"><ele>259.0</ele><time>2026-04-19T14:50:16.896Z</time></trkpt><trkpt lat="44.29691412388927" lon="9.67773698786538"><ele>259.0</ele><time>2026-04-19T14:50:17.896Z</time></trkpt><trkpt lat="44.29698828215115" lon="9.67778949169981"><ele>259.0</ele><time>2026-04-19T14:50:18.896Z</time></trkpt><trkpt lat="44.29705861152734" lon="9.677832612269025"><ele>259.0</ele><time>2026-04-19T14:50:19.896Z</time></trkpt><trkpt lat="44.29713395429612" lon="9.67788529091333"><ele>259.0</ele><time>2026-04-19T14:50:20.896Z</time></trkpt><trkpt lat="44.297231038286704" lon="9.677952719161341"><ele>259.0</ele><time>2026-04-19T14:50:21.896Z</time></trkpt><trkpt lat="44.29734497954252" lon="9.678029345528877"><ele>260.0</ele><time>2026-04-19T14:50:22.896Z</time></trkpt><trkpt lat="44.29746985372442" lon="9.678109883319602"><ele>261.0</ele><time>2026-04-19T14:50:23.896Z</time></trkpt><trkpt lat="44.29758754503956" lon="9.678183731448161"><ele>262.0</ele><time>2026-04-19T14:50:24.896Z</time></trkpt><trkpt lat="44.29768054787473" lon="9.678247046770013"><ele>263.0</ele><time>2026-04-19T14:50:25.896Z</time></trkpt><trkpt lat="44.29776568393044" lon="9.67830422121608"><ele>263.0</ele><time>2026-04-19T14:50:26.896Z</time></trkpt><trkpt lat="44.2978551440862" lon="9.678362854343217"><ele>263.0</ele><time>2026-04-19T14:50:27.896Z</time></trkpt><trkpt lat="44.2979388738745" lon="9.678420520011741"><ele>263.0</ele><time>2026-04-19T14:50:28.896Z</time></trkpt><trkpt lat="44.298016948484694" lon="9.678473882732199"><ele>263.0</ele><time>2026-04-19T14:50:29.896Z</time></trkpt><trkpt lat="44.29808055181225" lon="9.678522316959947"><ele>263.0</ele><time>2026-04-19T14:50:30.896Z</time></trkpt><trkpt lat="44.298170846084815" lon="9.678610100438306"><ele>264.4</ele><time>2026-04-19T14:50:32.896Z</time></trkpt><trkpt lat="44.29822634782405" lon="9.678710757136983"><ele>265.8</ele><time>2026-04-19T14:50:33.896Z</time></trkpt><trkpt lat="44.29828117643567" lon="9.678855150844717"><ele>267.2</ele><time>2026-04-19T14:50:34.896Z</time></trkpt><trkpt lat="44.298291534827406" lon="9.678999455186789"><ele>268.6</ele><time>2026-04-19T14:50:35.896Z</time></trkpt><trkpt lat="44.29829459328931" lon="9.67914732058547"><ele>270.0</ele><time>2026-04-19T14:50:36.896Z</time></trkpt><trkpt lat="44.298300330461" lon="9.679295641475644"><ele>270.4</ele><time>2026-04-19T14:50:37.896Z</time></trkpt><trkpt lat="44.29831651840537" lon="9.679439326742976"><ele>270.8</ele><time>2026-04-19T14:50:38.896Z</time></trkpt><trkpt lat="44.298334455941905" lon="9.67955519677847"><ele>271.2</ele><time>2026-04-19T14:50:39.896Z</time></trkpt><trkpt lat="44.298317948533516" lon="9.679660715237667"><ele>271.6</ele><time>2026-04-19T14:50:40.896Z</time></trkpt><trkpt lat="44.298274464881516" lon="9.679761094364578"><ele>272.0</ele><time>2026-04-19T14:50:41.896Z</time></trkpt><trkpt lat="44.2981901478981" lon="9.679848118633922"><ele>272.0</ele><time>2026-04-19T14:50:42.896Z</time></trkpt><trkpt lat="44.298092404294295" lon="9.67990458599843"><ele>272.0</ele><time>2026-04-19T14:50:43.896Z</time></trkpt><trkpt lat="44.29799126611852" lon="9.679961130397563"><ele>272.0</ele><time>2026-04-19T14:50:44.896Z</time></trkpt><trkpt lat="44.297903706985835" lon="9.680022347867663"><ele>272.0</ele><time>2026-04-19T14:50:45.896Z</time></trkpt><trkpt lat="44.297828834680054" lon="9.680084560080159"><ele>272.0</ele><time>2026-04-19T14:50:46.896Z</time></trkpt><trkpt lat="44.29776163690455" lon="9.680110424174227"><ele>273.4</ele><time>2026-04-19T14:50:47.896Z</time></trkpt><trkpt lat="44.297680505174505" lon="9.680083445960877"><ele>274.79999999999995</ele><time>2026-04-19T14:50:48.896Z</time></trkpt><trkpt lat="44.29759463640357" lon="9.680005831439969"><ele>276.2</ele><time>2026-04-19T14:50:49.896Z</time></trkpt><trkpt lat="44.29750305436301" lon="9.679952950876247"><ele>277.59999999999997</ele><time>2026-04-19T14:50:50.896Z</time></trkpt><trkpt lat="44.29739771905958" lon="9.679925971211004"><ele>279.0</ele><time>2026-04-19T14:50:51.896Z</time></trkpt><trkpt lat="44.297286706243334" lon="9.67993241614212"><ele>281.5</ele><time>2026-04-19T14:50:52.896Z</time></trkpt><trkpt lat="44.29716818605342" lon="9.679982157090048"><ele>284.0</ele><time>2026-04-19T14:50:53.894Z</time></trkpt><trkpt lat="44.297042324365584" lon="9.680032702232628"><ele>286.5</ele><time>2026-04-19T14:50:54.893Z</time></trkpt><trkpt lat="44.29691273430146" lon="9.680072212517077"><ele>289.0</ele><time>2026-04-19T14:50:55.893Z</time></trkpt><trkpt lat="44.29680131378614" lon="9.680084817647689"><ele>289.0</ele><time>2026-04-19T14:50:56.893Z</time></trkpt><trkpt lat="44.29667852611897" lon="9.680070615726432"><ele>289.0</ele><time>2026-04-19T14:50:57.893Z</time></trkpt><trkpt lat="44.29657362657481" lon="9.680009227479855"><ele>289.0</ele><time>2026-04-19T14:50:58.893Z</time></trkpt><trkpt lat="44.296466346412295" lon="9.679944096300597"><ele>289.0</ele><time>2026-04-19T14:50:59.893Z</time></trkpt><trkpt lat="44.29636216585258" lon="9.67985190401365"><ele>290.8</ele><time>2026-04-19T14:51:00.893Z</time></trkpt><trkpt lat="44.2962507898942" lon="9.67978986254221"><ele>292.59999999999997</ele><time>2026-04-19T14:51:01.893Z</time></trkpt><trkpt lat="44.29613713219115" lon="9.679754037144027"><ele>294.4</ele><time>2026-04-19T14:51:02.893Z</time></trkpt><trkpt lat="44.296043711327535" lon="9.679733923801821"><ele>296.2</ele><time>2026-04-19T14:51:03.893Z</time></trkpt><trkpt lat="44.29595146627684" lon="9.679753187887023"><ele>298.0</ele><time>2026-04-19T14:51:04.893Z</time></trkpt><trkpt lat="44.29586384326071" lon="9.679813340210428"><ele>298.0</ele><time>2026-04-19T14:51:05.893Z</time></trkpt><trkpt lat="44.295672548553554" lon="9.680057188422763"><ele>298.0</ele><time>2026-04-19T14:51:07.893Z</time></trkpt><trkpt lat="44.29554503684676" lon="9.680129405304097"><ele>298.0</ele><time>2026-04-19T14:51:08.893Z</time></trkpt><trkpt lat="44.295406925661304" lon="9.680147195390589"><ele>296.5</ele><time>2026-04-19T14:51:09.893Z</time></trkpt><trkpt lat="44.29527716668258" lon="9.68016960903803"><ele>295.0</ele><time>2026-04-19T14:51:10.893Z</time></trkpt><trkpt lat="44.29513770605323" lon="9.680180250424733"><ele>293.5</ele><time>2026-04-19T14:51:11.893Z</time></trkpt><trkpt lat="44.294998501628434" lon="9.68021799735593"><ele>292.0</ele><time>2026-04-19T14:51:12.893Z</time></trkpt><trkpt lat="44.29486250631055" lon="9.680266282686416"><ele>301.25</ele><time>2026-04-19T14:51:13.893Z</time></trkpt><trkpt lat="44.29474008428775" lon="9.680355720805716"><ele>310.5</ele><time>2026-04-19T14:51:14.893Z</time></trkpt><trkpt lat="44.29460046169211" lon="9.680396181053878"><ele>319.75</ele><time>2026-04-19T14:51:15.893Z</time></trkpt><trkpt lat="44.29445821237364" lon="9.680409255189709"><ele>329.0</ele><time>2026-04-19T14:51:16.893Z</time></trkpt><trkpt lat="44.29431797068331" lon="9.68043793868869"><ele>329.0</ele><time>2026-04-19T14:51:17.893Z</time></trkpt><trkpt lat="44.294178733974285" lon="9.68047347730658"><ele>329.0</ele><time>2026-04-19T14:51:18.893Z</time></trkpt><trkpt lat="44.2940346951753" lon="9.680491187855413"><ele>329.0</ele><time>2026-04-19T14:51:19.893Z</time></trkpt><trkpt lat="44.29387988515773" lon="9.680473985531869"><ele>329.0</ele><time>2026-04-19T14:51:20.893Z</time></trkpt><trkpt lat="44.293741067552894" lon="9.680450810484238"><ele>329.5</ele><time>2026-04-19T14:51:21.893Z</time></trkpt><trkpt lat="44.293610158121815" lon="9.680409053545787"><ele>330.0</ele><time>2026-04-19T14:51:22.893Z</time></trkpt><trkpt lat="44.293475205464816" lon="9.680349376773265"><ele>330.5</ele><time>2026-04-19T14:51:23.893Z</time></trkpt><trkpt lat="44.293350094452514" lon="9.680298618245448"><ele>331.0</ele><time>2026-04-19T14:51:24.893Z</time></trkpt><trkpt lat="44.293235970382526" lon="9.680257294272057"><ele>329.8</ele><time>2026-04-19T14:51:25.893Z</time></trkpt><trkpt lat="44.293132040119964" lon="9.68025408755769"><ele>328.6</ele><time>2026-04-19T14:51:26.893Z</time></trkpt><trkpt lat="44.29303674725497" lon="9.68028358143773"><ele>327.4</ele><time>2026-04-19T14:51:27.893Z</time></trkpt><trkpt lat="44.29295050165212" lon="9.68035386014117"><ele>326.2</ele><time>2026-04-19T14:51:28.893Z</time></trkpt><trkpt lat="44.29287290753056" lon="9.680461609918225"><ele>325.0</ele><time>2026-04-19T14:51:29.893Z</time></trkpt><trkpt lat="44.29279733769867" lon="9.680588894157768"><ele>325.0</ele><time>2026-04-19T14:51:30.893Z</time></trkpt><trkpt lat="44.29271650783033" lon="9.680745379799003"><ele>325.0</ele><time>2026-04-19T14:51:31.893Z</time></trkpt><trkpt lat="44.29263803784135" lon="9.680862687082788"><ele>325.0</ele><time>2026-04-19T14:51:32.893Z</time></trkpt><trkpt lat="44.29256141996727" lon="9.680948645912906"><ele>325.0</ele><time>2026-04-19T14:51:33.893Z</time></trkpt><trkpt lat="44.29249241940658" lon="9.681003957551956"><ele>325.0</ele><time>2026-04-19T14:51:34.893Z</time></trkpt><trkpt lat="44.29242144294839" lon="9.681013014188371"><ele>325.0</ele><time>2026-04-19T14:51:35.893Z</time></trkpt><trkpt lat="44.292332366666585" lon="9.680975549891237"><ele>325.0</ele><time>2026-04-19T14:51:36.893Z</time></trkpt><trkpt lat="44.2922656991314" lon="9.68088571863588"><ele>325.0</ele><time>2026-04-19T14:51:37.893Z</time></trkpt><trkpt lat="44.29217128966642" lon="9.680830593350482"><ele>325.0</ele><time>2026-04-19T14:51:38.893Z</time></trkpt><trkpt lat="44.292063863575976" lon="9.680809265488362"><ele>325.0</ele><time>2026-04-19T14:51:39.893Z</time></trkpt><trkpt lat="44.2919592880703" lon="9.680815543713106"><ele>325.2</ele><time>2026-04-19T14:51:40.893Z</time></trkpt><trkpt lat="44.29184798071508" lon="9.680856088409866"><ele>325.4</ele><time>2026-04-19T14:51:41.893Z</time></trkpt><trkpt lat="44.291744096720585" lon="9.680904602144102"><ele>325.6</ele><time>2026-04-19T14:51:42.893Z</time></trkpt><trkpt lat="44.291635134453045" lon="9.68095812059484"><ele>325.8</ele><time>2026-04-19T14:51:43.893Z</time></trkpt><trkpt lat="44.291535964092255" lon="9.681008254978174"><ele>326.0</ele><time>2026-04-19T14:51:44.893Z</time></trkpt><trkpt lat="44.291450848250825" lon="9.681026839445575"><ele>327.6</ele><time>2026-04-19T14:51:45.893Z</time></trkpt><trkpt lat="44.29136331309989" lon="9.68099471736696"><ele>329.20000000000005</ele><time>2026-04-19T14:51:46.893Z</time></trkpt><trkpt lat="44.29129225695411" lon="9.680914706181374"><ele>330.79999999999995</ele><time>2026-04-19T14:51:47.893Z</time></trkpt><trkpt lat="44.29124404356488" lon="9.680807576126448"><ele>332.4</ele><time>2026-04-19T14:51:48.893Z</time></trkpt><trkpt lat="44.29118147794604" lon="9.680679040073661"><ele>334.0</ele><time>2026-04-19T14:51:49.893Z</time></trkpt><trkpt lat="44.291125328256086" lon="9.680601394065429"><ele>334.0</ele><time>2026-04-19T14:51:50.893Z</time></trkpt><trkpt lat="44.29103943814526" lon="9.680577186840729"><ele>334.0</ele><time>2026-04-19T14:51:51.893Z</time></trkpt><trkpt lat="44.29095434084671" lon="9.680596747327495"><ele>334.0</ele><time>2026-04-19T14:51:52.893Z</time></trkpt><trkpt lat="44.290864564713594" lon="9.680646762632966"><ele>334.0</ele><time>2026-04-19T14:51:53.893Z</time></trkpt><trkpt lat="44.29074963195605" lon="9.680667436401919"><ele>334.0</ele><time>2026-04-19T14:51:54.893Z</time></trkpt><trkpt lat="44.29065456530813" lon="9.680626172093557"><ele>337.2</ele><time>2026-04-19T14:51:55.893Z</time></trkpt><trkpt lat="44.29058051717841" lon="9.680527630424605"><ele>340.4</ele><time>2026-04-19T14:51:56.893Z</time></trkpt><trkpt lat="44.29051848736101" lon="9.68041822328812"><ele>343.6</ele><time>2026-04-19T14:51:57.893Z</time></trkpt><trkpt lat="44.290455798069765" lon="9.680345880708039"><ele>346.8</ele><time>2026-04-19T14:51:58.893Z</time></trkpt><trkpt lat="44.290361021887776" lon="9.680301619435008"><ele>350.0</ele><time>2026-04-19T14:51:59.893Z</time></trkpt><trkpt lat="44.29022226539429" lon="9.680282890119388"><ele>346.8</ele><time>2026-04-19T14:52:00.893Z</time></trkpt><trkpt lat="44.29008895701945" lon="9.680261591478601"><ele>343.6</ele><time>2026-04-19T14:52:01.893Z</time></trkpt><trkpt lat="44.28996559419035" lon="9.680232420272741"><ele>340.4</ele><time>2026-04-19T14:52:02.893Z</time></trkpt><trkpt lat="44.289870491883484" lon="9.680215759112462"><ele>337.2</ele><time>2026-04-19T14:52:03.893Z</time></trkpt><trkpt lat="44.289788209073784" lon="9.680216390276975"><ele>334.0</ele><time>2026-04-19T14:52:04.893Z</time></trkpt><trkpt lat="44.289728094272974" lon="9.680245347759605"><ele>336.75</ele><time>2026-04-19T14:52:05.893Z</time></trkpt><trkpt lat="44.28967284333857" lon="9.680304296946034"><ele>339.5</ele><time>2026-04-19T14:52:06.893Z</time></trkpt><trkpt lat="44.28962722907968" lon="9.680442493499406"><ele>342.25</ele><time>2026-04-19T14:52:07.894Z</time></trkpt><trkpt lat="44.28956950011642" lon="9.680610741112387"><ele>345.0</ele><time>2026-04-19T14:52:08.894Z</time></trkpt><trkpt lat="44.289520113732664" lon="9.68079090356481"><ele>345.0</ele><time>2026-04-19T14:52:09.894Z</time></trkpt><trkpt lat="44.2894619511391" lon="9.680963145481819"><ele>345.0</ele><time>2026-04-19T14:52:10.894Z</time></trkpt><trkpt lat="44.28939535278699" lon="9.681112139814473"><ele>345.0</ele><time>2026-04-19T14:52:11.894Z</time></trkpt><trkpt lat="44.28934732139066" lon="9.68124302425703"><ele>345.0</ele><time>2026-04-19T14:52:12.894Z</time></trkpt><trkpt lat="44.28930737979021" lon="9.681355313684932"><ele>346.0</ele><time>2026-04-19T14:52:13.894Z</time></trkpt><trkpt lat="44.289241609884186" lon="9.681411906122916"><ele>347.0</ele><time>2026-04-19T14:52:14.894Z</time></trkpt><trkpt lat="44.28917035830458" lon="9.681449614775296"><ele>348.0</ele><time>2026-04-19T14:52:15.894Z</time></trkpt><trkpt lat="44.289084995943774" lon="9.681453127032462"><ele>349.0</ele><time>2026-04-19T14:52:16.894Z</time></trkpt><trkpt lat="44.28898645742139" lon="9.681434231098924"><ele>350.0</ele><time>2026-04-19T14:52:17.894Z</time></trkpt><trkpt lat="44.28889559164829" lon="9.681422078274082"><ele>351.0</ele><time>2026-04-19T14:52:18.894Z</time></trkpt><trkpt lat="44.288828599993955" lon="9.681436996061079"><ele>351.0</ele><time>2026-04-19T14:52:19.894Z</time></trkpt><trkpt lat="44.288798406443505" lon="9.681603196504993"><ele>351.0</ele><time>2026-04-19T14:52:21.894Z</time></trkpt><trkpt lat="44.288809432026646" lon="9.681735623654044"><ele>351.0</ele><time>2026-04-19T14:52:22.894Z</time></trkpt><trkpt lat="44.28885933040661" lon="9.681837084538662"><ele>351.0</ele><time>2026-04-19T14:52:23.894Z</time></trkpt><trkpt lat="44.28894350273283" lon="9.68187595933666"><ele>351.0</ele><time>2026-04-19T14:52:24.894Z</time></trkpt><trkpt lat="44.28902197904809" lon="9.681861120738851"><ele>354.5</ele><time>2026-04-19T14:52:25.894Z</time></trkpt><trkpt lat="44.2891410176931" lon="9.68181649179433"><ele>358.0</ele><time>2026-04-19T14:52:26.894Z</time></trkpt><trkpt lat="44.28927070883985" lon="9.681768542771696"><ele>361.5</ele><time>2026-04-19T14:52:27.894Z</time></trkpt><trkpt lat="44.28939460078394" lon="9.681730094157643"><ele>365.0</ele><time>2026-04-19T14:52:28.894Z</time></trkpt><trkpt lat="44.28951515515651" lon="9.681718432841443"><ele>365.0</ele><time>2026-04-19T14:52:29.894Z</time></trkpt><trkpt lat="44.28963020134056" lon="9.681710884063731"><ele>365.0</ele><time>2026-04-19T14:52:30.894Z</time></trkpt><trkpt lat="44.289723695231594" lon="9.68170960974412"><ele>365.0</ele><time>2026-04-19T14:52:31.894Z</time></trkpt><trkpt lat="44.28979201347631" lon="9.681736989046462"><ele>365.0</ele><time>2026-04-19T14:52:32.894Z</time></trkpt><trkpt lat="44.289842658132095" lon="9.681791957614067"><ele>365.0</ele><time>2026-04-19T14:52:33.894Z</time></trkpt><trkpt lat="44.2898800152794" lon="9.681922669116698"><ele>365.0</ele><time>2026-04-19T14:52:34.894Z</time></trkpt><trkpt lat="44.28986362544728" lon="9.682048333546797"><ele>367.8</ele><time>2026-04-19T14:52:35.894Z</time></trkpt><trkpt lat="44.289811387615856" lon="9.682149785174877"><ele>370.6</ele><time>2026-04-19T14:52:36.894Z</time></trkpt><trkpt lat="44.28971623394983" lon="9.682194983152101"><ele>373.4</ele><time>2026-04-19T14:52:37.894Z</time></trkpt><trkpt lat="44.289609037346324" lon="9.682207133773426"><ele>376.2</ele><time>2026-04-19T14:52:38.894Z</time></trkpt><trkpt lat="44.28950048585492" lon="9.682190814146578"><ele>379.0</ele><time>2026-04-19T14:52:39.894Z</time></trkpt><trkpt lat="44.289394133542814" lon="9.682147264143614"><ele>380.2</ele><time>2026-04-19T14:52:40.894Z</time></trkpt><trkpt lat="44.28930691223116" lon="9.68211836005149"><ele>381.4</ele><time>2026-04-19T14:52:41.894Z</time></trkpt><trkpt lat="44.28921629259881" lon="9.682117852856184"><ele>382.6</ele><time>2026-04-19T14:52:42.894Z</time></trkpt><trkpt lat="44.289119281401845" lon="9.682155543126685"><ele>383.8</ele><time>2026-04-19T14:52:43.894Z</time></trkpt><trkpt lat="44.289029068992036" lon="9.682243416397807"><ele>385.0</ele><time>2026-04-19T14:52:44.894Z</time></trkpt><trkpt lat="44.28895120072779" lon="9.682337009094452"><ele>386.0</ele><time>2026-04-19T14:52:45.894Z</time></trkpt><trkpt lat="44.288876188307086" lon="9.682435303393389"><ele>387.0</ele><time>2026-04-19T14:52:46.894Z</time></trkpt><trkpt lat="44.28883349363321" lon="9.682548959459844"><ele>388.0</ele><time>2026-04-19T14:52:47.894Z</time></trkpt><trkpt lat="44.288807022649095" lon="9.682685546771316"><ele>389.0</ele><time>2026-04-19T14:52:48.894Z</time></trkpt><trkpt lat="44.288782934886235" lon="9.682841935136903"><ele>390.0</ele><time>2026-04-19T14:52:49.894Z</time></trkpt><trkpt lat="44.28876762446735" lon="9.683009621009653"><ele>390.0</ele><time>2026-04-19T14:52:50.894Z</time></trkpt><trkpt lat="44.288751090792516" lon="9.683177686367864"><ele>390.0</ele><time>2026-04-19T14:52:51.894Z</time></trkpt><trkpt lat="44.28873849083138" lon="9.683362736598951"><ele>390.0</ele><time>2026-04-19T14:52:52.894Z</time></trkpt><trkpt lat="44.28872058446006" lon="9.683536867791412"><ele>390.0</ele><time>2026-04-19T14:52:53.894Z</time></trkpt><trkpt lat="44.28871924033615" lon="9.6836716489972"><ele>391.1666666666667</ele><time>2026-04-19T14:52:54.894Z</time></trkpt><trkpt lat="44.288705993954416" lon="9.68377632923014"><ele>392.33333333333337</ele><time>2026-04-19T14:52:55.894Z</time></trkpt><trkpt lat="44.28868550441812" lon="9.683860459272339"><ele>393.5</ele><time>2026-04-19T14:52:56.894Z</time></trkpt><trkpt lat="44.28855489965301" lon="9.683894143591477"><ele>394.6666666666667</ele><time>2026-04-19T14:52:58.894Z</time></trkpt><trkpt lat="44.2884801114216" lon="9.683843650813662"><ele>395.83333333333337</ele><time>2026-04-19T14:52:59.891Z</time></trkpt><trkpt lat="44.28841848388535" lon="9.68378303252686"><ele>397.0</ele><time>2026-04-19T14:53:00.891Z</time></trkpt><trkpt lat="44.28835268544802" lon="9.683755818871244"><ele>397.0</ele><time>2026-04-19T14:53:01.891Z</time></trkpt><trkpt lat="44.28825117202859" lon="9.683816355815665"><ele>397.0</ele><time>2026-04-19T14:53:03.891Z</time></trkpt><trkpt lat="44.28822153104396" lon="9.683974098363699"><ele>397.0</ele><time>2026-04-19T14:53:05.892Z</time></trkpt><trkpt lat="44.28823324930674" lon="9.684093094498778"><ele>397.0</ele><time>2026-04-19T14:53:06.891Z</time></trkpt><trkpt lat="44.288280957777886" lon="9.684157885268952"><ele>397.0</ele><time>2026-04-19T14:53:07.891Z</time></trkpt><trkpt lat="44.28840700551269" lon="9.684157070892267"><ele>397.0</ele><time>2026-04-19T14:53:09.891Z</time></trkpt><trkpt lat="44.2885227756703" lon="9.68413754303568"><ele>397.0</ele><time>2026-04-19T14:53:10.891Z</time></trkpt><trkpt lat="44.28862901349867" lon="9.684152825450933"><ele>397.0</ele><time>2026-04-19T14:53:11.891Z</time></trkpt><trkpt lat="44.28872841918034" lon="9.684217898189516"><ele>397.0</ele><time>2026-04-19T14:53:12.891Z</time></trkpt><trkpt lat="44.28882184111508" lon="9.684289441000525"><ele>397.0</ele><time>2026-04-19T14:53:13.891Z</time></trkpt><trkpt lat="44.28890131957476" lon="9.684349739620032"><ele>403.0</ele><time>2026-04-19T14:53:14.891Z</time></trkpt><trkpt lat="44.28896618819185" lon="9.684387555778363"><ele>409.0</ele><time>2026-04-19T14:53:15.891Z</time></trkpt><trkpt lat="44.28905919122671" lon="9.684306993123773"><ele>415.00000000000006</ele><time>2026-04-19T14:53:17.891Z</time></trkpt><trkpt lat="44.289100661034055" lon="9.684140356157332"><ele>421.0</ele><time>2026-04-19T14:53:19.891Z</time></trkpt><trkpt lat="44.28910769243932" lon="9.683989445502911"><ele>427.0</ele><time>2026-04-19T14:53:20.891Z</time></trkpt><trkpt lat="44.2890765618769" lon="9.683815587178021"><ele>427.0</ele><time>2026-04-19T14:53:21.891Z</time></trkpt><trkpt lat="44.28906730058977" lon="9.683665304907649"><ele>427.00000000000006</ele><time>2026-04-19T14:53:22.891Z</time></trkpt><trkpt lat="44.28913935803219" lon="9.68353939362904"><ele>427.00000000000006</ele><time>2026-04-19T14:53:23.891Z</time></trkpt><trkpt lat="44.28921645522791" lon="9.683443674127677"><ele>427.0</ele><time>2026-04-19T14:53:24.891Z</time></trkpt><trkpt lat="44.28927453680506" lon="9.683383825946493"><ele>427.0</ele><time>2026-04-19T14:53:25.891Z</time></trkpt><trkpt lat="44.28934670102538" lon="9.683358083036996"><ele>427.0</ele><time>2026-04-19T14:53:26.891Z</time></trkpt><trkpt lat="44.28945932666602" lon="9.683425159016252"><ele>427.00000000000006</ele><time>2026-04-19T14:53:28.891Z</time></trkpt><trkpt lat="44.289480198708134" lon="9.68351739473111"><ele>427.00000000000006</ele><time>2026-04-19T14:53:29.891Z</time></trkpt><trkpt lat="44.28940835493316" lon="9.683668397756689"><ele>427.0</ele><time>2026-04-19T14:53:31.892Z</time></trkpt><trkpt lat="44.28934328656428" lon="9.68375618999454"><ele>427.0</ele><time>2026-04-19T14:53:32.892Z</time></trkpt><trkpt lat="44.28931803614208" lon="9.683843192953814"><ele>427.0</ele><time>2026-04-19T14:53:33.892Z</time></trkpt><trkpt lat="44.2893223436919" lon="9.68397232717"><ele>427.00000000000006</ele><time>2026-04-19T14:53:34.892Z</time></trkpt><trkpt lat="44.289351070097254" lon="9.684115034570844"><ele>427.00000000000006</ele><time>2026-04-19T14:53:35.892Z</time></trkpt><trkpt lat="44.2893485774108" lon="9.684267736248552"><ele>427.0</ele><time>2026-04-19T14:53:36.892Z</time></trkpt><trkpt lat="44.28934519754145" lon="9.68440553363099"><ele>427.0</ele><time>2026-04-19T14:53:37.892Z</time></trkpt><trkpt lat="44.28931129447839" lon="9.684553890008905"><ele>431.0</ele><time>2026-04-19T14:53:38.892Z</time></trkpt><trkpt lat="44.289261400974844" lon="9.684688206947406"><ele>435.00000000000006</ele><time>2026-04-19T14:53:39.892Z</time></trkpt><trkpt lat="44.289186202639605" lon="9.684797221072383"><ele>439.00000000000006</ele><time>2026-04-19T14:53:40.892Z</time></trkpt><trkpt lat="44.28909676207768" lon="9.6848820796359"><ele>443.0</ele><time>2026-04-19T14:53:41.892Z</time></trkpt><trkpt lat="44.289004721294674" lon="9.684927279757938"><ele>447.0</ele><time>2026-04-19T14:53:42.892Z</time></trkpt><trkpt lat="44.288903285049194" lon="9.684958449218342"><ele>447.5</ele><time>2026-04-19T14:53:43.892Z</time></trkpt><trkpt lat="44.288834000540824" lon="9.684984029971725"><ele>448.0</ele><time>2026-04-19T14:53:44.892Z</time></trkpt><trkpt lat="44.288785330600604" lon="9.685098005595"><ele>448.5</ele><time>2026-04-19T14:53:46.892Z</time></trkpt><trkpt lat="44.28880268655783" lon="9.685190064057158"><ele>449.0</ele><time>2026-04-19T14:53:47.892Z</time></trkpt><trkpt lat="44.288845245475926" lon="9.68527436940206"><ele>449.5</ele><time>2026-04-19T14:53:48.892Z</time></trkpt><trkpt lat="44.28891058560889" lon="9.685304013389597"><ele>450.0</ele><time>2026-04-19T14:53:49.892Z</time></trkpt><trkpt lat="44.28898131892918" lon="9.685270851710762"><ele>449.25</ele><time>2026-04-19T14:53:50.892Z</time></trkpt><trkpt lat="44.28906210640335" lon="9.685211048545655"><ele>448.5</ele><time>2026-04-19T14:53:51.892Z</time></trkpt><trkpt lat="44.28917716618999" lon="9.685130975443165"><ele>447.75</ele><time>2026-04-19T14:53:52.892Z</time></trkpt><trkpt lat="44.289291442254154" lon="9.685052255423125"><ele>447.0</ele><time>2026-04-19T14:53:53.892Z</time></trkpt><trkpt lat="44.28939849840151" lon="9.684972246516077"><ele>447.0</ele><time>2026-04-19T14:53:54.892Z</time></trkpt><trkpt lat="44.28948902478961" lon="9.68486383422354"><ele>447.00000000000006</ele><time>2026-04-19T14:53:55.892Z</time></trkpt><trkpt lat="44.28954995305872" lon="9.684727343215949"><ele>447.00000000000006</ele><time>2026-04-19T14:53:56.892Z</time></trkpt><trkpt lat="44.28961236772928" lon="9.684606114720754"><ele>447.0</ele><time>2026-04-19T14:53:57.892Z</time></trkpt><trkpt lat="44.28967533326932" lon="9.684538758109586"><ele>447.0</ele><time>2026-04-19T14:53:58.892Z</time></trkpt><trkpt lat="44.28979619953988" lon="9.684546252430513"><ele>448.6</ele><time>2026-04-19T14:54:00.892Z</time></trkpt><trkpt lat="44.289835239541006" lon="9.684629316040537"><ele>450.20000000000005</ele><time>2026-04-19T14:54:01.892Z</time></trkpt><trkpt lat="44.28985526042812" lon="9.684759825478405"><ele>451.8</ele><time>2026-04-19T14:54:02.892Z</time></trkpt><trkpt lat="44.28987487553889" lon="9.684910678691999"><ele>453.4</ele><time>2026-04-19T14:54:03.892Z</time></trkpt><trkpt lat="44.289899252534276" lon="9.685071463861506"><ele>455.0</ele><time>2026-04-19T14:54:04.892Z</time></trkpt><trkpt lat="44.28990772955884" lon="9.685208169340086"><ele>457.0</ele><time>2026-04-19T14:54:05.892Z</time></trkpt><trkpt lat="44.289891520629716" lon="9.685333804956864"><ele>459.0</ele><time>2026-04-19T14:54:06.892Z</time></trkpt><trkpt lat="44.28984522503781" lon="9.68544568076455"><ele>461.0</ele><time>2026-04-19T14:54:07.892Z</time></trkpt><trkpt lat="44.28980426007687" lon="9.685555170310465"><ele>463.0</ele><time>2026-04-19T14:54:08.892Z</time></trkpt><trkpt lat="44.28977708402262" lon="9.685679469704882"><ele>465.0</ele><time>2026-04-19T14:54:09.892Z</time></trkpt><trkpt lat="44.28977608591641" lon="9.685845281856922"><ele>465.0</ele><time>2026-04-19T14:54:10.892Z</time></trkpt><trkpt lat="44.2897899747641" lon="9.686027574730913"><ele>465.0</ele><time>2026-04-19T14:54:11.892Z</time></trkpt><trkpt lat="44.289808324047144" lon="9.686213210566287"><ele>465.0</ele><time>2026-04-19T14:54:12.892Z</time></trkpt><trkpt lat="44.289824836062024" lon="9.686403203444726"><ele>465.0</ele><time>2026-04-19T14:54:13.892Z</time></trkpt><trkpt lat="44.289849268623335" lon="9.686592460174586"><ele>465.8333333333333</ele><time>2026-04-19T14:54:14.892Z</time></trkpt><trkpt lat="44.28986615984352" lon="9.686762840478096"><ele>466.66666666666663</ele><time>2026-04-19T14:54:15.892Z</time></trkpt><trkpt lat="44.28989384580491" lon="9.686902350557444"><ele>467.5</ele><time>2026-04-19T14:54:16.892Z</time></trkpt><trkpt lat="44.289926193472745" lon="9.687006760779724"><ele>468.3333333333333</ele><time>2026-04-19T14:54:17.892Z</time></trkpt><trkpt lat="44.28995364710376" lon="9.687090836868203"><ele>469.16666666666663</ele><time>2026-04-19T14:54:18.892Z</time></trkpt><trkpt lat="44.289959457801814" lon="9.687180411210988"><ele>470.0</ele><time>2026-04-19T14:54:19.892Z</time></trkpt><trkpt lat="44.28993537152179" lon="9.687275640027917"><ele>470.8</ele><time>2026-04-19T14:54:20.892Z</time></trkpt><trkpt lat="44.289878707517985" lon="9.687364200933795"><ele>471.6</ele><time>2026-04-19T14:54:21.892Z</time></trkpt><trkpt lat="44.28982216518744" lon="9.687452735370105"><ele>472.4</ele><time>2026-04-19T14:54:22.892Z</time></trkpt><trkpt lat="44.289800205045346" lon="9.687584776174724"><ele>473.2</ele><time>2026-04-19T14:54:23.892Z</time></trkpt><trkpt lat="44.289806712207145" lon="9.687765500111395"><ele>474.0</ele><time>2026-04-19T14:54:24.892Z</time></trkpt><trkpt lat="44.28981219241779" lon="9.68794854553711"><ele>476.5</ele><time>2026-04-19T14:54:25.892Z</time></trkpt><trkpt lat="44.289817358439834" lon="9.688134261952825"><ele>479.0</ele><time>2026-04-19T14:54:26.892Z</time></trkpt><trkpt lat="44.289803766588726" lon="9.688324077847659"><ele>481.5</ele><time>2026-04-19T14:54:27.892Z</time></trkpt><trkpt lat="44.289812829197345" lon="9.688515183690312"><ele>484.0</ele><time>2026-04-19T14:54:28.892Z</time></trkpt><trkpt lat="44.289848070767476" lon="9.688718567370506"><ele>486.5</ele><time>2026-04-19T14:54:29.892Z</time></trkpt><trkpt lat="44.289880272353706" lon="9.68892598066843"><ele>489.0</ele><time>2026-04-19T14:54:30.892Z</time></trkpt><trkpt lat="44.2899119159198" lon="9.689132774551384"><ele>491.5</ele><time>2026-04-19T14:54:31.892Z</time></trkpt><trkpt lat="44.28992957350647" lon="9.68933387076821"><ele>494.0</ele><time>2026-04-19T14:54:32.892Z</time></trkpt><trkpt lat="44.28993796997596" lon="9.689499428329286"><ele>497.0</ele><time>2026-04-19T14:54:33.892Z</time></trkpt><trkpt lat="44.28991441024532" lon="9.689664125086873"><ele>500.0</ele><time>2026-04-19T14:54:34.892Z</time></trkpt><trkpt lat="44.289862715015694" lon="9.689807760794263"><ele>503.0</ele><time>2026-04-19T14:54:35.892Z</time></trkpt><trkpt lat="44.28979322216097" lon="9.689947833466563"><ele>506.0</ele><time>2026-04-19T14:54:36.892Z</time></trkpt><trkpt lat="44.28974707728462" lon="9.690065726540208"><ele>503.8</ele><time>2026-04-19T14:54:37.892Z</time></trkpt><trkpt lat="44.289736303506224" lon="9.690186961671806"><ele>501.6</ele><time>2026-04-19T14:54:38.892Z</time></trkpt><trkpt lat="44.28975019671659" lon="9.690320653134476"><ele>499.4</ele><time>2026-04-19T14:54:39.892Z</time></trkpt><trkpt lat="44.28978504081059" lon="9.690468994924297"><ele>497.2</ele><time>2026-04-19T14:54:40.892Z</time></trkpt><trkpt lat="44.289841340366365" lon="9.690595759148444"><ele>495.0</ele><time>2026-04-19T14:54:41.892Z</time></trkpt><trkpt lat="44.289905917554016" lon="9.690699574767091"><ele>495.0</ele><time>2026-04-19T14:54:42.892Z</time></trkpt><trkpt lat="44.28998370538553" lon="9.690781185247362"><ele>495.0</ele><time>2026-04-19T14:54:43.892Z</time></trkpt><trkpt lat="44.290084168976705" lon="9.690844725927375"><ele>495.0</ele><time>2026-04-19T14:54:44.892Z</time></trkpt><trkpt lat="44.2902024566933" lon="9.690893072574193"><ele>495.0</ele><time>2026-04-19T14:54:45.892Z</time></trkpt><trkpt lat="44.290293497189396" lon="9.690940822038295"><ele>495.0</ele><time>2026-04-19T14:54:46.892Z</time></trkpt><trkpt lat="44.290375947850286" lon="9.690998406374426"><ele>495.0</ele><time>2026-04-19T14:54:47.892Z</time></trkpt><trkpt lat="44.29042926383199" lon="9.691086612895973"><ele>495.0</ele><time>2026-04-19T14:54:48.892Z</time></trkpt><trkpt lat="44.29044580260091" lon="9.69121086686201"><ele>495.0</ele><time>2026-04-19T14:54:49.892Z</time></trkpt><trkpt lat="44.29046070475391" lon="9.691348404511675"><ele>495.0</ele><time>2026-04-19T14:54:50.892Z</time></trkpt><trkpt lat="44.29048191561791" lon="9.69144835921476"><ele>495.0</ele><time>2026-04-19T14:54:51.892Z</time></trkpt><trkpt lat="44.290533454809776" lon="9.691555428411704"><ele>495.0</ele><time>2026-04-19T14:54:52.892Z</time></trkpt><trkpt lat="44.29060638888802" lon="9.691643910687"><ele>498.4</ele><time>2026-04-19T14:54:53.892Z</time></trkpt><trkpt lat="44.29069351517481" lon="9.691700911151766"><ele>501.8</ele><time>2026-04-19T14:54:54.892Z</time></trkpt><trkpt lat="44.290793288940236" lon="9.691733151735656"><ele>505.20000000000005</ele><time>2026-04-19T14:54:55.892Z</time></trkpt><trkpt lat="44.290904982656166" lon="9.691733849367724"><ele>508.6</ele><time>2026-04-19T14:54:56.892Z</time></trkpt><trkpt lat="44.2910190198472" lon="9.69172322583036"><ele>512.0</ele><time>2026-04-19T14:54:57.892Z</time></trkpt><trkpt lat="44.29112284112956" lon="9.691733058797324"><ele>512.0</ele><time>2026-04-19T14:54:58.892Z</time></trkpt><trkpt lat="44.29119790695017" lon="9.691757077157835"><ele>512.0</ele><time>2026-04-19T14:54:59.892Z</time></trkpt><trkpt lat="44.29125389455162" lon="9.691842621411741"><ele>512.0</ele><time>2026-04-19T14:55:00.892Z</time></trkpt><trkpt lat="44.29129848076086" lon="9.691971944036199"><ele>512.0</ele><time>2026-04-19T14:55:01.892Z</time></trkpt><trkpt lat="44.2913423190589" lon="9.692083541051206"><ele>512.0</ele><time>2026-04-19T14:55:02.892Z</time></trkpt><trkpt lat="44.2914293450878" lon="9.692146256531217"><ele>513.25</ele><time>2026-04-19T14:55:03.892Z</time></trkpt><trkpt lat="44.29153776132486" lon="9.6921952180209"><ele>514.5</ele><time>2026-04-19T14:55:04.892Z</time></trkpt><trkpt lat="44.29164054339898" lon="9.692278441448114"><ele>515.75</ele><time>2026-04-19T14:55:05.889Z</time></trkpt><trkpt lat="44.29173833191061" lon="9.692396537038407"><ele>517.0</ele><time>2026-04-19T14:55:06.89Z</time></trkpt><trkpt lat="44.29182159039387" lon="9.692538924147545"><ele>517.0</ele><time>2026-04-19T14:55:07.89Z</time></trkpt><trkpt lat="44.29192779755384" lon="9.692631528769303"><ele>517.0</ele><time>2026-04-19T14:55:08.889Z</time></trkpt><trkpt lat="44.29206260846635" lon="9.69270069763991"><ele>517.0</ele><time>2026-04-19T14:55:09.89Z</time></trkpt><trkpt lat="44.292168915701836" lon="9.692756964993176"><ele>517.0</ele><time>2026-04-19T14:55:10.89Z</time></trkpt><trkpt lat="44.29226783083268" lon="9.692798083532342"><ele>520.6666666666667</ele><time>2026-04-19T14:55:11.89Z</time></trkpt><trkpt lat="44.292328629730996" lon="9.692841119454211"><ele>524.3333333333334</ele><time>2026-04-19T14:55:12.889Z</time></trkpt><trkpt lat="44.292385832911975" lon="9.692916595723469"><ele>528.0</ele><time>2026-04-19T14:55:13.889Z</time></trkpt><trkpt lat="44.29239921061214" lon="9.693032510176115"><ele>531.6666666666666</ele><time>2026-04-19T14:55:14.89Z</time></trkpt><trkpt lat="44.292396490626885" lon="9.693158366753755"><ele>535.3333333333333</ele><time>2026-04-19T14:55:15.889Z</time></trkpt><trkpt lat="44.29236117290949" lon="9.693288485244745"><ele>539.0</ele><time>2026-04-19T14:55:16.889Z</time></trkpt><trkpt lat="44.29234027037292" lon="9.69342550662904"><ele>539.0</ele><time>2026-04-19T14:55:17.889Z</time></trkpt><trkpt lat="44.29232948163775" lon="9.693566989519804"><ele>539.0</ele><time>2026-04-19T14:55:18.889Z</time></trkpt><trkpt lat="44.29233254329504" lon="9.693687639441995"><ele>539.0</ele><time>2026-04-19T14:55:19.889Z</time></trkpt><trkpt lat="44.29236223486718" lon="9.693805754570278"><ele>539.0</ele><time>2026-04-19T14:55:20.889Z</time></trkpt><trkpt lat="44.29241692052541" lon="9.69391623669759"><ele>539.0</ele><time>2026-04-19T14:55:21.889Z</time></trkpt><trkpt lat="44.292490799556695" lon="9.694012129834139"><ele>537.25</ele><time>2026-04-19T14:55:22.889Z</time></trkpt><trkpt lat="44.29257180859318" lon="9.694125505730161"><ele>535.5</ele><time>2026-04-19T14:55:23.889Z</time></trkpt><trkpt lat="44.29263188757071" lon="9.69425190526642"><ele>533.75</ele><time>2026-04-19T14:55:24.889Z</time></trkpt><trkpt lat="44.29265600864639" lon="9.69440553525478"><ele>532.0</ele><time>2026-04-19T14:55:25.889Z</time></trkpt><trkpt lat="44.292647822081086" lon="9.694564650261057"><ele>532.0</ele><time>2026-04-19T14:55:26.889Z</time></trkpt><trkpt lat="44.2926231130637" lon="9.694707576626968"><ele>532.0</ele><time>2026-04-19T14:55:27.889Z</time></trkpt><trkpt lat="44.29261150268203" lon="9.69485296179083"><ele>532.0</ele><time>2026-04-19T14:55:28.889Z</time></trkpt><trkpt lat="44.292611384701964" lon="9.694990025624726"><ele>532.0</ele><time>2026-04-19T14:55:29.889Z</time></trkpt><trkpt lat="44.29263792246369" lon="9.695112726574338"><ele>532.0</ele><time>2026-04-19T14:55:30.889Z</time></trkpt><trkpt lat="44.292690105918055" lon="9.695230057743846"><ele>533.6</ele><time>2026-04-19T14:55:31.889Z</time></trkpt><trkpt lat="44.29274870692588" lon="9.695335495102055"><ele>535.2</ele><time>2026-04-19T14:55:32.889Z</time></trkpt><trkpt lat="44.292787212817686" lon="9.695457153802167"><ele>536.8</ele><time>2026-04-19T14:55:33.889Z</time></trkpt><trkpt lat="44.29277563148168" lon="9.695593723392715"><ele>538.4</ele><time>2026-04-19T14:55:34.889Z</time></trkpt><trkpt lat="44.29272734208811" lon="9.695752314453806"><ele>540.0</ele><time>2026-04-19T14:55:35.889Z</time></trkpt><trkpt lat="44.29271482060765" lon="9.695923377346304"><ele>544.0</ele><time>2026-04-19T14:55:36.889Z</time></trkpt><trkpt lat="44.292719411225576" lon="9.696113829541076"><ele>548.0</ele><time>2026-04-19T14:55:37.889Z</time></trkpt><trkpt lat="44.29273886189189" lon="9.696283523489237"><ele>552.0</ele><time>2026-04-19T14:55:38.889Z</time></trkpt><trkpt lat="44.292751641523324" lon="9.696398488772468"><ele>556.0</ele><time>2026-04-19T14:55:39.889Z</time></trkpt><trkpt lat="44.29266244032982" lon="9.696517428233017"><ele>556.0</ele><time>2026-04-19T14:55:41.889Z</time></trkpt><trkpt lat="44.29258063250315" lon="9.696509909986798"><ele>556.0</ele><time>2026-04-19T14:55:42.889Z</time></trkpt><trkpt lat="44.29249221891741" lon="9.69647895884818"><ele>556.0</ele><time>2026-04-19T14:55:43.889Z</time></trkpt><trkpt lat="44.29240655258236" lon="9.696476805673333"><ele>556.0</ele><time>2026-04-19T14:55:44.889Z</time></trkpt><trkpt lat="44.29232549768904" lon="9.696516871150592"><ele>556.0</ele><time>2026-04-19T14:55:45.889Z</time></trkpt><trkpt lat="44.292260995396475" lon="9.69662114466155"><ele>556.0</ele><time>2026-04-19T14:55:46.889Z</time></trkpt><trkpt lat="44.29219277406064" lon="9.69674194551631"><ele>557.5</ele><time>2026-04-19T14:55:47.889Z</time></trkpt><trkpt lat="44.29212348715568" lon="9.696870862025618"><ele>559.0</ele><time>2026-04-19T14:55:48.889Z</time></trkpt><trkpt lat="44.29201761283537" lon="9.696981462130308"><ele>560.5</ele><time>2026-04-19T14:55:49.889Z</time></trkpt><trkpt lat="44.291885699688336" lon="9.697059117035886"><ele>562.0</ele><time>2026-04-19T14:55:50.889Z</time></trkpt><trkpt lat="44.29176023102082" lon="9.697124926267746"><ele>562.0</ele><time>2026-04-19T14:55:51.889Z</time></trkpt><trkpt lat="44.29163636649836" lon="9.697175387962282"><ele>562.0</ele><time>2026-04-19T14:55:52.889Z</time></trkpt><trkpt lat="44.291523638616304" lon="9.69721678025181"><ele>562.0</ele><time>2026-04-19T14:55:53.889Z</time></trkpt><trkpt lat="44.2914130307871" lon="9.697241151940366"><ele>562.0</ele><time>2026-04-19T14:55:54.889Z</time></trkpt><trkpt lat="44.291319888991296" lon="9.697278818556196"><ele>562.2</ele><time>2026-04-19T14:55:55.889Z</time></trkpt><trkpt lat="44.29124095086632" lon="9.697326241420487"><ele>562.4000000000001</ele><time>2026-04-19T14:55:56.889Z</time></trkpt><trkpt lat="44.291169438299335" lon="9.69741900608003"><ele>562.5999999999999</ele><time>2026-04-19T14:55:57.889Z</time></trkpt><trkpt lat="44.291103935408465" lon="9.697548762320368"><ele>562.8</ele><time>2026-04-19T14:55:58.889Z</time></trkpt><trkpt lat="44.29103745341869" lon="9.69769512270851"><ele>563.0</ele><time>2026-04-19T14:55:59.89Z</time></trkpt><trkpt lat="44.29097798329054" lon="9.697845213340445"><ele>563.0</ele><time>2026-04-19T14:56:00.89Z</time></trkpt><trkpt lat="44.29091288430326" lon="9.697949080596397"><ele>563.0</ele><time>2026-04-19T14:56:01.89Z</time></trkpt><trkpt lat="44.290857432616306" lon="9.69802511129815"><ele>563.0</ele><time>2026-04-19T14:56:02.89Z</time></trkpt><trkpt lat="44.290778172279474" lon="9.698054853213755"><ele>563.0</ele><time>2026-04-19T14:56:03.89Z</time></trkpt><trkpt lat="44.29068463864635" lon="9.698033972564087"><ele>563.0</ele><time>2026-04-19T14:56:04.89Z</time></trkpt><trkpt lat="44.29058559752985" lon="9.697981310090062"><ele>564.5</ele><time>2026-04-19T14:56:05.89Z</time></trkpt><trkpt lat="44.290481770567006" lon="9.697899722238917"><ele>566.0</ele><time>2026-04-19T14:56:06.89Z</time></trkpt><trkpt lat="44.29035841284155" lon="9.697821558506316"><ele>567.5</ele><time>2026-04-19T14:56:07.89Z</time></trkpt><trkpt lat="44.290234604165484" lon="9.69774502832361"><ele>569.0</ele><time>2026-04-19T14:56:08.89Z</time></trkpt><trkpt lat="44.2901027866577" lon="9.697667156749525"><ele>568.5</ele><time>2026-04-19T14:56:09.89Z</time></trkpt><trkpt lat="44.28996764495918" lon="9.697577779846434"><ele>568.0</ele><time>2026-04-19T14:56:10.89Z</time></trkpt><trkpt lat="44.289834468739805" lon="9.697485768910116"><ele>567.5</ele><time>2026-04-19T14:56:11.89Z</time></trkpt><trkpt lat="44.289702423766364" lon="9.697399592363407"><ele>567.0</ele><time>2026-04-19T14:56:12.89Z</time></trkpt><trkpt lat="44.289568513046426" lon="9.697315887206681"><ele>567.0</ele><time>2026-04-19T14:56:13.89Z</time></trkpt><trkpt lat="44.289438131020844" lon="9.697241141302282"><ele>567.0</ele><time>2026-04-19T14:56:14.89Z</time></trkpt><trkpt lat="44.28932149042712" lon="9.697174915429345"><ele>567.0</ele><time>2026-04-19T14:56:15.89Z</time></trkpt><trkpt lat="44.289229879113826" lon="9.697121210374496"><ele>567.0</ele><time>2026-04-19T14:56:16.89Z</time></trkpt><trkpt lat="44.28915378586385" lon="9.69706728188015"><ele>567.0</ele><time>2026-04-19T14:56:17.89Z</time></trkpt><trkpt lat="44.2890775608371" lon="9.69702633922458"><ele>567.0</ele><time>2026-04-19T14:56:18.89Z</time></trkpt><trkpt lat="44.28900268831068" lon="9.697006293214855"><ele>567.0</ele><time>2026-04-19T14:56:19.89Z</time></trkpt><trkpt lat="44.28892795751418" lon="9.69701441444588"><ele>567.0</ele><time>2026-04-19T14:56:20.89Z</time></trkpt><trkpt lat="44.2888648389262" lon="9.697069379810609"><ele>567.0</ele><time>2026-04-19T14:56:21.89Z</time></trkpt><trkpt lat="44.28882223358965" lon="9.69716473808985"><ele>567.0</ele><time>2026-04-19T14:56:22.89Z</time></trkpt><trkpt lat="44.28880593441387" lon="9.697288416067483"><ele>567.0</ele><time>2026-04-19T14:56:23.89Z</time></trkpt><trkpt lat="44.288823900242576" lon="9.697407679408899"><ele>567.0</ele><time>2026-04-19T14:56:24.89Z</time></trkpt><trkpt lat="44.28888270687564" lon="9.697500855859367"><ele>567.0</ele><time>2026-04-19T14:56:25.89Z</time></trkpt><trkpt lat="44.288958273807616" lon="9.697558966711552"><ele>567.0</ele><time>2026-04-19T14:56:26.89Z</time></trkpt><trkpt lat="44.28905848377122" lon="9.697619255640575"><ele>567.0</ele><time>2026-04-19T14:56:27.89Z</time></trkpt><trkpt lat="44.28914031095593" lon="9.697708145783878"><ele>570.2</ele><time>2026-04-19T14:56:28.89Z</time></trkpt><trkpt lat="44.28920755627927" lon="9.697795872310785"><ele>573.4000000000001</ele><time>2026-04-19T14:56:29.89Z</time></trkpt><trkpt lat="44.289243350321264" lon="9.697923956080436"><ele>576.5999999999999</ele><time>2026-04-19T14:56:30.89Z</time></trkpt><trkpt lat="44.28925957147018" lon="9.698070178539362"><ele>579.8</ele><time>2026-04-19T14:56:31.89Z</time></trkpt><trkpt lat="44.289276877681736" lon="9.698210040236352"><ele>583.0</ele><time>2026-04-19T14:56:32.89Z</time></trkpt><trkpt lat="44.28929684909267" lon="9.698333278342867"><ele>583.0</ele><time>2026-04-19T14:56:33.89Z</time></trkpt><trkpt lat="44.289334721334775" lon="9.698437168156818"><ele>583.0</ele><time>2026-04-19T14:56:34.89Z</time></trkpt><trkpt lat="44.28941593850071" lon="9.698528490254873"><ele>583.0</ele><time>2026-04-19T14:56:35.89Z</time></trkpt><trkpt lat="44.28950591746823" lon="9.69864341963088"><ele>583.0</ele><time>2026-04-19T14:56:36.89Z</time></trkpt><trkpt lat="44.28960530720383" lon="9.698746578690532"><ele>583.0</ele><time>2026-04-19T14:56:37.89Z</time></trkpt><trkpt lat="44.28970399065184" lon="9.698847396832225"><ele>585.25</ele><time>2026-04-19T14:56:38.89Z</time></trkpt><trkpt lat="44.28981268004304" lon="9.698945582494584"><ele>587.5</ele><time>2026-04-19T14:56:39.89Z</time></trkpt><trkpt lat="44.28994793040051" lon="9.699060504657151"><ele>589.75</ele><time>2026-04-19T14:56:40.89Z</time></trkpt><trkpt lat="44.29007428849456" lon="9.699176194091631"><ele>592.0</ele><time>2026-04-19T14:56:41.89Z</time></trkpt><trkpt lat="44.29018074337376" lon="9.699281220052455"><ele>592.0</ele><time>2026-04-19T14:56:42.89Z</time></trkpt><trkpt lat="44.290276092783586" lon="9.699351778049708"><ele>592.0</ele><time>2026-04-19T14:56:43.89Z</time></trkpt><trkpt lat="44.290377210205875" lon="9.699394602793495"><ele>592.0</ele><time>2026-04-19T14:56:44.89Z</time></trkpt><trkpt lat="44.290476435810476" lon="9.699409005039767"><ele>592.0</ele><time>2026-04-19T14:56:45.89Z</time></trkpt><trkpt lat="44.290562171526766" lon="9.699431562910817"><ele>592.0</ele><time>2026-04-19T14:56:46.89Z</time></trkpt><trkpt lat="44.29065190917767" lon="9.69952088176967"><ele>596.4</ele><time>2026-04-19T14:56:48.89Z</time></trkpt><trkpt lat="44.2906624303162" lon="9.69960861900725"><ele>600.8000000000001</ele><time>2026-04-19T14:56:49.89Z</time></trkpt><trkpt lat="44.290633070892355" lon="9.699690208378962"><ele>605.2</ele><time>2026-04-19T14:56:50.89Z</time></trkpt><trkpt lat="44.29049992099101" lon="9.699716922839363"><ele>609.6</ele><time>2026-04-19T14:56:52.89Z</time></trkpt><trkpt lat="44.29041001793917" lon="9.699700620997264"><ele>614.0</ele><time>2026-04-19T14:56:53.89Z</time></trkpt><trkpt lat="44.29030638983399" lon="9.699675726081853"><ele>614.0</ele><time>2026-04-19T14:56:54.89Z</time></trkpt><trkpt lat="44.29019658712694" lon="9.69963768461415"><ele>614.0</ele><time>2026-04-19T14:56:55.89Z</time></trkpt><trkpt lat="44.2900706111702" lon="9.69961278497675"><ele>614.0</ele><time>2026-04-19T14:56:56.89Z</time></trkpt><trkpt lat="44.289939846418406" lon="9.699587264404554"><ele>614.0</ele><time>2026-04-19T14:56:57.89Z</time></trkpt><trkpt lat="44.28981984093477" lon="9.699573172853306"><ele>614.6</ele><time>2026-04-19T14:56:58.89Z</time></trkpt><trkpt lat="44.28972180648616" lon="9.699526791394112"><ele>615.2</ele><time>2026-04-19T14:56:59.89Z</time></trkpt><trkpt lat="44.28963791880352" lon="9.69944687803134"><ele>615.8000000000001</ele><time>2026-04-19T14:57:00.89Z</time></trkpt><trkpt lat="44.28956324989111" lon="9.699362735773592"><ele>616.4</ele><time>2026-04-19T14:57:01.89Z</time></trkpt><trkpt lat="44.289496390234945" lon="9.699304964513768"><ele>617.0</ele><time>2026-04-19T14:57:02.89Z</time></trkpt><trkpt lat="44.28942001083006" lon="9.699287064275838"><ele>617.0</ele><time>2026-04-19T14:57:03.89Z</time></trkpt><trkpt lat="44.2893408230992" lon="9.699337935916764"><ele>617.0</ele><time>2026-04-19T14:57:04.89Z</time></trkpt><trkpt lat="44.28926584916733" lon="9.699447002249988"><ele>617.0</ele><time>2026-04-19T14:57:05.89Z</time></trkpt><trkpt lat="44.28919510927096" lon="9.699572512780824"><ele>617.0</ele><time>2026-04-19T14:57:06.89Z</time></trkpt><trkpt lat="44.28912677061823" lon="9.69971240649993"><ele>617.0</ele><time>2026-04-19T14:57:07.89Z</time></trkpt><trkpt lat="44.289065480730656" lon="9.699851376974722"><ele>617.0</ele><time>2026-04-19T14:57:08.89Z</time></trkpt><trkpt lat="44.289005170516916" lon="9.699982633574441"><ele>617.0</ele><time>2026-04-19T14:57:09.89Z</time></trkpt><trkpt lat="44.288930401110015" lon="9.700087603298618"><ele>617.0</ele><time>2026-04-19T14:57:10.89Z</time></trkpt><trkpt lat="44.28883170116235" lon="9.700152020087671"><ele>617.0</ele><time>2026-04-19T14:57:11.888Z</time></trkpt><trkpt lat="44.2887261953145" lon="9.70016443138891"><ele>617.0</ele><time>2026-04-19T14:57:12.887Z</time></trkpt><trkpt lat="44.28862846568626" lon="9.700139091224296"><ele>619.0</ele><time>2026-04-19T14:57:13.887Z</time></trkpt><trkpt lat="44.28853513320011" lon="9.700075175782954"><ele>621.0</ele><time>2026-04-19T14:57:14.888Z</time></trkpt><trkpt lat="44.288444596199945" lon="9.699983267447418"><ele>623.0</ele><time>2026-04-19T14:57:15.888Z</time></trkpt><trkpt lat="44.28834418204432" lon="9.699896197511404"><ele>625.0</ele><time>2026-04-19T14:57:16.888Z</time></trkpt><trkpt lat="44.288234128659404" lon="9.699830499466294"><ele>625.0</ele><time>2026-04-19T14:57:17.888Z</time></trkpt><trkpt lat="44.28811992324693" lon="9.699774653882587"><ele>625.0</ele><time>2026-04-19T14:57:18.888Z</time></trkpt><trkpt lat="44.28799804576641" lon="9.69970648899131"><ele>625.0</ele><time>2026-04-19T14:57:19.888Z</time></trkpt><trkpt lat="44.28788864301324" lon="9.699636338487732"><ele>625.0</ele><time>2026-04-19T14:57:20.888Z</time></trkpt><trkpt lat="44.28779724956245" lon="9.699551754149178"><ele>625.75</ele><time>2026-04-19T14:57:21.888Z</time></trkpt><trkpt lat="44.2877092267104" lon="9.699455279909634"><ele>626.5</ele><time>2026-04-19T14:57:22.888Z</time></trkpt><trkpt lat="44.28762627662964" lon="9.699336619748577"><ele>627.25</ele><time>2026-04-19T14:57:23.888Z</time></trkpt><trkpt lat="44.2875405178117" lon="9.699208938853912"><ele>628.0</ele><time>2026-04-19T14:57:24.887Z</time></trkpt><trkpt lat="44.2874705318777" lon="9.699096826021508"><ele>628.0</ele><time>2026-04-19T14:57:25.887Z</time></trkpt><trkpt lat="44.28740665312828" lon="9.699010005568747"><ele>628.0</ele><time>2026-04-19T14:57:26.887Z</time></trkpt><trkpt lat="44.28732319242883" lon="9.69895266528174"><ele>628.0</ele><time>2026-04-19T14:57:27.887Z</time></trkpt><trkpt lat="44.287244588990205" lon="9.69892891571262"><ele>628.0</ele><time>2026-04-19T14:57:28.887Z</time></trkpt><trkpt lat="44.28714753480552" lon="9.698974639648553"><ele>628.0</ele><time>2026-04-19T14:57:30.887Z</time></trkpt><trkpt lat="44.287107824602536" lon="9.699096790828625"><ele>628.0</ele><time>2026-04-19T14:57:32.888Z</time></trkpt><trkpt lat="44.28717543302148" lon="9.699255494694905"><ele>628.0</ele><time>2026-04-19T14:57:34.888Z</time></trkpt><trkpt lat="44.28725220946115" lon="9.699331282468421"><ele>628.0</ele><time>2026-04-19T14:57:35.888Z</time></trkpt><trkpt lat="44.28734541561529" lon="9.699422858519087"><ele>628.0</ele><time>2026-04-19T14:57:36.888Z</time></trkpt><trkpt lat="44.28744898381589" lon="9.699539560533259"><ele>628.0</ele><time>2026-04-19T14:57:37.888Z</time></trkpt><trkpt lat="44.287532223250565" lon="9.699678344144878"><ele>628.0</ele><time>2026-04-19T14:57:38.888Z</time></trkpt><trkpt lat="44.28759185878115" lon="9.699852209974324"><ele>628.0</ele><time>2026-04-19T14:57:39.888Z</time></trkpt><trkpt lat="44.28764669812114" lon="9.700044561536744"><ele>628.0</ele><time>2026-04-19T14:57:40.888Z</time></trkpt><trkpt lat="44.287698782478024" lon="9.700229216187903"><ele>627.25</ele><time>2026-04-19T14:57:41.888Z</time></trkpt><trkpt lat="44.28774871604239" lon="9.700407371668742"><ele>626.5</ele><time>2026-04-19T14:57:42.888Z</time></trkpt><trkpt lat="44.287796521543974" lon="9.70058465782062"><ele>625.75</ele><time>2026-04-19T14:57:43.888Z</time></trkpt><trkpt lat="44.28783787111907" lon="9.700761832272391"><ele>625.0</ele><time>2026-04-19T14:57:44.888Z</time></trkpt><trkpt lat="44.28787880750323" lon="9.700933717975285"><ele>624.2</ele><time>2026-04-19T14:57:45.888Z</time></trkpt><trkpt lat="44.28790773924766" lon="9.701085750086644"><ele>623.4</ele><time>2026-04-19T14:57:46.888Z</time></trkpt><trkpt lat="44.28792913481763" lon="9.701227014831558"><ele>622.6</ele><time>2026-04-19T14:57:47.888Z</time></trkpt><trkpt lat="44.287943869224286" lon="9.701351029976697"><ele>621.8</ele><time>2026-04-19T14:57:48.888Z</time></trkpt><trkpt lat="44.28796202796126" lon="9.701453629949643"><ele>621.0</ele><time>2026-04-19T14:57:49.888Z</time></trkpt><trkpt lat="44.288000795850486" lon="9.701538939418423"><ele>621.0</ele><time>2026-04-19T14:57:50.888Z</time></trkpt><trkpt lat="44.288055306266" lon="9.701590512508789"><ele>621.0</ele><time>2026-04-19T14:57:51.888Z</time></trkpt><trkpt lat="44.288126125921146" lon="9.70161551528297"><ele>621.0</ele><time>2026-04-19T14:57:52.888Z</time></trkpt><trkpt lat="44.28820263011593" lon="9.701605592878138"><ele>621.0</ele><time>2026-04-19T14:57:53.888Z</time></trkpt><trkpt lat="44.28830894622905" lon="9.701565183900364"><ele>621.0</ele><time>2026-04-19T14:57:54.888Z</time></trkpt><trkpt lat="44.28844199378967" lon="9.701498155484817"><ele>625.25</ele><time>2026-04-19T14:57:55.888Z</time></trkpt><trkpt lat="44.28856979348721" lon="9.701427191889913"><ele>629.5</ele><time>2026-04-19T14:57:56.888Z</time></trkpt><trkpt lat="44.288691502363186" lon="9.701369246719164"><ele>633.75</ele><time>2026-04-19T14:57:57.888Z</time></trkpt><trkpt lat="44.288817338291125" lon="9.701304471191433"><ele>638.0</ele><time>2026-04-19T14:57:58.888Z</time></trkpt><trkpt lat="44.28892505872772" lon="9.701247691091343"><ele>639.1666666666666</ele><time>2026-04-19T14:57:59.888Z</time></trkpt><trkpt lat="44.28901845640941" lon="9.701195838693945"><ele>640.3333333333333</ele><time>2026-04-19T14:58:00.888Z</time></trkpt><trkpt lat="44.289106354886464" lon="9.701145115249618"><ele>641.5</ele><time>2026-04-19T14:58:01.888Z</time></trkpt><trkpt lat="44.28919355908548" lon="9.701112983864748"><ele>642.6666666666666</ele><time>2026-04-19T14:58:02.888Z</time></trkpt><trkpt lat="44.28927094754567" lon="9.70110913162074"><ele>643.8333333333334</ele><time>2026-04-19T14:58:03.888Z</time></trkpt><trkpt lat="44.2893468701802" lon="9.701137335898956"><ele>645.0</ele><time>2026-04-19T14:58:04.888Z</time></trkpt><trkpt lat="44.289413313993826" lon="9.70120244796899"><ele>645.0</ele><time>2026-04-19T14:58:05.888Z</time></trkpt><trkpt lat="44.28947564518038" lon="9.701294001256704"><ele>645.0</ele><time>2026-04-19T14:58:06.888Z</time></trkpt><trkpt lat="44.28954135678293" lon="9.701424917784301"><ele>645.0</ele><time>2026-04-19T14:58:07.888Z</time></trkpt><trkpt lat="44.289612398181475" lon="9.701554021093205"><ele>645.0</ele><time>2026-04-19T14:58:08.888Z</time></trkpt><trkpt lat="44.28968707987418" lon="9.70166741427042"><ele>645.0</ele><time>2026-04-19T14:58:09.888Z</time></trkpt><trkpt lat="44.28977320510459" lon="9.701764107779013"><ele>645.25</ele><time>2026-04-19T14:58:10.888Z</time></trkpt><trkpt lat="44.289875970386085" lon="9.701837671256575"><ele>645.5</ele><time>2026-04-19T14:58:11.888Z</time></trkpt><trkpt lat="44.28998527051096" lon="9.701896725573876"><ele>645.75</ele><time>2026-04-19T14:58:12.888Z</time></trkpt><trkpt lat="44.29009105927596" lon="9.701951033902638"><ele>646.0</ele><time>2026-04-19T14:58:13.888Z</time></trkpt><trkpt lat="44.29019207413135" lon="9.7020032730323"><ele>645.1999999999999</ele><time>2026-04-19T14:58:14.888Z</time></trkpt><trkpt lat="44.29028319427515" lon="9.702052751370402"><ele>644.4</ele><time>2026-04-19T14:58:15.888Z</time></trkpt><trkpt lat="44.29037055743418" lon="9.70212225619567"><ele>643.6</ele><time>2026-04-19T14:58:16.888Z</time></trkpt><trkpt lat="44.29045828237346" lon="9.702225076919353"><ele>642.8</ele><time>2026-04-19T14:58:17.888Z</time></trkpt><trkpt lat="44.2905344779518" lon="9.70234281786471"><ele>642.0</ele><time>2026-04-19T14:58:18.888Z</time></trkpt><trkpt lat="44.29061100700564" lon="9.702481790616863"><ele>645.0</ele><time>2026-04-19T14:58:19.888Z</time></trkpt><trkpt lat="44.29068075478516" lon="9.702625767288596"><ele>648.0</ele><time>2026-04-19T14:58:20.888Z</time></trkpt><trkpt lat="44.290745760749644" lon="9.702764479017508"><ele>651.0</ele><time>2026-04-19T14:58:21.888Z</time></trkpt><trkpt lat="44.290806542876076" lon="9.702896943831238"><ele>654.0</ele><time>2026-04-19T14:58:22.888Z</time></trkpt><trkpt lat="44.29086144276781" lon="9.703017826946532"><ele>654.0</ele><time>2026-04-19T14:58:23.888Z</time></trkpt><trkpt lat="44.29091048441456" lon="9.703119338931243"><ele>654.0</ele><time>2026-04-19T14:58:24.888Z</time></trkpt><trkpt lat="44.29096723539308" lon="9.703196294434822"><ele>654.0</ele><time>2026-04-19T14:58:25.888Z</time></trkpt><trkpt lat="44.291038930325804" lon="9.703254301684865"><ele>654.0</ele><time>2026-04-19T14:58:26.888Z</time></trkpt><trkpt lat="44.29112756831466" lon="9.70330208410472"><ele>654.0</ele><time>2026-04-19T14:58:27.888Z</time></trkpt><trkpt lat="44.291230297464445" lon="9.703358938825058"><ele>654.0</ele><time>2026-04-19T14:58:28.888Z</time></trkpt><trkpt lat="44.291339287696935" lon="9.703435600753503"><ele>654.0</ele><time>2026-04-19T14:58:29.888Z</time></trkpt><trkpt lat="44.29143809777788" lon="9.703524266165672"><ele>654.0</ele><time>2026-04-19T14:58:30.888Z</time></trkpt><trkpt lat="44.29151210295568" lon="9.703611525472327"><ele>654.0</ele><time>2026-04-19T14:58:31.888Z</time></trkpt><trkpt lat="44.291569153164346" lon="9.703718436765323"><ele>654.0</ele><time>2026-04-19T14:58:32.888Z</time></trkpt><trkpt lat="44.2916149411346" lon="9.703857853787198"><ele>657.4000000000001</ele><time>2026-04-19T14:58:33.888Z</time></trkpt><trkpt lat="44.29164430383361" lon="9.703993418253514"><ele>660.8</ele><time>2026-04-19T14:58:34.888Z</time></trkpt><trkpt lat="44.29168718013197" lon="9.70410031343866"><ele>664.2</ele><time>2026-04-19T14:58:35.888Z</time></trkpt><trkpt lat="44.291763305412054" lon="9.704189172920634"><ele>667.5999999999999</ele><time>2026-04-19T14:58:36.888Z</time></trkpt><trkpt lat="44.29186163101604" lon="9.704250671707861"><ele>671.0</ele><time>2026-04-19T14:58:37.888Z</time></trkpt><trkpt lat="44.29195260647114" lon="9.704291735436424"><ele>671.0</ele><time>2026-04-19T14:58:38.888Z</time></trkpt><trkpt lat="44.29205054352124" lon="9.704289949586904"><ele>671.0</ele><time>2026-04-19T14:58:39.888Z</time></trkpt><trkpt lat="44.29214522759658" lon="9.704271488390718"><ele>671.0</ele><time>2026-04-19T14:58:40.888Z</time></trkpt><trkpt lat="44.29226257749399" lon="9.704265682103376"><ele>671.0</ele><time>2026-04-19T14:58:41.888Z</time></trkpt><trkpt lat="44.292378393177685" lon="9.704318969993674"><ele>671.0</ele><time>2026-04-19T14:58:42.888Z</time></trkpt><trkpt lat="44.292487622822094" lon="9.704383802900164"><ele>670.1999999999999</ele><time>2026-04-19T14:58:43.888Z</time></trkpt><trkpt lat="44.29259297279524" lon="9.704427865521032"><ele>669.4</ele><time>2026-04-19T14:58:44.888Z</time></trkpt><trkpt lat="44.29270067537978" lon="9.704431323828722"><ele>668.6</ele><time>2026-04-19T14:58:45.888Z</time></trkpt><trkpt lat="44.29279901890048" lon="9.70443014822279"><ele>667.8</ele><time>2026-04-19T14:58:46.888Z</time></trkpt><trkpt lat="44.29289536038911" lon="9.704416188350093"><ele>667.0</ele><time>2026-04-19T14:58:47.888Z</time></trkpt><trkpt lat="44.292965868204" lon="9.70438023883521"><ele>670.8</ele><time>2026-04-19T14:58:48.888Z</time></trkpt><trkpt lat="44.29303947207221" lon="9.704308868864281"><ele>674.6</ele><time>2026-04-19T14:58:49.888Z</time></trkpt><trkpt lat="44.293098189794286" lon="9.704199286401034"><ele>678.4</ele><time>2026-04-19T14:58:50.888Z</time></trkpt><trkpt lat="44.293155921204864" lon="9.704066945482346"><ele>682.1999999999999</ele><time>2026-04-19T14:58:51.888Z</time></trkpt><trkpt lat="44.293213598323256" lon="9.703941284327984"><ele>686.0</ele><time>2026-04-19T14:58:52.888Z</time></trkpt><trkpt lat="44.29327872676424" lon="9.703843484870353"><ele>686.1999999999999</ele><time>2026-04-19T14:58:53.888Z</time></trkpt><trkpt lat="44.29337472722709" lon="9.703801606195796"><ele>686.4</ele><time>2026-04-19T14:58:54.888Z</time></trkpt><trkpt lat="44.29346539791855" lon="9.703764871052355"><ele>686.6</ele><time>2026-04-19T14:58:55.888Z</time></trkpt><trkpt lat="44.293559060063295" lon="9.703672968202357"><ele>686.8</ele><time>2026-04-19T14:58:56.888Z</time></trkpt><trkpt lat="44.2936538133703" lon="9.703574737228198"><ele>687.0</ele><time>2026-04-19T14:58:57.888Z</time></trkpt><trkpt lat="44.29375069199553" lon="9.70346059611262"><ele>689.4000000000001</ele><time>2026-04-19T14:58:58.888Z</time></trkpt><trkpt lat="44.2938485551133" lon="9.70335564065451"><ele>691.8000000000001</ele><time>2026-04-19T14:58:59.888Z</time></trkpt><trkpt lat="44.29393695435588" lon="9.703278875141425"><ele>694.2</ele><time>2026-04-19T14:59:00.888Z</time></trkpt><trkpt lat="44.294031092187794" lon="9.703236268536985"><ele>696.6</ele><time>2026-04-19T14:59:01.888Z</time></trkpt><trkpt lat="44.294143343305876" lon="9.703231336970461"><ele>699.0</ele><time>2026-04-19T14:59:02.888Z</time></trkpt><trkpt lat="44.29426851539126" lon="9.70325005215296"><ele>699.75</ele><time>2026-04-19T14:59:03.888Z</time></trkpt><trkpt lat="44.29440247372727" lon="9.703280681841393"><ele>700.5</ele><time>2026-04-19T14:59:04.888Z</time></trkpt><trkpt lat="44.29454084627981" lon="9.703316715634442"><ele>701.25</ele><time>2026-04-19T14:59:05.888Z</time></trkpt><trkpt lat="44.29468480316821" lon="9.70338149776844"><ele>702.0</ele><time>2026-04-19T14:59:06.888Z</time></trkpt><trkpt lat="44.294833569322414" lon="9.703456411120621"><ele>704.0</ele><time>2026-04-19T14:59:07.888Z</time></trkpt><trkpt lat="44.29498555296406" lon="9.703528600940464"><ele>706.0</ele><time>2026-04-19T14:59:08.888Z</time></trkpt><trkpt lat="44.295125641700494" lon="9.703597785672619"><ele>708.0</ele><time>2026-04-19T14:59:09.888Z</time></trkpt><trkpt lat="44.295247466876795" lon="9.703649106098867"><ele>710.0</ele><time>2026-04-19T14:59:10.888Z</time></trkpt><trkpt lat="44.295346178508304" lon="9.7036684281225"><ele>711.0</ele><time>2026-04-19T14:59:11.888Z</time></trkpt><trkpt lat="44.295449738941215" lon="9.703661780061394"><ele>712.0</ele><time>2026-04-19T14:59:12.888Z</time></trkpt><trkpt lat="44.29554827188963" lon="9.70361717773307"><ele>713.0</ele><time>2026-04-19T14:59:13.888Z</time></trkpt><trkpt lat="44.2956534625122" lon="9.703572996939844"><ele>714.0</ele><time>2026-04-19T14:59:14.888Z</time></trkpt><trkpt lat="44.29574723102283" lon="9.7035830203744"><ele>715.0</ele><time>2026-04-19T14:59:15.888Z</time></trkpt><trkpt lat="44.29583705054457" lon="9.703648414232456"><ele>711.5</ele><time>2026-04-19T14:59:16.888Z</time></trkpt><trkpt lat="44.29593452923079" lon="9.70373598141248"><ele>708.0</ele><time>2026-04-19T14:59:17.886Z</time></trkpt><trkpt lat="44.29603102129569" lon="9.703834048326229"><ele>704.5</ele><time>2026-04-19T14:59:18.886Z</time></trkpt><trkpt lat="44.296136151520926" lon="9.703946985153204"><ele>701.0</ele><time>2026-04-19T14:59:19.886Z</time></trkpt><trkpt lat="44.29624152865934" lon="9.704081712381088"><ele>701.0</ele><time>2026-04-19T14:59:20.886Z</time></trkpt><trkpt lat="44.296351755182584" lon="9.70424330965946"><ele>701.0</ele><time>2026-04-19T14:59:21.887Z</time></trkpt><trkpt lat="44.29646962789846" lon="9.704401862528439"><ele>701.0</ele><time>2026-04-19T14:59:22.887Z</time></trkpt><trkpt lat="44.29658547164541" lon="9.704574603236486"><ele>702.0</ele><time>2026-04-19T14:59:23.886Z</time></trkpt><trkpt lat="44.29670432852296" lon="9.704721225112648"><ele>703.0</ele><time>2026-04-19T14:59:24.886Z</time></trkpt><trkpt lat="44.29681477868832" lon="9.704840431957075"><ele>704.0</ele><time>2026-04-19T14:59:25.886Z</time></trkpt><trkpt lat="44.296918613554176" lon="9.704958069364611"><ele>705.0</ele><time>2026-04-19T14:59:26.887Z</time></trkpt><trkpt lat="44.297010528278875" lon="9.70507078630485"><ele>705.0</ele><time>2026-04-19T14:59:27.886Z</time></trkpt><trkpt lat="44.29708414838004" lon="9.705199296991255"><ele>705.0</ele><time>2026-04-19T14:59:28.886Z</time></trkpt><trkpt lat="44.29715150349266" lon="9.70534662353376"><ele>705.0</ele><time>2026-04-19T14:59:29.886Z</time></trkpt><trkpt lat="44.29721054048213" lon="9.705511030303445"><ele>705.0</ele><time>2026-04-19T14:59:30.886Z</time></trkpt><trkpt lat="44.29725332318415" lon="9.705676180319806"><ele>705.75</ele><time>2026-04-19T14:59:31.886Z</time></trkpt><trkpt lat="44.297297755815194" lon="9.70583912004802"><ele>706.5</ele><time>2026-04-19T14:59:32.886Z</time></trkpt><trkpt lat="44.297348138587815" lon="9.705995697919226"><ele>707.25</ele><time>2026-04-19T14:59:33.886Z</time></trkpt><trkpt lat="44.29740571113113" lon="9.706151309884994"><ele>708.0</ele><time>2026-04-19T14:59:34.886Z</time></trkpt><trkpt lat="44.29745670472736" lon="9.706292266822889"><ele>708.0</ele><time>2026-04-19T14:59:35.886Z</time></trkpt><trkpt lat="44.29750371761486" lon="9.706408681317232"><ele>708.0</ele><time>2026-04-19T14:59:36.886Z</time></trkpt><trkpt lat="44.297568954817386" lon="9.706510815033067"><ele>708.0</ele><time>2026-04-19T14:59:37.886Z</time></trkpt><trkpt lat="44.297662495290645" lon="9.70659867528815"><ele>708.0</ele><time>2026-04-19T14:59:38.886Z</time></trkpt><trkpt lat="44.297771451496246" lon="9.706683915814676"><ele>708.0</ele><time>2026-04-19T14:59:39.886Z</time></trkpt><trkpt lat="44.29787857440702" lon="9.706770686259416"><ele>708.0</ele><time>2026-04-19T14:59:40.886Z</time></trkpt><trkpt lat="44.2979782589489" lon="9.706834067630897"><ele>708.0</ele><time>2026-04-19T14:59:41.886Z</time></trkpt><trkpt lat="44.29806904292101" lon="9.70687036494353"><ele>708.0</ele><time>2026-04-19T14:59:42.886Z</time></trkpt><trkpt lat="44.29815079849245" lon="9.70691207652875"><ele>708.0</ele><time>2026-04-19T14:59:43.886Z</time></trkpt><trkpt lat="44.298222804600634" lon="9.70697644274937"><ele>708.0</ele><time>2026-04-19T14:59:44.886Z</time></trkpt><trkpt lat="44.298292708438346" lon="9.707081785342094"><ele>712.25</ele><time>2026-04-19T14:59:45.886Z</time></trkpt><trkpt lat="44.298340256557" lon="9.707228468055147"><ele>716.5</ele><time>2026-04-19T14:59:46.886Z</time></trkpt><trkpt lat="44.29837865803016" lon="9.707392887668687"><ele>720.75</ele><time>2026-04-19T14:59:47.886Z</time></trkpt><trkpt lat="44.29841504805662" lon="9.707558881813748"><ele>725.0</ele><time>2026-04-19T14:59:48.886Z</time></trkpt><trkpt lat="44.29845362079183" lon="9.707728319430966"><ele>724.6</ele><time>2026-04-19T14:59:49.886Z</time></trkpt><trkpt lat="44.29849659070912" lon="9.707889514540472"><ele>724.2</ele><time>2026-04-19T14:59:50.886Z</time></trkpt><trkpt lat="44.298531683834064" lon="9.708022759909497"><ele>723.8</ele><time>2026-04-19T14:59:51.886Z</time></trkpt><trkpt lat="44.29856879081326" lon="9.708129463082432"><ele>723.4</ele><time>2026-04-19T14:59:52.886Z</time></trkpt><trkpt lat="44.29862201695306" lon="9.708231605992399"><ele>723.0</ele><time>2026-04-19T14:59:53.886Z</time></trkpt><trkpt lat="44.298696125274695" lon="9.708320434075159"><ele>723.0</ele><time>2026-04-19T14:59:54.886Z</time></trkpt><trkpt lat="44.29878882366893" lon="9.708413289278523"><ele>723.0</ele><time>2026-04-19T14:59:55.886Z</time></trkpt><trkpt lat="44.298890267251586" lon="9.708535089517001"><ele>723.0</ele><time>2026-04-19T14:59:56.886Z</time></trkpt><trkpt lat="44.298992910463944" lon="9.708669849907388"><ele>723.0</ele><time>2026-04-19T14:59:57.886Z</time></trkpt><trkpt lat="44.2990873123672" lon="9.708786083752365"><ele>724.8</ele><time>2026-04-19T14:59:58.886Z</time></trkpt><trkpt lat="44.29915489695106" lon="9.708894676949965"><ele>726.5999999999999</ele><time>2026-04-19T14:59:59.886Z</time></trkpt><trkpt lat="44.2992067493132" lon="9.709013956345139"><ele>728.4000000000001</ele><time>2026-04-19T15:00:00.886Z</time></trkpt><trkpt lat="44.2992426234851" lon="9.709161765709869"><ele>730.2</ele><time>2026-04-19T15:00:01.886Z</time></trkpt><trkpt lat="44.29927008365861" lon="9.70932049087432"><ele>732.0</ele><time>2026-04-19T15:00:02.886Z</time></trkpt><trkpt lat="44.29929878715839" lon="9.709485922635485"><ele>732.0</ele><time>2026-04-19T15:00:03.886Z</time></trkpt><trkpt lat="44.29933130385743" lon="9.709639467968824"><ele>732.0</ele><time>2026-04-19T15:00:04.886Z</time></trkpt><trkpt lat="44.29938210232275" lon="9.70978792316802"><ele>732.0</ele><time>2026-04-19T15:00:05.886Z</time></trkpt><trkpt lat="44.29945885276409" lon="9.709928008559272"><ele>732.0</ele><time>2026-04-19T15:00:06.886Z</time></trkpt><trkpt lat="44.299550059952246" lon="9.710072612801392"><ele>732.0</ele><time>2026-04-19T15:00:07.886Z</time></trkpt><trkpt lat="44.299640216117275" lon="9.710204754611992"><ele>732.0</ele><time>2026-04-19T15:00:08.886Z</time></trkpt><trkpt lat="44.299717764968086" lon="9.710317564810106"><ele>732.0</ele><time>2026-04-19T15:00:09.886Z</time></trkpt><trkpt lat="44.29977944482014" lon="9.710431471776095"><ele>732.0</ele><time>2026-04-19T15:00:10.886Z</time></trkpt><trkpt lat="44.29983347683335" lon="9.710568361129734"><ele>734.8</ele><time>2026-04-19T15:00:11.886Z</time></trkpt><trkpt lat="44.29984989058464" lon="9.71072675320453"><ele>737.6</ele><time>2026-04-19T15:00:12.886Z</time></trkpt><trkpt lat="44.29983859782143" lon="9.71087529961056"><ele>740.4</ele><time>2026-04-19T15:00:13.886Z</time></trkpt><trkpt lat="44.29980620547938" lon="9.7110084972198"><ele>743.1999999999999</ele><time>2026-04-19T15:00:14.886Z</time></trkpt><trkpt lat="44.29979506961823" lon="9.711133885883095"><ele>746.0</ele><time>2026-04-19T15:00:15.886Z</time></trkpt><trkpt lat="44.29982867807309" lon="9.711249075695001"><ele>746.0</ele><time>2026-04-19T15:00:16.886Z</time></trkpt><trkpt lat="44.29988578826585" lon="9.711362538711883"><ele>746.0</ele><time>2026-04-19T15:00:17.886Z</time></trkpt><trkpt lat="44.299952876161385" lon="9.711492964483881"><ele>746.0</ele><time>2026-04-19T15:00:18.886Z</time></trkpt><trkpt lat="44.30002716990551" lon="9.711621988990718"><ele>746.0</ele><time>2026-04-19T15:00:19.886Z</time></trkpt><trkpt lat="44.30009624952203" lon="9.711749391101135"><ele>746.0</ele><time>2026-04-19T15:00:20.886Z</time></trkpt><trkpt lat="44.30017271964618" lon="9.71187512092488"><ele>744.75</ele><time>2026-04-19T15:00:21.886Z</time></trkpt><trkpt lat="44.300258075179826" lon="9.71199889338973"><ele>743.5</ele><time>2026-04-19T15:00:22.886Z</time></trkpt><trkpt lat="44.300350523157704" lon="9.712126556706147"><ele>742.25</ele><time>2026-04-19T15:00:23.886Z</time></trkpt><trkpt lat="44.30044016942319" lon="9.712260192465582"><ele>741.0</ele><time>2026-04-19T15:00:24.886Z</time></trkpt><trkpt lat="44.30052979647974" lon="9.712391192785002"><ele>744.1999999999999</ele><time>2026-04-19T15:00:25.886Z</time></trkpt><trkpt lat="44.30060828102513" lon="9.712514526344663"><ele>747.4</ele><time>2026-04-19T15:00:26.886Z</time></trkpt><trkpt lat="44.30066956873345" lon="9.712622080149613"><ele>750.6</ele><time>2026-04-19T15:00:27.886Z</time></trkpt><trkpt lat="44.3007140129535" lon="9.712735144943528"><ele>753.8</ele><time>2026-04-19T15:00:28.886Z</time></trkpt><trkpt lat="44.300735402855764" lon="9.712860233035846"><ele>757.0</ele><time>2026-04-19T15:00:29.886Z</time></trkpt><trkpt lat="44.30072123179896" lon="9.712991676247048"><ele>757.0</ele><time>2026-04-19T15:00:30.886Z</time></trkpt><trkpt lat="44.30070543991701" lon="9.713105762140081"><ele>757.0</ele><time>2026-04-19T15:00:31.886Z</time></trkpt><trkpt lat="44.300713939338664" lon="9.713221312786255"><ele>757.0</ele><time>2026-04-19T15:00:32.886Z</time></trkpt><trkpt lat="44.300764078490836" lon="9.71331583039885"><ele>757.0</ele><time>2026-04-19T15:00:33.886Z</time></trkpt><trkpt lat="44.300837075320295" lon="9.713391981034423"><ele>757.0</ele><time>2026-04-19T15:00:34.886Z</time></trkpt><trkpt lat="44.30093168028851" lon="9.713455545334549"><ele>757.0</ele><time>2026-04-19T15:00:35.886Z</time></trkpt><trkpt lat="44.30102565363541" lon="9.713503161210218"><ele>757.0</ele><time>2026-04-19T15:00:36.886Z</time></trkpt><trkpt lat="44.30114102568131" lon="9.713530442684704"><ele>757.0</ele><time>2026-04-19T15:00:37.886Z</time></trkpt><trkpt lat="44.301264278792125" lon="9.713558342725289"><ele>757.0</ele><time>2026-04-19T15:00:38.886Z</time></trkpt><trkpt lat="44.301393541313004" lon="9.713618638642833"><ele>757.0</ele><time>2026-04-19T15:00:39.886Z</time></trkpt><trkpt lat="44.30149533757946" lon="9.71371190024584"><ele>757.0</ele><time>2026-04-19T15:00:40.886Z</time></trkpt><trkpt lat="44.30158987744396" lon="9.713806893768986"><ele>757.0</ele><time>2026-04-19T15:00:41.886Z</time></trkpt><trkpt lat="44.30168688381633" lon="9.713889356645815"><ele>757.0</ele><time>2026-04-19T15:00:42.887Z</time></trkpt><trkpt lat="44.301801127319855" lon="9.713940277060825"><ele>757.0</ele><time>2026-04-19T15:00:43.887Z</time></trkpt><trkpt lat="44.30191749824293" lon="9.713984779711325"><ele>757.0</ele><time>2026-04-19T15:00:44.887Z</time></trkpt><trkpt lat="44.302039480427645" lon="9.71405721784276"><ele>757.0</ele><time>2026-04-19T15:00:45.887Z</time></trkpt><trkpt lat="44.302147672575664" lon="9.714145019362043"><ele>757.0</ele><time>2026-04-19T15:00:46.887Z</time></trkpt><trkpt lat="44.302233740859286" lon="9.714239539302948"><ele>757.0</ele><time>2026-04-19T15:00:47.887Z</time></trkpt><trkpt lat="44.30231257829192" lon="9.714295886994961"><ele>760.75</ele><time>2026-04-19T15:00:48.887Z</time></trkpt><trkpt lat="44.30240562840175" lon="9.714320118710855"><ele>764.5</ele><time>2026-04-19T15:00:49.887Z</time></trkpt><trkpt lat="44.3025300831255" lon="9.714319134483052"><ele>768.25</ele><time>2026-04-19T15:00:50.887Z</time></trkpt><trkpt lat="44.30269172327499" lon="9.714336176727903"><ele>772.0</ele><time>2026-04-19T15:00:51.887Z</time></trkpt><trkpt lat="44.302887757236434" lon="9.714336692606919"><ele>772.0</ele><time>2026-04-19T15:00:52.887Z</time></trkpt><trkpt lat="44.30307014011215" lon="9.714341165572398"><ele>772.0</ele><time>2026-04-19T15:00:53.887Z</time></trkpt><trkpt lat="44.3032177780198" lon="9.714338758336272"><ele>772.0</ele><time>2026-04-19T15:00:54.887Z</time></trkpt><trkpt lat="44.303346397499" lon="9.714317476145117"><ele>774.0</ele><time>2026-04-19T15:00:55.887Z</time></trkpt><trkpt lat="44.3034512632317" lon="9.714283468858092"><ele>776.0</ele><time>2026-04-19T15:00:56.887Z</time></trkpt><trkpt lat="44.30355699629667" lon="9.714270101465816"><ele>778.0</ele><time>2026-04-19T15:00:57.887Z</time></trkpt><trkpt lat="44.30366953263872" lon="9.71427040028703"><ele>780.0</ele><time>2026-04-19T15:00:58.887Z</time></trkpt><trkpt lat="44.303787925453115" lon="9.714321858897312"><ele>780.0</ele><time>2026-04-19T15:00:59.887Z</time></trkpt><trkpt lat="44.303904750760175" lon="9.714365496000697"><ele>780.0</ele><time>2026-04-19T15:01:00.887Z</time></trkpt><trkpt lat="44.3040217040337" lon="9.714379930165725"><ele>780.0</ele><time>2026-04-19T15:01:01.887Z</time></trkpt><trkpt lat="44.304149911701835" lon="9.714364315326284"><ele>780.0</ele><time>2026-04-19T15:01:02.887Z</time></trkpt><trkpt lat="44.304269225320624" lon="9.714355487431865"><ele>779.6666666666666</ele><time>2026-04-19T15:01:03.887Z</time></trkpt><trkpt lat="44.30436413039742" lon="9.714372364852895"><ele>779.3333333333333</ele><time>2026-04-19T15:01:04.887Z</time></trkpt><trkpt lat="44.304442252215544" lon="9.714420111237738"><ele>779.0</ele><time>2026-04-19T15:01:05.887Z</time></trkpt><trkpt lat="44.30452861203168" lon="9.714481260220378"><ele>778.6666666666666</ele><time>2026-04-19T15:01:06.887Z</time></trkpt><trkpt lat="44.30460811347446" lon="9.71455060552483"><ele>778.3333333333333</ele><time>2026-04-19T15:01:07.887Z</time></trkpt><trkpt lat="44.30467267411999" lon="9.714586865872002"><ele>778.0</ele><time>2026-04-19T15:01:08.887Z</time></trkpt><trkpt lat="44.3047511461104" lon="9.714574643327571"><ele>777.4</ele><time>2026-04-19T15:01:09.887Z</time></trkpt><trkpt lat="44.30482606737193" lon="9.714527125364421"><ele>776.8</ele><time>2026-04-19T15:01:10.887Z</time></trkpt><trkpt lat="44.304903913434586" lon="9.714439152051938"><ele>776.2</ele><time>2026-04-19T15:01:11.887Z</time></trkpt><trkpt lat="44.30497866776179" lon="9.714367691946862"><ele>775.6</ele><time>2026-04-19T15:01:12.887Z</time></trkpt><trkpt lat="44.305066357509126" lon="9.714340828000772"><ele>775.0</ele><time>2026-04-19T15:01:13.887Z</time></trkpt><trkpt lat="44.30515565183575" lon="9.714356721175633"><ele>775.0</ele><time>2026-04-19T15:01:14.887Z</time></trkpt><trkpt lat="44.305245848758965" lon="9.714406074118653"><ele>775.0</ele><time>2026-04-19T15:01:15.887Z</time></trkpt><trkpt lat="44.305337674613696" lon="9.714475852469775"><ele>775.0</ele><time>2026-04-19T15:01:16.887Z</time></trkpt><trkpt lat="44.30543089536368" lon="9.714532941376017"><ele>775.0</ele><time>2026-04-19T15:01:17.887Z</time></trkpt><trkpt lat="44.30550770426085" lon="9.714572971988085"><ele>775.0</ele><time>2026-04-19T15:01:18.887Z</time></trkpt><trkpt lat="44.30564591749424" lon="9.714526219998387"><ele>777.0</ele><time>2026-04-19T15:01:20.887Z</time></trkpt><trkpt lat="44.305714967958046" lon="9.714442235929834"><ele>779.0</ele><time>2026-04-19T15:01:21.887Z</time></trkpt><trkpt lat="44.305792696475045" lon="9.71433976658664"><ele>781.0</ele><time>2026-04-19T15:01:22.887Z</time></trkpt><trkpt lat="44.30587651791537" lon="9.714229261092596"><ele>783.0</ele><time>2026-04-19T15:01:23.885Z</time></trkpt><trkpt lat="44.30596067883357" lon="9.714128368738027"><ele>785.0</ele><time>2026-04-19T15:01:24.885Z</time></trkpt><trkpt lat="44.30605991473818" lon="9.714044648041275"><ele>788.25</ele><time>2026-04-19T15:01:25.885Z</time></trkpt><trkpt lat="44.306171076019965" lon="9.713984648362967"><ele>791.5</ele><time>2026-04-19T15:01:26.885Z</time></trkpt><trkpt lat="44.30628472067512" lon="9.713930768590481"><ele>794.75</ele><time>2026-04-19T15:01:27.884Z</time></trkpt><trkpt lat="44.30640771487609" lon="9.713879907695713"><ele>798.0</ele><time>2026-04-19T15:01:28.884Z</time></trkpt><trkpt lat="44.30653269248159" lon="9.713837917774581"><ele>800.25</ele><time>2026-04-19T15:01:29.884Z</time></trkpt><trkpt lat="44.30664025896043" lon="9.713799071948115"><ele>802.5</ele><time>2026-04-19T15:01:30.885Z</time></trkpt><trkpt lat="44.306757609703666" lon="9.713785988794108"><ele>804.75</ele><time>2026-04-19T15:01:31.885Z</time></trkpt><trkpt lat="44.306874889117246" lon="9.713787306102514"><ele>807.0</ele><time>2026-04-19T15:01:32.884Z</time></trkpt><trkpt lat="44.307003817761334" lon="9.713800180093273"><ele>807.0</ele><time>2026-04-19T15:01:33.885Z</time></trkpt><trkpt lat="44.30713425298326" lon="9.713828437855149"><ele>807.0</ele><time>2026-04-19T15:01:34.885Z</time></trkpt><trkpt lat="44.307272806140276" lon="9.713868770065208"><ele>807.0</ele><time>2026-04-19T15:01:35.885Z</time></trkpt><trkpt lat="44.30739001593168" lon="9.71387613788286"><ele>807.0</ele><time>2026-04-19T15:01:36.884Z</time></trkpt><trkpt lat="44.307496515076046" lon="9.71388922990931"><ele>805.8333333333334</ele><time>2026-04-19T15:01:37.884Z</time></trkpt><trkpt lat="44.3075896628211" lon="9.71390022134365"><ele>804.6666666666667</ele><time>2026-04-19T15:01:38.884Z</time></trkpt><trkpt lat="44.30766459739297" lon="9.71393440258267"><ele>803.5</ele><time>2026-04-19T15:01:39.884Z</time></trkpt><trkpt lat="44.307723372568425" lon="9.713992487387333"><ele>802.3333333333334</ele><time>2026-04-19T15:01:40.884Z</time></trkpt><trkpt lat="44.30777711096033" lon="9.714075947527034"><ele>801.1666666666667</ele><time>2026-04-19T15:01:41.884Z</time></trkpt><trkpt lat="44.307820554357846" lon="9.714206884747133"><ele>800.0</ele><time>2026-04-19T15:01:42.884Z</time></trkpt><trkpt lat="44.30784078793272" lon="9.714341951006636"><ele>798.8333333333334</ele><time>2026-04-19T15:01:43.884Z</time></trkpt><trkpt lat="44.3078501051544" lon="9.71447048472538"><ele>797.6666666666667</ele><time>2026-04-19T15:01:44.884Z</time></trkpt><trkpt lat="44.30783138571019" lon="9.714596949450947"><ele>796.5</ele><time>2026-04-19T15:01:45.884Z</time></trkpt><trkpt lat="44.307798841301704" lon="9.71471613784464"><ele>795.3333333333333</ele><time>2026-04-19T15:01:46.884Z</time></trkpt><trkpt lat="44.30776614996612" lon="9.71482163886934"><ele>794.1666666666666</ele><time>2026-04-19T15:01:47.884Z</time></trkpt><trkpt lat="44.307742676333554" lon="9.714905131546475"><ele>793.0</ele><time>2026-04-19T15:01:48.884Z</time></trkpt><trkpt lat="44.30774970494357" lon="9.71505967246066"><ele>793.0</ele><time>2026-04-19T15:01:50.884Z</time></trkpt><trkpt lat="44.307802866391995" lon="9.715123215816506"><ele>793.0</ele><time>2026-04-19T15:01:51.884Z</time></trkpt><trkpt lat="44.307873450474865" lon="9.71517664992625"><ele>793.0</ele><time>2026-04-19T15:01:52.884Z</time></trkpt><trkpt lat="44.30796414856864" lon="9.71521465300084"><ele>793.0</ele><time>2026-04-19T15:01:53.884Z</time></trkpt><trkpt lat="44.30807315145593" lon="9.71525616648162"><ele>793.0</ele><time>2026-04-19T15:01:54.884Z</time></trkpt><trkpt lat="44.30820464001972" lon="9.715315273455143"><ele>791.6666666666666</ele><time>2026-04-19T15:01:55.884Z</time></trkpt><trkpt lat="44.30834370196335" lon="9.715389560315915"><ele>790.3333333333333</ele><time>2026-04-19T15:01:56.884Z</time></trkpt><trkpt lat="44.30849557456841" lon="9.71548314912657"><ele>789.0</ele><time>2026-04-19T15:01:57.884Z</time></trkpt><trkpt lat="44.30866128411209" lon="9.715585744495897"><ele>789.0</ele><time>2026-04-19T15:01:58.884Z</time></trkpt><trkpt lat="44.308839152288606" lon="9.715696764750522"><ele>789.0</ele><time>2026-04-19T15:01:59.884Z</time></trkpt><trkpt lat="44.30900460013282" lon="9.715796976832118"><ele>789.0</ele><time>2026-04-19T15:02:00.884Z</time></trkpt><trkpt lat="44.30914232952568" lon="9.715891470902726"><ele>788.2</ele><time>2026-04-19T15:02:01.884Z</time></trkpt><trkpt lat="44.309251122473206" lon="9.715986212427481"><ele>787.4000000000001</ele><time>2026-04-19T15:02:02.884Z</time></trkpt><trkpt lat="44.30933093143607" lon="9.716079572777927"><ele>786.6</ele><time>2026-04-19T15:02:03.884Z</time></trkpt><trkpt lat="44.30940593261731" lon="9.716153928349213"><ele>785.8</ele><time>2026-04-19T15:02:04.884Z</time></trkpt><trkpt lat="44.30949945715877" lon="9.71619215953024"><ele>785.0</ele><time>2026-04-19T15:02:05.884Z</time></trkpt><trkpt lat="44.30962087392761" lon="9.71619914554913"><ele>790.75</ele><time>2026-04-19T15:02:06.884Z</time></trkpt><trkpt lat="44.30974628216109" lon="9.716206200922107"><ele>796.5</ele><time>2026-04-19T15:02:07.884Z</time></trkpt><trkpt lat="44.30986442518822" lon="9.716271244184798"><ele>802.25</ele><time>2026-04-19T15:02:08.884Z</time></trkpt><trkpt lat="44.30996026028678" lon="9.716378681637368"><ele>808.0</ele><time>2026-04-19T15:02:09.884Z</time></trkpt><trkpt lat="44.310024828807315" lon="9.716520840010967"><ele>808.0</ele><time>2026-04-19T15:02:10.884Z</time></trkpt><trkpt lat="44.310086746758174" lon="9.716658533722839"><ele>808.0</ele><time>2026-04-19T15:02:11.884Z</time></trkpt><trkpt lat="44.31017191797827" lon="9.71676131006139"><ele>808.0</ele><time>2026-04-19T15:02:12.884Z</time></trkpt><trkpt lat="44.31028772657782" lon="9.716828657026634"><ele>808.0</ele><time>2026-04-19T15:02:13.884Z</time></trkpt><trkpt lat="44.3104119244442" lon="9.716878951571667"><ele>806.25</ele><time>2026-04-19T15:02:14.884Z</time></trkpt><trkpt lat="44.31054195651128" lon="9.716919562559509"><ele>804.5</ele><time>2026-04-19T15:02:15.884Z</time></trkpt><trkpt lat="44.31068375490538" lon="9.716967538620144"><ele>802.75</ele><time>2026-04-19T15:02:16.884Z</time></trkpt><trkpt lat="44.31084225270757" lon="9.717023323519141"><ele>801.0</ele><time>2026-04-19T15:02:17.884Z</time></trkpt><trkpt lat="44.31099804038562" lon="9.717081546220722"><ele>801.0</ele><time>2026-04-19T15:02:18.884Z</time></trkpt><trkpt lat="44.31113430812652" lon="9.717134287378812"><ele>801.0</ele><time>2026-04-19T15:02:19.884Z</time></trkpt><trkpt lat="44.31125466231724" lon="9.717189588981828"><ele>801.0</ele><time>2026-04-19T15:02:20.884Z</time></trkpt><trkpt lat="44.31136763856783" lon="9.717276693837936"><ele>801.0</ele><time>2026-04-19T15:02:21.884Z</time></trkpt><trkpt lat="44.31147265141694" lon="9.717369707599236"><ele>803.25</ele><time>2026-04-19T15:02:22.884Z</time></trkpt><trkpt lat="44.31157188379826" lon="9.717464044717449"><ele>805.5</ele><time>2026-04-19T15:02:23.884Z</time></trkpt><trkpt lat="44.31168055162252" lon="9.717507019552938"><ele>807.75</ele><time>2026-04-19T15:02:24.884Z</time></trkpt><trkpt lat="44.311793237774616" lon="9.717538024680751"><ele>810.0</ele><time>2026-04-19T15:02:25.884Z</time></trkpt><trkpt lat="44.31191861003735" lon="9.717554867494824"><ele>810.0</ele><time>2026-04-19T15:02:26.884Z</time></trkpt><trkpt lat="44.31202688607398" lon="9.717578153374838"><ele>810.0</ele><time>2026-04-19T15:02:27.884Z</time></trkpt><trkpt lat="44.312105767565825" lon="9.717595515810222"><ele>810.0</ele><time>2026-04-19T15:02:28.884Z</time></trkpt><trkpt lat="44.3121720172202" lon="9.717616357861255"><ele>810.0</ele><time>2026-04-19T15:02:29.884Z</time></trkpt><trkpt lat="44.31222935637934" lon="9.717655761394418"><ele>810.0</ele><time>2026-04-19T15:02:30.884Z</time></trkpt><trkpt lat="44.312306616537754" lon="9.717809391426027"><ele>810.4</ele><time>2026-04-19T15:02:32.884Z</time></trkpt><trkpt lat="44.31232862400313" lon="9.717927294136453"><ele>810.8</ele><time>2026-04-19T15:02:33.884Z</time></trkpt><trkpt lat="44.31235604922913" lon="9.718064400039838"><ele>811.2</ele><time>2026-04-19T15:02:34.884Z</time></trkpt><trkpt lat="44.31238755228469" lon="9.71821145562989"><ele>811.6</ele><time>2026-04-19T15:02:35.884Z</time></trkpt><trkpt lat="44.31242039136075" lon="9.718355995985934"><ele>812.0</ele><time>2026-04-19T15:02:36.885Z</time></trkpt><trkpt lat="44.31245557482517" lon="9.718499062887235"><ele>812.0</ele><time>2026-04-19T15:02:37.885Z</time></trkpt><trkpt lat="44.31249297049399" lon="9.718651161064146"><ele>812.0</ele><time>2026-04-19T15:02:38.885Z</time></trkpt><trkpt lat="44.31253004858759" lon="9.718806992693073"><ele>812.0</ele><time>2026-04-19T15:02:39.885Z</time></trkpt><trkpt lat="44.31256841996655" lon="9.718964579113775"><ele>812.0</ele><time>2026-04-19T15:02:40.885Z</time></trkpt><trkpt lat="44.31260829830347" lon="9.719124380833277"><ele>812.0</ele><time>2026-04-19T15:02:41.885Z</time></trkpt><trkpt lat="44.3126448870636" lon="9.71927697191476"><ele>812.0</ele><time>2026-04-19T15:02:42.885Z</time></trkpt><trkpt lat="44.312680044934574" lon="9.71943460130976"><ele>812.0</ele><time>2026-04-19T15:02:43.885Z</time></trkpt><trkpt lat="44.31271500968637" lon="9.719591447787549"><ele>812.0</ele><time>2026-04-19T15:02:44.885Z</time></trkpt><trkpt lat="44.31274980233555" lon="9.719722978607798"><ele>810.5</ele><time>2026-04-19T15:02:45.885Z</time></trkpt><trkpt lat="44.31279988231106" lon="9.719829445640691"><ele>809.0</ele><time>2026-04-19T15:02:46.885Z</time></trkpt><trkpt lat="44.312885330881016" lon="9.719922223871054"><ele>807.5</ele><time>2026-04-19T15:02:47.885Z</time></trkpt><trkpt lat="44.312996957395846" lon="9.719988140149924"><ele>806.0</ele><time>2026-04-19T15:02:48.885Z</time></trkpt><trkpt lat="44.31312477179688" lon="9.720063791639145"><ele>806.5</ele><time>2026-04-19T15:02:49.885Z</time></trkpt><trkpt lat="44.31323818577685" lon="9.720141846962887"><ele>807.0</ele><time>2026-04-19T15:02:50.885Z</time></trkpt><trkpt lat="44.31334661273172" lon="9.72021392233208"><ele>807.5</ele><time>2026-04-19T15:02:51.885Z</time></trkpt><trkpt lat="44.31345537326077" lon="9.72023724884889"><ele>808.0</ele><time>2026-04-19T15:02:52.885Z</time></trkpt><trkpt lat="44.313562217980504" lon="9.720211712194633"><ele>812.0</ele><time>2026-04-19T15:02:53.885Z</time></trkpt><trkpt lat="44.313683617489424" lon="9.720173882878552"><ele>816.0</ele><time>2026-04-19T15:02:54.885Z</time></trkpt><trkpt lat="44.31380444239883" lon="9.720176696528402"><ele>820.0</ele><time>2026-04-19T15:02:55.885Z</time></trkpt><trkpt lat="44.313920227115354" lon="9.720208629395222"><ele>824.0</ele><time>2026-04-19T15:02:56.885Z</time></trkpt><trkpt lat="44.31404087640134" lon="9.720266663373119"><ele>824.0</ele><time>2026-04-19T15:02:57.885Z</time></trkpt><trkpt lat="44.31415487532518" lon="9.720359355041994"><ele>824.0</ele><time>2026-04-19T15:02:58.885Z</time></trkpt><trkpt lat="44.3142693775074" lon="9.7204732381139"><ele>824.0</ele><time>2026-04-19T15:02:59.885Z</time></trkpt><trkpt lat="44.31436840182192" lon="9.720575923704613"><ele>824.0</ele><time>2026-04-19T15:03:00.885Z</time></trkpt><trkpt lat="44.314442461907255" lon="9.720677191885683"><ele>824.0</ele><time>2026-04-19T15:03:01.885Z</time></trkpt><trkpt lat="44.3145101313776" lon="9.720799536191699"><ele>824.0</ele><time>2026-04-19T15:03:02.885Z</time></trkpt><trkpt lat="44.31457474614019" lon="9.72095108816844"><ele>824.0</ele><time>2026-04-19T15:03:03.885Z</time></trkpt><trkpt lat="44.31464525367851" lon="9.72109246268948"><ele>824.0</ele><time>2026-04-19T15:03:04.885Z</time></trkpt><trkpt lat="44.31473859638185" lon="9.721213416360898"><ele>823.6666666666667</ele><time>2026-04-19T15:03:05.885Z</time></trkpt><trkpt lat="44.31486724704508" lon="9.721316320799673"><ele>823.3333333333333</ele><time>2026-04-19T15:03:06.885Z</time></trkpt><trkpt lat="44.31499873670383" lon="9.721422219472059"><ele>823.0</ele><time>2026-04-19T15:03:07.885Z</time></trkpt><trkpt lat="44.315150785052246" lon="9.721528541658598"><ele>823.0</ele><time>2026-04-19T15:03:08.885Z</time></trkpt><trkpt lat="44.31530315861683" lon="9.721634072348046"><ele>823.0</ele><time>2026-04-19T15:03:09.885Z</time></trkpt><trkpt lat="44.31545914778558" lon="9.721717764234855"><ele>823.0</ele><time>2026-04-19T15:03:10.885Z</time></trkpt><trkpt lat="44.315618804585384" lon="9.72177927781561"><ele>827.3333333333333</ele><time>2026-04-19T15:03:11.885Z</time></trkpt><trkpt lat="44.31578076563818" lon="9.721821432197512"><ele>831.6666666666667</ele><time>2026-04-19T15:03:12.885Z</time></trkpt><trkpt lat="44.31595448462741" lon="9.721854239682306"><ele>836.0</ele><time>2026-04-19T15:03:13.885Z</time></trkpt><trkpt lat="44.316114689293755" lon="9.721892728605999"><ele>840.0</ele><time>2026-04-19T15:03:14.885Z</time></trkpt><trkpt lat="44.316269250402115" lon="9.721934882366794"><ele>844.0</ele><time>2026-04-19T15:03:15.885Z</time></trkpt><trkpt lat="44.316398964878275" lon="9.721975139785025"><ele>848.0</ele><time>2026-04-19T15:03:16.885Z</time></trkpt><trkpt lat="44.31650863439528" lon="9.722014552344161"><ele>852.0</ele><time>2026-04-19T15:03:17.885Z</time></trkpt><trkpt lat="44.31660288591256" lon="9.722037052149258"><ele>851.2</ele><time>2026-04-19T15:03:18.885Z</time></trkpt><trkpt lat="44.316693247608036" lon="9.72205752898573"><ele>850.4000000000001</ele><time>2026-04-19T15:03:19.885Z</time></trkpt><trkpt lat="44.31678244733556" lon="9.72203766231528"><ele>849.5999999999999</ele><time>2026-04-19T15:03:20.885Z</time></trkpt><trkpt lat="44.31686157213477" lon="9.72198990609816"><ele>848.8</ele><time>2026-04-19T15:03:21.885Z</time></trkpt><trkpt lat="44.31693721810358" lon="9.721914388220103"><ele>848.0</ele><time>2026-04-19T15:03:22.885Z</time></trkpt><trkpt lat="44.317000203589046" lon="9.721811523178554"><ele>848.0000000000001</ele><time>2026-04-19T15:03:23.885Z</time></trkpt><trkpt lat="44.31703771072155" lon="9.721683415526226"><ele>848.0</ele><time>2026-04-19T15:03:24.885Z</time></trkpt><trkpt lat="44.317076534992104" lon="9.721556058417054"><ele>848.0</ele><time>2026-04-19T15:03:25.885Z</time></trkpt><trkpt lat="44.317115268439984" lon="9.721448875564802"><ele>848.0</ele><time>2026-04-19T15:03:26.885Z</time></trkpt><trkpt lat="44.317164888140915" lon="9.721364544706471"><ele>848.0000000000001</ele><time>2026-04-19T15:03:27.885Z</time></trkpt><trkpt lat="44.31723947338631" lon="9.72130342352507"><ele>848.0</ele><time>2026-04-19T15:03:28.885Z</time></trkpt><trkpt lat="44.31733456115691" lon="9.721288486419837"><ele>850.8</ele><time>2026-04-19T15:03:29.883Z</time></trkpt><trkpt lat="44.31742933315274" lon="9.721321593971895"><ele>853.5999999999999</ele><time>2026-04-19T15:03:30.883Z</time></trkpt><trkpt lat="44.317524686304864" lon="9.721382403780114"><ele>856.4000000000001</ele><time>2026-04-19T15:03:31.883Z</time></trkpt><trkpt lat="44.317615118756635" lon="9.721470717469474"><ele>859.2</ele><time>2026-04-19T15:03:32.883Z</time></trkpt><trkpt lat="44.31770072177717" lon="9.721569439041852"><ele>862.0</ele><time>2026-04-19T15:03:33.883Z</time></trkpt><trkpt lat="44.31779045232079" lon="9.721663351305093"><ele>862.0</ele><time>2026-04-19T15:03:34.883Z</time></trkpt><trkpt lat="44.317880084838514" lon="9.72174614243778"><ele>862.0</ele><time>2026-04-19T15:03:35.883Z</time></trkpt><trkpt lat="44.317963784356905" lon="9.721820806567074"><ele>862.0</ele><time>2026-04-19T15:03:36.884Z</time></trkpt><trkpt lat="44.31804788791627" lon="9.72187002464665"><ele>862.0</ele><time>2026-04-19T15:03:37.884Z</time></trkpt><trkpt lat="44.31815286051192" lon="9.72187534040937"><ele>862.0</ele><time>2026-04-19T15:03:38.883Z</time></trkpt><trkpt lat="44.31828003172816" lon="9.72185038445669"><ele>863.3333333333333</ele><time>2026-04-19T15:03:39.883Z</time></trkpt><trkpt lat="44.31843192938205" lon="9.721823929117022"><ele>864.6666666666667</ele><time>2026-04-19T15:03:40.883Z</time></trkpt><trkpt lat="44.3185919368628" lon="9.721801445424095"><ele>866.0</ele><time>2026-04-19T15:03:41.883Z</time></trkpt><trkpt lat="44.31875308815795" lon="9.721770230107516"><ele>868.6666666666667</ele><time>2026-04-19T15:03:42.883Z</time></trkpt><trkpt lat="44.31890788480432" lon="9.72171169860567"><ele>871.3333333333333</ele><time>2026-04-19T15:03:43.883Z</time></trkpt><trkpt lat="44.3190627280857" lon="9.72163109540518"><ele>874.0</ele><time>2026-04-19T15:03:44.883Z</time></trkpt><trkpt lat="44.3192139371426" lon="9.7215299732809"><ele>874.0</ele><time>2026-04-19T15:03:45.883Z</time></trkpt><trkpt lat="44.319369994935" lon="9.721433032161313"><ele>874.0</ele><time>2026-04-19T15:03:46.884Z</time></trkpt><trkpt lat="44.31951431901959" lon="9.721347798546727"><ele>874.0</ele><time>2026-04-19T15:03:47.884Z</time></trkpt><trkpt lat="44.319635137288245" lon="9.721281363614855"><ele>878.25</ele><time>2026-04-19T15:03:48.884Z</time></trkpt><trkpt lat="44.31974822753991" lon="9.721266200820208"><ele>882.5</ele><time>2026-04-19T15:03:49.884Z</time></trkpt><trkpt lat="44.3198727611353" lon="9.721291467906978"><ele>886.75</ele><time>2026-04-19T15:03:50.884Z</time></trkpt><trkpt lat="44.319998524964284" lon="9.72132927691035"><ele>891.0</ele><time>2026-04-19T15:03:51.884Z</time></trkpt><trkpt lat="44.32009875863469" lon="9.721350597557443"><ele>891.0</ele><time>2026-04-19T15:03:52.884Z</time></trkpt><trkpt lat="44.32017994025265" lon="9.721318817864034"><ele>890.9999999999999</ele><time>2026-04-19T15:03:53.884Z</time></trkpt><trkpt lat="44.320242254422396" lon="9.721227129166808"><ele>890.9999999999999</ele><time>2026-04-19T15:03:54.884Z</time></trkpt><trkpt lat="44.320272450911126" lon="9.721077365017946"><ele>891.0</ele><time>2026-04-19T15:03:55.884Z</time></trkpt><trkpt lat="44.320264346820046" lon="9.720909817133775"><ele>891.0</ele><time>2026-04-19T15:03:56.884Z</time></trkpt><trkpt lat="44.320240490237644" lon="9.720738348232238"><ele>888.0</ele><time>2026-04-19T15:03:57.884Z</time></trkpt><trkpt lat="44.32021995447418" lon="9.720586764195344"><ele>884.9999999999999</ele><time>2026-04-19T15:03:58.884Z</time></trkpt><trkpt lat="44.32022155660285" lon="9.720480543909545"><ele>881.9999999999999</ele><time>2026-04-19T15:03:59.884Z</time></trkpt><trkpt lat="44.320278226346794" lon="9.720406462053937"><ele>879.0</ele><time>2026-04-19T15:04:00.884Z</time></trkpt><trkpt lat="44.3203647076402" lon="9.720375309670981"><ele>876.0</ele><time>2026-04-19T15:04:01.884Z</time></trkpt><trkpt lat="44.320462327869045" lon="9.720376221764909"><ele>879.0</ele><time>2026-04-19T15:04:02.884Z</time></trkpt><trkpt lat="44.320570808033224" lon="9.72041019544331"><ele>881.9999999999999</ele><time>2026-04-19T15:04:03.884Z</time></trkpt><trkpt lat="44.32067627625707" lon="9.720439881968842"><ele>884.9999999999999</ele><time>2026-04-19T15:04:04.884Z</time></trkpt><trkpt lat="44.320770663830196" lon="9.720465717898207"><ele>888.0</ele><time>2026-04-19T15:04:05.884Z</time></trkpt><trkpt lat="44.32085659427061" lon="9.72054026270554"><ele>891.0</ele><time>2026-04-19T15:04:06.884Z</time></trkpt><trkpt lat="44.32092777287159" lon="9.72064325263007"><ele>891.0</ele><time>2026-04-19T15:04:07.884Z</time></trkpt><trkpt lat="44.320962219607104" lon="9.720736600776851"><ele>890.9999999999999</ele><time>2026-04-19T15:04:08.884Z</time></trkpt><trkpt lat="44.320976732142825" lon="9.720858203476721"><ele>890.9999999999999</ele><time>2026-04-19T15:04:09.884Z</time></trkpt><trkpt lat="44.320980912127716" lon="9.721008177210296"><ele>891.0</ele><time>2026-04-19T15:04:10.884Z</time></trkpt><trkpt lat="44.320948051335506" lon="9.721154696897619"><ele>891.0</ele><time>2026-04-19T15:04:11.884Z</time></trkpt><trkpt lat="44.32088369184306" lon="9.72127411989934"><ele>891.0</ele><time>2026-04-19T15:04:12.884Z</time></trkpt><trkpt lat="44.32079859628559" lon="9.721361482249817"><ele>890.9999999999999</ele><time>2026-04-19T15:04:13.884Z</time></trkpt><trkpt lat="44.32068782675706" lon="9.721429045633071"><ele>890.9999999999999</ele><time>2026-04-19T15:04:14.884Z</time></trkpt><trkpt lat="44.3205817068279" lon="9.721486146680379"><ele>891.0</ele><time>2026-04-19T15:04:15.884Z</time></trkpt><trkpt lat="44.32049057005409" lon="9.72155039207168"><ele>891.0</ele><time>2026-04-19T15:04:16.884Z</time></trkpt><trkpt lat="44.32043706726817" lon="9.721662303186715"><ele>891.0</ele><time>2026-04-19T15:04:17.884Z</time></trkpt><trkpt lat="44.32037993119292" lon="9.721806984097418"><ele>891.0</ele><time>2026-04-19T15:04:18.884Z</time></trkpt><trkpt lat="44.320295626826656" lon="9.721937188899975"><ele>891.0</ele><time>2026-04-19T15:04:19.884Z</time></trkpt><trkpt lat="44.32018405683943" lon="9.722009637260973"><ele>891.0</ele><time>2026-04-19T15:04:20.884Z</time></trkpt><trkpt lat="44.32008516471283" lon="9.722085034537528"><ele>894.8</ele><time>2026-04-19T15:04:21.884Z</time></trkpt><trkpt lat="44.319999461292646" lon="9.722163704300705"><ele>898.5999999999999</ele><time>2026-04-19T15:04:22.884Z</time></trkpt><trkpt lat="44.319927881864594" lon="9.722259896063"><ele>902.4</ele><time>2026-04-19T15:04:23.884Z</time></trkpt><trkpt lat="44.319878262681065" lon="9.722370873970899"><ele>906.2</ele><time>2026-04-19T15:04:24.884Z</time></trkpt><trkpt lat="44.31984462926615" lon="9.722525070298905"><ele>910.0</ele><time>2026-04-19T15:04:25.884Z</time></trkpt><trkpt lat="44.31981274206139" lon="9.722682424039531"><ele>910.25</ele><time>2026-04-19T15:04:26.884Z</time></trkpt><trkpt lat="44.31976812321857" lon="9.722815984953316"><ele>910.5</ele><time>2026-04-19T15:04:27.884Z</time></trkpt><trkpt lat="44.31970688190172" lon="9.72293088198705"><ele>910.75</ele><time>2026-04-19T15:04:28.884Z</time></trkpt><trkpt lat="44.31960918365754" lon="9.723019628008135"><ele>911.0</ele><time>2026-04-19T15:04:29.884Z</time></trkpt><trkpt lat="44.31949380106893" lon="9.723087200448331"><ele>911.0</ele><time>2026-04-19T15:04:30.884Z</time></trkpt><trkpt lat="44.31938945239902" lon="9.723145648660315"><ele>911.0</ele><time>2026-04-19T15:04:31.884Z</time></trkpt><trkpt lat="44.31929570972959" lon="9.72322172913302"><ele>911.0</ele><time>2026-04-19T15:04:32.884Z</time></trkpt><trkpt lat="44.31921034814316" lon="9.723327535740335"><ele>911.0</ele><time>2026-04-19T15:04:33.884Z</time></trkpt><trkpt lat="44.31913161934506" lon="9.72344894289721"><ele>911.0</ele><time>2026-04-19T15:04:34.884Z</time></trkpt><trkpt lat="44.319041874298485" lon="9.723558341032016"><ele>911.0</ele><time>2026-04-19T15:04:35.884Z</time></trkpt><trkpt lat="44.31893432519901" lon="9.723631231532801"><ele>911.0</ele><time>2026-04-19T15:04:36.884Z</time></trkpt><trkpt lat="44.318808619722205" lon="9.723689855907672"><ele>911.0</ele><time>2026-04-19T15:04:37.884Z</time></trkpt><trkpt lat="44.31869227698239" lon="9.72375817459886"><ele>913.75</ele><time>2026-04-19T15:04:38.884Z</time></trkpt><trkpt lat="44.31856213466713" lon="9.72383292850708"><ele>916.5</ele><time>2026-04-19T15:04:39.884Z</time></trkpt><trkpt lat="44.31844683189462" lon="9.723919914775076"><ele>919.25</ele><time>2026-04-19T15:04:40.884Z</time></trkpt><trkpt lat="44.318349860927796" lon="9.723994821001682"><ele>922.0</ele><time>2026-04-19T15:04:41.884Z</time></trkpt><trkpt lat="44.318267425538515" lon="9.724058945932462"><ele>922.0</ele><time>2026-04-19T15:04:42.884Z</time></trkpt><trkpt lat="44.31820954092114" lon="9.724127630293408"><ele>922.0</ele><time>2026-04-19T15:04:43.884Z</time></trkpt><trkpt lat="44.31816962740797" lon="9.72422440106467"><ele>922.0</ele><time>2026-04-19T15:04:44.884Z</time></trkpt><trkpt lat="44.31815871162093" lon="9.72435691891803"><ele>922.0</ele><time>2026-04-19T15:04:45.884Z</time></trkpt><trkpt lat="44.31817626611941" lon="9.72449573535973"><ele>922.0</ele><time>2026-04-19T15:04:46.884Z</time></trkpt><trkpt lat="44.31823715079241" lon="9.724644332523898"><ele>922.25</ele><time>2026-04-19T15:04:47.884Z</time></trkpt><trkpt lat="44.318295677545215" lon="9.724786820094877"><ele>922.5</ele><time>2026-04-19T15:04:48.884Z</time></trkpt><trkpt lat="44.318363669499696" lon="9.72493914195177"><ele>922.75</ele><time>2026-04-19T15:04:49.884Z</time></trkpt><trkpt lat="44.318446016721914" lon="9.725081400218636"><ele>923.0</ele><time>2026-04-19T15:04:50.884Z</time></trkpt><trkpt lat="44.31854347939801" lon="9.725205246576385"><ele>924.8</ele><time>2026-04-19T15:04:51.884Z</time></trkpt><trkpt lat="44.31863126957963" lon="9.725307813993519"><ele>926.5999999999999</ele><time>2026-04-19T15:04:52.884Z</time></trkpt><trkpt lat="44.318713147317794" lon="9.72539203625679"><ele>928.4000000000001</ele><time>2026-04-19T15:04:53.884Z</time></trkpt><trkpt lat="44.318803028238285" lon="9.725458770045138"><ele>930.2</ele><time>2026-04-19T15:04:54.884Z</time></trkpt><trkpt lat="44.31892418208618" lon="9.725495187116504"><ele>932.0</ele><time>2026-04-19T15:04:55.884Z</time></trkpt><trkpt lat="44.319052258256974" lon="9.725525343408536"><ele>932.0</ele><time>2026-04-19T15:04:56.884Z</time></trkpt><trkpt lat="44.31918373552622" lon="9.725558176283934"><ele>932.0</ele><time>2026-04-19T15:04:57.884Z</time></trkpt><trkpt lat="44.31928506540099" lon="9.725585506081547"><ele>932.0</ele><time>2026-04-19T15:04:58.884Z</time></trkpt><trkpt lat="44.3193714726178" lon="9.725633096345911"><ele>932.0</ele><time>2026-04-19T15:04:59.884Z</time></trkpt><trkpt lat="44.319440343357535" lon="9.72571412650477"><ele>932.0</ele><time>2026-04-19T15:05:00.884Z</time></trkpt><trkpt lat="44.319480762571" lon="9.725822799142971"><ele>932.0</ele><time>2026-04-19T15:05:01.884Z</time></trkpt><trkpt lat="44.31948079208907" lon="9.725968363044736"><ele>932.0</ele><time>2026-04-19T15:05:02.884Z</time></trkpt><trkpt lat="44.31947951107559" lon="9.726094543363498"><ele>932.0</ele><time>2026-04-19T15:05:03.884Z</time></trkpt><trkpt lat="44.319509933359406" lon="9.726207045247959"><ele>932.0</ele><time>2026-04-19T15:05:04.884Z</time></trkpt><trkpt lat="44.31956840088121" lon="9.72631872352913"><ele>932.0</ele><time>2026-04-19T15:05:05.884Z</time></trkpt><trkpt lat="44.319659703062676" lon="9.726407445728388"><ele>935.5</ele><time>2026-04-19T15:05:06.884Z</time></trkpt><trkpt lat="44.31977182145952" lon="9.726446770146547"><ele>939.0</ele><time>2026-04-19T15:05:07.884Z</time></trkpt><trkpt lat="44.319896295719275" lon="9.726511071076912"><ele>942.5</ele><time>2026-04-19T15:05:08.884Z</time></trkpt><trkpt lat="44.32002739722206" lon="9.726609804771435"><ele>946.0</ele><time>2026-04-19T15:05:09.884Z</time></trkpt><trkpt lat="44.32011673330588" lon="9.726726397873435"><ele>946.0</ele><time>2026-04-19T15:05:10.884Z</time></trkpt><trkpt lat="44.32017364544735" lon="9.726848314416316"><ele>945.9999999999999</ele><time>2026-04-19T15:05:11.884Z</time></trkpt><trkpt lat="44.32022659358171" lon="9.726928318138832"><ele>945.9999999999999</ele><time>2026-04-19T15:05:12.884Z</time></trkpt><trkpt lat="44.32027275296598" lon="9.727027575053008"><ele>946.0</ele><time>2026-04-19T15:05:13.884Z</time></trkpt><trkpt lat="44.32028859696982" lon="9.727147803650986"><ele>946.0</ele><time>2026-04-19T15:05:14.884Z</time></trkpt><trkpt lat="44.320255517212324" lon="9.727280641102459"><ele>945.1999999999999</ele><time>2026-04-19T15:05:15.884Z</time></trkpt><trkpt lat="44.32021928607076" lon="9.727410440413049"><ele>944.3999999999999</ele><time>2026-04-19T15:05:16.884Z</time></trkpt><trkpt lat="44.3202212082209" lon="9.727533454295383"><ele>943.6</ele><time>2026-04-19T15:05:17.884Z</time></trkpt><trkpt lat="44.32023421867592" lon="9.727665520966735"><ele>942.8</ele><time>2026-04-19T15:05:18.884Z</time></trkpt><trkpt lat="44.320287807903846" lon="9.727779751601465"><ele>942.0</ele><time>2026-04-19T15:05:19.884Z</time></trkpt><trkpt lat="44.32037786026055" lon="9.727873924429478"><ele>941.75</ele><time>2026-04-19T15:05:20.884Z</time></trkpt><trkpt lat="44.3204805953849" lon="9.727958845844126"><ele>941.5</ele><time>2026-04-19T15:05:21.884Z</time></trkpt><trkpt lat="44.3205687542756" lon="9.728065282303268"><ele>941.25</ele><time>2026-04-19T15:05:22.884Z</time></trkpt><trkpt lat="44.32063840943205" lon="9.72819753388606"><ele>941.0</ele><time>2026-04-19T15:05:23.884Z</time></trkpt><trkpt lat="44.32065371502197" lon="9.728355571389166"><ele>944.0000000000001</ele><time>2026-04-19T15:05:24.884Z</time></trkpt><trkpt lat="44.32065999634149" lon="9.728496481973844"><ele>947.0</ele><time>2026-04-19T15:05:25.884Z</time></trkpt><trkpt lat="44.32067576423432" lon="9.728632320090524"><ele>950.0</ele><time>2026-04-19T15:05:26.884Z</time></trkpt><trkpt lat="44.32068872538294" lon="9.728748340706222"><ele>953.0</ele><time>2026-04-19T15:05:27.884Z</time></trkpt><trkpt lat="44.32070002794538" lon="9.728838303048063"><ele>956.0000000000001</ele><time>2026-04-19T15:05:28.884Z</time></trkpt><trkpt lat="44.32072127808182" lon="9.728954519540483"><ele>959.0</ele><time>2026-04-19T15:05:30.884Z</time></trkpt><trkpt lat="44.3207729835615" lon="9.72906697757488"><ele>959.0000000000001</ele><time>2026-04-19T15:05:33.884Z</time></trkpt><trkpt lat="44.320824873784495" lon="9.729130165487241"><ele>959.0</ele><time>2026-04-19T15:05:35.882Z</time></trkpt><trkpt lat="44.32091763894804" lon="9.729172096339633"><ele>959.0</ele><time>2026-04-19T15:05:38.881Z</time></trkpt><trkpt lat="44.32100078216797" lon="9.729171280963282"><ele>959.0</ele><time>2026-04-19T15:05:40.882Z</time></trkpt><trkpt lat="44.321078780171604" lon="9.729157403530353"><ele>959.0000000000001</ele><time>2026-04-19T15:05:42.881Z</time></trkpt><trkpt lat="44.32114181963042" lon="9.729136081206931"><ele>959.0</ele><time>2026-04-19T15:05:46.882Z</time></trkpt><trkpt lat="44.32123345849476" lon="9.72909486520881"><ele>959.0000000000001</ele><time>2026-04-19T15:07:39.883Z</time></trkpt><trkpt lat="44.321293696032335" lon="9.729043370849377"><ele>959.0</ele><time>2026-04-19T15:07:42.881Z</time></trkpt><trkpt lat="44.32137220335933" lon="9.728992989179662"><ele>959.0</ele><time>2026-04-19T15:07:44.881Z</time></trkpt><trkpt lat="44.32146598889989" lon="9.728925923914874"><ele>959.0</ele><time>2026-04-19T15:07:46.881Z</time></trkpt><trkpt lat="44.32157019947892" lon="9.728853772862603"><ele>959.0000000000001</ele><time>2026-04-19T15:07:48.881Z</time></trkpt><trkpt lat="44.32163326816129" lon="9.728835647540372"><ele>959.0</ele><time>2026-04-19T15:07:49.881Z</time></trkpt><trkpt lat="44.321701100287065" lon="9.728829092710752"><ele>960.1666666666667</ele><time>2026-04-19T15:07:50.881Z</time></trkpt><trkpt lat="44.32176851972978" lon="9.728845349627095"><ele>961.3333333333334</ele><time>2026-04-19T15:07:51.882Z</time></trkpt><trkpt lat="44.32184003972473" lon="9.728860522182012"><ele>962.5</ele><time>2026-04-19T15:07:52.882Z</time></trkpt><trkpt lat="44.32191527352328" lon="9.728878745333905"><ele>963.6666666666667</ele><time>2026-04-19T15:07:53.881Z</time></trkpt><trkpt lat="44.32199510178153" lon="9.728898786463567"><ele>964.8333333333334</ele><time>2026-04-19T15:07:54.881Z</time></trkpt><trkpt lat="44.322076061464166" lon="9.728920790973167"><ele>966.0</ele><time>2026-04-19T15:07:55.881Z</time></trkpt><trkpt lat="44.322153971452224" lon="9.728945022613896"><ele>966.0</ele><time>2026-04-19T15:07:56.881Z</time></trkpt><trkpt lat="44.32221766531305" lon="9.728971763588385"><ele>966.0</ele><time>2026-04-19T15:07:57.881Z</time></trkpt><trkpt lat="44.32232049096746" lon="9.7290187960167"><ele>966.0</ele><time>2026-04-19T15:07:59.881Z</time></trkpt><trkpt lat="44.32239257306405" lon="9.729084028815294"><ele>966.0</ele><time>2026-04-19T15:08:01.881Z</time></trkpt><trkpt lat="44.322462791324575" lon="9.72913677369335"><ele>966.0</ele><time>2026-04-19T15:08:04.881Z</time></trkpt><trkpt lat="44.32252660412168" lon="9.729153034613699"><ele>966.0</ele><time>2026-04-19T15:08:06.881Z</time></trkpt><trkpt lat="44.32264156634903" lon="9.729144515645121"><ele>965.8333333333334</ele><time>2026-04-19T15:08:08.881Z</time></trkpt><trkpt lat="44.32274069665498" lon="9.729200307978303"><ele>965.6666666666667</ele><time>2026-04-19T15:08:10.881Z</time></trkpt><trkpt lat="44.32280127732404" lon="9.729351013925253"><ele>965.5</ele><time>2026-04-19T15:08:12.881Z</time></trkpt><trkpt lat="44.32281847838278" lon="9.729440022633577"><ele>965.3333333333334</ele><time>2026-04-19T15:08:13.881Z</time></trkpt><trkpt lat="44.322840415021105" lon="9.729528721729004"><ele>965.1666666666667</ele><time>2026-04-19T15:08:14.881Z</time></trkpt><trkpt lat="44.32287390024476" lon="9.729605555849258"><ele>965.0</ele><time>2026-04-19T15:08:15.881Z</time></trkpt><trkpt lat="44.32292765770351" lon="9.72966817874992"><ele>965.0000000000001</ele><time>2026-04-19T15:08:16.881Z</time></trkpt><trkpt lat="44.323000753782246" lon="9.729701692708986"><ele>965.0</ele><time>2026-04-19T15:08:17.881Z</time></trkpt><trkpt lat="44.32307889379852" lon="9.72970005664576"><ele>965.0</ele><time>2026-04-19T15:08:18.881Z</time></trkpt><trkpt lat="44.32316430352473" lon="9.729676350708031"><ele>965.0</ele><time>2026-04-19T15:08:19.881Z</time></trkpt><trkpt lat="44.32325265291755" lon="9.729662914679977"><ele>965.0000000000001</ele><time>2026-04-19T15:08:20.881Z</time></trkpt><trkpt lat="44.32334646770854" lon="9.729669058985916"><ele>965.0</ele><time>2026-04-19T15:08:21.881Z</time></trkpt><trkpt lat="44.323419548316686" lon="9.72970647826981"><ele>964.3333333333334</ele><time>2026-04-19T15:08:22.881Z</time></trkpt><trkpt lat="44.32348073262603" lon="9.729774964209996"><ele>963.6666666666667</ele><time>2026-04-19T15:08:23.881Z</time></trkpt><trkpt lat="44.323520037883206" lon="9.729872789423553"><ele>963.0</ele><time>2026-04-19T15:08:24.881Z</time></trkpt><trkpt lat="44.32355212312177" lon="9.729991267628312"><ele>962.3333333333333</ele><time>2026-04-19T15:08:25.881Z</time></trkpt><trkpt lat="44.32357440761494" lon="9.730091545520684"><ele>961.6666666666666</ele><time>2026-04-19T15:08:26.881Z</time></trkpt><trkpt lat="44.323623193786084" lon="9.730230289399103"><ele>961.0</ele><time>2026-04-19T15:08:28.881Z</time></trkpt><trkpt lat="44.32369971984176" lon="9.730340016077493"><ele>960.9999999999999</ele><time>2026-04-19T15:08:30.881Z</time></trkpt><trkpt lat="44.323760854434504" lon="9.730386972390829"><ele>961.0</ele><time>2026-04-19T15:08:31.881Z</time></trkpt><trkpt lat="44.32382607379614" lon="9.730426659611059"><ele>961.0</ele><time>2026-04-19T15:08:32.881Z</time></trkpt><trkpt lat="44.323896940153595" lon="9.7304737947631"><ele>961.0</ele><time>2026-04-19T15:08:33.881Z</time></trkpt><trkpt lat="44.323975831208735" lon="9.730525105197135"><ele>960.9999999999999</ele><time>2026-04-19T15:08:34.881Z</time></trkpt><trkpt lat="44.324053490488865" lon="9.730572083389339"><ele>961.0</ele><time>2026-04-19T15:08:35.881Z</time></trkpt><trkpt lat="44.32413537806342" lon="9.730623763499272"><ele>965.4</ele><time>2026-04-19T15:08:37.881Z</time></trkpt><trkpt lat="44.3242013784492" lon="9.730622672200496"><ele>969.8</ele><time>2026-04-19T15:09:10.882Z</time></trkpt><trkpt lat="44.32430863748716" lon="9.730599066294745"><ele>974.1999999999999</ele><time>2026-04-19T15:09:13.882Z</time></trkpt><trkpt lat="44.32441102450791" lon="9.730534771016055"><ele>978.5999999999999</ele><time>2026-04-19T15:09:15.882Z</time></trkpt><trkpt lat="44.32450573840041" lon="9.730457565354067"><ele>983.0</ele><time>2026-04-19T15:09:17.882Z</time></trkpt><trkpt lat="44.324599509194485" lon="9.730379471135718"><ele>983.0</ele><time>2026-04-19T15:09:19.882Z</time></trkpt><trkpt lat="44.324695136879505" lon="9.730374257420166"><ele>983.0</ele><time>2026-04-19T15:09:21.882Z</time></trkpt><trkpt lat="44.32478365424712" lon="9.73046953935578"><ele>983.0</ele><time>2026-04-19T15:09:23.882Z</time></trkpt><trkpt lat="44.324846618543624" lon="9.730609734099268"><ele>983.0</ele><time>2026-04-19T15:09:25.882Z</time></trkpt><trkpt lat="44.32490081898529" lon="9.730756468895223"><ele>983.0</ele><time>2026-04-19T15:09:27.882Z</time></trkpt><trkpt lat="44.324976962934954" lon="9.730881039006029"><ele>985.6666666666667</ele><time>2026-04-19T15:09:29.882Z</time></trkpt><trkpt lat="44.32503768994634" lon="9.730929938297809"><ele>988.3333333333334</ele><time>2026-04-19T15:09:30.882Z</time></trkpt><trkpt lat="44.325103885805554" lon="9.730958860151706"><ele>991.0</ele><time>2026-04-19T15:09:31.882Z</time></trkpt><trkpt lat="44.325177254989114" lon="9.730952324374364"><ele>993.6666666666667</ele><time>2026-04-19T15:09:32.882Z</time></trkpt><trkpt lat="44.325249270130406" lon="9.730912391124823"><ele>996.3333333333334</ele><time>2026-04-19T15:09:33.882Z</time></trkpt><trkpt lat="44.325314828571976" lon="9.730840033829729"><ele>999.0</ele><time>2026-04-19T15:09:34.882Z</time></trkpt><trkpt lat="44.325365570154915" lon="9.730759757670356"><ele>999.0</ele><time>2026-04-19T15:09:35.882Z</time></trkpt><trkpt lat="44.325417774959064" lon="9.73066342596617"><ele>999.0</ele><time>2026-04-19T15:09:36.882Z</time></trkpt><trkpt lat="44.32547197910338" lon="9.73056629097388"><ele>999.0</ele><time>2026-04-19T15:09:37.882Z</time></trkpt><trkpt lat="44.32553740384006" lon="9.73049505005237"><ele>999.0</ele><time>2026-04-19T15:09:38.882Z</time></trkpt><trkpt lat="44.325608252294494" lon="9.730443645304058"><ele>999.0</ele><time>2026-04-19T15:09:39.882Z</time></trkpt><trkpt lat="44.32568268848386" lon="9.730408761015791"><ele>999.0</ele><time>2026-04-19T15:09:40.882Z</time></trkpt><trkpt lat="44.32576547727344" lon="9.73037824744276"><ele>998.8333333333334</ele><time>2026-04-19T15:09:41.882Z</time></trkpt><trkpt lat="44.325850569314404" lon="9.730354681279772"><ele>998.6666666666667</ele><time>2026-04-19T15:09:42.882Z</time></trkpt><trkpt lat="44.32593234151341" lon="9.730337170789468"><ele>998.5</ele><time>2026-04-19T15:09:43.882Z</time></trkpt><trkpt lat="44.32600383982358" lon="9.730309547849734"><ele>998.3333333333334</ele><time>2026-04-19T15:09:44.882Z</time></trkpt><trkpt lat="44.32607293488455" lon="9.7302627274484"><ele>998.1666666666667</ele><time>2026-04-19T15:09:45.882Z</time></trkpt><trkpt lat="44.3261405013211" lon="9.730185469071825"><ele>998.0</ele><time>2026-04-19T15:09:46.882Z</time></trkpt><trkpt lat="44.32621163031213" lon="9.73009435544157"><ele>1000.8</ele><time>2026-04-19T15:09:47.881Z</time></trkpt><trkpt lat="44.32627670121453" lon="9.730025856722014"><ele>1003.5999999999999</ele><time>2026-04-19T15:09:48.881Z</time></trkpt><trkpt lat="44.32634332328839" lon="9.729966973175937"><ele>1006.4000000000001</ele><time>2026-04-19T15:09:49.881Z</time></trkpt><trkpt lat="44.32647256747158" lon="9.730028005307762"><ele>1009.2</ele><time>2026-04-19T15:09:51.88Z</time></trkpt><trkpt lat="44.32651192657842" lon="9.730117290549765"><ele>1012.0</ele><time>2026-04-19T15:09:52.88Z</time></trkpt><trkpt lat="44.326539059019396" lon="9.730230759427494"><ele>1012.0</ele><time>2026-04-19T15:09:53.88Z</time></trkpt><trkpt lat="44.32653928889358" lon="9.730336857511427"><ele>1012.0</ele><time>2026-04-19T15:09:54.88Z</time></trkpt><trkpt lat="44.32654099890659" lon="9.73050520420335"><ele>1012.0</ele><time>2026-04-19T15:09:56.881Z</time></trkpt><trkpt lat="44.32659856675584" lon="9.730645053520112"><ele>1012.0</ele><time>2026-04-19T15:09:58.88Z</time></trkpt><trkpt lat="44.32666336099382" lon="9.730695861518381"><ele>1012.0</ele><time>2026-04-19T15:09:59.88Z</time></trkpt><trkpt lat="44.32674938871003" lon="9.730716020726208"><ele>1011.9999999999999</ele><time>2026-04-19T15:10:00.881Z</time></trkpt><trkpt lat="44.32682918469602" lon="9.73074875739804"><ele>1012.0</ele><time>2026-04-19T15:10:01.881Z</time></trkpt><trkpt lat="44.32690207492149" lon="9.730798371525713"><ele>1012.0</ele><time>2026-04-19T15:10:02.881Z</time></trkpt><trkpt lat="44.32696239775532" lon="9.730879230883666"><ele>1012.0</ele><time>2026-04-19T15:10:04.881Z</time></trkpt><trkpt lat="44.32701738830239" lon="9.731003043531558"><ele>1011.9999999999999</ele><time>2026-04-19T15:10:07.881Z</time></trkpt><trkpt lat="44.32703663574553" lon="9.731104535707898"><ele>1012.0</ele><time>2026-04-19T15:10:08.881Z</time></trkpt><trkpt lat="44.32703145927195" lon="9.731230196716753"><ele>1011.6666666666666</ele><time>2026-04-19T15:10:09.881Z</time></trkpt><trkpt lat="44.327002096883305" lon="9.731341262065714"><ele>1011.3333333333333</ele><time>2026-04-19T15:10:10.881Z</time></trkpt><trkpt lat="44.326948252882815" lon="9.731437113487326"><ele>1011.0</ele><time>2026-04-19T15:10:12.881Z</time></trkpt><trkpt lat="44.32691026670887" lon="9.731533644803285"><ele>1010.6666666666667</ele><time>2026-04-19T15:10:28.881Z</time></trkpt><trkpt lat="44.326900925333916" lon="9.731644932095628"><ele>1010.3333333333334</ele><time>2026-04-19T15:10:31.881Z</time></trkpt><trkpt lat="44.3269015777912" lon="9.731777324677605"><ele>1010.0</ele><time>2026-04-19T15:10:33.881Z</time></trkpt><trkpt lat="44.32695185715821" lon="9.73193032712896"><ele>1010.0</ele><time>2026-04-19T15:10:35.881Z</time></trkpt><trkpt lat="44.32697502109211" lon="9.732012843066187"><ele>1009.9999999999999</ele><time>2026-04-19T15:10:36.881Z</time></trkpt><trkpt lat="44.3269971738033" lon="9.732100498164238"><ele>1010.0</ele><time>2026-04-19T15:10:37.881Z</time></trkpt><trkpt lat="44.3270169144" lon="9.732191306766136"><ele>1010.0</ele><time>2026-04-19T15:10:38.881Z</time></trkpt><trkpt lat="44.32703948262558" lon="9.732283893556767"><ele>1009.9999999999999</ele><time>2026-04-19T15:10:39.881Z</time></trkpt><trkpt lat="44.327061856182084" lon="9.73237355451798"><ele>1010.0</ele><time>2026-04-19T15:10:40.881Z</time></trkpt><trkpt lat="44.327083750813124" lon="9.732463048902623"><ele>1010.0</ele><time>2026-04-19T15:10:41.881Z</time></trkpt><trkpt lat="44.327112164558805" lon="9.732554707759268"><ele>1010.0000000000001</ele><time>2026-04-19T15:10:42.881Z</time></trkpt><trkpt lat="44.32714199900838" lon="9.73263704775816"><ele>1010.0</ele><time>2026-04-19T15:10:43.881Z</time></trkpt><trkpt lat="44.32717549523817" lon="9.732720653087135"><ele>1010.0</ele><time>2026-04-19T15:10:44.881Z</time></trkpt><trkpt lat="44.327191127666616" lon="9.732810707442964"><ele>1010.0</ele><time>2026-04-19T15:10:45.881Z</time></trkpt><trkpt lat="44.327194629462966" lon="9.732978411086695"><ele>1010.0000000000001</ele><time>2026-04-19T15:10:47.881Z</time></trkpt><trkpt lat="44.32719399335266" lon="9.733066757381065"><ele>1010.0</ele><time>2026-04-19T15:10:48.881Z</time></trkpt><trkpt lat="44.32724738528109" lon="9.733225279002236"><ele>1013.1428571428571</ele><time>2026-04-19T15:10:50.881Z</time></trkpt><trkpt lat="44.32729978641715" lon="9.733282347923934"><ele>1016.2857142857142</ele><time>2026-04-19T15:10:51.881Z</time></trkpt><trkpt lat="44.32736262364505" lon="9.733323695651553"><ele>1019.4285714285713</ele><time>2026-04-19T15:10:52.881Z</time></trkpt><trkpt lat="44.32743181566267" lon="9.733353957061981"><ele>1022.5714285714284</ele><time>2026-04-19T15:10:53.881Z</time></trkpt><trkpt lat="44.327507778837806" lon="9.733374276496741"><ele>1025.7142857142858</ele><time>2026-04-19T15:10:54.881Z</time></trkpt><trkpt lat="44.327583769361375" lon="9.733380891374765"><ele>1028.8571428571427</ele><time>2026-04-19T15:10:55.881Z</time></trkpt><trkpt lat="44.32766850516975" lon="9.733389612970667"><ele>1032.0</ele><time>2026-04-19T15:10:56.881Z</time></trkpt><trkpt lat="44.32775246417803" lon="9.733399809639796"><ele>1032.0</ele><time>2026-04-19T15:10:57.881Z</time></trkpt><trkpt lat="44.32783616177419" lon="9.733418049010393"><ele>1032.0</ele><time>2026-04-19T15:10:58.881Z</time></trkpt><trkpt lat="44.32791915630496" lon="9.733447717283937"><ele>1032.0</ele><time>2026-04-19T15:10:59.881Z</time></trkpt><trkpt lat="44.32800130504581" lon="9.733490124988567"><ele>1032.0</ele><time>2026-04-19T15:11:00.881Z</time></trkpt><trkpt lat="44.32808274291526" lon="9.733533959093293"><ele>1032.0</ele><time>2026-04-19T15:11:01.881Z</time></trkpt><trkpt lat="44.32816522784429" lon="9.733564631840661"><ele>1032.0</ele><time>2026-04-19T15:11:02.881Z</time></trkpt><trkpt lat="44.3282473423905" lon="9.733585708147974"><ele>1033.3333333333333</ele><time>2026-04-19T15:11:03.881Z</time></trkpt><trkpt lat="44.32831930426296" lon="9.733604679937708"><ele>1034.6666666666667</ele><time>2026-04-19T15:11:04.881Z</time></trkpt><trkpt lat="44.32839444848923" lon="9.73360847660935"><ele>1036.0</ele><time>2026-04-19T15:11:05.881Z</time></trkpt><trkpt lat="44.328460556782666" lon="9.733604774483789"><ele>1037.3333333333335</ele><time>2026-04-19T15:11:06.881Z</time></trkpt><trkpt lat="44.328565402747174" lon="9.733581358492238"><ele>1038.6666666666667</ele><time>2026-04-19T15:11:08.881Z</time></trkpt><trkpt lat="44.32864127284862" lon="9.733525481550982"><ele>1040.0</ele><time>2026-04-19T15:11:10.881Z</time></trkpt><trkpt lat="44.328684118308786" lon="9.733448970584007"><ele>1040.3333333333335</ele><time>2026-04-19T15:11:12.881Z</time></trkpt><trkpt lat="44.3287010068665" lon="9.733341496399289"><ele>1040.6666666666667</ele><time>2026-04-19T15:11:14.881Z</time></trkpt><trkpt lat="44.3287323164343" lon="9.73322674576983"><ele>1041.0</ele><time>2026-04-19T15:11:16.881Z</time></trkpt><trkpt lat="44.32877491690375" lon="9.733141220920054"><ele>1041.3333333333333</ele><time>2026-04-19T15:11:18.881Z</time></trkpt><trkpt lat="44.32883345050286" lon="9.733057312475854"><ele>1041.6666666666665</ele><time>2026-04-19T15:11:43.881Z</time></trkpt><trkpt lat="44.328904460428326" lon="9.732967623367516"><ele>1042.0</ele><time>2026-04-19T15:11:46.881Z</time></trkpt><trkpt lat="44.328988937919156" lon="9.732825673886637"><ele>1042.0</ele><time>2026-04-19T15:11:48.881Z</time></trkpt><trkpt lat="44.329032629144514" lon="9.732733708750903"><ele>1042.0</ele><time>2026-04-19T15:11:49.881Z</time></trkpt><trkpt lat="44.329074309620395" lon="9.732640745984035"><ele>1042.0</ele><time>2026-04-19T15:11:50.881Z</time></trkpt><trkpt lat="44.32910932881539" lon="9.732556066378569"><ele>1042.0</ele><time>2026-04-19T15:11:51.881Z</time></trkpt><trkpt lat="44.329127849304946" lon="9.732463617633128"><ele>1042.0</ele><time>2026-04-19T15:11:52.881Z</time></trkpt><trkpt lat="44.32912010307479" lon="9.732288745139423"><ele>1042.0</ele><time>2026-04-19T15:11:54.879Z</time></trkpt><trkpt lat="44.32906576084385" lon="9.732117406035266"><ele>1041.4285714285713</ele><time>2026-04-19T15:11:56.879Z</time></trkpt><trkpt lat="44.32903137218995" lon="9.732024991205238"><ele>1040.857142857143</ele><time>2026-04-19T15:11:57.88Z</time></trkpt><trkpt lat="44.32901816085783" lon="9.731926007104411"><ele>1040.2857142857142</ele><time>2026-04-19T15:11:58.88Z</time></trkpt><trkpt lat="44.32901918726359" lon="9.731829362449025"><ele>1039.7142857142858</ele><time>2026-04-19T15:11:59.879Z</time></trkpt><trkpt lat="44.32903308162385" lon="9.731743006279768"><ele>1039.142857142857</ele><time>2026-04-19T15:12:00.879Z</time></trkpt><trkpt lat="44.32906362269017" lon="9.73165386330064"><ele>1038.5714285714284</ele><time>2026-04-19T15:12:01.879Z</time></trkpt><trkpt lat="44.32910190127183" lon="9.731551519941789"><ele>1038.0</ele><time>2026-04-19T15:12:02.879Z</time></trkpt><trkpt lat="44.32914952712404" lon="9.731449834597756"><ele>1037.5</ele><time>2026-04-19T15:12:03.879Z</time></trkpt><trkpt lat="44.32918851907125" lon="9.731352680149719"><ele>1037.0</ele><time>2026-04-19T15:12:04.879Z</time></trkpt><trkpt lat="44.32921345145802" lon="9.731255053253824"><ele>1036.5</ele><time>2026-04-19T15:12:05.879Z</time></trkpt><trkpt lat="44.32922165259235" lon="9.73115403727146"><ele>1036.0</ele><time>2026-04-19T15:12:06.879Z</time></trkpt><trkpt lat="44.32921723003044" lon="9.73104745451218"><ele>1035.5</ele><time>2026-04-19T15:12:07.879Z</time></trkpt><trkpt lat="44.329198380695395" lon="9.730917087373657"><ele>1035.0</ele><time>2026-04-19T15:12:08.879Z</time></trkpt><trkpt lat="44.32919125139555" lon="9.730809624491512"><ele>1035.0</ele><time>2026-04-19T15:12:09.879Z</time></trkpt><trkpt lat="44.32920522679712" lon="9.730706601326059"><ele>1035.0</ele><time>2026-04-19T15:12:10.879Z</time></trkpt><trkpt lat="44.32923947826777" lon="9.730615986764754"><ele>1035.0</ele><time>2026-04-19T15:12:11.879Z</time></trkpt><trkpt lat="44.329292917876835" lon="9.73054360371354"><ele>1035.0</ele><time>2026-04-19T15:12:12.879Z</time></trkpt><trkpt lat="44.329364477783365" lon="9.730473435074579"><ele>1035.0</ele><time>2026-04-19T15:12:13.879Z</time></trkpt><trkpt lat="44.329422901633166" lon="9.730413564757772"><ele>1035.0</ele><time>2026-04-19T15:12:14.879Z</time></trkpt><trkpt lat="44.329460411453006" lon="9.730335044829339"><ele>1035.3333333333333</ele><time>2026-04-19T15:12:15.879Z</time></trkpt><trkpt lat="44.329469573385175" lon="9.730222613615132"><ele>1035.6666666666667</ele><time>2026-04-19T15:12:16.879Z</time></trkpt><trkpt lat="44.32945670869169" lon="9.730107853466812"><ele>1036.0</ele><time>2026-04-19T15:12:17.879Z</time></trkpt><trkpt lat="44.329453200207695" lon="9.729986523828911"><ele>1036.3333333333335</ele><time>2026-04-19T15:12:18.879Z</time></trkpt><trkpt lat="44.32947819852522" lon="9.729875367543144"><ele>1036.6666666666667</ele><time>2026-04-19T15:12:19.879Z</time></trkpt><trkpt lat="44.329536400401764" lon="9.729794170531068"><ele>1037.0</ele><time>2026-04-19T15:12:20.879Z</time></trkpt><trkpt lat="44.32961259300183" lon="9.729730037212333"><ele>1037.0</ele><time>2026-04-19T15:12:21.879Z</time></trkpt><trkpt lat="44.32968976430723" lon="9.729666943983421"><ele>1037.0</ele><time>2026-04-19T15:12:22.879Z</time></trkpt><trkpt lat="44.32976824837395" lon="9.729602057498377"><ele>1037.0</ele><time>2026-04-19T15:12:23.879Z</time></trkpt><trkpt lat="44.329839524298535" lon="9.729532598468124"><ele>1037.0</ele><time>2026-04-19T15:12:24.879Z</time></trkpt><trkpt lat="44.32989736016742" lon="9.729454903025292"><ele>1037.0</ele><time>2026-04-19T15:12:25.879Z</time></trkpt><trkpt lat="44.3299396425132" lon="9.729356767675386"><ele>1037.0</ele><time>2026-04-19T15:12:26.879Z</time></trkpt><trkpt lat="44.32997255056583" lon="9.729246530273977"><ele>1031.8</ele><time>2026-04-19T15:12:27.879Z</time></trkpt><trkpt lat="44.329995707705315" lon="9.729116970170633"><ele>1026.6</ele><time>2026-04-19T15:12:28.879Z</time></trkpt><trkpt lat="44.33001014592707" lon="9.728972935346146"><ele>1021.3999999999999</ele><time>2026-04-19T15:12:29.879Z</time></trkpt><trkpt lat="44.33002214790945" lon="9.728830066029625"><ele>1016.1999999999999</ele><time>2026-04-19T15:12:30.879Z</time></trkpt><trkpt lat="44.33003565127844" lon="9.728711534489884"><ele>1011.0</ele><time>2026-04-19T15:12:31.879Z</time></trkpt><trkpt lat="44.330050018036964" lon="9.728606305689253"><ele>1011.0</ele><time>2026-04-19T15:12:32.879Z</time></trkpt><trkpt lat="44.33006510155941" lon="9.72851044241417"><ele>1011.0</ele><time>2026-04-19T15:12:33.879Z</time></trkpt><trkpt lat="44.33010488757446" lon="9.72843781460223"><ele>1011.0</ele><time>2026-04-19T15:12:34.879Z</time></trkpt><trkpt lat="44.33016093154323" lon="9.728388883469327"><ele>1011.0</ele><time>2026-04-19T15:12:35.879Z</time></trkpt><trkpt lat="44.33022807788846" lon="9.728378994756017"><ele>1011.0</ele><time>2026-04-19T15:12:36.879Z</time></trkpt><trkpt lat="44.33032356772337" lon="9.728477421751696"><ele>1011.0</ele><time>2026-04-19T15:12:38.879Z</time></trkpt><trkpt lat="44.3303377618762" lon="9.728563640146483"><ele>1011.0</ele><time>2026-04-19T15:12:39.879Z</time></trkpt><trkpt lat="44.33031112240662" lon="9.728668729936599"><ele>1010.9999999999999</ele><time>2026-04-19T15:12:40.879Z</time></trkpt><trkpt lat="44.33027502858659" lon="9.728788607607283"><ele>1010.9999999999999</ele><time>2026-04-19T15:12:41.879Z</time></trkpt><trkpt lat="44.33022208825402" lon="9.728908638957266"><ele>1011.0</ele><time>2026-04-19T15:12:42.879Z</time></trkpt><trkpt lat="44.33017605843004" lon="9.729038321854189"><ele>1011.0</ele><time>2026-04-19T15:12:43.879Z</time></trkpt><trkpt lat="44.33015272307754" lon="9.729201545729634"><ele>1010.0</ele><time>2026-04-19T15:12:44.879Z</time></trkpt><trkpt lat="44.33014606098806" lon="9.72939313454474"><ele>1009.0</ele><time>2026-04-19T15:12:45.879Z</time></trkpt><trkpt lat="44.33016121852362" lon="9.72958657897125"><ele>1008.0</ele><time>2026-04-19T15:12:46.879Z</time></trkpt><trkpt lat="44.330163675233564" lon="9.729771747749906"><ele>1007.0</ele><time>2026-04-19T15:12:47.879Z</time></trkpt><trkpt lat="44.33015015831412" lon="9.729954726458647"><ele>1007.0</ele><time>2026-04-19T15:12:48.879Z</time></trkpt><trkpt lat="44.33012027630175" lon="9.730133775792508"><ele>1007.0</ele><time>2026-04-19T15:12:49.879Z</time></trkpt><trkpt lat="44.33009152419093" lon="9.730315149736018"><ele>1007.0</ele><time>2026-04-19T15:12:50.879Z</time></trkpt><trkpt lat="44.33007460653746" lon="9.73047745588366"><ele>1007.0</ele><time>2026-04-19T15:12:51.879Z</time></trkpt><trkpt lat="44.330055909395504" lon="9.730610103878167"><ele>1006.8333333333334</ele><time>2026-04-19T15:12:52.879Z</time></trkpt><trkpt lat="44.33004338781163" lon="9.730719942279874"><ele>1006.6666666666667</ele><time>2026-04-19T15:12:53.879Z</time></trkpt><trkpt lat="44.33005000712258" lon="9.730823974791837"><ele>1006.5</ele><time>2026-04-19T15:12:54.879Z</time></trkpt><trkpt lat="44.33009669260769" lon="9.730899918991392"><ele>1006.3333333333333</ele><time>2026-04-19T15:12:55.879Z</time></trkpt><trkpt lat="44.3301630463205" lon="9.730956584619348"><ele>1006.1666666666666</ele><time>2026-04-19T15:12:56.879Z</time></trkpt><trkpt lat="44.33024763913812" lon="9.730968140186171"><ele>1006.0</ele><time>2026-04-19T15:12:57.879Z</time></trkpt><trkpt lat="44.33033394036669" lon="9.730931927173627"><ele>1006.0</ele><time>2026-04-19T15:12:58.879Z</time></trkpt><trkpt lat="44.3304237332038" lon="9.730864954008123"><ele>1005.9999999999999</ele><time>2026-04-19T15:12:59.879Z</time></trkpt><trkpt lat="44.33053169630444" lon="9.730788827433882"><ele>1005.9999999999999</ele><time>2026-04-19T15:13:00.879Z</time></trkpt><trkpt lat="44.33062468467788" lon="9.730718276060893"><ele>1006.0</ele><time>2026-04-19T15:13:01.879Z</time></trkpt><trkpt lat="44.33071514431864" lon="9.730657270633822"><ele>1006.0</ele><time>2026-04-19T15:13:02.879Z</time></trkpt><trkpt lat="44.3307955173697" lon="9.730607022758488"><ele>1004.1999999999999</ele><time>2026-04-19T15:13:03.879Z</time></trkpt><trkpt lat="44.3308880547386" lon="9.730586986949707"><ele>1002.3999999999999</ele><time>2026-04-19T15:13:04.879Z</time></trkpt><trkpt lat="44.330986229763205" lon="9.730585486831048"><ele>1000.6</ele><time>2026-04-19T15:13:05.879Z</time></trkpt><trkpt lat="44.331097184392405" lon="9.730621221262869"><ele>998.8</ele><time>2026-04-19T15:13:06.879Z</time></trkpt><trkpt lat="44.331213943852006" lon="9.730652358781892"><ele>997.0</ele><time>2026-04-19T15:13:07.879Z</time></trkpt><trkpt lat="44.33132300639184" lon="9.730675124122161"><ele>994.75</ele><time>2026-04-19T15:13:08.879Z</time></trkpt><trkpt lat="44.33144725740685" lon="9.730715397752622"><ele>992.5</ele><time>2026-04-19T15:13:09.879Z</time></trkpt><trkpt lat="44.33156242391857" lon="9.73074095770799"><ele>990.25</ele><time>2026-04-19T15:13:10.879Z</time></trkpt><trkpt lat="44.33166767065073" lon="9.730792681054892"><ele>988.0</ele><time>2026-04-19T15:13:11.879Z</time></trkpt><trkpt lat="44.33177217069749" lon="9.730845275943485"><ele>988.0</ele><time>2026-04-19T15:13:12.879Z</time></trkpt><trkpt lat="44.33185889586313" lon="9.730923672357639"><ele>988.0</ele><time>2026-04-19T15:13:13.879Z</time></trkpt><trkpt lat="44.33194265714621" lon="9.731028697689357"><ele>988.0</ele><time>2026-04-19T15:13:14.879Z</time></trkpt><trkpt lat="44.33202762157434" lon="9.73113019751802"><ele>988.0</ele><time>2026-04-19T15:13:15.879Z</time></trkpt><trkpt lat="44.33210794051318" lon="9.731210760093502"><ele>988.0</ele><time>2026-04-19T15:13:16.879Z</time></trkpt><trkpt lat="44.33219058722442" lon="9.731250710649583"><ele>989.0</ele><time>2026-04-19T15:13:17.879Z</time></trkpt><trkpt lat="44.332264416735384" lon="9.731266548713151"><ele>990.0</ele><time>2026-04-19T15:13:18.879Z</time></trkpt><trkpt lat="44.332371862481246" lon="9.731256932899866"><ele>991.0</ele><time>2026-04-19T15:13:19.879Z</time></trkpt><trkpt lat="44.332485767267556" lon="9.731246214285804"><ele>992.0</ele><time>2026-04-19T15:13:20.879Z</time></trkpt><trkpt lat="44.332601149073135" lon="9.731219644799577"><ele>993.0</ele><time>2026-04-19T15:13:21.879Z</time></trkpt><trkpt lat="44.33270270445316" lon="9.731214287504512"><ele>993.0</ele><time>2026-04-19T15:13:22.879Z</time></trkpt><trkpt lat="44.33280089114443" lon="9.731252665813852"><ele>993.0</ele><time>2026-04-19T15:13:23.879Z</time></trkpt><trkpt lat="44.33288346616771" lon="9.731316444643944"><ele>993.0</ele><time>2026-04-19T15:13:24.879Z</time></trkpt><trkpt lat="44.3329609546948" lon="9.73140985573066"><ele>993.0</ele><time>2026-04-19T15:13:25.879Z</time></trkpt><trkpt lat="44.33303462928523" lon="9.731521041673824"><ele>993.0</ele><time>2026-04-19T15:13:26.879Z</time></trkpt><trkpt lat="44.33311438612541" lon="9.73164861114728"><ele>992.8333333333334</ele><time>2026-04-19T15:13:27.879Z</time></trkpt><trkpt lat="44.33317657542558" lon="9.731756656427088"><ele>992.6666666666667</ele><time>2026-04-19T15:13:28.879Z</time></trkpt><trkpt lat="44.333233655193446" lon="9.731854273782979"><ele>992.5</ele><time>2026-04-19T15:13:29.879Z</time></trkpt><trkpt lat="44.33328325389767" lon="9.731926028125713"><ele>992.3333333333334</ele><time>2026-04-19T15:13:30.879Z</time></trkpt><trkpt lat="44.333357066569555" lon="9.731956914233962"><ele>992.1666666666667</ele><time>2026-04-19T15:13:31.879Z</time></trkpt><trkpt lat="44.33344943313256" lon="9.73194570847276"><ele>992.0</ele><time>2026-04-19T15:13:32.879Z</time></trkpt><trkpt lat="44.33354015893981" lon="9.731909945231068"><ele>986.5</ele><time>2026-04-19T15:13:33.879Z</time></trkpt><trkpt lat="44.333659850949424" lon="9.731865912946132"><ele>981.0</ele><time>2026-04-19T15:13:34.879Z</time></trkpt><trkpt lat="44.33376538963248" lon="9.731824363591803"><ele>975.5</ele><time>2026-04-19T15:13:35.879Z</time></trkpt><trkpt lat="44.33388664084353" lon="9.731780197823218"><ele>970.0</ele><time>2026-04-19T15:13:36.879Z</time></trkpt><trkpt lat="44.33399526497555" lon="9.731752898207676"><ele>967.0</ele><time>2026-04-19T15:13:37.879Z</time></trkpt><trkpt lat="44.33409899956035" lon="9.731726078192453"><ele>964.0</ele><time>2026-04-19T15:13:38.879Z</time></trkpt><trkpt lat="44.334203054153924" lon="9.731731408037074"><ele>961.0</ele><time>2026-04-19T15:13:39.879Z</time></trkpt><trkpt lat="44.334320044593646" lon="9.731748977518567"><ele>958.0</ele><time>2026-04-19T15:13:40.879Z</time></trkpt><trkpt lat="44.33444956045532" lon="9.731767168403351"><ele>958.0</ele><time>2026-04-19T15:13:41.879Z</time></trkpt><trkpt lat="44.33457410579425" lon="9.731793099609163"><ele>958.0</ele><time>2026-04-19T15:13:42.879Z</time></trkpt><trkpt lat="44.33468410367729" lon="9.731830580759295"><ele>958.0</ele><time>2026-04-19T15:13:43.879Z</time></trkpt><trkpt lat="44.33478554686847" lon="9.731870198561557"><ele>958.0</ele><time>2026-04-19T15:13:44.879Z</time></trkpt><trkpt lat="44.33488958851828" lon="9.73190208803552"><ele>957.8</ele><time>2026-04-19T15:13:45.879Z</time></trkpt><trkpt lat="44.33499289892533" lon="9.731955141062823"><ele>957.5999999999999</ele><time>2026-04-19T15:13:46.879Z</time></trkpt><trkpt lat="44.33507588145584" lon="9.73202585588984"><ele>957.4000000000001</ele><time>2026-04-19T15:13:47.879Z</time></trkpt><trkpt lat="44.33512958423525" lon="9.732117302210415"><ele>957.2</ele><time>2026-04-19T15:13:48.879Z</time></trkpt><trkpt lat="44.33516299981773" lon="9.732209774333295"><ele>957.0</ele><time>2026-04-19T15:13:49.879Z</time></trkpt><trkpt lat="44.335195932227165" lon="9.732334374100864"><ele>957.0</ele><time>2026-04-19T15:13:50.879Z</time></trkpt><trkpt lat="44.33519742207992" lon="9.732478921747761"><ele>957.0</ele><time>2026-04-19T15:13:51.879Z</time></trkpt><trkpt lat="44.33518825858308" lon="9.732612649674547"><ele>957.0</ele><time>2026-04-19T15:13:52.879Z</time></trkpt><trkpt lat="44.335157085194545" lon="9.732741564584805"><ele>957.0</ele><time>2026-04-19T15:13:53.879Z</time></trkpt><trkpt lat="44.335141684117886" lon="9.732844547748808"><ele>957.0</ele><time>2026-04-19T15:13:54.879Z</time></trkpt><trkpt lat="44.33515775638151" lon="9.732958579661155"><ele>957.6</ele><time>2026-04-19T15:13:55.879Z</time></trkpt><trkpt lat="44.33521406024064" lon="9.733083573592946"><ele>958.2</ele><time>2026-04-19T15:13:56.879Z</time></trkpt><trkpt lat="44.335278879034846" lon="9.733202326933387"><ele>958.8</ele><time>2026-04-19T15:13:57.879Z</time></trkpt><trkpt lat="44.33532765241665" lon="9.733324092432712"><ele>959.4</ele><time>2026-04-19T15:13:58.879Z</time></trkpt><trkpt lat="44.33535827437185" lon="9.733440144526355"><ele>960.0</ele><time>2026-04-19T15:13:59.878Z</time></trkpt><trkpt lat="44.335408285144645" lon="9.733527098209716"><ele>956.6666666666666</ele><time>2026-04-19T15:14:00.877Z</time></trkpt><trkpt lat="44.33542524459727" lon="9.733613287410618"><ele>953.3333333333333</ele><time>2026-04-19T15:14:01.877Z</time></trkpt><trkpt lat="44.33539923670818" lon="9.733705627602156"><ele>950.0</ele><time>2026-04-19T15:14:02.877Z</time></trkpt><trkpt lat="44.335360589504305" lon="9.733801230118198"><ele>946.6666666666666</ele><time>2026-04-19T15:14:03.878Z</time></trkpt><trkpt lat="44.3352936457611" lon="9.733887079854233"><ele>943.3333333333333</ele><time>2026-04-19T15:14:04.878Z</time></trkpt><trkpt lat="44.33522508685332" lon="9.733963775972828"><ele>940.0</ele><time>2026-04-19T15:14:05.877Z</time></trkpt><trkpt lat="44.33515720994211" lon="9.73403154486708"><ele>939.9999999999999</ele><time>2026-04-19T15:14:06.877Z</time></trkpt><trkpt lat="44.3350909409476" lon="9.73410078944224"><ele>940.0</ele><time>2026-04-19T15:14:07.877Z</time></trkpt><trkpt lat="44.33503283009444" lon="9.7341672808663"><ele>940.0</ele><time>2026-04-19T15:14:08.877Z</time></trkpt><trkpt lat="44.334963827533564" lon="9.734225943026548"><ele>940.0</ele><time>2026-04-19T15:14:09.877Z</time></trkpt><trkpt lat="44.33489683280829" lon="9.734279738862877"><ele>939.9999999999999</ele><time>2026-04-19T15:14:10.877Z</time></trkpt><trkpt lat="44.33482435497767" lon="9.734328992613486"><ele>940.0</ele><time>2026-04-19T15:14:11.878Z</time></trkpt><trkpt lat="44.33474712616605" lon="9.734384667354457"><ele>941.2</ele><time>2026-04-19T15:14:12.877Z</time></trkpt><trkpt lat="44.33466749801798" lon="9.734460438082108"><ele>942.4</ele><time>2026-04-19T15:14:13.877Z</time></trkpt><trkpt lat="44.33457955698942" lon="9.734525540067963"><ele>943.5999999999999</ele><time>2026-04-19T15:14:14.877Z</time></trkpt><trkpt lat="44.334503423036615" lon="9.734601121110082"><ele>944.8</ele><time>2026-04-19T15:14:15.877Z</time></trkpt><trkpt lat="44.33442892326581" lon="9.734686939028002"><ele>946.0</ele><time>2026-04-19T15:14:16.877Z</time></trkpt><trkpt lat="44.33435220064476" lon="9.734760759651225"><ele>945.9999999999999</ele><time>2026-04-19T15:14:17.877Z</time></trkpt><trkpt lat="44.33428139241195" lon="9.734817536531022"><ele>946.0</ele><time>2026-04-19T15:14:18.877Z</time></trkpt><trkpt lat="44.334234803360154" lon="9.734896543450697"><ele>946.0</ele><time>2026-04-19T15:14:19.877Z</time></trkpt><trkpt lat="44.334203038442865" lon="9.734982960813495"><ele>946.0</ele><time>2026-04-19T15:14:20.877Z</time></trkpt><trkpt lat="44.334184218268355" lon="9.73509660423548"><ele>945.9999999999999</ele><time>2026-04-19T15:14:21.877Z</time></trkpt><trkpt lat="44.334213969329895" lon="9.735218880038415"><ele>946.0</ele><time>2026-04-19T15:14:22.877Z</time></trkpt><trkpt lat="44.334255498611654" lon="9.735331438531938"><ele>945.4</ele><time>2026-04-19T15:14:23.877Z</time></trkpt><trkpt lat="44.33430811107186" lon="9.735458389358978"><ele>944.8</ele><time>2026-04-19T15:14:24.877Z</time></trkpt><trkpt lat="44.334351998115764" lon="9.735589997882181"><ele>944.1999999999999</ele><time>2026-04-19T15:14:25.877Z</time></trkpt><trkpt lat="44.334410749545974" lon="9.735709549322422"><ele>943.5999999999999</ele><time>2026-04-19T15:14:26.877Z</time></trkpt><trkpt lat="44.33447356062521" lon="9.735798573123802"><ele>943.0</ele><time>2026-04-19T15:14:27.877Z</time></trkpt><trkpt lat="44.33454622905371" lon="9.735884231086336"><ele>943.0</ele><time>2026-04-19T15:14:28.877Z</time></trkpt><trkpt lat="44.33465199436731" lon="9.73595928533742"><ele>943.0</ele><time>2026-04-19T15:14:29.878Z</time></trkpt><trkpt lat="44.334741130284584" lon="9.736026648210375"><ele>943.0</ele><time>2026-04-19T15:14:30.878Z</time></trkpt><trkpt lat="44.334808782248885" lon="9.736091144731919"><ele>943.0</ele><time>2026-04-19T15:14:31.878Z</time></trkpt><trkpt lat="44.33487024988483" lon="9.736193672786559"><ele>943.0</ele><time>2026-04-19T15:14:32.878Z</time></trkpt><trkpt lat="44.334881180246406" lon="9.736316205998374"><ele>940.8</ele><time>2026-04-19T15:14:33.878Z</time></trkpt><trkpt lat="44.33485557363994" lon="9.736424509971753"><ele>938.5999999999999</ele><time>2026-04-19T15:14:34.878Z</time></trkpt><trkpt lat="44.334804470718794" lon="9.736503761837733"><ele>936.4000000000001</ele><time>2026-04-19T15:14:35.878Z</time></trkpt><trkpt lat="44.33472807072739" lon="9.736554096018358"><ele>934.2</ele><time>2026-04-19T15:14:36.878Z</time></trkpt><trkpt lat="44.33462443535304" lon="9.736573502994325"><ele>932.0</ele><time>2026-04-19T15:14:37.878Z</time></trkpt><trkpt lat="44.33451404581432" lon="9.736560214391769"><ele>932.0000000000001</ele><time>2026-04-19T15:14:38.878Z</time></trkpt><trkpt lat="44.33442485795345" lon="9.73657308589966"><ele>932.0</ele><time>2026-04-19T15:14:39.878Z</time></trkpt><trkpt lat="44.334364952574646" lon="9.736631116354683"><ele>932.0</ele><time>2026-04-19T15:14:40.878Z</time></trkpt><trkpt lat="44.33432543591752" lon="9.736722936235726"><ele>932.0</ele><time>2026-04-19T15:14:41.878Z</time></trkpt><trkpt lat="44.33430364380205" lon="9.736849150244769"><ele>932.0000000000001</ele><time>2026-04-19T15:14:42.878Z</time></trkpt><trkpt lat="44.334293592733644" lon="9.736968065439928"><ele>932.0</ele><time>2026-04-19T15:14:43.878Z</time></trkpt><trkpt lat="44.33427403050138" lon="9.737069650581732"><ele>927.3333333333334</ele><time>2026-04-19T15:14:44.878Z</time></trkpt><trkpt lat="44.33426537594608" lon="9.737178153348438"><ele>922.6666666666667</ele><time>2026-04-19T15:14:45.878Z</time></trkpt><trkpt lat="44.33424626499977" lon="9.737273505147488"><ele>918.0</ele><time>2026-04-19T15:14:46.878Z</time></trkpt><trkpt lat="44.33420229674257" lon="9.737356981161959"><ele>913.3333333333333</ele><time>2026-04-19T15:14:47.878Z</time></trkpt><trkpt lat="44.334129130403426" lon="9.737415597463567"><ele>908.6666666666666</ele><time>2026-04-19T15:14:48.878Z</time></trkpt><trkpt lat="44.33403977917959" lon="9.737442910075181"><ele>904.0</ele><time>2026-04-19T15:14:49.878Z</time></trkpt><trkpt lat="44.333954294911564" lon="9.737460113683186"><ele>908.6</ele><time>2026-04-19T15:14:50.878Z</time></trkpt><trkpt lat="44.33385198593969" lon="9.737501125964206"><ele>913.2</ele><time>2026-04-19T15:14:51.878Z</time></trkpt><trkpt lat="44.333743946578025" lon="9.7375435547419"><ele>917.8000000000001</ele><time>2026-04-19T15:14:52.878Z</time></trkpt><trkpt lat="44.333652438128844" lon="9.737577999477997"><ele>922.4000000000001</ele><time>2026-04-19T15:14:53.878Z</time></trkpt><trkpt lat="44.33357442502068" lon="9.737614323474155"><ele>927.0</ele><time>2026-04-19T15:14:54.878Z</time></trkpt><trkpt lat="44.33351307636109" lon="9.73768582076233"><ele>922.5</ele><time>2026-04-19T15:14:55.878Z</time></trkpt><trkpt lat="44.333478150972574" lon="9.737797684465399"><ele>918.0</ele><time>2026-04-19T15:14:56.878Z</time></trkpt><trkpt lat="44.333477918314806" lon="9.737920285654916"><ele>913.5</ele><time>2026-04-19T15:14:57.878Z</time></trkpt><trkpt lat="44.3334955382654" lon="9.73801579606971"><ele>909.0</ele><time>2026-04-19T15:14:58.878Z</time></trkpt><trkpt lat="44.33350598492643" lon="9.738108277166768"><ele>904.5</ele><time>2026-04-19T15:14:59.878Z</time></trkpt><trkpt lat="44.33349363575491" lon="9.738204297088568"><ele>900.0</ele><time>2026-04-19T15:15:00.878Z</time></trkpt><trkpt lat="44.33344927175319" lon="9.73829239681729"><ele>900.0</ele><time>2026-04-19T15:15:01.878Z</time></trkpt><trkpt lat="44.333364368739865" lon="9.738358692125502"><ele>900.0</ele><time>2026-04-19T15:15:02.878Z</time></trkpt><trkpt lat="44.33326618100392" lon="9.738387409219023"><ele>900.0</ele><time>2026-04-19T15:15:03.878Z</time></trkpt><trkpt lat="44.33316475269004" lon="9.73839395455017"><ele>900.0</ele><time>2026-04-19T15:15:04.878Z</time></trkpt><trkpt lat="44.3330503469286" lon="9.738417258246379"><ele>900.0</ele><time>2026-04-19T15:15:05.878Z</time></trkpt><trkpt lat="44.33294884919985" lon="9.738448894066345"><ele>899.0</ele><time>2026-04-19T15:15:06.878Z</time></trkpt><trkpt lat="44.33284784615379" lon="9.738527736403196"><ele>898.0</ele><time>2026-04-19T15:15:07.878Z</time></trkpt><trkpt lat="44.33274828358544" lon="9.738626939998815"><ele>897.0</ele><time>2026-04-19T15:15:08.878Z</time></trkpt><trkpt lat="44.332662496579495" lon="9.738720147240304"><ele>896.0</ele><time>2026-04-19T15:15:09.878Z</time></trkpt><trkpt lat="44.33258061367365" lon="9.738812243544674"><ele>896.0</ele><time>2026-04-19T15:15:10.878Z</time></trkpt><trkpt lat="44.332518665795476" lon="9.738898781560353"><ele>895.9999999999999</ele><time>2026-04-19T15:15:11.878Z</time></trkpt><trkpt lat="44.332463707031025" lon="9.73898063362036"><ele>895.9999999999999</ele><time>2026-04-19T15:15:12.878Z</time></trkpt><trkpt lat="44.332420336108456" lon="9.739065177362939"><ele>896.0</ele><time>2026-04-19T15:15:13.878Z</time></trkpt><trkpt lat="44.33240164902273" lon="9.739153558293665"><ele>896.0</ele><time>2026-04-19T15:15:14.878Z</time></trkpt><trkpt lat="44.3324630956848" lon="9.73933961533297"><ele>896.0000000000001</ele><time>2026-04-19T15:15:16.878Z</time></trkpt><trkpt lat="44.33252411072905" lon="9.73942027452205"><ele>896.0</ele><time>2026-04-19T15:15:17.878Z</time></trkpt><trkpt lat="44.33260912934871" lon="9.739449617235904"><ele>896.0</ele><time>2026-04-19T15:15:18.878Z</time></trkpt><trkpt lat="44.332692859740625" lon="9.73944640083595"><ele>896.0</ele><time>2026-04-19T15:15:19.878Z</time></trkpt><trkpt lat="44.33278128058803" lon="9.73940799173024"><ele>896.0000000000001</ele><time>2026-04-19T15:15:20.878Z</time></trkpt><trkpt lat="44.33287414964154" lon="9.73936006721648"><ele>896.0</ele><time>2026-04-19T15:15:21.878Z</time></trkpt><trkpt lat="44.332957898000295" lon="9.739321284407602"><ele>896.0</ele><time>2026-04-19T15:15:22.878Z</time></trkpt><trkpt lat="44.33302932270588" lon="9.739313024413454"><ele>895.9999999999999</ele><time>2026-04-19T15:15:23.878Z</time></trkpt><trkpt lat="44.333108754534024" lon="9.739354491524448"><ele>895.9999999999999</ele><time>2026-04-19T15:15:24.878Z</time></trkpt><trkpt lat="44.33319820563317" lon="9.739427975296621"><ele>896.0</ele><time>2026-04-19T15:15:25.878Z</time></trkpt><trkpt lat="44.33329021251517" lon="9.73951530532911"><ele>896.0</ele><time>2026-04-19T15:15:26.878Z</time></trkpt><trkpt lat="44.33336842840755" lon="9.739574223039565"><ele>892.8333333333334</ele><time>2026-04-19T15:15:27.878Z</time></trkpt><trkpt lat="44.33342887690653" lon="9.739646592591805"><ele>889.6666666666667</ele><time>2026-04-19T15:15:28.878Z</time></trkpt><trkpt lat="44.3334682721311" lon="9.739733029403874"><ele>886.5</ele><time>2026-04-19T15:15:29.878Z</time></trkpt><trkpt lat="44.33346442456332" lon="9.739830475661458"><ele>883.3333333333333</ele><time>2026-04-19T15:15:30.878Z</time></trkpt><trkpt lat="44.33344812068437" lon="9.739931094914699"><ele>880.1666666666666</ele><time>2026-04-19T15:15:31.878Z</time></trkpt><trkpt lat="44.33341205133884" lon="9.740043309469987"><ele>877.0</ele><time>2026-04-19T15:15:32.878Z</time></trkpt><trkpt lat="44.33338159363179" lon="9.740143771122009"><ele>877.1666666666666</ele><time>2026-04-19T15:15:33.878Z</time></trkpt><trkpt lat="44.33337316729795" lon="9.740253381315007"><ele>877.3333333333333</ele><time>2026-04-19T15:15:34.878Z</time></trkpt><trkpt lat="44.333394488366466" lon="9.740354598680833"><ele>877.5</ele><time>2026-04-19T15:15:35.878Z</time></trkpt><trkpt lat="44.333448750570675" lon="9.740448233367887"><ele>877.6666666666667</ele><time>2026-04-19T15:15:36.878Z</time></trkpt><trkpt lat="44.333530329311344" lon="9.740519720833982"><ele>877.8333333333334</ele><time>2026-04-19T15:15:37.878Z</time></trkpt><trkpt lat="44.333619704816336" lon="9.740572497242205"><ele>878.0</ele><time>2026-04-19T15:15:38.878Z</time></trkpt><trkpt lat="44.3337009228377" lon="9.740627112974478"><ele>878.0000000000001</ele><time>2026-04-19T15:15:39.878Z</time></trkpt><trkpt lat="44.333774174629916" lon="9.740679187714099"><ele>878.0</ele><time>2026-04-19T15:15:40.878Z</time></trkpt><trkpt lat="44.333836592779946" lon="9.740731246108481"><ele>878.0</ele><time>2026-04-19T15:15:41.878Z</time></trkpt><trkpt lat="44.33388390704325" lon="9.740800859197831"><ele>878.0</ele><time>2026-04-19T15:15:42.878Z</time></trkpt><trkpt lat="44.33391371813383" lon="9.740900048121185"><ele>878.0000000000001</ele><time>2026-04-19T15:15:43.878Z</time></trkpt><trkpt lat="44.3339260500144" lon="9.740992099759943"><ele>878.0</ele><time>2026-04-19T15:15:44.878Z</time></trkpt><trkpt lat="44.33399413111398" lon="9.741101164439183"><ele>877.8333333333334</ele><time>2026-04-19T15:15:46.878Z</time></trkpt><trkpt lat="44.33406045065618" lon="9.741113562958502"><ele>877.6666666666667</ele><time>2026-04-19T15:15:47.878Z</time></trkpt><trkpt lat="44.33413088643621" lon="9.741091598090941"><ele>877.5</ele><time>2026-04-19T15:15:48.878Z</time></trkpt><trkpt lat="44.33421981991045" lon="9.741054681471063"><ele>877.3333333333333</ele><time>2026-04-19T15:15:49.878Z</time></trkpt><trkpt lat="44.3343132958938" lon="9.741018168792149"><ele>877.1666666666666</ele><time>2026-04-19T15:15:50.878Z</time></trkpt><trkpt lat="44.334419541579315" lon="9.741000792820225"><ele>877.0</ele><time>2026-04-19T15:15:51.878Z</time></trkpt><trkpt lat="44.3345292164363" lon="9.740992019424283"><ele>877.0</ele><time>2026-04-19T15:15:52.878Z</time></trkpt><trkpt lat="44.33464194810079" lon="9.74098422413434"><ele>877.0</ele><time>2026-04-19T15:15:53.878Z</time></trkpt><trkpt lat="44.33476278999972" lon="9.740990507981717"><ele>877.0</ele><time>2026-04-19T15:15:54.878Z</time></trkpt><trkpt lat="44.334871715263176" lon="9.741014032160404"><ele>877.0</ele><time>2026-04-19T15:15:55.878Z</time></trkpt><trkpt lat="44.33498060360595" lon="9.74105017202155"><ele>877.0</ele><time>2026-04-19T15:15:56.878Z</time></trkpt><trkpt lat="44.33509168277517" lon="9.741089213458194"><ele>877.0</ele><time>2026-04-19T15:15:57.878Z</time></trkpt><trkpt lat="44.33519868144615" lon="9.741131081076619"><ele>877.0</ele><time>2026-04-19T15:15:58.878Z</time></trkpt><trkpt lat="44.3352965676297" lon="9.74116948129261"><ele>877.0</ele><time>2026-04-19T15:15:59.878Z</time></trkpt><trkpt lat="44.335388723944796" lon="9.741188760084025"><ele>877.0</ele><time>2026-04-19T15:16:00.878Z</time></trkpt><trkpt lat="44.33548124389666" lon="9.741178356267099"><ele>873.8</ele><time>2026-04-19T15:16:01.878Z</time></trkpt><trkpt lat="44.335577155547185" lon="9.741139001608"><ele>870.6</ele><time>2026-04-19T15:16:02.878Z</time></trkpt><trkpt lat="44.33567321699732" lon="9.741073609595594"><ele>867.3999999999999</ele><time>2026-04-19T15:16:03.878Z</time></trkpt><trkpt lat="44.335771259561525" lon="9.741003321123994"><ele>864.1999999999999</ele><time>2026-04-19T15:16:04.878Z</time></trkpt><trkpt lat="44.33587085539236" lon="9.740938963527553"><ele>861.0</ele><time>2026-04-19T15:16:05.876Z</time></trkpt><trkpt lat="44.3359739560342" lon="9.740878731648959"><ele>858.8</ele><time>2026-04-19T15:16:06.876Z</time></trkpt><trkpt lat="44.33608243782622" lon="9.740833081010825"><ele>856.5999999999999</ele><time>2026-04-19T15:16:07.876Z</time></trkpt><trkpt lat="44.33618910582011" lon="9.740797051124064"><ele>854.4</ele><time>2026-04-19T15:16:08.876Z</time></trkpt><trkpt lat="44.336301265454004" lon="9.740764248560113"><ele>852.2</ele><time>2026-04-19T15:16:09.876Z</time></trkpt><trkpt lat="44.33640217457337" lon="9.740735235746678"><ele>850.0</ele><time>2026-04-19T15:16:10.876Z</time></trkpt><trkpt lat="44.33648891221583" lon="9.740715529949233"><ele>849.4</ele><time>2026-04-19T15:16:11.876Z</time></trkpt><trkpt lat="44.33656588364096" lon="9.740705730005462"><ele>848.8</ele><time>2026-04-19T15:16:12.876Z</time></trkpt><trkpt lat="44.33666517178599" lon="9.740769436089748"><ele>848.2</ele><time>2026-04-19T15:16:14.875Z</time></trkpt><trkpt lat="44.336709783542084" lon="9.740949846266409"><ele>847.6</ele><time>2026-04-19T15:16:16.876Z</time></trkpt><trkpt lat="44.33669291292137" lon="9.74107022182567"><ele>847.0</ele><time>2026-04-19T15:16:17.876Z</time></trkpt><trkpt lat="44.3366747784829" lon="9.741190659853922"><ele>846.9999999999999</ele><time>2026-04-19T15:16:18.876Z</time></trkpt><trkpt lat="44.33669864497314" lon="9.741303244955565"><ele>847.0</ele><time>2026-04-19T15:16:19.876Z</time></trkpt><trkpt lat="44.33674246797034" lon="9.741406148491457"><ele>847.0</ele><time>2026-04-19T15:16:20.876Z</time></trkpt><trkpt lat="44.33681187866863" lon="9.741479522744193"><ele>847.0</ele><time>2026-04-19T15:16:21.876Z</time></trkpt><trkpt lat="44.33688021946213" lon="9.74156123011197"><ele>846.9999999999999</ele><time>2026-04-19T15:16:22.876Z</time></trkpt><trkpt lat="44.33693608947227" lon="9.741652775498142"><ele>847.0</ele><time>2026-04-19T15:16:23.876Z</time></trkpt><trkpt lat="44.33696124334695" lon="9.741746827779318"><ele>846.9999999999999</ele><time>2026-04-19T15:16:24.876Z</time></trkpt><trkpt lat="44.33693828799394" lon="9.741847384772743"><ele>847.0</ele><time>2026-04-19T15:16:25.876Z</time></trkpt><trkpt lat="44.3369289526527" lon="9.741973890653606"><ele>847.0</ele><time>2026-04-19T15:16:26.876Z</time></trkpt><trkpt lat="44.336908570239736" lon="9.742095382826859"><ele>847.0</ele><time>2026-04-19T15:16:27.876Z</time></trkpt><trkpt lat="44.336885413148956" lon="9.74222842045391"><ele>846.9999999999999</ele><time>2026-04-19T15:16:28.876Z</time></trkpt><trkpt lat="44.33686083174462" lon="9.742348095388971"><ele>847.0</ele><time>2026-04-19T15:16:29.876Z</time></trkpt><trkpt lat="44.336849102663145" lon="9.742448288141142"><ele>847.4000000000001</ele><time>2026-04-19T15:16:30.876Z</time></trkpt><trkpt lat="44.33686538589876" lon="9.742547513015827"><ele>847.8000000000001</ele><time>2026-04-19T15:16:31.876Z</time></trkpt><trkpt lat="44.3369156786923" lon="9.74264144985559"><ele>848.2</ele><time>2026-04-19T15:16:32.876Z</time></trkpt><trkpt lat="44.33700646134607" lon="9.742704393503285"><ele>848.6</ele><time>2026-04-19T15:16:33.876Z</time></trkpt><trkpt lat="44.337107289219844" lon="9.742743240955885"><ele>849.0</ele><time>2026-04-19T15:16:34.876Z</time></trkpt><trkpt lat="44.33722750502399" lon="9.742772219435652"><ele>845.75</ele><time>2026-04-19T15:16:35.876Z</time></trkpt><trkpt lat="44.337348049189885" lon="9.742805682755812"><ele>842.5</ele><time>2026-04-19T15:16:36.876Z</time></trkpt><trkpt lat="44.337467504887" lon="9.742834398727512"><ele>839.25</ele><time>2026-04-19T15:16:37.876Z</time></trkpt><trkpt lat="44.337576494252865" lon="9.742860792237328"><ele>836.0</ele><time>2026-04-19T15:16:38.876Z</time></trkpt><trkpt lat="44.33768100690333" lon="9.742863039039309"><ele>836.0</ele><time>2026-04-19T15:16:39.876Z</time></trkpt><trkpt lat="44.337786749956656" lon="9.742862302050055"><ele>836.0</ele><time>2026-04-19T15:16:40.876Z</time></trkpt><trkpt lat="44.33789475127683" lon="9.742845464390395"><ele>836.0</ele><time>2026-04-19T15:16:41.876Z</time></trkpt><trkpt lat="44.33800864175727" lon="9.742806201657128"><ele>836.0</ele><time>2026-04-19T15:16:42.876Z</time></trkpt><trkpt lat="44.33811536169692" lon="9.742751664168818"><ele>836.0</ele><time>2026-04-19T15:16:43.876Z</time></trkpt><trkpt lat="44.33821506683478" lon="9.742682461094029"><ele>831.5</ele><time>2026-04-19T15:16:44.876Z</time></trkpt><trkpt lat="44.3383112731881" lon="9.742628602393205"><ele>827.0</ele><time>2026-04-19T15:16:45.876Z</time></trkpt><trkpt lat="44.338405112004224" lon="9.742591773494857"><ele>822.5</ele><time>2026-04-19T15:16:46.876Z</time></trkpt><trkpt lat="44.33851147048283" lon="9.742603009516502"><ele>818.0</ele><time>2026-04-19T15:16:48.876Z</time></trkpt><trkpt lat="44.33864356155298" lon="9.742698391492763"><ele>817.3333333333334</ele><time>2026-04-19T15:16:50.876Z</time></trkpt><trkpt lat="44.33871353920577" lon="9.74278163496588"><ele>816.6666666666667</ele><time>2026-04-19T15:16:51.876Z</time></trkpt><trkpt lat="44.33876905913935" lon="9.742836397983764"><ele>816.0</ele><time>2026-04-19T15:16:52.876Z</time></trkpt><trkpt lat="44.33883886577842" lon="9.742840599377567"><ele>815.3333333333333</ele><time>2026-04-19T15:16:53.876Z</time></trkpt><trkpt lat="44.33891513446741" lon="9.742796549832095"><ele>814.6666666666666</ele><time>2026-04-19T15:16:54.876Z</time></trkpt><trkpt lat="44.33900605199423" lon="9.742714536151047"><ele>814.0</ele><time>2026-04-19T15:16:55.876Z</time></trkpt><trkpt lat="44.33909165590906" lon="9.742591896651613"><ele>814.0</ele><time>2026-04-19T15:16:56.876Z</time></trkpt><trkpt lat="44.339178474475325" lon="9.742457427580538"><ele>814.0</ele><time>2026-04-19T15:16:57.876Z</time></trkpt><trkpt lat="44.339272168801074" lon="9.742328737561811"><ele>814.0</ele><time>2026-04-19T15:16:58.876Z</time></trkpt><trkpt lat="44.33936688605808" lon="9.74220515020559"><ele>814.0</ele><time>2026-04-19T15:16:59.876Z</time></trkpt><trkpt lat="44.339453111619704" lon="9.742091764583066"><ele>814.0</ele><time>2026-04-19T15:17:00.876Z</time></trkpt><trkpt lat="44.339542490580634" lon="9.741999278276662"><ele>814.0</ele><time>2026-04-19T15:17:01.876Z</time></trkpt><trkpt lat="44.339647313466855" lon="9.74191392682488"><ele>814.0</ele><time>2026-04-19T15:17:02.876Z</time></trkpt><trkpt lat="44.33974902117547" lon="9.741847496112506"><ele>814.0</ele><time>2026-04-19T15:17:03.876Z</time></trkpt><trkpt lat="44.339842722987505" lon="9.74177214466089"><ele>812.8000000000001</ele><time>2026-04-19T15:17:04.876Z</time></trkpt><trkpt lat="44.33992622296267" lon="9.741666402666251"><ele>811.6</ele><time>2026-04-19T15:17:05.876Z</time></trkpt><trkpt lat="44.33999514581038" lon="9.741539192449173"><ele>810.4</ele><time>2026-04-19T15:17:06.876Z</time></trkpt><trkpt lat="44.34005714209116" lon="9.74142220334071"><ele>809.2</ele><time>2026-04-19T15:17:07.876Z</time></trkpt><trkpt lat="44.34011544288568" lon="9.741339568075102"><ele>808.0</ele><time>2026-04-19T15:17:08.876Z</time></trkpt><trkpt lat="44.34018165436811" lon="9.74130226329713"><ele>808.0</ele><time>2026-04-19T15:17:09.876Z</time></trkpt><trkpt lat="44.34026099409584" lon="9.741310085455337"><ele>808.0</ele><time>2026-04-19T15:17:10.876Z</time></trkpt><trkpt lat="44.340344448223426" lon="9.741357719949617"><ele>808.0</ele><time>2026-04-19T15:17:11.876Z</time></trkpt><trkpt lat="44.340431481607325" lon="9.741438573965992"><ele>808.0</ele><time>2026-04-19T15:17:12.876Z</time></trkpt><trkpt lat="44.34051789698733" lon="9.74153333532601"><ele>808.0</ele><time>2026-04-19T15:17:13.876Z</time></trkpt><trkpt lat="44.340616001491206" lon="9.74162767673211"><ele>806.0</ele><time>2026-04-19T15:17:14.876Z</time></trkpt><trkpt lat="44.340720495205844" lon="9.741725961876552"><ele>804.0</ele><time>2026-04-19T15:17:15.876Z</time></trkpt><trkpt lat="44.34080948958214" lon="9.741816488457403"><ele>802.0</ele><time>2026-04-19T15:17:16.876Z</time></trkpt><trkpt lat="44.340879745962575" lon="9.741905133885064"><ele>800.0</ele><time>2026-04-19T15:17:17.876Z</time></trkpt><trkpt lat="44.340941931171535" lon="9.741986880079235"><ele>798.0</ele><time>2026-04-19T15:17:18.877Z</time></trkpt><trkpt lat="44.340972482218504" lon="9.742099237335959"><ele>798.0</ele><time>2026-04-19T15:17:19.877Z</time></trkpt><trkpt lat="44.340976977879095" lon="9.742222261056055"><ele>798.0</ele><time>2026-04-19T15:17:20.877Z</time></trkpt><trkpt lat="44.34096507362189" lon="9.742351603073837"><ele>798.0</ele><time>2026-04-19T15:17:21.877Z</time></trkpt><trkpt lat="44.340927295313065" lon="9.742507477087575"><ele>798.0</ele><time>2026-04-19T15:17:22.877Z</time></trkpt><trkpt lat="44.340900427441525" lon="9.742655203195834"><ele>798.0</ele><time>2026-04-19T15:17:23.877Z</time></trkpt><trkpt lat="44.34088535752064" lon="9.742807730229538"><ele>797.8333333333334</ele><time>2026-04-19T15:17:24.877Z</time></trkpt><trkpt lat="44.34086007554761" lon="9.742940770644761"><ele>797.6666666666667</ele><time>2026-04-19T15:17:25.877Z</time></trkpt><trkpt lat="44.340846607330185" lon="9.743041552537235"><ele>797.5</ele><time>2026-04-19T15:17:26.877Z</time></trkpt><trkpt lat="44.34086777136346" lon="9.743130730296416"><ele>797.3333333333334</ele><time>2026-04-19T15:17:27.877Z</time></trkpt><trkpt lat="44.34091820115598" lon="9.743240190652989"><ele>797.1666666666667</ele><time>2026-04-19T15:17:28.877Z</time></trkpt><trkpt lat="44.34098740438161" lon="9.743330468099908"><ele>797.0</ele><time>2026-04-19T15:17:29.877Z</time></trkpt><trkpt lat="44.34108727934558" lon="9.743423216624349"><ele>797.0</ele><time>2026-04-19T15:17:30.877Z</time></trkpt><trkpt lat="44.3411819604776" lon="9.743528036071504"><ele>797.0</ele><time>2026-04-19T15:17:31.877Z</time></trkpt><trkpt lat="44.341264591846986" lon="9.743651763784472"><ele>797.0</ele><time>2026-04-19T15:17:32.877Z</time></trkpt><trkpt lat="44.34132668422796" lon="9.743781223241076"><ele>797.0</ele><time>2026-04-19T15:17:33.877Z</time></trkpt><trkpt lat="44.34138858969809" lon="9.74388283759961"><ele>797.0</ele><time>2026-04-19T15:17:34.877Z</time></trkpt><trkpt lat="44.34145469186552" lon="9.743958250663715"><ele>794.8</ele><time>2026-04-19T15:17:35.877Z</time></trkpt><trkpt lat="44.34151713828287" lon="9.743995268420743"><ele>792.6</ele><time>2026-04-19T15:17:36.877Z</time></trkpt><trkpt lat="44.341600711698064" lon="9.744009786549706"><ele>790.4</ele><time>2026-04-19T15:17:37.877Z</time></trkpt><trkpt lat="44.34171449092415" lon="9.743996875659798"><ele>788.1999999999999</ele><time>2026-04-19T15:17:38.877Z</time></trkpt><trkpt lat="44.34181659670711" lon="9.743958134864664"><ele>786.0</ele><time>2026-04-19T15:17:39.877Z</time></trkpt><trkpt lat="44.341903182155306" lon="9.743897129573995"><ele>786.0</ele><time>2026-04-19T15:17:40.877Z</time></trkpt><trkpt lat="44.341984319266665" lon="9.743811950905545"><ele>786.0</ele><time>2026-04-19T15:17:41.877Z</time></trkpt><trkpt lat="44.342047297861704" lon="9.743676808055927"><ele>786.0</ele><time>2026-04-19T15:17:42.877Z</time></trkpt><trkpt lat="44.34211238330248" lon="9.74352149171224"><ele>786.0</ele><time>2026-04-19T15:17:43.877Z</time></trkpt><trkpt lat="44.34217582299212" lon="9.743372940990923"><ele>783.6666666666666</ele><time>2026-04-19T15:17:44.877Z</time></trkpt><trkpt lat="44.34224354431096" lon="9.743250196032447"><ele>781.3333333333333</ele><time>2026-04-19T15:17:45.877Z</time></trkpt><trkpt lat="44.34230985841338" lon="9.743149408248478"><ele>779.0</ele><time>2026-04-19T15:17:46.877Z</time></trkpt><trkpt lat="44.34236540090969" lon="9.743068670235722"><ele>776.6666666666666</ele><time>2026-04-19T15:17:47.877Z</time></trkpt><trkpt lat="44.34242973217703" lon="9.743022982408478"><ele>774.3333333333333</ele><time>2026-04-19T15:17:48.877Z</time></trkpt><trkpt lat="44.34250241716877" lon="9.743009890709002"><ele>772.0</ele><time>2026-04-19T15:17:49.877Z</time></trkpt><trkpt lat="44.34257924702264" lon="9.743042659811724"><ele>772.0</ele><time>2026-04-19T15:17:50.877Z</time></trkpt><trkpt lat="44.342667292001096" lon="9.74309440754784"><ele>772.0</ele><time>2026-04-19T15:17:51.877Z</time></trkpt><trkpt lat="44.34276495645173" lon="9.743162178630882"><ele>772.0</ele><time>2026-04-19T15:17:52.877Z</time></trkpt><trkpt lat="44.342855030260296" lon="9.743207014907211"><ele>772.0</ele><time>2026-04-19T15:17:53.877Z</time></trkpt><trkpt lat="44.34293697132505" lon="9.743236794745473"><ele>772.0</ele><time>2026-04-19T15:17:54.877Z</time></trkpt><trkpt lat="44.34301556739653" lon="9.74323765025768"><ele>771.0</ele><time>2026-04-19T15:17:55.877Z</time></trkpt><trkpt lat="44.34310591749194" lon="9.743184980742525"><ele>770.0</ele><time>2026-04-19T15:17:56.877Z</time></trkpt><trkpt lat="44.34319243950956" lon="9.743100390022999"><ele>769.0</ele><time>2026-04-19T15:17:57.877Z</time></trkpt><trkpt lat="44.34326311225341" lon="9.743000716731146"><ele>768.0</ele><time>2026-04-19T15:17:58.877Z</time></trkpt><trkpt lat="44.34333652940176" lon="9.74287619122256"><ele>767.0</ele><time>2026-04-19T15:17:59.877Z</time></trkpt><trkpt lat="44.343404969853516" lon="9.74273122438596"><ele>766.2</ele><time>2026-04-19T15:18:00.877Z</time></trkpt><trkpt lat="44.343474652899275" lon="9.742602517416609"><ele>765.4000000000001</ele><time>2026-04-19T15:18:01.877Z</time></trkpt><trkpt lat="44.34354174137095" lon="9.742487412452313"><ele>764.5999999999999</ele><time>2026-04-19T15:18:02.877Z</time></trkpt><trkpt lat="44.34360971220653" lon="9.742382205616055"><ele>763.8</ele><time>2026-04-19T15:18:03.877Z</time></trkpt><trkpt lat="44.34367085204379" lon="9.742307160450203"><ele>763.0</ele><time>2026-04-19T15:18:04.877Z</time></trkpt><trkpt lat="44.34374074486219" lon="9.742245024902802"><ele>763.0</ele><time>2026-04-19T15:18:05.877Z</time></trkpt><trkpt lat="44.34383327797788" lon="9.742227382342383"><ele>763.0</ele><time>2026-04-19T15:18:06.877Z</time></trkpt><trkpt lat="44.34393807789376" lon="9.7422371083211"><ele>763.0</ele><time>2026-04-19T15:18:07.877Z</time></trkpt><trkpt lat="44.34404528879137" lon="9.742254597190804"><ele>763.0</ele><time>2026-04-19T15:18:08.877Z</time></trkpt><trkpt lat="44.344156120971" lon="9.742272086508555"><ele>763.0</ele><time>2026-04-19T15:18:09.877Z</time></trkpt><trkpt lat="44.34425301847592" lon="9.742288911309023"><ele>762.0</ele><time>2026-04-19T15:18:10.877Z</time></trkpt><trkpt lat="44.34434352905405" lon="9.742337699951241"><ele>761.0</ele><time>2026-04-19T15:18:11.874Z</time></trkpt><trkpt lat="44.34442291030109" lon="9.742427111486055"><ele>760.0</ele><time>2026-04-19T15:18:12.874Z</time></trkpt><trkpt lat="44.3444824442966" lon="9.742535149636904"><ele>759.0</ele><time>2026-04-19T15:18:13.874Z</time></trkpt><trkpt lat="44.344524044003045" lon="9.742679179797076"><ele>758.0</ele><time>2026-04-19T15:18:14.874Z</time></trkpt><trkpt lat="44.34455230658674" lon="9.742848415667916"><ele>757.8</ele><time>2026-04-19T15:18:15.874Z</time></trkpt><trkpt lat="44.34459009312753" lon="9.742996892888286"><ele>757.5999999999999</ele><time>2026-04-19T15:18:16.874Z</time></trkpt><trkpt lat="44.34463357910881" lon="9.743126736963434"><ele>757.4000000000001</ele><time>2026-04-19T15:18:17.874Z</time></trkpt><trkpt lat="44.3447014621991" lon="9.743249849749372"><ele>757.2</ele><time>2026-04-19T15:18:18.875Z</time></trkpt><trkpt lat="44.34477048749798" lon="9.743369225668319"><ele>757.0</ele><time>2026-04-19T15:18:19.875Z</time></trkpt><trkpt lat="44.34484187312702" lon="9.74347305134081"><ele>754.3333333333334</ele><time>2026-04-19T15:18:20.875Z</time></trkpt><trkpt lat="44.344913603012365" lon="9.743558594381824"><ele>751.6666666666667</ele><time>2026-04-19T15:18:21.874Z</time></trkpt><trkpt lat="44.3449756880973" lon="9.743632558362783"><ele>749.0</ele><time>2026-04-19T15:18:22.874Z</time></trkpt><trkpt lat="44.345010358662336" lon="9.743716162436929"><ele>746.3333333333334</ele><time>2026-04-19T15:18:23.875Z</time></trkpt><trkpt lat="44.34501576918062" lon="9.743805762213029"><ele>743.6666666666666</ele><time>2026-04-19T15:18:24.875Z</time></trkpt><trkpt lat="44.344977233920496" lon="9.743914690853249"><ele>741.0</ele><time>2026-04-19T15:18:25.875Z</time></trkpt><trkpt lat="44.34491879059211" lon="9.744021535355222"><ele>741.0</ele><time>2026-04-19T15:18:26.875Z</time></trkpt><trkpt lat="44.344845488148074" lon="9.744111821035798"><ele>741.0</ele><time>2026-04-19T15:18:27.875Z</time></trkpt><trkpt lat="44.34474204926149" lon="9.744187178053206"><ele>741.0</ele><time>2026-04-19T15:18:28.875Z</time></trkpt><trkpt lat="44.34463627957052" lon="9.744249451979224"><ele>741.0</ele><time>2026-04-19T15:18:29.875Z</time></trkpt><trkpt lat="44.34453912996499" lon="9.74430431985065"><ele>741.0</ele><time>2026-04-19T15:18:30.875Z</time></trkpt><trkpt lat="44.344465193308984" lon="9.744358259326203"><ele>744.1999999999999</ele><time>2026-04-19T15:18:31.875Z</time></trkpt><trkpt lat="44.34442284301424" lon="9.744456068394575"><ele>747.4</ele><time>2026-04-19T15:18:32.875Z</time></trkpt><trkpt lat="44.34441524152771" lon="9.744588121046304"><ele>750.6</ele><time>2026-04-19T15:18:33.875Z</time></trkpt><trkpt lat="44.344442595752184" lon="9.744732048470908"><ele>753.8</ele><time>2026-04-19T15:18:34.875Z</time></trkpt><trkpt lat="44.34449860531538" lon="9.744891392483513"><ele>757.0</ele><time>2026-04-19T15:18:35.875Z</time></trkpt><trkpt lat="44.34455469797776" lon="9.745090900738887"><ele>756.0</ele><time>2026-04-19T15:18:36.875Z</time></trkpt><trkpt lat="44.34460534365088" lon="9.745292849945407"><ele>755.0</ele><time>2026-04-19T15:18:37.875Z</time></trkpt><trkpt lat="44.34465769539972" lon="9.74548832017711"><ele>754.0</ele><time>2026-04-19T15:18:38.875Z</time></trkpt><trkpt lat="44.34471206933074" lon="9.74569130627571"><ele>747.3333333333334</ele><time>2026-04-19T15:18:39.875Z</time></trkpt><trkpt lat="44.34476946580602" lon="9.745898755986723"><ele>740.6666666666666</ele><time>2026-04-19T15:18:40.875Z</time></trkpt><trkpt lat="44.34482590618773" lon="9.746109911948906"><ele>734.0</ele><time>2026-04-19T15:18:41.875Z</time></trkpt><trkpt lat="44.34488586745022" lon="9.746316442763703"><ele>734.0</ele><time>2026-04-19T15:18:42.875Z</time></trkpt><trkpt lat="44.34493961569558" lon="9.746515294244219"><ele>734.0</ele><time>2026-04-19T15:18:43.875Z</time></trkpt><trkpt lat="44.34498194860948" lon="9.746702870729287"><ele>734.0</ele><time>2026-04-19T15:18:44.875Z</time></trkpt><trkpt lat="44.34501403687702" lon="9.74688031853296"><ele>734.0</ele><time>2026-04-19T15:18:45.875Z</time></trkpt><trkpt lat="44.345047521820895" lon="9.747035164009665"><ele>733.8000000000001</ele><time>2026-04-19T15:18:46.875Z</time></trkpt><trkpt lat="44.34507819330434" lon="9.747187446271255"><ele>733.6</ele><time>2026-04-19T15:18:47.875Z</time></trkpt><trkpt lat="44.345087322643984" lon="9.747341537972478"><ele>733.4</ele><time>2026-04-19T15:18:48.875Z</time></trkpt><trkpt lat="44.345096769579406" lon="9.747481195598864"><ele>733.2</ele><time>2026-04-19T15:18:49.875Z</time></trkpt><trkpt lat="44.345112265593684" lon="9.747614999484089"><ele>733.0</ele><time>2026-04-19T15:18:50.875Z</time></trkpt><trkpt lat="44.34516832167217" lon="9.747751958561972"><ele>733.0</ele><time>2026-04-19T15:18:51.875Z</time></trkpt><trkpt lat="44.34524925424069" lon="9.747887142774696"><ele>733.0</ele><time>2026-04-19T15:18:52.875Z</time></trkpt><trkpt lat="44.3453274904129" lon="9.74801819885919"><ele>733.0</ele><time>2026-04-19T15:18:53.875Z</time></trkpt><trkpt lat="44.345402694637215" lon="9.74814557723763"><ele>733.0</ele><time>2026-04-19T15:18:54.875Z</time></trkpt><trkpt lat="44.3454563725379" lon="9.748255313444636"><ele>733.0</ele><time>2026-04-19T15:18:55.875Z</time></trkpt><trkpt lat="44.345489122968964" lon="9.748360241454392"><ele>733.0</ele><time>2026-04-19T15:18:56.875Z</time></trkpt><trkpt lat="44.345492870599045" lon="9.74846107084085"><ele>733.0</ele><time>2026-04-19T15:18:57.875Z</time></trkpt><trkpt lat="44.34546487319118" lon="9.748550637231261"><ele>733.0</ele><time>2026-04-19T15:18:58.875Z</time></trkpt><trkpt lat="44.34541346036475" lon="9.74863210345138"><ele>733.0</ele><time>2026-04-19T15:18:59.875Z</time></trkpt><trkpt lat="44.345360480996334" lon="9.748715947280804"><ele>733.0</ele><time>2026-04-19T15:19:00.875Z</time></trkpt><trkpt lat="44.34530705558127" lon="9.748817163920148"><ele>733.3333333333334</ele><time>2026-04-19T15:19:01.875Z</time></trkpt><trkpt lat="44.345268517906945" lon="9.74894045311364"><ele>733.6666666666667</ele><time>2026-04-19T15:19:02.875Z</time></trkpt><trkpt lat="44.345259508040876" lon="9.74906522156799"><ele>734.0</ele><time>2026-04-19T15:19:03.875Z</time></trkpt><trkpt lat="44.3452656580179" lon="9.749184283403038"><ele>734.3333333333334</ele><time>2026-04-19T15:19:04.875Z</time></trkpt><trkpt lat="44.34528395094829" lon="9.749289492556064"><ele>734.6666666666666</ele><time>2026-04-19T15:19:05.875Z</time></trkpt><trkpt lat="44.345335286515024" lon="9.749380051387156"><ele>735.0</ele><time>2026-04-19T15:19:06.875Z</time></trkpt><trkpt lat="44.34537768721016" lon="9.749507068404558"><ele>735.0</ele><time>2026-04-19T15:19:07.875Z</time></trkpt><trkpt lat="44.345406712033586" lon="9.749640947733262"><ele>735.0</ele><time>2026-04-19T15:19:08.875Z</time></trkpt><trkpt lat="44.34543978178053" lon="9.749777997175139"><ele>735.0</ele><time>2026-04-19T15:19:09.875Z</time></trkpt><trkpt lat="44.345475669214856" lon="9.749916183463457"><ele>735.0</ele><time>2026-04-19T15:19:10.875Z</time></trkpt><trkpt lat="44.34550916086671" lon="9.750050674438736"><ele>735.0</ele><time>2026-04-19T15:19:11.875Z</time></trkpt><trkpt lat="44.34554500512639" lon="9.750192522992162"><ele>732.4</ele><time>2026-04-19T15:19:12.875Z</time></trkpt><trkpt lat="44.34558041893062" lon="9.750331217793795"><ele>729.8</ele><time>2026-04-19T15:19:13.875Z</time></trkpt><trkpt lat="44.34561136592226" lon="9.750467445456946"><ele>727.2</ele><time>2026-04-19T15:19:14.875Z</time></trkpt><trkpt lat="44.345633535318235" lon="9.75059496353221"><ele>724.6</ele><time>2026-04-19T15:19:15.875Z</time></trkpt><trkpt lat="44.34565525167595" lon="9.750713010383175"><ele>722.0</ele><time>2026-04-19T15:19:16.875Z</time></trkpt><trkpt lat="44.34566793380259" lon="9.7508343902975"><ele>722.0</ele><time>2026-04-19T15:19:17.875Z</time></trkpt><trkpt lat="44.34567288058259" lon="9.750952529938065"><ele>722.0</ele><time>2026-04-19T15:19:18.875Z</time></trkpt><trkpt lat="44.345667125009236" lon="9.751066633760738"><ele>722.0</ele><time>2026-04-19T15:19:19.875Z</time></trkpt><trkpt lat="44.345659405260484" lon="9.751177073790522"><ele>722.0</ele><time>2026-04-19T15:19:20.875Z</time></trkpt><trkpt lat="44.34564386620353" lon="9.751277816392333"><ele>722.0</ele><time>2026-04-19T15:19:21.875Z</time></trkpt><trkpt lat="44.34562351899517" lon="9.751367887007362"><ele>722.0</ele><time>2026-04-19T15:19:22.875Z</time></trkpt><trkpt lat="44.3455913050284" lon="9.75147402791939"><ele>722.8333333333333</ele><time>2026-04-19T15:19:23.875Z</time></trkpt><trkpt lat="44.3455677316451" lon="9.751559846634855"><ele>723.6666666666666</ele><time>2026-04-19T15:19:24.875Z</time></trkpt><trkpt lat="44.34549884480839" lon="9.751680768877025"><ele>724.5</ele><time>2026-04-19T15:19:26.875Z</time></trkpt><trkpt lat="44.34543452484063" lon="9.751718161028357"><ele>725.3333333333334</ele><time>2026-04-19T15:19:27.875Z</time></trkpt><trkpt lat="44.34534437823285" lon="9.7517243058667"><ele>726.1666666666667</ele><time>2026-04-19T15:19:28.875Z</time></trkpt><trkpt lat="44.3452511764289" lon="9.75171068559085"><ele>727.0</ele><time>2026-04-19T15:19:29.875Z</time></trkpt><trkpt lat="44.345150246397665" lon="9.751697033547615"><ele>727.0</ele><time>2026-04-19T15:19:30.875Z</time></trkpt><trkpt lat="44.34505850952833" lon="9.751694757383236"><ele>727.0</ele><time>2026-04-19T15:19:31.875Z</time></trkpt><trkpt lat="44.34497601225644" lon="9.751702673230154"><ele>727.0</ele><time>2026-04-19T15:19:32.875Z</time></trkpt><trkpt lat="44.344895708804295" lon="9.751718356806844"><ele>727.0</ele><time>2026-04-19T15:19:33.875Z</time></trkpt><trkpt lat="44.34482967275576" lon="9.751744526554571"><ele>727.0</ele><time>2026-04-19T15:19:34.875Z</time></trkpt><trkpt lat="44.34476980693849" lon="9.751797269847073"><ele>727.0</ele><time>2026-04-19T15:19:35.875Z</time></trkpt><trkpt lat="44.34472945761622" lon="9.751886833052929"><ele>729.4000000000001</ele><time>2026-04-19T15:19:36.875Z</time></trkpt><trkpt lat="44.3447147604733" lon="9.751996611520536"><ele>731.8000000000001</ele><time>2026-04-19T15:19:37.875Z</time></trkpt><trkpt lat="44.34471925202594" lon="9.752146016719978"><ele>734.2</ele><time>2026-04-19T15:19:38.875Z</time></trkpt><trkpt lat="44.34471827054923" lon="9.75229438606763"><ele>736.6</ele><time>2026-04-19T15:19:39.875Z</time></trkpt><trkpt lat="44.34469407932404" lon="9.752414506093393"><ele>739.0</ele><time>2026-04-19T15:19:40.875Z</time></trkpt><trkpt lat="44.34463460896534" lon="9.75253783091998"><ele>739.0</ele><time>2026-04-19T15:19:41.875Z</time></trkpt><trkpt lat="44.34456437671595" lon="9.752646987524674"><ele>739.0</ele><time>2026-04-19T15:19:42.875Z</time></trkpt><trkpt lat="44.344489932253786" lon="9.75277716922776"><ele>739.0</ele><time>2026-04-19T15:19:43.875Z</time></trkpt><trkpt lat="44.34440985243868" lon="9.75290507514647"><ele>739.0</ele><time>2026-04-19T15:19:44.875Z</time></trkpt><trkpt lat="44.344333975189514" lon="9.753044859216041"><ele>734.25</ele><time>2026-04-19T15:19:45.875Z</time></trkpt><trkpt lat="44.344265749172045" lon="9.753176865688443"><ele>729.5</ele><time>2026-04-19T15:19:46.875Z</time></trkpt><trkpt lat="44.344180463416855" lon="9.753319040248055"><ele>724.75</ele><time>2026-04-19T15:19:47.875Z</time></trkpt><trkpt lat="44.34409504482354" lon="9.753453672054292"><ele>720.0</ele><time>2026-04-19T15:19:48.875Z</time></trkpt><trkpt lat="44.344013930551334" lon="9.753578946582996"><ele>717.6</ele><time>2026-04-19T15:19:49.875Z</time></trkpt><trkpt lat="44.343942349943966" lon="9.753700073141827"><ele>715.2</ele><time>2026-04-19T15:19:50.875Z</time></trkpt><trkpt lat="44.34386938184981" lon="9.753806797297804"><ele>712.8</ele><time>2026-04-19T15:19:51.875Z</time></trkpt><trkpt lat="44.34379686971568" lon="9.75389625195971"><ele>710.4</ele><time>2026-04-19T15:19:52.875Z</time></trkpt><trkpt lat="44.34374088972938" lon="9.7539886850702"><ele>708.0</ele><time>2026-04-19T15:19:53.875Z</time></trkpt><trkpt lat="44.34367552237173" lon="9.754083497279959"><ele>708.0</ele><time>2026-04-19T15:19:54.875Z</time></trkpt><trkpt lat="44.3435831291551" lon="9.75414792008709"><ele>708.0</ele><time>2026-04-19T15:19:55.875Z</time></trkpt><trkpt lat="44.34345887886302" lon="9.754160772801406"><ele>708.0</ele><time>2026-04-19T15:19:56.875Z</time></trkpt><trkpt lat="44.34333812418625" lon="9.754135529614958"><ele>708.0</ele><time>2026-04-19T15:19:57.875Z</time></trkpt><trkpt lat="44.343224503147056" lon="9.754084848454697"><ele>708.0</ele><time>2026-04-19T15:19:58.875Z</time></trkpt><trkpt lat="44.34311770982106" lon="9.754047012254572"><ele>708.0</ele><time>2026-04-19T15:19:59.875Z</time></trkpt><trkpt lat="44.34301696175531" lon="9.75401138157287"><ele>708.0</ele><time>2026-04-19T15:20:00.875Z</time></trkpt><trkpt lat="44.34291776000656" lon="9.753996459260055"><ele>708.0</ele><time>2026-04-19T15:20:01.875Z</time></trkpt><trkpt lat="44.34283282994027" lon="9.753971060965736"><ele>708.0</ele><time>2026-04-19T15:20:02.875Z</time></trkpt><trkpt lat="44.3427079292872" lon="9.754007572247298"><ele>707.3333333333334</ele><time>2026-04-19T15:20:04.875Z</time></trkpt><trkpt lat="44.342636663738375" lon="9.754076291916478"><ele>706.6666666666666</ele><time>2026-04-19T15:20:05.875Z</time></trkpt><trkpt lat="44.34262511011212" lon="9.75416592968623"><ele>706.0</ele><time>2026-04-19T15:20:06.875Z</time></trkpt><trkpt lat="44.34263258747149" lon="9.75427313547566"><ele>705.3333333333333</ele><time>2026-04-19T15:20:07.875Z</time></trkpt><trkpt lat="44.34265796114041" lon="9.754367765904972"><ele>704.6666666666666</ele><time>2026-04-19T15:20:08.875Z</time></trkpt><trkpt lat="44.34270708680533" lon="9.754478937294238"><ele>704.0</ele><time>2026-04-19T15:20:09.875Z</time></trkpt><trkpt lat="44.342754104096684" lon="9.754619909224834"><ele>704.0</ele><time>2026-04-19T15:20:10.875Z</time></trkpt><trkpt lat="44.342785574003955" lon="9.75476016898956"><ele>704.0</ele><time>2026-04-19T15:20:11.875Z</time></trkpt><trkpt lat="44.342785226437584" lon="9.754907560692859"><ele>704.0</ele><time>2026-04-19T15:20:12.875Z</time></trkpt><trkpt lat="44.34278363885332" lon="9.75505827185677"><ele>704.0</ele><time>2026-04-19T15:20:13.875Z</time></trkpt><trkpt lat="44.3427970754179" lon="9.755204893925379"><ele>704.0</ele><time>2026-04-19T15:20:14.875Z</time></trkpt><trkpt lat="44.342807182533505" lon="9.755344281214128"><ele>702.0</ele><time>2026-04-19T15:20:15.875Z</time></trkpt><trkpt lat="44.342798334583165" lon="9.755480071878416"><ele>700.0</ele><time>2026-04-19T15:20:16.875Z</time></trkpt><trkpt lat="44.342773304760215" lon="9.755589148260606"><ele>698.0</ele><time>2026-04-19T15:20:17.873Z</time></trkpt><trkpt lat="44.34274192474405" lon="9.755702741008111"><ele>696.0</ele><time>2026-04-19T15:20:18.873Z</time></trkpt><trkpt lat="44.342678557550826" lon="9.755810701584608"><ele>694.0</ele><time>2026-04-19T15:20:19.873Z</time></trkpt><trkpt lat="44.342616818053955" lon="9.755911628970495"><ele>694.0</ele><time>2026-04-19T15:20:20.873Z</time></trkpt><trkpt lat="44.34256616880265" lon="9.756025555228797"><ele>694.0</ele><time>2026-04-19T15:20:21.873Z</time></trkpt><trkpt lat="44.34251357675343" lon="9.756117877400582"><ele>694.0</ele><time>2026-04-19T15:20:22.873Z</time></trkpt><trkpt lat="44.34246674969752" lon="9.756203712375022"><ele>694.0</ele><time>2026-04-19T15:20:23.872Z</time></trkpt><trkpt lat="44.342426469069586" lon="9.75628638420714"><ele>694.0</ele><time>2026-04-19T15:20:24.873Z</time></trkpt><trkpt lat="44.34239127614139" lon="9.756360468802818"><ele>694.0</ele><time>2026-04-19T15:20:25.873Z</time></trkpt><trkpt lat="44.342360331799114" lon="9.756437764192052"><ele>693.0</ele><time>2026-04-19T15:20:26.873Z</time></trkpt><trkpt lat="44.34230273101284" lon="9.756586551739266"><ele>692.0</ele><time>2026-04-19T15:20:28.872Z</time></trkpt><trkpt lat="44.34223451648933" lon="9.756716900177178"><ele>691.0</ele><time>2026-04-19T15:20:30.872Z</time></trkpt><trkpt lat="44.342188492705205" lon="9.756791500316421"><ele>690.0</ele><time>2026-04-19T15:20:31.872Z</time></trkpt><trkpt lat="44.34213403706381" lon="9.756863656667154"><ele>689.0</ele><time>2026-04-19T15:20:32.872Z</time></trkpt><trkpt lat="44.34207457762698" lon="9.756943720514766"><ele>689.0</ele><time>2026-04-19T15:20:33.872Z</time></trkpt><trkpt lat="44.342007188414264" lon="9.75702755098093"><ele>689.0</ele><time>2026-04-19T15:20:34.872Z</time></trkpt><trkpt lat="44.34195196977581" lon="9.7571147938161"><ele>689.0</ele><time>2026-04-19T15:20:35.872Z</time></trkpt><trkpt lat="44.34190202194244" lon="9.757232213188747"><ele>689.0</ele><time>2026-04-19T15:20:36.872Z</time></trkpt><trkpt lat="44.34185087504512" lon="9.757356115377068"><ele>689.0</ele><time>2026-04-19T15:20:37.872Z</time></trkpt><trkpt lat="44.34180092825889" lon="9.757485232616316"><ele>689.0</ele><time>2026-04-19T15:20:38.872Z</time></trkpt><trkpt lat="44.34176359209163" lon="9.757613879306673"><ele>689.0</ele><time>2026-04-19T15:20:39.872Z</time></trkpt><trkpt lat="44.341732197491915" lon="9.757743135026463"><ele>689.0</ele><time>2026-04-19T15:20:40.872Z</time></trkpt><trkpt lat="44.34170939236527" lon="9.757858055874411"><ele>689.0</ele><time>2026-04-19T15:20:41.872Z</time></trkpt><trkpt lat="44.34168692196139" lon="9.757982535083695"><ele>689.0</ele><time>2026-04-19T15:20:42.872Z</time></trkpt><trkpt lat="44.34165242008643" lon="9.758104904456985"><ele>688.2</ele><time>2026-04-19T15:20:43.872Z</time></trkpt><trkpt lat="44.34159961168295" lon="9.758218963636947"><ele>687.4000000000001</ele><time>2026-04-19T15:20:44.872Z</time></trkpt><trkpt lat="44.341535616018454" lon="9.758311253992021"><ele>686.6</ele><time>2026-04-19T15:20:45.872Z</time></trkpt><trkpt lat="44.34147003215239" lon="9.75840049560694"><ele>685.8</ele><time>2026-04-19T15:20:46.872Z</time></trkpt><trkpt lat="44.34141184124357" lon="9.75849563545434"><ele>685.0</ele><time>2026-04-19T15:20:47.872Z</time></trkpt><trkpt lat="44.34134650068758" lon="9.758605546984137"><ele>685.0</ele><time>2026-04-19T15:20:48.872Z</time></trkpt><trkpt lat="44.34129847949688" lon="9.75873012957954"><ele>685.0</ele><time>2026-04-19T15:20:49.872Z</time></trkpt><trkpt lat="44.341254112699204" lon="9.758870459187582"><ele>685.0</ele><time>2026-04-19T15:20:50.872Z</time></trkpt><trkpt lat="44.341219100477566" lon="9.759010709762876"><ele>685.0</ele><time>2026-04-19T15:20:51.872Z</time></trkpt><trkpt lat="44.34118778140053" lon="9.75916036984249"><ele>685.0</ele><time>2026-04-19T15:20:52.872Z</time></trkpt><trkpt lat="44.34115426854225" lon="9.759309573043552"><ele>684.0</ele><time>2026-04-19T15:20:53.872Z</time></trkpt><trkpt lat="44.341117228773626" lon="9.75944423398045"><ele>683.0</ele><time>2026-04-19T15:20:54.872Z</time></trkpt><trkpt lat="44.34108792934343" lon="9.759582785938026"><ele>682.0</ele><time>2026-04-19T15:20:55.872Z</time></trkpt><trkpt lat="44.341054273597926" lon="9.759712146283015"><ele>681.0</ele><time>2026-04-19T15:20:56.872Z</time></trkpt><trkpt lat="44.34101653640561" lon="9.759829522192069"><ele>680.0</ele><time>2026-04-19T15:20:57.872Z</time></trkpt><trkpt lat="44.34098476774466" lon="9.759940673282044"><ele>680.0</ele><time>2026-04-19T15:20:58.872Z</time></trkpt><trkpt lat="44.34095554628953" lon="9.760038030485271"><ele>680.0</ele><time>2026-04-19T15:20:59.872Z</time></trkpt><trkpt lat="44.34092117812436" lon="9.760132451338192"><ele>680.0</ele><time>2026-04-19T15:21:00.872Z</time></trkpt><trkpt lat="44.3408967877061" lon="9.760222628534772"><ele>680.0</ele><time>2026-04-19T15:21:01.872Z</time></trkpt><trkpt lat="44.340845561808315" lon="9.76035293448866"><ele>680.0</ele><time>2026-04-19T15:21:03.872Z</time></trkpt><trkpt lat="44.34081730611235" lon="9.760440058460263"><ele>680.0</ele><time>2026-04-19T15:21:06.872Z</time></trkpt><trkpt lat="44.34081141452275" lon="9.7605523678118"><ele>680.0</ele><time>2026-04-19T15:21:09.872Z</time></trkpt><trkpt lat="44.3408276398035" lon="9.760694793123516"><ele>680.0</ele><time>2026-04-19T15:21:11.872Z</time></trkpt><trkpt lat="44.34085638306603" lon="9.76079310677521"><ele>680.0</ele><time>2026-04-19T15:21:12.872Z</time></trkpt><trkpt lat="44.340884803213655" lon="9.760883595421095"><ele>680.0</ele><time>2026-04-19T15:21:13.872Z</time></trkpt><trkpt lat="44.34093808384277" lon="9.761029019304017"><ele>680.0</ele><time>2026-04-19T15:21:15.872Z</time></trkpt><trkpt lat="44.34096266021129" lon="9.761120297072688"><ele>680.0</ele><time>2026-04-19T15:21:16.872Z</time></trkpt><trkpt lat="44.34099280398429" lon="9.76120316252388"><ele>679.6</ele><time>2026-04-19T15:21:17.872Z</time></trkpt><trkpt lat="44.34105284407239" lon="9.761341703512619"><ele>679.2</ele><time>2026-04-19T15:21:19.872Z</time></trkpt><trkpt lat="44.341121802044086" lon="9.761439636732742"><ele>678.8</ele><time>2026-04-19T15:21:21.873Z</time></trkpt><trkpt lat="44.341171777818076" lon="9.76152699354203"><ele>678.4</ele><time>2026-04-19T15:21:24.873Z</time></trkpt><trkpt lat="44.34113536472577" lon="9.761626827669376"><ele>678.0</ele><time>2026-04-19T15:21:26.873Z</time></trkpt><trkpt lat="44.34104830175589" lon="9.761730498688685"><ele>678.0</ele><time>2026-04-19T15:21:28.873Z</time></trkpt><trkpt lat="44.34096647892974" lon="9.76185977488857"><ele>678.0</ele><time>2026-04-19T15:21:30.873Z</time></trkpt><trkpt lat="44.34091478099357" lon="9.761919469135321"><ele>678.0</ele><time>2026-04-19T15:21:31.873Z</time></trkpt><trkpt lat="44.340863957975415" lon="9.761976292113212"><ele>678.0</ele><time>2026-04-19T15:21:32.873Z</time></trkpt><trkpt lat="44.34080614723248" lon="9.762026649142884"><ele>678.0</ele><time>2026-04-19T15:21:33.873Z</time></trkpt><trkpt lat="44.34072663023612" lon="9.762086064566168"><ele>678.0</ele><time>2026-04-19T15:21:34.873Z</time></trkpt><trkpt lat="44.34064577811933" lon="9.762148766787666"><ele>678.1666666666666</ele><time>2026-04-19T15:21:35.873Z</time></trkpt><trkpt lat="44.34056814408219" lon="9.762197360031832"><ele>678.3333333333334</ele><time>2026-04-19T15:21:36.873Z</time></trkpt><trkpt lat="44.34049178659392" lon="9.762252328001042"><ele>678.5</ele><time>2026-04-19T15:21:37.873Z</time></trkpt><trkpt lat="44.34040857299728" lon="9.762312182796965"><ele>678.6666666666667</ele><time>2026-04-19T15:21:38.873Z</time></trkpt><trkpt lat="44.340327479340495" lon="9.762365456993747"><ele>678.8333333333334</ele><time>2026-04-19T15:21:39.873Z</time></trkpt><trkpt lat="44.34025962685084" lon="9.762415760734603"><ele>679.0</ele><time>2026-04-19T15:21:40.873Z</time></trkpt><trkpt lat="44.34016334116582" lon="9.76248936264588"><ele>679.0</ele><time>2026-04-19T15:21:42.873Z</time></trkpt><trkpt lat="44.34009993464511" lon="9.762479844967467"><ele>679.0</ele><time>2026-04-19T15:21:43.873Z</time></trkpt><trkpt lat="44.340010966046705" lon="9.762484910744659"><ele>679.0</ele><time>2026-04-19T15:21:44.873Z</time></trkpt><trkpt lat="44.339924748621655" lon="9.762468051853508"><ele>679.0</ele><time>2026-04-19T15:21:45.873Z</time></trkpt><trkpt lat="44.33983934349636" lon="9.762431196009402"><ele>679.0</ele><time>2026-04-19T15:21:46.873Z</time></trkpt><trkpt lat="44.33975654451767" lon="9.76238161755527"><ele>679.0</ele><time>2026-04-19T15:21:47.873Z</time></trkpt><trkpt lat="44.33967372822549" lon="9.762335771230697"><ele>678.0</ele><time>2026-04-19T15:21:48.873Z</time></trkpt><trkpt lat="44.33958077542784" lon="9.76229557661698"><ele>677.0</ele><time>2026-04-19T15:21:49.873Z</time></trkpt><trkpt lat="44.339482184311585" lon="9.762238071712178"><ele>676.0</ele><time>2026-04-19T15:21:50.873Z</time></trkpt><trkpt lat="44.3393789473272" lon="9.76217121749934"><ele>675.0</ele><time>2026-04-19T15:21:51.873Z</time></trkpt><trkpt lat="44.339279014487126" lon="9.76210703907481"><ele>674.0</ele><time>2026-04-19T15:21:52.873Z</time></trkpt><trkpt lat="44.33917989246025" lon="9.762045362312723"><ele>674.0</ele><time>2026-04-19T15:21:53.873Z</time></trkpt><trkpt lat="44.33909095963756" lon="9.761994150786245"><ele>674.0</ele><time>2026-04-19T15:21:54.873Z</time></trkpt><trkpt lat="44.33901078193611" lon="9.761944596659346"><ele>674.0</ele><time>2026-04-19T15:21:55.873Z</time></trkpt><trkpt lat="44.33894244170408" lon="9.76189017727811"><ele>674.0</ele><time>2026-04-19T15:21:56.873Z</time></trkpt><trkpt lat="44.33886876276798" lon="9.761830252977052"><ele>674.0</ele><time>2026-04-19T15:21:57.873Z</time></trkpt><trkpt lat="44.33880131558765" lon="9.761771601342254"><ele>674.0</ele><time>2026-04-19T15:21:58.873Z</time></trkpt><trkpt lat="44.33875131278762" lon="9.761704576214754"><ele>673.8333333333333</ele><time>2026-04-19T15:21:59.873Z</time></trkpt><trkpt lat="44.3387042209265" lon="9.761636211345222"><ele>673.6666666666666</ele><time>2026-04-19T15:22:00.873Z</time></trkpt><trkpt lat="44.33866158735248" lon="9.76156600234675"><ele>673.5</ele><time>2026-04-19T15:22:01.873Z</time></trkpt><trkpt lat="44.33861044609903" lon="9.761493415462253"><ele>673.3333333333334</ele><time>2026-04-19T15:22:02.873Z</time></trkpt><trkpt lat="44.33854359508819" lon="9.761415359466195"><ele>673.1666666666667</ele><time>2026-04-19T15:22:03.873Z</time></trkpt><trkpt lat="44.33846354579458" lon="9.76135178747596"><ele>673.0</ele><time>2026-04-19T15:22:04.873Z</time></trkpt><trkpt lat="44.33837696816161" lon="9.76132500818121"><ele>673.0</ele><time>2026-04-19T15:22:05.873Z</time></trkpt><trkpt lat="44.33827489267152" lon="9.76132488149329"><ele>673.0</ele><time>2026-04-19T15:22:06.873Z</time></trkpt><trkpt lat="44.33817060176604" lon="9.76133930623035"><ele>673.0</ele><time>2026-04-19T15:22:07.873Z</time></trkpt><trkpt lat="44.33807103503267" lon="9.761361498380186"><ele>673.0</ele><time>2026-04-19T15:22:08.873Z</time></trkpt><trkpt lat="44.33797331723489" lon="9.761398653900033"><ele>673.0</ele><time>2026-04-19T15:22:09.873Z</time></trkpt><trkpt lat="44.33789595286422" lon="9.761440651959534"><ele>673.4</ele><time>2026-04-19T15:22:10.873Z</time></trkpt><trkpt lat="44.33782954728389" lon="9.76144844324782"><ele>673.8</ele><time>2026-04-19T15:22:11.873Z</time></trkpt><trkpt lat="44.337743904316376" lon="9.761465702065156"><ele>674.2</ele><time>2026-04-19T15:22:12.873Z</time></trkpt><trkpt lat="44.33764451870994" lon="9.761485667242527"><ele>674.6</ele><time>2026-04-19T15:22:13.873Z</time></trkpt><trkpt lat="44.33754240444543" lon="9.76150296726971"><ele>675.0</ele><time>2026-04-19T15:22:14.873Z</time></trkpt><trkpt lat="44.33743831038682" lon="9.761512666582398"><ele>675.0</ele><time>2026-04-19T15:22:15.873Z</time></trkpt><trkpt lat="44.3373408229747" lon="9.761536989836761"><ele>675.0</ele><time>2026-04-19T15:22:16.873Z</time></trkpt><trkpt lat="44.3372364454751" lon="9.76155733890103"><ele>675.0</ele><time>2026-04-19T15:22:17.873Z</time></trkpt><trkpt lat="44.33712786286691" lon="9.761579511594485"><ele>675.0</ele><time>2026-04-19T15:22:18.873Z</time></trkpt><trkpt lat="44.337019710625206" lon="9.761639786607628"><ele>675.0</ele><time>2026-04-19T15:22:19.873Z</time></trkpt><trkpt lat="44.33693783552207" lon="9.76173169255673"><ele>673.4</ele><time>2026-04-19T15:22:20.873Z</time></trkpt><trkpt lat="44.336856875804756" lon="9.761846773948902"><ele>671.8</ele><time>2026-04-19T15:22:21.873Z</time></trkpt><trkpt lat="44.33678491766122" lon="9.761933154658438"><ele>670.2</ele><time>2026-04-19T15:22:22.873Z</time></trkpt><trkpt lat="44.33669323759002" lon="9.761990901195478"><ele>668.6</ele><time>2026-04-19T15:22:23.87Z</time></trkpt><trkpt lat="44.33659405754864" lon="9.762035380016357"><ele>667.0</ele><time>2026-04-19T15:22:24.871Z</time></trkpt><trkpt lat="44.336487938561376" lon="9.762054361202793"><ele>669.2</ele><time>2026-04-19T15:22:25.871Z</time></trkpt><trkpt lat="44.336385130247336" lon="9.762043884862345"><ele>671.4000000000001</ele><time>2026-04-19T15:22:26.87Z</time></trkpt><trkpt lat="44.33627910445065" lon="9.762058037003374"><ele>673.5999999999999</ele><time>2026-04-19T15:22:27.87Z</time></trkpt><trkpt lat="44.33617877758235" lon="9.762092505152843"><ele>675.8</ele><time>2026-04-19T15:22:28.87Z</time></trkpt><trkpt lat="44.33608675629825" lon="9.762167524686594"><ele>678.0</ele><time>2026-04-19T15:22:29.87Z</time></trkpt><trkpt lat="44.33600334982492" lon="9.762249683831426"><ele>678.0</ele><time>2026-04-19T15:22:30.87Z</time></trkpt><trkpt lat="44.335919455081395" lon="9.762304543543287"><ele>678.0</ele><time>2026-04-19T15:22:31.87Z</time></trkpt><trkpt lat="44.335849172890285" lon="9.762377598826586"><ele>678.0</ele><time>2026-04-19T15:22:32.871Z</time></trkpt><trkpt lat="44.335793577459114" lon="9.76244234204238"><ele>678.0</ele><time>2026-04-19T15:22:33.87Z</time></trkpt><trkpt lat="44.33575592705492" lon="9.762518165530386"><ele>678.0</ele><time>2026-04-19T15:22:34.87Z</time></trkpt><trkpt lat="44.33573547896023" lon="9.762628531790376"><ele>678.0</ele><time>2026-04-19T15:22:35.87Z</time></trkpt><trkpt lat="44.335744055107874" lon="9.762768641087337"><ele>678.5</ele><time>2026-04-19T15:22:36.87Z</time></trkpt><trkpt lat="44.33576658592218" lon="9.762879038518966"><ele>679.0</ele><time>2026-04-19T15:22:37.87Z</time></trkpt><trkpt lat="44.33587591281948" lon="9.76294520150261"><ele>679.5</ele><time>2026-04-19T15:22:39.87Z</time></trkpt><trkpt lat="44.3359496528101" lon="9.762953442282637"><ele>680.0</ele><time>2026-04-19T15:22:40.87Z</time></trkpt><trkpt lat="44.33602572385659" lon="9.762961739594482"><ele>680.5</ele><time>2026-04-19T15:22:41.87Z</time></trkpt><trkpt lat="44.33610885519616" lon="9.762976095940745"><ele>681.0</ele><time>2026-04-19T15:22:42.87Z</time></trkpt><trkpt lat="44.33619166313872" lon="9.763010858047869"><ele>681.0</ele><time>2026-04-19T15:22:43.87Z</time></trkpt><trkpt lat="44.33625792034576" lon="9.763070726968166"><ele>681.0</ele><time>2026-04-19T15:22:44.87Z</time></trkpt><trkpt lat="44.336309246152105" lon="9.76316100033489"><ele>681.0</ele><time>2026-04-19T15:22:45.87Z</time></trkpt><trkpt lat="44.336359513416774" lon="9.763266990770125"><ele>681.0</ele><time>2026-04-19T15:22:46.87Z</time></trkpt><trkpt lat="44.336401029871105" lon="9.763384921424105"><ele>681.0</ele><time>2026-04-19T15:22:47.87Z</time></trkpt><trkpt lat="44.336435400453205" lon="9.763516624751963"><ele>681.0</ele><time>2026-04-19T15:22:48.87Z</time></trkpt><trkpt lat="44.33645130760119" lon="9.763647100632856"><ele>680.1999999999999</ele><time>2026-04-19T15:22:49.87Z</time></trkpt><trkpt lat="44.33646071386331" lon="9.763790220621777"><ele>679.4</ele><time>2026-04-19T15:22:50.87Z</time></trkpt><trkpt lat="44.33646582691173" lon="9.763932827572706"><ele>678.6</ele><time>2026-04-19T15:22:51.87Z</time></trkpt><trkpt lat="44.33646195195682" lon="9.764081646741614"><ele>677.8</ele><time>2026-04-19T15:22:52.87Z</time></trkpt><trkpt lat="44.33643999476749" lon="9.764233314087038"><ele>677.0</ele><time>2026-04-19T15:22:53.871Z</time></trkpt><trkpt lat="44.33641918665581" lon="9.764387909520547"><ele>678.8</ele><time>2026-04-19T15:22:54.871Z</time></trkpt><trkpt lat="44.336402248142235" lon="9.764544250229607"><ele>680.6</ele><time>2026-04-19T15:22:55.871Z</time></trkpt><trkpt lat="44.33638079329715" lon="9.764684732753347"><ele>682.4</ele><time>2026-04-19T15:22:56.871Z</time></trkpt><trkpt lat="44.33635116354524" lon="9.764825500724271"><ele>684.1999999999999</ele><time>2026-04-19T15:22:57.871Z</time></trkpt><trkpt lat="44.336306277012525" lon="9.764957803424588"><ele>686.0</ele><time>2026-04-19T15:22:58.871Z</time></trkpt><trkpt lat="44.33626498386969" lon="9.765080757540506"><ele>686.5</ele><time>2026-04-19T15:22:59.871Z</time></trkpt><trkpt lat="44.33622731194952" lon="9.765184590171552"><ele>687.0</ele><time>2026-04-19T15:23:00.871Z</time></trkpt><trkpt lat="44.336193707756095" lon="9.765272311298924"><ele>687.5</ele><time>2026-04-19T15:23:01.871Z</time></trkpt><trkpt lat="44.336169402178385" lon="9.765371542471199"><ele>688.0</ele><time>2026-04-19T15:23:02.871Z</time></trkpt><trkpt lat="44.33615931594208" lon="9.765471873821937"><ele>688.5</ele><time>2026-04-19T15:23:03.871Z</time></trkpt><trkpt lat="44.33617019369456" lon="9.765564314700391"><ele>689.0</ele><time>2026-04-19T15:23:04.871Z</time></trkpt><trkpt lat="44.33623157583832" lon="9.765640424799019"><ele>690.8000000000001</ele><time>2026-04-19T15:23:05.871Z</time></trkpt><trkpt lat="44.33632101384035" lon="9.765663200627214"><ele>692.6</ele><time>2026-04-19T15:23:06.871Z</time></trkpt><trkpt lat="44.33642192454746" lon="9.765633020542824"><ele>694.4</ele><time>2026-04-19T15:23:07.871Z</time></trkpt><trkpt lat="44.33651510166042" lon="9.765585285340618"><ele>696.2</ele><time>2026-04-19T15:23:08.871Z</time></trkpt><trkpt lat="44.336615370608435" lon="9.765530848734148"><ele>698.0</ele><time>2026-04-19T15:23:09.871Z</time></trkpt><trkpt lat="44.33670718860634" lon="9.765484163511248"><ele>698.5999999999999</ele><time>2026-04-19T15:23:10.871Z</time></trkpt><trkpt lat="44.33677758236614" lon="9.765451121308507"><ele>699.1999999999999</ele><time>2026-04-19T15:23:11.871Z</time></trkpt><trkpt lat="44.336913043417574" lon="9.765449070362317"><ele>699.8</ele><time>2026-04-19T15:23:13.871Z</time></trkpt><trkpt lat="44.33698608058286" lon="9.76551133466138"><ele>700.4</ele><time>2026-04-19T15:23:14.871Z</time></trkpt><trkpt lat="44.33705868913143" lon="9.765585792476697"><ele>701.0</ele><time>2026-04-19T15:23:15.871Z</time></trkpt><trkpt lat="44.3371184391761" lon="9.76565403653373"><ele>701.0</ele><time>2026-04-19T15:23:16.871Z</time></trkpt><trkpt lat="44.337190027574366" lon="9.765724154676509"><ele>701.0</ele><time>2026-04-19T15:23:17.871Z</time></trkpt><trkpt lat="44.33725821493989" lon="9.76576015532158"><ele>701.0</ele><time>2026-04-19T15:23:18.871Z</time></trkpt><trkpt lat="44.33734742423249" lon="9.765806300741502"><ele>701.0</ele><time>2026-04-19T15:23:19.871Z</time></trkpt><trkpt lat="44.337450498312954" lon="9.765869489413324"><ele>701.0</ele><time>2026-04-19T15:23:20.871Z</time></trkpt><trkpt lat="44.33754842047712" lon="9.765933943187804"><ele>700.3333333333333</ele><time>2026-04-19T15:23:21.871Z</time></trkpt><trkpt lat="44.33762995576786" lon="9.765985828234138"><ele>699.6666666666666</ele><time>2026-04-19T15:23:22.871Z</time></trkpt><trkpt lat="44.337687851974394" lon="9.766037746298968"><ele>699.0</ele><time>2026-04-19T15:23:23.871Z</time></trkpt><trkpt lat="44.337732882810734" lon="9.766103087495964"><ele>698.3333333333334</ele><time>2026-04-19T15:23:24.871Z</time></trkpt><trkpt lat="44.33776237357886" lon="9.766197213189026"><ele>697.6666666666667</ele><time>2026-04-19T15:23:25.871Z</time></trkpt><trkpt lat="44.337751174616685" lon="9.766300890940093"><ele>697.0</ele><time>2026-04-19T15:23:26.871Z</time></trkpt><trkpt lat="44.33772197915801" lon="9.766416122264411"><ele>700.0</ele><time>2026-04-19T15:23:27.871Z</time></trkpt><trkpt lat="44.33770003576661" lon="9.76651139146268"><ele>703.0</ele><time>2026-04-19T15:23:28.871Z</time></trkpt><trkpt lat="44.33768879291925" lon="9.766598261773066"><ele>706.0</ele><time>2026-04-19T15:23:29.871Z</time></trkpt><trkpt lat="44.337716462451844" lon="9.766695059799614"><ele>709.0</ele><time>2026-04-19T15:23:30.871Z</time></trkpt><trkpt lat="44.33777151053052" lon="9.766765185641908"><ele>712.0</ele><time>2026-04-19T15:23:31.871Z</time></trkpt><trkpt lat="44.33785951825673" lon="9.766787167872275"><ele>715.0</ele><time>2026-04-19T15:23:32.871Z</time></trkpt><trkpt lat="44.337964880643" lon="9.766797520513604"><ele>715.4</ele><time>2026-04-19T15:23:33.871Z</time></trkpt><trkpt lat="44.33806612215561" lon="9.766805176150429"><ele>715.8</ele><time>2026-04-19T15:23:34.871Z</time></trkpt><trkpt lat="44.33815333626747" lon="9.76682719555045"><ele>716.2</ele><time>2026-04-19T15:23:35.871Z</time></trkpt><trkpt lat="44.338228884507906" lon="9.766910914654474"><ele>716.6</ele><time>2026-04-19T15:23:36.871Z</time></trkpt><trkpt lat="44.338292126679036" lon="9.767023210532727"><ele>717.0</ele><time>2026-04-19T15:23:37.871Z</time></trkpt><trkpt lat="44.338344655112124" lon="9.767157204849932"><ele>717.0</ele><time>2026-04-19T15:23:38.871Z</time></trkpt><trkpt lat="44.33839780212314" lon="9.76729302175842"><ele>717.0</ele><time>2026-04-19T15:23:39.871Z</time></trkpt><trkpt lat="44.33846646683233" lon="9.767423637021311"><ele>717.0</ele><time>2026-04-19T15:23:40.871Z</time></trkpt><trkpt lat="44.33852319111337" lon="9.767555764879173"><ele>717.0</ele><time>2026-04-19T15:23:41.871Z</time></trkpt><trkpt lat="44.33858715453857" lon="9.767695038920241"><ele>719.75</ele><time>2026-04-19T15:23:42.871Z</time></trkpt><trkpt lat="44.33865921737606" lon="9.767834019624372"><ele>722.5</ele><time>2026-04-19T15:23:43.871Z</time></trkpt><trkpt lat="44.338731383618246" lon="9.767975859562576"><ele>725.25</ele><time>2026-04-19T15:23:44.871Z</time></trkpt><trkpt lat="44.33879978026305" lon="9.768129481660532"><ele>728.0</ele><time>2026-04-19T15:23:45.871Z</time></trkpt><trkpt lat="44.338864914607804" lon="9.768284603732589"><ele>727.5</ele><time>2026-04-19T15:23:46.871Z</time></trkpt><trkpt lat="44.33891730721905" lon="9.768443914637594"><ele>727.0</ele><time>2026-04-19T15:23:47.871Z</time></trkpt><trkpt lat="44.33896924429905" lon="9.768602098902177"><ele>726.5</ele><time>2026-04-19T15:23:48.871Z</time></trkpt><trkpt lat="44.33903211525463" lon="9.768762450908476"><ele>726.0</ele><time>2026-04-19T15:23:49.871Z</time></trkpt><trkpt lat="44.339110994235114" lon="9.768907317500537"><ele>726.0</ele><time>2026-04-19T15:23:50.871Z</time></trkpt><trkpt lat="44.33919518295168" lon="9.769046405875429"><ele>726.0</ele><time>2026-04-19T15:23:51.871Z</time></trkpt><trkpt lat="44.339266278578926" lon="9.769167832602115"><ele>726.0</ele><time>2026-04-19T15:23:52.871Z</time></trkpt><trkpt lat="44.339330775484164" lon="9.76928954158125"><ele>726.0</ele><time>2026-04-19T15:23:53.871Z</time></trkpt><trkpt lat="44.3393820210621" lon="9.769415954336797"><ele>728.0</ele><time>2026-04-19T15:23:54.871Z</time></trkpt><trkpt lat="44.339416533972816" lon="9.769534942015031"><ele>730.0</ele><time>2026-04-19T15:23:55.871Z</time></trkpt><trkpt lat="44.33942887473808" lon="9.769652006997607"><ele>732.0</ele><time>2026-04-19T15:23:56.871Z</time></trkpt><trkpt lat="44.339410304370006" lon="9.769789288729001"><ele>734.0</ele><time>2026-04-19T15:23:57.871Z</time></trkpt><trkpt lat="44.339372198923" lon="9.769936719172708"><ele>736.0</ele><time>2026-04-19T15:23:58.871Z</time></trkpt><trkpt lat="44.33931232189976" lon="9.770080133493869"><ele>737.0</ele><time>2026-04-19T15:23:59.871Z</time></trkpt><trkpt lat="44.339244089748426" lon="9.770218706771875"><ele>738.0</ele><time>2026-04-19T15:24:00.871Z</time></trkpt><trkpt lat="44.33917029016013" lon="9.770352722224034"><ele>739.0</ele><time>2026-04-19T15:24:01.871Z</time></trkpt><trkpt lat="44.33912775307814" lon="9.770484167960252"><ele>740.0</ele><time>2026-04-19T15:24:02.871Z</time></trkpt><trkpt lat="44.33910860661886" lon="9.770589566872703"><ele>741.0</ele><time>2026-04-19T15:24:03.871Z</time></trkpt><trkpt lat="44.33909750122579" lon="9.770689396015632"><ele>741.0</ele><time>2026-04-19T15:24:04.871Z</time></trkpt><trkpt lat="44.339113035125145" lon="9.770812714818632"><ele>741.0</ele><time>2026-04-19T15:24:05.871Z</time></trkpt><trkpt lat="44.33911621351057" lon="9.770949544081274"><ele>741.0</ele><time>2026-04-19T15:24:06.871Z</time></trkpt><trkpt lat="44.339108115405246" lon="9.771088934401181"><ele>741.0</ele><time>2026-04-19T15:24:07.871Z</time></trkpt><trkpt lat="44.339084801005605" lon="9.771236109395835"><ele>741.0</ele><time>2026-04-19T15:24:08.871Z</time></trkpt><trkpt lat="44.33902752823919" lon="9.77138073091076"><ele>741.25</ele><time>2026-04-19T15:24:09.871Z</time></trkpt><trkpt lat="44.33896565004318" lon="9.771518598857774"><ele>741.5</ele><time>2026-04-19T15:24:10.871Z</time></trkpt><trkpt lat="44.33888449796931" lon="9.771653296851714"><ele>741.75</ele><time>2026-04-19T15:24:11.871Z</time></trkpt><trkpt lat="44.33878666365779" lon="9.771806623339652"><ele>742.0</ele><time>2026-04-19T15:24:12.871Z</time></trkpt><trkpt lat="44.33869699020424" lon="9.771960116766587"><ele>743.6</ele><time>2026-04-19T15:24:13.871Z</time></trkpt><trkpt lat="44.33860140255332" lon="9.772094006801492"><ele>745.2</ele><time>2026-04-19T15:24:14.871Z</time></trkpt><trkpt lat="44.3385299675689" lon="9.772227147461662"><ele>746.8</ele><time>2026-04-19T15:24:15.871Z</time></trkpt><trkpt lat="44.33847397258327" lon="9.77233272230929"><ele>748.4</ele><time>2026-04-19T15:24:16.871Z</time></trkpt><trkpt lat="44.338415472749354" lon="9.77242050712597"><ele>750.0</ele><time>2026-04-19T15:24:17.871Z</time></trkpt><trkpt lat="44.33834408383716" lon="9.77248616186329"><ele>750.0</ele><time>2026-04-19T15:24:18.871Z</time></trkpt><trkpt lat="44.338271543893825" lon="9.772517370709378"><ele>750.0</ele><time>2026-04-19T15:24:19.871Z</time></trkpt><trkpt lat="44.33820283984841" lon="9.772517678952022"><ele>750.0</ele><time>2026-04-19T15:24:20.871Z</time></trkpt><trkpt lat="44.33814041457033" lon="9.772487701363898"><ele>750.0</ele><time>2026-04-19T15:24:21.871Z</time></trkpt><trkpt lat="44.33804889410037" lon="9.772435407415388"><ele>750.0</ele><time>2026-04-19T15:24:22.871Z</time></trkpt><trkpt lat="44.337940312512224" lon="9.772377004335725"><ele>750.0</ele><time>2026-04-19T15:24:23.871Z</time></trkpt><trkpt lat="44.33784650980386" lon="9.772347894479337"><ele>752.3333333333334</ele><time>2026-04-19T15:24:24.871Z</time></trkpt><trkpt lat="44.337762789052924" lon="9.772331326937854"><ele>754.6666666666666</ele><time>2026-04-19T15:24:25.871Z</time></trkpt><trkpt lat="44.337692195825426" lon="9.772369333826559"><ele>757.0</ele><time>2026-04-19T15:24:26.871Z</time></trkpt><trkpt lat="44.33763457801063" lon="9.772443565574015"><ele>759.3333333333333</ele><time>2026-04-19T15:24:27.871Z</time></trkpt><trkpt lat="44.33759432582144" lon="9.772567567198918"><ele>761.6666666666666</ele><time>2026-04-19T15:24:28.871Z</time></trkpt><trkpt lat="44.3375646107772" lon="9.77271418086296"><ele>764.0</ele><time>2026-04-19T15:24:29.869Z</time></trkpt><trkpt lat="44.337536139311844" lon="9.77287318151809"><ele>765.25</ele><time>2026-04-19T15:24:30.868Z</time></trkpt><trkpt lat="44.33751407290841" lon="9.773036189954787"><ele>766.5</ele><time>2026-04-19T15:24:31.868Z</time></trkpt><trkpt lat="44.33748276033725" lon="9.7732181340246"><ele>767.75</ele><time>2026-04-19T15:24:32.868Z</time></trkpt><trkpt lat="44.33745838911239" lon="9.773399471339033"><ele>769.0</ele><time>2026-04-19T15:24:33.868Z</time></trkpt><trkpt lat="44.337437086832914" lon="9.773577600059768"><ele>769.0</ele><time>2026-04-19T15:24:34.868Z</time></trkpt><trkpt lat="44.33742715075136" lon="9.773751321374846"><ele>769.0</ele><time>2026-04-19T15:24:35.868Z</time></trkpt><trkpt lat="44.33743817970143" lon="9.773918201629828"><ele>769.0</ele><time>2026-04-19T15:24:36.868Z</time></trkpt><trkpt lat="44.337465535684196" lon="9.774072460903817"><ele>769.0</ele><time>2026-04-19T15:24:37.868Z</time></trkpt><trkpt lat="44.337490387939305" lon="9.774216210789001"><ele>769.0</ele><time>2026-04-19T15:24:38.868Z</time></trkpt><trkpt lat="44.33751825526209" lon="9.77434772030767"><ele>769.0</ele><time>2026-04-19T15:24:39.868Z</time></trkpt><trkpt lat="44.33754343534433" lon="9.774458364327934"><ele>769.0</ele><time>2026-04-19T15:24:40.868Z</time></trkpt><trkpt lat="44.33755642111961" lon="9.77457191662165"><ele>769.0</ele><time>2026-04-19T15:24:41.868Z</time></trkpt><trkpt lat="44.33752273505063" lon="9.774705636145006"><ele>769.0</ele><time>2026-04-19T15:24:42.868Z</time></trkpt><trkpt lat="44.33749506811521" lon="9.774843713310604"><ele>768.9999999999999</ele><time>2026-04-19T15:24:43.868Z</time></trkpt><trkpt lat="44.33746468745061" lon="9.774972303656902"><ele>769.0</ele><time>2026-04-19T15:24:44.868Z</time></trkpt><trkpt lat="44.337455460632754" lon="9.77508738461135"><ele>769.0</ele><time>2026-04-19T15:24:45.868Z</time></trkpt><trkpt lat="44.337463372937904" lon="9.775202355545874"><ele>769.0</ele><time>2026-04-19T15:24:46.868Z</time></trkpt><trkpt lat="44.33746807337619" lon="9.775321088992662"><ele>768.9999999999999</ele><time>2026-04-19T15:24:47.868Z</time></trkpt><trkpt lat="44.337477450091384" lon="9.775445745008785"><ele>769.0</ele><time>2026-04-19T15:24:48.868Z</time></trkpt><trkpt lat="44.337499652996456" lon="9.775571820940836"><ele>770.2</ele><time>2026-04-19T15:24:49.868Z</time></trkpt><trkpt lat="44.337543090285365" lon="9.775687521368088"><ele>771.4000000000001</ele><time>2026-04-19T15:24:50.868Z</time></trkpt><trkpt lat="44.33758090694031" lon="9.77580026105467"><ele>772.6</ele><time>2026-04-19T15:24:51.868Z</time></trkpt><trkpt lat="44.33760312573716" lon="9.775942742371297"><ele>773.8</ele><time>2026-04-19T15:24:52.868Z</time></trkpt><trkpt lat="44.337604428467124" lon="9.776125088718665"><ele>775.0</ele><time>2026-04-19T15:24:53.868Z</time></trkpt><trkpt lat="44.33758655734961" lon="9.776326901740335"><ele>776.3333333333333</ele><time>2026-04-19T15:24:54.868Z</time></trkpt><trkpt lat="44.33755386810528" lon="9.776540995274832"><ele>777.6666666666667</ele><time>2026-04-19T15:24:55.868Z</time></trkpt><trkpt lat="44.33752100583478" lon="9.776765020421443"><ele>779.0</ele><time>2026-04-19T15:24:56.868Z</time></trkpt><trkpt lat="44.33748386444266" lon="9.777008712524559"><ele>779.0</ele><time>2026-04-19T15:24:57.868Z</time></trkpt><trkpt lat="44.337446075820736" lon="9.777259176948512"><ele>779.0</ele><time>2026-04-19T15:24:58.868Z</time></trkpt><trkpt lat="44.33739322756006" lon="9.777495675420003"><ele>779.0</ele><time>2026-04-19T15:24:59.868Z</time></trkpt><trkpt lat="44.3373440932692" lon="9.77770012139312"><ele>780.0</ele><time>2026-04-19T15:25:00.868Z</time></trkpt><trkpt lat="44.3372914034692" lon="9.777878897978312"><ele>781.0</ele><time>2026-04-19T15:25:01.868Z</time></trkpt><trkpt lat="44.337269918493945" lon="9.778042788702681"><ele>782.0</ele><time>2026-04-19T15:25:02.868Z</time></trkpt><trkpt lat="44.33727558644369" lon="9.778216892123478"><ele>783.0</ele><time>2026-04-19T15:25:03.868Z</time></trkpt><trkpt lat="44.33732588058379" lon="9.77839988509859"><ele>784.75</ele><time>2026-04-19T15:25:04.868Z</time></trkpt><trkpt lat="44.33739912525313" lon="9.778570527077248"><ele>786.5</ele><time>2026-04-19T15:25:05.868Z</time></trkpt><trkpt lat="44.33746545051758" lon="9.77873612759124"><ele>788.25</ele><time>2026-04-19T15:25:06.868Z</time></trkpt><trkpt lat="44.337517228452526" lon="9.778907265192213"><ele>790.0</ele><time>2026-04-19T15:25:07.868Z</time></trkpt><trkpt lat="44.33754870268406" lon="9.779070622526284"><ele>790.0</ele><time>2026-04-19T15:25:08.868Z</time></trkpt><trkpt lat="44.33755684995906" lon="9.77923965793794"><ele>790.0</ele><time>2026-04-19T15:25:09.868Z</time></trkpt><trkpt lat="44.337552745243485" lon="9.779417836653352"><ele>790.0</ele><time>2026-04-19T15:25:10.868Z</time></trkpt><trkpt lat="44.33755629757871" lon="9.779594552500571"><ele>790.0</ele><time>2026-04-19T15:25:11.868Z</time></trkpt><trkpt lat="44.337579349004294" lon="9.77976261909306"><ele>791.2</ele><time>2026-04-19T15:25:12.868Z</time></trkpt><trkpt lat="44.33761991133138" lon="9.779910607057108"><ele>792.4</ele><time>2026-04-19T15:25:13.868Z</time></trkpt><trkpt lat="44.337665070644235" lon="9.7800439744137"><ele>793.5999999999999</ele><time>2026-04-19T15:25:14.868Z</time></trkpt><trkpt lat="44.3377153650779" lon="9.780182310705104"><ele>794.8</ele><time>2026-04-19T15:25:15.868Z</time></trkpt><trkpt lat="44.33774112240776" lon="9.780326634942007"><ele>796.0</ele><time>2026-04-19T15:25:16.868Z</time></trkpt><trkpt lat="44.33773081380382" lon="9.78048602254485"><ele>798.5999999999999</ele><time>2026-04-19T15:25:17.868Z</time></trkpt><trkpt lat="44.337679300663744" lon="9.780654642879316"><ele>801.2</ele><time>2026-04-19T15:25:18.868Z</time></trkpt><trkpt lat="44.3376385016324" lon="9.780802689482925"><ele>803.8</ele><time>2026-04-19T15:25:19.868Z</time></trkpt><trkpt lat="44.337613515752416" lon="9.780913825286166"><ele>806.4000000000001</ele><time>2026-04-19T15:25:20.868Z</time></trkpt><trkpt lat="44.33760566348914" lon="9.781006285491431"><ele>809.0</ele><time>2026-04-19T15:25:21.868Z</time></trkpt><trkpt lat="44.337615809425515" lon="9.781093725679794"><ele>810.4000000000001</ele><time>2026-04-19T15:25:22.868Z</time></trkpt><trkpt lat="44.33765242672861" lon="9.781165854617976"><ele>811.8</ele><time>2026-04-19T15:25:23.868Z</time></trkpt><trkpt lat="44.33772764613269" lon="9.781220330313573"><ele>813.2</ele><time>2026-04-19T15:25:24.868Z</time></trkpt><trkpt lat="44.337823260705655" lon="9.781262539395494"><ele>814.5999999999999</ele><time>2026-04-19T15:25:25.868Z</time></trkpt><trkpt lat="44.33793946290651" lon="9.78131039501753"><ele>816.0</ele><time>2026-04-19T15:25:26.868Z</time></trkpt><trkpt lat="44.33806090234868" lon="9.781359277113056"><ele>816.0</ele><time>2026-04-19T15:25:27.868Z</time></trkpt><trkpt lat="44.33817319384559" lon="9.781410768991313"><ele>816.0</ele><time>2026-04-19T15:25:28.868Z</time></trkpt><trkpt lat="44.33829210684954" lon="9.781445571325309"><ele>816.0</ele><time>2026-04-19T15:25:29.868Z</time></trkpt><trkpt lat="44.33841600059735" lon="9.781452223073002"><ele>816.0</ele><time>2026-04-19T15:25:30.868Z</time></trkpt><trkpt lat="44.3385241394604" lon="9.78143350359384"><ele>816.0</ele><time>2026-04-19T15:25:31.868Z</time></trkpt><trkpt lat="44.338619642358005" lon="9.781402373183457"><ele>816.0</ele><time>2026-04-19T15:25:32.868Z</time></trkpt><trkpt lat="44.338711604064606" lon="9.781350529762731"><ele>816.0</ele><time>2026-04-19T15:25:33.868Z</time></trkpt><trkpt lat="44.33880239542378" lon="9.781265746822891"><ele>816.0</ele><time>2026-04-19T15:25:34.868Z</time></trkpt><trkpt lat="44.338876345878404" lon="9.781161807004922"><ele>816.0</ele><time>2026-04-19T15:25:35.868Z</time></trkpt><trkpt lat="44.33893367573851" lon="9.781066192211398"><ele>814.5999999999999</ele><time>2026-04-19T15:25:36.868Z</time></trkpt><trkpt lat="44.33897505666471" lon="9.780986342548061"><ele>813.2</ele><time>2026-04-19T15:25:37.868Z</time></trkpt><trkpt lat="44.33904446766293" lon="9.780947526124747"><ele>811.8</ele><time>2026-04-19T15:25:39.868Z</time></trkpt><trkpt lat="44.33908311226145" lon="9.78104729077719"><ele>810.4000000000001</ele><time>2026-04-19T15:25:41.868Z</time></trkpt><trkpt lat="44.339030883357054" lon="9.7812259467282"><ele>809.0</ele><time>2026-04-19T15:25:43.868Z</time></trkpt><trkpt lat="44.338968288008694" lon="9.78133056696252"><ele>810.75</ele><time>2026-04-19T15:25:44.868Z</time></trkpt><trkpt lat="44.33887993472181" lon="9.781447863963036"><ele>812.5</ele><time>2026-04-19T15:25:45.868Z</time></trkpt><trkpt lat="44.33876823301857" lon="9.781559109800787"><ele>814.25</ele><time>2026-04-19T15:25:46.868Z</time></trkpt><trkpt lat="44.33865377369237" lon="9.781667243314022"><ele>816.0</ele><time>2026-04-19T15:25:47.868Z</time></trkpt><trkpt lat="44.33852950196455" lon="9.781760026884182"><ele>821.25</ele><time>2026-04-19T15:25:48.868Z</time></trkpt><trkpt lat="44.33841829013878" lon="9.781867401685425"><ele>826.5</ele><time>2026-04-19T15:25:49.868Z</time></trkpt><trkpt lat="44.33831082854871" lon="9.781985116341444"><ele>831.75</ele><time>2026-04-19T15:25:50.868Z</time></trkpt><trkpt lat="44.338226285446254" lon="9.78208462012047"><ele>837.0</ele><time>2026-04-19T15:25:51.868Z</time></trkpt><trkpt lat="44.338137247960326" lon="9.782155055901622"><ele>838.2</ele><time>2026-04-19T15:25:52.868Z</time></trkpt><trkpt lat="44.33803653387268" lon="9.78221031635123"><ele>839.4000000000001</ele><time>2026-04-19T15:25:53.868Z</time></trkpt><trkpt lat="44.33793220975093" lon="9.78222110265606"><ele>840.5999999999999</ele><time>2026-04-19T15:25:54.868Z</time></trkpt><trkpt lat="44.33782500807979" lon="9.782184376339407"><ele>841.8</ele><time>2026-04-19T15:25:55.868Z</time></trkpt><trkpt lat="44.33772431600129" lon="9.782134314869348"><ele>843.0</ele><time>2026-04-19T15:25:56.868Z</time></trkpt><trkpt lat="44.33761937934738" lon="9.782102327008497"><ele>843.0</ele><time>2026-04-19T15:25:57.868Z</time></trkpt><trkpt lat="44.337513401631526" lon="9.782087528697375"><ele>843.0</ele><time>2026-04-19T15:25:58.868Z</time></trkpt><trkpt lat="44.33742359538105" lon="9.782070132734468"><ele>843.0</ele><time>2026-04-19T15:25:59.868Z</time></trkpt><trkpt lat="44.33735506815289" lon="9.78202331937736"><ele>843.0</ele><time>2026-04-19T15:26:00.868Z</time></trkpt><trkpt lat="44.3373052475221" lon="9.781952343807182"><ele>843.0</ele><time>2026-04-19T15:26:01.868Z</time></trkpt><trkpt lat="44.337266596480674" lon="9.781858923137776"><ele>843.0</ele><time>2026-04-19T15:26:02.868Z</time></trkpt><trkpt lat="44.33722993464965" lon="9.781769378309628"><ele>846.3333333333334</ele><time>2026-04-19T15:26:03.868Z</time></trkpt><trkpt lat="44.337162912046296" lon="9.781651504690025"><ele>849.6666666666667</ele><time>2026-04-19T15:26:05.868Z</time></trkpt><trkpt lat="44.33709600339319" lon="9.781706623518115"><ele>853.0</ele><time>2026-04-19T15:26:07.868Z</time></trkpt><trkpt lat="44.33708720786078" lon="9.78179957639724"><ele>856.3333333333334</ele><time>2026-04-19T15:26:08.868Z</time></trkpt><trkpt lat="44.33711234241001" lon="9.781893312569746"><ele>859.6666666666667</ele><time>2026-04-19T15:26:09.868Z</time></trkpt><trkpt lat="44.33715408077896" lon="9.782005836328233"><ele>863.0</ele><time>2026-04-19T15:26:10.868Z</time></trkpt><trkpt lat="44.33720595618863" lon="9.782138930480526"><ele>858.0</ele><time>2026-04-19T15:26:11.868Z</time></trkpt><trkpt lat="44.33726848014925" lon="9.782279843757678"><ele>853.0</ele><time>2026-04-19T15:26:12.868Z</time></trkpt><trkpt lat="44.337368916665824" lon="9.782396624258771"><ele>848.0</ele><time>2026-04-19T15:26:13.868Z</time></trkpt><trkpt lat="44.337483583476704" lon="9.782503596651475"><ele>843.0</ele><time>2026-04-19T15:26:14.868Z</time></trkpt><trkpt lat="44.337594471908936" lon="9.78260979229182"><ele>846.4</ele><time>2026-04-19T15:26:15.868Z</time></trkpt><trkpt lat="44.33769143884555" lon="9.782701032853632"><ele>849.8</ele><time>2026-04-19T15:26:16.868Z</time></trkpt><trkpt lat="44.33778615825597" lon="9.782779011135457"><ele>853.2</ele><time>2026-04-19T15:26:17.868Z</time></trkpt><trkpt lat="44.33786226504598" lon="9.782851655356998"><ele>856.6</ele><time>2026-04-19T15:26:18.868Z</time></trkpt><trkpt lat="44.33792049898298" lon="9.782947770913985"><ele>860.0</ele><time>2026-04-19T15:26:19.868Z</time></trkpt><trkpt lat="44.33795947978646" lon="9.783043848828756"><ele>860.0000000000001</ele><time>2026-04-19T15:26:20.868Z</time></trkpt><trkpt lat="44.33799176053599" lon="9.783142117212924"><ele>860.0</ele><time>2026-04-19T15:26:21.868Z</time></trkpt><trkpt lat="44.33800965295884" lon="9.783236523305924"><ele>860.0</ele><time>2026-04-19T15:26:22.868Z</time></trkpt><trkpt lat="44.33796096702924" lon="9.783382106854607"><ele>860.0</ele><time>2026-04-19T15:26:24.868Z</time></trkpt><trkpt lat="44.33788726864983" lon="9.78343006675994"><ele>860.0000000000001</ele><time>2026-04-19T15:26:25.868Z</time></trkpt><trkpt lat="44.33780656221392" lon="9.783458278901707"><ele>860.0</ele><time>2026-04-19T15:26:26.868Z</time></trkpt><trkpt lat="44.337709873349695" lon="9.783483997005893"><ele>858.8333333333334</ele><time>2026-04-19T15:26:27.868Z</time></trkpt><trkpt lat="44.33761663604547" lon="9.783527241202536"><ele>857.6666666666667</ele><time>2026-04-19T15:26:28.868Z</time></trkpt><trkpt lat="44.33754623554615" lon="9.783595627879421"><ele>856.5</ele><time>2026-04-19T15:26:29.868Z</time></trkpt><trkpt lat="44.337498314062934" lon="9.783689132340381"><ele>855.3333333333333</ele><time>2026-04-19T15:26:30.869Z</time></trkpt><trkpt lat="44.33746697374759" lon="9.783790761696988"><ele>854.1666666666666</ele><time>2026-04-19T15:26:31.869Z</time></trkpt><trkpt lat="44.337444399762816" lon="9.783902227962617"><ele>853.0</ele><time>2026-04-19T15:26:32.869Z</time></trkpt><trkpt lat="44.33741553105313" lon="9.784024347830169"><ele>853.0</ele><time>2026-04-19T15:26:33.869Z</time></trkpt><trkpt lat="44.33738774051597" lon="9.784140495121596"><ele>853.0</ele><time>2026-04-19T15:26:34.869Z</time></trkpt><trkpt lat="44.33732997000074" lon="9.784274132609069"><ele>853.0</ele><time>2026-04-19T15:26:36.866Z</time></trkpt><trkpt lat="44.33720323700529" lon="9.78431241280386"><ele>853.0</ele><time>2026-04-19T15:26:38.866Z</time></trkpt><trkpt lat="44.337114402015864" lon="9.78429146780539"><ele>853.0</ele><time>2026-04-19T15:26:39.866Z</time></trkpt><trkpt lat="44.33702366158084" lon="9.78428048755017"><ele>856.0</ele><time>2026-04-19T15:26:40.866Z</time></trkpt><trkpt lat="44.336921655620905" lon="9.784265844247495"><ele>859.0</ele><time>2026-04-19T15:26:41.867Z</time></trkpt><trkpt lat="44.33681810162764" lon="9.784246172985345"><ele>862.0</ele><time>2026-04-19T15:26:42.866Z</time></trkpt><trkpt lat="44.33671495333375" lon="9.78421916436246"><ele>865.0</ele><time>2026-04-19T15:26:43.866Z</time></trkpt><trkpt lat="44.33661927287409" lon="9.784188798182614"><ele>868.0</ele><time>2026-04-19T15:26:44.867Z</time></trkpt><trkpt lat="44.33653140066722" lon="9.784169784187311"><ele>867.9999999999999</ele><time>2026-04-19T15:26:45.867Z</time></trkpt><trkpt lat="44.33645666333583" lon="9.784156518478124"><ele>868.0</ele><time>2026-04-19T15:26:46.867Z</time></trkpt><trkpt lat="44.33639216950768" lon="9.784181214136765"><ele>868.0</ele><time>2026-04-19T15:26:47.866Z</time></trkpt><trkpt lat="44.336341443013644" lon="9.784333503812377"><ele>868.0</ele><time>2026-04-19T15:26:49.866Z</time></trkpt><trkpt lat="44.33635560095615" lon="9.784424930129981"><ele>867.9999999999999</ele><time>2026-04-19T15:26:50.866Z</time></trkpt><trkpt lat="44.33640280501889" lon="9.784566441893022"><ele>868.0</ele><time>2026-04-19T15:26:51.866Z</time></trkpt><trkpt lat="44.336473639000296" lon="9.78468582313243"><ele>866.8</ele><time>2026-04-19T15:26:52.866Z</time></trkpt><trkpt lat="44.33655819899665" lon="9.78479827771076"><ele>865.5999999999999</ele><time>2026-04-19T15:26:53.866Z</time></trkpt><trkpt lat="44.33664084357642" lon="9.78490847565209"><ele>864.4000000000001</ele><time>2026-04-19T15:26:54.866Z</time></trkpt><trkpt lat="44.336706591662015" lon="9.785004688879974"><ele>863.2</ele><time>2026-04-19T15:26:55.866Z</time></trkpt><trkpt lat="44.3367647563244" lon="9.785090982943155"><ele>862.0</ele><time>2026-04-19T15:26:56.866Z</time></trkpt><trkpt lat="44.33680888886828" lon="9.785177043353967"><ele>861.4000000000001</ele><time>2026-04-19T15:26:57.866Z</time></trkpt><trkpt lat="44.336822887290495" lon="9.785331130867682"><ele>860.8000000000001</ele><time>2026-04-19T15:26:59.866Z</time></trkpt><trkpt lat="44.33672657770054" lon="9.78542039875246"><ele>860.2</ele><time>2026-04-19T15:27:01.866Z</time></trkpt><trkpt lat="44.33663801482167" lon="9.785433402006147"><ele>859.6</ele><time>2026-04-19T15:27:02.866Z</time></trkpt><trkpt lat="44.33653053147885" lon="9.785451857884178"><ele>859.0</ele><time>2026-04-19T15:27:03.866Z</time></trkpt><trkpt lat="44.33641792374137" lon="9.78547473919392"><ele>861.8333333333333</ele><time>2026-04-19T15:27:04.866Z</time></trkpt><trkpt lat="44.33632379263408" lon="9.78550285142478"><ele>864.6666666666666</ele><time>2026-04-19T15:27:05.866Z</time></trkpt><trkpt lat="44.336256628480434" lon="9.78554601047458"><ele>867.5</ele><time>2026-04-19T15:27:06.866Z</time></trkpt><trkpt lat="44.33620728526663" lon="9.785621101831897"><ele>870.3333333333333</ele><time>2026-04-19T15:27:07.866Z</time></trkpt><trkpt lat="44.3361852255763" lon="9.785706174929917"><ele>873.1666666666666</ele><time>2026-04-19T15:27:08.866Z</time></trkpt><trkpt lat="44.336180746467235" lon="9.785816349525692"><ele>876.0</ele><time>2026-04-19T15:27:09.866Z</time></trkpt><trkpt lat="44.33619972603766" lon="9.785919043295596"><ele>876.0</ele><time>2026-04-19T15:27:10.866Z</time></trkpt><trkpt lat="44.33625512290239" lon="9.786008280491613"><ele>876.0</ele><time>2026-04-19T15:27:11.866Z</time></trkpt><trkpt lat="44.336321605119245" lon="9.786085259406043"><ele>876.0</ele><time>2026-04-19T15:27:12.866Z</time></trkpt><trkpt lat="44.33639401442419" lon="9.786156103258662"><ele>876.0</ele><time>2026-04-19T15:27:13.866Z</time></trkpt><trkpt lat="44.336464648383526" lon="9.786218927444366"><ele>876.0</ele><time>2026-04-19T15:27:14.866Z</time></trkpt><trkpt lat="44.336516533789734" lon="9.786276328318339"><ele>876.0</ele><time>2026-04-19T15:27:15.866Z</time></trkpt><trkpt lat="44.336568664021165" lon="9.786343375308974"><ele>874.0</ele><time>2026-04-19T15:27:16.866Z</time></trkpt><trkpt lat="44.33659923273749" lon="9.78644184240388"><ele>872.0</ele><time>2026-04-19T15:27:17.866Z</time></trkpt><trkpt lat="44.33660938405316" lon="9.786546166776494"><ele>870.0</ele><time>2026-04-19T15:27:18.866Z</time></trkpt><trkpt lat="44.33660557762614" lon="9.78665564894229"><ele>868.0</ele><time>2026-04-19T15:27:19.866Z</time></trkpt><trkpt lat="44.33659497374831" lon="9.786774351951534"><ele>866.0</ele><time>2026-04-19T15:27:20.866Z</time></trkpt><trkpt lat="44.336578532349286" lon="9.78688618626409"><ele>864.0</ele><time>2026-04-19T15:27:21.866Z</time></trkpt><trkpt lat="44.336560958351484" lon="9.786981720753323"><ele>864.0</ele><time>2026-04-19T15:27:22.866Z</time></trkpt><trkpt lat="44.33648835290963" lon="9.787124809111585"><ele>864.0</ele><time>2026-04-19T15:27:24.866Z</time></trkpt><trkpt lat="44.33641717939318" lon="9.787169900754185"><ele>864.0</ele><time>2026-04-19T15:27:25.866Z</time></trkpt><trkpt lat="44.336359345327594" lon="9.787220917552924"><ele>864.0</ele><time>2026-04-19T15:27:26.866Z</time></trkpt><trkpt lat="44.33632523390372" lon="9.78729904371075"><ele>864.0</ele><time>2026-04-19T15:27:27.866Z</time></trkpt><trkpt lat="44.336326749091924" lon="9.787399147972176"><ele>864.0</ele><time>2026-04-19T15:27:28.866Z</time></trkpt><trkpt lat="44.33634882413087" lon="9.787518687005655"><ele>866.6</ele><time>2026-04-19T15:27:29.866Z</time></trkpt><trkpt lat="44.336385707092774" lon="9.787643710252953"><ele>869.2</ele><time>2026-04-19T15:27:30.866Z</time></trkpt><trkpt lat="44.33644136173156" lon="9.78776126034237"><ele>871.8000000000001</ele><time>2026-04-19T15:27:31.866Z</time></trkpt><trkpt lat="44.33651476118246" lon="9.787857934412068"><ele>874.4000000000001</ele><time>2026-04-19T15:27:32.866Z</time></trkpt><trkpt lat="44.33659538138983" lon="9.78793527122695"><ele>877.0</ele><time>2026-04-19T15:27:33.866Z</time></trkpt><trkpt lat="44.3366843183746" lon="9.787978318523386"><ele>876.9999999999999</ele><time>2026-04-19T15:27:34.866Z</time></trkpt><trkpt lat="44.33677975861067" lon="9.788001649869944"><ele>877.0</ele><time>2026-04-19T15:27:35.866Z</time></trkpt><trkpt lat="44.33687462202432" lon="9.78802610144887"><ele>877.0</ele><time>2026-04-19T15:27:36.866Z</time></trkpt><trkpt lat="44.336956077447844" lon="9.788053627571713"><ele>877.0</ele><time>2026-04-19T15:27:37.866Z</time></trkpt><trkpt lat="44.33702157946897" lon="9.788093303431227"><ele>876.9999999999999</ele><time>2026-04-19T15:27:38.866Z</time></trkpt><trkpt lat="44.337076492206094" lon="9.788162874906739"><ele>877.0</ele><time>2026-04-19T15:27:39.867Z</time></trkpt><trkpt lat="44.33710713721023" lon="9.78826894612848"><ele>877.0</ele><time>2026-04-19T15:27:40.867Z</time></trkpt><trkpt lat="44.337116283563184" lon="9.78839569076717"><ele>877.0</ele><time>2026-04-19T15:27:41.867Z</time></trkpt><trkpt lat="44.337110853766724" lon="9.78853345531551"><ele>877.0</ele><time>2026-04-19T15:27:42.867Z</time></trkpt><trkpt lat="44.33709675127946" lon="9.788664373629045"><ele>877.0</ele><time>2026-04-19T15:27:43.867Z</time></trkpt><trkpt lat="44.33707605259835" lon="9.788817782094357"><ele>877.0</ele><time>2026-04-19T15:27:44.867Z</time></trkpt><trkpt lat="44.337050101237146" lon="9.788970063791076"><ele>876.4000000000001</ele><time>2026-04-19T15:27:45.867Z</time></trkpt><trkpt lat="44.337020152283685" lon="9.789115591053656"><ele>875.8000000000001</ele><time>2026-04-19T15:27:46.867Z</time></trkpt><trkpt lat="44.337002766055335" lon="9.789251971265823"><ele>875.2</ele><time>2026-04-19T15:27:47.867Z</time></trkpt><trkpt lat="44.336979180990475" lon="9.789383882386241"><ele>874.6</ele><time>2026-04-19T15:27:48.867Z</time></trkpt><trkpt lat="44.33693213836236" lon="9.789520765245792"><ele>874.0</ele><time>2026-04-19T15:27:49.867Z</time></trkpt><trkpt lat="44.3368781324991" lon="9.789660796060563"><ele>874.0</ele><time>2026-04-19T15:27:50.867Z</time></trkpt><trkpt lat="44.336829592242715" lon="9.789785512909608"><ele>874.0000000000001</ele><time>2026-04-19T15:27:51.867Z</time></trkpt><trkpt lat="44.336780810491426" lon="9.789909437924585"><ele>874.0000000000001</ele><time>2026-04-19T15:27:52.867Z</time></trkpt><trkpt lat="44.33674080507414" lon="9.790029410159578"><ele>874.0</ele><time>2026-04-19T15:27:53.867Z</time></trkpt><trkpt lat="44.33669062415122" lon="9.79013927576995"><ele>874.0</ele><time>2026-04-19T15:27:54.867Z</time></trkpt><trkpt lat="44.33663973323506" lon="9.790252840647728"><ele>872.2</ele><time>2026-04-19T15:27:55.867Z</time></trkpt><trkpt lat="44.33657581201337" lon="9.790376673343113"><ele>870.4000000000001</ele><time>2026-04-19T15:27:56.867Z</time></trkpt><trkpt lat="44.33651040997151" lon="9.790491646451994"><ele>868.6</ele><time>2026-04-19T15:27:57.867Z</time></trkpt><trkpt lat="44.336435694517164" lon="9.790592688520455"><ele>866.8</ele><time>2026-04-19T15:27:58.867Z</time></trkpt><trkpt lat="44.336385912282196" lon="9.790694315645233"><ele>865.0</ele><time>2026-04-19T15:27:59.867Z</time></trkpt><trkpt lat="44.33632292565149" lon="9.790803147695254"><ele>864.8</ele><time>2026-04-19T15:28:00.867Z</time></trkpt><trkpt lat="44.33625518444398" lon="9.790932597744217"><ele>864.6</ele><time>2026-04-19T15:28:01.867Z</time></trkpt><trkpt lat="44.33618657507981" lon="9.791051594703776"><ele>864.4000000000001</ele><time>2026-04-19T15:28:02.867Z</time></trkpt><trkpt lat="44.33612646179762" lon="9.791165095870477"><ele>864.2</ele><time>2026-04-19T15:28:03.867Z</time></trkpt><trkpt lat="44.33605715742191" lon="9.791285473255048"><ele>864.0</ele><time>2026-04-19T15:28:04.867Z</time></trkpt><trkpt lat="44.33599141786915" lon="9.791403146754462"><ele>864.0</ele><time>2026-04-19T15:28:05.867Z</time></trkpt><trkpt lat="44.335926933080344" lon="9.791508207574564"><ele>864.0000000000001</ele><time>2026-04-19T15:28:06.867Z</time></trkpt><trkpt lat="44.335864813260635" lon="9.791637791073928"><ele>864.0000000000001</ele><time>2026-04-19T15:28:07.867Z</time></trkpt><trkpt lat="44.335795049630825" lon="9.791766558817008"><ele>864.0</ele><time>2026-04-19T15:28:08.867Z</time></trkpt><trkpt lat="44.335730710852125" lon="9.791869772413163"><ele>864.0</ele><time>2026-04-19T15:28:09.867Z</time></trkpt><trkpt lat="44.33565987876005" lon="9.791955524203338"><ele>862.8333333333334</ele><time>2026-04-19T15:28:10.867Z</time></trkpt><trkpt lat="44.335596535963575" lon="9.791995545592906"><ele>861.6666666666667</ele><time>2026-04-19T15:28:11.867Z</time></trkpt><trkpt lat="44.33550805331651" lon="9.79201936954291"><ele>860.5</ele><time>2026-04-19T15:28:12.867Z</time></trkpt><trkpt lat="44.335409247531814" lon="9.791993946729056"><ele>859.3333333333334</ele><time>2026-04-19T15:28:13.867Z</time></trkpt><trkpt lat="44.33532265433881" lon="9.791969111628593"><ele>858.1666666666667</ele><time>2026-04-19T15:28:14.867Z</time></trkpt><trkpt lat="44.33524160248315" lon="9.791958519264105"><ele>857.0</ele><time>2026-04-19T15:28:15.867Z</time></trkpt><trkpt lat="44.33516188047296" lon="9.79194940550292"><ele>857.0000000000001</ele><time>2026-04-19T15:28:16.867Z</time></trkpt><trkpt lat="44.335088555567545" lon="9.791948026256756"><ele>857.0</ele><time>2026-04-19T15:28:17.867Z</time></trkpt><trkpt lat="44.33502294122636" lon="9.791964561817862"><ele>857.0</ele><time>2026-04-19T15:28:18.867Z</time></trkpt><trkpt lat="44.33495540938528" lon="9.791988422963486"><ele>857.0</ele><time>2026-04-19T15:28:19.867Z</time></trkpt><trkpt lat="44.33488609460284" lon="9.792045710967393"><ele>857.0000000000001</ele><time>2026-04-19T15:28:20.867Z</time></trkpt><trkpt lat="44.334812781252666" lon="9.792117777038266"><ele>857.0</ele><time>2026-04-19T15:28:21.867Z</time></trkpt><trkpt lat="44.33473071749361" lon="9.792203315463919"><ele>854.1666666666667</ele><time>2026-04-19T15:28:22.867Z</time></trkpt><trkpt lat="44.334647209500176" lon="9.792285558807375"><ele>851.3333333333334</ele><time>2026-04-19T15:28:23.867Z</time></trkpt><trkpt lat="44.3345881746031" lon="9.79235136229061"><ele>848.5</ele><time>2026-04-19T15:28:24.867Z</time></trkpt><trkpt lat="44.334515909277975" lon="9.792416333095666"><ele>845.6666666666667</ele><time>2026-04-19T15:28:25.867Z</time></trkpt><trkpt lat="44.334466228476785" lon="9.792489463876075"><ele>842.8333333333334</ele><time>2026-04-19T15:28:26.867Z</time></trkpt><trkpt lat="44.33442953094707" lon="9.792580225043817"><ele>840.0</ele><time>2026-04-19T15:28:27.867Z</time></trkpt><trkpt lat="44.33440267460267" lon="9.792714112280628"><ele>840.0</ele><time>2026-04-19T15:28:28.867Z</time></trkpt><trkpt lat="44.33437864804012" lon="9.792860007400304"><ele>840.0</ele><time>2026-04-19T15:28:29.867Z</time></trkpt><trkpt lat="44.334340990786956" lon="9.7930083790645"><ele>840.0</ele><time>2026-04-19T15:28:30.867Z</time></trkpt><trkpt lat="44.334303951670556" lon="9.793149676289467"><ele>840.0</ele><time>2026-04-19T15:28:31.867Z</time></trkpt><trkpt lat="44.33426808421898" lon="9.793279515855806"><ele>840.0</ele><time>2026-04-19T15:28:32.867Z</time></trkpt><trkpt lat="44.33424041409562" lon="9.793403189568407"><ele>843.0</ele><time>2026-04-19T15:28:33.867Z</time></trkpt><trkpt lat="44.334219432377346" lon="9.793518598181468"><ele>846.0</ele><time>2026-04-19T15:28:34.867Z</time></trkpt><trkpt lat="44.33419393456599" lon="9.793618887946078"><ele>849.0</ele><time>2026-04-19T15:28:35.867Z</time></trkpt><trkpt lat="44.33414622544536" lon="9.793734198445826"><ele>852.0</ele><time>2026-04-19T15:28:37.867Z</time></trkpt><trkpt lat="44.33410940541869" lon="9.79386580124918"><ele>855.0</ele><time>2026-04-19T15:28:39.867Z</time></trkpt><trkpt lat="44.33402856448859" lon="9.793984987503658"><ele>855.0</ele><time>2026-04-19T15:28:41.865Z</time></trkpt><trkpt lat="44.33396712078378" lon="9.794037008311017"><ele>855.0</ele><time>2026-04-19T15:28:42.865Z</time></trkpt><trkpt lat="44.33389006576214" lon="9.79411538983893"><ele>855.0</ele><time>2026-04-19T15:28:43.865Z</time></trkpt><trkpt lat="44.33383224098125" lon="9.794179576800879"><ele>855.0</ele><time>2026-04-19T15:28:44.865Z</time></trkpt><trkpt lat="44.333771113229524" lon="9.794262881547317"><ele>855.0</ele><time>2026-04-19T15:28:45.865Z</time></trkpt><trkpt lat="44.333719319315755" lon="9.794342851423618"><ele>855.0</ele><time>2026-04-19T15:28:46.865Z</time></trkpt><trkpt lat="44.33367213105631" lon="9.794423006985177"><ele>851.8</ele><time>2026-04-19T15:28:47.864Z</time></trkpt><trkpt lat="44.33363644480492" lon="9.794499783715953"><ele>848.6</ele><time>2026-04-19T15:28:48.865Z</time></trkpt><trkpt lat="44.33359772099649" lon="9.794602216944043"><ele>845.4000000000001</ele><time>2026-04-19T15:28:49.865Z</time></trkpt><trkpt lat="44.3335579524248" lon="9.794713442789815"><ele>842.2</ele><time>2026-04-19T15:28:50.865Z</time></trkpt><trkpt lat="44.33352687401136" lon="9.794851152646938"><ele>839.0</ele><time>2026-04-19T15:28:51.865Z</time></trkpt><trkpt lat="44.33350691062354" lon="9.795007402034722"><ele>842.25</ele><time>2026-04-19T15:28:52.865Z</time></trkpt><trkpt lat="44.333471332980714" lon="9.795172188818366"><ele>845.5</ele><time>2026-04-19T15:28:53.865Z</time></trkpt><trkpt lat="44.333419363629" lon="9.79532923145028"><ele>848.75</ele><time>2026-04-19T15:28:54.864Z</time></trkpt><trkpt lat="44.333365848641286" lon="9.79548248275251"><ele>852.0</ele><time>2026-04-19T15:28:55.864Z</time></trkpt><trkpt lat="44.333303899576414" lon="9.795650063477202"><ele>852.0</ele><time>2026-04-19T15:28:56.864Z</time></trkpt><trkpt lat="44.33324851630928" lon="9.795826127296031"><ele>852.0</ele><time>2026-04-19T15:28:57.864Z</time></trkpt><trkpt lat="44.33320305322469" lon="9.795993172461545"><ele>852.0</ele><time>2026-04-19T15:28:58.864Z</time></trkpt><trkpt lat="44.333161173225" lon="9.79612892469104"><ele>852.0</ele><time>2026-04-19T15:28:59.864Z</time></trkpt><trkpt lat="44.33312585119059" lon="9.79623225122578"><ele>851.1428571428571</ele><time>2026-04-19T15:29:00.864Z</time></trkpt><trkpt lat="44.33309003943052" lon="9.79631288000027"><ele>850.2857142857142</ele><time>2026-04-19T15:29:01.864Z</time></trkpt><trkpt lat="44.33303261928599" lon="9.79635785009658"><ele>849.4285714285713</ele><time>2026-04-19T15:29:02.864Z</time></trkpt><trkpt lat="44.33295979641908" lon="9.796377543726056"><ele>848.5714285714286</ele><time>2026-04-19T15:29:03.864Z</time></trkpt><trkpt lat="44.33287910992089" lon="9.796394699508168"><ele>847.7142857142858</ele><time>2026-04-19T15:29:04.864Z</time></trkpt><trkpt lat="44.332823098866754" lon="9.796447319668395"><ele>846.8571428571428</ele><time>2026-04-19T15:29:05.864Z</time></trkpt><trkpt lat="44.33278228177234" lon="9.79654004906729"><ele>846.0</ele><time>2026-04-19T15:29:06.864Z</time></trkpt><trkpt lat="44.33274853029916" lon="9.796647564074469"><ele>846.0</ele><time>2026-04-19T15:29:07.864Z</time></trkpt><trkpt lat="44.33273033845654" lon="9.796777734482573"><ele>846.0</ele><time>2026-04-19T15:29:08.864Z</time></trkpt><trkpt lat="44.33273447515704" lon="9.796925805945492"><ele>846.0</ele><time>2026-04-19T15:29:09.864Z</time></trkpt><trkpt lat="44.33273182139651" lon="9.797070251838548"><ele>846.0</ele><time>2026-04-19T15:29:10.864Z</time></trkpt><trkpt lat="44.33271368797108" lon="9.79720802920237"><ele>846.0</ele><time>2026-04-19T15:29:11.864Z</time></trkpt><trkpt lat="44.33269584449685" lon="9.797323326422502"><ele>845.1666666666666</ele><time>2026-04-19T15:29:12.864Z</time></trkpt><trkpt lat="44.332672397236045" lon="9.797430994400939"><ele>844.3333333333333</ele><time>2026-04-19T15:29:13.864Z</time></trkpt><trkpt lat="44.33265896160493" lon="9.79752003801881"><ele>843.5</ele><time>2026-04-19T15:29:14.864Z</time></trkpt><trkpt lat="44.33266394471321" lon="9.797650394249501"><ele>842.6666666666666</ele><time>2026-04-19T15:29:16.864Z</time></trkpt><trkpt lat="44.332754262779844" lon="9.797762662990788"><ele>841.8333333333333</ele><time>2026-04-19T15:29:18.864Z</time></trkpt><trkpt lat="44.33282141959047" lon="9.797770375331467"><ele>841.0</ele><time>2026-04-19T15:29:19.864Z</time></trkpt><trkpt lat="44.33288872815903" lon="9.797771005735934"><ele>841.0</ele><time>2026-04-19T15:29:20.864Z</time></trkpt><trkpt lat="44.33297403074757" lon="9.797763029503834"><ele>841.0</ele><time>2026-04-19T15:29:21.864Z</time></trkpt><trkpt lat="44.33306407986441" lon="9.797757327327076"><ele>841.0</ele><time>2026-04-19T15:29:22.864Z</time></trkpt><trkpt lat="44.333151731217406" lon="9.797753187133141"><ele>841.0</ele><time>2026-04-19T15:29:23.864Z</time></trkpt><trkpt lat="44.33324414202127" lon="9.797766977503366"><ele>841.0</ele><time>2026-04-19T15:29:24.864Z</time></trkpt><trkpt lat="44.333335834491514" lon="9.797793240210853"><ele>843.0</ele><time>2026-04-19T15:29:25.864Z</time></trkpt><trkpt lat="44.33342850476776" lon="9.797831350740944"><ele>845.0</ele><time>2026-04-19T15:29:26.865Z</time></trkpt><trkpt lat="44.333514790292156" lon="9.797883030901296"><ele>847.0</ele><time>2026-04-19T15:29:27.865Z</time></trkpt><trkpt lat="44.33359369426742" lon="9.797943418218283"><ele>849.0</ele><time>2026-04-19T15:29:28.865Z</time></trkpt><trkpt lat="44.33367732514991" lon="9.798052280180674"><ele>851.0</ele><time>2026-04-19T15:29:29.865Z</time></trkpt><trkpt lat="44.33374813772514" lon="9.798143896230311"><ele>851.0000000000001</ele><time>2026-04-19T15:29:30.865Z</time></trkpt><trkpt lat="44.333827300862055" lon="9.798210781362819"><ele>851.0</ele><time>2026-04-19T15:29:31.865Z</time></trkpt><trkpt lat="44.333903413989546" lon="9.798249990719848"><ele>851.0</ele><time>2026-04-19T15:29:32.865Z</time></trkpt><trkpt lat="44.33398342960997" lon="9.798264830237782"><ele>851.0</ele><time>2026-04-19T15:29:33.865Z</time></trkpt><trkpt lat="44.33406399350827" lon="9.798295698297613"><ele>851.0000000000001</ele><time>2026-04-19T15:29:34.865Z</time></trkpt><trkpt lat="44.33412407689109" lon="9.798386853709644"><ele>851.0</ele><time>2026-04-19T15:29:36.865Z</time></trkpt><trkpt lat="44.33405972601104" lon="9.79849645982429"><ele>849.0000000000001</ele><time>2026-04-19T15:29:38.865Z</time></trkpt><trkpt lat="44.333984839440625" lon="9.79855339149358"><ele>847.0</ele><time>2026-04-19T15:29:39.865Z</time></trkpt><trkpt lat="44.33390750998614" lon="9.79859251791642"><ele>845.0</ele><time>2026-04-19T15:29:40.865Z</time></trkpt><trkpt lat="44.33384741091653" lon="9.798630474566849"><ele>843.0</ele><time>2026-04-19T15:29:41.865Z</time></trkpt><trkpt lat="44.33379672974908" lon="9.798754165684556"><ele>841.0000000000001</ele><time>2026-04-19T15:29:43.865Z</time></trkpt><trkpt lat="44.33386508380297" lon="9.798873527853736"><ele>839.0</ele><time>2026-04-19T15:29:45.865Z</time></trkpt><trkpt lat="44.3339363330555" lon="9.79887903103926"><ele>845.2</ele><time>2026-04-19T15:29:46.865Z</time></trkpt><trkpt lat="44.33401822200408" lon="9.798861940478362"><ele>851.4000000000001</ele><time>2026-04-19T15:29:47.865Z</time></trkpt><trkpt lat="44.334106320615014" lon="9.798840523824992"><ele>857.6</ele><time>2026-04-19T15:29:48.865Z</time></trkpt><trkpt lat="44.334203653619326" lon="9.798830669822555"><ele>863.8</ele><time>2026-04-19T15:29:49.865Z</time></trkpt><trkpt lat="44.334297806181056" lon="9.798851383378743"><ele>870.0</ele><time>2026-04-19T15:29:50.865Z</time></trkpt><trkpt lat="44.33439222119501" lon="9.798921244478038"><ele>870.0</ele><time>2026-04-19T15:29:51.865Z</time></trkpt><trkpt lat="44.33447002048508" lon="9.798989976181247"><ele>870.0</ele><time>2026-04-19T15:29:52.865Z</time></trkpt><trkpt lat="44.334533875167644" lon="9.799075528340651"><ele>870.0</ele><time>2026-04-19T15:29:53.865Z</time></trkpt><trkpt lat="44.33458714994457" lon="9.799142912550378"><ele>870.0</ele><time>2026-04-19T15:29:54.865Z</time></trkpt><trkpt lat="44.33465390392399" lon="9.799191958701003"><ele>870.0</ele><time>2026-04-19T15:29:55.865Z</time></trkpt><trkpt lat="44.33475142782394" lon="9.799231144969607"><ele>870.0</ele><time>2026-04-19T15:29:56.865Z</time></trkpt><trkpt lat="44.33487741920252" lon="9.799254884334472"><ele>869.25</ele><time>2026-04-19T15:29:57.865Z</time></trkpt><trkpt lat="44.3350123731548" lon="9.799294755665379"><ele>868.5</ele><time>2026-04-19T15:29:58.865Z</time></trkpt><trkpt lat="44.33514020771634" lon="9.79932565832887"><ele>867.75</ele><time>2026-04-19T15:29:59.865Z</time></trkpt><trkpt lat="44.33526758737726" lon="9.799368149715963"><ele>867.0</ele><time>2026-04-19T15:30:00.865Z</time></trkpt><trkpt lat="44.335376902089074" lon="9.799403572181378"><ele>867.0</ele><time>2026-04-19T15:30:01.865Z</time></trkpt><trkpt lat="44.33547346370744" lon="9.79943720684873"><ele>867.0</ele><time>2026-04-19T15:30:02.865Z</time></trkpt><trkpt lat="44.33558621711972" lon="9.799441952964974"><ele>867.0</ele><time>2026-04-19T15:30:03.865Z</time></trkpt><trkpt lat="44.3357005390146" lon="9.799455329183301"><ele>867.0</ele><time>2026-04-19T15:30:04.865Z</time></trkpt><trkpt lat="44.335806576356276" lon="9.799443059903325"><ele>867.0</ele><time>2026-04-19T15:30:05.865Z</time></trkpt><trkpt lat="44.335936835615506" lon="9.799440914604498"><ele>869.5</ele><time>2026-04-19T15:30:06.865Z</time></trkpt><trkpt lat="44.33605959000902" lon="9.799473383977082"><ele>872.0</ele><time>2026-04-19T15:30:07.865Z</time></trkpt><trkpt lat="44.33618120138033" lon="9.799513470781028"><ele>874.5</ele><time>2026-04-19T15:30:08.865Z</time></trkpt><trkpt lat="44.33630134464692" lon="9.799551719262796"><ele>877.0</ele><time>2026-04-19T15:30:09.865Z</time></trkpt><trkpt lat="44.33641898500654" lon="9.799575900939763"><ele>881.5</ele><time>2026-04-19T15:30:10.865Z</time></trkpt><trkpt lat="44.33654057974195" lon="9.79957318980811"><ele>886.0</ele><time>2026-04-19T15:30:11.865Z</time></trkpt><trkpt lat="44.33666384294558" lon="9.799562943603929"><ele>890.5</ele><time>2026-04-19T15:30:12.865Z</time></trkpt><trkpt lat="44.33678780524798" lon="9.799547066283662"><ele>895.0</ele><time>2026-04-19T15:30:13.865Z</time></trkpt><trkpt lat="44.336907906554295" lon="9.799544102252728"><ele>895.0</ele><time>2026-04-19T15:30:14.865Z</time></trkpt><trkpt lat="44.33702713926496" lon="9.799566442466334"><ele>895.0</ele><time>2026-04-19T15:30:15.865Z</time></trkpt><trkpt lat="44.33713497892803" lon="9.799619668275056"><ele>895.0</ele><time>2026-04-19T15:30:16.865Z</time></trkpt><trkpt lat="44.33722173871999" lon="9.799694716665163"><ele>895.0</ele><time>2026-04-19T15:30:17.865Z</time></trkpt><trkpt lat="44.33730843097826" lon="9.799711177594617"><ele>895.0</ele><time>2026-04-19T15:30:18.865Z</time></trkpt><trkpt lat="44.33739686302954" lon="9.799696536955357"><ele>898.4999999999999</ele><time>2026-04-19T15:30:19.865Z</time></trkpt><trkpt lat="44.33747156221953" lon="9.799689809868221"><ele>902.0</ele><time>2026-04-19T15:30:20.865Z</time></trkpt><trkpt lat="44.337545599487775" lon="9.799690979598859"><ele>905.5</ele><time>2026-04-19T15:30:21.865Z</time></trkpt><trkpt lat="44.33761162075705" lon="9.799753300261935"><ele>909.0</ele><time>2026-04-19T15:30:22.865Z</time></trkpt><trkpt lat="44.33764725216505" lon="9.799831925843346"><ele>912.4999999999999</ele><time>2026-04-19T15:30:23.865Z</time></trkpt><trkpt lat="44.33766263552124" lon="9.799940345912558"><ele>916.0</ele><time>2026-04-19T15:30:24.865Z</time></trkpt><trkpt lat="44.337654420312674" lon="9.800072288737084"><ele>917.6666666666666</ele><time>2026-04-19T15:30:25.865Z</time></trkpt><trkpt lat="44.337644137772955" lon="9.800202721519511"><ele>919.3333333333333</ele><time>2026-04-19T15:30:26.865Z</time></trkpt><trkpt lat="44.3376269057434" lon="9.800302395576868"><ele>921.0</ele><time>2026-04-19T15:30:27.865Z</time></trkpt><trkpt lat="44.337575779509" lon="9.80037913863079"><ele>922.6666666666667</ele><time>2026-04-19T15:30:28.865Z</time></trkpt><trkpt lat="44.3375168838006" lon="9.800453652225482"><ele>924.3333333333334</ele><time>2026-04-19T15:30:29.865Z</time></trkpt><trkpt lat="44.3374581506647" lon="9.800535876807587"><ele>926.0</ele><time>2026-04-19T15:30:30.865Z</time></trkpt><trkpt lat="44.33739784596611" lon="9.800625690745738"><ele>926.0</ele><time>2026-04-19T15:30:31.865Z</time></trkpt><trkpt lat="44.337337276040245" lon="9.800721908268017"><ele>925.9999999999999</ele><time>2026-04-19T15:30:32.865Z</time></trkpt><trkpt lat="44.33726986221738" lon="9.800826508377439"><ele>925.9999999999999</ele><time>2026-04-19T15:30:33.865Z</time></trkpt><trkpt lat="44.33720051351219" lon="9.80094200055656"><ele>926.0</ele><time>2026-04-19T15:30:34.865Z</time></trkpt><trkpt lat="44.337143606371924" lon="9.801055868725113"><ele>926.0</ele><time>2026-04-19T15:30:35.865Z</time></trkpt><trkpt lat="44.33709329196638" lon="9.80117308300248"><ele>924.1999999999999</ele><time>2026-04-19T15:30:36.865Z</time></trkpt><trkpt lat="44.33704061955955" lon="9.801275949495887"><ele>922.3999999999999</ele><time>2026-04-19T15:30:37.865Z</time></trkpt><trkpt lat="44.336986774249894" lon="9.801383237205807"><ele>920.6</ele><time>2026-04-19T15:30:38.865Z</time></trkpt><trkpt lat="44.33692527295907" lon="9.801492487344895"><ele>918.8</ele><time>2026-04-19T15:30:39.865Z</time></trkpt><trkpt lat="44.336885078735556" lon="9.801603200158642"><ele>917.0</ele><time>2026-04-19T15:30:40.865Z</time></trkpt><trkpt lat="44.33685091844493" lon="9.80170531570714"><ele>917.0000000000001</ele><time>2026-04-19T15:30:41.865Z</time></trkpt><trkpt lat="44.33680840218281" lon="9.8017927956069"><ele>917.0</ele><time>2026-04-19T15:30:42.865Z</time></trkpt><trkpt lat="44.33673050278815" lon="9.801840538893687"><ele>917.0</ele><time>2026-04-19T15:30:43.865Z</time></trkpt><trkpt lat="44.33664410424076" lon="9.801885886904032"><ele>917.0</ele><time>2026-04-19T15:30:44.865Z</time></trkpt><trkpt lat="44.336553758606534" lon="9.801921378497731"><ele>917.0000000000001</ele><time>2026-04-19T15:30:45.865Z</time></trkpt><trkpt lat="44.33646801261836" lon="9.801971585289404"><ele>917.0</ele><time>2026-04-19T15:30:46.865Z</time></trkpt><trkpt lat="44.33640852421106" lon="9.802030187874857"><ele>914.2</ele><time>2026-04-19T15:30:47.863Z</time></trkpt><trkpt lat="44.33634161057348" lon="9.802142212942245"><ele>911.4000000000001</ele><time>2026-04-19T15:30:49.863Z</time></trkpt><trkpt lat="44.33630131750618" lon="9.80224341882406"><ele>908.5999999999999</ele><time>2026-04-19T15:30:50.863Z</time></trkpt><trkpt lat="44.336257084566505" lon="9.802379838975552"><ele>905.8</ele><time>2026-04-19T15:30:51.863Z</time></trkpt><trkpt lat="44.33621752899649" lon="9.802518779515358"><ele>903.0</ele><time>2026-04-19T15:30:52.863Z</time></trkpt><trkpt lat="44.33618541026389" lon="9.802641674209102"><ele>905.1666666666666</ele><time>2026-04-19T15:30:53.864Z</time></trkpt><trkpt lat="44.33615204504486" lon="9.802785409041514"><ele>907.3333333333333</ele><time>2026-04-19T15:30:54.863Z</time></trkpt><trkpt lat="44.33612267541916" lon="9.802914324618053"><ele>909.5</ele><time>2026-04-19T15:30:55.863Z</time></trkpt><trkpt lat="44.33609005370274" lon="9.803033800262765"><ele>911.6666666666666</ele><time>2026-04-19T15:30:56.864Z</time></trkpt><trkpt lat="44.33606801226841" lon="9.803139601316579"><ele>913.8333333333333</ele><time>2026-04-19T15:30:57.863Z</time></trkpt><trkpt lat="44.33605560127433" lon="9.803228715783163"><ele>916.0</ele><time>2026-04-19T15:30:58.863Z</time></trkpt><trkpt lat="44.33608583273941" lon="9.803387259128412"><ele>915.9999999999999</ele><time>2026-04-19T15:31:00.864Z</time></trkpt><trkpt lat="44.33612988215861" lon="9.803454928568046"><ele>916.0</ele><time>2026-04-19T15:31:01.864Z</time></trkpt><trkpt lat="44.33619094705041" lon="9.803499466620961"><ele>916.0</ele><time>2026-04-19T15:31:02.864Z</time></trkpt><trkpt lat="44.3362575650212" lon="9.803533446110501"><ele>916.0</ele><time>2026-04-19T15:31:03.864Z</time></trkpt><trkpt lat="44.33633957866881" lon="9.803540354726648"><ele>915.9999999999999</ele><time>2026-04-19T15:31:04.864Z</time></trkpt><trkpt lat="44.33644399240986" lon="9.80356041933071"><ele>916.0</ele><time>2026-04-19T15:31:05.864Z</time></trkpt><trkpt lat="44.33656730540744" lon="9.803577325905868"><ele>917.5</ele><time>2026-04-19T15:31:06.864Z</time></trkpt><trkpt lat="44.336680649620064" lon="9.803595986660403"><ele>919.0</ele><time>2026-04-19T15:31:07.864Z</time></trkpt><trkpt lat="44.33679170652372" lon="9.80361059221973"><ele>920.5</ele><time>2026-04-19T15:31:08.864Z</time></trkpt><trkpt lat="44.33692526944989" lon="9.803618237215337"><ele>922.0</ele><time>2026-04-19T15:31:09.864Z</time></trkpt><trkpt lat="44.33706194532067" lon="9.803632472806084"><ele>922.0</ele><time>2026-04-19T15:31:10.864Z</time></trkpt><trkpt lat="44.33718841313067" lon="9.80364478238019"><ele>922.0</ele><time>2026-04-19T15:31:11.864Z</time></trkpt><trkpt lat="44.33730031689641" lon="9.803655712031581"><ele>922.0</ele><time>2026-04-19T15:31:12.864Z</time></trkpt><trkpt lat="44.33739364610336" lon="9.803663672442976"><ele>922.0</ele><time>2026-04-19T15:31:13.864Z</time></trkpt><trkpt lat="44.33747881976998" lon="9.803646620445107"><ele>922.0</ele><time>2026-04-19T15:31:14.864Z</time></trkpt><trkpt lat="44.33757853148404" lon="9.803659711084574"><ele>924.4000000000001</ele><time>2026-04-19T15:31:15.864Z</time></trkpt><trkpt lat="44.337686196305626" lon="9.80369269768613"><ele>926.8000000000001</ele><time>2026-04-19T15:31:16.864Z</time></trkpt><trkpt lat="44.33776243383395" lon="9.803762680289637"><ele>929.2</ele><time>2026-04-19T15:31:17.864Z</time></trkpt><trkpt lat="44.33784624094896" lon="9.803772142083439"><ele>931.6</ele><time>2026-04-19T15:31:18.864Z</time></trkpt><trkpt lat="44.33794905753356" lon="9.803748214336371"><ele>934.0</ele><time>2026-04-19T15:31:19.864Z</time></trkpt><trkpt lat="44.338068265896624" lon="9.803698156089466"><ele>936.3333333333333</ele><time>2026-04-19T15:31:20.864Z</time></trkpt><trkpt lat="44.33817982329178" lon="9.803629427914759"><ele>938.6666666666666</ele><time>2026-04-19T15:31:21.864Z</time></trkpt><trkpt lat="44.33826578552866" lon="9.803621720210032"><ele>941.0</ele><time>2026-04-19T15:31:22.864Z</time></trkpt><trkpt lat="44.338349564072544" lon="9.803620987411879"><ele>943.3333333333333</ele><time>2026-04-19T15:31:23.864Z</time></trkpt><trkpt lat="44.338413143198785" lon="9.803654078777871"><ele>945.6666666666666</ele><time>2026-04-19T15:31:24.864Z</time></trkpt><trkpt lat="44.33847828928716" lon="9.80371612288933"><ele>948.0</ele><time>2026-04-19T15:31:25.864Z</time></trkpt><trkpt lat="44.338563514523386" lon="9.803758960449649"><ele>948.0</ele><time>2026-04-19T15:31:26.864Z</time></trkpt><trkpt lat="44.338667135557806" lon="9.803774075944716"><ele>948.0</ele><time>2026-04-19T15:31:27.864Z</time></trkpt><trkpt lat="44.338766259060485" lon="9.803793425368365"><ele>948.0</ele><time>2026-04-19T15:31:28.864Z</time></trkpt><trkpt lat="44.33886904986036" lon="9.803800809925418"><ele>948.0</ele><time>2026-04-19T15:31:29.864Z</time></trkpt><trkpt lat="44.33894272223837" lon="9.803800394564192"><ele>948.0</ele><time>2026-04-19T15:31:30.864Z</time></trkpt><trkpt lat="44.339012593874926" lon="9.803799373037632"><ele>951.6666666666666</ele><time>2026-04-19T15:31:31.864Z</time></trkpt><trkpt lat="44.33907590696961" lon="9.803817562782074"><ele>955.3333333333333</ele><time>2026-04-19T15:31:32.864Z</time></trkpt><trkpt lat="44.339139154775374" lon="9.803941890926"><ele>959.0</ele><time>2026-04-19T15:31:34.864Z</time></trkpt><trkpt lat="44.3391148052416" lon="9.80403617650427"><ele>962.6666666666666</ele><time>2026-04-19T15:31:35.864Z</time></trkpt><trkpt lat="44.33909315281466" lon="9.804134653663228"><ele>966.3333333333333</ele><time>2026-04-19T15:31:36.864Z</time></trkpt><trkpt lat="44.339068218421005" lon="9.804256123439007"><ele>970.0</ele><time>2026-04-19T15:31:37.864Z</time></trkpt><trkpt lat="44.33904441338747" lon="9.804379776678346"><ele>970.8333333333333</ele><time>2026-04-19T15:31:38.864Z</time></trkpt><trkpt lat="44.33902189429162" lon="9.804512642485777"><ele>971.6666666666666</ele><time>2026-04-19T15:31:39.864Z</time></trkpt><trkpt lat="44.33901167268292" lon="9.804638083816664"><ele>972.5</ele><time>2026-04-19T15:31:40.864Z</time></trkpt><trkpt lat="44.339018577811174" lon="9.804741053820594"><ele>973.3333333333333</ele><time>2026-04-19T15:31:41.864Z</time></trkpt><trkpt lat="44.339046685018154" lon="9.80483852564516"><ele>974.1666666666666</ele><time>2026-04-19T15:31:42.864Z</time></trkpt><trkpt lat="44.33907641504942" lon="9.804926558559826"><ele>975.0</ele><time>2026-04-19T15:31:43.864Z</time></trkpt><trkpt lat="44.33906858283091" lon="9.805018207536444"><ele>975.0</ele><time>2026-04-19T15:31:44.864Z</time></trkpt><trkpt lat="44.33902928151107" lon="9.805102655350575"><ele>975.0</ele><time>2026-04-19T15:31:45.864Z</time></trkpt><trkpt lat="44.33897155597023" lon="9.805166723014082"><ele>975.0</ele><time>2026-04-19T15:31:46.864Z</time></trkpt><trkpt lat="44.338912440419854" lon="9.805218706473111"><ele>975.0</ele><time>2026-04-19T15:31:47.864Z</time></trkpt><trkpt lat="44.33884625034271" lon="9.80532799671744"><ele>975.0</ele><time>2026-04-19T15:31:49.864Z</time></trkpt><trkpt lat="44.33886036392539" lon="9.805538433771902"><ele>972.3333333333334</ele><time>2026-04-19T15:31:51.864Z</time></trkpt><trkpt lat="44.338856367168866" lon="9.805656598914117"><ele>969.6666666666667</ele><time>2026-04-19T15:31:52.864Z</time></trkpt><trkpt lat="44.338834520179866" lon="9.805769507327442"><ele>967.0</ele><time>2026-04-19T15:31:53.864Z</time></trkpt><trkpt lat="44.3387934950601" lon="9.805865617126353"><ele>964.3333333333334</ele><time>2026-04-19T15:31:54.864Z</time></trkpt><trkpt lat="44.33874400736613" lon="9.805939143834099"><ele>961.6666666666667</ele><time>2026-04-19T15:31:55.864Z</time></trkpt><trkpt lat="44.33869736088356" lon="9.806004229134107"><ele>959.0</ele><time>2026-04-19T15:31:56.864Z</time></trkpt><trkpt lat="44.338687830070555" lon="9.8061775514985"><ele>959.0</ele><time>2026-04-19T15:31:58.864Z</time></trkpt><trkpt lat="44.33870677689399" lon="9.806312340373749"><ele>959.0000000000001</ele><time>2026-04-19T15:31:59.864Z</time></trkpt><trkpt lat="44.33873816674817" lon="9.806442235788706"><ele>959.0000000000001</ele><time>2026-04-19T15:32:00.864Z</time></trkpt><trkpt lat="44.338770557294936" lon="9.806560497807668"><ele>959.0</ele><time>2026-04-19T15:32:01.864Z</time></trkpt><trkpt lat="44.33880801068308" lon="9.806639177120928"><ele>959.0</ele><time>2026-04-19T15:32:02.864Z</time></trkpt><trkpt lat="44.33892082045522" lon="9.806717141051529"><ele>964.3333333333334</ele><time>2026-04-19T15:32:04.864Z</time></trkpt><trkpt lat="44.33898498852766" lon="9.806729667428069"><ele>969.6666666666667</ele><time>2026-04-19T15:32:05.864Z</time></trkpt><trkpt lat="44.33909553873019" lon="9.80676769028405"><ele>975.0</ele><time>2026-04-19T15:32:07.864Z</time></trkpt><trkpt lat="44.33913424538241" lon="9.8069068704102"><ele>980.3333333333333</ele><time>2026-04-19T15:32:09.864Z</time></trkpt><trkpt lat="44.33910945964331" lon="9.806997915341528"><ele>985.6666666666666</ele><time>2026-04-19T15:32:10.864Z</time></trkpt><trkpt lat="44.339069317866944" lon="9.807073323307087"><ele>991.0</ele><time>2026-04-19T15:32:11.864Z</time></trkpt><trkpt lat="44.33901860476676" lon="9.807152667629794"><ele>992.1666666666666</ele><time>2026-04-19T15:32:12.864Z</time></trkpt><trkpt lat="44.33896625392703" lon="9.807241073628978"><ele>993.3333333333333</ele><time>2026-04-19T15:32:13.864Z</time></trkpt><trkpt lat="44.338912244391715" lon="9.807334397230749"><ele>994.5</ele><time>2026-04-19T15:32:14.864Z</time></trkpt><trkpt lat="44.33886210838782" lon="9.807429475120701"><ele>995.6666666666667</ele><time>2026-04-19T15:32:15.864Z</time></trkpt><trkpt lat="44.33881317445675" lon="9.807529998778898"><ele>996.8333333333334</ele><time>2026-04-19T15:32:16.864Z</time></trkpt><trkpt lat="44.33877870111429" lon="9.807607074221412"><ele>998.0</ele><time>2026-04-19T15:32:17.864Z</time></trkpt><trkpt lat="44.338780440168854" lon="9.8077705728378"><ele>997.3333333333334</ele><time>2026-04-19T15:32:19.864Z</time></trkpt><trkpt lat="44.33880946729681" lon="9.807858806925013"><ele>996.6666666666667</ele><time>2026-04-19T15:32:20.864Z</time></trkpt><trkpt lat="44.338868598257235" lon="9.807927672282242"><ele>996.0</ele><time>2026-04-19T15:32:21.864Z</time></trkpt><trkpt lat="44.338942607951" lon="9.807976270701664"><ele>995.3333333333333</ele><time>2026-04-19T15:32:22.864Z</time></trkpt><trkpt lat="44.339026885121996" lon="9.808013834332607"><ele>994.6666666666666</ele><time>2026-04-19T15:32:23.864Z</time></trkpt><trkpt lat="44.33912124495524" lon="9.808046657664594"><ele>994.0</ele><time>2026-04-19T15:32:24.864Z</time></trkpt><trkpt lat="44.33922015168306" lon="9.80807143619472"><ele>994.0</ele><time>2026-04-19T15:32:25.864Z</time></trkpt><trkpt lat="44.33932263932395" lon="9.808099665822592"><ele>994.0000000000001</ele><time>2026-04-19T15:32:26.864Z</time></trkpt><trkpt lat="44.33942582676082" lon="9.808128977800616"><ele>994.0000000000001</ele><time>2026-04-19T15:32:27.864Z</time></trkpt><trkpt lat="44.33952270726031" lon="9.808160028970415"><ele>994.0</ele><time>2026-04-19T15:32:28.864Z</time></trkpt><trkpt lat="44.33961198428285" lon="9.808185456440354"><ele>994.0</ele><time>2026-04-19T15:32:29.864Z</time></trkpt><trkpt lat="44.33969808201275" lon="9.808211266271636"><ele>1000.0</ele><time>2026-04-19T15:32:30.864Z</time></trkpt><trkpt lat="44.339776356535374" lon="9.80824605734734"><ele>1006.0000000000001</ele><time>2026-04-19T15:32:31.864Z</time></trkpt><trkpt lat="44.33986742430477" lon="9.808284208492042"><ele>1012.0000000000001</ele><time>2026-04-19T15:32:32.864Z</time></trkpt><trkpt lat="44.33995514772895" lon="9.808329440920616"><ele>1018.0</ele><time>2026-04-19T15:32:33.864Z</time></trkpt><trkpt lat="44.340038536355316" lon="9.808387858837111"><ele>1024.0</ele><time>2026-04-19T15:32:34.864Z</time></trkpt><trkpt lat="44.34011715403417" lon="9.808447268438156"><ele>1024.6666666666665</ele><time>2026-04-19T15:32:35.864Z</time></trkpt><trkpt lat="44.34018904605324" lon="9.808511467348168"><ele>1025.3333333333333</ele><time>2026-04-19T15:32:36.864Z</time></trkpt><trkpt lat="44.340242827425655" lon="9.808572709174836"><ele>1026.0</ele><time>2026-04-19T15:32:37.864Z</time></trkpt><trkpt lat="44.34026894296248" lon="9.80873798994706"><ele>1026.6666666666667</ele><time>2026-04-19T15:32:39.864Z</time></trkpt><trkpt lat="44.340228092882285" lon="9.808840338319994"><ele>1027.3333333333335</ele><time>2026-04-19T15:32:40.864Z</time></trkpt><trkpt lat="44.340175865263205" lon="9.808924018586032"><ele>1028.0</ele><time>2026-04-19T15:32:41.864Z</time></trkpt><trkpt lat="44.34010445639398" lon="9.80901877840382"><ele>1028.0</ele><time>2026-04-19T15:32:42.864Z</time></trkpt><trkpt lat="44.34002901052333" lon="9.809117136618882"><ele>1028.0</ele><time>2026-04-19T15:32:43.864Z</time></trkpt><trkpt lat="44.339949345768474" lon="9.809204097084859"><ele>1028.0</ele><time>2026-04-19T15:32:44.864Z</time></trkpt><trkpt lat="44.33986999918117" lon="9.809299942086207"><ele>1028.0</ele><time>2026-04-19T15:32:45.864Z</time></trkpt><trkpt lat="44.33979647584394" lon="9.809403741745491"><ele>1028.0</ele><time>2026-04-19T15:32:46.864Z</time></trkpt><trkpt lat="44.33973467679593" lon="9.809512446622984"><ele>1026.4</ele><time>2026-04-19T15:32:47.864Z</time></trkpt><trkpt lat="44.3396866349216" lon="9.809626931304331"><ele>1024.8</ele><time>2026-04-19T15:32:48.864Z</time></trkpt><trkpt lat="44.33964734716131" lon="9.809756370029797"><ele>1023.2</ele><time>2026-04-19T15:32:49.864Z</time></trkpt><trkpt lat="44.33962950530656" lon="9.80989727649277"><ele>1021.6</ele><time>2026-04-19T15:32:50.864Z</time></trkpt><trkpt lat="44.33961114872138" lon="9.810043825233683"><ele>1020.0</ele><time>2026-04-19T15:32:51.864Z</time></trkpt><trkpt lat="44.339592780232785" lon="9.810202855531323"><ele>1020.0</ele><time>2026-04-19T15:32:52.864Z</time></trkpt><trkpt lat="44.339567180496104" lon="9.810352470440913"><ele>1020.0</ele><time>2026-04-19T15:32:53.862Z</time></trkpt><trkpt lat="44.33951470471134" lon="9.810483337130908"><ele>1020.0</ele><time>2026-04-19T15:32:54.862Z</time></trkpt><trkpt lat="44.339451359726" lon="9.810610028666915"><ele>1020.0</ele><time>2026-04-19T15:32:55.862Z</time></trkpt><trkpt lat="44.33938871640999" lon="9.810746022769559"><ele>1020.0</ele><time>2026-04-19T15:32:56.862Z</time></trkpt><trkpt lat="44.3393320309765" lon="9.810889114951056"><ele>1025.5</ele><time>2026-04-19T15:32:57.862Z</time></trkpt><trkpt lat="44.33928622196142" lon="9.811044154964005"><ele>1031.0</ele><time>2026-04-19T15:32:58.862Z</time></trkpt><trkpt lat="44.33923908882014" lon="9.81121372892054"><ele>1036.5</ele><time>2026-04-19T15:32:59.861Z</time></trkpt><trkpt lat="44.339184017910334" lon="9.81138910224888"><ele>1042.0</ele><time>2026-04-19T15:33:00.862Z</time></trkpt><trkpt lat="44.33912436890094" lon="9.81154871796079"><ele>1042.0</ele><time>2026-04-19T15:33:01.862Z</time></trkpt><trkpt lat="44.339055811966574" lon="9.811707741982046"><ele>1042.0</ele><time>2026-04-19T15:33:02.862Z</time></trkpt><trkpt lat="44.338989660953494" lon="9.811858801199618"><ele>1042.0</ele><time>2026-04-19T15:33:03.862Z</time></trkpt><trkpt lat="44.33892881308736" lon="9.812005116464794"><ele>1042.0</ele><time>2026-04-19T15:33:04.862Z</time></trkpt><trkpt lat="44.338869214542065" lon="9.812148735252052"><ele>1037.0</ele><time>2026-04-19T15:33:05.862Z</time></trkpt><trkpt lat="44.33881794044408" lon="9.812288915740721"><ele>1032.0</ele><time>2026-04-19T15:33:06.862Z</time></trkpt><trkpt lat="44.33877115158052" lon="9.812407039175923"><ele>1027.0</ele><time>2026-04-19T15:33:07.862Z</time></trkpt><trkpt lat="44.338733614800724" lon="9.812524937884504"><ele>1022.0</ele><time>2026-04-19T15:33:08.862Z</time></trkpt><trkpt lat="44.33870664148345" lon="9.81266217858135"><ele>1017.0</ele><time>2026-04-19T15:33:09.862Z</time></trkpt><trkpt lat="44.33869383581501" lon="9.812830129767855"><ele>1017.0</ele><time>2026-04-19T15:33:10.862Z</time></trkpt><trkpt lat="44.33869249938323" lon="9.813009508836116"><ele>1017.0</ele><time>2026-04-19T15:33:11.862Z</time></trkpt><trkpt lat="44.338669209310744" lon="9.813194580513189"><ele>1017.0</ele><time>2026-04-19T15:33:12.862Z</time></trkpt><trkpt lat="44.338631472581305" lon="9.813363616051284"><ele>1017.0</ele><time>2026-04-19T15:33:13.862Z</time></trkpt><trkpt lat="44.338580646876196" lon="9.813506146010528"><ele>1017.0</ele><time>2026-04-19T15:33:14.862Z</time></trkpt><trkpt lat="44.3385289071392" lon="9.813638696352628"><ele>1017.0</ele><time>2026-04-19T15:33:15.862Z</time></trkpt><trkpt lat="44.33849328851807" lon="9.813763266549227"><ele>1017.0</ele><time>2026-04-19T15:33:16.862Z</time></trkpt><trkpt lat="44.3384939217556" lon="9.813897042214542"><ele>1017.0</ele><time>2026-04-19T15:33:17.862Z</time></trkpt><trkpt lat="44.33851412755075" lon="9.814045589287167"><ele>1017.0</ele><time>2026-04-19T15:33:18.862Z</time></trkpt><trkpt lat="44.33852487718327" lon="9.814167367140676"><ele>1017.0</ele><time>2026-04-19T15:33:19.862Z</time></trkpt><trkpt lat="44.33852229044339" lon="9.814268668837299"><ele>1017.0</ele><time>2026-04-19T15:33:21.862Z</time></trkpt><trkpt lat="44.338552870351485" lon="9.814376407176965"><ele>1017.0</ele><time>2026-04-19T15:33:34.862Z</time></trkpt><trkpt lat="44.33857485779646" lon="9.814474857566914"><ele>1017.0</ele><time>2026-04-19T15:33:36.862Z</time></trkpt><trkpt lat="44.338599015881925" lon="9.814575182148848"><ele>1017.0</ele><time>2026-04-19T15:33:38.862Z</time></trkpt><trkpt lat="44.338617614163816" lon="9.814689245454662"><ele>1017.0</ele><time>2026-04-19T15:33:40.862Z</time></trkpt><trkpt lat="44.338642543715814" lon="9.814823890692894"><ele>1017.2</ele><time>2026-04-19T15:33:42.862Z</time></trkpt><trkpt lat="44.33866612461953" lon="9.814967884822147"><ele>1017.4000000000001</ele><time>2026-04-19T15:33:44.862Z</time></trkpt><trkpt lat="44.33869376948109" lon="9.815099745347075"><ele>1017.5999999999999</ele><time>2026-04-19T15:33:46.862Z</time></trkpt><trkpt lat="44.33872408548784" lon="9.815256712785747"><ele>1017.8</ele><time>2026-04-19T15:33:48.862Z</time></trkpt><trkpt lat="44.33874778240531" lon="9.815430222899195"><ele>1018.0</ele><time>2026-04-19T15:33:50.862Z</time></trkpt><trkpt lat="44.338770134828636" lon="9.815542752397311"><ele>1017.3333333333333</ele><time>2026-04-19T15:33:51.862Z</time></trkpt><trkpt lat="44.33880770472091" lon="9.815657970736583"><ele>1016.6666666666666</ele><time>2026-04-19T15:33:52.862Z</time></trkpt><trkpt lat="44.33884877356973" lon="9.81575742555151"><ele>1016.0</ele><time>2026-04-19T15:33:53.862Z</time></trkpt><trkpt lat="44.338891843577684" lon="9.815845763708225"><ele>1015.3333333333333</ele><time>2026-04-19T15:33:54.862Z</time></trkpt><trkpt lat="44.338938243634374" lon="9.815939532192056"><ele>1014.6666666666666</ele><time>2026-04-19T15:33:55.862Z</time></trkpt><trkpt lat="44.33897593061516" lon="9.81604961543409"><ele>1014.0</ele><time>2026-04-19T15:33:56.862Z</time></trkpt><trkpt lat="44.33899917031724" lon="9.81616200188606"><ele>1014.0</ele><time>2026-04-19T15:33:57.863Z</time></trkpt><trkpt lat="44.33901182260523" lon="9.816282024386297"><ele>1014.0000000000001</ele><time>2026-04-19T15:33:58.863Z</time></trkpt><trkpt lat="44.33902104071641" lon="9.81640255450781"><ele>1014.0000000000001</ele><time>2026-04-19T15:33:59.863Z</time></trkpt><trkpt lat="44.33903303985787" lon="9.816526999014611"><ele>1014.0</ele><time>2026-04-19T15:34:00.863Z</time></trkpt><trkpt lat="44.33906072751539" lon="9.81664886649711"><ele>1014.0</ele><time>2026-04-19T15:34:01.863Z</time></trkpt><trkpt lat="44.3391043607847" lon="9.816776826032099"><ele>1014.8000000000001</ele><time>2026-04-19T15:34:02.863Z</time></trkpt><trkpt lat="44.339150385999886" lon="9.816903668083697"><ele>1015.6000000000001</ele><time>2026-04-19T15:34:03.863Z</time></trkpt><trkpt lat="44.33919804167753" lon="9.81702427293576"><ele>1016.4</ele><time>2026-04-19T15:34:04.863Z</time></trkpt><trkpt lat="44.33925607070333" lon="9.817130945279379"><ele>1017.2</ele><time>2026-04-19T15:34:05.863Z</time></trkpt><trkpt lat="44.339327627935255" lon="9.817234179637666"><ele>1018.0</ele><time>2026-04-19T15:34:06.863Z</time></trkpt><trkpt lat="44.33942103989075" lon="9.817330030500761"><ele>1018.0</ele><time>2026-04-19T15:34:07.863Z</time></trkpt><trkpt lat="44.33953286145811" lon="9.81741595294454"><ele>1018.0</ele><time>2026-04-19T15:34:08.863Z</time></trkpt><trkpt lat="44.33964489904246" lon="9.81749243320806"><ele>1018.0</ele><time>2026-04-19T15:34:09.863Z</time></trkpt><trkpt lat="44.339736737422676" lon="9.817575149100819"><ele>1018.0</ele><time>2026-04-19T15:34:10.863Z</time></trkpt><trkpt lat="44.33981122646289" lon="9.817665102648288"><ele>1015.5999999999999</ele><time>2026-04-19T15:34:11.863Z</time></trkpt><trkpt lat="44.33987622561149" lon="9.817769253948164"><ele>1013.1999999999999</ele><time>2026-04-19T15:34:12.863Z</time></trkpt><trkpt lat="44.33992819321219" lon="9.81788335405839"><ele>1010.8</ele><time>2026-04-19T15:34:13.863Z</time></trkpt><trkpt lat="44.33996180597508" lon="9.81801667296046"><ele>1008.4</ele><time>2026-04-19T15:34:14.863Z</time></trkpt><trkpt lat="44.33997570000852" lon="9.818153033996234"><ele>1006.0</ele><time>2026-04-19T15:34:15.863Z</time></trkpt><trkpt lat="44.33996915611173" lon="9.818311252911998"><ele>1006.0</ele><time>2026-04-19T15:34:16.863Z</time></trkpt><trkpt lat="44.33997846080668" lon="9.818469043603812"><ele>1005.9999999999999</ele><time>2026-04-19T15:34:17.863Z</time></trkpt><trkpt lat="44.33999445915751" lon="9.818614013791368"><ele>1005.9999999999999</ele><time>2026-04-19T15:34:18.863Z</time></trkpt><trkpt lat="44.34002563725519" lon="9.818741363776383"><ele>1006.0</ele><time>2026-04-19T15:34:19.863Z</time></trkpt><trkpt lat="44.34008084601081" lon="9.818867785266514"><ele>1006.0</ele><time>2026-04-19T15:34:20.863Z</time></trkpt><trkpt lat="44.34014601310186" lon="9.818991222912832"><ele>1006.0</ele><time>2026-04-19T15:34:21.863Z</time></trkpt><trkpt lat="44.34022176155085" lon="9.819093143192356"><ele>1005.9999999999999</ele><time>2026-04-19T15:34:22.863Z</time></trkpt><trkpt lat="44.34029133725208" lon="9.819189981572846"><ele>1005.9999999999999</ele><time>2026-04-19T15:34:23.863Z</time></trkpt><trkpt lat="44.34035123398059" lon="9.819280788794895"><ele>1006.0</ele><time>2026-04-19T15:34:24.863Z</time></trkpt><trkpt lat="44.340407447009554" lon="9.819367007037417"><ele>1006.0</ele><time>2026-04-19T15:34:25.863Z</time></trkpt><trkpt lat="44.34044977523135" lon="9.819457750140158"><ele>1005.9999999999999</ele><time>2026-04-19T15:34:26.863Z</time></trkpt><trkpt lat="44.340478215129664" lon="9.819568662172772"><ele>1006.0</ele><time>2026-04-19T15:34:27.863Z</time></trkpt><trkpt lat="44.34048728917773" lon="9.819685803007898"><ele>1006.0</ele><time>2026-04-19T15:34:28.863Z</time></trkpt><trkpt lat="44.34048158388068" lon="9.819811059123074"><ele>1006.0</ele><time>2026-04-19T15:34:29.863Z</time></trkpt><trkpt lat="44.340455068081006" lon="9.819928470184326"><ele>1005.9999999999999</ele><time>2026-04-19T15:34:30.863Z</time></trkpt><trkpt lat="44.340415135277816" lon="9.820045471982874"><ele>1006.0</ele><time>2026-04-19T15:34:31.863Z</time></trkpt><trkpt lat="44.340361031635524" lon="9.820149770809419"><ele>1001.1999999999999</ele><time>2026-04-19T15:34:32.863Z</time></trkpt><trkpt lat="44.34029201390955" lon="9.820229454076705"><ele>996.3999999999999</ele><time>2026-04-19T15:34:33.863Z</time></trkpt><trkpt lat="44.34021062811972" lon="9.820295101708387"><ele>991.6</ele><time>2026-04-19T15:34:34.863Z</time></trkpt><trkpt lat="44.34012424786504" lon="9.82035731929005"><ele>986.8</ele><time>2026-04-19T15:34:35.863Z</time></trkpt><trkpt lat="44.340046843386354" lon="9.820418416969996"><ele>982.0</ele><time>2026-04-19T15:34:36.863Z</time></trkpt><trkpt lat="44.33997758612331" lon="9.82049917753145"><ele>981.9999999999999</ele><time>2026-04-19T15:34:37.863Z</time></trkpt><trkpt lat="44.339917077148726" lon="9.82060534041797"><ele>982.0</ele><time>2026-04-19T15:34:38.863Z</time></trkpt><trkpt lat="44.33986365978205" lon="9.820716982843514"><ele>982.0</ele><time>2026-04-19T15:34:39.863Z</time></trkpt><trkpt lat="44.33981852396089" lon="9.82083003167254"><ele>982.0</ele><time>2026-04-19T15:34:40.863Z</time></trkpt><trkpt lat="44.33976980701768" lon="9.820923530035472"><ele>981.9999999999999</ele><time>2026-04-19T15:34:41.863Z</time></trkpt><trkpt lat="44.33970882214039" lon="9.820986596552594"><ele>982.0</ele><time>2026-04-19T15:34:42.863Z</time></trkpt><trkpt lat="44.33963595677362" lon="9.8210326481908"><ele>983.0</ele><time>2026-04-19T15:34:43.863Z</time></trkpt><trkpt lat="44.33955897131914" lon="9.821057620139415"><ele>984.0</ele><time>2026-04-19T15:34:44.863Z</time></trkpt><trkpt lat="44.3394818622161" lon="9.821072764678947"><ele>985.0</ele><time>2026-04-19T15:34:45.863Z</time></trkpt><trkpt lat="44.33940094989871" lon="9.821199662396076"><ele>986.0</ele><time>2026-04-19T15:34:47.863Z</time></trkpt><trkpt lat="44.339382827426576" lon="9.821326220821447"><ele>987.0</ele><time>2026-04-19T15:34:48.863Z</time></trkpt><trkpt lat="44.339375807371816" lon="9.82145922697973"><ele>987.0</ele><time>2026-04-19T15:34:49.863Z</time></trkpt><trkpt lat="44.33937110821264" lon="9.821586593012992"><ele>987.0</ele><time>2026-04-19T15:34:50.863Z</time></trkpt><trkpt lat="44.33937156453968" lon="9.821704425749402"><ele>987.0</ele><time>2026-04-19T15:34:51.863Z</time></trkpt><trkpt lat="44.3393640546668" lon="9.821812316538498"><ele>987.0</ele><time>2026-04-19T15:34:52.863Z</time></trkpt><trkpt lat="44.33938105713896" lon="9.82192923088084"><ele>987.0</ele><time>2026-04-19T15:34:53.863Z</time></trkpt><trkpt lat="44.33940538630064" lon="9.822053210505386"><ele>987.0</ele><time>2026-04-19T15:34:54.863Z</time></trkpt><trkpt lat="44.339423732720775" lon="9.82218156096772"><ele>983.8</ele><time>2026-04-19T15:34:55.863Z</time></trkpt><trkpt lat="44.339442367850964" lon="9.822306721725774"><ele>980.6</ele><time>2026-04-19T15:34:56.863Z</time></trkpt><trkpt lat="44.33946626099037" lon="9.822433720713438"><ele>977.3999999999999</ele><time>2026-04-19T15:34:57.863Z</time></trkpt><trkpt lat="44.33948398258937" lon="9.822567303577024"><ele>974.1999999999999</ele><time>2026-04-19T15:34:58.863Z</time></trkpt><trkpt lat="44.33950398124245" lon="9.822701527766032"><ele>971.0</ele><time>2026-04-19T15:34:59.861Z</time></trkpt><trkpt lat="44.33953509697608" lon="9.822829833764573"><ele>968.4</ele><time>2026-04-19T15:35:00.86Z</time></trkpt><trkpt lat="44.33958826676803" lon="9.822952578592469"><ele>965.8</ele><time>2026-04-19T15:35:01.86Z</time></trkpt><trkpt lat="44.33964319561173" lon="9.823079152635218"><ele>963.1999999999999</ele><time>2026-04-19T15:35:02.861Z</time></trkpt><trkpt lat="44.33969364735378" lon="9.823208173385261"><ele>960.5999999999999</ele><time>2026-04-19T15:35:03.861Z</time></trkpt><trkpt lat="44.33974652613245" lon="9.823338787413828"><ele>958.0</ele><time>2026-04-19T15:35:04.861Z</time></trkpt><trkpt lat="44.339799459617886" lon="9.823473489717557"><ele>957.8</ele><time>2026-04-19T15:35:05.861Z</time></trkpt><trkpt lat="44.339847597708506" lon="9.82361205794462"><ele>957.5999999999999</ele><time>2026-04-19T15:35:06.86Z</time></trkpt><trkpt lat="44.33989818965189" lon="9.823749266469937"><ele>957.4000000000001</ele><time>2026-04-19T15:35:07.86Z</time></trkpt><trkpt lat="44.339942897571675" lon="9.823878439392153"><ele>957.2</ele><time>2026-04-19T15:35:08.86Z</time></trkpt><trkpt lat="44.33999426205485" lon="9.823998689901133"><ele>957.0</ele><time>2026-04-19T15:35:09.861Z</time></trkpt><trkpt lat="44.340036664172544" lon="9.824105477287992"><ele>957.0</ele><time>2026-04-19T15:35:10.861Z</time></trkpt><trkpt lat="44.340083208130984" lon="9.824206933709252"><ele>957.0</ele><time>2026-04-19T15:35:11.86Z</time></trkpt><trkpt lat="44.34014363641256" lon="9.824309294134878"><ele>957.0</ele><time>2026-04-19T15:35:12.861Z</time></trkpt><trkpt lat="44.34020979230374" lon="9.824419797982388"><ele>957.0</ele><time>2026-04-19T15:35:13.861Z</time></trkpt><trkpt lat="44.34028267421503" lon="9.824536045068609"><ele>957.0</ele><time>2026-04-19T15:35:14.861Z</time></trkpt><trkpt lat="44.34036550552852" lon="9.824663593892923"><ele>956.0</ele><time>2026-04-19T15:35:15.861Z</time></trkpt><trkpt lat="44.34045557461314" lon="9.824795277306638"><ele>955.0</ele><time>2026-04-19T15:35:16.861Z</time></trkpt><trkpt lat="44.340543182526524" lon="9.824926821147697"><ele>954.0</ele><time>2026-04-19T15:35:17.861Z</time></trkpt><trkpt lat="44.34062824880619" lon="9.825051579963743"><ele>953.0</ele><time>2026-04-19T15:35:18.861Z</time></trkpt><trkpt lat="44.34071922352626" lon="9.825180814609466"><ele>955.5</ele><time>2026-04-19T15:35:19.861Z</time></trkpt><trkpt lat="44.34080915299853" lon="9.825311324689418"><ele>958.0</ele><time>2026-04-19T15:35:20.861Z</time></trkpt><trkpt lat="44.34088750759663" lon="9.825436169604737"><ele>960.5</ele><time>2026-04-19T15:35:21.861Z</time></trkpt><trkpt lat="44.34096951496213" lon="9.825554361136781"><ele>963.0</ele><time>2026-04-19T15:35:22.861Z</time></trkpt><trkpt lat="44.34105063637055" lon="9.82566822590268"><ele>963.0</ele><time>2026-04-19T15:35:23.861Z</time></trkpt><trkpt lat="44.34113758397157" lon="9.825781486160798"><ele>963.0</ele><time>2026-04-19T15:35:24.861Z</time></trkpt><trkpt lat="44.34123478996975" lon="9.825888338100928"><ele>963.0</ele><time>2026-04-19T15:35:25.861Z</time></trkpt><trkpt lat="44.34133025824952" lon="9.825983292070175"><ele>963.0</ele><time>2026-04-19T15:35:26.861Z</time></trkpt><trkpt lat="44.341426310539724" lon="9.826077245872552"><ele>962.0</ele><time>2026-04-19T15:35:27.861Z</time></trkpt><trkpt lat="44.34152121631817" lon="9.826181633300632"><ele>961.0</ele><time>2026-04-19T15:35:28.861Z</time></trkpt><trkpt lat="44.34161040959201" lon="9.82629948256166"><ele>960.0</ele><time>2026-04-19T15:35:29.861Z</time></trkpt><trkpt lat="44.341709901578106" lon="9.82640832160663"><ele>959.0</ele><time>2026-04-19T15:35:30.861Z</time></trkpt><trkpt lat="44.34179565674438" lon="9.82652143938237"><ele>959.0</ele><time>2026-04-19T15:35:31.861Z</time></trkpt><trkpt lat="44.34187407585493" lon="9.826630241390493"><ele>959.0000000000001</ele><time>2026-04-19T15:35:32.861Z</time></trkpt><trkpt lat="44.34193588165122" lon="9.826751108302552"><ele>959.0000000000001</ele><time>2026-04-19T15:35:33.861Z</time></trkpt><trkpt lat="44.34200567972399" lon="9.8268703646969"><ele>959.0</ele><time>2026-04-19T15:35:34.861Z</time></trkpt><trkpt lat="44.34206676614954" lon="9.826995892143307"><ele>959.0</ele><time>2026-04-19T15:35:35.861Z</time></trkpt><trkpt lat="44.342112021000084" lon="9.827120654982016"><ele>957.6666666666667</ele><time>2026-04-19T15:35:36.861Z</time></trkpt><trkpt lat="44.34213520953158" lon="9.82723928488383"><ele>956.3333333333334</ele><time>2026-04-19T15:35:37.861Z</time></trkpt><trkpt lat="44.3421495743109" lon="9.827357757402751"><ele>955.0</ele><time>2026-04-19T15:35:38.861Z</time></trkpt><trkpt lat="44.34213878605118" lon="9.82747650719951"><ele>953.6666666666667</ele><time>2026-04-19T15:35:39.861Z</time></trkpt><trkpt lat="44.34212219116544" lon="9.827563965595282"><ele>952.3333333333334</ele><time>2026-04-19T15:35:40.861Z</time></trkpt><trkpt lat="44.34208775304783" lon="9.827652207728415"><ele>951.0</ele><time>2026-04-19T15:35:41.861Z</time></trkpt><trkpt lat="44.342036130795464" lon="9.827728280313435"><ele>945.5999999999999</ele><time>2026-04-19T15:35:42.861Z</time></trkpt><trkpt lat="44.341967430296144" lon="9.827783974256567"><ele>940.1999999999999</ele><time>2026-04-19T15:35:43.861Z</time></trkpt><trkpt lat="44.34189269376173" lon="9.827832228530733"><ele>934.8000000000001</ele><time>2026-04-19T15:35:44.861Z</time></trkpt><trkpt lat="44.34179248834862" lon="9.827855710806425"><ele>929.4000000000001</ele><time>2026-04-19T15:35:45.861Z</time></trkpt><trkpt lat="44.34168367932007" lon="9.827874269046887"><ele>924.0</ele><time>2026-04-19T15:35:46.861Z</time></trkpt><trkpt lat="44.34156728077447" lon="9.827877854763294"><ele>924.0</ele><time>2026-04-19T15:35:47.861Z</time></trkpt><trkpt lat="44.341452231783826" lon="9.827875164738346"><ele>924.0000000000001</ele><time>2026-04-19T15:35:48.861Z</time></trkpt><trkpt lat="44.34132961325422" lon="9.827876732846986"><ele>924.0000000000001</ele><time>2026-04-19T15:35:49.861Z</time></trkpt><trkpt lat="44.341223035975275" lon="9.827864426691846"><ele>924.0</ele><time>2026-04-19T15:35:50.861Z</time></trkpt><trkpt lat="44.34112723868548" lon="9.827843915596786"><ele>924.0</ele><time>2026-04-19T15:35:51.861Z</time></trkpt><trkpt lat="44.341021624781874" lon="9.827817357385307"><ele>927.0</ele><time>2026-04-19T15:35:52.861Z</time></trkpt><trkpt lat="44.34091316804035" lon="9.827774118512984"><ele>930.0000000000001</ele><time>2026-04-19T15:35:53.861Z</time></trkpt><trkpt lat="44.34080702106664" lon="9.827717533320497"><ele>933.0000000000001</ele><time>2026-04-19T15:35:54.861Z</time></trkpt><trkpt lat="44.34071305121031" lon="9.827662107384786"><ele>936.0</ele><time>2026-04-19T15:35:55.861Z</time></trkpt><trkpt lat="44.340630212562914" lon="9.827588300342274"><ele>939.0</ele><time>2026-04-19T15:35:56.861Z</time></trkpt><trkpt lat="44.34055623842975" lon="9.827517124359424"><ele>933.6666666666666</ele><time>2026-04-19T15:35:57.861Z</time></trkpt><trkpt lat="44.34049628989843" lon="9.827424761440264"><ele>928.3333333333333</ele><time>2026-04-19T15:35:58.861Z</time></trkpt><trkpt lat="44.34044650499834" lon="9.827339618067093"><ele>923.0</ele><time>2026-04-19T15:35:59.861Z</time></trkpt><trkpt lat="44.340417454785545" lon="9.82725273531734"><ele>917.6666666666666</ele><time>2026-04-19T15:36:00.861Z</time></trkpt><trkpt lat="44.34040179610796" lon="9.827160265137923"><ele>912.3333333333333</ele><time>2026-04-19T15:36:01.861Z</time></trkpt><trkpt lat="44.34040343239867" lon="9.827035716319978"><ele>907.0</ele><time>2026-04-19T15:36:02.861Z</time></trkpt><trkpt lat="44.34042054032866" lon="9.826912840747717"><ele>909.1666666666666</ele><time>2026-04-19T15:36:03.861Z</time></trkpt><trkpt lat="44.34044206778888" lon="9.82679061500992"><ele>911.3333333333333</ele><time>2026-04-19T15:36:04.861Z</time></trkpt><trkpt lat="44.34044364962757" lon="9.826684454942361"><ele>913.5</ele><time>2026-04-19T15:36:05.861Z</time></trkpt><trkpt lat="44.34042668009092" lon="9.826596862200512"><ele>915.6666666666667</ele><time>2026-04-19T15:36:06.861Z</time></trkpt><trkpt lat="44.340374766543135" lon="9.826513347854833"><ele>917.8333333333334</ele><time>2026-04-19T15:36:07.861Z</time></trkpt><trkpt lat="44.340308789311315" lon="9.826469642614907"><ele>920.0</ele><time>2026-04-19T15:36:08.861Z</time></trkpt><trkpt lat="44.34022690087721" lon="9.82643739040819"><ele>920.0000000000001</ele><time>2026-04-19T15:36:09.861Z</time></trkpt><trkpt lat="44.340143866078655" lon="9.826396012481482"><ele>920.0</ele><time>2026-04-19T15:36:10.861Z</time></trkpt><trkpt lat="44.34006806314516" lon="9.82636131105208"><ele>920.0</ele><time>2026-04-19T15:36:11.861Z</time></trkpt><trkpt lat="44.34000362049195" lon="9.826330492830392"><ele>920.0</ele><time>2026-04-19T15:36:12.861Z</time></trkpt><trkpt lat="44.33994532111719" lon="9.826296017637231"><ele>920.0000000000001</ele><time>2026-04-19T15:36:13.861Z</time></trkpt><trkpt lat="44.33986361159711" lon="9.826152190520407"><ele>920.0</ele><time>2026-04-19T15:36:15.861Z</time></trkpt><trkpt lat="44.33982733661643" lon="9.826040777152304"><ele>922.5000000000001</ele><time>2026-04-19T15:36:16.861Z</time></trkpt><trkpt lat="44.3397828820805" lon="9.82592324533043"><ele>925.0</ele><time>2026-04-19T15:36:17.861Z</time></trkpt><trkpt lat="44.3397417588649" lon="9.825811885171765"><ele>927.5</ele><time>2026-04-19T15:36:18.861Z</time></trkpt><trkpt lat="44.339706249768874" lon="9.825704965520268"><ele>930.0</ele><time>2026-04-19T15:36:19.861Z</time></trkpt><trkpt lat="44.33968200120239" lon="9.825611169956792"><ele>932.5000000000001</ele><time>2026-04-19T15:36:20.861Z</time></trkpt><trkpt lat="44.33967482436334" lon="9.825507359689192"><ele>935.0</ele><time>2026-04-19T15:36:21.861Z</time></trkpt><trkpt lat="44.33963687402788" lon="9.825363739152884"><ele>929.5000000000001</ele><time>2026-04-19T15:36:23.861Z</time></trkpt><trkpt lat="44.339541021908396" lon="9.82538015711453"><ele>924.0</ele><time>2026-04-19T15:36:25.861Z</time></trkpt><trkpt lat="44.33948438819164" lon="9.825443079445632"><ele>918.5</ele><time>2026-04-19T15:36:26.861Z</time></trkpt><trkpt lat="44.33950769746293" lon="9.82557546550368"><ele>913.0</ele><time>2026-04-19T15:36:28.861Z</time></trkpt><trkpt lat="44.33954151615197" lon="9.82566784966231"><ele>907.5000000000001</ele><time>2026-04-19T15:36:29.861Z</time></trkpt><trkpt lat="44.339585121473206" lon="9.825769870360876"><ele>902.0</ele><time>2026-04-19T15:36:30.861Z</time></trkpt><trkpt lat="44.33963191849961" lon="9.825868754803972"><ele>902.0000000000001</ele><time>2026-04-19T15:36:31.861Z</time></trkpt><trkpt lat="44.33966268706178" lon="9.825971495496772"><ele>902.0</ele><time>2026-04-19T15:36:32.861Z</time></trkpt><trkpt lat="44.33968938849273" lon="9.826078521091993"><ele>902.0</ele><time>2026-04-19T15:36:33.861Z</time></trkpt><trkpt lat="44.3397137307783" lon="9.826176665086434"><ele>902.0</ele><time>2026-04-19T15:36:34.862Z</time></trkpt><trkpt lat="44.339736963090715" lon="9.826278085446578"><ele>902.0000000000001</ele><time>2026-04-19T15:36:35.862Z</time></trkpt><trkpt lat="44.33976121242486" lon="9.826382661382825"><ele>902.0</ele><time>2026-04-19T15:36:36.862Z</time></trkpt><trkpt lat="44.33979262086889" lon="9.826470545282882"><ele>902.8333333333334</ele><time>2026-04-19T15:36:37.862Z</time></trkpt><trkpt lat="44.339834525090076" lon="9.82654398777206"><ele>903.6666666666667</ele><time>2026-04-19T15:36:38.862Z</time></trkpt><trkpt lat="44.33994518099355" lon="9.826631770038352"><ele>904.5</ele><time>2026-04-19T15:36:40.862Z</time></trkpt><trkpt lat="44.339998966419266" lon="9.82668683226895"><ele>905.3333333333333</ele><time>2026-04-19T15:36:41.862Z</time></trkpt><trkpt lat="44.34003588097724" lon="9.826774158920166"><ele>906.1666666666666</ele><time>2026-04-19T15:36:42.862Z</time></trkpt><trkpt lat="44.340025897689486" lon="9.826874838689193"><ele>907.0</ele><time>2026-04-19T15:36:43.862Z</time></trkpt><trkpt lat="44.340000071642834" lon="9.826965835707272"><ele>907.0000000000001</ele><time>2026-04-19T15:36:44.862Z</time></trkpt><trkpt lat="44.3399621719278" lon="9.827048288999155"><ele>907.0</ele><time>2026-04-19T15:36:45.862Z</time></trkpt><trkpt lat="44.339918005595834" lon="9.827129656313492"><ele>907.0000000000001</ele><time>2026-04-19T15:36:46.862Z</time></trkpt><trkpt lat="44.33988780682816" lon="9.827218756327357"><ele>907.0000000000001</ele><time>2026-04-19T15:36:47.862Z</time></trkpt><trkpt lat="44.33987464156963" lon="9.827310074700888"><ele>907.0</ele><time>2026-04-19T15:36:48.862Z</time></trkpt><trkpt lat="44.339869614358236" lon="9.827399399899896"><ele>907.0000000000001</ele><time>2026-04-19T15:36:49.862Z</time></trkpt><trkpt lat="44.33987208225161" lon="9.827491603634876"><ele>907.0000000000001</ele><time>2026-04-19T15:36:50.862Z</time></trkpt><trkpt lat="44.33988642313603" lon="9.827578970377749"><ele>902.4999999999999</ele><time>2026-04-19T15:36:51.862Z</time></trkpt><trkpt lat="44.33995021322328" lon="9.827726218418402"><ele>898.0</ele><time>2026-04-19T15:36:53.862Z</time></trkpt><trkpt lat="44.33999718795511" lon="9.827789413285345"><ele>893.5</ele><time>2026-04-19T15:36:54.862Z</time></trkpt><trkpt lat="44.340050132460554" lon="9.827840360237683"><ele>889.0</ele><time>2026-04-19T15:36:55.862Z</time></trkpt><trkpt lat="44.34010361810022" lon="9.827896187791758"><ele>884.4999999999999</ele><time>2026-04-19T15:36:56.862Z</time></trkpt><trkpt lat="44.340205665994226" lon="9.827973570561882"><ele>880.0</ele><time>2026-04-19T15:36:58.862Z</time></trkpt><trkpt lat="44.34031214747491" lon="9.828045858946556"><ele>880.0</ele><time>2026-04-19T15:37:00.862Z</time></trkpt><trkpt lat="44.34040816677384" lon="9.828104717503242"><ele>880.0</ele><time>2026-04-19T15:37:02.862Z</time></trkpt><trkpt lat="44.34051049942065" lon="9.828175376892068"><ele>880.0</ele><time>2026-04-19T15:37:04.862Z</time></trkpt><trkpt lat="44.340618361999546" lon="9.828282801009992"><ele>880.0</ele><time>2026-04-19T15:37:06.859Z</time></trkpt><trkpt lat="44.34068959867274" lon="9.828337214081115"><ele>880.0</ele><time>2026-04-19T15:37:07.859Z</time></trkpt><trkpt lat="44.340739782450974" lon="9.828401284306164"><ele>879.1666666666666</ele><time>2026-04-19T15:37:08.859Z</time></trkpt><trkpt lat="44.34084461916053" lon="9.82848970702904"><ele>878.3333333333333</ele><time>2026-04-19T15:37:10.859Z</time></trkpt><trkpt lat="44.34090321899912" lon="9.82853320363199"><ele>877.5</ele><time>2026-04-19T15:37:11.859Z</time></trkpt><trkpt lat="44.34096852395841" lon="9.828601904749558"><ele>876.6666666666667</ele><time>2026-04-19T15:37:12.86Z</time></trkpt><trkpt lat="44.34104201602099" lon="9.828668660475248"><ele>875.8333333333334</ele><time>2026-04-19T15:37:13.86Z</time></trkpt><trkpt lat="44.34111641225238" lon="9.828729863351356"><ele>875.0</ele><time>2026-04-19T15:37:14.86Z</time></trkpt><trkpt lat="44.341184023459654" lon="9.828803499747103"><ele>875.0</ele><time>2026-04-19T15:37:15.859Z</time></trkpt><trkpt lat="44.34123909528454" lon="9.828870637219444"><ele>875.0</ele><time>2026-04-19T15:37:16.859Z</time></trkpt><trkpt lat="44.34129780735244" lon="9.82894263253758"><ele>875.0</ele><time>2026-04-19T15:37:17.859Z</time></trkpt><trkpt lat="44.341347315561364" lon="9.829020905858673"><ele>875.0</ele><time>2026-04-19T15:37:18.86Z</time></trkpt><trkpt lat="44.34139008148103" lon="9.829102027489432"><ele>875.0</ele><time>2026-04-19T15:37:19.86Z</time></trkpt><trkpt lat="44.34142133998229" lon="9.829179713707237"><ele>875.0</ele><time>2026-04-19T15:37:20.86Z</time></trkpt><trkpt lat="44.34144517722522" lon="9.829264077128224"><ele>875.0</ele><time>2026-04-19T15:37:21.86Z</time></trkpt><trkpt lat="44.3414402083606" lon="9.829443612680292"><ele>874.6666666666667</ele><time>2026-04-19T15:37:23.86Z</time></trkpt><trkpt lat="44.341417272101694" lon="9.829545188617805"><ele>874.3333333333334</ele><time>2026-04-19T15:37:24.86Z</time></trkpt><trkpt lat="44.341373533136355" lon="9.829628430326737"><ele>874.0</ele><time>2026-04-19T15:37:25.86Z</time></trkpt><trkpt lat="44.34132199678893" lon="9.829699142015075"><ele>873.6666666666667</ele><time>2026-04-19T15:37:26.86Z</time></trkpt><trkpt lat="44.34125445647887" lon="9.829772891702515"><ele>873.3333333333334</ele><time>2026-04-19T15:37:27.86Z</time></trkpt><trkpt lat="44.341196348217316" lon="9.829839790398427"><ele>873.0</ele><time>2026-04-19T15:37:28.86Z</time></trkpt><trkpt lat="44.341142846964075" lon="9.829903069440146"><ele>873.0</ele><time>2026-04-19T15:37:29.86Z</time></trkpt><trkpt lat="44.341089911042054" lon="9.82997865116812"><ele>873.0</ele><time>2026-04-19T15:37:30.86Z</time></trkpt><trkpt lat="44.341038750537635" lon="9.830061761637184"><ele>873.0</ele><time>2026-04-19T15:37:31.86Z</time></trkpt><trkpt lat="44.34100002520114" lon="9.830151395797197"><ele>873.0</ele><time>2026-04-19T15:37:32.86Z</time></trkpt><trkpt lat="44.34095726717192" lon="9.83026343734636"><ele>873.0</ele><time>2026-04-19T15:37:33.86Z</time></trkpt><trkpt lat="44.3409161382738" lon="9.830376963222987"><ele>873.0</ele><time>2026-04-19T15:37:34.86Z</time></trkpt><trkpt lat="44.340870174521314" lon="9.830481090820872"><ele>875.0</ele><time>2026-04-19T15:37:35.86Z</time></trkpt><trkpt lat="44.34081555074597" lon="9.830574876881132"><ele>877.0</ele><time>2026-04-19T15:37:36.86Z</time></trkpt><trkpt lat="44.34077235694104" lon="9.830668649088581"><ele>879.0</ele><time>2026-04-19T15:37:37.86Z</time></trkpt><trkpt lat="44.34072589719387" lon="9.830759289084464"><ele>881.0</ele><time>2026-04-19T15:37:38.86Z</time></trkpt><trkpt lat="44.340670386362355" lon="9.830838858771667"><ele>883.0</ele><time>2026-04-19T15:37:39.86Z</time></trkpt><trkpt lat="44.34062103660213" lon="9.830930616151814"><ele>885.0</ele><time>2026-04-19T15:37:40.86Z</time></trkpt><trkpt lat="44.34057262836483" lon="9.831024385856994"><ele>882.0</ele><time>2026-04-19T15:37:41.86Z</time></trkpt><trkpt lat="44.34053441847176" lon="9.831121023786233"><ele>879.0</ele><time>2026-04-19T15:37:42.86Z</time></trkpt><trkpt lat="44.34050451189382" lon="9.831225090890323"><ele>876.0</ele><time>2026-04-19T15:37:43.86Z</time></trkpt><trkpt lat="44.34048748329273" lon="9.831334620548315"><ele>873.0</ele><time>2026-04-19T15:37:44.86Z</time></trkpt><trkpt lat="44.34046451267212" lon="9.831445558413202"><ele>870.0</ele><time>2026-04-19T15:37:45.86Z</time></trkpt><trkpt lat="44.340459289939695" lon="9.831573193095434"><ele>867.0</ele><time>2026-04-19T15:37:46.86Z</time></trkpt><trkpt lat="44.34044244098352" lon="9.831704662334717"><ele>867.8</ele><time>2026-04-19T15:37:47.86Z</time></trkpt><trkpt lat="44.34043008532896" lon="9.831832773969902"><ele>868.6</ele><time>2026-04-19T15:37:48.86Z</time></trkpt><trkpt lat="44.340401108222494" lon="9.831955690056018"><ele>869.3999999999999</ele><time>2026-04-19T15:37:49.86Z</time></trkpt><trkpt lat="44.340358736138654" lon="9.832082223742711"><ele>870.1999999999999</ele><time>2026-04-19T15:37:50.86Z</time></trkpt><trkpt lat="44.340310725170994" lon="9.832200897011095"><ele>871.0</ele><time>2026-04-19T15:37:51.86Z</time></trkpt><trkpt lat="44.340260206456385" lon="9.83228739659853"><ele>870.9999999999999</ele><time>2026-04-19T15:37:52.86Z</time></trkpt><trkpt lat="44.34020123341946" lon="9.832365513631686"><ele>871.0</ele><time>2026-04-19T15:37:53.86Z</time></trkpt><trkpt lat="44.340144418385144" lon="9.832431854768332"><ele>871.0</ele><time>2026-04-19T15:37:54.86Z</time></trkpt><trkpt lat="44.34009125473177" lon="9.832494419830093"><ele>871.0</ele><time>2026-04-19T15:37:55.86Z</time></trkpt><trkpt lat="44.3400472265969" lon="9.832569746013727"><ele>870.9999999999999</ele><time>2026-04-19T15:37:56.86Z</time></trkpt><trkpt lat="44.34000733497893" lon="9.832666502469827"><ele>871.0</ele><time>2026-04-19T15:37:57.86Z</time></trkpt><trkpt lat="44.339972020767924" lon="9.832793079956398"><ele>870.9999999999999</ele><time>2026-04-19T15:37:58.86Z</time></trkpt><trkpt lat="44.339945102938195" lon="9.832933835278059"><ele>871.0</ele><time>2026-04-19T15:37:59.86Z</time></trkpt><trkpt lat="44.33992326861998" lon="9.83306472363499"><ele>871.0</ele><time>2026-04-19T15:38:00.86Z</time></trkpt><trkpt lat="44.339899983429355" lon="9.833174721058178"><ele>871.0</ele><time>2026-04-19T15:38:01.86Z</time></trkpt><trkpt lat="44.33986917104874" lon="9.833284447676093"><ele>870.9999999999999</ele><time>2026-04-19T15:38:02.86Z</time></trkpt><trkpt lat="44.33984443180465" lon="9.833383192312471"><ele>871.0</ele><time>2026-04-19T15:38:03.86Z</time></trkpt><trkpt lat="44.33981876812287" lon="9.833474603383467"><ele>870.9999999999999</ele><time>2026-04-19T15:38:04.86Z</time></trkpt><trkpt lat="44.339786050275634" lon="9.83361161790914"><ele>871.0</ele><time>2026-04-19T15:38:06.86Z</time></trkpt><trkpt lat="44.339776458561026" lon="9.833723646836308"><ele>871.0</ele><time>2026-04-19T15:38:09.86Z</time></trkpt><trkpt lat="44.33980559082678" lon="9.833829435471875"><ele>871.0</ele><time>2026-04-19T15:38:11.86Z</time></trkpt><trkpt lat="44.339852770144695" lon="9.833888472168692"><ele>870.9999999999999</ele><time>2026-04-19T15:38:12.86Z</time></trkpt><trkpt lat="44.339916998605894" lon="9.833928924813275"><ele>871.0</ele><time>2026-04-19T15:38:13.86Z</time></trkpt><trkpt lat="44.33999076520699" lon="9.833963875551229"><ele>871.0</ele><time>2026-04-19T15:38:14.86Z</time></trkpt><trkpt lat="44.340062803691154" lon="9.834009467192653"><ele>871.0</ele><time>2026-04-19T15:38:15.86Z</time></trkpt><trkpt lat="44.340128277750296" lon="9.834072306490102"><ele>871.0</ele><time>2026-04-19T15:38:16.86Z</time></trkpt><trkpt lat="44.34018774891954" lon="9.834135440184692"><ele>871.0</ele><time>2026-04-19T15:38:17.86Z</time></trkpt><trkpt lat="44.34024471921251" lon="9.83419416425498"><ele>871.0</ele><time>2026-04-19T15:38:18.86Z</time></trkpt><trkpt lat="44.34029325766103" lon="9.834260662423596"><ele>871.0</ele><time>2026-04-19T15:38:19.86Z</time></trkpt><trkpt lat="44.34031977946352" lon="9.83434252184315"><ele>871.0</ele><time>2026-04-19T15:38:20.86Z</time></trkpt><trkpt lat="44.34031308886643" lon="9.83452762012242"><ele>868.4999999999999</ele><time>2026-04-19T15:38:22.86Z</time></trkpt><trkpt lat="44.34027310861829" lon="9.834616773987838"><ele>866.0</ele><time>2026-04-19T15:38:23.86Z</time></trkpt><trkpt lat="44.34025548399136" lon="9.83470470730776"><ele>863.5</ele><time>2026-04-19T15:38:24.86Z</time></trkpt><trkpt lat="44.34028184337001" lon="9.834882985801652"><ele>861.0</ele><time>2026-04-19T15:38:26.86Z</time></trkpt><trkpt lat="44.34032512563902" lon="9.834977330512874"><ele>858.4999999999999</ele><time>2026-04-19T15:38:27.86Z</time></trkpt><trkpt lat="44.34038849553425" lon="9.835065907754748"><ele>856.0</ele><time>2026-04-19T15:38:28.86Z</time></trkpt><trkpt lat="44.34044350177653" lon="9.835164386143985"><ele>855.5999999999999</ele><time>2026-04-19T15:38:29.86Z</time></trkpt><trkpt lat="44.34049098284237" lon="9.835274292527995"><ele>855.1999999999999</ele><time>2026-04-19T15:38:30.86Z</time></trkpt><trkpt lat="44.34053180315934" lon="9.835388458881056"><ele>854.8000000000001</ele><time>2026-04-19T15:38:31.86Z</time></trkpt><trkpt lat="44.34056138534997" lon="9.835505771547904"><ele>854.4000000000001</ele><time>2026-04-19T15:38:32.86Z</time></trkpt><trkpt lat="44.34056888970912" lon="9.83563423239561"><ele>854.0</ele><time>2026-04-19T15:38:33.86Z</time></trkpt><trkpt lat="44.340543244826826" lon="9.835761183740427"><ele>854.0000000000001</ele><time>2026-04-19T15:38:34.86Z</time></trkpt><trkpt lat="44.34049936775706" lon="9.835869603046607"><ele>854.0</ele><time>2026-04-19T15:38:35.86Z</time></trkpt><trkpt lat="44.340446459881136" lon="9.835967979872702"><ele>854.0</ele><time>2026-04-19T15:38:36.86Z</time></trkpt><trkpt lat="44.34038013668813" lon="9.836056609958277"><ele>854.0</ele><time>2026-04-19T15:38:37.86Z</time></trkpt><trkpt lat="44.34031442067295" lon="9.836142230921702"><ele>854.0000000000001</ele><time>2026-04-19T15:38:38.86Z</time></trkpt><trkpt lat="44.34025679634977" lon="9.836232483605757"><ele>854.0</ele><time>2026-04-19T15:38:39.86Z</time></trkpt><trkpt lat="44.34020817676651" lon="9.836335041547397"><ele>855.2</ele><time>2026-04-19T15:38:40.86Z</time></trkpt><trkpt lat="44.3401708832252" lon="9.836440630654463"><ele>856.4000000000001</ele><time>2026-04-19T15:38:41.86Z</time></trkpt><trkpt lat="44.34014027304508" lon="9.836566037922724"><ele>857.6</ele><time>2026-04-19T15:38:42.86Z</time></trkpt><trkpt lat="44.340113615777916" lon="9.836687703401914"><ele>858.8</ele><time>2026-04-19T15:38:43.86Z</time></trkpt><trkpt lat="44.34008322105697" lon="9.836814852019431"><ele>860.0</ele><time>2026-04-19T15:38:44.86Z</time></trkpt><trkpt lat="44.34005345753249" lon="9.83693352218819"><ele>860.0000000000001</ele><time>2026-04-19T15:38:45.86Z</time></trkpt><trkpt lat="44.34002149380957" lon="9.837043815077548"><ele>860.0</ele><time>2026-04-19T15:38:46.86Z</time></trkpt><trkpt lat="44.33999326459788" lon="9.837150359772195"><ele>860.0</ele><time>2026-04-19T15:38:47.86Z</time></trkpt><trkpt lat="44.33997041025037" lon="9.837251955103433"><ele>860.0</ele><time>2026-04-19T15:38:48.86Z</time></trkpt><trkpt lat="44.33996172953582" lon="9.837366767019127"><ele>860.0000000000001</ele><time>2026-04-19T15:38:49.86Z</time></trkpt><trkpt lat="44.33996976502119" lon="9.837500079573744"><ele>860.0</ele><time>2026-04-19T15:38:50.86Z</time></trkpt><trkpt lat="44.33999690316684" lon="9.837625862749341"><ele>861.6</ele><time>2026-04-19T15:38:51.86Z</time></trkpt><trkpt lat="44.34002795757338" lon="9.837770777144511"><ele>863.2</ele><time>2026-04-19T15:38:52.86Z</time></trkpt><trkpt lat="44.340055909273715" lon="9.837913030692128"><ele>864.8</ele><time>2026-04-19T15:38:53.86Z</time></trkpt><trkpt lat="44.34007828804355" lon="9.838056779455174"><ele>866.4</ele><time>2026-04-19T15:38:54.86Z</time></trkpt><trkpt lat="44.34009836354238" lon="9.838191947933453"><ele>868.0</ele><time>2026-04-19T15:38:55.86Z</time></trkpt><trkpt lat="44.34013174070827" lon="9.838324820335856"><ele>867.9999999999999</ele><time>2026-04-19T15:38:56.86Z</time></trkpt><trkpt lat="44.34015166536179" lon="9.838458089465686"><ele>868.0</ele><time>2026-04-19T15:38:57.86Z</time></trkpt><trkpt lat="44.3401701530024" lon="9.83858216717776"><ele>868.0</ele><time>2026-04-19T15:38:58.86Z</time></trkpt><trkpt lat="44.340180343769624" lon="9.838690295809945"><ele>868.0</ele><time>2026-04-19T15:38:59.86Z</time></trkpt><trkpt lat="44.34021366310018" lon="9.838787815679746"><ele>867.9999999999999</ele><time>2026-04-19T15:39:00.86Z</time></trkpt><trkpt lat="44.340273878837266" lon="9.838878348881805"><ele>868.0</ele><time>2026-04-19T15:39:01.86Z</time></trkpt><trkpt lat="44.34035696548369" lon="9.838927840997"><ele>869.0</ele><time>2026-04-19T15:39:02.86Z</time></trkpt><trkpt lat="44.34042692724671" lon="9.838974308402019"><ele>870.0</ele><time>2026-04-19T15:39:03.86Z</time></trkpt><trkpt lat="44.34050036789134" lon="9.839051098436316"><ele>871.0</ele><time>2026-04-19T15:39:04.86Z</time></trkpt><trkpt lat="44.340565092454746" lon="9.839150055024394"><ele>872.0</ele><time>2026-04-19T15:39:05.86Z</time></trkpt><trkpt lat="44.340623170647646" lon="9.839268299502612"><ele>873.0</ele><time>2026-04-19T15:39:06.86Z</time></trkpt><trkpt lat="44.34067760133651" lon="9.839396585464378"><ele>873.0</ele><time>2026-04-19T15:39:07.86Z</time></trkpt><trkpt lat="44.34072975853447" lon="9.839531563625943"><ele>873.0</ele><time>2026-04-19T15:39:08.86Z</time></trkpt><trkpt lat="44.34076602695071" lon="9.839674343948548"><ele>873.0</ele><time>2026-04-19T15:39:09.86Z</time></trkpt><trkpt lat="44.34080598775816" lon="9.8398140105617"><ele>873.0</ele><time>2026-04-19T15:39:10.86Z</time></trkpt><trkpt lat="44.340852870384865" lon="9.83994388118017"><ele>873.0</ele><time>2026-04-19T15:39:11.858Z</time></trkpt><trkpt lat="44.34091960805993" lon="9.840064416335503"><ele>875.2</ele><time>2026-04-19T15:39:12.858Z</time></trkpt><trkpt lat="44.34097612460733" lon="9.840163883255235"><ele>877.4</ele><time>2026-04-19T15:39:13.858Z</time></trkpt><trkpt lat="44.341035744092245" lon="9.84024626730561"><ele>879.6000000000001</ele><time>2026-04-19T15:39:14.858Z</time></trkpt><trkpt lat="44.341095848647214" lon="9.840332771928647"><ele>881.8000000000001</ele><time>2026-04-19T15:39:15.858Z</time></trkpt><trkpt lat="44.3411357869839" lon="9.840448525642909"><ele>884.0</ele><time>2026-04-19T15:39:16.858Z</time></trkpt><trkpt lat="44.341169275378824" lon="9.840578146161377"><ele>884.0</ele><time>2026-04-19T15:39:17.858Z</time></trkpt><trkpt lat="44.34120096636848" lon="9.840712618086663"><ele>884.0000000000001</ele><time>2026-04-19T15:39:18.858Z</time></trkpt><trkpt lat="44.34122658875483" lon="9.840843725113459"><ele>884.0000000000001</ele><time>2026-04-19T15:39:19.858Z</time></trkpt><trkpt lat="44.341246470884165" lon="9.84095716324613"><ele>884.0</ele><time>2026-04-19T15:39:20.858Z</time></trkpt><trkpt lat="44.34128409474927" lon="9.841098721588462"><ele>884.0</ele><time>2026-04-19T15:39:21.858Z</time></trkpt><trkpt lat="44.341325046606975" lon="9.841240467608028"><ele>884.2</ele><time>2026-04-19T15:39:22.858Z</time></trkpt><trkpt lat="44.34137659889539" lon="9.841383439388256"><ele>884.4000000000001</ele><time>2026-04-19T15:39:23.858Z</time></trkpt><trkpt lat="44.34142259393072" lon="9.841520078388058"><ele>884.6</ele><time>2026-04-19T15:39:24.857Z</time></trkpt><trkpt lat="44.34146426407602" lon="9.841647082627455"><ele>884.8</ele><time>2026-04-19T15:39:25.857Z</time></trkpt><trkpt lat="44.34150909841082" lon="9.841771366576438"><ele>885.0</ele><time>2026-04-19T15:39:26.857Z</time></trkpt><trkpt lat="44.34154743236576" lon="9.841886247877595"><ele>881.1666666666666</ele><time>2026-04-19T15:39:27.857Z</time></trkpt><trkpt lat="44.341575632765256" lon="9.841987357087538"><ele>877.3333333333333</ele><time>2026-04-19T15:39:28.857Z</time></trkpt><trkpt lat="44.3415959730767" lon="9.84209250968579"><ele>873.5</ele><time>2026-04-19T15:39:29.857Z</time></trkpt><trkpt lat="44.34157273496825" lon="9.84221920208802"><ele>869.6666666666666</ele><time>2026-04-19T15:39:30.857Z</time></trkpt><trkpt lat="44.34152338819878" lon="9.842338812865457"><ele>865.8333333333333</ele><time>2026-04-19T15:39:31.857Z</time></trkpt><trkpt lat="44.34148438489305" lon="9.842456573726547"><ele>862.0</ele><time>2026-04-19T15:39:32.857Z</time></trkpt><trkpt lat="44.34145704589818" lon="9.84258207376432"><ele>861.8</ele><time>2026-04-19T15:39:33.857Z</time></trkpt><trkpt lat="44.341446698330294" lon="9.842701990956702"><ele>861.6</ele><time>2026-04-19T15:39:34.857Z</time></trkpt><trkpt lat="44.341444055202466" lon="9.842826672092896"><ele>861.3999999999999</ele><time>2026-04-19T15:39:35.857Z</time></trkpt><trkpt lat="44.34145626128828" lon="9.84296126170881"><ele>861.1999999999999</ele><time>2026-04-19T15:39:36.858Z</time></trkpt><trkpt lat="44.341458366707464" lon="9.843094984766125"><ele>861.0</ele><time>2026-04-19T15:39:37.858Z</time></trkpt><trkpt lat="44.34145891292288" lon="9.843223939169158"><ele>861.0</ele><time>2026-04-19T15:39:38.858Z</time></trkpt><trkpt lat="44.341464388898245" lon="9.843351758665865"><ele>861.0</ele><time>2026-04-19T15:39:39.858Z</time></trkpt><trkpt lat="44.34147811871553" lon="9.843487712490472"><ele>861.0</ele><time>2026-04-19T15:39:40.858Z</time></trkpt><trkpt lat="44.341481803852076" lon="9.843622006521764"><ele>861.0</ele><time>2026-04-19T15:39:41.858Z</time></trkpt><trkpt lat="44.34148618380391" lon="9.843735422340583"><ele>861.0</ele><time>2026-04-19T15:39:42.858Z</time></trkpt><trkpt lat="44.34150144099009" lon="9.843842006773604"><ele>861.0</ele><time>2026-04-19T15:39:43.858Z</time></trkpt><trkpt lat="44.341530338669926" lon="9.844021877596896"><ele>860.8571428571429</ele><time>2026-04-19T15:39:45.858Z</time></trkpt><trkpt lat="44.341547484205066" lon="9.84411347746353"><ele>860.7142857142858</ele><time>2026-04-19T15:39:46.858Z</time></trkpt><trkpt lat="44.34156481882491" lon="9.844215017965785"><ele>860.5714285714286</ele><time>2026-04-19T15:39:47.858Z</time></trkpt><trkpt lat="44.34157542781143" lon="9.844306652224532"><ele>860.4285714285714</ele><time>2026-04-19T15:39:48.858Z</time></trkpt><trkpt lat="44.341572359226184" lon="9.844398478331398"><ele>860.2857142857143</ele><time>2026-04-19T15:39:49.858Z</time></trkpt><trkpt lat="44.34153829543526" lon="9.844484272751423"><ele>860.1428571428571</ele><time>2026-04-19T15:39:50.858Z</time></trkpt><trkpt lat="44.341478159349634" lon="9.844571347967207"><ele>860.0</ele><time>2026-04-19T15:39:51.858Z</time></trkpt><trkpt lat="44.341419106296506" lon="9.844645753157891"><ele>853.6666666666667</ele><time>2026-04-19T15:39:52.858Z</time></trkpt><trkpt lat="44.341367187895536" lon="9.844718182501222"><ele>847.3333333333334</ele><time>2026-04-19T15:39:53.858Z</time></trkpt><trkpt lat="44.34131781227384" lon="9.844845144726607"><ele>841.0</ele><time>2026-04-19T15:39:55.858Z</time></trkpt><trkpt lat="44.34129496593747" lon="9.845006632792"><ele>834.6666666666667</ele><time>2026-04-19T15:39:57.858Z</time></trkpt><trkpt lat="44.34128148013212" lon="9.845120978889776"><ele>828.3333333333334</ele><time>2026-04-19T15:39:59.858Z</time></trkpt><trkpt lat="44.3412916916157" lon="9.845213667358276"><ele>822.0</ele><time>2026-04-19T15:40:02.858Z</time></trkpt><trkpt lat="44.34131934778405" lon="9.845298595530108"><ele>818.8</ele><time>2026-04-19T15:40:05.858Z</time></trkpt><trkpt lat="44.3413416507538" lon="9.845388046375247"><ele>815.6</ele><time>2026-04-19T15:40:08.858Z</time></trkpt><trkpt lat="44.34140691604738" lon="9.845449497187818"><ele>812.4</ele><time>2026-04-19T15:48:33.853Z</time></trkpt><trkpt lat="44.341474521087314" lon="9.845562383508454"><ele>809.1999999999999</ele><time>2026-04-19T15:48:36.853Z</time></trkpt><trkpt lat="44.341551990547" lon="9.845663803649456"><ele>806.0</ele><time>2026-04-19T15:48:38.853Z</time></trkpt><trkpt lat="44.34163260630724" lon="9.845755705337632"><ele>814.1999999999999</ele><time>2026-04-19T15:48:40.853Z</time></trkpt><trkpt lat="44.34171705712468" lon="9.845874255074548"><ele>822.4</ele><time>2026-04-19T15:48:42.853Z</time></trkpt><trkpt lat="44.34174513333629" lon="9.846005903430113"><ele>830.6</ele><time>2026-04-19T15:48:44.853Z</time></trkpt><trkpt lat="44.34171479109095" lon="9.846181749284192"><ele>838.8</ele><time>2026-04-19T15:48:46.853Z</time></trkpt><trkpt lat="44.341693739715396" lon="9.846295971099153"><ele>847.0</ele><time>2026-04-19T15:48:47.853Z</time></trkpt><trkpt lat="44.34166737555209" lon="9.846404225016125"><ele>847.0</ele><time>2026-04-19T15:48:48.853Z</time></trkpt><trkpt lat="44.34164231501247" lon="9.84649762283575"><ele>847.0</ele><time>2026-04-19T15:48:49.853Z</time></trkpt><trkpt lat="44.34161508768895" lon="9.846590982239816"><ele>847.0</ele><time>2026-04-19T15:48:50.853Z</time></trkpt><trkpt lat="44.34157405262306" lon="9.846683641872033"><ele>847.0</ele><time>2026-04-19T15:48:51.853Z</time></trkpt><trkpt lat="44.341534352561794" lon="9.846759813188799"><ele>847.0</ele><time>2026-04-19T15:48:52.853Z</time></trkpt><trkpt lat="44.34148453344777" lon="9.846832444553991"><ele>847.0</ele><time>2026-04-19T15:48:53.853Z</time></trkpt><trkpt lat="44.34143516804798" lon="9.846902038220827"><ele>847.0</ele><time>2026-04-19T15:48:54.853Z</time></trkpt><trkpt lat="44.34141411073891" lon="9.847002265778528"><ele>848.4999999999999</ele><time>2026-04-19T15:48:55.853Z</time></trkpt><trkpt lat="44.341390413785355" lon="9.847101279989007"><ele>850.0</ele><time>2026-04-19T15:48:56.853Z</time></trkpt><trkpt lat="44.34135328485806" lon="9.847193628462083"><ele>851.5</ele><time>2026-04-19T15:48:57.853Z</time></trkpt><trkpt lat="44.34131566003959" lon="9.847292507403935"><ele>853.0</ele><time>2026-04-19T15:48:58.853Z</time></trkpt><trkpt lat="44.34127666112172" lon="9.847396513727517"><ele>854.4999999999999</ele><time>2026-04-19T15:48:59.853Z</time></trkpt><trkpt lat="44.341235190498686" lon="9.847502020254506"><ele>856.0</ele><time>2026-04-19T15:49:00.853Z</time></trkpt><trkpt lat="44.34118010639699" lon="9.847594688087208"><ele>852.4999999999999</ele><time>2026-04-19T15:49:01.853Z</time></trkpt><trkpt lat="44.341110769556" lon="9.847680925089406"><ele>849.0</ele><time>2026-04-19T15:49:02.853Z</time></trkpt><trkpt lat="44.34104694608917" lon="9.847744858875519"><ele>845.5</ele><time>2026-04-19T15:49:03.853Z</time></trkpt><trkpt lat="44.3409973484018" lon="9.847818763094562"><ele>842.0</ele><time>2026-04-19T15:49:04.853Z</time></trkpt><trkpt lat="44.3409613131775" lon="9.847911908294256"><ele>838.4999999999999</ele><time>2026-04-19T15:49:05.853Z</time></trkpt><trkpt lat="44.34092610076256" lon="9.848021267577213"><ele>835.0</ele><time>2026-04-19T15:49:06.853Z</time></trkpt><trkpt lat="44.34090328856701" lon="9.84812809041458"><ele>834.9999999999999</ele><time>2026-04-19T15:49:07.853Z</time></trkpt><trkpt lat="44.340883136094554" lon="9.848224443333244"><ele>835.0</ele><time>2026-04-19T15:49:08.853Z</time></trkpt><trkpt lat="44.34086252204843" lon="9.848332413246636"><ele>835.0</ele><time>2026-04-19T15:49:09.853Z</time></trkpt><trkpt lat="44.34083863040124" lon="9.848436852834073"><ele>835.0</ele><time>2026-04-19T15:49:10.853Z</time></trkpt><trkpt lat="44.340810407576996" lon="9.84853359651313"><ele>834.9999999999999</ele><time>2026-04-19T15:49:11.853Z</time></trkpt><trkpt lat="44.34077601149384" lon="9.848607625166325"><ele>835.0</ele><time>2026-04-19T15:49:12.853Z</time></trkpt><trkpt lat="44.340701442388664" lon="9.848718895019672"><ele>834.8</ele><time>2026-04-19T15:49:14.853Z</time></trkpt><trkpt lat="44.34063024462757" lon="9.848825099462314"><ele>834.6</ele><time>2026-04-19T15:49:16.853Z</time></trkpt><trkpt lat="44.34058954833931" lon="9.848933554911122"><ele>834.4000000000001</ele><time>2026-04-19T15:49:18.853Z</time></trkpt><trkpt lat="44.34060272504129" lon="9.849059898782967"><ele>834.2</ele><time>2026-04-19T15:49:20.853Z</time></trkpt><trkpt lat="44.34065867312664" lon="9.849209606859318"><ele>834.0</ele><time>2026-04-19T15:49:22.853Z</time></trkpt><trkpt lat="44.34070984642175" lon="9.849334856944743"><ele>830.5</ele><time>2026-04-19T15:49:24.853Z</time></trkpt><trkpt lat="44.34076215121058" lon="9.849442222782272"><ele>827.0</ele><time>2026-04-19T15:49:26.853Z</time></trkpt><trkpt lat="44.34081332924934" lon="9.849524341392371"><ele>823.5</ele><time>2026-04-19T15:49:28.853Z</time></trkpt><trkpt lat="44.34089977435756" lon="9.849547190091815"><ele>820.0</ele><time>2026-04-19T15:49:31.853Z</time></trkpt><trkpt lat="44.34096283843534" lon="9.849546923223695"><ele>816.5</ele><time>2026-04-19T15:49:33.853Z</time></trkpt><trkpt lat="44.341040355757784" lon="9.849504728556346"><ele>813.0</ele><time>2026-04-19T15:49:35.853Z</time></trkpt><trkpt lat="44.341108431506804" lon="9.849453766771694"><ele>813.0</ele><time>2026-04-19T15:49:37.853Z</time></trkpt><trkpt lat="44.341201944584114" lon="9.849393075080426"><ele>813.0</ele><time>2026-04-19T15:49:39.853Z</time></trkpt><trkpt lat="44.341262339414726" lon="9.849354176158714"><ele>813.0</ele><time>2026-04-19T15:49:40.853Z</time></trkpt><trkpt lat="44.34136811273386" lon="9.849272111908842"><ele>813.0</ele><time>2026-04-19T15:49:42.85Z</time></trkpt><trkpt lat="44.34143383408374" lon="9.849227401174957"><ele>813.0</ele><time>2026-04-19T15:49:43.85Z</time></trkpt><trkpt lat="44.341495250924375" lon="9.849186515033356"><ele>813.0</ele><time>2026-04-19T15:49:44.849Z</time></trkpt><trkpt lat="44.34154592324788" lon="9.849129826528085"><ele>814.8333333333334</ele><time>2026-04-19T15:49:45.849Z</time></trkpt><trkpt lat="44.341594994581634" lon="9.849070283020835"><ele>816.6666666666667</ele><time>2026-04-19T15:49:46.849Z</time></trkpt><trkpt lat="44.34165310073755" lon="9.849010776636943"><ele>818.5</ele><time>2026-04-19T15:49:47.85Z</time></trkpt><trkpt lat="44.34175638797083" lon="9.848934890937121"><ele>820.3333333333334</ele><time>2026-04-19T15:49:49.849Z</time></trkpt><trkpt lat="44.3418484597383" lon="9.84889482257761"><ele>822.1666666666667</ele><time>2026-04-19T15:49:51.85Z</time></trkpt><trkpt lat="44.34192459996554" lon="9.84897250604171"><ele>824.0</ele><time>2026-04-19T15:49:53.85Z</time></trkpt><trkpt lat="44.34190973983051" lon="9.849076663486308"><ele>824.0000000000001</ele><time>2026-04-19T15:49:55.849Z</time></trkpt><trkpt lat="44.34180258967316" lon="9.849173723451475"><ele>824.0</ele><time>2026-04-19T15:49:57.849Z</time></trkpt><trkpt lat="44.341739287001005" lon="9.849232994450503"><ele>824.0</ele><time>2026-04-19T15:49:58.849Z</time></trkpt><trkpt lat="44.3416782951903" lon="9.849291094351226"><ele>824.0</ele><time>2026-04-19T15:49:59.849Z</time></trkpt><trkpt lat="44.34161490256528" lon="9.849347249462884"><ele>824.0000000000001</ele><time>2026-04-19T15:50:00.849Z</time></trkpt><trkpt lat="44.34154360983327" lon="9.849411019715939"><ele>824.0</ele><time>2026-04-19T15:50:01.849Z</time></trkpt><trkpt lat="44.341488961669256" lon="9.849463240449074"><ele>821.8000000000001</ele><time>2026-04-19T15:50:02.849Z</time></trkpt><trkpt lat="44.34140423981627" lon="9.849619656615634"><ele>819.6</ele><time>2026-04-19T15:50:04.849Z</time></trkpt><trkpt lat="44.341372623542" lon="9.849727226177704"><ele>817.4</ele><time>2026-04-19T15:50:05.849Z</time></trkpt><trkpt lat="44.34134108968968" lon="9.849851389979785"><ele>815.2</ele><time>2026-04-19T15:50:06.849Z</time></trkpt><trkpt lat="44.34130275266979" lon="9.849967374339657"><ele>813.0</ele><time>2026-04-19T15:50:07.849Z</time></trkpt><trkpt lat="44.34127829978239" lon="9.850094236573396"><ele>809.1666666666666</ele><time>2026-04-19T15:50:08.849Z</time></trkpt><trkpt lat="44.34125227794871" lon="9.850203072177274"><ele>805.3333333333333</ele><time>2026-04-19T15:50:09.849Z</time></trkpt><trkpt lat="44.341229064028184" lon="9.85031042566173"><ele>801.5</ele><time>2026-04-19T15:50:10.849Z</time></trkpt><trkpt lat="44.341169000809124" lon="9.850382330428783"><ele>797.6666666666666</ele><time>2026-04-19T15:50:11.849Z</time></trkpt><trkpt lat="44.341105013049386" lon="9.850464272920071"><ele>793.8333333333333</ele><time>2026-04-19T15:50:12.849Z</time></trkpt><trkpt lat="44.34102390178103" lon="9.85052111091357"><ele>790.0</ele><time>2026-04-19T15:50:13.849Z</time></trkpt><trkpt lat="44.34095271048009" lon="9.85056978171223"><ele>789.9999999999999</ele><time>2026-04-19T15:50:14.849Z</time></trkpt><trkpt lat="44.340862047199174" lon="9.85064108079131"><ele>790.0</ele><time>2026-04-19T15:50:15.849Z</time></trkpt><trkpt lat="44.34078127907688" lon="9.850714849424167"><ele>790.0</ele><time>2026-04-19T15:50:16.849Z</time></trkpt><trkpt lat="44.340708005911544" lon="9.850786384650869"><ele>790.0</ele><time>2026-04-19T15:50:17.849Z</time></trkpt><trkpt lat="44.340640889626776" lon="9.850854142561296"><ele>789.9999999999999</ele><time>2026-04-19T15:50:18.849Z</time></trkpt><trkpt lat="44.34058161136005" lon="9.850901712931362"><ele>790.0</ele><time>2026-04-19T15:50:19.849Z</time></trkpt><trkpt lat="44.340517657181614" lon="9.850942519755508"><ele>788.1666666666666</ele><time>2026-04-19T15:50:20.849Z</time></trkpt><trkpt lat="44.34044947590299" lon="9.850984222393627"><ele>786.3333333333333</ele><time>2026-04-19T15:50:21.849Z</time></trkpt><trkpt lat="44.34037097704823" lon="9.850992974705369"><ele>784.5</ele><time>2026-04-19T15:50:22.849Z</time></trkpt><trkpt lat="44.34028333032071" lon="9.850986011185967"><ele>782.6666666666667</ele><time>2026-04-19T15:50:23.849Z</time></trkpt><trkpt lat="44.34020414436813" lon="9.850968164308792"><ele>780.8333333333334</ele><time>2026-04-19T15:50:24.849Z</time></trkpt><trkpt lat="44.34014590186221" lon="9.850917018193677"><ele>779.0</ele><time>2026-04-19T15:50:25.849Z</time></trkpt><trkpt lat="44.34009456666506" lon="9.850856047970035"><ele>779.0</ele><time>2026-04-19T15:50:26.849Z</time></trkpt><trkpt lat="44.34000836555234" lon="9.850756975691773"><ele>779.0</ele><time>2026-04-19T15:50:28.849Z</time></trkpt><trkpt lat="44.33993250490114" lon="9.850775178617264"><ele>779.0</ele><time>2026-04-19T15:50:30.849Z</time></trkpt><trkpt lat="44.33992088973953" lon="9.850885766437138"><ele>779.0</ele><time>2026-04-19T15:50:32.849Z</time></trkpt><trkpt lat="44.33997705442953" lon="9.851054399650998"><ele>779.0</ele><time>2026-04-19T15:50:34.849Z</time></trkpt><trkpt lat="44.34002758261263" lon="9.851110912242133"><ele>774.6666666666667</ele><time>2026-04-19T15:50:35.849Z</time></trkpt><trkpt lat="44.340075670951194" lon="9.851179839227113"><ele>770.3333333333334</ele><time>2026-04-19T15:50:36.849Z</time></trkpt><trkpt lat="44.340130371158786" lon="9.851239715692312"><ele>766.0</ele><time>2026-04-19T15:50:37.849Z</time></trkpt><trkpt lat="44.340195384101655" lon="9.85127830674267"><ele>761.6666666666667</ele><time>2026-04-19T15:50:38.849Z</time></trkpt><trkpt lat="44.34031998959622" lon="9.851334860040184"><ele>757.3333333333334</ele><time>2026-04-19T15:50:40.849Z</time></trkpt><trkpt lat="44.340425782483095" lon="9.851365992807334"><ele>753.0</ele><time>2026-04-19T15:50:42.849Z</time></trkpt><trkpt lat="44.340507166417645" lon="9.851377118426326"><ele>754.2857142857143</ele><time>2026-04-19T15:50:43.849Z</time></trkpt><trkpt lat="44.340577132425956" lon="9.851380357703619"><ele>755.5714285714287</ele><time>2026-04-19T15:50:44.849Z</time></trkpt><trkpt lat="44.340648207051636" lon="9.851347203313429"><ele>756.8571428571429</ele><time>2026-04-19T15:50:45.849Z</time></trkpt><trkpt lat="44.34071958291903" lon="9.85131468522424"><ele>758.1428571428571</ele><time>2026-04-19T15:50:46.849Z</time></trkpt><trkpt lat="44.34077978305465" lon="9.851281917235257"><ele>759.4285714285714</ele><time>2026-04-19T15:50:47.849Z</time></trkpt><trkpt lat="44.340849816254156" lon="9.851245429093625"><ele>760.7142857142857</ele><time>2026-04-19T15:50:48.849Z</time></trkpt><trkpt lat="44.34091448678236" lon="9.851209516748996"><ele>762.0</ele><time>2026-04-19T15:50:49.849Z</time></trkpt><trkpt lat="44.34098799628159" lon="9.851186601027557"><ele>762.0</ele><time>2026-04-19T15:50:50.849Z</time></trkpt><trkpt lat="44.341068879920485" lon="9.851173984761159"><ele>762.0</ele><time>2026-04-19T15:50:51.849Z</time></trkpt><trkpt lat="44.34117810036008" lon="9.851148541192257"><ele>762.0</ele><time>2026-04-19T15:50:52.849Z</time></trkpt><trkpt lat="44.34127658396372" lon="9.851124771903391"><ele>762.0</ele><time>2026-04-19T15:50:53.849Z</time></trkpt><trkpt lat="44.34135484107166" lon="9.851119531429307"><ele>762.0</ele><time>2026-04-19T15:50:54.849Z</time></trkpt><trkpt lat="44.3414386786151" lon="9.85111544907067"><ele>763.8333333333334</ele><time>2026-04-19T15:50:55.849Z</time></trkpt><trkpt lat="44.341528475960196" lon="9.851088451368103"><ele>765.6666666666667</ele><time>2026-04-19T15:50:56.849Z</time></trkpt><trkpt lat="44.341613059476124" lon="9.851058371744529"><ele>767.5</ele><time>2026-04-19T15:50:57.849Z</time></trkpt><trkpt lat="44.34168630157647" lon="9.851006993622242"><ele>769.3333333333334</ele><time>2026-04-19T15:50:58.849Z</time></trkpt><trkpt lat="44.341750048259165" lon="9.850915494552046"><ele>771.1666666666667</ele><time>2026-04-19T15:50:59.849Z</time></trkpt><trkpt lat="44.3417937092139" lon="9.850825309898278"><ele>773.0</ele><time>2026-04-19T15:51:00.849Z</time></trkpt><trkpt lat="44.341837550534244" lon="9.850704561527277"><ele>773.0000000000001</ele><time>2026-04-19T15:51:01.849Z</time></trkpt><trkpt lat="44.34186031657214" lon="9.850588763319386"><ele>773.0</ele><time>2026-04-19T15:51:02.849Z</time></trkpt><trkpt lat="44.341896596435795" lon="9.85049336714392"><ele>773.0</ele><time>2026-04-19T15:51:03.849Z</time></trkpt><trkpt lat="44.3419203210355" lon="9.850405332294113"><ele>773.0</ele><time>2026-04-19T15:51:04.849Z</time></trkpt><trkpt lat="44.341963401739235" lon="9.850326832526571"><ele>773.0000000000001</ele><time>2026-04-19T15:51:06.849Z</time></trkpt><trkpt lat="44.34204753307063" lon="9.850355297951062"><ele>773.0</ele><time>2026-04-19T15:51:09.849Z</time></trkpt><trkpt lat="44.34207800198993" lon="9.850433954368167"><ele>773.0000000000001</ele><time>2026-04-19T15:51:10.849Z</time></trkpt><trkpt lat="44.342048384200666" lon="9.850570072353142"><ele>773.0</ele><time>2026-04-19T15:51:12.849Z</time></trkpt><trkpt lat="44.34203256724154" lon="9.850700412084551"><ele>773.0</ele><time>2026-04-19T15:51:13.849Z</time></trkpt><trkpt lat="44.34203597495242" lon="9.850810041040571"><ele>773.0</ele><time>2026-04-19T15:51:14.849Z</time></trkpt><trkpt lat="44.3420269101935" lon="9.850911881389425"><ele>773.0000000000001</ele><time>2026-04-19T15:51:15.849Z</time></trkpt><trkpt lat="44.34200232220275" lon="9.851003101277199"><ele>773.0</ele><time>2026-04-19T15:51:16.849Z</time></trkpt><trkpt lat="44.341934341359895" lon="9.851110664802494"><ele>768.3333333333334</ele><time>2026-04-19T15:51:18.849Z</time></trkpt><trkpt lat="44.34183583119747" lon="9.851125292876741"><ele>763.6666666666667</ele><time>2026-04-19T15:51:20.85Z</time></trkpt><trkpt lat="44.3417977760012" lon="9.8512183326567"><ele>759.0</ele><time>2026-04-19T15:51:23.85Z</time></trkpt><trkpt lat="44.34181891749398" lon="9.851304594934225"><ele>754.3333333333334</ele><time>2026-04-19T15:51:26.85Z</time></trkpt><trkpt lat="44.34188044572709" lon="9.85135515826648"><ele>749.6666666666667</ele><time>2026-04-19T15:51:30.85Z</time></trkpt><trkpt lat="44.34196247474747" lon="9.851368367486307"><ele>745.0</ele><time>2026-04-19T15:51:32.85Z</time></trkpt><trkpt lat="44.34202511670548" lon="9.851290074149084"><ele>745.0</ele><time>2026-04-19T15:51:34.85Z</time></trkpt><trkpt lat="44.34206250895132" lon="9.851211457011713"><ele>745.0</ele><time>2026-04-19T15:51:36.85Z</time></trkpt><trkpt lat="44.34211210780079" lon="9.851151322995882"><ele>745.0</ele><time>2026-04-19T15:51:43.85Z</time></trkpt><trkpt lat="44.34213101622526" lon="9.851052692908356"><ele>745.0</ele><time>2026-04-19T15:52:06.845Z</time></trkpt><trkpt lat="44.342167802621766" lon="9.850942478910598"><ele>745.0</ele><time>2026-04-19T15:52:09.845Z</time></trkpt><trkpt lat="44.34219937764758" lon="9.850844749249088"><ele>745.0</ele><time>2026-04-19T15:52:11.845Z</time></trkpt><trkpt lat="44.34226595915108" lon="9.850684040450812"><ele>744.5</ele><time>2026-04-19T15:52:13.845Z</time></trkpt><trkpt lat="44.342305194101684" lon="9.850600405847672"><ele>744.0</ele><time>2026-04-19T15:52:14.846Z</time></trkpt><trkpt lat="44.3423742082036" lon="9.85057008042401"><ele>743.5</ele><time>2026-04-19T15:52:15.846Z</time></trkpt><trkpt lat="44.34246735765162" lon="9.85058561064578"><ele>743.0</ele><time>2026-04-19T15:52:17.846Z</time></trkpt><trkpt lat="44.342559488915654" lon="9.850598379132856"><ele>742.5</ele><time>2026-04-19T15:52:19.846Z</time></trkpt><trkpt lat="44.342624606205135" lon="9.850578013625212"><ele>742.0</ele><time>2026-04-19T15:52:21.846Z</time></trkpt><trkpt lat="44.342687999221326" lon="9.850515204881633"><ele>742.0</ele><time>2026-04-19T15:52:23.846Z</time></trkpt><trkpt lat="44.34277668840263" lon="9.85045384841124"><ele>742.0</ele><time>2026-04-19T15:52:25.846Z</time></trkpt><trkpt lat="44.34286712520528" lon="9.85042533903519"><ele>742.0</ele><time>2026-04-19T15:52:27.846Z</time></trkpt><trkpt lat="44.34298471506981" lon="9.850471480566565"><ele>742.0</ele><time>2026-04-19T15:52:29.846Z</time></trkpt><trkpt lat="44.34304040418746" lon="9.850543749203435"><ele>742.0</ele><time>2026-04-19T15:52:30.846Z</time></trkpt><trkpt lat="44.343078934741875" lon="9.850625477339282"><ele>740.1666666666667</ele><time>2026-04-19T15:52:31.846Z</time></trkpt><trkpt lat="44.34311170033032" lon="9.850711534996995"><ele>738.3333333333334</ele><time>2026-04-19T15:52:32.846Z</time></trkpt><trkpt lat="44.34314372634518" lon="9.850793357307802"><ele>736.5</ele><time>2026-04-19T15:52:33.846Z</time></trkpt><trkpt lat="44.34318043267657" lon="9.85087325970686"><ele>734.6666666666666</ele><time>2026-04-19T15:52:34.846Z</time></trkpt><trkpt lat="44.34321664211022" lon="9.850950139381892"><ele>732.8333333333333</ele><time>2026-04-19T15:52:35.846Z</time></trkpt><trkpt lat="44.34327896527961" lon="9.851094335409863"><ele>731.0</ele><time>2026-04-19T15:52:37.846Z</time></trkpt><trkpt lat="44.34331322652301" lon="9.851179235408429"><ele>728.1999999999999</ele><time>2026-04-19T15:52:42.846Z</time></trkpt><trkpt lat="44.34334368572981" lon="9.851257579741773"><ele>725.4</ele><time>2026-04-19T15:52:45.846Z</time></trkpt><trkpt lat="44.3433873804945" lon="9.85133913526997"><ele>722.6</ele><time>2026-04-19T15:52:50.846Z</time></trkpt><trkpt lat="44.34343428877285" lon="9.85148734837209"><ele>719.8</ele><time>2026-04-19T15:52:52.846Z</time></trkpt><trkpt lat="44.343467918847175" lon="9.85163193167961"><ele>717.0</ele><time>2026-04-19T15:52:54.846Z</time></trkpt><trkpt lat="44.34350367707317" lon="9.851751618808029"><ele>717.6666666666666</ele><time>2026-04-19T15:52:56.846Z</time></trkpt><trkpt lat="44.343565522093215" lon="9.85190690635242"><ele>718.3333333333334</ele><time>2026-04-19T15:52:58.846Z</time></trkpt><trkpt lat="44.34360769305797" lon="9.851982774455031"><ele>719.0</ele><time>2026-04-19T15:52:59.846Z</time></trkpt><trkpt lat="44.343650866847646" lon="9.85205082348293"><ele>719.6666666666667</ele><time>2026-04-19T15:53:00.846Z</time></trkpt><trkpt lat="44.343692643676334" lon="9.85212274599777"><ele>720.3333333333334</ele><time>2026-04-19T15:53:01.846Z</time></trkpt><trkpt lat="44.3437335881351" lon="9.852197207617898"><ele>721.0</ele><time>2026-04-19T15:53:02.846Z</time></trkpt><trkpt lat="44.3437767038758" lon="9.852280139767066"><ele>721.0</ele><time>2026-04-19T15:53:03.846Z</time></trkpt><trkpt lat="44.343826170975355" lon="9.852373826965236"><ele>721.0</ele><time>2026-04-19T15:53:04.846Z</time></trkpt><trkpt lat="44.343872934201954" lon="9.85247378654417"><ele>721.0</ele><time>2026-04-19T15:53:05.846Z</time></trkpt><trkpt lat="44.34391553822531" lon="9.852571933064505"><ele>721.0</ele><time>2026-04-19T15:53:06.846Z</time></trkpt><trkpt lat="44.34395585910179" lon="9.852678793584763"><ele>721.0</ele><time>2026-04-19T15:53:07.846Z</time></trkpt><trkpt lat="44.34399627891167" lon="9.852785001609607"><ele>721.0</ele><time>2026-04-19T15:53:08.846Z</time></trkpt><trkpt lat="44.34403031381593" lon="9.852885400189173"><ele>719.3333333333334</ele><time>2026-04-19T15:53:09.846Z</time></trkpt><trkpt lat="44.344065438895754" lon="9.852997123037348"><ele>717.6666666666667</ele><time>2026-04-19T15:53:10.846Z</time></trkpt><trkpt lat="44.344103002042196" lon="9.853112284566548"><ele>716.0</ele><time>2026-04-19T15:53:11.846Z</time></trkpt><trkpt lat="44.344130547268264" lon="9.853227320354682"><ele>714.3333333333334</ele><time>2026-04-19T15:53:12.846Z</time></trkpt><trkpt lat="44.34415668885795" lon="9.853343226654365"><ele>712.6666666666666</ele><time>2026-04-19T15:53:13.846Z</time></trkpt><trkpt lat="44.34418244557163" lon="9.853453716916444"><ele>711.0</ele><time>2026-04-19T15:53:14.846Z</time></trkpt><trkpt lat="44.344204813307776" lon="9.85356082500694"><ele>710.5</ele><time>2026-04-19T15:53:15.846Z</time></trkpt><trkpt lat="44.34422407565934" lon="9.853668227772094"><ele>710.0</ele><time>2026-04-19T15:53:16.846Z</time></trkpt><trkpt lat="44.34424534142974" lon="9.853781638528408"><ele>709.5</ele><time>2026-04-19T15:53:17.846Z</time></trkpt><trkpt lat="44.34427024920865" lon="9.853899264553554"><ele>709.0</ele><time>2026-04-19T15:53:18.846Z</time></trkpt><trkpt lat="44.3442933040066" lon="9.854020169859153"><ele>708.5</ele><time>2026-04-19T15:53:19.846Z</time></trkpt><trkpt lat="44.34432822156252" lon="9.854135607346644"><ele>708.0</ele><time>2026-04-19T15:53:20.846Z</time></trkpt><trkpt lat="44.344348641231065" lon="9.854243353760811"><ele>706.5</ele><time>2026-04-19T15:53:21.846Z</time></trkpt><trkpt lat="44.34438056604056" lon="9.854353259684153"><ele>705.0</ele><time>2026-04-19T15:53:22.846Z</time></trkpt><trkpt lat="44.34442082953818" lon="9.854451907830246"><ele>703.5</ele><time>2026-04-19T15:53:23.846Z</time></trkpt><trkpt lat="44.3444663442018" lon="9.8545583594519"><ele>702.0</ele><time>2026-04-19T15:53:24.846Z</time></trkpt><trkpt lat="44.34450778241279" lon="9.85465916615862"><ele>700.5</ele><time>2026-04-19T15:53:25.846Z</time></trkpt><trkpt lat="44.3445400731838" lon="9.854740562295333"><ele>699.0</ele><time>2026-04-19T15:53:26.846Z</time></trkpt><trkpt lat="44.34458344671521" lon="9.854862189377894"><ele>699.0</ele><time>2026-04-19T15:53:28.846Z</time></trkpt><trkpt lat="44.34460071834054" lon="9.854952279032767"><ele>699.0</ele><time>2026-04-19T15:53:30.846Z</time></trkpt><trkpt lat="44.344636880290516" lon="9.855036796086575"><ele>699.0</ele><time>2026-04-19T15:53:34.846Z</time></trkpt><trkpt lat="44.34471235095542" lon="9.855132346378365"><ele>699.0</ele><time>2026-04-19T15:53:36.846Z</time></trkpt><trkpt lat="44.344767291933586" lon="9.855188823010556"><ele>699.0</ele><time>2026-04-19T15:53:37.846Z</time></trkpt><trkpt lat="44.34484267202155" lon="9.855242298431223"><ele>699.0</ele><time>2026-04-19T15:53:38.846Z</time></trkpt><trkpt lat="44.34491708681178" lon="9.855295377378551"><ele>695.3333333333334</ele><time>2026-04-19T15:53:39.846Z</time></trkpt><trkpt lat="44.34498793477069" lon="9.855350782714684"><ele>691.6666666666666</ele><time>2026-04-19T15:53:40.846Z</time></trkpt><trkpt lat="44.345054955612035" lon="9.855399587091796"><ele>688.0</ele><time>2026-04-19T15:53:41.846Z</time></trkpt><trkpt lat="44.34511244184844" lon="9.85545550191476"><ele>684.3333333333333</ele><time>2026-04-19T15:53:42.846Z</time></trkpt><trkpt lat="44.34517508685246" lon="9.855527570099063"><ele>680.6666666666666</ele><time>2026-04-19T15:53:43.846Z</time></trkpt><trkpt lat="44.34523858407247" lon="9.855595262567949"><ele>677.0</ele><time>2026-04-19T15:53:44.846Z</time></trkpt><trkpt lat="44.345311458381516" lon="9.85566373220128"><ele>676.9999999999999</ele><time>2026-04-19T15:53:45.846Z</time></trkpt><trkpt lat="44.345378505755185" lon="9.855719614741082"><ele>677.0</ele><time>2026-04-19T15:53:46.846Z</time></trkpt><trkpt lat="44.34544040620893" lon="9.855770107794944"><ele>677.0</ele><time>2026-04-19T15:53:47.846Z</time></trkpt><trkpt lat="44.34550011035601" lon="9.855824648232893"><ele>677.0</ele><time>2026-04-19T15:53:48.846Z</time></trkpt><trkpt lat="44.345555523837206" lon="9.85587415555391"><ele>677.0</ele><time>2026-04-19T15:53:49.846Z</time></trkpt><trkpt lat="44.345619286875966" lon="9.85592032139444"><ele>676.9999999999999</ele><time>2026-04-19T15:53:50.846Z</time></trkpt><trkpt lat="44.34568829260237" lon="9.855970721947811"><ele>677.0</ele><time>2026-04-19T15:53:51.846Z</time></trkpt><trkpt lat="44.345747946056214" lon="9.856006174923095"><ele>675.3333333333333</ele><time>2026-04-19T15:53:52.846Z</time></trkpt><trkpt lat="44.3458206252579" lon="9.856017836398363"><ele>673.6666666666666</ele><time>2026-04-19T15:53:53.842Z</time></trkpt><trkpt lat="44.34590661314922" lon="9.856031502155032"><ele>672.0</ele><time>2026-04-19T15:53:54.843Z</time></trkpt><trkpt lat="44.34597864916737" lon="9.856030101771166"><ele>670.3333333333334</ele><time>2026-04-19T15:53:55.843Z</time></trkpt><trkpt lat="44.3460496486824" lon="9.856024503318581"><ele>668.6666666666667</ele><time>2026-04-19T15:53:56.843Z</time></trkpt><trkpt lat="44.346130026276676" lon="9.856025130355569"><ele>667.0</ele><time>2026-04-19T15:53:57.843Z</time></trkpt><trkpt lat="44.346205862131676" lon="9.856026302159899"><ele>667.0000000000001</ele><time>2026-04-19T15:53:58.843Z</time></trkpt><trkpt lat="44.34626887284453" lon="9.85603631376325"><ele>667.0</ele><time>2026-04-19T15:53:59.843Z</time></trkpt><trkpt lat="44.34633327549867" lon="9.856041978382063"><ele>667.0</ele><time>2026-04-19T15:54:00.842Z</time></trkpt><trkpt lat="44.346399282308376" lon="9.856042911931427"><ele>667.0</ele><time>2026-04-19T15:54:01.842Z</time></trkpt><trkpt lat="44.34646526349387" lon="9.856042685853922"><ele>667.0</ele><time>2026-04-19T15:54:02.843Z</time></trkpt><trkpt lat="44.34653144472822" lon="9.856034154236264"><ele>667.0000000000001</ele><time>2026-04-19T15:54:03.842Z</time></trkpt><trkpt lat="44.34659614027298" lon="9.85602173049884"><ele>667.0</ele><time>2026-04-19T15:54:04.842Z</time></trkpt><trkpt lat="44.34665785368219" lon="9.855999658100014"><ele>666.1666666666667</ele><time>2026-04-19T15:54:05.843Z</time></trkpt><trkpt lat="44.34672832693688" lon="9.855973995411857"><ele>665.3333333333334</ele><time>2026-04-19T15:54:06.842Z</time></trkpt><trkpt lat="44.34679309299258" lon="9.855946110375097"><ele>664.5</ele><time>2026-04-19T15:54:07.842Z</time></trkpt><trkpt lat="44.34689260032363" lon="9.85589628251605"><ele>663.6666666666666</ele><time>2026-04-19T15:54:09.842Z</time></trkpt><trkpt lat="44.34696112635943" lon="9.855866503460083"><ele>662.8333333333333</ele><time>2026-04-19T15:54:12.842Z</time></trkpt><trkpt lat="44.347026722700214" lon="9.855827277954216"><ele>662.0</ele><time>2026-04-19T15:54:18.842Z</time></trkpt><trkpt lat="44.34708628258359" lon="9.855744678233684"><ele>662.5</ele><time>2026-04-19T15:57:52.841Z</time></trkpt><trkpt lat="44.347131487746495" lon="9.85568281093437"><ele>663.0</ele><time>2026-04-19T15:57:55.841Z</time></trkpt><trkpt lat="44.34718636483608" lon="9.855629832779707"><ele>663.5</ele><time>2026-04-19T15:57:57.841Z</time></trkpt><trkpt lat="44.34725556736018" lon="9.855578918995606"><ele>664.0</ele><time>2026-04-19T15:57:59.841Z</time></trkpt><trkpt lat="44.347353571498196" lon="9.85558803028266"><ele>664.5</ele><time>2026-04-19T15:58:01.841Z</time></trkpt><trkpt lat="44.34739986165547" lon="9.8557271170883"><ele>665.0</ele><time>2026-04-19T15:58:03.841Z</time></trkpt><trkpt lat="44.34738375382541" lon="9.85581249273735"><ele>665.0</ele><time>2026-04-19T15:58:04.841Z</time></trkpt><trkpt lat="44.34733899124706" lon="9.85588438086927"><ele>665.0</ele><time>2026-04-19T15:58:05.84Z</time></trkpt><trkpt lat="44.34728330027823" lon="9.855950606394739"><ele>665.0</ele><time>2026-04-19T15:58:06.841Z</time></trkpt><trkpt lat="44.34721558759621" lon="9.856020709485442"><ele>665.0</ele><time>2026-04-19T15:58:07.841Z</time></trkpt><trkpt lat="44.34714983190872" lon="9.856100739783455"><ele>665.0</ele><time>2026-04-19T15:58:08.841Z</time></trkpt><trkpt lat="44.3470847826299" lon="9.856171880364135"><ele>665.0</ele><time>2026-04-19T15:58:09.841Z</time></trkpt><trkpt lat="44.34702310547069" lon="9.856244640282728"><ele>664.5</ele><time>2026-04-19T15:58:10.841Z</time></trkpt><trkpt lat="44.34696314840629" lon="9.856310704486726"><ele>664.0</ele><time>2026-04-19T15:58:11.84Z</time></trkpt><trkpt lat="44.34689926183458" lon="9.856381026073972"><ele>663.5</ele><time>2026-04-19T15:58:12.841Z</time></trkpt><trkpt lat="44.346836246968444" lon="9.85646071213249"><ele>663.0</ele><time>2026-04-19T15:58:13.841Z</time></trkpt><trkpt lat="44.34676935014248" lon="9.856541322568521"><ele>662.5</ele><time>2026-04-19T15:58:14.84Z</time></trkpt><trkpt lat="44.346709284953306" lon="9.856602127535158"><ele>662.0</ele><time>2026-04-19T15:58:15.841Z</time></trkpt><trkpt lat="44.34665733220114" lon="9.856659514772842"><ele>662.0</ele><time>2026-04-19T15:58:16.841Z</time></trkpt><trkpt lat="44.346594884654216" lon="9.856720007903032"><ele>662.0</ele><time>2026-04-19T15:58:17.841Z</time></trkpt><trkpt lat="44.3465526606515" lon="9.856790857288466"><ele>662.0</ele><time>2026-04-19T15:58:18.84Z</time></trkpt><trkpt lat="44.346540166945346" lon="9.856935969717268"><ele>662.0</ele><time>2026-04-19T15:58:20.84Z</time></trkpt><trkpt lat="44.34657912487195" lon="9.857006889872135"><ele>662.0</ele><time>2026-04-19T15:58:21.84Z</time></trkpt><trkpt lat="44.34666714660473" lon="9.857067047007979"><ele>662.0</ele><time>2026-04-19T15:58:23.84Z</time></trkpt><trkpt lat="44.34677175638826" lon="9.856990059745243"><ele>662.0</ele><time>2026-04-19T15:58:25.84Z</time></trkpt><trkpt lat="44.346821936490414" lon="9.856912877115702"><ele>662.0</ele><time>2026-04-19T15:58:26.84Z</time></trkpt><trkpt lat="44.34686333987797" lon="9.856821896106789"><ele>662.0</ele><time>2026-04-19T15:58:27.84Z</time></trkpt><trkpt lat="44.34690164466082" lon="9.856735388366241"><ele>662.0</ele><time>2026-04-19T15:58:28.84Z</time></trkpt><trkpt lat="44.346956094296814" lon="9.85666191256993"><ele>662.0</ele><time>2026-04-19T15:58:29.84Z</time></trkpt><trkpt lat="44.3470176307132" lon="9.856606928178584"><ele>662.0</ele><time>2026-04-19T15:58:30.84Z</time></trkpt><trkpt lat="44.3470933805537" lon="9.856572280753182"><ele>662.0</ele><time>2026-04-19T15:58:31.84Z</time></trkpt><trkpt lat="44.34718135896789" lon="9.856538382876666"><ele>662.0</ele><time>2026-04-19T15:58:32.84Z</time></trkpt><trkpt lat="44.347294561546256" lon="9.85651566137621"><ele>662.0</ele><time>2026-04-19T15:58:33.84Z</time></trkpt><trkpt lat="44.347417169517186" lon="9.856494690284306"><ele>662.0</ele><time>2026-04-19T15:58:34.84Z</time></trkpt><trkpt lat="44.34752035776988" lon="9.856471357502674"><ele>662.0</ele><time>2026-04-19T15:58:35.84Z</time></trkpt><trkpt lat="44.34763038777199" lon="9.85645371643879"><ele>659.0</ele><time>2026-04-19T15:58:36.84Z</time></trkpt><trkpt lat="44.34773100107677" lon="9.856433757539635"><ele>656.0</ele><time>2026-04-19T15:58:37.84Z</time></trkpt><trkpt lat="44.34782730980699" lon="9.856412957322933"><ele>653.0</ele><time>2026-04-19T15:58:38.84Z</time></trkpt><trkpt lat="44.34793437838019" lon="9.856361505643946"><ele>650.0</ele><time>2026-04-19T15:58:39.84Z</time></trkpt><trkpt lat="44.348031707994046" lon="9.856298952781561"><ele>647.0</ele><time>2026-04-19T15:58:40.84Z</time></trkpt><trkpt lat="44.34812102303831" lon="9.85621509064715"><ele>645.75</ele><time>2026-04-19T15:58:41.84Z</time></trkpt><trkpt lat="44.34820212273582" lon="9.856115665839184"><ele>644.5</ele><time>2026-04-19T15:58:42.84Z</time></trkpt><trkpt lat="44.34827901357218" lon="9.856000526183253"><ele>643.25</ele><time>2026-04-19T15:58:43.84Z</time></trkpt><trkpt lat="44.34836405782411" lon="9.855874586399556"><ele>642.0</ele><time>2026-04-19T15:58:44.84Z</time></trkpt><trkpt lat="44.348450961582955" lon="9.855759530232838"><ele>642.0</ele><time>2026-04-19T15:58:45.84Z</time></trkpt><trkpt lat="44.348536136577984" lon="9.855658098753857"><ele>642.0</ele><time>2026-04-19T15:58:46.84Z</time></trkpt><trkpt lat="44.348604015296175" lon="9.855557402336668"><ele>642.0</ele><time>2026-04-19T15:58:47.84Z</time></trkpt><trkpt lat="44.34866691838042" lon="9.855482122836303"><ele>642.0</ele><time>2026-04-19T15:58:48.84Z</time></trkpt><trkpt lat="44.34872057467148" lon="9.855432622901944"><ele>642.0</ele><time>2026-04-19T15:58:49.84Z</time></trkpt><trkpt lat="44.34882725374908" lon="9.855417165099507"><ele>642.0</ele><time>2026-04-19T15:58:51.84Z</time></trkpt><trkpt lat="44.348870964369084" lon="9.855482029343833"><ele>642.0</ele><time>2026-04-19T15:58:52.84Z</time></trkpt><trkpt lat="44.348896131445954" lon="9.855575843564928"><ele>642.0</ele><time>2026-04-19T15:58:53.84Z</time></trkpt><trkpt lat="44.34884709666218" lon="9.85574096194101"><ele>642.0</ele><time>2026-04-19T15:58:55.84Z</time></trkpt><trkpt lat="44.34880326807206" lon="9.855830525658773"><ele>642.0</ele><time>2026-04-19T15:58:56.84Z</time></trkpt><trkpt lat="44.34874655012293" lon="9.855934558039909"><ele>642.0</ele><time>2026-04-19T15:58:57.84Z</time></trkpt><trkpt lat="44.34868543880527" lon="9.85604895237543"><ele>639.8000000000001</ele><time>2026-04-19T15:58:58.84Z</time></trkpt><trkpt lat="44.34862403701635" lon="9.856159328731064"><ele>637.6</ele><time>2026-04-19T15:58:59.84Z</time></trkpt><trkpt lat="44.34856655180434" lon="9.856274885998163"><ele>635.4000000000001</ele><time>2026-04-19T15:59:00.84Z</time></trkpt><trkpt lat="44.34851298804271" lon="9.856390760410003"><ele>633.2</ele><time>2026-04-19T15:59:01.84Z</time></trkpt><trkpt lat="44.34845934356894" lon="9.856494964063744"><ele>631.0</ele><time>2026-04-19T15:59:02.84Z</time></trkpt><trkpt lat="44.34841817660541" lon="9.856593568809753"><ele>631.0</ele><time>2026-04-19T15:59:03.84Z</time></trkpt><trkpt lat="44.34840261644543" lon="9.856696753215669"><ele>631.0</ele><time>2026-04-19T15:59:04.84Z</time></trkpt><trkpt lat="44.34841020034856" lon="9.856812666120929"><ele>631.0</ele><time>2026-04-19T15:59:05.84Z</time></trkpt><trkpt lat="44.348436355317645" lon="9.856931324664329"><ele>631.0</ele><time>2026-04-19T15:59:06.841Z</time></trkpt><trkpt lat="44.34847782318914" lon="9.857050118787033"><ele>631.0</ele><time>2026-04-19T15:59:07.841Z</time></trkpt><trkpt lat="44.34853210942233" lon="9.857177196820205"><ele>631.0</ele><time>2026-04-19T15:59:08.841Z</time></trkpt><trkpt lat="44.34858594293712" lon="9.857302291587104"><ele>628.4</ele><time>2026-04-19T15:59:09.841Z</time></trkpt><trkpt lat="44.34863912284159" lon="9.857429463858141"><ele>625.8</ele><time>2026-04-19T15:59:10.841Z</time></trkpt><trkpt lat="44.34868994242087" lon="9.857556204653447"><ele>623.1999999999999</ele><time>2026-04-19T15:59:11.841Z</time></trkpt><trkpt lat="44.34874333553646" lon="9.857691536597871"><ele>620.6</ele><time>2026-04-19T15:59:12.841Z</time></trkpt><trkpt lat="44.34879933584426" lon="9.85782106202167"><ele>618.0</ele><time>2026-04-19T15:59:13.841Z</time></trkpt><trkpt lat="44.34885466295908" lon="9.857944505622628"><ele>616.4</ele><time>2026-04-19T15:59:14.841Z</time></trkpt><trkpt lat="44.34889903732886" lon="9.858067704334834"><ele>614.8</ele><time>2026-04-19T15:59:15.841Z</time></trkpt><trkpt lat="44.34893714050133" lon="9.858181150112342"><ele>613.2</ele><time>2026-04-19T15:59:16.841Z</time></trkpt><trkpt lat="44.34895944607425" lon="9.858316127514849"><ele>611.6</ele><time>2026-04-19T15:59:17.841Z</time></trkpt><trkpt lat="44.348963352594154" lon="9.858470265610004"><ele>610.0</ele><time>2026-04-19T15:59:18.841Z</time></trkpt><trkpt lat="44.34895422094467" lon="9.858628600904213"><ele>608.5</ele><time>2026-04-19T15:59:19.841Z</time></trkpt><trkpt lat="44.3489360676635" lon="9.8587906594142"><ele>607.0</ele><time>2026-04-19T15:59:20.841Z</time></trkpt><trkpt lat="44.34892314533604" lon="9.858954498286408"><ele>605.5</ele><time>2026-04-19T15:59:21.841Z</time></trkpt><trkpt lat="44.3489082041032" lon="9.859109574534255"><ele>604.0</ele><time>2026-04-19T15:59:22.841Z</time></trkpt><trkpt lat="44.3488952448987" lon="9.859254132179627"><ele>604.0</ele><time>2026-04-19T15:59:23.841Z</time></trkpt><trkpt lat="44.34888429587763" lon="9.859390201980524"><ele>604.0</ele><time>2026-04-19T15:59:24.841Z</time></trkpt><trkpt lat="44.34887444096976" lon="9.859518985249943"><ele>604.0</ele><time>2026-04-19T15:59:25.841Z</time></trkpt><trkpt lat="44.34885955474876" lon="9.859634766358017"><ele>604.0</ele><time>2026-04-19T15:59:26.841Z</time></trkpt><trkpt lat="44.34885735389694" lon="9.859739685621323"><ele>604.0</ele><time>2026-04-19T15:59:27.841Z</time></trkpt><trkpt lat="44.348875234159465" lon="9.859857183737327"><ele>604.0</ele><time>2026-04-19T15:59:28.841Z</time></trkpt><trkpt lat="44.34890728143146" lon="9.859960266219254"><ele>603.5</ele><time>2026-04-19T15:59:29.841Z</time></trkpt><trkpt lat="44.3489497879081" lon="9.86005542260823"><ele>603.0</ele><time>2026-04-19T15:59:30.841Z</time></trkpt><trkpt lat="44.34901335622514" lon="9.860144403540472"><ele>602.5</ele><time>2026-04-19T15:59:31.841Z</time></trkpt><trkpt lat="44.34907846638697" lon="9.860201818038032"><ele>602.0</ele><time>2026-04-19T15:59:32.841Z</time></trkpt><trkpt lat="44.349155185019974" lon="9.860215934527494"><ele>601.5</ele><time>2026-04-19T15:59:33.841Z</time></trkpt><trkpt lat="44.34923443960003" lon="9.86022832179678"><ele>601.0</ele><time>2026-04-19T15:59:34.841Z</time></trkpt><trkpt lat="44.34931078046449" lon="9.86020202764859"><ele>601.0</ele><time>2026-04-19T15:59:35.841Z</time></trkpt><trkpt lat="44.349387544859624" lon="9.860139714323385"><ele>601.0</ele><time>2026-04-19T15:59:36.841Z</time></trkpt><trkpt lat="44.34945095816971" lon="9.86005861039228"><ele>601.0</ele><time>2026-04-19T15:59:37.841Z</time></trkpt><trkpt lat="44.349496458663786" lon="9.859940785754645"><ele>601.0</ele><time>2026-04-19T15:59:38.841Z</time></trkpt><trkpt lat="44.34953331267045" lon="9.859828986936476"><ele>601.0</ele><time>2026-04-19T15:59:39.841Z</time></trkpt><trkpt lat="44.34956647339982" lon="9.85972886441892"><ele>601.0</ele><time>2026-04-19T15:59:40.841Z</time></trkpt><trkpt lat="44.34961255198622" lon="9.85963946954736"><ele>601.0</ele><time>2026-04-19T15:59:41.841Z</time></trkpt><trkpt lat="44.34966756176824" lon="9.85956232027712"><ele>601.0</ele><time>2026-04-19T15:59:42.841Z</time></trkpt><trkpt lat="44.34972994558052" lon="9.859500495830078"><ele>601.0</ele><time>2026-04-19T15:59:43.841Z</time></trkpt><trkpt lat="44.34979303758724" lon="9.859468475151782"><ele>601.0</ele><time>2026-04-19T15:59:44.841Z</time></trkpt><trkpt lat="44.34987850532943" lon="9.85945679462168"><ele>601.0</ele><time>2026-04-19T15:59:45.841Z</time></trkpt><trkpt lat="44.34997118880956" lon="9.859473082666211"><ele>601.0</ele><time>2026-04-19T15:59:46.841Z</time></trkpt><trkpt lat="44.35005316949784" lon="9.859505992525945"><ele>599.1666666666667</ele><time>2026-04-19T15:59:47.841Z</time></trkpt><trkpt lat="44.35012852215272" lon="9.859534811129992"><ele>597.3333333333334</ele><time>2026-04-19T15:59:48.841Z</time></trkpt><trkpt lat="44.3502141626127" lon="9.85956724033713"><ele>595.5</ele><time>2026-04-19T15:59:49.841Z</time></trkpt><trkpt lat="44.3502899997577" lon="9.859612973022353"><ele>593.6666666666666</ele><time>2026-04-19T15:59:50.841Z</time></trkpt><trkpt lat="44.35036287744049" lon="9.85967790581978"><ele>591.8333333333333</ele><time>2026-04-19T15:59:51.841Z</time></trkpt><trkpt lat="44.35041899488011" lon="9.859770467274949"><ele>590.0</ele><time>2026-04-19T15:59:52.841Z</time></trkpt><trkpt lat="44.350467273359946" lon="9.859866646780313"><ele>590.0</ele><time>2026-04-19T15:59:53.841Z</time></trkpt><trkpt lat="44.35050733241307" lon="9.859967935579874"><ele>590.0</ele><time>2026-04-19T15:59:54.841Z</time></trkpt><trkpt lat="44.35053701809139" lon="9.860070353088568"><ele>590.0</ele><time>2026-04-19T15:59:55.841Z</time></trkpt><trkpt lat="44.35056403434425" lon="9.860155685194533"><ele>590.0</ele><time>2026-04-19T15:59:56.841Z</time></trkpt><trkpt lat="44.35063820567916" lon="9.86027497620532"><ele>590.0</ele><time>2026-04-19T15:59:58.841Z</time></trkpt><trkpt lat="44.350726732776714" lon="9.860290051190619"><ele>590.0</ele><time>2026-04-19T16:00:00.841Z</time></trkpt><trkpt lat="44.35082714548075" lon="9.860189067798848"><ele>588.6666666666666</ele><time>2026-04-19T16:00:02.841Z</time></trkpt><trkpt lat="44.35085894007305" lon="9.86010168209514"><ele>587.3333333333333</ele><time>2026-04-19T16:00:03.841Z</time></trkpt><trkpt lat="44.35087747089315" lon="9.860005264930225"><ele>586.0</ele><time>2026-04-19T16:00:04.841Z</time></trkpt><trkpt lat="44.35089150175425" lon="9.859916280022105"><ele>584.6666666666666</ele><time>2026-04-19T16:00:05.841Z</time></trkpt><trkpt lat="44.35089413745651" lon="9.859744529976625"><ele>583.3333333333334</ele><time>2026-04-19T16:00:07.841Z</time></trkpt><trkpt lat="44.350830178672275" lon="9.859608112153927"><ele>582.0</ele><time>2026-04-19T16:00:09.841Z</time></trkpt><trkpt lat="44.35077099390299" lon="9.85955062028485"><ele>582.0</ele><time>2026-04-19T16:00:10.841Z</time></trkpt><trkpt lat="44.350708080647244" lon="9.859510607689074"><ele>582.0</ele><time>2026-04-19T16:00:11.839Z</time></trkpt><trkpt lat="44.35060735579501" lon="9.859426246085008"><ele>582.0</ele><time>2026-04-19T16:00:13.839Z</time></trkpt><trkpt lat="44.35056444640667" lon="9.859289934470489"><ele>582.0</ele><time>2026-04-19T16:00:15.839Z</time></trkpt><trkpt lat="44.35063931715073" lon="9.859166951289419"><ele>582.0</ele><time>2026-04-19T16:00:17.839Z</time></trkpt><trkpt lat="44.35070761584796" lon="9.859174733189816"><ele>582.0</ele><time>2026-04-19T16:00:18.839Z</time></trkpt><trkpt lat="44.35077366187531" lon="9.859228193410276"><ele>582.0</ele><time>2026-04-19T16:00:19.839Z</time></trkpt><trkpt lat="44.350843813534674" lon="9.859296524620815"><ele>582.0</ele><time>2026-04-19T16:00:20.838Z</time></trkpt><trkpt lat="44.350919311376536" lon="9.859363692606099"><ele>582.0</ele><time>2026-04-19T16:00:21.839Z</time></trkpt><trkpt lat="44.350985983235084" lon="9.859424076063648"><ele>582.0</ele><time>2026-04-19T16:00:22.839Z</time></trkpt><trkpt lat="44.35105083588622" lon="9.859494321781906"><ele>582.0</ele><time>2026-04-19T16:00:23.838Z</time></trkpt><trkpt lat="44.35110218910057" lon="9.859585812761154"><ele>582.0</ele><time>2026-04-19T16:00:24.838Z</time></trkpt><trkpt lat="44.35113422733353" lon="9.859708058958514"><ele>582.0</ele><time>2026-04-19T16:00:25.838Z</time></trkpt><trkpt lat="44.35114699638892" lon="9.8598409836763"><ele>582.0</ele><time>2026-04-19T16:00:26.838Z</time></trkpt><trkpt lat="44.35115361187882" lon="9.859989459790473"><ele>582.0</ele><time>2026-04-19T16:00:27.838Z</time></trkpt><trkpt lat="44.35116167103021" lon="9.860141416519737"><ele>582.0</ele><time>2026-04-19T16:00:28.838Z</time></trkpt><trkpt lat="44.35117473144197" lon="9.860287800543963"><ele>580.4</ele><time>2026-04-19T16:00:29.838Z</time></trkpt><trkpt lat="44.3511890244513" lon="9.860434228554428"><ele>578.8000000000001</ele><time>2026-04-19T16:00:30.838Z</time></trkpt><trkpt lat="44.35119824765653" lon="9.860577195750688"><ele>577.2</ele><time>2026-04-19T16:00:31.838Z</time></trkpt><trkpt lat="44.35122186549335" lon="9.86071127648177"><ele>575.6</ele><time>2026-04-19T16:00:32.838Z</time></trkpt><trkpt lat="44.35123511096746" lon="9.860862800248453"><ele>574.0</ele><time>2026-04-19T16:00:33.838Z</time></trkpt><trkpt lat="44.351249094826194" lon="9.860993847747686"><ele>572.0</ele><time>2026-04-19T16:00:34.838Z</time></trkpt><trkpt lat="44.35125474757863" lon="9.861113373883143"><ele>570.0</ele><time>2026-04-19T16:00:35.838Z</time></trkpt><trkpt lat="44.3512468510973" lon="9.86122651826959"><ele>568.0</ele><time>2026-04-19T16:00:36.838Z</time></trkpt><trkpt lat="44.351232397821285" lon="9.861321264787529"><ele>566.0</ele><time>2026-04-19T16:00:37.838Z</time></trkpt><trkpt lat="44.351192379744916" lon="9.861408689087863"><ele>564.0</ele><time>2026-04-19T16:00:38.838Z</time></trkpt><trkpt lat="44.35112802409568" lon="9.861461594382511"><ele>562.0</ele><time>2026-04-19T16:00:39.838Z</time></trkpt><trkpt lat="44.35105412250878" lon="9.861495982834755"><ele>562.0</ele><time>2026-04-19T16:00:40.838Z</time></trkpt><trkpt lat="44.350970272268945" lon="9.861479705195144"><ele>562.0</ele><time>2026-04-19T16:00:41.838Z</time></trkpt><trkpt lat="44.350887545477896" lon="9.861457719021256"><ele>562.0</ele><time>2026-04-19T16:00:42.838Z</time></trkpt><trkpt lat="44.35081864687688" lon="9.861453472196764"><ele>562.0</ele><time>2026-04-19T16:00:43.838Z</time></trkpt><trkpt lat="44.35074331154143" lon="9.86154866174661"><ele>562.0</ele><time>2026-04-19T16:00:45.838Z</time></trkpt><trkpt lat="44.350784926101745" lon="9.861737598632448"><ele>560.4</ele><time>2026-04-19T16:00:47.838Z</time></trkpt><trkpt lat="44.35083955712647" lon="9.861834941196886"><ele>558.8000000000001</ele><time>2026-04-19T16:00:48.838Z</time></trkpt><trkpt lat="44.35091367633465" lon="9.861927433201524"><ele>557.2</ele><time>2026-04-19T16:00:49.838Z</time></trkpt><trkpt lat="44.350986843577836" lon="9.86202365135638"><ele>555.6</ele><time>2026-04-19T16:00:50.838Z</time></trkpt><trkpt lat="44.351060643792785" lon="9.862127273336725"><ele>554.0</ele><time>2026-04-19T16:00:51.838Z</time></trkpt><trkpt lat="44.35112348104345" lon="9.86222899808738"><ele>554.0</ele><time>2026-04-19T16:00:52.838Z</time></trkpt><trkpt lat="44.35116861096805" lon="9.862325235959556"><ele>554.0</ele><time>2026-04-19T16:00:53.838Z</time></trkpt><trkpt lat="44.351211746888275" lon="9.862421767905184"><ele>554.0</ele><time>2026-04-19T16:00:54.839Z</time></trkpt><trkpt lat="44.351252728935634" lon="9.862507377050148"><ele>554.0</ele><time>2026-04-19T16:00:55.839Z</time></trkpt><trkpt lat="44.3513088148667" lon="9.862570514641185"><ele>554.0</ele><time>2026-04-19T16:00:56.839Z</time></trkpt><trkpt lat="44.35136396173982" lon="9.86261834002401"><ele>554.0</ele><time>2026-04-19T16:00:57.839Z</time></trkpt><trkpt lat="44.351430774407746" lon="9.862646942863895"><ele>554.0</ele><time>2026-04-19T16:00:58.839Z</time></trkpt><trkpt lat="44.351504323688" lon="9.862642619817581"><ele>551.8571428571429</ele><time>2026-04-19T16:00:59.839Z</time></trkpt><trkpt lat="44.35157006343997" lon="9.862638448141027"><ele>549.7142857142857</ele><time>2026-04-19T16:01:00.839Z</time></trkpt><trkpt lat="44.351635897499506" lon="9.86263140081171"><ele>547.5714285714286</ele><time>2026-04-19T16:01:01.839Z</time></trkpt><trkpt lat="44.351704086895644" lon="9.862627378889512"><ele>545.4285714285714</ele><time>2026-04-19T16:01:02.839Z</time></trkpt><trkpt lat="44.351776043755976" lon="9.862650183558943"><ele>543.2857142857142</ele><time>2026-04-19T16:01:03.839Z</time></trkpt><trkpt lat="44.35184353351628" lon="9.862700161581643"><ele>541.1428571428571</ele><time>2026-04-19T16:01:04.839Z</time></trkpt><trkpt lat="44.3519155792861" lon="9.862770622024758"><ele>539.0</ele><time>2026-04-19T16:01:05.839Z</time></trkpt><trkpt lat="44.35197963921761" lon="9.862857763336743"><ele>539.0</ele><time>2026-04-19T16:01:06.839Z</time></trkpt><trkpt lat="44.35203781575634" lon="9.862967476520847"><ele>539.0</ele><time>2026-04-19T16:01:07.839Z</time></trkpt><trkpt lat="44.35208376054754" lon="9.863073487800436"><ele>539.0</ele><time>2026-04-19T16:01:08.839Z</time></trkpt><trkpt lat="44.352127408928304" lon="9.863195781005949"><ele>539.0</ele><time>2026-04-19T16:01:09.839Z</time></trkpt><trkpt lat="44.35215443838417" lon="9.863306570669858"><ele>539.0</ele><time>2026-04-19T16:01:10.839Z</time></trkpt><trkpt lat="44.35217494354341" lon="9.863416552795305"><ele>539.0</ele><time>2026-04-19T16:01:11.839Z</time></trkpt><trkpt lat="44.352196779937174" lon="9.863530243660644"><ele>535.8333333333333</ele><time>2026-04-19T16:01:12.839Z</time></trkpt><trkpt lat="44.35222087456516" lon="9.863630869184025"><ele>532.6666666666666</ele><time>2026-04-19T16:01:13.839Z</time></trkpt><trkpt lat="44.35226607093375" lon="9.863731135872333"><ele>529.5</ele><time>2026-04-19T16:01:14.839Z</time></trkpt><trkpt lat="44.352319765542546" lon="9.863824761893719"><ele>526.3333333333334</ele><time>2026-04-19T16:01:15.839Z</time></trkpt><trkpt lat="44.35237087341615" lon="9.863901462681266"><ele>523.1666666666667</ele><time>2026-04-19T16:01:16.839Z</time></trkpt><trkpt lat="44.352431383717324" lon="9.86394585299011"><ele>520.0</ele><time>2026-04-19T16:01:17.839Z</time></trkpt><trkpt lat="44.35249496864261" lon="9.863954050458291"><ele>520.0</ele><time>2026-04-19T16:01:18.839Z</time></trkpt><trkpt lat="44.35260086382589" lon="9.863859569109307"><ele>520.0</ele><time>2026-04-19T16:01:20.839Z</time></trkpt><trkpt lat="44.35263242329591" lon="9.86376398967964"><ele>520.0</ele><time>2026-04-19T16:01:21.839Z</time></trkpt><trkpt lat="44.35264980881365" lon="9.863644410471585"><ele>520.0</ele><time>2026-04-19T16:01:22.839Z</time></trkpt><trkpt lat="44.35265288467209" lon="9.863529062823028"><ele>520.0</ele><time>2026-04-19T16:01:23.839Z</time></trkpt><trkpt lat="44.35264409491311" lon="9.863402008229983"><ele>521.4</ele><time>2026-04-19T16:01:24.839Z</time></trkpt><trkpt lat="44.352629430962175" lon="9.863279396625348"><ele>522.8</ele><time>2026-04-19T16:01:25.839Z</time></trkpt><trkpt lat="44.35260988691483" lon="9.863152200635174"><ele>524.2</ele><time>2026-04-19T16:01:26.839Z</time></trkpt><trkpt lat="44.35258600720867" lon="9.863022840403689"><ele>525.6</ele><time>2026-04-19T16:01:27.839Z</time></trkpt><trkpt lat="44.35257699073881" lon="9.86289906746803"><ele>527.0</ele><time>2026-04-19T16:01:28.839Z</time></trkpt><trkpt lat="44.35256027402058" lon="9.862779728825368"><ele>527.0</ele><time>2026-04-19T16:01:29.839Z</time></trkpt><trkpt lat="44.35255525457936" lon="9.862684368786395"><ele>527.0</ele><time>2026-04-19T16:01:30.839Z</time></trkpt><trkpt lat="44.35259369849194" lon="9.862549853869082"><ele>527.0</ele><time>2026-04-19T16:01:32.839Z</time></trkpt><trkpt lat="44.352697272208744" lon="9.86257261059358"><ele>527.0</ele><time>2026-04-19T16:01:34.839Z</time></trkpt><trkpt lat="44.352730386421406" lon="9.86266167590745"><ele>527.0</ele><time>2026-04-19T16:01:35.839Z</time></trkpt><trkpt lat="44.35274794380092" lon="9.862771881272739"><ele>527.0</ele><time>2026-04-19T16:01:36.839Z</time></trkpt><trkpt lat="44.352768777479014" lon="9.86288059655697"><ele>527.0</ele><time>2026-04-19T16:01:37.839Z</time></trkpt><trkpt lat="44.352812252181906" lon="9.863009631660118"><ele>527.0</ele><time>2026-04-19T16:01:38.839Z</time></trkpt><trkpt lat="44.35287750209953" lon="9.863140847040368"><ele>527.0</ele><time>2026-04-19T16:01:39.839Z</time></trkpt><trkpt lat="44.35294866740121" lon="9.86327631927665"><ele>527.0</ele><time>2026-04-19T16:01:40.839Z</time></trkpt><trkpt lat="44.353024658534714" lon="9.86342647850453"><ele>522.6</ele><time>2026-04-19T16:01:41.839Z</time></trkpt><trkpt lat="44.35309750168965" lon="9.863566031224387"><ele>518.2</ele><time>2026-04-19T16:01:42.839Z</time></trkpt><trkpt lat="44.35316322669571" lon="9.863694989466136"><ele>513.8</ele><time>2026-04-19T16:01:43.839Z</time></trkpt><trkpt lat="44.35321819275658" lon="9.863810868122243"><ele>509.4</ele><time>2026-04-19T16:01:44.839Z</time></trkpt><trkpt lat="44.353263215987674" lon="9.863900061711687"><ele>505.0</ele><time>2026-04-19T16:01:45.839Z</time></trkpt><trkpt lat="44.35330985788873" lon="9.863960897082547"><ele>505.0</ele><time>2026-04-19T16:01:46.839Z</time></trkpt><trkpt lat="44.35342627081174" lon="9.863979728326639"><ele>505.0</ele><time>2026-04-19T16:01:48.839Z</time></trkpt><trkpt lat="44.35353700655548" lon="9.863877244646998"><ele>505.0</ele><time>2026-04-19T16:01:50.839Z</time></trkpt><trkpt lat="44.35361868767699" lon="9.863721646958254"><ele>505.0</ele><time>2026-04-19T16:01:52.839Z</time></trkpt><trkpt lat="44.353644157103766" lon="9.863631252254322"><ele>505.2</ele><time>2026-04-19T16:01:53.839Z</time></trkpt><trkpt lat="44.353648095619285" lon="9.863445756871656"><ele>505.4</ele><time>2026-04-19T16:01:55.839Z</time></trkpt><trkpt lat="44.35362147260363" lon="9.8633367621509"><ele>505.6</ele><time>2026-04-19T16:01:56.839Z</time></trkpt><trkpt lat="44.3535817477044" lon="9.863246963622917"><ele>505.8</ele><time>2026-04-19T16:01:57.839Z</time></trkpt><trkpt lat="44.353523950793885" lon="9.8631540570299"><ele>506.0</ele><time>2026-04-19T16:01:58.839Z</time></trkpt><trkpt lat="44.353452886768345" lon="9.863078682316615"><ele>505.99999999999994</ele><time>2026-04-19T16:01:59.839Z</time></trkpt><trkpt lat="44.353376725874575" lon="9.863012857958998"><ele>506.0</ele><time>2026-04-19T16:02:00.839Z</time></trkpt><trkpt lat="44.35330838778888" lon="9.862946138118883"><ele>506.0</ele><time>2026-04-19T16:02:01.839Z</time></trkpt><trkpt lat="44.35324611260619" lon="9.862881509686487"><ele>506.0</ele><time>2026-04-19T16:02:02.839Z</time></trkpt><trkpt lat="44.35319313513451" lon="9.862808785159057"><ele>505.99999999999994</ele><time>2026-04-19T16:02:03.839Z</time></trkpt><trkpt lat="44.3531737101401" lon="9.862643635883492"><ele>506.0</ele><time>2026-04-19T16:02:05.839Z</time></trkpt><trkpt lat="44.35326175988546" lon="9.862543635381288"><ele>506.0</ele><time>2026-04-19T16:02:07.839Z</time></trkpt><trkpt lat="44.35334180463309" lon="9.86257130834209"><ele>506.0</ele><time>2026-04-19T16:02:08.839Z</time></trkpt><trkpt lat="44.35341458596715" lon="9.86263392075043"><ele>506.0</ele><time>2026-04-19T16:02:09.839Z</time></trkpt><trkpt lat="44.35348752139564" lon="9.86272550449657"><ele>506.0</ele><time>2026-04-19T16:02:10.839Z</time></trkpt><trkpt lat="44.35354831638409" lon="9.862825994045801"><ele>506.0</ele><time>2026-04-19T16:02:11.839Z</time></trkpt><trkpt lat="44.3536187991143" lon="9.862931265462171"><ele>506.0</ele><time>2026-04-19T16:02:12.839Z</time></trkpt><trkpt lat="44.35368804753035" lon="9.863038021680675"><ele>506.0</ele><time>2026-04-19T16:02:13.839Z</time></trkpt><trkpt lat="44.35375527261948" lon="9.863157608014927"><ele>506.0</ele><time>2026-04-19T16:02:14.839Z</time></trkpt><trkpt lat="44.3538038910682" lon="9.8632775076914"><ele>506.0</ele><time>2026-04-19T16:02:15.839Z</time></trkpt><trkpt lat="44.353864199683535" lon="9.863384074631389"><ele>506.0</ele><time>2026-04-19T16:02:16.839Z</time></trkpt><trkpt lat="44.35390515384817" lon="9.863492147600551"><ele>501.3333333333333</ele><time>2026-04-19T16:02:17.836Z</time></trkpt><trkpt lat="44.35394632759752" lon="9.863593045369216"><ele>496.66666666666663</ele><time>2026-04-19T16:02:18.837Z</time></trkpt><trkpt lat="44.353984160403364" lon="9.863692875909177"><ele>492.0</ele><time>2026-04-19T16:02:19.837Z</time></trkpt><trkpt lat="44.35399638487041" lon="9.863793963840012"><ele>487.33333333333337</ele><time>2026-04-19T16:02:20.837Z</time></trkpt><trkpt lat="44.35399771192183" lon="9.863908081499467"><ele>482.6666666666667</ele><time>2026-04-19T16:02:21.837Z</time></trkpt><trkpt lat="44.35396886159902" lon="9.86402611134332"><ele>478.0</ele><time>2026-04-19T16:02:22.837Z</time></trkpt><trkpt lat="44.353943488891886" lon="9.864146430707498"><ele>478.00000000000006</ele><time>2026-04-19T16:02:23.837Z</time></trkpt><trkpt lat="44.35391124633436" lon="9.864250386630516"><ele>478.0</ele><time>2026-04-19T16:02:24.837Z</time></trkpt><trkpt lat="44.35388865665393" lon="9.864360997072378"><ele>478.0</ele><time>2026-04-19T16:02:25.837Z</time></trkpt><trkpt lat="44.3538364592013" lon="9.86446837341115"><ele>478.0</ele><time>2026-04-19T16:02:26.837Z</time></trkpt><trkpt lat="44.35378130115578" lon="9.86456887790925"><ele>478.00000000000006</ele><time>2026-04-19T16:02:27.837Z</time></trkpt><trkpt lat="44.35371471183554" lon="9.864673108407187"><ele>478.0</ele><time>2026-04-19T16:02:28.837Z</time></trkpt><trkpt lat="44.353649431715745" lon="9.86477367179492"><ele>476.83333333333337</ele><time>2026-04-19T16:02:29.837Z</time></trkpt><trkpt lat="44.35359153301668" lon="9.864869280387822"><ele>475.6666666666667</ele><time>2026-04-19T16:02:30.837Z</time></trkpt><trkpt lat="44.35354199466806" lon="9.864966265672837"><ele>474.5</ele><time>2026-04-19T16:02:31.837Z</time></trkpt><trkpt lat="44.35349585773565" lon="9.865065941569572"><ele>473.33333333333337</ele><time>2026-04-19T16:02:32.837Z</time></trkpt><trkpt lat="44.3534546137382" lon="9.86516747898241"><ele>472.1666666666667</ele><time>2026-04-19T16:02:33.837Z</time></trkpt><trkpt lat="44.35341836509773" lon="9.865277564780225"><ele>471.0</ele><time>2026-04-19T16:02:34.837Z</time></trkpt><trkpt lat="44.35338040474938" lon="9.865388689172406"><ele>471.0</ele><time>2026-04-19T16:02:35.837Z</time></trkpt><trkpt lat="44.35334106294653" lon="9.865489698187721"><ele>471.0</ele><time>2026-04-19T16:02:36.837Z</time></trkpt><trkpt lat="44.35330343927833" lon="9.865577709911527"><ele>471.0</ele><time>2026-04-19T16:02:37.837Z</time></trkpt><trkpt lat="44.35327052848151" lon="9.865654948479879"><ele>471.0</ele><time>2026-04-19T16:02:38.837Z</time></trkpt><trkpt lat="44.35324762569141" lon="9.86577892101379"><ele>471.0</ele><time>2026-04-19T16:02:40.837Z</time></trkpt><trkpt lat="44.353308975905264" lon="9.865867825368854"><ele>471.0</ele><time>2026-04-19T16:02:42.837Z</time></trkpt><trkpt lat="44.35340063656622" lon="9.865845633849805"><ele>471.0</ele><time>2026-04-19T16:02:44.837Z</time></trkpt><trkpt lat="44.35345348090632" lon="9.865791440024127"><ele>471.0</ele><time>2026-04-19T16:02:45.837Z</time></trkpt><trkpt lat="44.35350287263927" lon="9.86571109327428"><ele>471.0</ele><time>2026-04-19T16:02:46.837Z</time></trkpt><trkpt lat="44.35355533580695" lon="9.865616547132138"><ele>471.0</ele><time>2026-04-19T16:02:47.837Z</time></trkpt><trkpt lat="44.35361694421194" lon="9.865517416992738"><ele>471.0</ele><time>2026-04-19T16:02:48.837Z</time></trkpt><trkpt lat="44.35367582938648" lon="9.86541232024282"><ele>471.0</ele><time>2026-04-19T16:02:49.837Z</time></trkpt><trkpt lat="44.35373988622432" lon="9.865319095096323"><ele>471.0</ele><time>2026-04-19T16:02:50.837Z</time></trkpt><trkpt lat="44.35381054089715" lon="9.865228077387458"><ele>471.0</ele><time>2026-04-19T16:02:51.837Z</time></trkpt><trkpt lat="44.353887890881275" lon="9.865153799595403"><ele>471.0</ele><time>2026-04-19T16:02:52.837Z</time></trkpt><trkpt lat="44.35397814410753" lon="9.865097926872064"><ele>471.0</ele><time>2026-04-19T16:02:53.837Z</time></trkpt><trkpt lat="44.354062930699236" lon="9.865050955086087"><ele>471.0</ele><time>2026-04-19T16:02:54.837Z</time></trkpt><trkpt lat="44.354144192196706" lon="9.864998205199948"><ele>470.3333333333333</ele><time>2026-04-19T16:02:55.837Z</time></trkpt><trkpt lat="44.354212335436024" lon="9.864943352576413"><ele>469.66666666666663</ele><time>2026-04-19T16:02:56.837Z</time></trkpt><trkpt lat="44.35428407732418" lon="9.86487824778385"><ele>469.0</ele><time>2026-04-19T16:02:57.837Z</time></trkpt><trkpt lat="44.35435230759085" lon="9.86479813696647"><ele>468.3333333333333</ele><time>2026-04-19T16:02:58.837Z</time></trkpt><trkpt lat="44.35440666759677" lon="9.86470478011842"><ele>467.66666666666663</ele><time>2026-04-19T16:02:59.837Z</time></trkpt><trkpt lat="44.35445450269193" lon="9.86459612506009"><ele>467.0</ele><time>2026-04-19T16:03:00.837Z</time></trkpt><trkpt lat="44.354499896236" lon="9.864471857258886"><ele>467.0</ele><time>2026-04-19T16:03:01.837Z</time></trkpt><trkpt lat="44.35453690780854" lon="9.864345714982257"><ele>467.00000000000006</ele><time>2026-04-19T16:03:02.837Z</time></trkpt><trkpt lat="44.35457512345949" lon="9.864223445375131"><ele>467.00000000000006</ele><time>2026-04-19T16:03:03.837Z</time></trkpt><trkpt lat="44.35460070477446" lon="9.864102137340224"><ele>467.0</ele><time>2026-04-19T16:03:04.837Z</time></trkpt><trkpt lat="44.3546271121284" lon="9.863980203220402"><ele>467.0</ele><time>2026-04-19T16:03:05.837Z</time></trkpt><trkpt lat="44.3546559002831" lon="9.863877885679424"><ele>469.20000000000005</ele><time>2026-04-19T16:03:06.837Z</time></trkpt><trkpt lat="44.35467239332988" lon="9.863792263720796"><ele>471.40000000000003</ele><time>2026-04-19T16:03:07.837Z</time></trkpt><trkpt lat="44.35473442798001" lon="9.863718695739582"><ele>473.59999999999997</ele><time>2026-04-19T16:03:09.837Z</time></trkpt><trkpt lat="44.3548038794657" lon="9.863796412020514"><ele>475.79999999999995</ele><time>2026-04-19T16:03:11.837Z</time></trkpt><trkpt lat="44.35477675382954" lon="9.863981298034915"><ele>478.0</ele><time>2026-04-19T16:03:13.837Z</time></trkpt><trkpt lat="44.354750215652885" lon="9.864099537918726"><ele>470.2</ele><time>2026-04-19T16:03:14.837Z</time></trkpt><trkpt lat="44.35473056953688" lon="9.864233424599352"><ele>462.4</ele><time>2026-04-19T16:03:15.837Z</time></trkpt><trkpt lat="44.35472107152501" lon="9.864366750966381"><ele>454.59999999999997</ele><time>2026-04-19T16:03:16.837Z</time></trkpt><trkpt lat="44.35471823020005" lon="9.864504903976421"><ele>446.79999999999995</ele><time>2026-04-19T16:03:17.837Z</time></trkpt><trkpt lat="44.354721034421296" lon="9.864654088023464"><ele>439.0</ele><time>2026-04-19T16:03:18.837Z</time></trkpt><trkpt lat="44.35472604934143" lon="9.864817535067608"><ele>438.2</ele><time>2026-04-19T16:03:19.837Z</time></trkpt><trkpt lat="44.354725902135044" lon="9.86497181537926"><ele>437.4</ele><time>2026-04-19T16:03:20.837Z</time></trkpt><trkpt lat="44.35473556375706" lon="9.865122061035322"><ele>436.6</ele><time>2026-04-19T16:03:21.837Z</time></trkpt><trkpt lat="44.35473851410852" lon="9.86527371485437"><ele>435.8</ele><time>2026-04-19T16:03:22.837Z</time></trkpt><trkpt lat="44.35473974548945" lon="9.865414153067528"><ele>435.0</ele><time>2026-04-19T16:03:23.837Z</time></trkpt><trkpt lat="44.35473778003761" lon="9.86553961902845"><ele>434.3333333333333</ele><time>2026-04-19T16:03:24.837Z</time></trkpt><trkpt lat="44.35472341595487" lon="9.86566073934539"><ele>433.66666666666663</ele><time>2026-04-19T16:03:25.837Z</time></trkpt><trkpt lat="44.35468133794431" lon="9.865764527496172"><ele>433.0</ele><time>2026-04-19T16:03:26.837Z</time></trkpt><trkpt lat="44.35462917825856" lon="9.865849931337955"><ele>432.3333333333333</ele><time>2026-04-19T16:03:27.837Z</time></trkpt><trkpt lat="44.354572845303124" lon="9.865910761437211"><ele>431.66666666666663</ele><time>2026-04-19T16:03:28.837Z</time></trkpt><trkpt lat="44.35452586155117" lon="9.866035226363746"><ele>431.0</ele><time>2026-04-19T16:03:30.837Z</time></trkpt><trkpt lat="44.354561391493554" lon="9.866149397121966"><ele>431.0</ele><time>2026-04-19T16:03:32.837Z</time></trkpt><trkpt lat="44.35467260731894" lon="9.866152504225157"><ele>431.0</ele><time>2026-04-19T16:03:34.837Z</time></trkpt><trkpt lat="44.35472963436926" lon="9.866085272534207"><ele>431.0</ele><time>2026-04-19T16:03:35.837Z</time></trkpt><trkpt lat="44.35478487911704" lon="9.865979719051452"><ele>431.0</ele><time>2026-04-19T16:03:36.837Z</time></trkpt><trkpt lat="44.35484000689234" lon="9.86586021517461"><ele>431.0</ele><time>2026-04-19T16:03:37.837Z</time></trkpt><trkpt lat="44.35489858671843" lon="9.865722905048829"><ele>431.0</ele><time>2026-04-19T16:03:38.837Z</time></trkpt><trkpt lat="44.35495360767976" lon="9.865579760898147"><ele>431.0</ele><time>2026-04-19T16:03:39.837Z</time></trkpt><trkpt lat="44.35499800763018" lon="9.86543562373176"><ele>431.0</ele><time>2026-04-19T16:03:40.837Z</time></trkpt><trkpt lat="44.355043175145504" lon="9.865309212682407"><ele>431.0</ele><time>2026-04-19T16:03:41.837Z</time></trkpt><trkpt lat="44.35508117861846" lon="9.865185662196033"><ele>431.0</ele><time>2026-04-19T16:03:42.837Z</time></trkpt><trkpt lat="44.35512185547624" lon="9.865069447886222"><ele>431.8</ele><time>2026-04-19T16:03:43.837Z</time></trkpt><trkpt lat="44.35515477496481" lon="9.864949311214367"><ele>432.6</ele><time>2026-04-19T16:03:44.837Z</time></trkpt><trkpt lat="44.355182619790256" lon="9.864823966455658"><ele>433.4</ele><time>2026-04-19T16:03:45.837Z</time></trkpt><trkpt lat="44.35520298165675" lon="9.864680403965277"><ele>434.2</ele><time>2026-04-19T16:03:46.837Z</time></trkpt><trkpt lat="44.3552209215985" lon="9.864532733717303"><ele>435.0</ele><time>2026-04-19T16:03:47.837Z</time></trkpt><trkpt lat="44.35522656996217" lon="9.864388291344824"><ele>435.6666666666667</ele><time>2026-04-19T16:03:48.837Z</time></trkpt><trkpt lat="44.3552416504564" lon="9.864257481892036"><ele>436.33333333333337</ele><time>2026-04-19T16:03:49.837Z</time></trkpt><trkpt lat="44.355259012486776" lon="9.864140856507133"><ele>437.0</ele><time>2026-04-19T16:03:50.837Z</time></trkpt><trkpt lat="44.35528435882049" lon="9.864039335256447"><ele>437.6666666666667</ele><time>2026-04-19T16:03:51.837Z</time></trkpt><trkpt lat="44.35531572618257" lon="9.863938189482791"><ele>438.33333333333337</ele><time>2026-04-19T16:03:52.837Z</time></trkpt><trkpt lat="44.35531970298522" lon="9.863841588598222"><ele>439.0</ele><time>2026-04-19T16:03:53.837Z</time></trkpt><trkpt lat="44.355320338712566" lon="9.863751154076231"><ele>439.0</ele><time>2026-04-19T16:03:54.837Z</time></trkpt><trkpt lat="44.35530027062094" lon="9.863590314263957"><ele>439.0</ele><time>2026-04-19T16:03:56.837Z</time></trkpt><trkpt lat="44.35528231951236" lon="9.863428346894635"><ele>439.0</ele><time>2026-04-19T16:03:58.837Z</time></trkpt><trkpt lat="44.3552852920422" lon="9.86331326198109"><ele>439.0</ele><time>2026-04-19T16:04:00.837Z</time></trkpt><trkpt lat="44.35534487626041" lon="9.863250633367649"><ele>439.0</ele><time>2026-04-19T16:04:03.837Z</time></trkpt><trkpt lat="44.35539667491942" lon="9.863333402052286"><ele>439.0</ele><time>2026-04-19T16:04:05.837Z</time></trkpt><trkpt lat="44.355449457234094" lon="9.863494617290035"><ele>439.0</ele><time>2026-04-19T16:04:07.837Z</time></trkpt><trkpt lat="44.3555165889332" lon="9.863653325486567"><ele>439.0</ele><time>2026-04-19T16:04:09.837Z</time></trkpt><trkpt lat="44.35555704549964" lon="9.863771746675981"><ele>439.0</ele><time>2026-04-19T16:04:10.837Z</time></trkpt><trkpt lat="44.35556658937709" lon="9.863869763593929"><ele>439.0</ele><time>2026-04-19T16:04:11.837Z</time></trkpt><trkpt lat="44.355597628756456" lon="9.86403654231987"><ele>436.33333333333337</ele><time>2026-04-19T16:04:13.837Z</time></trkpt><trkpt lat="44.35562299095932" lon="9.864131918314289"><ele>433.6666666666667</ele><time>2026-04-19T16:04:14.837Z</time></trkpt><trkpt lat="44.355652077139375" lon="9.864237138914737"><ele>431.0</ele><time>2026-04-19T16:04:15.837Z</time></trkpt><trkpt lat="44.35566965938004" lon="9.864360679257326"><ele>428.33333333333337</ele><time>2026-04-19T16:04:16.837Z</time></trkpt><trkpt lat="44.35568778026126" lon="9.86447249516919"><ele>425.6666666666667</ele><time>2026-04-19T16:04:17.837Z</time></trkpt><trkpt lat="44.35571372371782" lon="9.864565024267153"><ele>423.0</ele><time>2026-04-19T16:04:18.837Z</time></trkpt><trkpt lat="44.355757582586115" lon="9.864718582437463"><ele>420.2</ele><time>2026-04-19T16:04:20.837Z</time></trkpt><trkpt lat="44.35580342067064" lon="9.86481763146367"><ele>417.4</ele><time>2026-04-19T16:04:21.837Z</time></trkpt><trkpt lat="44.355853465006014" lon="9.864913758009301"><ele>414.59999999999997</ele><time>2026-04-19T16:04:22.837Z</time></trkpt><trkpt lat="44.355911349058644" lon="9.865039827798206"><ele>411.79999999999995</ele><time>2026-04-19T16:04:23.835Z</time></trkpt><trkpt lat="44.355974927656995" lon="9.865185830091008"><ele>409.0</ele><time>2026-04-19T16:04:24.835Z</time></trkpt><trkpt lat="44.35602988469091" lon="9.865330394265094"><ele>407.6</ele><time>2026-04-19T16:04:25.835Z</time></trkpt><trkpt lat="44.35608436222984" lon="9.865467069744199"><ele>406.2</ele><time>2026-04-19T16:04:26.835Z</time></trkpt><trkpt lat="44.35612788472205" lon="9.865598944843354"><ele>404.8</ele><time>2026-04-19T16:04:27.835Z</time></trkpt><trkpt lat="44.35615908762726" lon="9.865731921069434"><ele>403.40000000000003</ele><time>2026-04-19T16:04:28.835Z</time></trkpt><trkpt lat="44.35619723930962" lon="9.865854330419404"><ele>402.0</ele><time>2026-04-19T16:04:29.835Z</time></trkpt><trkpt lat="44.35622243755597" lon="9.865977361608424"><ele>401.3333333333333</ele><time>2026-04-19T16:04:30.835Z</time></trkpt><trkpt lat="44.356248341674544" lon="9.866094524734649"><ele>400.66666666666663</ele><time>2026-04-19T16:04:31.835Z</time></trkpt><trkpt lat="44.35627617638867" lon="9.866184850629262"><ele>400.0</ele><time>2026-04-19T16:04:32.835Z</time></trkpt><trkpt lat="44.35631664690584" lon="9.8662590950405"><ele>399.3333333333333</ele><time>2026-04-19T16:04:33.835Z</time></trkpt><trkpt lat="44.35643712922965" lon="9.866291554875781"><ele>398.66666666666663</ele><time>2026-04-19T16:04:35.834Z</time></trkpt><trkpt lat="44.3564981712174" lon="9.866245879919779"><ele>398.0</ele><time>2026-04-19T16:04:36.835Z</time></trkpt><trkpt lat="44.3565679496892" lon="9.866156408243791"><ele>398.0</ele><time>2026-04-19T16:04:37.835Z</time></trkpt><trkpt lat="44.356644351532225" lon="9.866076694733996"><ele>398.0</ele><time>2026-04-19T16:04:38.835Z</time></trkpt><trkpt lat="44.35671376173315" lon="9.865994756988513"><ele>398.0</ele><time>2026-04-19T16:04:39.835Z</time></trkpt><trkpt lat="44.356775178472724" lon="9.86593415518779"><ele>398.0</ele><time>2026-04-19T16:04:40.835Z</time></trkpt><trkpt lat="44.356842021168745" lon="9.86583144036157"><ele>398.0</ele><time>2026-04-19T16:04:42.835Z</time></trkpt><trkpt lat="44.356884639107996" lon="9.865708368589457"><ele>399.2</ele><time>2026-04-19T16:04:44.835Z</time></trkpt><trkpt lat="44.356936314792975" lon="9.8655325626926"><ele>400.4</ele><time>2026-04-19T16:04:46.835Z</time></trkpt><trkpt lat="44.35693489955995" lon="9.865394654407618"><ele>401.59999999999997</ele><time>2026-04-19T16:04:47.835Z</time></trkpt><trkpt lat="44.35695469444038" lon="9.86526755732235"><ele>402.79999999999995</ele><time>2026-04-19T16:04:48.835Z</time></trkpt><trkpt lat="44.35699172883256" lon="9.865147717766838"><ele>404.0</ele><time>2026-04-19T16:04:49.835Z</time></trkpt><trkpt lat="44.357031895112954" lon="9.865036393214487"><ele>404.8333333333333</ele><time>2026-04-19T16:04:50.835Z</time></trkpt><trkpt lat="44.35705727725945" lon="9.864938808504766"><ele>405.66666666666663</ele><time>2026-04-19T16:04:51.835Z</time></trkpt><trkpt lat="44.35709617053397" lon="9.864861466675919"><ele>406.5</ele><time>2026-04-19T16:04:52.835Z</time></trkpt><trkpt lat="44.357142417929325" lon="9.864747376981905"><ele>407.33333333333337</ele><time>2026-04-19T16:04:53.835Z</time></trkpt><trkpt lat="44.35718191413005" lon="9.864618358576708"><ele>408.1666666666667</ele><time>2026-04-19T16:04:54.835Z</time></trkpt><trkpt lat="44.35721965024054" lon="9.864487467071491"><ele>409.0</ele><time>2026-04-19T16:04:55.835Z</time></trkpt><trkpt lat="44.35725431595134" lon="9.864341156573719"><ele>403.6</ele><time>2026-04-19T16:04:56.835Z</time></trkpt><trkpt lat="44.3572906781585" lon="9.864195717134248"><ele>398.2</ele><time>2026-04-19T16:04:57.835Z</time></trkpt><trkpt lat="44.3573248221846" lon="9.864071848042684"><ele>392.8</ele><time>2026-04-19T16:04:58.835Z</time></trkpt><trkpt lat="44.357364895714085" lon="9.86397369134887"><ele>387.40000000000003</ele><time>2026-04-19T16:04:59.835Z</time></trkpt><trkpt lat="44.35741245831294" lon="9.863862654866228"><ele>382.0</ele><time>2026-04-19T16:05:00.835Z</time></trkpt><trkpt lat="44.35745991334951" lon="9.86374095985396"><ele>382.0</ele><time>2026-04-19T16:05:01.835Z</time></trkpt><trkpt lat="44.35748925825299" lon="9.863630689747941"><ele>382.0</ele><time>2026-04-19T16:05:02.835Z</time></trkpt><trkpt lat="44.35749928690554" lon="9.863525411382485"><ele>382.0</ele><time>2026-04-19T16:05:03.835Z</time></trkpt><trkpt lat="44.35747058838025" lon="9.863405841860962"><ele>382.0</ele><time>2026-04-19T16:05:04.835Z</time></trkpt><trkpt lat="44.35744599943917" lon="9.863302254557599"><ele>382.0</ele><time>2026-04-19T16:05:05.835Z</time></trkpt><trkpt lat="44.357433655692176" lon="9.86320843819051"><ele>382.0</ele><time>2026-04-19T16:05:06.835Z</time></trkpt><trkpt lat="44.35743940284015" lon="9.863096113627819"><ele>383.0</ele><time>2026-04-19T16:05:07.835Z</time></trkpt><trkpt lat="44.357484108315695" lon="9.862994400632997"><ele>384.0</ele><time>2026-04-19T16:05:08.835Z</time></trkpt><trkpt lat="44.35754697862319" lon="9.862932985109504"><ele>385.0</ele><time>2026-04-19T16:05:09.835Z</time></trkpt><trkpt lat="44.35761552124904" lon="9.862919088142064"><ele>386.0</ele><time>2026-04-19T16:05:10.835Z</time></trkpt><trkpt lat="44.35773064721828" lon="9.862976796546114"><ele>387.00000000000006</ele><time>2026-04-19T16:05:12.835Z</time></trkpt><trkpt lat="44.35776518997366" lon="9.863064035396965"><ele>388.0</ele><time>2026-04-19T16:05:13.835Z</time></trkpt><trkpt lat="44.35780116759096" lon="9.863142641703677"><ele>388.00000000000006</ele><time>2026-04-19T16:05:14.835Z</time></trkpt><trkpt lat="44.357819301567766" lon="9.863227426492598"><ele>388.0</ele><time>2026-04-19T16:05:15.835Z</time></trkpt><trkpt lat="44.35781009789316" lon="9.863331325874789"><ele>388.0</ele><time>2026-04-19T16:05:16.835Z</time></trkpt><trkpt lat="44.3577893169937" lon="9.863443566207902"><ele>388.0</ele><time>2026-04-19T16:05:17.835Z</time></trkpt><trkpt lat="44.35776430321945" lon="9.863559282688765"><ele>388.00000000000006</ele><time>2026-04-19T16:05:18.835Z</time></trkpt><trkpt lat="44.35773778630895" lon="9.863660745793995"><ele>388.0</ele><time>2026-04-19T16:05:19.835Z</time></trkpt><trkpt lat="44.35772241230284" lon="9.863768877660425"><ele>386.79999999999995</ele><time>2026-04-19T16:05:20.835Z</time></trkpt><trkpt lat="44.35770740545239" lon="9.863889668338034"><ele>385.6</ele><time>2026-04-19T16:05:21.835Z</time></trkpt><trkpt lat="44.3577012628872" lon="9.86402989253926"><ele>384.4</ele><time>2026-04-19T16:05:22.835Z</time></trkpt><trkpt lat="44.35770451247651" lon="9.864181634959136"><ele>383.20000000000005</ele><time>2026-04-19T16:05:23.835Z</time></trkpt><trkpt lat="44.357701001941614" lon="9.86433588888029"><ele>382.0</ele><time>2026-04-19T16:05:24.835Z</time></trkpt><trkpt lat="44.35770411738625" lon="9.864482663627"><ele>381.20000000000005</ele><time>2026-04-19T16:05:25.835Z</time></trkpt><trkpt lat="44.35770426508058" lon="9.864624585109034"><ele>380.4</ele><time>2026-04-19T16:05:26.835Z</time></trkpt><trkpt lat="44.35770411015078" lon="9.864773574812531"><ele>379.6</ele><time>2026-04-19T16:05:27.835Z</time></trkpt><trkpt lat="44.35771376558056" lon="9.864919672933564"><ele>378.79999999999995</ele><time>2026-04-19T16:05:28.835Z</time></trkpt><trkpt lat="44.357723792814966" lon="9.865064212437114"><ele>378.0</ele><time>2026-04-19T16:05:29.835Z</time></trkpt><trkpt lat="44.35774096181041" lon="9.865219925983864"><ele>377.5</ele><time>2026-04-19T16:05:30.835Z</time></trkpt><trkpt lat="44.35777233641147" lon="9.865351960099687"><ele>377.0</ele><time>2026-04-19T16:05:31.835Z</time></trkpt><trkpt lat="44.357799256929574" lon="9.865471778914015"><ele>376.5</ele><time>2026-04-19T16:05:32.835Z</time></trkpt><trkpt lat="44.35779974973327" lon="9.865584244590686"><ele>376.0</ele><time>2026-04-19T16:05:33.835Z</time></trkpt><trkpt lat="44.35777238995173" lon="9.8656852415991"><ele>375.5</ele><time>2026-04-19T16:05:34.835Z</time></trkpt><trkpt lat="44.35772571504001" lon="9.865795977096488"><ele>375.0</ele><time>2026-04-19T16:05:35.835Z</time></trkpt><trkpt lat="44.3576802975431" lon="9.865922483329939"><ele>373.2</ele><time>2026-04-19T16:05:36.835Z</time></trkpt><trkpt lat="44.35765807413109" lon="9.866051154967007"><ele>371.4</ele><time>2026-04-19T16:05:37.835Z</time></trkpt><trkpt lat="44.35765593103159" lon="9.866191598606584"><ele>369.6</ele><time>2026-04-19T16:05:38.835Z</time></trkpt><trkpt lat="44.35767675009774" lon="9.866320909417016"><ele>367.8</ele><time>2026-04-19T16:05:39.835Z</time></trkpt><trkpt lat="44.357691934221556" lon="9.866462939566448"><ele>366.0</ele><time>2026-04-19T16:05:40.835Z</time></trkpt><trkpt lat="44.357702070024295" lon="9.866601763603459"><ele>366.0</ele><time>2026-04-19T16:05:41.835Z</time></trkpt><trkpt lat="44.35770519984558" lon="9.86672446098112"><ele>366.0</ele><time>2026-04-19T16:05:42.835Z</time></trkpt><trkpt lat="44.35770491958318" lon="9.866844394055006"><ele>366.0</ele><time>2026-04-19T16:05:43.835Z</time></trkpt><trkpt lat="44.35769632520444" lon="9.866956756494975"><ele>366.0</ele><time>2026-04-19T16:05:44.835Z</time></trkpt><trkpt lat="44.357666204748455" lon="9.86706229047663"><ele>366.0</ele><time>2026-04-19T16:05:45.835Z</time></trkpt><trkpt lat="44.357600273051666" lon="9.867148524685737"><ele>366.0</ele><time>2026-04-19T16:05:46.835Z</time></trkpt><trkpt lat="44.35751630753837" lon="9.86723969384746"><ele>363.4</ele><time>2026-04-19T16:05:47.835Z</time></trkpt><trkpt lat="44.357444704990165" lon="9.867334621723803"><ele>360.8</ele><time>2026-04-19T16:05:48.835Z</time></trkpt><trkpt lat="44.357392784851214" lon="9.867476962632892"><ele>358.2</ele><time>2026-04-19T16:05:49.835Z</time></trkpt><trkpt lat="44.35735757362266" lon="9.867615776379107"><ele>355.59999999999997</ele><time>2026-04-19T16:05:50.835Z</time></trkpt><trkpt lat="44.357322323302576" lon="9.867743756633866"><ele>353.0</ele><time>2026-04-19T16:05:51.835Z</time></trkpt><trkpt lat="44.3572852600527" lon="9.867870054710782"><ele>351.2</ele><time>2026-04-19T16:05:52.835Z</time></trkpt><trkpt lat="44.35725756132618" lon="9.867997191839828"><ele>349.4</ele><time>2026-04-19T16:05:53.835Z</time></trkpt><trkpt lat="44.35725462987033" lon="9.868135455599148"><ele>347.59999999999997</ele><time>2026-04-19T16:05:54.835Z</time></trkpt><trkpt lat="44.357260218730744" lon="9.86829337764457"><ele>345.79999999999995</ele><time>2026-04-19T16:05:55.835Z</time></trkpt><trkpt lat="44.357263088257234" lon="9.868464839006734"><ele>344.0</ele><time>2026-04-19T16:05:56.835Z</time></trkpt><trkpt lat="44.35728325545491" lon="9.868650426318556"><ele>343.4</ele><time>2026-04-19T16:05:57.835Z</time></trkpt><trkpt lat="44.35728798867976" lon="9.86882123303156"><ele>342.79999999999995</ele><time>2026-04-19T16:05:58.835Z</time></trkpt><trkpt lat="44.35729129910809" lon="9.868978699169396"><ele>342.20000000000005</ele><time>2026-04-19T16:05:59.835Z</time></trkpt><trkpt lat="44.35727661365777" lon="9.869113416558907"><ele>341.6</ele><time>2026-04-19T16:06:00.835Z</time></trkpt><trkpt lat="44.35729301935894" lon="9.869212737447572"><ele>341.0</ele><time>2026-04-19T16:06:01.835Z</time></trkpt><trkpt lat="44.35732512418605" lon="9.869356113842446"><ele>341.0</ele><time>2026-04-19T16:06:03.835Z</time></trkpt><trkpt lat="44.357390683376316" lon="9.869423525836151"><ele>341.0</ele><time>2026-04-19T16:06:04.835Z</time></trkpt><trkpt lat="44.35745484263362" lon="9.86945251030036"><ele>341.0</ele><time>2026-04-19T16:06:05.835Z</time></trkpt><trkpt lat="44.35756646734644" lon="9.869376160745029"><ele>341.0</ele><time>2026-04-19T16:06:07.835Z</time></trkpt><trkpt lat="44.35760240058028" lon="9.869286764779398"><ele>341.0</ele><time>2026-04-19T16:06:08.835Z</time></trkpt><trkpt lat="44.357612940034" lon="9.86918801703675"><ele>341.0</ele><time>2026-04-19T16:06:09.835Z</time></trkpt><trkpt lat="44.35760215155786" lon="9.86906866621863"><ele>340.8</ele><time>2026-04-19T16:06:10.835Z</time></trkpt><trkpt lat="44.35760642161497" lon="9.868975263149885"><ele>340.6</ele><time>2026-04-19T16:06:11.835Z</time></trkpt><trkpt lat="44.35763733769045" lon="9.868747933102764"><ele>340.4</ele><time>2026-04-19T16:06:13.835Z</time></trkpt><trkpt lat="44.35767071703489" lon="9.868611464437196"><ele>340.2</ele><time>2026-04-19T16:06:14.835Z</time></trkpt><trkpt lat="44.3577245603593" lon="9.868498703578354"><ele>340.0</ele><time>2026-04-19T16:06:15.835Z</time></trkpt><trkpt lat="44.357799311695445" lon="9.86838320213264"><ele>340.8</ele><time>2026-04-19T16:06:16.835Z</time></trkpt><trkpt lat="44.357884817824406" lon="9.868275112080303"><ele>341.6</ele><time>2026-04-19T16:06:17.835Z</time></trkpt><trkpt lat="44.35796440200562" lon="9.868159603706397"><ele>342.4</ele><time>2026-04-19T16:06:18.835Z</time></trkpt><trkpt lat="44.358040827993364" lon="9.868046744837228"><ele>343.2</ele><time>2026-04-19T16:06:19.835Z</time></trkpt><trkpt lat="44.35811621296636" lon="9.867946453682114"><ele>344.0</ele><time>2026-04-19T16:06:20.835Z</time></trkpt><trkpt lat="44.358190513510365" lon="9.867850586325583"><ele>339.2</ele><time>2026-04-19T16:06:21.835Z</time></trkpt><trkpt lat="44.35827323960558" lon="9.867766966004549"><ele>334.4</ele><time>2026-04-19T16:06:22.835Z</time></trkpt><trkpt lat="44.35836913686498" lon="9.867705118334811"><ele>329.6</ele><time>2026-04-19T16:06:23.835Z</time></trkpt><trkpt lat="44.35848125093834" lon="9.867687554910745"><ele>324.8</ele><time>2026-04-19T16:06:24.835Z</time></trkpt><trkpt lat="44.358598686248214" lon="9.86770397883613"><ele>320.0</ele><time>2026-04-19T16:06:25.835Z</time></trkpt><trkpt lat="44.358719503810875" lon="9.867740199126464"><ele>320.0</ele><time>2026-04-19T16:06:26.835Z</time></trkpt><trkpt lat="44.35883946165299" lon="9.867762528257872"><ele>320.0</ele><time>2026-04-19T16:06:27.835Z</time></trkpt><trkpt lat="44.35896212165317" lon="9.867783002892267"><ele>320.0</ele><time>2026-04-19T16:06:28.835Z</time></trkpt><trkpt lat="44.35907661022434" lon="9.867804851921024"><ele>320.0</ele><time>2026-04-19T16:06:29.833Z</time></trkpt><trkpt lat="44.35918152976502" lon="9.86782679813866"><ele>318.8</ele><time>2026-04-19T16:06:30.833Z</time></trkpt><trkpt lat="44.35927051118613" lon="9.86785312983244"><ele>317.6</ele><time>2026-04-19T16:06:31.833Z</time></trkpt><trkpt lat="44.35935691846297" lon="9.867906539716822"><ele>316.4</ele><time>2026-04-19T16:06:32.834Z</time></trkpt><trkpt lat="44.35942586306087" lon="9.867985640382507"><ele>315.2</ele><time>2026-04-19T16:06:33.833Z</time></trkpt><trkpt lat="44.35944863704701" lon="9.868103552365785"><ele>314.0</ele><time>2026-04-19T16:06:34.833Z</time></trkpt><trkpt lat="44.35947295167918" lon="9.868225405077517"><ele>314.0</ele><time>2026-04-19T16:06:35.834Z</time></trkpt><trkpt lat="44.35946318913917" lon="9.8683739897848"><ele>314.0</ele><time>2026-04-19T16:06:36.833Z</time></trkpt><trkpt lat="44.359469624814146" lon="9.868539659236223"><ele>314.0</ele><time>2026-04-19T16:06:37.833Z</time></trkpt><trkpt lat="44.35947431562039" lon="9.868710670011692"><ele>314.0</ele><time>2026-04-19T16:06:38.833Z</time></trkpt><trkpt lat="44.35948640336917" lon="9.868862734642212"><ele>313.4</ele><time>2026-04-19T16:06:39.833Z</time></trkpt><trkpt lat="44.35948751847988" lon="9.869003817406698"><ele>312.79999999999995</ele><time>2026-04-19T16:06:40.833Z</time></trkpt><trkpt lat="44.359487147604376" lon="9.86912604245375"><ele>312.20000000000005</ele><time>2026-04-19T16:06:41.833Z</time></trkpt><trkpt lat="44.35948767620229" lon="9.869268628887449"><ele>311.6</ele><time>2026-04-19T16:06:42.833Z</time></trkpt><trkpt lat="44.35946806651262" lon="9.869382412508603"><ele>311.0</ele><time>2026-04-19T16:06:43.833Z</time></trkpt><trkpt lat="44.359412416410585" lon="9.869490099260105"><ele>309.33333333333337</ele><time>2026-04-19T16:06:44.833Z</time></trkpt><trkpt lat="44.35935311026063" lon="9.869569792922897"><ele>307.6666666666667</ele><time>2026-04-19T16:06:45.833Z</time></trkpt><trkpt lat="44.359279156061284" lon="9.869604365039178"><ele>306.0</ele><time>2026-04-19T16:06:46.833Z</time></trkpt><trkpt lat="44.35920410123371" lon="9.869620361746831"><ele>304.3333333333333</ele><time>2026-04-19T16:06:47.833Z</time></trkpt><trkpt lat="44.35913820636421" lon="9.869626039910965"><ele>302.66666666666663</ele><time>2026-04-19T16:06:48.833Z</time></trkpt><trkpt lat="44.359075211555734" lon="9.869717151046249"><ele>301.0</ele><time>2026-04-19T16:06:50.833Z</time></trkpt><trkpt lat="44.35906653998747" lon="9.869811350110853"><ele>301.0</ele><time>2026-04-19T16:06:51.833Z</time></trkpt><trkpt lat="44.3591044694002" lon="9.869918635831938"><ele>301.0</ele><time>2026-04-19T16:06:52.833Z</time></trkpt><trkpt lat="44.35916220714568" lon="9.870005763405361"><ele>301.0</ele><time>2026-04-19T16:06:53.833Z</time></trkpt><trkpt lat="44.359231582649926" lon="9.870083230869206"><ele>301.0</ele><time>2026-04-19T16:06:54.833Z</time></trkpt><trkpt lat="44.35929654386134" lon="9.870148200786053"><ele>301.0</ele><time>2026-04-19T16:06:55.833Z</time></trkpt><trkpt lat="44.3593496351261" lon="9.87025394828973"><ele>301.0</ele><time>2026-04-19T16:06:57.833Z</time></trkpt><trkpt lat="44.359291350263355" lon="9.870340626805897"><ele>299.16666666666663</ele><time>2026-04-19T16:06:59.833Z</time></trkpt><trkpt lat="44.3592116830808" lon="9.87034150580147"><ele>297.3333333333333</ele><time>2026-04-19T16:07:00.833Z</time></trkpt><trkpt lat="44.35914652648783" lon="9.870372441172808"><ele>295.5</ele><time>2026-04-19T16:07:01.833Z</time></trkpt><trkpt lat="44.359078583661535" lon="9.870450055655295"><ele>293.6666666666667</ele><time>2026-04-19T16:07:02.833Z</time></trkpt><trkpt lat="44.359020555096635" lon="9.870548851148856"><ele>291.83333333333337</ele><time>2026-04-19T16:07:03.833Z</time></trkpt><trkpt lat="44.358965153305846" lon="9.870668267850066"><ele>290.0</ele><time>2026-04-19T16:07:04.833Z</time></trkpt><trkpt lat="44.35892328804666" lon="9.870790065299623"><ele>290.0</ele><time>2026-04-19T16:07:05.833Z</time></trkpt><trkpt lat="44.35887652881251" lon="9.870886196239798"><ele>290.0</ele><time>2026-04-19T16:07:06.833Z</time></trkpt><trkpt lat="44.35882199048026" lon="9.870975863446546"><ele>290.0</ele><time>2026-04-19T16:07:07.833Z</time></trkpt><trkpt lat="44.35874899665444" lon="9.871029153818313"><ele>290.0</ele><time>2026-04-19T16:07:08.833Z</time></trkpt><trkpt lat="44.35867704870567" lon="9.871063560128215"><ele>290.0</ele><time>2026-04-19T16:07:09.833Z</time></trkpt><trkpt lat="44.358625304941505" lon="9.871128289464322"><ele>290.0</ele><time>2026-04-19T16:07:10.833Z</time></trkpt><trkpt lat="44.3586026879857" lon="9.871246656617416"><ele>291.25</ele><time>2026-04-19T16:07:11.833Z</time></trkpt><trkpt lat="44.35859736009159" lon="9.87138512178908"><ele>292.5</ele><time>2026-04-19T16:07:12.833Z</time></trkpt><trkpt lat="44.35860673839435" lon="9.871532754651545"><ele>293.75</ele><time>2026-04-19T16:07:13.833Z</time></trkpt><trkpt lat="44.35861806630799" lon="9.871702476525913"><ele>295.0</ele><time>2026-04-19T16:07:14.833Z</time></trkpt><trkpt lat="44.35863070336822" lon="9.87187494723202"><ele>295.0</ele><time>2026-04-19T16:07:15.833Z</time></trkpt><trkpt lat="44.35864550631483" lon="9.872038374337892"><ele>295.0</ele><time>2026-04-19T16:07:16.833Z</time></trkpt><trkpt lat="44.358655588582394" lon="9.872192140092173"><ele>295.0</ele><time>2026-04-19T16:07:17.833Z</time></trkpt><trkpt lat="44.35867068678141" lon="9.872335474016428"><ele>295.0</ele><time>2026-04-19T16:07:18.833Z</time></trkpt><trkpt lat="44.3586991223878" lon="9.872472916600751"><ele>295.0</ele><time>2026-04-19T16:07:19.833Z</time></trkpt><trkpt lat="44.35875427996171" lon="9.872603683729626"><ele>294.8</ele><time>2026-04-19T16:07:20.833Z</time></trkpt><trkpt lat="44.35882948223735" lon="9.872718221000046"><ele>294.6</ele><time>2026-04-19T16:07:21.833Z</time></trkpt><trkpt lat="44.358926094374965" lon="9.872816899573342"><ele>294.4</ele><time>2026-04-19T16:07:22.833Z</time></trkpt><trkpt lat="44.35901384902602" lon="9.87291304107842"><ele>294.2</ele><time>2026-04-19T16:07:23.834Z</time></trkpt><trkpt lat="44.359094968519834" lon="9.873003216713693"><ele>294.0</ele><time>2026-04-19T16:07:24.834Z</time></trkpt><trkpt lat="44.35917088867201" lon="9.873085442250503"><ele>289.4</ele><time>2026-04-19T16:07:25.834Z</time></trkpt><trkpt lat="44.359240992801894" lon="9.873173563426386"><ele>284.79999999999995</ele><time>2026-04-19T16:07:26.834Z</time></trkpt><trkpt lat="44.35930007570877" lon="9.873271238412443"><ele>280.20000000000005</ele><time>2026-04-19T16:07:27.834Z</time></trkpt><trkpt lat="44.35933733699424" lon="9.873382544132822"><ele>275.6</ele><time>2026-04-19T16:07:28.834Z</time></trkpt><trkpt lat="44.35935391932042" lon="9.873495863854586"><ele>271.0</ele><time>2026-04-19T16:07:29.834Z</time></trkpt><trkpt lat="44.35936726043332" lon="9.873625047910558"><ele>270.25</ele><time>2026-04-19T16:07:30.834Z</time></trkpt><trkpt lat="44.35937440833611" lon="9.873787035552965"><ele>269.5</ele><time>2026-04-19T16:07:31.834Z</time></trkpt><trkpt lat="44.35938187407014" lon="9.873983520486426"><ele>268.75</ele><time>2026-04-19T16:07:32.834Z</time></trkpt><trkpt lat="44.359390189914855" lon="9.874217359534644"><ele>268.0</ele><time>2026-04-19T16:07:33.834Z</time></trkpt><trkpt lat="44.35940057251901" lon="9.874464053689117"><ele>265.3333333333333</ele><time>2026-04-19T16:07:34.834Z</time></trkpt><trkpt lat="44.35939150191899" lon="9.874724688296759"><ele>262.6666666666667</ele><time>2026-04-19T16:07:35.834Z</time></trkpt><trkpt lat="44.35937548467966" lon="9.874970202378194"><ele>260.0</ele><time>2026-04-19T16:07:36.834Z</time></trkpt><trkpt lat="44.35937179046119" lon="9.87519271533305"><ele>259.25</ele><time>2026-04-19T16:07:37.834Z</time></trkpt><trkpt lat="44.35937713655701" lon="9.875394935898653"><ele>258.5</ele><time>2026-04-19T16:07:38.834Z</time></trkpt><trkpt lat="44.35938652727909" lon="9.875575750551606"><ele>257.75</ele><time>2026-04-19T16:07:39.834Z</time></trkpt><trkpt lat="44.35940275579087" lon="9.875749506932692"><ele>257.0</ele><time>2026-04-19T16:07:40.834Z</time></trkpt><trkpt lat="44.359441233180384" lon="9.875903792919557"><ele>255.5</ele><time>2026-04-19T16:07:41.834Z</time></trkpt><trkpt lat="44.359484650194496" lon="9.87605377866901"><ele>254.0</ele><time>2026-04-19T16:07:42.834Z</time></trkpt><trkpt lat="44.35953574858314" lon="9.876215418631558"><ele>252.5</ele><time>2026-04-19T16:07:43.834Z</time></trkpt><trkpt lat="44.35959725111702" lon="9.876373609586011"><ele>251.0</ele><time>2026-04-19T16:07:44.834Z</time></trkpt><trkpt lat="44.35964715247487" lon="9.876525729007305"><ele>251.0</ele><time>2026-04-19T16:07:45.834Z</time></trkpt><trkpt lat="44.35967354944201" lon="9.876678102771566"><ele>251.00000000000003</ele><time>2026-04-19T16:07:46.834Z</time></trkpt><trkpt lat="44.359662207303806" lon="9.876816459657164"><ele>251.00000000000003</ele><time>2026-04-19T16:07:47.834Z</time></trkpt><trkpt lat="44.359622799586205" lon="9.876936331394127"><ele>251.0</ele><time>2026-04-19T16:07:48.834Z</time></trkpt><trkpt lat="44.35958526435553" lon="9.877054163991492"><ele>251.0</ele><time>2026-04-19T16:07:49.834Z</time></trkpt><trkpt lat="44.359590386030504" lon="9.877172819779625"><ele>251.50000000000003</ele><time>2026-04-19T16:07:50.834Z</time></trkpt><trkpt lat="44.359618232928185" lon="9.8772691794836"><ele>252.0</ele><time>2026-04-19T16:07:51.834Z</time></trkpt><trkpt lat="44.359652219487195" lon="9.877357912545776"><ele>252.5</ele><time>2026-04-19T16:07:52.834Z</time></trkpt><trkpt lat="44.359698622527304" lon="9.877469846295835"><ele>253.0</ele><time>2026-04-19T16:07:53.834Z</time></trkpt><trkpt lat="44.35974584083951" lon="9.877573959915788"><ele>253.50000000000003</ele><time>2026-04-19T16:07:54.834Z</time></trkpt><trkpt lat="44.359794308234896" lon="9.877685123729062"><ele>254.0</ele><time>2026-04-19T16:07:55.834Z</time></trkpt><trkpt lat="44.35984540411777" lon="9.87779965656216"><ele>250.79999999999998</ele><time>2026-04-19T16:07:56.834Z</time></trkpt><trkpt lat="44.35990509570202" lon="9.877919994854054"><ele>247.59999999999997</ele><time>2026-04-19T16:07:57.834Z</time></trkpt><trkpt lat="44.359961315006394" lon="9.87805084745924"><ele>244.4</ele><time>2026-04-19T16:07:58.834Z</time></trkpt><trkpt lat="44.360021551709636" lon="9.878178245448373"><ele>241.2</ele><time>2026-04-19T16:07:59.834Z</time></trkpt><trkpt lat="44.36008296111007" lon="9.8783052141677"><ele>238.0</ele><time>2026-04-19T16:08:00.834Z</time></trkpt><trkpt lat="44.360149939665746" lon="9.878434563906064"><ele>237.75</ele><time>2026-04-19T16:08:01.834Z</time></trkpt><trkpt lat="44.36021632488264" lon="9.87856443716765"><ele>237.5</ele><time>2026-04-19T16:08:02.834Z</time></trkpt><trkpt lat="44.36028814359838" lon="9.878679618654251"><ele>237.25</ele><time>2026-04-19T16:08:03.834Z</time></trkpt><trkpt lat="44.36038137464091" lon="9.878770441363889"><ele>237.0</ele><time>2026-04-19T16:08:04.834Z</time></trkpt><trkpt lat="44.36048533795806" lon="9.878847338719787"><ele>235.6</ele><time>2026-04-19T16:08:05.834Z</time></trkpt><trkpt lat="44.36057865855411" lon="9.878918134291105"><ele>234.2</ele><time>2026-04-19T16:08:06.834Z</time></trkpt><trkpt lat="44.36066197807292" lon="9.878991055749058"><ele>232.8</ele><time>2026-04-19T16:08:07.834Z</time></trkpt><trkpt lat="44.360734603390185" lon="9.879074240844368"><ele>231.4</ele><time>2026-04-19T16:08:08.834Z</time></trkpt><trkpt lat="44.36079646562783" lon="9.87918222567559"><ele>230.0</ele><time>2026-04-19T16:08:09.834Z</time></trkpt><trkpt lat="44.36082508087917" lon="9.879330276647211"><ele>229.75</ele><time>2026-04-19T16:08:10.834Z</time></trkpt><trkpt lat="44.36082213191947" lon="9.879512314030459"><ele>229.5</ele><time>2026-04-19T16:08:11.834Z</time></trkpt><trkpt lat="44.360812110795926" lon="9.879702651335606"><ele>229.25</ele><time>2026-04-19T16:08:12.834Z</time></trkpt><trkpt lat="44.360792670169815" lon="9.879893220718749"><ele>229.0</ele><time>2026-04-19T16:08:13.834Z</time></trkpt><trkpt lat="44.36078503071765" lon="9.880077321801853"><ele>229.2</ele><time>2026-04-19T16:08:14.834Z</time></trkpt><trkpt lat="44.36078216403472" lon="9.880242890698254"><ele>229.39999999999998</ele><time>2026-04-19T16:08:15.834Z</time></trkpt><trkpt lat="44.36078404864139" lon="9.880396809373083"><ele>229.6</ele><time>2026-04-19T16:08:16.834Z</time></trkpt><trkpt lat="44.36079955526729" lon="9.880539857668845"><ele>229.8</ele><time>2026-04-19T16:08:17.834Z</time></trkpt><trkpt lat="44.36082679917784" lon="9.880685057640145"><ele>230.0</ele><time>2026-04-19T16:08:18.834Z</time></trkpt><trkpt lat="44.36089465822212" lon="9.880841269254095"><ele>232.25</ele><time>2026-04-19T16:08:19.834Z</time></trkpt><trkpt lat="44.36096989440522" lon="9.880998774341561"><ele>234.5</ele><time>2026-04-19T16:08:20.834Z</time></trkpt><trkpt lat="44.36104173957696" lon="9.881154372804046"><ele>236.75</ele><time>2026-04-19T16:08:21.834Z</time></trkpt><trkpt lat="44.36111231418933" lon="9.881308206336033"><ele>239.0</ele><time>2026-04-19T16:08:22.834Z</time></trkpt><trkpt lat="44.36118227493489" lon="9.88145950681623"><ele>239.0</ele><time>2026-04-19T16:08:23.834Z</time></trkpt><trkpt lat="44.36123823825201" lon="9.881596674318155"><ele>239.0</ele><time>2026-04-19T16:08:24.834Z</time></trkpt><trkpt lat="44.361288798094385" lon="9.881747101271799"><ele>239.0</ele><time>2026-04-19T16:08:25.834Z</time></trkpt><trkpt lat="44.3613310080739" lon="9.881904390930162"><ele>239.0</ele><time>2026-04-19T16:08:26.834Z</time></trkpt><trkpt lat="44.36136304303191" lon="9.882067122963957"><ele>236.5</ele><time>2026-04-19T16:08:27.834Z</time></trkpt><trkpt lat="44.36137271611321" lon="9.88225067271085"><ele>234.0</ele><time>2026-04-19T16:08:28.834Z</time></trkpt><trkpt lat="44.36139386718357" lon="9.88242270853103"><ele>231.5</ele><time>2026-04-19T16:08:29.834Z</time></trkpt><trkpt lat="44.36142267750254" lon="9.882590617690884"><ele>229.0</ele><time>2026-04-19T16:08:30.834Z</time></trkpt><trkpt lat="44.361460051062764" lon="9.88275132835274"><ele>228.0</ele><time>2026-04-19T16:08:31.834Z</time></trkpt><trkpt lat="44.36150887374992" lon="9.882918703496387"><ele>227.0</ele><time>2026-04-19T16:08:32.834Z</time></trkpt><trkpt lat="44.3615589011204" lon="9.883079190823139"><ele>226.0</ele><time>2026-04-19T16:08:33.834Z</time></trkpt><trkpt lat="44.361612942078885" lon="9.883245134640946"><ele>225.0</ele><time>2026-04-19T16:08:34.834Z</time></trkpt><trkpt lat="44.36167156953359" lon="9.8834103803022"><ele>224.75</ele><time>2026-04-19T16:08:35.832Z</time></trkpt><trkpt lat="44.36170857229735" lon="9.88359364817654"><ele>224.5</ele><time>2026-04-19T16:08:36.832Z</time></trkpt><trkpt lat="44.36176418837592" lon="9.88376766743243"><ele>224.25</ele><time>2026-04-19T16:08:37.832Z</time></trkpt><trkpt lat="44.361814765806585" lon="9.88392609462753"><ele>224.0</ele><time>2026-04-19T16:08:38.832Z</time></trkpt><trkpt lat="44.361855389170536" lon="9.884074941341677"><ele>224.0</ele><time>2026-04-19T16:08:39.831Z</time></trkpt><trkpt lat="44.36188161619032" lon="9.884227978563478"><ele>224.0</ele><time>2026-04-19T16:08:40.831Z</time></trkpt><trkpt lat="44.36189631011792" lon="9.8843907362207"><ele>224.0</ele><time>2026-04-19T16:08:41.832Z</time></trkpt><trkpt lat="44.36192574747798" lon="9.884578736110988"><ele>224.0</ele><time>2026-04-19T16:08:42.832Z</time></trkpt><trkpt lat="44.36196619039004" lon="9.884768909899915"><ele>224.75</ele><time>2026-04-19T16:08:43.832Z</time></trkpt><trkpt lat="44.36200909467097" lon="9.884940456685644"><ele>225.5</ele><time>2026-04-19T16:08:44.831Z</time></trkpt><trkpt lat="44.36205241234002" lon="9.885109039727173"><ele>226.25</ele><time>2026-04-19T16:08:45.831Z</time></trkpt><trkpt lat="44.362111869985036" lon="9.88523541023987"><ele>227.0</ele><time>2026-04-19T16:08:46.831Z</time></trkpt><trkpt lat="44.362145911163985" lon="9.885362539014508"><ele>227.5</ele><time>2026-04-19T16:08:47.832Z</time></trkpt><trkpt lat="44.36217681831271" lon="9.885478367614743"><ele>228.0</ele><time>2026-04-19T16:08:48.832Z</time></trkpt><trkpt lat="44.36219332449573" lon="9.885614827356253"><ele>228.5</ele><time>2026-04-19T16:08:49.832Z</time></trkpt><trkpt lat="44.3622423152878" lon="9.885771657860369"><ele>229.0</ele><time>2026-04-19T16:08:50.832Z</time></trkpt><trkpt lat="44.36228082909916" lon="9.885960406232389"><ele>227.5</ele><time>2026-04-19T16:08:51.832Z</time></trkpt><trkpt lat="44.36230507693911" lon="9.88615990914582"><ele>226.0</ele><time>2026-04-19T16:08:52.832Z</time></trkpt><trkpt lat="44.362351171445006" lon="9.886346948503961"><ele>224.5</ele><time>2026-04-19T16:08:53.832Z</time></trkpt><trkpt lat="44.3623888782994" lon="9.88651469904196"><ele>223.0</ele><time>2026-04-19T16:08:54.832Z</time></trkpt><trkpt lat="44.36241225576474" lon="9.886656939035339"><ele>223.75</ele><time>2026-04-19T16:08:55.832Z</time></trkpt><trkpt lat="44.36240565619042" lon="9.886808444691985"><ele>224.5</ele><time>2026-04-19T16:08:56.832Z</time></trkpt><trkpt lat="44.36239217057349" lon="9.886986999220735"><ele>225.25</ele><time>2026-04-19T16:08:57.832Z</time></trkpt><trkpt lat="44.362375471354106" lon="9.887186228823577"><ele>226.0</ele><time>2026-04-19T16:08:58.832Z</time></trkpt><trkpt lat="44.362373701581774" lon="9.887389687058715"><ele>226.0</ele><time>2026-04-19T16:08:59.832Z</time></trkpt><trkpt lat="44.36235174595512" lon="9.887593355901062"><ele>226.0</ele><time>2026-04-19T16:09:00.832Z</time></trkpt><trkpt lat="44.362323955186916" lon="9.887808274916802"><ele>226.0</ele><time>2026-04-19T16:09:01.832Z</time></trkpt><trkpt lat="44.36231319975009" lon="9.888015652564365"><ele>224.25</ele><time>2026-04-19T16:09:02.832Z</time></trkpt><trkpt lat="44.36231450559552" lon="9.88821618064904"><ele>222.5</ele><time>2026-04-19T16:09:03.832Z</time></trkpt><trkpt lat="44.36230098290129" lon="9.888409307003437"><ele>220.75</ele><time>2026-04-19T16:09:04.832Z</time></trkpt><trkpt lat="44.36229607810965" lon="9.888590326305593"><ele>219.0</ele><time>2026-04-19T16:09:05.832Z</time></trkpt><trkpt lat="44.3622848785984" lon="9.888775404234037"><ele>218.0</ele><time>2026-04-19T16:09:06.832Z</time></trkpt><trkpt lat="44.36227883337115" lon="9.888941341659361"><ele>217.0</ele><time>2026-04-19T16:09:07.832Z</time></trkpt><trkpt lat="44.3622551048059" lon="9.889091560033327"><ele>216.0</ele><time>2026-04-19T16:09:08.832Z</time></trkpt><trkpt lat="44.36223761677302" lon="9.889240846011129"><ele>215.0</ele><time>2026-04-19T16:09:09.832Z</time></trkpt><trkpt lat="44.36219203179258" lon="9.889391729800005"><ele>219.5</ele><time>2026-04-19T16:09:10.832Z</time></trkpt><trkpt lat="44.36213056822513" lon="9.88954184444786"><ele>224.0</ele><time>2026-04-19T16:09:11.832Z</time></trkpt><trkpt lat="44.3620661114685" lon="9.889706208756953"><ele>228.5</ele><time>2026-04-19T16:09:12.832Z</time></trkpt><trkpt lat="44.36197676862441" lon="9.889840397846978"><ele>233.0</ele><time>2026-04-19T16:09:13.832Z</time></trkpt><trkpt lat="44.36188101556563" lon="9.889956310339786"><ele>233.0</ele><time>2026-04-19T16:09:14.832Z</time></trkpt><trkpt lat="44.36178719106842" lon="9.8900815535051"><ele>233.0</ele><time>2026-04-19T16:09:15.832Z</time></trkpt><trkpt lat="44.36167405891706" lon="9.890177567452605"><ele>233.0</ele><time>2026-04-19T16:09:16.832Z</time></trkpt><trkpt lat="44.36156887357649" lon="9.890280576229898"><ele>233.0</ele><time>2026-04-19T16:09:17.832Z</time></trkpt><trkpt lat="44.361475250156545" lon="9.890369469287116"><ele>229.0</ele><time>2026-04-19T16:09:18.832Z</time></trkpt><trkpt lat="44.36128286090229" lon="9.890535501613718"><ele>225.0</ele><time>2026-04-19T16:09:20.832Z</time></trkpt><trkpt lat="44.3611741279602" lon="9.890628033707968"><ele>221.0</ele><time>2026-04-19T16:09:21.832Z</time></trkpt><trkpt lat="44.36105973227069" lon="9.89069823940515"><ele>221.0</ele><time>2026-04-19T16:09:22.832Z</time></trkpt><trkpt lat="44.36095010721659" lon="9.89079026378996"><ele>221.0</ele><time>2026-04-19T16:09:23.832Z</time></trkpt><trkpt lat="44.360836155986874" lon="9.890875851047355"><ele>221.0</ele><time>2026-04-19T16:09:24.832Z</time></trkpt><trkpt lat="44.36071607876265" lon="9.89094863204433"><ele>221.0</ele><time>2026-04-19T16:09:25.832Z</time></trkpt><trkpt lat="44.360596617987575" lon="9.891034183151225"><ele>220.75</ele><time>2026-04-19T16:09:26.832Z</time></trkpt><trkpt lat="44.36047390282554" lon="9.891121112736174"><ele>220.5</ele><time>2026-04-19T16:09:27.832Z</time></trkpt><trkpt lat="44.360349315117624" lon="9.891200638994988"><ele>220.25</ele><time>2026-04-19T16:09:28.832Z</time></trkpt><trkpt lat="44.360225671175144" lon="9.8912884219788"><ele>220.0</ele><time>2026-04-19T16:09:29.832Z</time></trkpt><trkpt lat="44.36010599141796" lon="9.891374054477007"><ele>220.0</ele><time>2026-04-19T16:09:30.832Z</time></trkpt><trkpt lat="44.359986600942925" lon="9.89146029264713"><ele>220.0</ele><time>2026-04-19T16:09:31.832Z</time></trkpt><trkpt lat="44.35987148777375" lon="9.891553027672298"><ele>220.0</ele><time>2026-04-19T16:09:32.832Z</time></trkpt><trkpt lat="44.35976500886488" lon="9.891668063570085"><ele>220.0</ele><time>2026-04-19T16:09:33.832Z</time></trkpt><trkpt lat="44.35966699271052" lon="9.891796876099674"><ele>222.0</ele><time>2026-04-19T16:09:34.832Z</time></trkpt><trkpt lat="44.35957679091965" lon="9.891946674392646"><ele>224.0</ele><time>2026-04-19T16:09:35.832Z</time></trkpt><trkpt lat="44.35949040449127" lon="9.892091326769794"><ele>226.0</ele><time>2026-04-19T16:09:36.832Z</time></trkpt><trkpt lat="44.35940506234919" lon="9.892226978503281"><ele>228.0</ele><time>2026-04-19T16:09:37.832Z</time></trkpt><trkpt lat="44.359322370497885" lon="9.89235900504663"><ele>228.0</ele><time>2026-04-19T16:09:38.832Z</time></trkpt><trkpt lat="44.3592426927223" lon="9.892486674567676"><ele>228.0</ele><time>2026-04-19T16:09:39.832Z</time></trkpt><trkpt lat="44.3591634841062" lon="9.892613697951381"><ele>228.0</ele><time>2026-04-19T16:09:40.832Z</time></trkpt><trkpt lat="44.35909245773434" lon="9.892739517875988"><ele>228.0</ele><time>2026-04-19T16:09:41.832Z</time></trkpt><trkpt lat="44.359019836007306" lon="9.892866288191147"><ele>230.25</ele><time>2026-04-19T16:09:42.832Z</time></trkpt><trkpt lat="44.35894053901841" lon="9.892991588418909"><ele>232.5</ele><time>2026-04-19T16:09:43.832Z</time></trkpt><trkpt lat="44.35885238790235" lon="9.893106629497536"><ele>234.75</ele><time>2026-04-19T16:09:44.832Z</time></trkpt><trkpt lat="44.358751826108566" lon="9.893182550006134"><ele>237.0</ele><time>2026-04-19T16:09:45.832Z</time></trkpt><trkpt lat="44.35866341485643" lon="9.893281087629559"><ele>237.0</ele><time>2026-04-19T16:09:46.832Z</time></trkpt><trkpt lat="44.35856460533077" lon="9.893348766413675"><ele>237.0</ele><time>2026-04-19T16:09:47.832Z</time></trkpt><trkpt lat="44.35845928241028" lon="9.893398513770634"><ele>237.0</ele><time>2026-04-19T16:09:48.832Z</time></trkpt><trkpt lat="44.35835641257677" lon="9.893453935494453"><ele>237.0</ele><time>2026-04-19T16:09:49.832Z</time></trkpt><trkpt lat="44.35823653830775" lon="9.893486832036487"><ele>236.25</ele><time>2026-04-19T16:09:50.832Z</time></trkpt><trkpt lat="44.358123215672435" lon="9.893510694137873"><ele>235.5</ele><time>2026-04-19T16:09:51.832Z</time></trkpt><trkpt lat="44.358007848387146" lon="9.893529226795906"><ele>234.75</ele><time>2026-04-19T16:09:52.832Z</time></trkpt><trkpt lat="44.357886683983345" lon="9.893549691512861"><ele>234.0</ele><time>2026-04-19T16:09:53.832Z</time></trkpt><trkpt lat="44.357760756296585" lon="9.893573999775278"><ele>233.5</ele><time>2026-04-19T16:09:54.832Z</time></trkpt><trkpt lat="44.357630751071085" lon="9.8935956975238"><ele>233.0</ele><time>2026-04-19T16:09:55.832Z</time></trkpt><trkpt lat="44.35750011977988" lon="9.893615246305837"><ele>232.5</ele><time>2026-04-19T16:09:56.832Z</time></trkpt><trkpt lat="44.357359347422396" lon="9.89361613069746"><ele>232.0</ele><time>2026-04-19T16:09:57.832Z</time></trkpt><trkpt lat="44.35721928415419" lon="9.893650893854003"><ele>232.75</ele><time>2026-04-19T16:09:58.832Z</time></trkpt><trkpt lat="44.3570769973553" lon="9.893678666497243"><ele>233.5</ele><time>2026-04-19T16:09:59.832Z</time></trkpt><trkpt lat="44.356935453490664" lon="9.893701331597867"><ele>234.25</ele><time>2026-04-19T16:10:00.832Z</time></trkpt><trkpt lat="44.35679518959894" lon="9.893721329147324"><ele>235.0</ele><time>2026-04-19T16:10:01.832Z</time></trkpt><trkpt lat="44.35665868891135" lon="9.893742300772239"><ele>235.0</ele><time>2026-04-19T16:10:02.832Z</time></trkpt><trkpt lat="44.35652761573558" lon="9.893768298237816"><ele>235.0</ele><time>2026-04-19T16:10:03.832Z</time></trkpt><trkpt lat="44.35639278600584" lon="9.893786310924156"><ele>235.0</ele><time>2026-04-19T16:10:04.832Z</time></trkpt><trkpt lat="44.356274468401665" lon="9.893809392957024"><ele>235.0</ele><time>2026-04-19T16:10:05.832Z</time></trkpt><trkpt lat="44.35617008300226" lon="9.893830446987101"><ele>235.0</ele><time>2026-04-19T16:10:06.832Z</time></trkpt><trkpt lat="44.35607865070098" lon="9.893848962945446"><ele>235.0</ele><time>2026-04-19T16:10:07.832Z</time></trkpt><trkpt lat="44.35600291412865" lon="9.893863175405262"><ele>235.0</ele><time>2026-04-19T16:10:08.832Z</time></trkpt><trkpt lat="44.355896889337394" lon="9.893870817222854"><ele>235.0</ele><time>2026-04-19T16:10:10.832Z</time></trkpt><trkpt lat="44.35580811801413" lon="9.893943013435265"><ele>235.0</ele><time>2026-04-19T16:10:12.832Z</time></trkpt><trkpt lat="44.35578077906714" lon="9.894115734249324"><ele>235.0</ele><time>2026-04-19T16:10:14.832Z</time></trkpt><trkpt lat="44.35577745910795" lon="9.894226931081413"><ele>235.0</ele><time>2026-04-19T16:10:15.832Z</time></trkpt><trkpt lat="44.35576163044814" lon="9.894333115845582"><ele>235.0</ele><time>2026-04-19T16:10:16.832Z</time></trkpt><trkpt lat="44.355846956544546" lon="9.894468917941047"><ele>235.0</ele><time>2026-04-19T16:10:17.832Z</time></trkpt><trkpt lat="44.35586627798082" lon="9.89460659146135"><ele>235.0</ele><time>2026-04-19T16:10:18.832Z</time></trkpt><trkpt lat="44.355884250840184" lon="9.894765599884895"><ele>234.75</ele><time>2026-04-19T16:10:19.832Z</time></trkpt><trkpt lat="44.3558974779602" lon="9.894929469161696"><ele>234.5</ele><time>2026-04-19T16:10:20.832Z</time></trkpt><trkpt lat="44.355910042059236" lon="9.89509709697447"><ele>234.25</ele><time>2026-04-19T16:10:21.832Z</time></trkpt><trkpt lat="44.35591626637764" lon="9.895263337400785"><ele>234.0</ele><time>2026-04-19T16:10:22.832Z</time></trkpt><trkpt lat="44.35593579763172" lon="9.895423709791727"><ele>233.2</ele><time>2026-04-19T16:10:23.832Z</time></trkpt><trkpt lat="44.3559603469242" lon="9.895573866441891"><ele>232.39999999999998</ele><time>2026-04-19T16:10:24.832Z</time></trkpt><trkpt lat="44.35599622185087" lon="9.895711779840514"><ele>231.6</ele><time>2026-04-19T16:10:25.832Z</time></trkpt><trkpt lat="44.356044602668135" lon="9.895845297370336"><ele>230.8</ele><time>2026-04-19T16:10:26.832Z</time></trkpt><trkpt lat="44.35612360701852" lon="9.895958993304028"><ele>230.0</ele><time>2026-04-19T16:10:27.832Z</time></trkpt><trkpt lat="44.35622153414558" lon="9.896046729539322"><ele>227.5</ele><time>2026-04-19T16:10:28.832Z</time></trkpt><trkpt lat="44.35632296220641" lon="9.896113436409294"><ele>225.0</ele><time>2026-04-19T16:10:29.832Z</time></trkpt><trkpt lat="44.35641874942309" lon="9.89616388901171"><ele>222.5</ele><time>2026-04-19T16:10:30.832Z</time></trkpt><trkpt lat="44.356536571819596" lon="9.896157177494835"><ele>220.0</ele><time>2026-04-19T16:10:31.832Z</time></trkpt><trkpt lat="44.35666529808452" lon="9.896119110757283"><ele>217.25</ele><time>2026-04-19T16:10:32.832Z</time></trkpt><trkpt lat="44.35678828329096" lon="9.896070343993113"><ele>214.5</ele><time>2026-04-19T16:10:33.832Z</time></trkpt><trkpt lat="44.35691450175511" lon="9.896035483422315"><ele>211.75</ele><time>2026-04-19T16:10:34.832Z</time></trkpt><trkpt lat="44.357041158758115" lon="9.896011561911541"><ele>209.0</ele><time>2026-04-19T16:10:35.832Z</time></trkpt><trkpt lat="44.35715592073377" lon="9.89599126074238"><ele>208.25</ele><time>2026-04-19T16:10:36.832Z</time></trkpt><trkpt lat="44.357280979212625" lon="9.895999272793032"><ele>207.5</ele><time>2026-04-19T16:10:37.832Z</time></trkpt><trkpt lat="44.35741442119233" lon="9.896038552149022"><ele>206.75</ele><time>2026-04-19T16:10:38.832Z</time></trkpt><trkpt lat="44.35752869685999" lon="9.896120180082503"><ele>206.0</ele><time>2026-04-19T16:10:39.832Z</time></trkpt><trkpt lat="44.35763625840552" lon="9.896238747392049"><ele>206.0</ele><time>2026-04-19T16:10:40.832Z</time></trkpt><trkpt lat="44.35772386840891" lon="9.896396632673548"><ele>206.0</ele><time>2026-04-19T16:10:41.83Z</time></trkpt><trkpt lat="44.35779891869485" lon="9.896569056123033"><ele>206.0</ele><time>2026-04-19T16:10:42.83Z</time></trkpt><trkpt lat="44.35787116404643" lon="9.896759003847013"><ele>206.0</ele><time>2026-04-19T16:10:43.83Z</time></trkpt><trkpt lat="44.357946375728034" lon="9.896939115451465"><ele>203.66666666666669</ele><time>2026-04-19T16:10:44.83Z</time></trkpt><trkpt lat="44.3580230928202" lon="9.897129059095285"><ele>201.33333333333331</ele><time>2026-04-19T16:10:45.829Z</time></trkpt><trkpt lat="44.35810803661955" lon="9.897326720534764"><ele>199.0</ele><time>2026-04-19T16:10:46.829Z</time></trkpt><trkpt lat="44.358194861882644" lon="9.89753057023077"><ele>199.66666666666666</ele><time>2026-04-19T16:10:47.829Z</time></trkpt><trkpt lat="44.35828243136903" lon="9.89772992171882"><ele>200.33333333333331</ele><time>2026-04-19T16:10:48.829Z</time></trkpt><trkpt lat="44.35836624072373" lon="9.897922133790718"><ele>201.0</ele><time>2026-04-19T16:10:49.829Z</time></trkpt><trkpt lat="44.35845717162339" lon="9.898105275241585"><ele>201.0</ele><time>2026-04-19T16:10:50.829Z</time></trkpt><trkpt lat="44.3585617814959" lon="9.898260028636809"><ele>201.0</ele><time>2026-04-19T16:10:51.829Z</time></trkpt><trkpt lat="44.358676068702444" lon="9.898386659842863"><ele>201.0</ele><time>2026-04-19T16:10:52.829Z</time></trkpt><trkpt lat="44.35878578931965" lon="9.8984977076336"><ele>201.0</ele><time>2026-04-19T16:10:53.829Z</time></trkpt><trkpt lat="44.35889530870613" lon="9.898592059900674"><ele>201.5</ele><time>2026-04-19T16:10:54.829Z</time></trkpt><trkpt lat="44.35901057912874" lon="9.898686025341624"><ele>202.0</ele><time>2026-04-19T16:10:55.829Z</time></trkpt><trkpt lat="44.35912745654359" lon="9.898789733798985"><ele>202.5</ele><time>2026-04-19T16:10:56.829Z</time></trkpt><trkpt lat="44.359252643694504" lon="9.8989019504113"><ele>203.0</ele><time>2026-04-19T16:10:57.829Z</time></trkpt><trkpt lat="44.3593786495878" lon="9.899020209933946"><ele>203.0</ele><time>2026-04-19T16:10:58.829Z</time></trkpt><trkpt lat="44.359503616166975" lon="9.899135035467983"><ele>203.0</ele><time>2026-04-19T16:10:59.829Z</time></trkpt><trkpt lat="44.35962875661671" lon="9.899244709461994"><ele>203.0</ele><time>2026-04-19T16:11:00.829Z</time></trkpt><trkpt lat="44.35974072580993" lon="9.899342509698128"><ele>203.0</ele><time>2026-04-19T16:11:01.829Z</time></trkpt><trkpt lat="44.35983847880117" lon="9.899420617101756"><ele>203.2</ele><time>2026-04-19T16:11:02.829Z</time></trkpt><trkpt lat="44.359923360749" lon="9.899485371908655"><ele>203.4</ele><time>2026-04-19T16:11:03.829Z</time></trkpt><trkpt lat="44.35998946601647" lon="9.89955371375766"><ele>203.6</ele><time>2026-04-19T16:11:04.829Z</time></trkpt><trkpt lat="44.360031889927036" lon="9.899631950964235"><ele>203.79999999999998</ele><time>2026-04-19T16:11:05.829Z</time></trkpt><trkpt lat="44.360049596356106" lon="9.89976540440855"><ele>204.0</ele><time>2026-04-19T16:11:07.829Z</time></trkpt><trkpt lat="44.36001229223629" lon="9.899901131723642"><ele>204.0</ele><time>2026-04-19T16:11:15.829Z</time></trkpt><trkpt lat="44.35995010468694" lon="9.89996290514986"><ele>204.0</ele><time>2026-04-19T16:11:16.829Z</time></trkpt><trkpt lat="44.359883773274646" lon="9.90003546227195"><ele>204.0</ele><time>2026-04-19T16:11:17.829Z</time></trkpt><trkpt lat="44.35981013102603" lon="9.900120788413682"><ele>204.0</ele><time>2026-04-19T16:11:18.829Z</time></trkpt><trkpt lat="44.35973790934114" lon="9.900208780936596"><ele>204.0</ele><time>2026-04-19T16:11:19.829Z</time></trkpt><trkpt lat="44.35966899300422" lon="9.900285835881"><ele>204.0</ele><time>2026-04-19T16:11:20.829Z</time></trkpt><trkpt lat="44.35959471458553" lon="9.900368088621596"><ele>203.6</ele><time>2026-04-19T16:11:21.829Z</time></trkpt><trkpt lat="44.359517576894326" lon="9.900454890084385"><ele>203.2</ele><time>2026-04-19T16:11:22.829Z</time></trkpt><trkpt lat="44.35943916067508" lon="9.900545915545878"><ele>202.79999999999998</ele><time>2026-04-19T16:11:23.83Z</time></trkpt><trkpt lat="44.35935805820936" lon="9.90064116314423"><ele>202.39999999999998</ele><time>2026-04-19T16:11:24.83Z</time></trkpt><trkpt lat="44.35926396714349" lon="9.900710091460638"><ele>202.0</ele><time>2026-04-19T16:11:25.83Z</time></trkpt><trkpt lat="44.359183459870266" lon="9.900802332890583"><ele>202.0</ele><time>2026-04-19T16:11:26.83Z</time></trkpt><trkpt lat="44.35909986261167" lon="9.900898114705512"><ele>202.0</ele><time>2026-04-19T16:11:27.83Z</time></trkpt><trkpt lat="44.359017320266204" lon="9.900992729916473"><ele>202.0</ele><time>2026-04-19T16:11:28.83Z</time></trkpt><trkpt lat="44.358930848213234" lon="9.901091877148062"><ele>202.0</ele><time>2026-04-19T16:11:29.83Z</time></trkpt><trkpt lat="44.3588372047717" lon="9.901199246977539"><ele>202.0</ele><time>2026-04-19T16:11:30.83Z</time></trkpt><trkpt lat="44.35873496727135" lon="9.901315466911422"><ele>201.66666666666666</ele><time>2026-04-19T16:11:31.83Z</time></trkpt><trkpt lat="44.358618664063435" lon="9.90144764115398"><ele>201.33333333333331</ele><time>2026-04-19T16:11:32.83Z</time></trkpt><trkpt lat="44.35849295568289" lon="9.901591908623814"><ele>201.0</ele><time>2026-04-19T16:11:33.83Z</time></trkpt><trkpt lat="44.358365010897444" lon="9.90173893088298"><ele>201.33333333333331</ele><time>2026-04-19T16:11:34.83Z</time></trkpt><trkpt lat="44.358228959088336" lon="9.901894150925706"><ele>201.66666666666666</ele><time>2026-04-19T16:11:35.83Z</time></trkpt><trkpt lat="44.35808647122648" lon="9.902054224065662"><ele>202.0</ele><time>2026-04-19T16:11:36.83Z</time></trkpt><trkpt lat="44.35793672031397" lon="9.902212394981373"><ele>202.0</ele><time>2026-04-19T16:11:37.83Z</time></trkpt><trkpt lat="44.35778762029597" lon="9.902369853706203"><ele>202.0</ele><time>2026-04-19T16:11:38.83Z</time></trkpt><trkpt lat="44.35761377033783" lon="9.902462296746585"><ele>202.0</ele><time>2026-04-19T16:11:39.83Z</time></trkpt><trkpt lat="44.35744727789789" lon="9.902557431785565"><ele>202.0</ele><time>2026-04-19T16:11:40.83Z</time></trkpt><trkpt lat="44.3572834585444" lon="9.902648819990281"><ele>202.0</ele><time>2026-04-19T16:11:41.83Z</time></trkpt><trkpt lat="44.35712945760514" lon="9.902734438810967"><ele>202.0</ele><time>2026-04-19T16:11:42.83Z</time></trkpt><trkpt lat="44.35698568695921" lon="9.902814369955436"><ele>202.0</ele><time>2026-04-19T16:11:43.83Z</time></trkpt><trkpt lat="44.35685599391008" lon="9.90288647450749"><ele>202.0</ele><time>2026-04-19T16:11:44.83Z</time></trkpt><trkpt lat="44.35673006419309" lon="9.902956510463854"><ele>202.0</ele><time>2026-04-19T16:11:45.83Z</time></trkpt><trkpt lat="44.35660127977617" lon="9.903028669813002"><ele>202.0</ele><time>2026-04-19T16:11:46.83Z</time></trkpt><trkpt lat="44.35647267003609" lon="9.903100731304713"><ele>201.75</ele><time>2026-04-19T16:11:47.83Z</time></trkpt><trkpt lat="44.35634782782638" lon="9.903194040707437"><ele>201.5</ele><time>2026-04-19T16:11:48.83Z</time></trkpt><trkpt lat="44.356211563069536" lon="9.90324635343125"><ele>201.25</ele><time>2026-04-19T16:11:49.83Z</time></trkpt><trkpt lat="44.356080868547664" lon="9.903318942033163"><ele>201.0</ele><time>2026-04-19T16:11:50.83Z</time></trkpt><trkpt lat="44.35594794176919" lon="9.90339277043084"><ele>200.33333333333331</ele><time>2026-04-19T16:11:51.83Z</time></trkpt><trkpt lat="44.35582253555131" lon="9.903487090272302"><ele>199.66666666666666</ele><time>2026-04-19T16:11:52.83Z</time></trkpt><trkpt lat="44.355668694370074" lon="9.903548278969632"><ele>199.0</ele><time>2026-04-19T16:11:53.83Z</time></trkpt><trkpt lat="44.35549552324409" lon="9.903666802859004"><ele>199.0</ele><time>2026-04-19T16:11:54.83Z</time></trkpt><trkpt lat="44.35530894660045" lon="9.903815248825614"><ele>199.0</ele><time>2026-04-19T16:11:55.83Z</time></trkpt><trkpt lat="44.355102263237974" lon="9.903982706505477"><ele>199.0</ele><time>2026-04-19T16:11:56.83Z</time></trkpt><trkpt lat="44.354899719814085" lon="9.904169606992747"><ele>199.0</ele><time>2026-04-19T16:11:57.83Z</time></trkpt><trkpt lat="44.35467603507125" lon="9.904338310590562"><ele>198.5</ele><time>2026-04-19T16:11:58.83Z</time></trkpt><trkpt lat="44.35445046016466" lon="9.90452805635788"><ele>198.0</ele><time>2026-04-19T16:11:59.83Z</time></trkpt><trkpt lat="44.354231871346" lon="9.904711226522984"><ele>198.0</ele><time>2026-04-19T16:12:00.83Z</time></trkpt><trkpt lat="44.35403010259055" lon="9.904876246710552"><ele>198.0</ele><time>2026-04-19T16:12:01.83Z</time></trkpt><trkpt lat="44.35383660011974" lon="9.905029499015559"><ele>197.33333333333331</ele><time>2026-04-19T16:12:02.83Z</time></trkpt><trkpt lat="44.35365003648543" lon="9.905179700502975"><ele>196.66666666666666</ele><time>2026-04-19T16:12:03.83Z</time></trkpt><trkpt lat="44.353466178485576" lon="9.90533071157875"><ele>196.0</ele><time>2026-04-19T16:12:04.83Z</time></trkpt><trkpt lat="44.35328391283815" lon="9.905478990297855"><ele>196.0</ele><time>2026-04-19T16:12:05.83Z</time></trkpt><trkpt lat="44.35310952705625" lon="9.905628095973773"><ele>196.0</ele><time>2026-04-19T16:12:06.83Z</time></trkpt><trkpt lat="44.352938828571666" lon="9.905767928047032"><ele>196.0</ele><time>2026-04-19T16:12:07.83Z</time></trkpt><trkpt lat="44.352768519192686" lon="9.90589262295899"><ele>195.0</ele><time>2026-04-19T16:12:08.83Z</time></trkpt><trkpt lat="44.352590649629114" lon="9.905998668259027"><ele>194.0</ele><time>2026-04-19T16:12:09.83Z</time></trkpt><trkpt lat="44.35240694047252" lon="9.906094129432487"><ele>193.0</ele><time>2026-04-19T16:12:10.83Z</time></trkpt><trkpt lat="44.352218090893736" lon="9.906176562777693"><ele>192.66666666666666</ele><time>2026-04-19T16:12:11.83Z</time></trkpt><trkpt lat="44.35202709199078" lon="9.906257681946991"><ele>192.33333333333331</ele><time>2026-04-19T16:12:12.83Z</time></trkpt><trkpt lat="44.35184173445751" lon="9.906335728550681"><ele>192.0</ele><time>2026-04-19T16:12:13.83Z</time></trkpt><trkpt lat="44.35166256870831" lon="9.906417276382882"><ele>192.0</ele><time>2026-04-19T16:12:14.83Z</time></trkpt><trkpt lat="44.351486837734875" lon="9.90649211349451"><ele>192.0</ele><time>2026-04-19T16:12:15.83Z</time></trkpt><trkpt lat="44.351317396969264" lon="9.906567239511368"><ele>192.0</ele><time>2026-04-19T16:12:16.83Z</time></trkpt><trkpt lat="44.35114842962238" lon="9.906617371460968"><ele>191.0</ele><time>2026-04-19T16:12:17.83Z</time></trkpt><trkpt lat="44.350988869593216" lon="9.906684850947446"><ele>190.0</ele><time>2026-04-19T16:12:18.83Z</time></trkpt><trkpt lat="44.35084134959441" lon="9.90674146126237"><ele>189.0</ele><time>2026-04-19T16:12:19.829Z</time></trkpt><trkpt lat="44.35069748422764" lon="9.9067917577482"><ele>189.0</ele><time>2026-04-19T16:12:20.829Z</time></trkpt><trkpt lat="44.35056616013804" lon="9.90683510401705"><ele>189.0</ele><time>2026-04-19T16:12:21.829Z</time></trkpt><trkpt lat="44.35045056129536" lon="9.906872981665996"><ele>189.0</ele><time>2026-04-19T16:12:22.829Z</time></trkpt><trkpt lat="44.350345820572265" lon="9.906914619391335"><ele>189.0</ele><time>2026-04-19T16:12:23.829Z</time></trkpt><trkpt lat="44.35024669101488" lon="9.906956517997783"><ele>188.79999999999998</ele><time>2026-04-19T16:12:24.829Z</time></trkpt><trkpt lat="44.35014700760539" lon="9.907003914096686"><ele>188.6</ele><time>2026-04-19T16:12:25.829Z</time></trkpt><trkpt lat="44.35004610222345" lon="9.90705275431569"><ele>188.4</ele><time>2026-04-19T16:12:26.829Z</time></trkpt><trkpt lat="44.349946064618265" lon="9.90710088043279"><ele>188.2</ele><time>2026-04-19T16:12:27.829Z</time></trkpt><trkpt lat="44.34984693798181" lon="9.907151747351323"><ele>188.0</ele><time>2026-04-19T16:12:28.829Z</time></trkpt><trkpt lat="44.34974822203298" lon="9.907211420985693"><ele>187.60000000000002</ele><time>2026-04-19T16:12:29.829Z</time></trkpt><trkpt lat="44.3496470717638" lon="9.907261079569208"><ele>187.20000000000002</ele><time>2026-04-19T16:12:30.829Z</time></trkpt><trkpt lat="44.349549947805244" lon="9.907317793194688"><ele>186.8</ele><time>2026-04-19T16:12:31.829Z</time></trkpt><trkpt lat="44.34945979142259" lon="9.907383906232896"><ele>186.4</ele><time>2026-04-19T16:12:32.829Z</time></trkpt><trkpt lat="44.349367674298485" lon="9.907452949902982"><ele>186.0</ele><time>2026-04-19T16:12:33.829Z</time></trkpt><trkpt lat="44.34927451622103" lon="9.907519920791506"><ele>186.0</ele><time>2026-04-19T16:12:34.829Z</time></trkpt><trkpt lat="44.34918075588971" lon="9.907588537513316"><ele>186.0</ele><time>2026-04-19T16:12:35.829Z</time></trkpt><trkpt lat="44.34908817244814" lon="9.907660344717518"><ele>186.0</ele><time>2026-04-19T16:12:36.829Z</time></trkpt><trkpt lat="44.34899776521576" lon="9.907734897816454"><ele>186.0</ele><time>2026-04-19T16:12:37.829Z</time></trkpt><trkpt lat="44.348906609457075" lon="9.907811740563913"><ele>186.0</ele><time>2026-04-19T16:12:38.829Z</time></trkpt><trkpt lat="44.34881524021192" lon="9.907889997229232"><ele>185.5</ele><time>2026-04-19T16:12:39.829Z</time></trkpt><trkpt lat="44.34872328631437" lon="9.907972104512972"><ele>185.0</ele><time>2026-04-19T16:12:40.829Z</time></trkpt><trkpt lat="44.34862831446311" lon="9.908060492344884"><ele>184.5</ele><time>2026-04-19T16:12:41.829Z</time></trkpt><trkpt lat="44.34853196612021" lon="9.90815342039734"><ele>184.0</ele><time>2026-04-19T16:12:42.829Z</time></trkpt><trkpt lat="44.34844108341673" lon="9.908245720740975"><ele>184.0</ele><time>2026-04-19T16:12:43.829Z</time></trkpt><trkpt lat="44.34835102306667" lon="9.908349907921373"><ele>184.0</ele><time>2026-04-19T16:12:44.829Z</time></trkpt><trkpt lat="44.34826051588244" lon="9.90843802023821"><ele>184.0</ele><time>2026-04-19T16:12:45.829Z</time></trkpt><trkpt lat="44.34817503292042" lon="9.908540362149793"><ele>184.0</ele><time>2026-04-19T16:12:46.829Z</time></trkpt><trkpt lat="44.34809701904605" lon="9.90866711254774"><ele>184.0</ele><time>2026-04-19T16:12:47.827Z</time></trkpt><trkpt lat="44.34801949620543" lon="9.908801457857104"><ele>184.0</ele><time>2026-04-19T16:12:48.827Z</time></trkpt><trkpt lat="44.347930841269" lon="9.908944988233591"><ele>184.0</ele><time>2026-04-19T16:12:49.827Z</time></trkpt><trkpt lat="44.34772987703188" lon="9.909289620495313"><ele>184.0</ele><time>2026-04-19T16:12:51.827Z</time></trkpt><trkpt lat="44.34762074418126" lon="9.909482115537873"><ele>184.0</ele><time>2026-04-19T16:12:52.827Z</time></trkpt><trkpt lat="44.34750846109583" lon="9.909695791228712"><ele>184.0</ele><time>2026-04-19T16:12:53.827Z</time></trkpt><trkpt lat="44.347389423089496" lon="9.90992412367742"><ele>183.66666666666669</ele><time>2026-04-19T16:12:54.826Z</time></trkpt><trkpt lat="44.34726187149743" lon="9.910171620855373"><ele>183.33333333333334</ele><time>2026-04-19T16:12:55.826Z</time></trkpt><trkpt lat="44.347135779749976" lon="9.910412440633472"><ele>183.0</ele><time>2026-04-19T16:12:56.826Z</time></trkpt><trkpt lat="44.34701576684477" lon="9.910630929180128"><ele>183.0</ele><time>2026-04-19T16:12:57.826Z</time></trkpt><trkpt lat="44.34690885345522" lon="9.910825211921551"><ele>183.0</ele><time>2026-04-19T16:12:58.826Z</time></trkpt><trkpt lat="44.34680113252613" lon="9.911002262411523"><ele>183.0</ele><time>2026-04-19T16:12:59.827Z</time></trkpt><trkpt lat="44.34667609759393" lon="9.911171559213557"><ele>184.66666666666666</ele><time>2026-04-19T16:13:00.827Z</time></trkpt><trkpt lat="44.34653519527898" lon="9.91131807301046"><ele>186.33333333333331</ele><time>2026-04-19T16:13:01.827Z</time></trkpt><trkpt lat="44.346389478105294" lon="9.911442420206427"><ele>188.0</ele><time>2026-04-19T16:13:02.827Z</time></trkpt><trkpt lat="44.3462454101043" lon="9.911537234422187"><ele>188.0</ele><time>2026-04-19T16:13:03.827Z</time></trkpt><trkpt lat="44.3461081302501" lon="9.911605559567487"><ele>188.0</ele><time>2026-04-19T16:13:04.827Z</time></trkpt><trkpt lat="44.34598319361467" lon="9.911657767038786"><ele>188.0</ele><time>2026-04-19T16:13:05.827Z</time></trkpt><trkpt lat="44.3458749994325" lon="9.911679176811841"><ele>188.0</ele><time>2026-04-19T16:13:06.827Z</time></trkpt><trkpt lat="44.34577826600868" lon="9.911698244176053"><ele>188.0</ele><time>2026-04-19T16:13:07.827Z</time></trkpt><trkpt lat="44.34569485136508" lon="9.911707862667443"><ele>188.0</ele><time>2026-04-19T16:13:08.827Z</time></trkpt><trkpt lat="44.345623777402174" lon="9.911698404869272"><ele>188.0</ele><time>2026-04-19T16:13:09.827Z</time></trkpt><trkpt lat="44.34552811494973" lon="9.911707271440909"><ele>188.0</ele><time>2026-04-19T16:13:11.827Z</time></trkpt><trkpt lat="44.34550088072298" lon="9.911875370871039"><ele>188.0</ele><time>2026-04-19T16:13:12.827Z</time></trkpt><trkpt lat="44.345466352882944" lon="9.911971821808956"><ele>190.0</ele><time>2026-04-19T16:13:14.827Z</time></trkpt></trkseg></trk></gpx>